<?xml version='1.0' encoding='UTF-8'?><gpx version="1.1" creator="JPX - https://github.com/jenetics/jpx" xmlns="http://www.topografix.com/GPX/1/1"><trk><trkseg><trkpt lat="43.4620168" lon="11.2865327"><ele>560.0</ele><time>2026-05-02T07:01:18.467Z</time></trkpt><trkpt lat="43.4641484" lon="11.2888117"><ele>561.0</ele><time>2026-05-02T07:03:35.009Z</time></trkpt><trkpt lat="43.4645431" lon="11.2894298"><ele>564.0</ele><time>2026-05-02T07:04:26.299Z</time></trkpt><trkpt lat="43.4652823" lon="11.2892273"><ele>567.0</ele><time>2026-05-02T07:04:36.129Z</time></trkpt><trkpt lat="43.4662566" lon="11.2890082"><ele>572.0</ele><time>2026-05-02T07:04:41.952Z</time></trkpt><trkpt lat="43.4668001" lon="11.2885317"><ele>570.5</ele><time>2026-05-02T07:04:48.214Z</time></trkpt><trkpt lat="43.4671368" lon="11.2884295"><ele>569.0</ele><time>2026-05-02T07:04:54.018Z</time></trkpt><trkpt lat="43.4677176" lon="11.2878171"><ele>569.0</ele><time>2026-05-02T07:04:59.684Z</time></trkpt><trkpt lat="43.4678861" lon="11.2873793"><ele>569.0</ele><time>2026-05-02T07:05:06.015Z</time></trkpt><trkpt lat="43.4684957" lon="11.2866913"><ele>566.0</ele><time>2026-05-02T07:05:12.313Z</time></trkpt><trkpt lat="43.4690908" lon="11.286074"><ele>568.0</ele><time>2026-05-02T07:05:18.622Z</time></trkpt><trkpt lat="43.4698042" lon="11.2858677"><ele>568.0</ele><time>2026-05-02T07:05:25.116Z</time></trkpt><trkpt lat="43.4700581" lon="11.2858222"><ele>568.0</ele><time>2026-05-02T07:05:31.364Z</time></trkpt><trkpt lat="43.4706866" lon="11.2859654"><ele>578.0</ele><time>2026-05-02T07:05:39.875Z</time></trkpt><trkpt lat="43.4723367" lon="11.2856101"><ele>576.0</ele><time>2026-05-02T07:06:05.086Z</time></trkpt><trkpt lat="43.4700814" lon="11.2867919"><ele>570.0</ele><time>2026-05-02T07:06:12.691Z</time></trkpt><trkpt lat="43.4731861" lon="11.28756"><ele>591.0</ele><time>2026-05-02T07:06:21.685Z</time></trkpt><trkpt lat="43.4754306" lon="11.2829483"><ele>569.0</ele><time>2026-05-02T07:06:49.619Z</time></trkpt><trkpt lat="43.4777186" lon="11.2902176"><ele>551.0</ele><time>2026-05-02T07:07:06.207Z</time></trkpt><trkpt lat="43.4752" lon="11.2951512"><ele>589.0</ele><time>2026-05-02T07:07:47.977Z</time></trkpt><trkpt lat="43.4824156" lon="11.3048537"><ele>599.0</ele><time>2026-05-02T07:08:55.065Z</time></trkpt><trkpt lat="43.4850906" lon="11.3216616"><ele>618.0</ele><time>2026-05-02T07:10:29.189Z</time></trkpt><trkpt lat="43.4783362" lon="11.3315324"><ele>514.0</ele><time>2026-05-02T07:11:51.862Z</time></trkpt><trkpt lat="43.4471556" lon="11.3780896"><ele>522.0</ele><time>2026-05-02T07:14:36.773Z</time></trkpt><trkpt lat="43.4866932" lon="11.3756416"><ele>501.0</ele><time>2026-05-02T07:15:17.38Z</time></trkpt><trkpt lat="43.4841445" lon="11.3658958"><ele>501.0</ele><time>2026-05-02T07:15:56.327Z</time></trkpt><trkpt lat="43.4838436" lon="11.3659816"><ele>501.0</ele><time>2026-05-02T07:16:03.123Z</time></trkpt><trkpt lat="43.4842712" lon="11.3661397"><ele>495.0</ele><time>2026-05-02T07:16:09.834Z</time></trkpt><trkpt lat="43.484274" lon="11.3670601"><ele>494.5</ele><time>2026-05-02T07:16:16.732Z</time></trkpt><trkpt lat="43.4841942" lon="11.3675512"><ele>494.0</ele><time>2026-05-02T07:16:23.581Z</time></trkpt><trkpt lat="43.4848636" lon="11.3691271"><ele>500.5</ele><time>2026-05-02T07:16:30.097Z</time></trkpt><trkpt lat="43.4850002" lon="11.3695332"><ele>507.0</ele><time>2026-05-02T07:16:36.517Z</time></trkpt><trkpt lat="43.4865007" lon="11.3724179"><ele>509.66666666666663</ele><time>2026-05-02T07:16:47.667Z</time></trkpt><trkpt lat="43.4863886" lon="11.3724379"><ele>512.3333333333333</ele><time>2026-05-02T07:16:54.054Z</time></trkpt><trkpt lat="43.4863958" lon="11.3727151"><ele>515.0</ele><time>2026-05-02T07:17:00.459Z</time></trkpt><trkpt lat="43.4864359" lon="11.3732894"><ele>521.0</ele><time>2026-05-02T07:17:06.828Z</time></trkpt><trkpt lat="43.486177" lon="11.3740775"><ele>532.0</ele><time>2026-05-02T07:17:13.314Z</time></trkpt><trkpt lat="43.4865156" lon="11.3750731"><ele>522.0</ele><time>2026-05-02T07:17:19.668Z</time></trkpt><trkpt lat="43.4867677" lon="11.3757842"><ele>515.0</ele><time>2026-05-02T07:17:26.463Z</time></trkpt><trkpt lat="43.4869125" lon="11.3765512"><ele>515.0</ele><time>2026-05-02T07:17:33.411Z</time></trkpt><trkpt lat="43.4869377" lon="11.3777362"><ele>501.0</ele><time>2026-05-02T07:17:39.841Z</time></trkpt><trkpt lat="43.487059" lon="11.3789331"><ele>506.0</ele><time>2026-05-02T07:17:45.746Z</time></trkpt><trkpt lat="43.4877324" lon="11.3795669"><ele>477.0</ele><time>2026-05-02T07:17:53.076Z</time></trkpt><trkpt lat="43.4894574" lon="11.3821338"><ele>459.0</ele><time>2026-05-02T07:18:04.593Z</time></trkpt><trkpt lat="43.490547" lon="11.385141"><ele>459.0</ele><time>2026-05-02T07:18:28.761Z</time></trkpt><trkpt lat="43.4902894" lon="11.3858981"><ele>451.0</ele><time>2026-05-02T07:18:35.751Z</time></trkpt><trkpt lat="43.4888156" lon="11.3881759"><ele>451.0</ele><time>2026-05-02T07:18:48.565Z</time></trkpt><trkpt lat="43.4895824" lon="11.3883484"><ele>453.0</ele><time>2026-05-02T07:18:59.818Z</time></trkpt><trkpt lat="43.4895353" lon="11.3898674"><ele>459.0</ele><time>2026-05-02T07:19:06.276Z</time></trkpt><trkpt lat="43.4898921" lon="11.3907256"><ele>459.0</ele><time>2026-05-02T07:19:12.288Z</time></trkpt><trkpt lat="43.490234" lon="11.3913181"><ele>468.0</ele><time>2026-05-02T07:19:18.575Z</time></trkpt><trkpt lat="43.4905263" lon="11.3923961"><ele>466.0</ele><time>2026-05-02T07:19:24.128Z</time></trkpt><trkpt lat="43.4904987" lon="11.3943692"><ele>502.0</ele><time>2026-05-02T07:19:29.528Z</time></trkpt><trkpt lat="43.4886971" lon="11.3999712"><ele>419.0</ele><time>2026-05-02T07:19:53.358Z</time></trkpt><trkpt lat="43.4716811" lon="11.3957224"><ele>406.0</ele><time>2026-05-02T07:21:01.079Z</time></trkpt><trkpt lat="43.4742045" lon="11.3939355"><ele>419.0</ele><time>2026-05-02T07:21:38.989Z</time></trkpt><trkpt lat="43.4718076" lon="11.3955365"><ele>419.0</ele><time>2026-05-02T07:21:44.48Z</time></trkpt><trkpt lat="43.4716793" lon="11.3957305"><ele>419.0</ele><time>2026-05-02T07:21:50.04Z</time></trkpt><trkpt lat="43.4787501" lon="11.39699"><ele>419.0</ele><time>2026-05-02T07:22:07.304Z</time></trkpt><trkpt lat="43.4717071" lon="11.3957115"><ele>376.0</ele><time>2026-05-02T07:22:44.835Z</time></trkpt><trkpt lat="43.4694985" lon="11.4020965"><ele>376.0</ele><time>2026-05-02T07:23:13.43Z</time></trkpt><trkpt lat="43.4693557" lon="11.4020326"><ele>376.0</ele><time>2026-05-02T07:23:14.423Z</time></trkpt><trkpt lat="43.4690978" lon="11.4022719"><ele>375.3333333333333</ele><time>2026-05-02T07:23:15.431Z</time></trkpt><trkpt lat="43.4688701" lon="11.4021893"><ele>374.6666666666667</ele><time>2026-05-02T07:23:17.437Z</time></trkpt><trkpt lat="43.4687149" lon="11.4022654"><ele>374.0</ele><time>2026-05-02T07:23:18.464Z</time></trkpt><trkpt lat="43.4685822" lon="11.4023964"><ele>374.0</ele><time>2026-05-02T07:23:19.439Z</time></trkpt><trkpt lat="43.4684623" lon="11.4025297"><ele>374.0</ele><time>2026-05-02T07:23:20.46Z</time></trkpt><trkpt lat="43.4683404" lon="11.4026741"><ele>374.0</ele><time>2026-05-02T07:23:21.438Z</time></trkpt><trkpt lat="43.4682206" lon="11.402837"><ele>372.33333333333337</ele><time>2026-05-02T07:23:22.437Z</time></trkpt><trkpt lat="43.4681044" lon="11.4030116"><ele>370.6666666666667</ele><time>2026-05-02T07:23:23.475Z</time></trkpt><trkpt lat="43.467989" lon="11.4031874"><ele>369.0</ele><time>2026-05-02T07:23:24.438Z</time></trkpt><trkpt lat="43.4678707" lon="11.4033592"><ele>369.0</ele><time>2026-05-02T07:23:25.445Z</time></trkpt><trkpt lat="43.4677531" lon="11.4035441"><ele>369.0</ele><time>2026-05-02T07:23:26.44Z</time></trkpt><trkpt lat="43.4676284" lon="11.4037208"><ele>369.0</ele><time>2026-05-02T07:23:27.451Z</time></trkpt><trkpt lat="43.4675027" lon="11.403901"><ele>370.5</ele><time>2026-05-02T07:23:28.457Z</time></trkpt><trkpt lat="43.4673803" lon="11.4040766"><ele>372.0</ele><time>2026-05-02T07:23:29.441Z</time></trkpt><trkpt lat="43.4671279" lon="11.404457"><ele>370.3333333333333</ele><time>2026-05-02T07:23:31.439Z</time></trkpt><trkpt lat="43.4670042" lon="11.4046439"><ele>368.66666666666663</ele><time>2026-05-02T07:23:32.437Z</time></trkpt><trkpt lat="43.4668769" lon="11.4048166"><ele>367.0</ele><time>2026-05-02T07:23:33.438Z</time></trkpt><trkpt lat="43.4667407" lon="11.404998"><ele>367.0</ele><time>2026-05-02T07:23:34.43Z</time></trkpt><trkpt lat="43.4666057" lon="11.4051774"><ele>367.0</ele><time>2026-05-02T07:23:35.43Z</time></trkpt><trkpt lat="43.4664709" lon="11.4053655"><ele>367.0</ele><time>2026-05-02T07:23:36.441Z</time></trkpt><trkpt lat="43.4663462" lon="11.4055498"><ele>365.0</ele><time>2026-05-02T07:23:37.438Z</time></trkpt><trkpt lat="43.4662325" lon="11.4057171"><ele>363.0</ele><time>2026-05-02T07:23:38.436Z</time></trkpt><trkpt lat="43.4661155" lon="11.4058871"><ele>361.0</ele><time>2026-05-02T07:23:39.463Z</time></trkpt><trkpt lat="43.4660139" lon="11.406043"><ele>361.0</ele><time>2026-05-02T07:23:40.441Z</time></trkpt><trkpt lat="43.465932" lon="11.4061948"><ele>361.0</ele><time>2026-05-02T07:23:41.458Z</time></trkpt><trkpt lat="43.465852" lon="11.4063622"><ele>361.0</ele><time>2026-05-02T07:23:42.446Z</time></trkpt><trkpt lat="43.4657671" lon="11.4065315"><ele>361.0</ele><time>2026-05-02T07:23:43.437Z</time></trkpt><trkpt lat="43.4656889" lon="11.4067122"><ele>360.66666666666663</ele><time>2026-05-02T07:23:44.447Z</time></trkpt><trkpt lat="43.4656039" lon="11.406898"><ele>360.3333333333333</ele><time>2026-05-02T07:23:45.448Z</time></trkpt><trkpt lat="43.4655212" lon="11.4070891"><ele>360.0</ele><time>2026-05-02T07:23:46.445Z</time></trkpt><trkpt lat="43.4654371" lon="11.4072857"><ele>359.0</ele><time>2026-05-02T07:23:47.437Z</time></trkpt><trkpt lat="43.4653574" lon="11.4074737"><ele>358.0</ele><time>2026-05-02T07:23:48.435Z</time></trkpt><trkpt lat="43.4652772" lon="11.4076536"><ele>357.0</ele><time>2026-05-02T07:23:49.473Z</time></trkpt><trkpt lat="43.4651841" lon="11.4078037"><ele>357.0</ele><time>2026-05-02T07:23:50.462Z</time></trkpt><trkpt lat="43.4650638" lon="11.4079377"><ele>357.0</ele><time>2026-05-02T07:23:51.454Z</time></trkpt><trkpt lat="43.4649136" lon="11.408039"><ele>357.0</ele><time>2026-05-02T07:23:52.467Z</time></trkpt><trkpt lat="43.4647634" lon="11.40809"><ele>356.3333333333333</ele><time>2026-05-02T07:23:53.467Z</time></trkpt><trkpt lat="43.4646101" lon="11.4081721"><ele>355.66666666666663</ele><time>2026-05-02T07:23:54.444Z</time></trkpt><trkpt lat="43.4644728" lon="11.4083109"><ele>355.0</ele><time>2026-05-02T07:23:55.466Z</time></trkpt><trkpt lat="43.4643559" lon="11.408475"><ele>355.0</ele><time>2026-05-02T07:23:56.464Z</time></trkpt><trkpt lat="43.4642775" lon="11.4086841"><ele>355.0</ele><time>2026-05-02T07:23:57.453Z</time></trkpt><trkpt lat="43.4642251" lon="11.408913"><ele>355.0</ele><time>2026-05-02T07:23:58.454Z</time></trkpt><trkpt lat="43.46418" lon="11.409154"><ele>355.3333333333333</ele><time>2026-05-02T07:23:59.457Z</time></trkpt><trkpt lat="43.464148" lon="11.4093935"><ele>355.6666666666667</ele><time>2026-05-02T07:24:00.444Z</time></trkpt><trkpt lat="43.4641183" lon="11.4096321"><ele>356.0</ele><time>2026-05-02T07:24:01.455Z</time></trkpt><trkpt lat="43.4640851" lon="11.409867"><ele>357.33333333333337</ele><time>2026-05-02T07:24:02.458Z</time></trkpt><trkpt lat="43.4640412" lon="11.4100883"><ele>358.6666666666667</ele><time>2026-05-02T07:24:03.427Z</time></trkpt><trkpt lat="43.4639777" lon="11.4102926"><ele>360.0</ele><time>2026-05-02T07:24:04.455Z</time></trkpt><trkpt lat="43.4639089" lon="11.4104734"><ele>361.3333333333333</ele><time>2026-05-02T07:24:05.445Z</time></trkpt><trkpt lat="43.4638329" lon="11.4106466"><ele>362.66666666666663</ele><time>2026-05-02T07:24:06.441Z</time></trkpt><trkpt lat="43.463736" lon="11.4108213"><ele>364.0</ele><time>2026-05-02T07:24:07.447Z</time></trkpt><trkpt lat="43.4636282" lon="11.4110115"><ele>361.3333333333333</ele><time>2026-05-02T07:24:08.442Z</time></trkpt><trkpt lat="43.4635205" lon="11.411199"><ele>358.6666666666667</ele><time>2026-05-02T07:24:09.443Z</time></trkpt><trkpt lat="43.4634131" lon="11.411399"><ele>356.0</ele><time>2026-05-02T07:24:10.447Z</time></trkpt><trkpt lat="43.4633001" lon="11.4116173"><ele>356.0</ele><time>2026-05-02T07:24:11.452Z</time></trkpt><trkpt lat="43.463183" lon="11.4118395"><ele>356.0</ele><time>2026-05-02T07:24:12.453Z</time></trkpt><trkpt lat="43.4630647" lon="11.4120554"><ele>356.0</ele><time>2026-05-02T07:24:13.463Z</time></trkpt><trkpt lat="43.46295" lon="11.4122717"><ele>354.6666666666667</ele><time>2026-05-02T07:24:14.442Z</time></trkpt><trkpt lat="43.4628268" lon="11.4124943"><ele>353.3333333333333</ele><time>2026-05-02T07:24:15.452Z</time></trkpt><trkpt lat="43.4627113" lon="11.4127206"><ele>352.0</ele><time>2026-05-02T07:24:16.443Z</time></trkpt><trkpt lat="43.4625927" lon="11.4129419"><ele>352.3333333333333</ele><time>2026-05-02T07:24:17.442Z</time></trkpt><trkpt lat="43.4624744" lon="11.4131439"><ele>352.6666666666667</ele><time>2026-05-02T07:24:18.448Z</time></trkpt><trkpt lat="43.4623629" lon="11.4133185"><ele>353.0</ele><time>2026-05-02T07:24:19.45Z</time></trkpt><trkpt lat="43.4622415" lon="11.4134739"><ele>351.6666666666667</ele><time>2026-05-02T07:24:20.445Z</time></trkpt><trkpt lat="43.4621025" lon="11.4136056"><ele>350.3333333333333</ele><time>2026-05-02T07:24:21.457Z</time></trkpt><trkpt lat="43.4619443" lon="11.4136964"><ele>349.0</ele><time>2026-05-02T07:24:22.448Z</time></trkpt><trkpt lat="43.4617799" lon="11.413776"><ele>352.0</ele><time>2026-05-02T07:24:23.451Z</time></trkpt><trkpt lat="43.4616113" lon="11.413837"><ele>355.0</ele><time>2026-05-02T07:24:24.454Z</time></trkpt><trkpt lat="43.4614571" lon="11.4139294"><ele>358.0</ele><time>2026-05-02T07:24:25.45Z</time></trkpt><trkpt lat="43.4613262" lon="11.414069"><ele>354.66666666666663</ele><time>2026-05-02T07:24:26.446Z</time></trkpt><trkpt lat="43.4612076" lon="11.4142266"><ele>351.3333333333333</ele><time>2026-05-02T07:24:27.444Z</time></trkpt><trkpt lat="43.4610783" lon="11.4143968"><ele>348.0</ele><time>2026-05-02T07:24:28.454Z</time></trkpt><trkpt lat="43.4609435" lon="11.4145636"><ele>350.0</ele><time>2026-05-02T07:24:29.452Z</time></trkpt><trkpt lat="43.4608034" lon="11.4147095"><ele>352.0</ele><time>2026-05-02T07:24:30.458Z</time></trkpt><trkpt lat="43.4606443" lon="11.4148103"><ele>354.0</ele><time>2026-05-02T07:24:31.458Z</time></trkpt><trkpt lat="43.4604794" lon="11.4148988"><ele>352.0</ele><time>2026-05-02T07:24:32.457Z</time></trkpt><trkpt lat="43.4603115" lon="11.4150026"><ele>350.0</ele><time>2026-05-02T07:24:33.452Z</time></trkpt><trkpt lat="43.4601384" lon="11.4151283"><ele>348.0</ele><time>2026-05-02T07:24:34.444Z</time></trkpt><trkpt lat="43.4599568" lon="11.4152581"><ele>348.0</ele><time>2026-05-02T07:24:35.455Z</time></trkpt><trkpt lat="43.4597713" lon="11.4153819"><ele>348.0</ele><time>2026-05-02T07:24:36.446Z</time></trkpt><trkpt lat="43.4595877" lon="11.4155135"><ele>348.0</ele><time>2026-05-02T07:24:37.445Z</time></trkpt><trkpt lat="43.4594159" lon="11.4156363"><ele>347.6666666666667</ele><time>2026-05-02T07:24:38.449Z</time></trkpt><trkpt lat="43.4592445" lon="11.4157567"><ele>347.33333333333337</ele><time>2026-05-02T07:24:39.438Z</time></trkpt><trkpt lat="43.4590778" lon="11.4158779"><ele>347.0</ele><time>2026-05-02T07:24:40.446Z</time></trkpt><trkpt lat="43.4589203" lon="11.4159877"><ele>345.0</ele><time>2026-05-02T07:24:41.448Z</time></trkpt><trkpt lat="43.4587657" lon="11.416081"><ele>343.0</ele><time>2026-05-02T07:24:42.452Z</time></trkpt><trkpt lat="43.4585942" lon="11.416159"><ele>341.0</ele><time>2026-05-02T07:24:43.446Z</time></trkpt><trkpt lat="43.4584151" lon="11.4162228"><ele>341.0</ele><time>2026-05-02T07:24:44.452Z</time></trkpt><trkpt lat="43.4582325" lon="11.4162986"><ele>341.0</ele><time>2026-05-02T07:24:45.451Z</time></trkpt><trkpt lat="43.4580562" lon="11.41638"><ele>341.0</ele><time>2026-05-02T07:24:46.47Z</time></trkpt><trkpt lat="43.4579024" lon="11.4164783"><ele>340.6666666666667</ele><time>2026-05-02T07:24:47.455Z</time></trkpt><trkpt lat="43.4577659" lon="11.4165933"><ele>340.3333333333333</ele><time>2026-05-02T07:24:48.461Z</time></trkpt><trkpt lat="43.4576514" lon="11.4167327"><ele>340.0</ele><time>2026-05-02T07:24:49.457Z</time></trkpt><trkpt lat="43.4575486" lon="11.416902"><ele>340.0</ele><time>2026-05-02T07:24:50.453Z</time></trkpt><trkpt lat="43.4574709" lon="11.4170821"><ele>340.0</ele><time>2026-05-02T07:24:51.46Z</time></trkpt><trkpt lat="43.4574082" lon="11.4172537"><ele>340.0</ele><time>2026-05-02T07:24:52.457Z</time></trkpt><trkpt lat="43.4573535" lon="11.417431"><ele>340.0</ele><time>2026-05-02T07:24:53.462Z</time></trkpt><trkpt lat="43.4573056" lon="11.417619"><ele>340.75</ele><time>2026-05-02T07:24:54.458Z</time></trkpt><trkpt lat="43.4572866" lon="11.4178127"><ele>341.5</ele><time>2026-05-02T07:24:55.447Z</time></trkpt><trkpt lat="43.4572811" lon="11.4180081"><ele>342.25</ele><time>2026-05-02T07:24:56.451Z</time></trkpt><trkpt lat="43.4572616" lon="11.4182105"><ele>343.0</ele><time>2026-05-02T07:24:57.453Z</time></trkpt><trkpt lat="43.4572177" lon="11.4183815"><ele>343.25</ele><time>2026-05-02T07:24:58.448Z</time></trkpt><trkpt lat="43.4571383" lon="11.418522"><ele>343.5</ele><time>2026-05-02T07:24:59.44Z</time></trkpt><trkpt lat="43.4570381" lon="11.4186565"><ele>343.75</ele><time>2026-05-02T07:25:00.449Z</time></trkpt><trkpt lat="43.4569241" lon="11.4187932"><ele>344.0</ele><time>2026-05-02T07:25:01.455Z</time></trkpt><trkpt lat="43.4567996" lon="11.418941"><ele>342.6666666666667</ele><time>2026-05-02T07:25:02.453Z</time></trkpt><trkpt lat="43.4566779" lon="11.4190989"><ele>341.3333333333333</ele><time>2026-05-02T07:25:03.453Z</time></trkpt><trkpt lat="43.4565536" lon="11.4192481"><ele>340.0</ele><time>2026-05-02T07:25:04.452Z</time></trkpt><trkpt lat="43.4564328" lon="11.419389"><ele>340.0</ele><time>2026-05-02T07:25:05.459Z</time></trkpt><trkpt lat="43.4563059" lon="11.4194994"><ele>340.0</ele><time>2026-05-02T07:25:06.441Z</time></trkpt><trkpt lat="43.4561556" lon="11.4195702"><ele>340.0</ele><time>2026-05-02T07:25:07.453Z</time></trkpt><trkpt lat="43.4559959" lon="11.419634"><ele>341.3333333333333</ele><time>2026-05-02T07:25:08.464Z</time></trkpt><trkpt lat="43.4558402" lon="11.4196987"><ele>342.6666666666667</ele><time>2026-05-02T07:25:09.469Z</time></trkpt><trkpt lat="43.4556968" lon="11.4197518"><ele>344.0</ele><time>2026-05-02T07:25:10.46Z</time></trkpt><trkpt lat="43.4555462" lon="11.4197697"><ele>345.0</ele><time>2026-05-02T07:25:11.452Z</time></trkpt><trkpt lat="43.4553861" lon="11.4197714"><ele>346.0</ele><time>2026-05-02T07:25:12.46Z</time></trkpt><trkpt lat="43.4552297" lon="11.4197523"><ele>347.0</ele><time>2026-05-02T07:25:13.455Z</time></trkpt><trkpt lat="43.455063" lon="11.419719"><ele>347.0</ele><time>2026-05-02T07:25:14.463Z</time></trkpt><trkpt lat="43.4548953" lon="11.4196714"><ele>347.0</ele><time>2026-05-02T07:25:15.451Z</time></trkpt><trkpt lat="43.4547242" lon="11.4196084"><ele>347.0</ele><time>2026-05-02T07:25:16.46Z</time></trkpt><trkpt lat="43.4545615" lon="11.4195102"><ele>345.0</ele><time>2026-05-02T07:25:17.47Z</time></trkpt><trkpt lat="43.454406" lon="11.41939"><ele>343.0</ele><time>2026-05-02T07:25:18.482Z</time></trkpt><trkpt lat="43.4542559" lon="11.4192577"><ele>341.0</ele><time>2026-05-02T07:25:19.449Z</time></trkpt><trkpt lat="43.4541121" lon="11.4191248"><ele>341.0</ele><time>2026-05-02T07:25:20.458Z</time></trkpt><trkpt lat="43.4539824" lon="11.4189935"><ele>341.0</ele><time>2026-05-02T07:25:21.45Z</time></trkpt><trkpt lat="43.4538487" lon="11.4188727"><ele>341.0</ele><time>2026-05-02T07:25:22.454Z</time></trkpt><trkpt lat="43.4537204" lon="11.4187653"><ele>338.75</ele><time>2026-05-02T07:25:23.434Z</time></trkpt><trkpt lat="43.453589" lon="11.4187073"><ele>336.5</ele><time>2026-05-02T07:25:24.455Z</time></trkpt><trkpt lat="43.4534522" lon="11.4186637"><ele>334.25</ele><time>2026-05-02T07:25:25.45Z</time></trkpt><trkpt lat="43.4533154" lon="11.4186387"><ele>332.0</ele><time>2026-05-02T07:25:26.449Z</time></trkpt><trkpt lat="43.4531694" lon="11.4186271"><ele>332.0</ele><time>2026-05-02T07:25:27.453Z</time></trkpt><trkpt lat="43.4530004" lon="11.4186249"><ele>332.0</ele><time>2026-05-02T07:25:28.448Z</time></trkpt><trkpt lat="43.4528073" lon="11.4186306"><ele>332.0</ele><time>2026-05-02T07:25:29.469Z</time></trkpt><trkpt lat="43.4526135" lon="11.4186444"><ele>331.6666666666667</ele><time>2026-05-02T07:25:30.461Z</time></trkpt><trkpt lat="43.4524119" lon="11.4186581"><ele>331.3333333333333</ele><time>2026-05-02T07:25:31.453Z</time></trkpt><trkpt lat="43.4522014" lon="11.418661"><ele>331.0</ele><time>2026-05-02T07:25:32.456Z</time></trkpt><trkpt lat="43.4519911" lon="11.4186716"><ele>330.3333333333333</ele><time>2026-05-02T07:25:33.453Z</time></trkpt><trkpt lat="43.4517868" lon="11.4186855"><ele>329.6666666666667</ele><time>2026-05-02T07:25:34.454Z</time></trkpt><trkpt lat="43.4515985" lon="11.4187019"><ele>329.0</ele><time>2026-05-02T07:25:35.443Z</time></trkpt><trkpt lat="43.4514244" lon="11.4187328"><ele>329.0</ele><time>2026-05-02T07:25:36.448Z</time></trkpt><trkpt lat="43.4512633" lon="11.4187747"><ele>329.0</ele><time>2026-05-02T07:25:37.444Z</time></trkpt><trkpt lat="43.4511081" lon="11.4188094"><ele>329.0</ele><time>2026-05-02T07:25:38.448Z</time></trkpt><trkpt lat="43.4509592" lon="11.4188332"><ele>328.4</ele><time>2026-05-02T07:25:39.472Z</time></trkpt><trkpt lat="43.4508134" lon="11.4188524"><ele>327.79999999999995</ele><time>2026-05-02T07:25:40.459Z</time></trkpt><trkpt lat="43.4507064" lon="11.4188682"><ele>327.20000000000005</ele><time>2026-05-02T07:25:41.459Z</time></trkpt><trkpt lat="43.4506335" lon="11.4188852"><ele>326.6</ele><time>2026-05-02T07:25:42.453Z</time></trkpt><trkpt lat="43.450535" lon="11.4189027"><ele>326.0</ele><time>2026-05-02T07:25:44.459Z</time></trkpt><trkpt lat="43.4504892" lon="11.4189716"><ele>326.0</ele><time>2026-05-02T07:25:47.453Z</time></trkpt><trkpt lat="43.4505463" lon="11.4190647"><ele>326.0</ele><time>2026-05-02T07:25:49.462Z</time></trkpt><trkpt lat="43.4506218" lon="11.4190966"><ele>326.0</ele><time>2026-05-02T07:25:50.456Z</time></trkpt><trkpt lat="43.4507166" lon="11.4191083"><ele>326.0</ele><time>2026-05-02T07:25:51.448Z</time></trkpt><trkpt lat="43.4508181" lon="11.4191344"><ele>326.0</ele><time>2026-05-02T07:25:52.458Z</time></trkpt><trkpt lat="43.4509459" lon="11.4191712"><ele>326.0</ele><time>2026-05-02T07:25:53.454Z</time></trkpt><trkpt lat="43.4510691" lon="11.4192312"><ele>326.0</ele><time>2026-05-02T07:25:54.435Z</time></trkpt><trkpt lat="43.4545755" lon="11.4237387"><ele>328.33333333333337</ele><time>2026-05-02T07:26:25.651Z</time></trkpt><trkpt lat="43.454754" lon="11.4239962"><ele>330.6666666666667</ele><time>2026-05-02T07:26:27.436Z</time></trkpt><trkpt lat="43.4548606" lon="11.4241069"><ele>333.0</ele><time>2026-05-02T07:26:28.441Z</time></trkpt><trkpt lat="43.4549932" lon="11.4242426"><ele>333.0</ele><time>2026-05-02T07:26:29.433Z</time></trkpt><trkpt lat="43.4551147" lon="11.4243915"><ele>333.0</ele><time>2026-05-02T07:26:30.435Z</time></trkpt><trkpt lat="43.4552426" lon="11.4245088"><ele>333.0</ele><time>2026-05-02T07:26:31.431Z</time></trkpt><trkpt lat="43.4553807" lon="11.4246432"><ele>334.3333333333333</ele><time>2026-05-02T07:26:32.431Z</time></trkpt><trkpt lat="43.4555167" lon="11.4247768"><ele>335.66666666666663</ele><time>2026-05-02T07:26:33.435Z</time></trkpt><trkpt lat="43.4556548" lon="11.4249218"><ele>337.0</ele><time>2026-05-02T07:26:34.439Z</time></trkpt><trkpt lat="43.4558019" lon="11.4250526"><ele>337.0</ele><time>2026-05-02T07:26:35.437Z</time></trkpt><trkpt lat="43.4559402" lon="11.4251995"><ele>337.0</ele><time>2026-05-02T07:26:36.439Z</time></trkpt><trkpt lat="43.4560768" lon="11.4253481"><ele>337.0</ele><time>2026-05-02T07:26:37.444Z</time></trkpt><trkpt lat="43.4562107" lon="11.4254486"><ele>338.66666666666663</ele><time>2026-05-02T07:26:38.459Z</time></trkpt><trkpt lat="43.4563523" lon="11.4255091"><ele>340.3333333333333</ele><time>2026-05-02T07:26:39.483Z</time></trkpt><trkpt lat="43.4565163" lon="11.4255285"><ele>342.0</ele><time>2026-05-02T07:26:40.448Z</time></trkpt><trkpt lat="43.4566787" lon="11.4255295"><ele>342.0</ele><time>2026-05-02T07:26:41.441Z</time></trkpt><trkpt lat="43.4568366" lon="11.4255258"><ele>342.0</ele><time>2026-05-02T07:26:42.44Z</time></trkpt><trkpt lat="43.4569907" lon="11.4255487"><ele>342.0</ele><time>2026-05-02T07:26:43.428Z</time></trkpt><trkpt lat="43.4571441" lon="11.4256212"><ele>340.0</ele><time>2026-05-02T07:26:44.443Z</time></trkpt><trkpt lat="43.4573065" lon="11.4256922"><ele>338.0</ele><time>2026-05-02T07:26:45.443Z</time></trkpt><trkpt lat="43.4574633" lon="11.4257707"><ele>336.0</ele><time>2026-05-02T07:26:46.445Z</time></trkpt><trkpt lat="43.4576238" lon="11.4258472"><ele>336.0</ele><time>2026-05-02T07:26:47.44Z</time></trkpt><trkpt lat="43.4577905" lon="11.4259276"><ele>336.0</ele><time>2026-05-02T07:26:48.441Z</time></trkpt><trkpt lat="43.4579621" lon="11.4260128"><ele>336.0</ele><time>2026-05-02T07:26:49.449Z</time></trkpt><trkpt lat="43.4581433" lon="11.4260943"><ele>336.0</ele><time>2026-05-02T07:26:50.433Z</time></trkpt><trkpt lat="43.4583289" lon="11.4261815"><ele>336.0</ele><time>2026-05-02T07:26:51.438Z</time></trkpt><trkpt lat="43.4585197" lon="11.4262694"><ele>336.0</ele><time>2026-05-02T07:26:52.447Z</time></trkpt><trkpt lat="43.4587132" lon="11.4263588"><ele>337.0</ele><time>2026-05-02T07:26:53.461Z</time></trkpt><trkpt lat="43.4589074" lon="11.4264427"><ele>338.0</ele><time>2026-05-02T07:26:54.436Z</time></trkpt><trkpt lat="43.4591001" lon="11.4265334"><ele>339.0</ele><time>2026-05-02T07:26:55.452Z</time></trkpt><trkpt lat="43.4592912" lon="11.426624"><ele>339.0</ele><time>2026-05-02T07:26:56.457Z</time></trkpt><trkpt lat="43.4594805" lon="11.4267058"><ele>339.0</ele><time>2026-05-02T07:26:57.444Z</time></trkpt><trkpt lat="43.4596725" lon="11.4267865"><ele>339.0</ele><time>2026-05-02T07:26:58.473Z</time></trkpt><trkpt lat="43.4598597" lon="11.4268622"><ele>340.3333333333333</ele><time>2026-05-02T07:26:59.46Z</time></trkpt><trkpt lat="43.4600484" lon="11.4269377"><ele>341.66666666666663</ele><time>2026-05-02T07:27:00.453Z</time></trkpt><trkpt lat="43.4602311" lon="11.4270115"><ele>343.0</ele><time>2026-05-02T07:27:01.447Z</time></trkpt><trkpt lat="43.4604035" lon="11.4270897"><ele>342.0</ele><time>2026-05-02T07:27:02.464Z</time></trkpt><trkpt lat="43.460574" lon="11.4271886"><ele>341.0</ele><time>2026-05-02T07:27:03.469Z</time></trkpt><trkpt lat="43.4607345" lon="11.4273287"><ele>340.0</ele><time>2026-05-02T07:27:04.463Z</time></trkpt><trkpt lat="43.4608917" lon="11.4274969"><ele>340.0</ele><time>2026-05-02T07:27:05.483Z</time></trkpt><trkpt lat="43.4610462" lon="11.4276592"><ele>340.0</ele><time>2026-05-02T07:27:06.467Z</time></trkpt><trkpt lat="43.4612003" lon="11.4278201"><ele>340.0</ele><time>2026-05-02T07:27:07.459Z</time></trkpt><trkpt lat="43.4613514" lon="11.4279871"><ele>340.66666666666663</ele><time>2026-05-02T07:27:08.449Z</time></trkpt><trkpt lat="43.4615126" lon="11.4281545"><ele>341.3333333333333</ele><time>2026-05-02T07:27:09.449Z</time></trkpt><trkpt lat="43.4616726" lon="11.4283336"><ele>342.0</ele><time>2026-05-02T07:27:10.431Z</time></trkpt><trkpt lat="43.4618355" lon="11.4285215"><ele>342.0</ele><time>2026-05-02T07:27:11.433Z</time></trkpt><trkpt lat="43.4619985" lon="11.4287104"><ele>342.0</ele><time>2026-05-02T07:27:12.433Z</time></trkpt><trkpt lat="43.4621589" lon="11.4289033"><ele>342.0</ele><time>2026-05-02T07:27:13.442Z</time></trkpt><trkpt lat="43.4623212" lon="11.4290973"><ele>343.3333333333333</ele><time>2026-05-02T07:27:14.483Z</time></trkpt><trkpt lat="43.462477" lon="11.4292946"><ele>344.66666666666663</ele><time>2026-05-02T07:27:15.466Z</time></trkpt><trkpt lat="43.46263" lon="11.4294912"><ele>346.0</ele><time>2026-05-02T07:27:16.466Z</time></trkpt><trkpt lat="43.462778" lon="11.4296817"><ele>346.0</ele><time>2026-05-02T07:27:17.477Z</time></trkpt><trkpt lat="43.4629145" lon="11.4298817"><ele>346.0</ele><time>2026-05-02T07:27:18.442Z</time></trkpt><trkpt lat="43.4630391" lon="11.4300929"><ele>346.0</ele><time>2026-05-02T07:27:19.444Z</time></trkpt><trkpt lat="43.463142" lon="11.4302846"><ele>346.16666666666663</ele><time>2026-05-02T07:27:20.468Z</time></trkpt><trkpt lat="43.4632218" lon="11.430428"><ele>346.3333333333333</ele><time>2026-05-02T07:27:21.454Z</time></trkpt><trkpt lat="43.4632845" lon="11.4305298"><ele>346.5</ele><time>2026-05-02T07:27:22.454Z</time></trkpt><trkpt lat="43.4633288" lon="11.430608"><ele>346.6666666666667</ele><time>2026-05-02T07:27:23.463Z</time></trkpt><trkpt lat="43.4633541" lon="11.4306966"><ele>346.83333333333337</ele><time>2026-05-02T07:27:24.458Z</time></trkpt><trkpt lat="43.4633566" lon="11.4307883"><ele>347.0</ele><time>2026-05-02T07:27:25.456Z</time></trkpt><trkpt lat="43.4633428" lon="11.4309186"><ele>347.0</ele><time>2026-05-02T07:27:27.465Z</time></trkpt><trkpt lat="43.4634143" lon="11.4309494"><ele>347.0</ele><time>2026-05-02T07:27:32.47Z</time></trkpt><trkpt lat="43.4634296" lon="11.4310344"><ele>347.0</ele><time>2026-05-02T07:27:57.441Z</time></trkpt><trkpt lat="43.4634752" lon="11.4311266"><ele>347.0</ele><time>2026-05-02T07:38:07.953Z</time></trkpt><trkpt lat="43.4636209" lon="11.4326676"><ele>347.0</ele><time>2026-05-02T07:38:25.016Z</time></trkpt><trkpt lat="43.4635287" lon="11.4311507"><ele>347.0</ele><time>2026-05-02T07:38:31.402Z</time></trkpt><trkpt lat="43.4636156" lon="11.4311725"><ele>347.0</ele><time>2026-05-02T07:38:57.425Z</time></trkpt><trkpt lat="43.4636658" lon="11.4312328"><ele>347.0</ele><time>2026-05-02T07:38:58.426Z</time></trkpt><trkpt lat="43.4637054" lon="11.4313146"><ele>347.0</ele><time>2026-05-02T07:38:59.424Z</time></trkpt><trkpt lat="43.463742" lon="11.4314087"><ele>347.0</ele><time>2026-05-02T07:39:00.435Z</time></trkpt><trkpt lat="43.4637868" lon="11.4315041"><ele>347.0</ele><time>2026-05-02T07:39:01.42Z</time></trkpt><trkpt lat="43.463831" lon="11.4316003"><ele>347.40000000000003</ele><time>2026-05-02T07:39:02.403Z</time></trkpt><trkpt lat="43.4638788" lon="11.4317084"><ele>347.8</ele><time>2026-05-02T07:39:03.408Z</time></trkpt><trkpt lat="43.463934" lon="11.4318311"><ele>348.2</ele><time>2026-05-02T07:39:04.413Z</time></trkpt><trkpt lat="43.4639857" lon="11.431972"><ele>348.6</ele><time>2026-05-02T07:39:05.42Z</time></trkpt><trkpt lat="43.4640334" lon="11.4321226"><ele>349.0</ele><time>2026-05-02T07:39:06.416Z</time></trkpt><trkpt lat="43.4640959" lon="11.4322652"><ele>349.0</ele><time>2026-05-02T07:39:07.405Z</time></trkpt><trkpt lat="43.4641515" lon="11.4324025"><ele>349.0</ele><time>2026-05-02T07:39:08.406Z</time></trkpt><trkpt lat="43.4642227" lon="11.4325608"><ele>349.0</ele><time>2026-05-02T07:39:09.428Z</time></trkpt><trkpt lat="43.4643066" lon="11.4327051"><ele>349.0</ele><time>2026-05-02T07:39:10.412Z</time></trkpt><trkpt lat="43.4643939" lon="11.4328388"><ele>349.0</ele><time>2026-05-02T07:39:11.419Z</time></trkpt><trkpt lat="43.4644931" lon="11.4329641"><ele>349.0</ele><time>2026-05-02T07:39:12.418Z</time></trkpt><trkpt lat="43.4646259" lon="11.4330593"><ele>349.0</ele><time>2026-05-02T07:39:13.421Z</time></trkpt><trkpt lat="43.4647413" lon="11.4331244"><ele>349.0</ele><time>2026-05-02T07:39:14.417Z</time></trkpt><trkpt lat="43.4648564" lon="11.4331988"><ele>348.75</ele><time>2026-05-02T07:39:15.418Z</time></trkpt><trkpt lat="43.4649625" lon="11.4332973"><ele>348.5</ele><time>2026-05-02T07:39:16.427Z</time></trkpt><trkpt lat="43.4650742" lon="11.4334022"><ele>348.25</ele><time>2026-05-02T07:39:17.422Z</time></trkpt><trkpt lat="43.4651763" lon="11.4335383"><ele>348.0</ele><time>2026-05-02T07:39:18.419Z</time></trkpt><trkpt lat="43.4652803" lon="11.4336789"><ele>348.0</ele><time>2026-05-02T07:39:19.438Z</time></trkpt><trkpt lat="43.4653724" lon="11.4338159"><ele>348.0</ele><time>2026-05-02T07:39:20.432Z</time></trkpt><trkpt lat="43.4654687" lon="11.4339432"><ele>348.0</ele><time>2026-05-02T07:39:21.42Z</time></trkpt><trkpt lat="43.4655775" lon="11.4340646"><ele>348.0</ele><time>2026-05-02T07:39:22.415Z</time></trkpt><trkpt lat="43.4656982" lon="11.4341665"><ele>348.0</ele><time>2026-05-02T07:39:23.422Z</time></trkpt><trkpt lat="43.4658274" lon="11.4342361"><ele>348.0</ele><time>2026-05-02T07:39:24.411Z</time></trkpt><trkpt lat="43.4659655" lon="11.4342914"><ele>348.0</ele><time>2026-05-02T07:39:25.4Z</time></trkpt><trkpt lat="43.466116" lon="11.4343275"><ele>348.0</ele><time>2026-05-02T07:39:26.403Z</time></trkpt><trkpt lat="43.4662629" lon="11.434371"><ele>349.0</ele><time>2026-05-02T07:39:27.437Z</time></trkpt><trkpt lat="43.4664136" lon="11.4343813"><ele>350.0</ele><time>2026-05-02T07:39:28.42Z</time></trkpt><trkpt lat="43.4665726" lon="11.4343913"><ele>351.0</ele><time>2026-05-02T07:39:29.411Z</time></trkpt><trkpt lat="43.4667245" lon="11.4343699"><ele>351.0</ele><time>2026-05-02T07:39:30.41Z</time></trkpt><trkpt lat="43.4668664" lon="11.4343351"><ele>351.0</ele><time>2026-05-02T07:39:31.409Z</time></trkpt><trkpt lat="43.466978" lon="11.434318"><ele>351.0</ele><time>2026-05-02T07:39:32.413Z</time></trkpt><trkpt lat="43.4670829" lon="11.4342916"><ele>351.0</ele><time>2026-05-02T07:39:33.411Z</time></trkpt><trkpt lat="43.4671946" lon="11.4342719"><ele>351.6</ele><time>2026-05-02T07:39:34.421Z</time></trkpt><trkpt lat="43.4672679" lon="11.4342468"><ele>352.20000000000005</ele><time>2026-05-02T07:39:35.412Z</time></trkpt><trkpt lat="43.467345" lon="11.4342164"><ele>352.79999999999995</ele><time>2026-05-02T07:39:36.421Z</time></trkpt><trkpt lat="43.4674389" lon="11.4342142"><ele>353.4</ele><time>2026-05-02T07:39:38.411Z</time></trkpt><trkpt lat="43.4675069" lon="11.4342367"><ele>354.0</ele><time>2026-05-02T07:39:42.411Z</time></trkpt><trkpt lat="43.4671948" lon="11.4342512"><ele>354.0</ele><time>2026-05-02T07:40:37.779Z</time></trkpt><trkpt lat="43.4676755" lon="11.4343512"><ele>354.0</ele><time>2026-05-02T07:40:51.342Z</time></trkpt><trkpt lat="43.4673283" lon="11.4345597"><ele>354.0</ele><time>2026-05-02T07:41:11.572Z</time></trkpt><trkpt lat="43.4674035" lon="11.4344219"><ele>354.0</ele><time>2026-05-02T07:41:41.43Z</time></trkpt><trkpt lat="43.4674905" lon="11.4343476"><ele>354.0</ele><time>2026-05-02T07:41:43.431Z</time></trkpt><trkpt lat="43.467426" lon="11.4343221"><ele>354.0</ele><time>2026-05-02T07:41:55.421Z</time></trkpt><trkpt lat="43.4674959" lon="11.4343243"><ele>354.0</ele><time>2026-05-02T07:43:18.413Z</time></trkpt><trkpt lat="43.4677427" lon="11.4342427"><ele>354.0</ele><time>2026-05-02T07:43:36.534Z</time></trkpt><trkpt lat="43.4674171" lon="11.4343058"><ele>354.0</ele><time>2026-05-02T07:44:10.473Z</time></trkpt><trkpt lat="43.4679157" lon="11.4342068"><ele>354.0</ele><time>2026-05-02T07:44:56.704Z</time></trkpt><trkpt lat="43.468201" lon="11.4342044"><ele>358.0</ele><time>2026-05-02T07:45:51.773Z</time></trkpt></trkseg><trkseg><trkpt lat="43.4680724" lon="11.4342046"><ele>358.00000000000006</ele><time>2026-05-02T08:09:09.359Z</time></trkpt><trkpt lat="43.4681484" lon="11.4341922"><ele>358.0</ele><time>2026-05-02T08:09:12.349Z</time></trkpt><trkpt lat="43.4681" lon="11.4341274"><ele>358.0</ele><time>2026-05-02T08:10:16.359Z</time></trkpt><trkpt lat="43.4680296" lon="11.4341585"><ele>358.0</ele><time>2026-05-02T08:10:23.344Z</time></trkpt><trkpt lat="43.4679494" lon="11.4341867"><ele>358.0</ele><time>2026-05-02T08:10:31.437Z</time></trkpt><trkpt lat="43.4678852" lon="11.4342504"><ele>358.00000000000006</ele><time>2026-05-02T08:10:37.323Z</time></trkpt><trkpt lat="43.4678224" lon="11.4342785"><ele>358.0</ele><time>2026-05-02T08:10:42.041Z</time></trkpt><trkpt lat="43.4677472" lon="11.434297"><ele>357.0</ele><time>2026-05-02T08:10:46.876Z</time></trkpt><trkpt lat="43.4676436" lon="11.434327"><ele>356.0</ele><time>2026-05-02T08:10:55.274Z</time></trkpt><trkpt lat="43.4676641" lon="11.4344143"><ele>355.0</ele><time>2026-05-02T08:11:05.229Z</time></trkpt><trkpt lat="43.4674334" lon="11.4344513"><ele>354.0</ele><time>2026-05-02T08:11:21.854Z</time></trkpt><trkpt lat="43.4673157" lon="11.4343443"><ele>354.0</ele><time>2026-05-02T08:11:24.444Z</time></trkpt><trkpt lat="43.4672656" lon="11.4342722"><ele>354.0</ele><time>2026-05-02T08:11:27.182Z</time></trkpt><trkpt lat="43.4672435" lon="11.4343856"><ele>354.0</ele><time>2026-05-02T08:11:44.6Z</time></trkpt><trkpt lat="43.4672399" lon="11.4344758"><ele>354.0</ele><time>2026-05-02T08:11:49.965Z</time></trkpt><trkpt lat="43.4671836" lon="11.4340409"><ele>354.0</ele><time>2026-05-02T08:14:16.154Z</time></trkpt><trkpt lat="43.4673343" lon="11.4343934"><ele>354.0</ele><time>2026-05-02T08:14:21.641Z</time></trkpt><trkpt lat="43.4674078" lon="11.4344103"><ele>354.0</ele><time>2026-05-02T08:14:23.943Z</time></trkpt><trkpt lat="43.4674618" lon="11.4343284"><ele>354.0</ele><time>2026-05-02T08:15:39.335Z</time></trkpt><trkpt lat="43.4673849" lon="11.4343351"><ele>354.0</ele><time>2026-05-02T08:16:20.347Z</time></trkpt><trkpt lat="43.467453" lon="11.4343378"><ele>354.0</ele><time>2026-05-02T08:16:50.358Z</time></trkpt><trkpt lat="43.4675194" lon="11.4343191"><ele>354.0</ele><time>2026-05-02T08:16:55.347Z</time></trkpt><trkpt lat="43.4675099" lon="11.4342162"><ele>354.0</ele><time>2026-05-02T08:17:54.356Z</time></trkpt><trkpt lat="43.4674629" lon="11.4342798"><ele>354.0</ele><time>2026-05-02T08:18:57.35Z</time></trkpt><trkpt lat="43.4674937" lon="11.4341785"><ele>354.0</ele><time>2026-05-02T08:20:48.349Z</time></trkpt><trkpt lat="43.4673984" lon="11.4341619"><ele>354.0</ele><time>2026-05-02T08:20:51.356Z</time></trkpt><trkpt lat="43.467317" lon="11.4341897"><ele>354.0</ele><time>2026-05-02T08:20:52.35Z</time></trkpt><trkpt lat="43.4672303" lon="11.4342219"><ele>354.0</ele><time>2026-05-02T08:20:53.347Z</time></trkpt><trkpt lat="43.4671458" lon="11.4342575"><ele>354.0</ele><time>2026-05-02T08:20:54.354Z</time></trkpt><trkpt lat="43.4670311" lon="11.4342901"><ele>354.0</ele><time>2026-05-02T08:20:55.354Z</time></trkpt><trkpt lat="43.4668823" lon="11.4343157"><ele>353.25</ele><time>2026-05-02T08:20:56.348Z</time></trkpt><trkpt lat="43.4667455" lon="11.4343344"><ele>352.5</ele><time>2026-05-02T08:20:57.345Z</time></trkpt><trkpt lat="43.4666366" lon="11.4343332"><ele>351.75</ele><time>2026-05-02T08:20:58.342Z</time></trkpt><trkpt lat="43.4665352" lon="11.4343324"><ele>351.0</ele><time>2026-05-02T08:20:59.352Z</time></trkpt><trkpt lat="43.4664305" lon="11.4343372"><ele>351.0</ele><time>2026-05-02T08:21:00.347Z</time></trkpt><trkpt lat="43.4663301" lon="11.434335"><ele>351.0</ele><time>2026-05-02T08:21:01.343Z</time></trkpt><trkpt lat="43.4662214" lon="11.4343315"><ele>351.0</ele><time>2026-05-02T08:21:02.364Z</time></trkpt><trkpt lat="43.4661059" lon="11.4343182"><ele>351.0</ele><time>2026-05-02T08:21:03.35Z</time></trkpt><trkpt lat="43.4659938" lon="11.4342809"><ele>351.0</ele><time>2026-05-02T08:21:04.351Z</time></trkpt><trkpt lat="43.4658869" lon="11.4342382"><ele>350.25</ele><time>2026-05-02T08:21:05.348Z</time></trkpt><trkpt lat="43.4657714" lon="11.4341896"><ele>349.5</ele><time>2026-05-02T08:21:06.347Z</time></trkpt><trkpt lat="43.4656518" lon="11.434129"><ele>348.75</ele><time>2026-05-02T08:21:07.35Z</time></trkpt><trkpt lat="43.4655393" lon="11.4340519"><ele>348.0</ele><time>2026-05-02T08:21:08.346Z</time></trkpt><trkpt lat="43.4654462" lon="11.4339514"><ele>348.0</ele><time>2026-05-02T08:21:09.36Z</time></trkpt><trkpt lat="43.4653667" lon="11.4338216"><ele>348.0</ele><time>2026-05-02T08:21:10.349Z</time></trkpt><trkpt lat="43.4652997" lon="11.4337085"><ele>348.0</ele><time>2026-05-02T08:21:11.356Z</time></trkpt><trkpt lat="43.46524" lon="11.4336152"><ele>348.0</ele><time>2026-05-02T08:21:12.359Z</time></trkpt><trkpt lat="43.465194" lon="11.4335343"><ele>348.0</ele><time>2026-05-02T08:21:13.349Z</time></trkpt><trkpt lat="43.4651455" lon="11.4334374"><ele>348.0</ele><time>2026-05-02T08:21:15.361Z</time></trkpt><trkpt lat="43.4651265" lon="11.4333475"><ele>348.0</ele><time>2026-05-02T08:21:19.355Z</time></trkpt><trkpt lat="43.4651123" lon="11.4332458"><ele>348.0</ele><time>2026-05-02T08:21:45.363Z</time></trkpt><trkpt lat="43.465049" lon="11.4332319"><ele>348.0</ele><time>2026-05-02T08:23:03.352Z</time></trkpt><trkpt lat="43.464961" lon="11.4332173"><ele>348.0</ele><time>2026-05-02T08:23:06.346Z</time></trkpt><trkpt lat="43.4649056" lon="11.4331562"><ele>348.0</ele><time>2026-05-02T08:23:09.373Z</time></trkpt><trkpt lat="43.4648369" lon="11.4331215"><ele>348.0</ele><time>2026-05-02T08:23:12.348Z</time></trkpt><trkpt lat="43.4647374" lon="11.4330789"><ele>348.0</ele><time>2026-05-02T08:23:14.354Z</time></trkpt><trkpt lat="43.4646293" lon="11.4330049"><ele>348.0</ele><time>2026-05-02T08:23:16.376Z</time></trkpt><trkpt lat="43.4645236" lon="11.4329189"><ele>348.0</ele><time>2026-05-02T08:23:18.362Z</time></trkpt><trkpt lat="43.4644677" lon="11.4328556"><ele>348.0</ele><time>2026-05-02T08:23:19.352Z</time></trkpt><trkpt lat="43.4644109" lon="11.4327921"><ele>348.0</ele><time>2026-05-02T08:23:20.357Z</time></trkpt><trkpt lat="43.4643596" lon="11.4327228"><ele>348.2</ele><time>2026-05-02T08:23:21.344Z</time></trkpt><trkpt lat="43.4643043" lon="11.4326506"><ele>348.4</ele><time>2026-05-02T08:23:22.363Z</time></trkpt><trkpt lat="43.4642593" lon="11.4325838"><ele>348.59999999999997</ele><time>2026-05-02T08:23:23.352Z</time></trkpt><trkpt lat="43.4642234" lon="11.4325121"><ele>348.79999999999995</ele><time>2026-05-02T08:23:24.375Z</time></trkpt><trkpt lat="43.4641719" lon="11.4323575"><ele>349.0</ele><time>2026-05-02T08:23:26.35Z</time></trkpt><trkpt lat="43.4641079" lon="11.4322021"><ele>350.0</ele><time>2026-05-02T08:23:28.346Z</time></trkpt><trkpt lat="43.4640753" lon="11.4321152"><ele>351.0</ele><time>2026-05-02T08:23:29.351Z</time></trkpt><trkpt lat="43.4640342" lon="11.4320144"><ele>352.0</ele><time>2026-05-02T08:23:30.346Z</time></trkpt><trkpt lat="43.4639929" lon="11.4319111"><ele>353.0</ele><time>2026-05-02T08:23:31.353Z</time></trkpt><trkpt lat="43.4639478" lon="11.4317975"><ele>354.0</ele><time>2026-05-02T08:23:32.357Z</time></trkpt><trkpt lat="43.4638986" lon="11.4316793"><ele>355.0</ele><time>2026-05-02T08:23:33.354Z</time></trkpt><trkpt lat="43.4638479" lon="11.431559"><ele>355.0</ele><time>2026-05-02T08:23:34.352Z</time></trkpt><trkpt lat="43.4637937" lon="11.4314271"><ele>355.0</ele><time>2026-05-02T08:23:35.356Z</time></trkpt><trkpt lat="43.4637381" lon="11.4312952"><ele>355.0</ele><time>2026-05-02T08:23:36.356Z</time></trkpt><trkpt lat="43.4636834" lon="11.4311575"><ele>355.0</ele><time>2026-05-02T08:23:37.351Z</time></trkpt><trkpt lat="43.4636198" lon="11.4310148"><ele>353.0</ele><time>2026-05-02T08:23:38.348Z</time></trkpt><trkpt lat="43.4635553" lon="11.4308676"><ele>351.0</ele><time>2026-05-02T08:23:39.357Z</time></trkpt><trkpt lat="43.4634852" lon="11.430734"><ele>349.0</ele><time>2026-05-02T08:23:40.357Z</time></trkpt><trkpt lat="43.4634154" lon="11.4306196"><ele>347.0</ele><time>2026-05-02T08:23:41.351Z</time></trkpt><trkpt lat="43.4633464" lon="11.4305183"><ele>348.20000000000005</ele><time>2026-05-02T08:23:42.344Z</time></trkpt><trkpt lat="43.4632761" lon="11.4304155"><ele>349.4</ele><time>2026-05-02T08:23:43.351Z</time></trkpt><trkpt lat="43.4632069" lon="11.4303155"><ele>350.6</ele><time>2026-05-02T08:23:44.349Z</time></trkpt><trkpt lat="43.4631416" lon="11.4301964"><ele>351.79999999999995</ele><time>2026-05-02T08:23:45.348Z</time></trkpt><trkpt lat="43.4630694" lon="11.4300732"><ele>353.0</ele><time>2026-05-02T08:23:46.347Z</time></trkpt><trkpt lat="43.4629888" lon="11.4299279"><ele>351.25</ele><time>2026-05-02T08:23:47.346Z</time></trkpt><trkpt lat="43.462893" lon="11.4297742"><ele>349.5</ele><time>2026-05-02T08:23:48.346Z</time></trkpt><trkpt lat="43.4627824" lon="11.4296186"><ele>347.75</ele><time>2026-05-02T08:23:49.355Z</time></trkpt><trkpt lat="43.4626818" lon="11.4294844"><ele>346.0</ele><time>2026-05-02T08:23:50.343Z</time></trkpt><trkpt lat="43.4625888" lon="11.4293695"><ele>346.0</ele><time>2026-05-02T08:23:51.347Z</time></trkpt><trkpt lat="43.4624973" lon="11.4292619"><ele>346.0</ele><time>2026-05-02T08:23:52.348Z</time></trkpt><trkpt lat="43.4623023" lon="11.429025"><ele>346.0</ele><time>2026-05-02T08:23:54.362Z</time></trkpt><trkpt lat="43.462199" lon="11.4288945"><ele>344.66666666666663</ele><time>2026-05-02T08:23:55.357Z</time></trkpt><trkpt lat="43.4620782" lon="11.4287478"><ele>343.3333333333333</ele><time>2026-05-02T08:23:56.355Z</time></trkpt><trkpt lat="43.461942" lon="11.4286056"><ele>342.0</ele><time>2026-05-02T08:23:57.353Z</time></trkpt><trkpt lat="43.4618243" lon="11.4284787"><ele>342.0</ele><time>2026-05-02T08:23:58.371Z</time></trkpt><trkpt lat="43.4617274" lon="11.4283651"><ele>342.0</ele><time>2026-05-02T08:23:59.353Z</time></trkpt><trkpt lat="43.4616687" lon="11.4282835"><ele>342.0</ele><time>2026-05-02T08:24:00.347Z</time></trkpt><trkpt lat="43.4616205" lon="11.4282204"><ele>342.0</ele><time>2026-05-02T08:24:01.349Z</time></trkpt><trkpt lat="43.4615294" lon="11.4281215"><ele>342.0</ele><time>2026-05-02T08:24:03.356Z</time></trkpt><trkpt lat="43.4614708" lon="11.4280468"><ele>341.6</ele><time>2026-05-02T08:24:04.351Z</time></trkpt><trkpt lat="43.4613963" lon="11.4279708"><ele>341.20000000000005</ele><time>2026-05-02T08:24:05.346Z</time></trkpt><trkpt lat="43.4613127" lon="11.4278864"><ele>340.8</ele><time>2026-05-02T08:24:06.353Z</time></trkpt><trkpt lat="43.4612267" lon="11.4277817"><ele>340.4</ele><time>2026-05-02T08:24:07.343Z</time></trkpt><trkpt lat="43.4611287" lon="11.4276723"><ele>340.0</ele><time>2026-05-02T08:24:08.359Z</time></trkpt><trkpt lat="43.4610225" lon="11.4275615"><ele>340.0</ele><time>2026-05-02T08:24:09.355Z</time></trkpt><trkpt lat="43.4609149" lon="11.4274524"><ele>340.0</ele><time>2026-05-02T08:24:10.342Z</time></trkpt><trkpt lat="43.4608043" lon="11.4273414"><ele>340.0</ele><time>2026-05-02T08:24:11.355Z</time></trkpt><trkpt lat="43.4606833" lon="11.4272407"><ele>340.0</ele><time>2026-05-02T08:24:12.349Z</time></trkpt><trkpt lat="43.4605567" lon="11.4271478"><ele>341.0</ele><time>2026-05-02T08:24:13.352Z</time></trkpt><trkpt lat="43.4604135" lon="11.4270683"><ele>342.0</ele><time>2026-05-02T08:24:14.352Z</time></trkpt><trkpt lat="43.4602625" lon="11.4270048"><ele>343.0</ele><time>2026-05-02T08:24:15.352Z</time></trkpt><trkpt lat="43.4601054" lon="11.4269407"><ele>343.0</ele><time>2026-05-02T08:24:16.354Z</time></trkpt><trkpt lat="43.4599454" lon="11.4268696"><ele>343.0</ele><time>2026-05-02T08:24:17.347Z</time></trkpt><trkpt lat="43.4597754" lon="11.4267949"><ele>343.0</ele><time>2026-05-02T08:24:18.364Z</time></trkpt><trkpt lat="43.459602" lon="11.4267201"><ele>341.66666666666663</ele><time>2026-05-02T08:24:19.35Z</time></trkpt><trkpt lat="43.4594261" lon="11.4266417"><ele>340.3333333333333</ele><time>2026-05-02T08:24:20.343Z</time></trkpt><trkpt lat="43.4592425" lon="11.4265584"><ele>339.0</ele><time>2026-05-02T08:24:21.353Z</time></trkpt><trkpt lat="43.4590577" lon="11.4264748"><ele>339.0</ele><time>2026-05-02T08:24:22.351Z</time></trkpt><trkpt lat="43.4588788" lon="11.4263947"><ele>339.0</ele><time>2026-05-02T08:24:23.356Z</time></trkpt><trkpt lat="43.4587043" lon="11.4263098"><ele>339.0</ele><time>2026-05-02T08:24:24.352Z</time></trkpt><trkpt lat="43.4585282" lon="11.4262276"><ele>338.0</ele><time>2026-05-02T08:24:25.351Z</time></trkpt><trkpt lat="43.4583467" lon="11.4261459"><ele>337.0</ele><time>2026-05-02T08:24:26.349Z</time></trkpt><trkpt lat="43.4581698" lon="11.4260665"><ele>336.0</ele><time>2026-05-02T08:24:27.361Z</time></trkpt><trkpt lat="43.4579909" lon="11.4259915"><ele>336.0</ele><time>2026-05-02T08:24:28.359Z</time></trkpt><trkpt lat="43.4578092" lon="11.4259121"><ele>336.0</ele><time>2026-05-02T08:24:29.352Z</time></trkpt><trkpt lat="43.4576273" lon="11.4258335"><ele>336.0</ele><time>2026-05-02T08:24:30.359Z</time></trkpt><trkpt lat="43.4574414" lon="11.4257572"><ele>336.0</ele><time>2026-05-02T08:24:31.361Z</time></trkpt><trkpt lat="43.4572656" lon="11.4256736"><ele>336.0</ele><time>2026-05-02T08:24:32.351Z</time></trkpt><trkpt lat="43.4570948" lon="11.4256043"><ele>336.0</ele><time>2026-05-02T08:24:33.372Z</time></trkpt><trkpt lat="43.4569371" lon="11.4255589"><ele>338.0</ele><time>2026-05-02T08:24:34.356Z</time></trkpt><trkpt lat="43.4567845" lon="11.4255202"><ele>340.0</ele><time>2026-05-02T08:24:35.348Z</time></trkpt><trkpt lat="43.4566323" lon="11.4254985"><ele>342.0</ele><time>2026-05-02T08:24:36.36Z</time></trkpt><trkpt lat="43.4564836" lon="11.4254804"><ele>340.75</ele><time>2026-05-02T08:24:37.358Z</time></trkpt><trkpt lat="43.4563399" lon="11.4254611"><ele>339.5</ele><time>2026-05-02T08:24:38.361Z</time></trkpt><trkpt lat="43.4562007" lon="11.4254072"><ele>338.25</ele><time>2026-05-02T08:24:39.352Z</time></trkpt><trkpt lat="43.4560751" lon="11.4253055"><ele>337.0</ele><time>2026-05-02T08:24:40.349Z</time></trkpt><trkpt lat="43.4559483" lon="11.4251686"><ele>337.0</ele><time>2026-05-02T08:24:41.343Z</time></trkpt><trkpt lat="43.4558188" lon="11.4250336"><ele>337.0</ele><time>2026-05-02T08:24:42.356Z</time></trkpt><trkpt lat="43.4556951" lon="11.4249011"><ele>337.0</ele><time>2026-05-02T08:24:43.351Z</time></trkpt><trkpt lat="43.455566" lon="11.424766"><ele>335.66666666666663</ele><time>2026-05-02T08:24:44.372Z</time></trkpt><trkpt lat="43.4554378" lon="11.4246353"><ele>334.3333333333333</ele><time>2026-05-02T08:24:45.368Z</time></trkpt><trkpt lat="43.4553171" lon="11.4245075"><ele>333.0</ele><time>2026-05-02T08:24:46.356Z</time></trkpt><trkpt lat="43.4551977" lon="11.4243931"><ele>333.0</ele><time>2026-05-02T08:24:47.353Z</time></trkpt><trkpt lat="43.4550865" lon="11.4242725"><ele>333.0</ele><time>2026-05-02T08:24:48.362Z</time></trkpt><trkpt lat="43.4549726" lon="11.4241507"><ele>333.0</ele><time>2026-05-02T08:24:49.35Z</time></trkpt><trkpt lat="43.4548569" lon="11.4240365"><ele>333.0</ele><time>2026-05-02T08:24:50.361Z</time></trkpt><trkpt lat="43.4547388" lon="11.4239211"><ele>332.5</ele><time>2026-05-02T08:24:51.353Z</time></trkpt><trkpt lat="43.4546239" lon="11.4238051"><ele>332.0</ele><time>2026-05-02T08:24:52.366Z</time></trkpt><trkpt lat="43.4545058" lon="11.4236843"><ele>331.5</ele><time>2026-05-02T08:24:53.361Z</time></trkpt><trkpt lat="43.4543889" lon="11.4235613"><ele>331.0</ele><time>2026-05-02T08:24:54.37Z</time></trkpt><trkpt lat="43.4542826" lon="11.4234214"><ele>331.0</ele><time>2026-05-02T08:24:55.354Z</time></trkpt><trkpt lat="43.4541788" lon="11.4232664"><ele>331.0</ele><time>2026-05-02T08:24:56.374Z</time></trkpt><trkpt lat="43.4540774" lon="11.4231017"><ele>331.0</ele><time>2026-05-02T08:24:57.362Z</time></trkpt><trkpt lat="43.4539705" lon="11.4229275"><ele>332.3333333333333</ele><time>2026-05-02T08:24:58.354Z</time></trkpt><trkpt lat="43.4538608" lon="11.4227637"><ele>333.6666666666667</ele><time>2026-05-02T08:24:59.35Z</time></trkpt><trkpt lat="43.4537529" lon="11.4225931"><ele>335.0</ele><time>2026-05-02T08:25:00.366Z</time></trkpt><trkpt lat="43.4536381" lon="11.4224188"><ele>334.0</ele><time>2026-05-02T08:25:01.347Z</time></trkpt><trkpt lat="43.4535235" lon="11.4222391"><ele>333.0</ele><time>2026-05-02T08:25:02.369Z</time></trkpt><trkpt lat="43.4534093" lon="11.4220647"><ele>332.0</ele><time>2026-05-02T08:25:03.358Z</time></trkpt><trkpt lat="43.4533013" lon="11.4218982"><ele>332.0</ele><time>2026-05-02T08:25:04.354Z</time></trkpt><trkpt lat="43.4532061" lon="11.4217423"><ele>332.0</ele><time>2026-05-02T08:25:05.351Z</time></trkpt><trkpt lat="43.4531087" lon="11.4216072"><ele>332.0</ele><time>2026-05-02T08:25:06.354Z</time></trkpt><trkpt lat="43.453001" lon="11.4214855"><ele>332.0</ele><time>2026-05-02T08:25:07.347Z</time></trkpt><trkpt lat="43.4528878" lon="11.4213784"><ele>332.75</ele><time>2026-05-02T08:25:08.344Z</time></trkpt><trkpt lat="43.4527648" lon="11.421286"><ele>333.5</ele><time>2026-05-02T08:25:09.331Z</time></trkpt><trkpt lat="43.4526366" lon="11.4211915"><ele>334.25</ele><time>2026-05-02T08:25:10.356Z</time></trkpt><trkpt lat="43.4525156" lon="11.4210833"><ele>335.0</ele><time>2026-05-02T08:25:11.353Z</time></trkpt><trkpt lat="43.4524039" lon="11.4209403"><ele>335.0</ele><time>2026-05-02T08:25:12.352Z</time></trkpt><trkpt lat="43.4522921" lon="11.4207876"><ele>335.0</ele><time>2026-05-02T08:25:13.354Z</time></trkpt><trkpt lat="43.4521942" lon="11.4206211"><ele>335.0</ele><time>2026-05-02T08:25:14.351Z</time></trkpt><trkpt lat="43.4520941" lon="11.4204507"><ele>333.6666666666667</ele><time>2026-05-02T08:25:15.337Z</time></trkpt><trkpt lat="43.4519929" lon="11.4202829"><ele>332.3333333333333</ele><time>2026-05-02T08:25:16.349Z</time></trkpt><trkpt lat="43.451888" lon="11.4201242"><ele>331.0</ele><time>2026-05-02T08:25:17.354Z</time></trkpt><trkpt lat="43.4517904" lon="11.4199617"><ele>331.0</ele><time>2026-05-02T08:25:18.351Z</time></trkpt><trkpt lat="43.4516894" lon="11.419806"><ele>331.0</ele><time>2026-05-02T08:25:19.356Z</time></trkpt><trkpt lat="43.4515844" lon="11.4196599"><ele>331.0</ele><time>2026-05-02T08:25:20.34Z</time></trkpt><trkpt lat="43.4514816" lon="11.4195265"><ele>331.0</ele><time>2026-05-02T08:25:21.353Z</time></trkpt><trkpt lat="43.4513832" lon="11.4194224"><ele>331.6</ele><time>2026-05-02T08:25:22.353Z</time></trkpt><trkpt lat="43.4512954" lon="11.4193386"><ele>332.20000000000005</ele><time>2026-05-02T08:25:23.354Z</time></trkpt><trkpt lat="43.4512084" lon="11.4192714"><ele>332.79999999999995</ele><time>2026-05-02T08:25:24.357Z</time></trkpt><trkpt lat="43.4511203" lon="11.4192187"><ele>333.4</ele><time>2026-05-02T08:25:25.363Z</time></trkpt><trkpt lat="43.4510403" lon="11.419165"><ele>334.0</ele><time>2026-05-02T08:25:26.358Z</time></trkpt><trkpt lat="43.4509485" lon="11.4191243"><ele>332.66666666666663</ele><time>2026-05-02T08:25:27.349Z</time></trkpt><trkpt lat="43.450862" lon="11.4190873"><ele>331.3333333333333</ele><time>2026-05-02T08:25:28.359Z</time></trkpt><trkpt lat="43.4507749" lon="11.4190628"><ele>330.0</ele><time>2026-05-02T08:25:29.362Z</time></trkpt><trkpt lat="43.450689" lon="11.419044"><ele>328.6666666666667</ele><time>2026-05-02T08:25:30.36Z</time></trkpt><trkpt lat="43.4506005" lon="11.4190288"><ele>327.33333333333337</ele><time>2026-05-02T08:25:31.376Z</time></trkpt><trkpt lat="43.450513" lon="11.4190116"><ele>326.0</ele><time>2026-05-02T08:25:32.361Z</time></trkpt><trkpt lat="43.450424" lon="11.4189955"><ele>325.6</ele><time>2026-05-02T08:25:33.353Z</time></trkpt><trkpt lat="43.4503224" lon="11.4189785"><ele>325.20000000000005</ele><time>2026-05-02T08:25:34.353Z</time></trkpt><trkpt lat="43.4502156" lon="11.4189678"><ele>324.79999999999995</ele><time>2026-05-02T08:25:35.354Z</time></trkpt><trkpt lat="43.4501074" lon="11.4189554"><ele>324.4</ele><time>2026-05-02T08:25:36.356Z</time></trkpt><trkpt lat="43.4500037" lon="11.4189217"><ele>324.0</ele><time>2026-05-02T08:25:37.346Z</time></trkpt><trkpt lat="43.4498978" lon="11.4188675"><ele>325.0</ele><time>2026-05-02T08:25:38.352Z</time></trkpt><trkpt lat="43.4497885" lon="11.4188125"><ele>326.0</ele><time>2026-05-02T08:25:39.341Z</time></trkpt><trkpt lat="43.4496717" lon="11.4187555"><ele>327.0</ele><time>2026-05-02T08:25:40.352Z</time></trkpt><trkpt lat="43.4495514" lon="11.4187058"><ele>328.0</ele><time>2026-05-02T08:25:41.345Z</time></trkpt><trkpt lat="43.4494334" lon="11.4186576"><ele>328.75</ele><time>2026-05-02T08:25:42.353Z</time></trkpt><trkpt lat="43.44931" lon="11.4186108"><ele>329.5</ele><time>2026-05-02T08:25:43.361Z</time></trkpt><trkpt lat="43.4491855" lon="11.4185795"><ele>330.25</ele><time>2026-05-02T08:25:44.355Z</time></trkpt><trkpt lat="43.4490501" lon="11.4185581"><ele>331.0</ele><time>2026-05-02T08:25:45.369Z</time></trkpt><trkpt lat="43.4489043" lon="11.4185457"><ele>331.0</ele><time>2026-05-02T08:25:46.357Z</time></trkpt><trkpt lat="43.4487639" lon="11.4185313"><ele>331.0</ele><time>2026-05-02T08:25:47.35Z</time></trkpt><trkpt lat="43.4486272" lon="11.418523"><ele>331.0</ele><time>2026-05-02T08:25:48.356Z</time></trkpt><trkpt lat="43.44848" lon="11.4184958"><ele>331.0</ele><time>2026-05-02T08:25:49.349Z</time></trkpt><trkpt lat="43.4483354" lon="11.4184374"><ele>331.0</ele><time>2026-05-02T08:25:50.342Z</time></trkpt><trkpt lat="43.4482003" lon="11.4183426"><ele>331.0</ele><time>2026-05-02T08:25:51.352Z</time></trkpt><trkpt lat="43.448072" lon="11.4182283"><ele>331.0</ele><time>2026-05-02T08:25:52.356Z</time></trkpt><trkpt lat="43.4479501" lon="11.418103"><ele>332.75</ele><time>2026-05-02T08:25:53.352Z</time></trkpt><trkpt lat="43.4478315" lon="11.4179794"><ele>334.5</ele><time>2026-05-02T08:25:54.35Z</time></trkpt><trkpt lat="43.4477091" lon="11.4178694"><ele>336.25</ele><time>2026-05-02T08:25:55.348Z</time></trkpt><trkpt lat="43.4475705" lon="11.4177896"><ele>338.0</ele><time>2026-05-02T08:25:56.358Z</time></trkpt><trkpt lat="43.4474185" lon="11.4177346"><ele>338.0</ele><time>2026-05-02T08:25:57.352Z</time></trkpt><trkpt lat="43.4472654" lon="11.4176902"><ele>338.0</ele><time>2026-05-02T08:25:58.352Z</time></trkpt><trkpt lat="43.4471049" lon="11.4176563"><ele>338.0</ele><time>2026-05-02T08:25:59.355Z</time></trkpt><trkpt lat="43.4469459" lon="11.4176193"><ele>338.6666666666667</ele><time>2026-05-02T08:26:00.354Z</time></trkpt><trkpt lat="43.4467816" lon="11.4175802"><ele>339.3333333333333</ele><time>2026-05-02T08:26:01.354Z</time></trkpt><trkpt lat="43.4466199" lon="11.417547"><ele>340.0</ele><time>2026-05-02T08:26:02.357Z</time></trkpt><trkpt lat="43.4464534" lon="11.4175241"><ele>343.0</ele><time>2026-05-02T08:26:03.354Z</time></trkpt><trkpt lat="43.4462938" lon="11.4175122"><ele>346.0</ele><time>2026-05-02T08:26:04.353Z</time></trkpt><trkpt lat="43.4461456" lon="11.4175297"><ele>349.0</ele><time>2026-05-02T08:26:05.349Z</time></trkpt><trkpt lat="43.4460275" lon="11.4176184"><ele>352.0</ele><time>2026-05-02T08:26:06.353Z</time></trkpt><trkpt lat="43.4459218" lon="11.4177485"><ele>352.0</ele><time>2026-05-02T08:26:07.356Z</time></trkpt><trkpt lat="43.4458309" lon="11.4179067"><ele>352.0</ele><time>2026-05-02T08:26:08.344Z</time></trkpt><trkpt lat="43.4457656" lon="11.4180975"><ele>352.0</ele><time>2026-05-02T08:26:09.349Z</time></trkpt><trkpt lat="43.4457051" lon="11.4182942"><ele>348.66666666666663</ele><time>2026-05-02T08:26:10.354Z</time></trkpt><trkpt lat="43.4456588" lon="11.4185089"><ele>345.3333333333333</ele><time>2026-05-02T08:26:11.347Z</time></trkpt><trkpt lat="43.4456215" lon="11.4187244"><ele>342.0</ele><time>2026-05-02T08:26:12.362Z</time></trkpt><trkpt lat="43.4456067" lon="11.4189434"><ele>340.0</ele><time>2026-05-02T08:26:13.351Z</time></trkpt><trkpt lat="43.4456142" lon="11.4191444"><ele>338.0</ele><time>2026-05-02T08:26:14.356Z</time></trkpt><trkpt lat="43.4456183" lon="11.4193348"><ele>336.0</ele><time>2026-05-02T08:26:15.352Z</time></trkpt><trkpt lat="43.4456022" lon="11.4195032"><ele>334.0</ele><time>2026-05-02T08:26:16.333Z</time></trkpt><trkpt lat="43.4455377" lon="11.4196434"><ele>335.25</ele><time>2026-05-02T08:26:17.357Z</time></trkpt><trkpt lat="43.4454323" lon="11.4197555"><ele>336.5</ele><time>2026-05-02T08:26:18.357Z</time></trkpt><trkpt lat="43.4453015" lon="11.4198329"><ele>337.75</ele><time>2026-05-02T08:26:19.362Z</time></trkpt><trkpt lat="43.4451691" lon="11.4199116"><ele>339.0</ele><time>2026-05-02T08:26:20.348Z</time></trkpt><trkpt lat="43.4450142" lon="11.4199924"><ele>339.0</ele><time>2026-05-02T08:26:21.346Z</time></trkpt><trkpt lat="43.4448606" lon="11.4200905"><ele>339.0</ele><time>2026-05-02T08:26:22.343Z</time></trkpt><trkpt lat="43.4447094" lon="11.4201935"><ele>339.0</ele><time>2026-05-02T08:26:23.359Z</time></trkpt><trkpt lat="43.4445722" lon="11.4203282"><ele>338.3333333333333</ele><time>2026-05-02T08:26:24.355Z</time></trkpt><trkpt lat="43.4444561" lon="11.4204939"><ele>337.66666666666663</ele><time>2026-05-02T08:26:25.352Z</time></trkpt><trkpt lat="43.4443424" lon="11.4206793"><ele>337.0</ele><time>2026-05-02T08:26:26.354Z</time></trkpt><trkpt lat="43.4442199" lon="11.4208525"><ele>337.0</ele><time>2026-05-02T08:26:27.34Z</time></trkpt><trkpt lat="43.444069" lon="11.4209907"><ele>337.0</ele><time>2026-05-02T08:26:28.351Z</time></trkpt><trkpt lat="43.4439054" lon="11.421107"><ele>337.0</ele><time>2026-05-02T08:26:29.359Z</time></trkpt><trkpt lat="43.4437352" lon="11.421229"><ele>334.0</ele><time>2026-05-02T08:26:30.338Z</time></trkpt><trkpt lat="43.4435623" lon="11.4213471"><ele>331.0</ele><time>2026-05-02T08:26:31.355Z</time></trkpt><trkpt lat="43.4434002" lon="11.4214543"><ele>328.0</ele><time>2026-05-02T08:26:32.349Z</time></trkpt><trkpt lat="43.4432367" lon="11.4215359"><ele>328.0</ele><time>2026-05-02T08:26:33.357Z</time></trkpt><trkpt lat="43.443067" lon="11.4215671"><ele>328.0</ele><time>2026-05-02T08:26:34.354Z</time></trkpt><trkpt lat="43.4428855" lon="11.4215808"><ele>328.0</ele><time>2026-05-02T08:26:35.354Z</time></trkpt><trkpt lat="43.4427039" lon="11.4215831"><ele>328.0</ele><time>2026-05-02T08:26:36.342Z</time></trkpt><trkpt lat="43.4425213" lon="11.4215663"><ele>328.0</ele><time>2026-05-02T08:26:37.36Z</time></trkpt><trkpt lat="43.4423346" lon="11.4215413"><ele>328.0</ele><time>2026-05-02T08:26:38.359Z</time></trkpt><trkpt lat="43.4421405" lon="11.4215122"><ele>326.3333333333333</ele><time>2026-05-02T08:26:39.347Z</time></trkpt><trkpt lat="43.4419542" lon="11.4214776"><ele>324.6666666666667</ele><time>2026-05-02T08:26:40.341Z</time></trkpt><trkpt lat="43.4417726" lon="11.4214492"><ele>323.0</ele><time>2026-05-02T08:26:41.347Z</time></trkpt><trkpt lat="43.441593" lon="11.4214241"><ele>323.0</ele><time>2026-05-02T08:26:42.357Z</time></trkpt><trkpt lat="43.4414206" lon="11.4214011"><ele>323.0</ele><time>2026-05-02T08:26:43.354Z</time></trkpt><trkpt lat="43.4412538" lon="11.421358"><ele>323.0</ele><time>2026-05-02T08:26:44.352Z</time></trkpt><trkpt lat="43.4410851" lon="11.4212838"><ele>325.33333333333337</ele><time>2026-05-02T08:26:45.352Z</time></trkpt><trkpt lat="43.4409275" lon="11.4211824"><ele>327.6666666666667</ele><time>2026-05-02T08:26:46.354Z</time></trkpt><trkpt lat="43.4407712" lon="11.4210606"><ele>330.0</ele><time>2026-05-02T08:26:47.359Z</time></trkpt><trkpt lat="43.4406141" lon="11.4209349"><ele>325.6666666666667</ele><time>2026-05-02T08:26:48.349Z</time></trkpt><trkpt lat="43.4404481" lon="11.420807"><ele>321.33333333333337</ele><time>2026-05-02T08:26:49.355Z</time></trkpt><trkpt lat="43.4402818" lon="11.4206705"><ele>317.0</ele><time>2026-05-02T08:26:50.365Z</time></trkpt><trkpt lat="43.4401162" lon="11.4205243"><ele>321.0</ele><time>2026-05-02T08:26:51.363Z</time></trkpt><trkpt lat="43.4399546" lon="11.4203821"><ele>325.0</ele><time>2026-05-02T08:26:52.355Z</time></trkpt><trkpt lat="43.4397977" lon="11.420236"><ele>329.0</ele><time>2026-05-02T08:26:53.345Z</time></trkpt><trkpt lat="43.4396387" lon="11.4200911"><ele>325.33333333333337</ele><time>2026-05-02T08:26:54.35Z</time></trkpt><trkpt lat="43.4394732" lon="11.4199624"><ele>321.6666666666667</ele><time>2026-05-02T08:26:55.351Z</time></trkpt><trkpt lat="43.4393084" lon="11.4198557"><ele>318.0</ele><time>2026-05-02T08:26:56.362Z</time></trkpt><trkpt lat="43.4391292" lon="11.4197609"><ele>318.0</ele><time>2026-05-02T08:26:57.349Z</time></trkpt><trkpt lat="43.4389435" lon="11.4196916"><ele>318.0</ele><time>2026-05-02T08:26:58.353Z</time></trkpt><trkpt lat="43.4387488" lon="11.4196465"><ele>318.0</ele><time>2026-05-02T08:26:59.358Z</time></trkpt><trkpt lat="43.4385408" lon="11.419619"><ele>319.6666666666667</ele><time>2026-05-02T08:27:00.354Z</time></trkpt><trkpt lat="43.4383312" lon="11.4195987"><ele>321.33333333333337</ele><time>2026-05-02T08:27:01.345Z</time></trkpt><trkpt lat="43.4381235" lon="11.4195845"><ele>323.0</ele><time>2026-05-02T08:27:02.353Z</time></trkpt><trkpt lat="43.4379162" lon="11.4195637"><ele>323.0</ele><time>2026-05-02T08:27:03.358Z</time></trkpt><trkpt lat="43.437721" lon="11.4195204"><ele>323.0</ele><time>2026-05-02T08:27:04.35Z</time></trkpt><trkpt lat="43.4375316" lon="11.4194816"><ele>323.0</ele><time>2026-05-02T08:27:05.349Z</time></trkpt><trkpt lat="43.4373386" lon="11.4194486"><ele>323.0</ele><time>2026-05-02T08:27:06.359Z</time></trkpt><trkpt lat="43.4371419" lon="11.4194128"><ele>323.0</ele><time>2026-05-02T08:27:07.355Z</time></trkpt><trkpt lat="43.4369465" lon="11.4193722"><ele>323.0</ele><time>2026-05-02T08:27:08.355Z</time></trkpt><trkpt lat="43.4367513" lon="11.4193307"><ele>322.0</ele><time>2026-05-02T08:27:09.351Z</time></trkpt><trkpt lat="43.4365512" lon="11.4192911"><ele>321.0</ele><time>2026-05-02T08:27:10.355Z</time></trkpt><trkpt lat="43.4363527" lon="11.4192511"><ele>320.0</ele><time>2026-05-02T08:27:11.349Z</time></trkpt><trkpt lat="43.4361622" lon="11.4192078"><ele>318.6666666666667</ele><time>2026-05-02T08:27:12.366Z</time></trkpt><trkpt lat="43.4359834" lon="11.4191717"><ele>317.3333333333333</ele><time>2026-05-02T08:27:13.347Z</time></trkpt><trkpt lat="43.4358049" lon="11.4191403"><ele>316.0</ele><time>2026-05-02T08:27:14.349Z</time></trkpt><trkpt lat="43.4356404" lon="11.4191127"><ele>316.0</ele><time>2026-05-02T08:27:15.354Z</time></trkpt><trkpt lat="43.4354752" lon="11.4190972"><ele>316.0</ele><time>2026-05-02T08:27:16.354Z</time></trkpt><trkpt lat="43.4353071" lon="11.4191041"><ele>316.0</ele><time>2026-05-02T08:27:17.358Z</time></trkpt><trkpt lat="43.4351393" lon="11.4191445"><ele>317.0</ele><time>2026-05-02T08:27:18.354Z</time></trkpt><trkpt lat="43.434978" lon="11.4192631"><ele>318.0</ele><time>2026-05-02T08:27:19.362Z</time></trkpt><trkpt lat="43.4348179" lon="11.4194043"><ele>319.0</ele><time>2026-05-02T08:27:20.346Z</time></trkpt><trkpt lat="43.4346648" lon="11.419569"><ele>318.0</ele><time>2026-05-02T08:27:21.352Z</time></trkpt><trkpt lat="43.4345145" lon="11.4197475"><ele>317.0</ele><time>2026-05-02T08:27:22.348Z</time></trkpt><trkpt lat="43.4343681" lon="11.4199142"><ele>316.0</ele><time>2026-05-02T08:27:23.355Z</time></trkpt><trkpt lat="43.4342171" lon="11.4200931"><ele>316.0</ele><time>2026-05-02T08:27:24.349Z</time></trkpt><trkpt lat="43.4340692" lon="11.4202625"><ele>316.0</ele><time>2026-05-02T08:27:25.354Z</time></trkpt><trkpt lat="43.4339415" lon="11.4204132"><ele>316.0</ele><time>2026-05-02T08:27:26.353Z</time></trkpt><trkpt lat="43.4338315" lon="11.4205543"><ele>312.75</ele><time>2026-05-02T08:27:27.35Z</time></trkpt><trkpt lat="43.4337336" lon="11.420677"><ele>309.5</ele><time>2026-05-02T08:27:28.348Z</time></trkpt><trkpt lat="43.4336334" lon="11.4207942"><ele>306.25</ele><time>2026-05-02T08:27:29.348Z</time></trkpt><trkpt lat="43.4335361" lon="11.4208948"><ele>303.0</ele><time>2026-05-02T08:27:30.343Z</time></trkpt><trkpt lat="43.4334313" lon="11.4209366"><ele>303.0</ele><time>2026-05-02T08:27:31.343Z</time></trkpt><trkpt lat="43.4333258" lon="11.4208834"><ele>303.0</ele><time>2026-05-02T08:27:32.332Z</time></trkpt><trkpt lat="43.4332371" lon="11.420807"><ele>303.0</ele><time>2026-05-02T08:27:33.345Z</time></trkpt><trkpt lat="43.4331555" lon="11.4207224"><ele>303.0</ele><time>2026-05-02T08:27:34.344Z</time></trkpt><trkpt lat="43.4330906" lon="11.4205899"><ele>303.0</ele><time>2026-05-02T08:27:35.342Z</time></trkpt><trkpt lat="43.4330294" lon="11.4204279"><ele>302.3333333333333</ele><time>2026-05-02T08:27:36.345Z</time></trkpt><trkpt lat="43.4329652" lon="11.420251"><ele>301.66666666666663</ele><time>2026-05-02T08:27:37.342Z</time></trkpt><trkpt lat="43.4328897" lon="11.4200697"><ele>301.0</ele><time>2026-05-02T08:27:38.336Z</time></trkpt><trkpt lat="43.4328074" lon="11.4198796"><ele>301.0</ele><time>2026-05-02T08:27:39.346Z</time></trkpt><trkpt lat="43.4327267" lon="11.419711"><ele>301.0</ele><time>2026-05-02T08:27:40.354Z</time></trkpt><trkpt lat="43.4326413" lon="11.4195454"><ele>301.0</ele><time>2026-05-02T08:27:41.344Z</time></trkpt><trkpt lat="43.4325508" lon="11.4193985"><ele>301.0</ele><time>2026-05-02T08:27:42.341Z</time></trkpt><trkpt lat="43.4324554" lon="11.419247"><ele>300.5</ele><time>2026-05-02T08:27:43.347Z</time></trkpt><trkpt lat="43.4323598" lon="11.4191031"><ele>300.0</ele><time>2026-05-02T08:27:44.348Z</time></trkpt><trkpt lat="43.4322643" lon="11.4189599"><ele>299.5</ele><time>2026-05-02T08:27:45.349Z</time></trkpt><trkpt lat="43.4321689" lon="11.4188215"><ele>299.0</ele><time>2026-05-02T08:27:46.347Z</time></trkpt><trkpt lat="43.4320791" lon="11.4186795"><ele>299.0</ele><time>2026-05-02T08:27:47.358Z</time></trkpt><trkpt lat="43.4319845" lon="11.4185416"><ele>299.0</ele><time>2026-05-02T08:27:48.344Z</time></trkpt><trkpt lat="43.4318874" lon="11.4184048"><ele>299.0</ele><time>2026-05-02T08:27:49.344Z</time></trkpt><trkpt lat="43.4317991" lon="11.4182685"><ele>299.0</ele><time>2026-05-02T08:27:50.352Z</time></trkpt><trkpt lat="43.4317115" lon="11.4181365"><ele>299.0</ele><time>2026-05-02T08:27:51.347Z</time></trkpt><trkpt lat="43.4316292" lon="11.4180127"><ele>299.0</ele><time>2026-05-02T08:27:52.349Z</time></trkpt><trkpt lat="43.4315514" lon="11.4178995"><ele>299.0</ele><time>2026-05-02T08:27:53.35Z</time></trkpt><trkpt lat="43.431479" lon="11.4178091"><ele>299.0</ele><time>2026-05-02T08:27:54.347Z</time></trkpt><trkpt lat="43.4314175" lon="11.417721"><ele>299.0</ele><time>2026-05-02T08:27:55.358Z</time></trkpt><trkpt lat="43.4313689" lon="11.4176438"><ele>299.33333333333337</ele><time>2026-05-02T08:27:56.343Z</time></trkpt><trkpt lat="43.4313205" lon="11.4175875"><ele>299.6666666666667</ele><time>2026-05-02T08:27:57.348Z</time></trkpt><trkpt lat="43.4312164" lon="11.4175918"><ele>300.0</ele><time>2026-05-02T08:27:59.342Z</time></trkpt><trkpt lat="43.4311546" lon="11.4176413"><ele>300.3333333333333</ele><time>2026-05-02T08:28:00.349Z</time></trkpt><trkpt lat="43.4310843" lon="11.417702"><ele>300.66666666666663</ele><time>2026-05-02T08:28:01.36Z</time></trkpt><trkpt lat="43.431012" lon="11.4177618"><ele>301.0</ele><time>2026-05-02T08:28:02.351Z</time></trkpt><trkpt lat="43.4309335" lon="11.4178257"><ele>301.0</ele><time>2026-05-02T08:28:03.352Z</time></trkpt><trkpt lat="43.4308355" lon="11.4178905"><ele>301.0</ele><time>2026-05-02T08:28:04.361Z</time></trkpt><trkpt lat="43.4307297" lon="11.4179657"><ele>301.0</ele><time>2026-05-02T08:28:05.35Z</time></trkpt><trkpt lat="43.4306188" lon="11.4180446"><ele>301.0</ele><time>2026-05-02T08:28:06.358Z</time></trkpt><trkpt lat="43.4305072" lon="11.4181288"><ele>301.25</ele><time>2026-05-02T08:28:07.355Z</time></trkpt><trkpt lat="43.4303943" lon="11.4182097"><ele>301.5</ele><time>2026-05-02T08:28:08.358Z</time></trkpt><trkpt lat="43.4302766" lon="11.4182913"><ele>301.75</ele><time>2026-05-02T08:28:09.347Z</time></trkpt><trkpt lat="43.4301541" lon="11.4183791"><ele>302.0</ele><time>2026-05-02T08:28:10.345Z</time></trkpt><trkpt lat="43.4300321" lon="11.4184683"><ele>302.0</ele><time>2026-05-02T08:28:11.35Z</time></trkpt><trkpt lat="43.429915" lon="11.4185597"><ele>302.0</ele><time>2026-05-02T08:28:12.348Z</time></trkpt><trkpt lat="43.4298" lon="11.4186514"><ele>302.0</ele><time>2026-05-02T08:28:13.351Z</time></trkpt><trkpt lat="43.4296862" lon="11.4187353"><ele>302.0</ele><time>2026-05-02T08:28:14.35Z</time></trkpt><trkpt lat="43.4295801" lon="11.4188209"><ele>304.0</ele><time>2026-05-02T08:28:15.355Z</time></trkpt><trkpt lat="43.4294735" lon="11.4188978"><ele>306.0</ele><time>2026-05-02T08:28:16.348Z</time></trkpt><trkpt lat="43.4293619" lon="11.4189714"><ele>308.0</ele><time>2026-05-02T08:28:17.356Z</time></trkpt><trkpt lat="43.4292432" lon="11.4190353"><ele>310.0</ele><time>2026-05-02T08:28:18.35Z</time></trkpt><trkpt lat="43.429119" lon="11.4190849"><ele>310.0</ele><time>2026-05-02T08:28:19.361Z</time></trkpt><trkpt lat="43.4289758" lon="11.4191303"><ele>310.0</ele><time>2026-05-02T08:28:20.342Z</time></trkpt><trkpt lat="43.4288336" lon="11.4191684"><ele>310.0</ele><time>2026-05-02T08:28:21.359Z</time></trkpt><trkpt lat="43.4286886" lon="11.4192"><ele>310.0</ele><time>2026-05-02T08:28:22.357Z</time></trkpt><trkpt lat="43.4285432" lon="11.419243"><ele>310.25</ele><time>2026-05-02T08:28:23.349Z</time></trkpt><trkpt lat="43.4284025" lon="11.4193047"><ele>310.5</ele><time>2026-05-02T08:28:24.343Z</time></trkpt><trkpt lat="43.4282701" lon="11.4193931"><ele>310.75</ele><time>2026-05-02T08:28:25.353Z</time></trkpt><trkpt lat="43.4281513" lon="11.4195067"><ele>311.0</ele><time>2026-05-02T08:28:26.339Z</time></trkpt><trkpt lat="43.4280376" lon="11.4196296"><ele>311.5</ele><time>2026-05-02T08:28:27.353Z</time></trkpt><trkpt lat="43.4279364" lon="11.419748"><ele>312.0</ele><time>2026-05-02T08:28:28.345Z</time></trkpt><trkpt lat="43.4278349" lon="11.4198735"><ele>312.5</ele><time>2026-05-02T08:28:29.355Z</time></trkpt><trkpt lat="43.4277361" lon="11.4200158"><ele>313.0</ele><time>2026-05-02T08:28:30.356Z</time></trkpt><trkpt lat="43.4276815" lon="11.4201914"><ele>313.0</ele><time>2026-05-02T08:28:31.358Z</time></trkpt><trkpt lat="43.4276775" lon="11.4203769"><ele>313.0</ele><time>2026-05-02T08:28:32.346Z</time></trkpt><trkpt lat="43.4277132" lon="11.4205585"><ele>313.0</ele><time>2026-05-02T08:28:33.357Z</time></trkpt><trkpt lat="43.427756" lon="11.4207342"><ele>313.0</ele><time>2026-05-02T08:28:34.344Z</time></trkpt><trkpt lat="43.4277904" lon="11.4209082"><ele>312.5</ele><time>2026-05-02T08:28:35.352Z</time></trkpt><trkpt lat="43.4278187" lon="11.4210927"><ele>312.0</ele><time>2026-05-02T08:28:36.354Z</time></trkpt><trkpt lat="43.4278363" lon="11.4212974"><ele>311.5</ele><time>2026-05-02T08:28:37.35Z</time></trkpt><trkpt lat="43.4278324" lon="11.4215048"><ele>311.0</ele><time>2026-05-02T08:28:38.367Z</time></trkpt><trkpt lat="43.4278106" lon="11.4217042"><ele>310.75</ele><time>2026-05-02T08:28:39.36Z</time></trkpt><trkpt lat="43.4277796" lon="11.4218993"><ele>310.5</ele><time>2026-05-02T08:28:40.349Z</time></trkpt><trkpt lat="43.4277449" lon="11.4220924"><ele>310.25</ele><time>2026-05-02T08:28:41.357Z</time></trkpt><trkpt lat="43.4276956" lon="11.4222784"><ele>310.0</ele><time>2026-05-02T08:28:42.352Z</time></trkpt><trkpt lat="43.4276306" lon="11.4224556"><ele>312.0</ele><time>2026-05-02T08:28:43.352Z</time></trkpt><trkpt lat="43.4275436" lon="11.4226005"><ele>314.0</ele><time>2026-05-02T08:28:44.366Z</time></trkpt><trkpt lat="43.4274215" lon="11.4226941"><ele>316.0</ele><time>2026-05-02T08:28:45.359Z</time></trkpt><trkpt lat="43.4272897" lon="11.4227438"><ele>318.0</ele><time>2026-05-02T08:28:46.35Z</time></trkpt><trkpt lat="43.427148" lon="11.4227764"><ele>317.0</ele><time>2026-05-02T08:28:47.35Z</time></trkpt><trkpt lat="43.4269986" lon="11.4228057"><ele>316.0</ele><time>2026-05-02T08:28:48.356Z</time></trkpt><trkpt lat="43.4268566" lon="11.4228409"><ele>315.0</ele><time>2026-05-02T08:28:49.348Z</time></trkpt><trkpt lat="43.4267081" lon="11.4228695"><ele>314.0</ele><time>2026-05-02T08:28:50.352Z</time></trkpt><trkpt lat="43.4265656" lon="11.4229024"><ele>314.0</ele><time>2026-05-02T08:28:51.362Z</time></trkpt><trkpt lat="43.426432" lon="11.4229352"><ele>314.0</ele><time>2026-05-02T08:28:52.35Z</time></trkpt><trkpt lat="43.4263007" lon="11.4230108"><ele>314.0</ele><time>2026-05-02T08:28:53.349Z</time></trkpt><trkpt lat="43.4262113" lon="11.4231164"><ele>314.0</ele><time>2026-05-02T08:28:54.348Z</time></trkpt><trkpt lat="43.4261635" lon="11.4232575"><ele>314.25</ele><time>2026-05-02T08:28:55.354Z</time></trkpt><trkpt lat="43.4261579" lon="11.4234134"><ele>314.5</ele><time>2026-05-02T08:28:56.352Z</time></trkpt><trkpt lat="43.4261883" lon="11.42359"><ele>314.75</ele><time>2026-05-02T08:28:57.353Z</time></trkpt><trkpt lat="43.4262379" lon="11.4237649"><ele>315.0</ele><time>2026-05-02T08:28:58.356Z</time></trkpt><trkpt lat="43.4262856" lon="11.4239641"><ele>319.6666666666667</ele><time>2026-05-02T08:28:59.365Z</time></trkpt><trkpt lat="43.4263273" lon="11.4241797"><ele>324.33333333333337</ele><time>2026-05-02T08:29:00.362Z</time></trkpt><trkpt lat="43.4263727" lon="11.4244107"><ele>329.0</ele><time>2026-05-02T08:29:01.346Z</time></trkpt><trkpt lat="43.4264225" lon="11.4246509"><ele>329.0</ele><time>2026-05-02T08:29:02.356Z</time></trkpt><trkpt lat="43.4264738" lon="11.4248786"><ele>329.0</ele><time>2026-05-02T08:29:03.35Z</time></trkpt><trkpt lat="43.4265145" lon="11.4250933"><ele>329.0</ele><time>2026-05-02T08:29:04.362Z</time></trkpt><trkpt lat="43.4265467" lon="11.4253109"><ele>329.33333333333337</ele><time>2026-05-02T08:29:05.359Z</time></trkpt><trkpt lat="43.4265618" lon="11.4255326"><ele>329.6666666666667</ele><time>2026-05-02T08:29:06.36Z</time></trkpt><trkpt lat="43.4265561" lon="11.4257512"><ele>330.0</ele><time>2026-05-02T08:29:07.352Z</time></trkpt><trkpt lat="43.4265322" lon="11.4259872"><ele>330.0</ele><time>2026-05-02T08:29:08.37Z</time></trkpt><trkpt lat="43.4264988" lon="11.4262291"><ele>330.0</ele><time>2026-05-02T08:29:09.364Z</time></trkpt><trkpt lat="43.4264527" lon="11.4264662"><ele>330.0</ele><time>2026-05-02T08:29:10.354Z</time></trkpt><trkpt lat="43.4263926" lon="11.4266944"><ele>330.3333333333333</ele><time>2026-05-02T08:29:11.349Z</time></trkpt><trkpt lat="43.4263214" lon="11.4269"><ele>330.66666666666663</ele><time>2026-05-02T08:29:12.354Z</time></trkpt><trkpt lat="43.4262314" lon="11.4270731"><ele>331.0</ele><time>2026-05-02T08:29:13.357Z</time></trkpt><trkpt lat="43.4261147" lon="11.4272299"><ele>329.66666666666663</ele><time>2026-05-02T08:29:14.345Z</time></trkpt><trkpt lat="43.4260062" lon="11.427376"><ele>328.3333333333333</ele><time>2026-05-02T08:29:15.352Z</time></trkpt><trkpt lat="43.4259246" lon="11.4275523"><ele>327.0</ele><time>2026-05-02T08:29:16.35Z</time></trkpt><trkpt lat="43.4258891" lon="11.4277775"><ele>327.3333333333333</ele><time>2026-05-02T08:29:17.352Z</time></trkpt><trkpt lat="43.4258963" lon="11.4279833"><ele>327.66666666666663</ele><time>2026-05-02T08:29:18.347Z</time></trkpt><trkpt lat="43.4259107" lon="11.4282032"><ele>328.0</ele><time>2026-05-02T08:29:19.352Z</time></trkpt><trkpt lat="43.4259174" lon="11.4284226"><ele>328.0</ele><time>2026-05-02T08:29:20.352Z</time></trkpt><trkpt lat="43.4259199" lon="11.4286454"><ele>328.0</ele><time>2026-05-02T08:29:21.35Z</time></trkpt><trkpt lat="43.4259212" lon="11.4288781"><ele>328.0</ele><time>2026-05-02T08:29:22.356Z</time></trkpt><trkpt lat="43.4259166" lon="11.429124"><ele>329.3333333333333</ele><time>2026-05-02T08:29:23.346Z</time></trkpt><trkpt lat="43.4259226" lon="11.4293751"><ele>330.6666666666667</ele><time>2026-05-02T08:29:24.362Z</time></trkpt><trkpt lat="43.4259246" lon="11.4296254"><ele>332.0</ele><time>2026-05-02T08:29:25.356Z</time></trkpt><trkpt lat="43.425927" lon="11.4298667"><ele>332.0</ele><time>2026-05-02T08:29:26.35Z</time></trkpt><trkpt lat="43.4259234" lon="11.4300972"><ele>332.0</ele><time>2026-05-02T08:29:27.345Z</time></trkpt><trkpt lat="43.4259093" lon="11.4303252"><ele>332.0</ele><time>2026-05-02T08:29:28.347Z</time></trkpt><trkpt lat="43.4258738" lon="11.430536"><ele>332.6666666666667</ele><time>2026-05-02T08:29:29.338Z</time></trkpt><trkpt lat="43.4258132" lon="11.430739"><ele>333.3333333333333</ele><time>2026-05-02T08:29:30.351Z</time></trkpt><trkpt lat="43.4257405" lon="11.43094"><ele>334.0</ele><time>2026-05-02T08:29:31.357Z</time></trkpt><trkpt lat="43.4256619" lon="11.4311324"><ele>335.5</ele><time>2026-05-02T08:29:32.349Z</time></trkpt><trkpt lat="43.4255936" lon="11.431329"><ele>337.0</ele><time>2026-05-02T08:29:33.35Z</time></trkpt><trkpt lat="43.4255267" lon="11.4315092"><ele>338.5</ele><time>2026-05-02T08:29:34.352Z</time></trkpt><trkpt lat="43.4254689" lon="11.431668"><ele>340.0</ele><time>2026-05-02T08:29:35.354Z</time></trkpt><trkpt lat="43.4254267" lon="11.4318049"><ele>340.0</ele><time>2026-05-02T08:29:36.352Z</time></trkpt><trkpt lat="43.4253896" lon="11.4319235"><ele>340.0</ele><time>2026-05-02T08:29:37.352Z</time></trkpt><trkpt lat="43.4253468" lon="11.4320343"><ele>340.0</ele><time>2026-05-02T08:29:38.347Z</time></trkpt><trkpt lat="43.4252905" lon="11.4321381"><ele>340.0</ele><time>2026-05-02T08:29:39.355Z</time></trkpt><trkpt lat="43.4252067" lon="11.4322067"><ele>340.0</ele><time>2026-05-02T08:29:40.358Z</time></trkpt><trkpt lat="43.4251122" lon="11.4322372"><ele>340.0</ele><time>2026-05-02T08:29:41.359Z</time></trkpt><trkpt lat="43.425025" lon="11.4322937"><ele>340.0</ele><time>2026-05-02T08:29:42.343Z</time></trkpt><trkpt lat="43.4249514" lon="11.4323905"><ele>340.0</ele><time>2026-05-02T08:29:43.356Z</time></trkpt><trkpt lat="43.4248979" lon="11.4325228"><ele>340.0</ele><time>2026-05-02T08:29:44.349Z</time></trkpt><trkpt lat="43.4248348" lon="11.4326601"><ele>340.0</ele><time>2026-05-02T08:29:45.354Z</time></trkpt><trkpt lat="43.424785" lon="11.432807"><ele>340.0</ele><time>2026-05-02T08:29:46.355Z</time></trkpt><trkpt lat="43.4247267" lon="11.4329645"><ele>340.0</ele><time>2026-05-02T08:29:47.341Z</time></trkpt><trkpt lat="43.4246612" lon="11.4331326"><ele>340.0</ele><time>2026-05-02T08:29:48.36Z</time></trkpt><trkpt lat="43.4245929" lon="11.433312"><ele>340.0</ele><time>2026-05-02T08:29:49.355Z</time></trkpt><trkpt lat="43.4245219" lon="11.4334993"><ele>343.66666666666663</ele><time>2026-05-02T08:29:50.344Z</time></trkpt><trkpt lat="43.4244543" lon="11.4336957"><ele>347.3333333333333</ele><time>2026-05-02T08:29:51.347Z</time></trkpt><trkpt lat="43.4243988" lon="11.4339118"><ele>351.0</ele><time>2026-05-02T08:29:52.346Z</time></trkpt><trkpt lat="43.4243609" lon="11.434127"><ele>351.0</ele><time>2026-05-02T08:29:53.352Z</time></trkpt><trkpt lat="43.4243423" lon="11.4343235"><ele>351.0</ele><time>2026-05-02T08:29:54.352Z</time></trkpt><trkpt lat="43.4243374" lon="11.4345057"><ele>351.0</ele><time>2026-05-02T08:29:55.346Z</time></trkpt><trkpt lat="43.4243611" lon="11.4346704"><ele>351.0</ele><time>2026-05-02T08:29:56.363Z</time></trkpt><trkpt lat="43.424424" lon="11.4348256"><ele>350.5</ele><time>2026-05-02T08:29:57.35Z</time></trkpt><trkpt lat="43.4245053" lon="11.4349566"><ele>350.0</ele><time>2026-05-02T08:29:58.348Z</time></trkpt><trkpt lat="43.4246212" lon="11.4350632"><ele>349.5</ele><time>2026-05-02T08:29:59.348Z</time></trkpt><trkpt lat="43.4247623" lon="11.4351593"><ele>349.0</ele><time>2026-05-02T08:30:00.341Z</time></trkpt><trkpt lat="43.4249085" lon="11.4352546"><ele>349.75</ele><time>2026-05-02T08:30:01.365Z</time></trkpt><trkpt lat="43.425048" lon="11.4353587"><ele>350.5</ele><time>2026-05-02T08:30:02.354Z</time></trkpt><trkpt lat="43.425181" lon="11.4354582"><ele>351.25</ele><time>2026-05-02T08:30:03.351Z</time></trkpt><trkpt lat="43.4252827" lon="11.4355689"><ele>352.0</ele><time>2026-05-02T08:30:04.353Z</time></trkpt><trkpt lat="43.4253413" lon="11.4357007"><ele>352.0</ele><time>2026-05-02T08:30:05.338Z</time></trkpt><trkpt lat="43.4253341" lon="11.4358401"><ele>352.0</ele><time>2026-05-02T08:30:06.358Z</time></trkpt><trkpt lat="43.4252898" lon="11.4359662"><ele>352.0</ele><time>2026-05-02T08:30:07.35Z</time></trkpt><trkpt lat="43.4251874" lon="11.4361062"><ele>352.0</ele><time>2026-05-02T08:30:08.348Z</time></trkpt><trkpt lat="43.4250826" lon="11.4362482"><ele>353.0</ele><time>2026-05-02T08:30:09.348Z</time></trkpt><trkpt lat="43.4249937" lon="11.4364355"><ele>354.0</ele><time>2026-05-02T08:30:10.349Z</time></trkpt><trkpt lat="43.4249405" lon="11.4366638"><ele>355.0</ele><time>2026-05-02T08:30:11.355Z</time></trkpt><trkpt lat="43.4249154" lon="11.4369251"><ele>355.0</ele><time>2026-05-02T08:30:12.338Z</time></trkpt><trkpt lat="43.4249045" lon="11.4371951"><ele>355.0</ele><time>2026-05-02T08:30:13.35Z</time></trkpt><trkpt lat="43.4249112" lon="11.4374608"><ele>355.0</ele><time>2026-05-02T08:30:14.365Z</time></trkpt><trkpt lat="43.424945" lon="11.4377157"><ele>355.0</ele><time>2026-05-02T08:30:15.339Z</time></trkpt><trkpt lat="43.4249897" lon="11.437955"><ele>355.0</ele><time>2026-05-02T08:30:16.349Z</time></trkpt><trkpt lat="43.4250387" lon="11.4381855"><ele>355.0</ele><time>2026-05-02T08:30:17.355Z</time></trkpt><trkpt lat="43.4250894" lon="11.4383914"><ele>356.5</ele><time>2026-05-02T08:30:18.338Z</time></trkpt><trkpt lat="43.4251332" lon="11.4385847"><ele>358.0</ele><time>2026-05-02T08:30:19.349Z</time></trkpt><trkpt lat="43.4251723" lon="11.438764"><ele>359.5</ele><time>2026-05-02T08:30:20.34Z</time></trkpt><trkpt lat="43.4252148" lon="11.4389201"><ele>361.0</ele><time>2026-05-02T08:30:21.34Z</time></trkpt><trkpt lat="43.4252561" lon="11.439058"><ele>360.0</ele><time>2026-05-02T08:30:22.343Z</time></trkpt><trkpt lat="43.4253091" lon="11.4391796"><ele>359.0</ele><time>2026-05-02T08:30:23.341Z</time></trkpt><trkpt lat="43.4253693" lon="11.4392828"><ele>358.0</ele><time>2026-05-02T08:30:24.343Z</time></trkpt><trkpt lat="43.4254376" lon="11.4393407"><ele>357.0</ele><time>2026-05-02T08:30:25.345Z</time></trkpt><trkpt lat="43.4255093" lon="11.4393772"><ele>356.0</ele><time>2026-05-02T08:30:26.342Z</time></trkpt><trkpt lat="43.425586" lon="11.4393729"><ele>355.0</ele><time>2026-05-02T08:30:27.34Z</time></trkpt><trkpt lat="43.4256569" lon="11.4393625"><ele>355.0</ele><time>2026-05-02T08:30:28.337Z</time></trkpt><trkpt lat="43.4257257" lon="11.4393505"><ele>355.0</ele><time>2026-05-02T08:30:29.351Z</time></trkpt><trkpt lat="43.4258632" lon="11.4393645"><ele>355.0</ele><time>2026-05-02T08:30:31.358Z</time></trkpt><trkpt lat="43.4259494" lon="11.439422"><ele>355.0</ele><time>2026-05-02T08:30:32.353Z</time></trkpt><trkpt lat="43.4260237" lon="11.4395304"><ele>355.0</ele><time>2026-05-02T08:30:33.351Z</time></trkpt><trkpt lat="43.4260721" lon="11.4396634"><ele>356.5</ele><time>2026-05-02T08:30:34.351Z</time></trkpt><trkpt lat="43.4261012" lon="11.4398176"><ele>358.0</ele><time>2026-05-02T08:30:35.349Z</time></trkpt><trkpt lat="43.4261156" lon="11.4399781"><ele>359.5</ele><time>2026-05-02T08:30:36.343Z</time></trkpt><trkpt lat="43.4261178" lon="11.4401526"><ele>361.0</ele><time>2026-05-02T08:30:37.355Z</time></trkpt><trkpt lat="43.4261226" lon="11.440335"><ele>362.25</ele><time>2026-05-02T08:30:38.359Z</time></trkpt><trkpt lat="43.4261321" lon="11.4405217"><ele>363.5</ele><time>2026-05-02T08:30:39.348Z</time></trkpt><trkpt lat="43.4261429" lon="11.4406859"><ele>364.75</ele><time>2026-05-02T08:30:40.368Z</time></trkpt><trkpt lat="43.4261495" lon="11.4408363"><ele>366.0</ele><time>2026-05-02T08:30:41.358Z</time></trkpt><trkpt lat="43.4261555" lon="11.4409742"><ele>366.0</ele><time>2026-05-02T08:30:42.351Z</time></trkpt><trkpt lat="43.4261593" lon="11.4410871"><ele>366.0</ele><time>2026-05-02T08:30:43.35Z</time></trkpt><trkpt lat="43.4261515" lon="11.4412001"><ele>366.0</ele><time>2026-05-02T08:30:44.35Z</time></trkpt><trkpt lat="43.4261232" lon="11.4413031"><ele>366.0</ele><time>2026-05-02T08:30:45.347Z</time></trkpt><trkpt lat="43.4260763" lon="11.4414"><ele>366.0</ele><time>2026-05-02T08:30:46.356Z</time></trkpt><trkpt lat="43.4260047" lon="11.4414879"><ele>366.0</ele><time>2026-05-02T08:30:47.349Z</time></trkpt><trkpt lat="43.4259044" lon="11.4415601"><ele>365.5</ele><time>2026-05-02T08:30:48.353Z</time></trkpt><trkpt lat="43.4257984" lon="11.4416147"><ele>365.0</ele><time>2026-05-02T08:30:49.346Z</time></trkpt><trkpt lat="43.4256715" lon="11.4416818"><ele>364.5</ele><time>2026-05-02T08:30:50.35Z</time></trkpt><trkpt lat="43.4255353" lon="11.4417541"><ele>364.0</ele><time>2026-05-02T08:30:51.352Z</time></trkpt><trkpt lat="43.4254064" lon="11.4418205"><ele>365.25</ele><time>2026-05-02T08:30:52.352Z</time></trkpt><trkpt lat="43.4252868" lon="11.4419121"><ele>366.5</ele><time>2026-05-02T08:30:53.346Z</time></trkpt><trkpt lat="43.4251888" lon="11.4420278"><ele>367.75</ele><time>2026-05-02T08:30:54.35Z</time></trkpt><trkpt lat="43.4251011" lon="11.4421763"><ele>369.0</ele><time>2026-05-02T08:30:55.353Z</time></trkpt><trkpt lat="43.4250295" lon="11.4423549"><ele>369.0</ele><time>2026-05-02T08:30:56.351Z</time></trkpt><trkpt lat="43.4249673" lon="11.4425518"><ele>369.0</ele><time>2026-05-02T08:30:57.355Z</time></trkpt><trkpt lat="43.4249129" lon="11.4427367"><ele>369.0</ele><time>2026-05-02T08:30:58.348Z</time></trkpt><trkpt lat="43.4248755" lon="11.4429346"><ele>369.0</ele><time>2026-05-02T08:30:59.354Z</time></trkpt><trkpt lat="43.4248511" lon="11.4431478"><ele>368.75</ele><time>2026-05-02T08:31:00.347Z</time></trkpt><trkpt lat="43.4248353" lon="11.4433613"><ele>368.5</ele><time>2026-05-02T08:31:01.357Z</time></trkpt><trkpt lat="43.4248122" lon="11.4435669"><ele>368.25</ele><time>2026-05-02T08:31:02.339Z</time></trkpt><trkpt lat="43.4247819" lon="11.4437471"><ele>368.0</ele><time>2026-05-02T08:31:03.345Z</time></trkpt><trkpt lat="43.4247401" lon="11.4439084"><ele>367.5</ele><time>2026-05-02T08:31:04.352Z</time></trkpt><trkpt lat="43.424671" lon="11.4440472"><ele>367.0</ele><time>2026-05-02T08:31:05.346Z</time></trkpt><trkpt lat="43.4245777" lon="11.4441671"><ele>366.5</ele><time>2026-05-02T08:31:06.35Z</time></trkpt><trkpt lat="43.4244845" lon="11.4442985"><ele>366.0</ele><time>2026-05-02T08:31:07.361Z</time></trkpt><trkpt lat="43.4243951" lon="11.4444574"><ele>370.6666666666667</ele><time>2026-05-02T08:31:08.354Z</time></trkpt><trkpt lat="43.4243091" lon="11.4446251"><ele>375.33333333333337</ele><time>2026-05-02T08:31:09.351Z</time></trkpt><trkpt lat="43.4242268" lon="11.4448054"><ele>380.0</ele><time>2026-05-02T08:31:10.343Z</time></trkpt><trkpt lat="43.4241429" lon="11.4449884"><ele>380.0</ele><time>2026-05-02T08:31:11.34Z</time></trkpt><trkpt lat="43.4240543" lon="11.4451853"><ele>380.0</ele><time>2026-05-02T08:31:12.341Z</time></trkpt><trkpt lat="43.4239686" lon="11.445376"><ele>380.0</ele><time>2026-05-02T08:31:13.349Z</time></trkpt><trkpt lat="43.4239061" lon="11.4455438"><ele>380.0</ele><time>2026-05-02T08:31:14.349Z</time></trkpt><trkpt lat="43.4238647" lon="11.4457127"><ele>380.0</ele><time>2026-05-02T08:31:15.351Z</time></trkpt><trkpt lat="43.4238768" lon="11.4458641"><ele>380.0</ele><time>2026-05-02T08:31:16.354Z</time></trkpt><trkpt lat="43.423918" lon="11.4460069"><ele>380.0</ele><time>2026-05-02T08:31:17.353Z</time></trkpt><trkpt lat="43.4240066" lon="11.4461071"><ele>380.0</ele><time>2026-05-02T08:31:18.358Z</time></trkpt><trkpt lat="43.4241217" lon="11.446169"><ele>380.0</ele><time>2026-05-02T08:31:19.342Z</time></trkpt><trkpt lat="43.4242452" lon="11.446222"><ele>380.0</ele><time>2026-05-02T08:31:20.35Z</time></trkpt><trkpt lat="43.4243671" lon="11.4463231"><ele>380.0</ele><time>2026-05-02T08:31:21.346Z</time></trkpt><trkpt lat="43.4244403" lon="11.4464576"><ele>382.5</ele><time>2026-05-02T08:31:22.35Z</time></trkpt><trkpt lat="43.4244755" lon="11.4466326"><ele>385.0</ele><time>2026-05-02T08:31:23.35Z</time></trkpt><trkpt lat="43.4244895" lon="11.4468125"><ele>387.5</ele><time>2026-05-02T08:31:24.338Z</time></trkpt><trkpt lat="43.4244704" lon="11.4470065"><ele>390.0</ele><time>2026-05-02T08:31:25.35Z</time></trkpt><trkpt lat="43.4244279" lon="11.4471994"><ele>391.0</ele><time>2026-05-02T08:31:26.333Z</time></trkpt><trkpt lat="43.4243709" lon="11.4473789"><ele>392.0</ele><time>2026-05-02T08:31:27.359Z</time></trkpt><trkpt lat="43.4242815" lon="11.4475392"><ele>393.0</ele><time>2026-05-02T08:31:28.341Z</time></trkpt><trkpt lat="43.4241634" lon="11.4476863"><ele>394.0</ele><time>2026-05-02T08:31:29.345Z</time></trkpt><trkpt lat="43.4240352" lon="11.4478094"><ele>394.0</ele><time>2026-05-02T08:31:30.353Z</time></trkpt><trkpt lat="43.4239303" lon="11.447952"><ele>394.0</ele><time>2026-05-02T08:31:31.348Z</time></trkpt><trkpt lat="43.4238419" lon="11.4481204"><ele>394.0</ele><time>2026-05-02T08:31:32.368Z</time></trkpt><trkpt lat="43.4238096" lon="11.4483169"><ele>394.0</ele><time>2026-05-02T08:31:33.36Z</time></trkpt><trkpt lat="43.4238435" lon="11.4485001"><ele>393.5</ele><time>2026-05-02T08:31:34.342Z</time></trkpt><trkpt lat="43.4238973" lon="11.4486887"><ele>393.0</ele><time>2026-05-02T08:31:35.343Z</time></trkpt><trkpt lat="43.4239558" lon="11.4488684"><ele>392.5</ele><time>2026-05-02T08:31:36.356Z</time></trkpt><trkpt lat="43.4239976" lon="11.4490699"><ele>392.0</ele><time>2026-05-02T08:31:37.353Z</time></trkpt><trkpt lat="43.4240018" lon="11.4492828"><ele>392.0</ele><time>2026-05-02T08:31:38.347Z</time></trkpt><trkpt lat="43.4239724" lon="11.4494937"><ele>392.0</ele><time>2026-05-02T08:31:39.35Z</time></trkpt><trkpt lat="43.423922" lon="11.449701"><ele>392.0</ele><time>2026-05-02T08:31:40.357Z</time></trkpt><trkpt lat="43.423848" lon="11.4498879"><ele>398.66666666666663</ele><time>2026-05-02T08:31:41.351Z</time></trkpt><trkpt lat="43.423744" lon="11.4500593"><ele>405.33333333333337</ele><time>2026-05-02T08:31:42.348Z</time></trkpt><trkpt lat="43.4236286" lon="11.4502152"><ele>412.0</ele><time>2026-05-02T08:31:43.346Z</time></trkpt><trkpt lat="43.4235154" lon="11.4503735"><ele>407.0</ele><time>2026-05-02T08:31:44.364Z</time></trkpt><trkpt lat="43.423402" lon="11.450538"><ele>402.0</ele><time>2026-05-02T08:31:45.348Z</time></trkpt><trkpt lat="43.4232702" lon="11.4506956"><ele>397.0</ele><time>2026-05-02T08:31:46.349Z</time></trkpt><trkpt lat="43.4231398" lon="11.450828"><ele>397.0</ele><time>2026-05-02T08:31:47.345Z</time></trkpt><trkpt lat="43.4229989" lon="11.4509574"><ele>397.0</ele><time>2026-05-02T08:31:48.347Z</time></trkpt><trkpt lat="43.4228627" lon="11.4510839"><ele>397.0</ele><time>2026-05-02T08:31:49.351Z</time></trkpt><trkpt lat="43.4227213" lon="11.4511952"><ele>396.6666666666667</ele><time>2026-05-02T08:31:50.346Z</time></trkpt><trkpt lat="43.4225663" lon="11.4512897"><ele>396.33333333333337</ele><time>2026-05-02T08:31:51.351Z</time></trkpt><trkpt lat="43.422421" lon="11.4513393"><ele>396.0</ele><time>2026-05-02T08:31:52.34Z</time></trkpt><trkpt lat="43.4222879" lon="11.4513492"><ele>396.0</ele><time>2026-05-02T08:31:53.339Z</time></trkpt><trkpt lat="43.4221639" lon="11.451365"><ele>396.0</ele><time>2026-05-02T08:31:54.353Z</time></trkpt><trkpt lat="43.422034" lon="11.4513824"><ele>396.0</ele><time>2026-05-02T08:31:55.354Z</time></trkpt><trkpt lat="43.4219222" lon="11.4514206"><ele>396.0</ele><time>2026-05-02T08:31:56.361Z</time></trkpt><trkpt lat="43.4218473" lon="11.4515333"><ele>401.75</ele><time>2026-05-02T08:31:57.345Z</time></trkpt><trkpt lat="43.421804" lon="11.4517131"><ele>407.5</ele><time>2026-05-02T08:31:58.352Z</time></trkpt><trkpt lat="43.4217861" lon="11.4519029"><ele>413.25</ele><time>2026-05-02T08:31:59.353Z</time></trkpt><trkpt lat="43.4217738" lon="11.4520814"><ele>419.0</ele><time>2026-05-02T08:32:00.339Z</time></trkpt><trkpt lat="43.4217347" lon="11.4522636"><ele>419.0</ele><time>2026-05-02T08:32:01.348Z</time></trkpt><trkpt lat="43.4216728" lon="11.4524348"><ele>419.0</ele><time>2026-05-02T08:32:02.355Z</time></trkpt><trkpt lat="43.4216067" lon="11.4526088"><ele>419.0</ele><time>2026-05-02T08:32:03.33Z</time></trkpt><trkpt lat="43.421575" lon="11.4527851"><ele>419.0</ele><time>2026-05-02T08:32:04.352Z</time></trkpt><trkpt lat="43.4215751" lon="11.452961"><ele>418.0</ele><time>2026-05-02T08:32:05.342Z</time></trkpt><trkpt lat="43.4216195" lon="11.453116"><ele>417.0</ele><time>2026-05-02T08:32:06.349Z</time></trkpt><trkpt lat="43.421692" lon="11.4532543"><ele>416.0</ele><time>2026-05-02T08:32:07.363Z</time></trkpt><trkpt lat="43.4217623" lon="11.4533882"><ele>415.0</ele><time>2026-05-02T08:32:08.346Z</time></trkpt><trkpt lat="43.4218119" lon="11.4535462"><ele>415.0</ele><time>2026-05-02T08:32:09.354Z</time></trkpt><trkpt lat="43.4218215" lon="11.4537097"><ele>415.0</ele><time>2026-05-02T08:32:10.335Z</time></trkpt><trkpt lat="43.4217937" lon="11.4538895"><ele>415.0</ele><time>2026-05-02T08:32:11.341Z</time></trkpt><trkpt lat="43.421729" lon="11.454051"><ele>415.0</ele><time>2026-05-02T08:32:12.35Z</time></trkpt><trkpt lat="43.4216466" lon="11.4541946"><ele>414.33333333333337</ele><time>2026-05-02T08:32:13.345Z</time></trkpt><trkpt lat="43.4215298" lon="11.4543231"><ele>413.66666666666663</ele><time>2026-05-02T08:32:14.351Z</time></trkpt><trkpt lat="43.4213913" lon="11.4544249"><ele>413.0</ele><time>2026-05-02T08:32:15.35Z</time></trkpt><trkpt lat="43.4212433" lon="11.4545206"><ele>416.0</ele><time>2026-05-02T08:32:16.347Z</time></trkpt><trkpt lat="43.4211047" lon="11.4546247"><ele>419.0</ele><time>2026-05-02T08:32:17.353Z</time></trkpt><trkpt lat="43.4209828" lon="11.4547654"><ele>422.0</ele><time>2026-05-02T08:32:18.352Z</time></trkpt><trkpt lat="43.4208867" lon="11.4549317"><ele>422.0</ele><time>2026-05-02T08:32:19.353Z</time></trkpt><trkpt lat="43.4207981" lon="11.4551104"><ele>422.0</ele><time>2026-05-02T08:32:20.362Z</time></trkpt><trkpt lat="43.4206946" lon="11.4552751"><ele>422.0</ele><time>2026-05-02T08:32:21.345Z</time></trkpt><trkpt lat="43.4205777" lon="11.4554405"><ele>424.0</ele><time>2026-05-02T08:32:22.354Z</time></trkpt><trkpt lat="43.4204662" lon="11.4555995"><ele>426.0</ele><time>2026-05-02T08:32:23.354Z</time></trkpt><trkpt lat="43.4203523" lon="11.4557639"><ele>428.0</ele><time>2026-05-02T08:32:24.34Z</time></trkpt><trkpt lat="43.4202483" lon="11.4559172"><ele>428.0</ele><time>2026-05-02T08:32:25.377Z</time></trkpt><trkpt lat="43.4201551" lon="11.4560506"><ele>428.0</ele><time>2026-05-02T08:32:26.34Z</time></trkpt><trkpt lat="43.4200665" lon="11.4561737"><ele>428.0</ele><time>2026-05-02T08:32:27.354Z</time></trkpt><trkpt lat="43.4199836" lon="11.4562926"><ele>428.0</ele><time>2026-05-02T08:32:28.344Z</time></trkpt><trkpt lat="43.4199075" lon="11.4563884"><ele>427.16666666666663</ele><time>2026-05-02T08:32:29.348Z</time></trkpt><trkpt lat="43.4198351" lon="11.4564859"><ele>426.3333333333333</ele><time>2026-05-02T08:32:30.356Z</time></trkpt><trkpt lat="43.4197699" lon="11.4565744"><ele>425.5</ele><time>2026-05-02T08:32:31.348Z</time></trkpt><trkpt lat="43.4197089" lon="11.4566483"><ele>424.66666666666663</ele><time>2026-05-02T08:32:32.341Z</time></trkpt><trkpt lat="43.4196444" lon="11.4567115"><ele>423.8333333333333</ele><time>2026-05-02T08:32:33.348Z</time></trkpt><trkpt lat="43.4195827" lon="11.4567632"><ele>423.0</ele><time>2026-05-02T08:32:34.341Z</time></trkpt><trkpt lat="43.4195175" lon="11.4568038"><ele>425.1666666666667</ele><time>2026-05-02T08:32:35.349Z</time></trkpt><trkpt lat="43.4194529" lon="11.4568375"><ele>427.33333333333337</ele><time>2026-05-02T08:32:36.349Z</time></trkpt><trkpt lat="43.4193845" lon="11.4568523"><ele>429.5</ele><time>2026-05-02T08:32:37.342Z</time></trkpt><trkpt lat="43.4193174" lon="11.4568629"><ele>431.6666666666667</ele><time>2026-05-02T08:32:38.35Z</time></trkpt><trkpt lat="43.4192104" lon="11.4568946"><ele>433.83333333333337</ele><time>2026-05-02T08:32:40.352Z</time></trkpt><trkpt lat="43.4191518" lon="11.456933"><ele>436.0</ele><time>2026-05-02T08:32:42.357Z</time></trkpt><trkpt lat="43.4190909" lon="11.4570204"><ele>436.0</ele><time>2026-05-02T08:32:44.347Z</time></trkpt><trkpt lat="43.4190474" lon="11.4571153"><ele>436.0</ele><time>2026-05-02T08:32:46.346Z</time></trkpt><trkpt lat="43.4190077" lon="11.4572448"><ele>436.0</ele><time>2026-05-02T08:32:48.348Z</time></trkpt><trkpt lat="43.4189995" lon="11.4574026"><ele>436.0</ele><time>2026-05-02T08:32:50.346Z</time></trkpt><trkpt lat="43.4189538" lon="11.4575699"><ele>436.0</ele><time>2026-05-02T08:32:52.344Z</time></trkpt><trkpt lat="43.4189188" lon="11.4576606"><ele>435.50000000000006</ele><time>2026-05-02T08:32:53.357Z</time></trkpt><trkpt lat="43.4188683" lon="11.4577463"><ele>435.0</ele><time>2026-05-02T08:32:54.357Z</time></trkpt><trkpt lat="43.4188012" lon="11.4578118"><ele>434.5</ele><time>2026-05-02T08:32:55.339Z</time></trkpt><trkpt lat="43.4187322" lon="11.457869"><ele>434.0</ele><time>2026-05-02T08:32:56.349Z</time></trkpt><trkpt lat="43.4186512" lon="11.4579373"><ele>433.50000000000006</ele><time>2026-05-02T08:32:57.357Z</time></trkpt><trkpt lat="43.4185648" lon="11.4580007"><ele>433.0</ele><time>2026-05-02T08:32:58.351Z</time></trkpt><trkpt lat="43.4184811" lon="11.4580726"><ele>433.0</ele><time>2026-05-02T08:32:59.358Z</time></trkpt><trkpt lat="43.4183956" lon="11.4581477"><ele>432.99999999999994</ele><time>2026-05-02T08:33:00.359Z</time></trkpt><trkpt lat="43.4183071" lon="11.4582229"><ele>432.99999999999994</ele><time>2026-05-02T08:33:01.356Z</time></trkpt><trkpt lat="43.418204" lon="11.4582945"><ele>433.0</ele><time>2026-05-02T08:33:02.365Z</time></trkpt><trkpt lat="43.418108" lon="11.4583627"><ele>433.0</ele><time>2026-05-02T08:33:03.352Z</time></trkpt><trkpt lat="43.4180015" lon="11.4584299"><ele>434.5</ele><time>2026-05-02T08:33:04.345Z</time></trkpt><trkpt lat="43.4178835" lon="11.4584513"><ele>436.0</ele><time>2026-05-02T08:33:05.349Z</time></trkpt><trkpt lat="43.4177554" lon="11.4584266"><ele>437.5</ele><time>2026-05-02T08:33:06.358Z</time></trkpt><trkpt lat="43.4176323" lon="11.4583785"><ele>439.0</ele><time>2026-05-02T08:33:07.36Z</time></trkpt><trkpt lat="43.4175271" lon="11.4582862"><ele>439.0</ele><time>2026-05-02T08:33:08.363Z</time></trkpt><trkpt lat="43.4174298" lon="11.4581875"><ele>439.0</ele><time>2026-05-02T08:33:09.353Z</time></trkpt><trkpt lat="43.4173319" lon="11.4581208"><ele>439.0</ele><time>2026-05-02T08:33:10.356Z</time></trkpt><trkpt lat="43.4172352" lon="11.4580766"><ele>439.0</ele><time>2026-05-02T08:33:11.346Z</time></trkpt><trkpt lat="43.417138" lon="11.4580431"><ele>439.0</ele><time>2026-05-02T08:33:12.346Z</time></trkpt><trkpt lat="43.4170343" lon="11.4580222"><ele>439.4</ele><time>2026-05-02T08:33:13.346Z</time></trkpt><trkpt lat="43.4169308" lon="11.4580074"><ele>439.79999999999995</ele><time>2026-05-02T08:33:14.349Z</time></trkpt><trkpt lat="43.4168244" lon="11.4579949"><ele>440.20000000000005</ele><time>2026-05-02T08:33:15.34Z</time></trkpt><trkpt lat="43.4167157" lon="11.4579844"><ele>440.6</ele><time>2026-05-02T08:33:16.355Z</time></trkpt><trkpt lat="43.4166166" lon="11.4579764"><ele>441.0</ele><time>2026-05-02T08:33:17.347Z</time></trkpt><trkpt lat="43.416534" lon="11.4579782"><ele>441.0</ele><time>2026-05-02T08:33:18.35Z</time></trkpt><trkpt lat="43.4164545" lon="11.4579941"><ele>441.0</ele><time>2026-05-02T08:33:19.357Z</time></trkpt><trkpt lat="43.4163785" lon="11.4580393"><ele>441.0</ele><time>2026-05-02T08:33:20.343Z</time></trkpt><trkpt lat="43.4163047" lon="11.4580931"><ele>441.0</ele><time>2026-05-02T08:33:21.349Z</time></trkpt><trkpt lat="43.4162451" lon="11.4581471"><ele>441.0</ele><time>2026-05-02T08:33:22.347Z</time></trkpt><trkpt lat="43.4161682" lon="11.4582341"><ele>441.0</ele><time>2026-05-02T08:33:24.349Z</time></trkpt><trkpt lat="43.4160979" lon="11.458338"><ele>441.7142857142857</ele><time>2026-05-02T08:33:26.348Z</time></trkpt><trkpt lat="43.4160514" lon="11.4584059"><ele>442.42857142857144</ele><time>2026-05-02T08:33:27.347Z</time></trkpt><trkpt lat="43.4159992" lon="11.4584879"><ele>443.1428571428571</ele><time>2026-05-02T08:33:28.345Z</time></trkpt><trkpt lat="43.4159579" lon="11.4585744"><ele>443.8571428571429</ele><time>2026-05-02T08:33:29.357Z</time></trkpt><trkpt lat="43.4159252" lon="11.4586682"><ele>444.57142857142856</ele><time>2026-05-02T08:33:30.343Z</time></trkpt><trkpt lat="43.4158996" lon="11.4587669"><ele>445.2857142857143</ele><time>2026-05-02T08:33:31.348Z</time></trkpt><trkpt lat="43.4158768" lon="11.4588608"><ele>446.0</ele><time>2026-05-02T08:33:32.346Z</time></trkpt><trkpt lat="43.4158594" lon="11.4589593"><ele>446.66666666666663</ele><time>2026-05-02T08:33:33.348Z</time></trkpt><trkpt lat="43.4158405" lon="11.4590556"><ele>447.3333333333333</ele><time>2026-05-02T08:33:34.336Z</time></trkpt><trkpt lat="43.4158356" lon="11.4592061"><ele>448.0</ele><time>2026-05-02T08:33:36.349Z</time></trkpt><trkpt lat="43.4158399" lon="11.459301"><ele>448.66666666666663</ele><time>2026-05-02T08:33:38.346Z</time></trkpt><trkpt lat="43.4158434" lon="11.4594015"><ele>449.3333333333333</ele><time>2026-05-02T08:36:14.347Z</time></trkpt><trkpt lat="43.4158627" lon="11.4595105"><ele>450.0</ele><time>2026-05-02T08:36:18.347Z</time></trkpt><trkpt lat="43.4158721" lon="11.4596085"><ele>451.4</ele><time>2026-05-02T08:36:21.348Z</time></trkpt><trkpt lat="43.4158763" lon="11.4596974"><ele>452.8</ele><time>2026-05-02T08:36:23.354Z</time></trkpt><trkpt lat="43.4158853" lon="11.4598135"><ele>454.20000000000005</ele><time>2026-05-02T08:36:25.344Z</time></trkpt><trkpt lat="43.4159011" lon="11.4599623"><ele>455.6</ele><time>2026-05-02T08:36:27.35Z</time></trkpt><trkpt lat="43.4159029" lon="11.4601108"><ele>457.0</ele><time>2026-05-02T08:36:29.345Z</time></trkpt><trkpt lat="43.4159042" lon="11.4602651"><ele>457.00000000000006</ele><time>2026-05-02T08:36:31.341Z</time></trkpt><trkpt lat="43.415909" lon="11.4604356"><ele>457.0</ele><time>2026-05-02T08:36:33.351Z</time></trkpt><trkpt lat="43.4159181" lon="11.4605231"><ele>457.0</ele><time>2026-05-02T08:36:34.346Z</time></trkpt><trkpt lat="43.4159332" lon="11.4606119"><ele>457.0</ele><time>2026-05-02T08:36:35.346Z</time></trkpt><trkpt lat="43.4159541" lon="11.460705"><ele>457.00000000000006</ele><time>2026-05-02T08:36:36.344Z</time></trkpt><trkpt lat="43.4159827" lon="11.4608049"><ele>457.0</ele><time>2026-05-02T08:36:37.357Z</time></trkpt><trkpt lat="43.4160194" lon="11.4608836"><ele>459.8</ele><time>2026-05-02T08:36:38.34Z</time></trkpt><trkpt lat="43.4160547" lon="11.4609599"><ele>462.6</ele><time>2026-05-02T08:36:39.344Z</time></trkpt><trkpt lat="43.4160934" lon="11.4610399"><ele>465.40000000000003</ele><time>2026-05-02T08:36:40.343Z</time></trkpt><trkpt lat="43.4161269" lon="11.4611217"><ele>468.20000000000005</ele><time>2026-05-02T08:36:41.35Z</time></trkpt><trkpt lat="43.4161117" lon="11.4612901"><ele>471.0</ele><time>2026-05-02T08:36:43.349Z</time></trkpt><trkpt lat="43.4160203" lon="11.4614029"><ele>471.0</ele><time>2026-05-02T08:36:45.346Z</time></trkpt><trkpt lat="43.4159118" lon="11.4614644"><ele>471.0</ele><time>2026-05-02T08:36:47.341Z</time></trkpt><trkpt lat="43.4157946" lon="11.4614382"><ele>471.0</ele><time>2026-05-02T08:36:49.344Z</time></trkpt><trkpt lat="43.4157051" lon="11.4613287"><ele>471.0</ele><time>2026-05-02T08:36:51.34Z</time></trkpt><trkpt lat="43.4156792" lon="11.4612495"><ele>471.0</ele><time>2026-05-02T08:36:52.342Z</time></trkpt><trkpt lat="43.4156661" lon="11.4611567"><ele>471.00000000000006</ele><time>2026-05-02T08:36:53.338Z</time></trkpt><trkpt lat="43.4156481" lon="11.4610572"><ele>471.0</ele><time>2026-05-02T08:36:54.341Z</time></trkpt><trkpt lat="43.4156195" lon="11.4609658"><ele>471.00000000000006</ele><time>2026-05-02T08:36:55.352Z</time></trkpt><trkpt lat="43.4155976" lon="11.460879"><ele>471.00000000000006</ele><time>2026-05-02T08:36:56.354Z</time></trkpt><trkpt lat="43.4155582" lon="11.4607992"><ele>471.0</ele><time>2026-05-02T08:36:57.346Z</time></trkpt><trkpt lat="43.4155138" lon="11.4607235"><ele>471.00000000000006</ele><time>2026-05-02T08:36:58.347Z</time></trkpt><trkpt lat="43.4154666" lon="11.4606658"><ele>471.00000000000006</ele><time>2026-05-02T08:36:59.352Z</time></trkpt><trkpt lat="43.4154082" lon="11.4606124"><ele>472.8</ele><time>2026-05-02T08:37:00.346Z</time></trkpt><trkpt lat="43.4153466" lon="11.4605862"><ele>474.6</ele><time>2026-05-02T08:37:01.347Z</time></trkpt><trkpt lat="43.4152697" lon="11.460646"><ele>476.4</ele><time>2026-05-02T08:37:03.34Z</time></trkpt><trkpt lat="43.415303" lon="11.4607606"><ele>478.2</ele><time>2026-05-02T08:37:05.348Z</time></trkpt><trkpt lat="43.4153873" lon="11.4608563"><ele>480.0</ele><time>2026-05-02T08:37:07.344Z</time></trkpt><trkpt lat="43.4154581" lon="11.4609975"><ele>480.0</ele><time>2026-05-02T08:37:09.352Z</time></trkpt><trkpt lat="43.4154704" lon="11.4610884"><ele>480.0</ele><time>2026-05-02T08:37:10.34Z</time></trkpt><trkpt lat="43.4154581" lon="11.4612589"><ele>480.0</ele><time>2026-05-02T08:37:12.343Z</time></trkpt><trkpt lat="43.4154294" lon="11.4613479"><ele>480.0</ele><time>2026-05-02T08:37:13.352Z</time></trkpt><trkpt lat="43.4154006" lon="11.4614328"><ele>480.0</ele><time>2026-05-02T08:37:14.345Z</time></trkpt><trkpt lat="43.4153829" lon="11.461523"><ele>480.0</ele><time>2026-05-02T08:37:15.347Z</time></trkpt><trkpt lat="43.4153774" lon="11.4616673"><ele>482.0</ele><time>2026-05-02T08:37:17.347Z</time></trkpt><trkpt lat="43.4153471" lon="11.4617676"><ele>484.0</ele><time>2026-05-02T08:37:19.35Z</time></trkpt><trkpt lat="43.4152873" lon="11.4617368"><ele>486.0</ele><time>2026-05-02T08:37:21.343Z</time></trkpt><trkpt lat="43.4152606" lon="11.4615962"><ele>488.0</ele><time>2026-05-02T08:37:23.343Z</time></trkpt><trkpt lat="43.4152215" lon="11.4614509"><ele>490.0</ele><time>2026-05-02T08:37:25.338Z</time></trkpt><trkpt lat="43.4151298" lon="11.4613757"><ele>490.00000000000006</ele><time>2026-05-02T08:37:27.351Z</time></trkpt><trkpt lat="43.4150406" lon="11.4614215"><ele>490.0</ele><time>2026-05-02T08:37:29.339Z</time></trkpt><trkpt lat="43.4149771" lon="11.4615468"><ele>490.0</ele><time>2026-05-02T08:37:31.339Z</time></trkpt><trkpt lat="43.4149625" lon="11.4616357"><ele>490.0</ele><time>2026-05-02T08:37:32.343Z</time></trkpt><trkpt lat="43.4149494" lon="11.4617332"><ele>490.00000000000006</ele><time>2026-05-02T08:37:33.352Z</time></trkpt><trkpt lat="43.4149234" lon="11.4618401"><ele>490.0</ele><time>2026-05-02T08:37:34.339Z</time></trkpt><trkpt lat="43.4148922" lon="11.4619392"><ele>490.0</ele><time>2026-05-02T08:37:35.337Z</time></trkpt><trkpt lat="43.4148696" lon="11.4620337"><ele>490.0</ele><time>2026-05-02T08:37:36.347Z</time></trkpt><trkpt lat="43.4148299" lon="11.4621082"><ele>490.0</ele><time>2026-05-02T08:37:37.345Z</time></trkpt><trkpt lat="43.4147568" lon="11.4622204"><ele>490.0</ele><time>2026-05-02T08:37:39.353Z</time></trkpt><trkpt lat="43.4147252" lon="11.4623606"><ele>490.0</ele><time>2026-05-02T08:37:41.351Z</time></trkpt><trkpt lat="43.414704" lon="11.462523"><ele>491.6</ele><time>2026-05-02T08:37:43.353Z</time></trkpt><trkpt lat="43.4146595" lon="11.4626819"><ele>493.2</ele><time>2026-05-02T08:37:45.349Z</time></trkpt><trkpt lat="43.4146157" lon="11.4628367"><ele>494.79999999999995</ele><time>2026-05-02T08:37:47.352Z</time></trkpt><trkpt lat="43.4146022" lon="11.4629359"><ele>496.4</ele><time>2026-05-02T08:37:48.356Z</time></trkpt><trkpt lat="43.4145934" lon="11.4630413"><ele>498.0</ele><time>2026-05-02T08:37:49.347Z</time></trkpt><trkpt lat="43.4145987" lon="11.4631448"><ele>502.3333333333333</ele><time>2026-05-02T08:37:50.354Z</time></trkpt><trkpt lat="43.4146031" lon="11.4632528"><ele>506.66666666666663</ele><time>2026-05-02T08:37:51.347Z</time></trkpt><trkpt lat="43.4146095" lon="11.463369"><ele>511.0</ele><time>2026-05-02T08:37:52.34Z</time></trkpt><trkpt lat="43.4146106" lon="11.4634873"><ele>515.3333333333333</ele><time>2026-05-02T08:37:53.348Z</time></trkpt><trkpt lat="43.4145962" lon="11.4636072"><ele>519.6666666666666</ele><time>2026-05-02T08:37:54.343Z</time></trkpt><trkpt lat="43.4145801" lon="11.4637273"><ele>524.0</ele><time>2026-05-02T08:37:55.339Z</time></trkpt><trkpt lat="43.4145486" lon="11.4638405"><ele>524.0</ele><time>2026-05-02T08:37:56.351Z</time></trkpt><trkpt lat="43.4145067" lon="11.4639427"><ele>524.0</ele><time>2026-05-02T08:37:57.348Z</time></trkpt><trkpt lat="43.4144497" lon="11.4640317"><ele>524.0</ele><time>2026-05-02T08:37:58.349Z</time></trkpt><trkpt lat="43.4143744" lon="11.4641184"><ele>524.0</ele><time>2026-05-02T08:37:59.34Z</time></trkpt><trkpt lat="43.4143065" lon="11.4641902"><ele>524.0</ele><time>2026-05-02T08:38:00.343Z</time></trkpt><trkpt lat="43.4142418" lon="11.4642682"><ele>524.0</ele><time>2026-05-02T08:38:01.345Z</time></trkpt><trkpt lat="43.41418" lon="11.4643534"><ele>524.0</ele><time>2026-05-02T08:38:02.355Z</time></trkpt><trkpt lat="43.4141109" lon="11.4644249"><ele>524.0</ele><time>2026-05-02T08:38:03.348Z</time></trkpt><trkpt lat="43.4140378" lon="11.4644831"><ele>524.0</ele><time>2026-05-02T08:38:04.34Z</time></trkpt><trkpt lat="43.4139604" lon="11.4645228"><ele>524.0</ele><time>2026-05-02T08:38:05.345Z</time></trkpt><trkpt lat="43.4138869" lon="11.4645533"><ele>524.0</ele><time>2026-05-02T08:38:06.348Z</time></trkpt><trkpt lat="43.4138201" lon="11.4645828"><ele>524.0</ele><time>2026-05-02T08:38:07.346Z</time></trkpt><trkpt lat="43.4137444" lon="11.4646059"><ele>522.8333333333333</ele><time>2026-05-02T08:38:08.355Z</time></trkpt><trkpt lat="43.4136679" lon="11.4646193"><ele>521.6666666666666</ele><time>2026-05-02T08:38:09.34Z</time></trkpt><trkpt lat="43.4135828" lon="11.4646173"><ele>520.5</ele><time>2026-05-02T08:38:10.353Z</time></trkpt><trkpt lat="43.4134995" lon="11.4646068"><ele>519.3333333333334</ele><time>2026-05-02T08:38:11.35Z</time></trkpt><trkpt lat="43.4134203" lon="11.4645833"><ele>518.1666666666667</ele><time>2026-05-02T08:38:12.345Z</time></trkpt><trkpt lat="43.4133412" lon="11.4645474"><ele>517.0</ele><time>2026-05-02T08:38:13.354Z</time></trkpt><trkpt lat="43.4132636" lon="11.4644942"><ele>516.5</ele><time>2026-05-02T08:38:14.35Z</time></trkpt><trkpt lat="43.4131882" lon="11.4644427"><ele>516.0</ele><time>2026-05-02T08:38:15.351Z</time></trkpt><trkpt lat="43.4131098" lon="11.464406"><ele>515.5</ele><time>2026-05-02T08:38:16.363Z</time></trkpt><trkpt lat="43.4130334" lon="11.4643833"><ele>515.0</ele><time>2026-05-02T08:38:17.353Z</time></trkpt><trkpt lat="43.4129546" lon="11.4643756"><ele>514.5</ele><time>2026-05-02T08:38:18.35Z</time></trkpt><trkpt lat="43.4128655" lon="11.4643784"><ele>514.0</ele><time>2026-05-02T08:38:19.352Z</time></trkpt><trkpt lat="43.4127748" lon="11.4643811"><ele>514.0</ele><time>2026-05-02T08:38:20.349Z</time></trkpt><trkpt lat="43.4126848" lon="11.4643888"><ele>514.0</ele><time>2026-05-02T08:38:21.35Z</time></trkpt><trkpt lat="43.4126129" lon="11.464388"><ele>514.0</ele><time>2026-05-02T08:38:22.354Z</time></trkpt><trkpt lat="43.4125446" lon="11.4643935"><ele>514.0</ele><time>2026-05-02T08:38:23.362Z</time></trkpt><trkpt lat="43.4124706" lon="11.4644187"><ele>514.0</ele><time>2026-05-02T08:38:24.36Z</time></trkpt><trkpt lat="43.4123982" lon="11.464457"><ele>514.0</ele><time>2026-05-02T08:38:25.342Z</time></trkpt><trkpt lat="43.4123222" lon="11.4645012"><ele>514.0</ele><time>2026-05-02T08:38:26.346Z</time></trkpt><trkpt lat="43.4122495" lon="11.464555"><ele>514.0</ele><time>2026-05-02T08:38:27.352Z</time></trkpt><trkpt lat="43.412179" lon="11.4646027"><ele>514.0</ele><time>2026-05-02T08:38:28.364Z</time></trkpt><trkpt lat="43.4121033" lon="11.4646478"><ele>514.0</ele><time>2026-05-02T08:38:29.347Z</time></trkpt><trkpt lat="43.4120273" lon="11.4646984"><ele>514.0</ele><time>2026-05-02T08:38:30.348Z</time></trkpt><trkpt lat="43.4119535" lon="11.4647425"><ele>514.0</ele><time>2026-05-02T08:38:31.346Z</time></trkpt><trkpt lat="43.4118751" lon="11.4647887"><ele>512.1666666666667</ele><time>2026-05-02T08:38:32.355Z</time></trkpt><trkpt lat="43.4117995" lon="11.4648212"><ele>510.33333333333337</ele><time>2026-05-02T08:38:33.354Z</time></trkpt><trkpt lat="43.4117278" lon="11.4648539"><ele>508.5</ele><time>2026-05-02T08:38:34.345Z</time></trkpt><trkpt lat="43.4116626" lon="11.4648593"><ele>506.66666666666663</ele><time>2026-05-02T08:38:35.35Z</time></trkpt><trkpt lat="43.4115938" lon="11.4648477"><ele>504.8333333333333</ele><time>2026-05-02T08:38:36.35Z</time></trkpt><trkpt lat="43.4115209" lon="11.4648132"><ele>503.0</ele><time>2026-05-02T08:38:37.349Z</time></trkpt><trkpt lat="43.4114434" lon="11.4647675"><ele>503.0</ele><time>2026-05-02T08:38:38.351Z</time></trkpt><trkpt lat="43.4113645" lon="11.4647255"><ele>503.00000000000006</ele><time>2026-05-02T08:38:39.357Z</time></trkpt><trkpt lat="43.4112927" lon="11.4646727"><ele>503.0</ele><time>2026-05-02T08:38:40.349Z</time></trkpt><trkpt lat="43.4112298" lon="11.4646154"><ele>503.0</ele><time>2026-05-02T08:38:41.36Z</time></trkpt><trkpt lat="43.4111751" lon="11.4645656"><ele>503.00000000000006</ele><time>2026-05-02T08:38:42.349Z</time></trkpt><trkpt lat="43.4111181" lon="11.4645198"><ele>503.0</ele><time>2026-05-02T08:38:43.36Z</time></trkpt><trkpt lat="43.4110557" lon="11.464492"><ele>503.0</ele><time>2026-05-02T08:38:44.343Z</time></trkpt><trkpt lat="43.4109878" lon="11.4644668"><ele>501.2</ele><time>2026-05-02T08:38:45.345Z</time></trkpt><trkpt lat="43.4108655" lon="11.4644693"><ele>499.4</ele><time>2026-05-02T08:38:47.351Z</time></trkpt><trkpt lat="43.4107484" lon="11.464487"><ele>497.59999999999997</ele><time>2026-05-02T08:38:49.357Z</time></trkpt><trkpt lat="43.4106444" lon="11.4644965"><ele>495.79999999999995</ele><time>2026-05-02T08:38:51.351Z</time></trkpt><trkpt lat="43.4105408" lon="11.464507"><ele>494.0</ele><time>2026-05-02T08:38:53.356Z</time></trkpt><trkpt lat="43.4104234" lon="11.4645078"><ele>493.6</ele><time>2026-05-02T08:38:55.353Z</time></trkpt><trkpt lat="43.4103029" lon="11.4644916"><ele>493.2</ele><time>2026-05-02T08:38:57.362Z</time></trkpt><trkpt lat="43.4101774" lon="11.4644799"><ele>492.80000000000007</ele><time>2026-05-02T08:38:59.346Z</time></trkpt><trkpt lat="43.4101072" lon="11.4644833"><ele>492.40000000000003</ele><time>2026-05-02T08:39:00.349Z</time></trkpt><trkpt lat="43.4100317" lon="11.4644856"><ele>492.0</ele><time>2026-05-02T08:39:01.351Z</time></trkpt><trkpt lat="43.4099563" lon="11.4644893"><ele>492.0</ele><time>2026-05-02T08:39:02.351Z</time></trkpt><trkpt lat="43.4098817" lon="11.4644928"><ele>492.0</ele><time>2026-05-02T08:39:03.356Z</time></trkpt><trkpt lat="43.4098025" lon="11.4644989"><ele>492.0</ele><time>2026-05-02T08:39:04.358Z</time></trkpt><trkpt lat="43.4097215" lon="11.4645038"><ele>492.0</ele><time>2026-05-02T08:39:05.356Z</time></trkpt><trkpt lat="43.4096401" lon="11.4645017"><ele>492.0</ele><time>2026-05-02T08:39:06.364Z</time></trkpt><trkpt lat="43.4095561" lon="11.464498"><ele>492.0</ele><time>2026-05-02T08:39:07.358Z</time></trkpt><trkpt lat="43.4094705" lon="11.4645027"><ele>492.1666666666667</ele><time>2026-05-02T08:39:08.358Z</time></trkpt><trkpt lat="43.409386" lon="11.4645098"><ele>492.33333333333337</ele><time>2026-05-02T08:39:09.358Z</time></trkpt><trkpt lat="43.4093018" lon="11.4645199"><ele>492.5</ele><time>2026-05-02T08:39:10.358Z</time></trkpt><trkpt lat="43.4092209" lon="11.4645298"><ele>492.6666666666667</ele><time>2026-05-02T08:39:11.356Z</time></trkpt><trkpt lat="43.4091429" lon="11.4645412"><ele>492.83333333333337</ele><time>2026-05-02T08:39:12.362Z</time></trkpt><trkpt lat="43.4090623" lon="11.4645487"><ele>493.0</ele><time>2026-05-02T08:39:13.355Z</time></trkpt><trkpt lat="43.4089818" lon="11.4645567"><ele>493.00000000000006</ele><time>2026-05-02T08:39:14.358Z</time></trkpt><trkpt lat="43.4088979" lon="11.4645598"><ele>493.0</ele><time>2026-05-02T08:39:15.35Z</time></trkpt><trkpt lat="43.4088128" lon="11.4645694"><ele>493.0</ele><time>2026-05-02T08:39:16.343Z</time></trkpt><trkpt lat="43.4087294" lon="11.4645819"><ele>493.0</ele><time>2026-05-02T08:39:17.348Z</time></trkpt><trkpt lat="43.4086449" lon="11.4645845"><ele>493.00000000000006</ele><time>2026-05-02T08:39:18.358Z</time></trkpt><trkpt lat="43.4085583" lon="11.4645806"><ele>493.0</ele><time>2026-05-02T08:39:19.353Z</time></trkpt><trkpt lat="43.4084688" lon="11.4645704"><ele>492.33333333333337</ele><time>2026-05-02T08:39:20.35Z</time></trkpt><trkpt lat="43.4083765" lon="11.4645654"><ele>491.6666666666667</ele><time>2026-05-02T08:39:21.353Z</time></trkpt><trkpt lat="43.4082861" lon="11.4645597"><ele>491.0</ele><time>2026-05-02T08:39:22.359Z</time></trkpt><trkpt lat="43.4082006" lon="11.4645571"><ele>490.33333333333337</ele><time>2026-05-02T08:39:23.366Z</time></trkpt><trkpt lat="43.4081191" lon="11.4645579"><ele>489.6666666666667</ele><time>2026-05-02T08:39:24.358Z</time></trkpt><trkpt lat="43.4080393" lon="11.4645667"><ele>489.0</ele><time>2026-05-02T08:39:25.356Z</time></trkpt><trkpt lat="43.4079572" lon="11.464567"><ele>487.6666666666667</ele><time>2026-05-02T08:39:26.36Z</time></trkpt><trkpt lat="43.4078733" lon="11.4645735"><ele>486.33333333333337</ele><time>2026-05-02T08:39:27.352Z</time></trkpt><trkpt lat="43.407787" lon="11.4645838"><ele>485.0</ele><time>2026-05-02T08:39:28.353Z</time></trkpt><trkpt lat="43.4077014" lon="11.4645941"><ele>483.6666666666667</ele><time>2026-05-02T08:39:29.337Z</time></trkpt><trkpt lat="43.4076155" lon="11.4645998"><ele>482.33333333333337</ele><time>2026-05-02T08:39:30.354Z</time></trkpt><trkpt lat="43.4075306" lon="11.464611"><ele>481.0</ele><time>2026-05-02T08:39:31.345Z</time></trkpt><trkpt lat="43.4074404" lon="11.4646224"><ele>481.00000000000006</ele><time>2026-05-02T08:39:32.337Z</time></trkpt><trkpt lat="43.4073565" lon="11.4646321"><ele>481.0</ele><time>2026-05-02T08:39:33.346Z</time></trkpt><trkpt lat="43.4072643" lon="11.4646491"><ele>481.0</ele><time>2026-05-02T08:39:34.343Z</time></trkpt><trkpt lat="43.4071752" lon="11.4646615"><ele>481.0</ele><time>2026-05-02T08:39:35.363Z</time></trkpt><trkpt lat="43.4070886" lon="11.4646678"><ele>481.00000000000006</ele><time>2026-05-02T08:39:36.354Z</time></trkpt><trkpt lat="43.4069991" lon="11.4646599"><ele>481.0</ele><time>2026-05-02T08:39:37.347Z</time></trkpt><trkpt lat="43.4069074" lon="11.4646434"><ele>480.50000000000006</ele><time>2026-05-02T08:39:38.356Z</time></trkpt><trkpt lat="43.4068152" lon="11.4646183"><ele>480.0</ele><time>2026-05-02T08:39:39.354Z</time></trkpt><trkpt lat="43.4067321" lon="11.4645841"><ele>479.5</ele><time>2026-05-02T08:39:40.346Z</time></trkpt><trkpt lat="43.4066528" lon="11.464555"><ele>479.0</ele><time>2026-05-02T08:39:41.344Z</time></trkpt><trkpt lat="43.4065819" lon="11.4645359"><ele>478.50000000000006</ele><time>2026-05-02T08:39:42.343Z</time></trkpt><trkpt lat="43.406518" lon="11.4645175"><ele>478.0</ele><time>2026-05-02T08:39:43.348Z</time></trkpt><trkpt lat="43.4064485" lon="11.4644985"><ele>477.33333333333337</ele><time>2026-05-02T08:39:44.349Z</time></trkpt><trkpt lat="43.4063759" lon="11.4644753"><ele>476.6666666666667</ele><time>2026-05-02T08:39:45.356Z</time></trkpt><trkpt lat="43.4062973" lon="11.4644479"><ele>476.0</ele><time>2026-05-02T08:39:46.355Z</time></trkpt><trkpt lat="43.4062201" lon="11.4644158"><ele>475.33333333333337</ele><time>2026-05-02T08:39:47.341Z</time></trkpt><trkpt lat="43.4061468" lon="11.4643841"><ele>474.6666666666667</ele><time>2026-05-02T08:39:48.35Z</time></trkpt><trkpt lat="43.4060747" lon="11.4643504"><ele>474.0</ele><time>2026-05-02T08:39:49.354Z</time></trkpt><trkpt lat="43.4060064" lon="11.4643091"><ele>473.1428571428571</ele><time>2026-05-02T08:39:50.345Z</time></trkpt><trkpt lat="43.4059394" lon="11.4642662"><ele>472.2857142857143</ele><time>2026-05-02T08:39:51.357Z</time></trkpt><trkpt lat="43.4058786" lon="11.464215"><ele>471.42857142857144</ele><time>2026-05-02T08:39:52.353Z</time></trkpt><trkpt lat="43.4058152" lon="11.4641616"><ele>470.57142857142856</ele><time>2026-05-02T08:39:53.36Z</time></trkpt><trkpt lat="43.4057561" lon="11.4641094"><ele>469.7142857142858</ele><time>2026-05-02T08:39:54.354Z</time></trkpt><trkpt lat="43.4056983" lon="11.4640579"><ele>468.8571428571429</ele><time>2026-05-02T08:39:55.348Z</time></trkpt><trkpt lat="43.4056383" lon="11.4640116"><ele>468.0</ele><time>2026-05-02T08:39:56.354Z</time></trkpt><trkpt lat="43.4055293" lon="11.4639225"><ele>465.8571428571429</ele><time>2026-05-02T08:39:58.348Z</time></trkpt><trkpt lat="43.4054718" lon="11.4638659"><ele>463.7142857142858</ele><time>2026-05-02T08:39:59.354Z</time></trkpt><trkpt lat="43.4054158" lon="11.463805"><ele>461.57142857142856</ele><time>2026-05-02T08:40:00.347Z</time></trkpt><trkpt lat="43.4053621" lon="11.4637367"><ele>459.42857142857144</ele><time>2026-05-02T08:40:01.353Z</time></trkpt><trkpt lat="43.4053076" lon="11.4636732"><ele>457.2857142857143</ele><time>2026-05-02T08:40:02.359Z</time></trkpt><trkpt lat="43.4052595" lon="11.4636157"><ele>455.1428571428571</ele><time>2026-05-02T08:40:03.342Z</time></trkpt><trkpt lat="43.4052115" lon="11.4635586"><ele>452.99999999999994</ele><time>2026-05-02T08:40:04.343Z</time></trkpt><trkpt lat="43.4051669" lon="11.4634974"><ele>452.99999999999994</ele><time>2026-05-02T08:40:05.343Z</time></trkpt><trkpt lat="43.4051243" lon="11.4634328"><ele>453.0</ele><time>2026-05-02T08:40:06.353Z</time></trkpt><trkpt lat="43.4050783" lon="11.4633631"><ele>452.99999999999994</ele><time>2026-05-02T08:40:07.35Z</time></trkpt><trkpt lat="43.4050268" lon="11.4632904"><ele>452.99999999999994</ele><time>2026-05-02T08:40:08.344Z</time></trkpt><trkpt lat="43.4049797" lon="11.4632126"><ele>453.0</ele><time>2026-05-02T08:40:09.352Z</time></trkpt><trkpt lat="43.4049285" lon="11.4631354"><ele>452.99999999999994</ele><time>2026-05-02T08:40:10.371Z</time></trkpt><trkpt lat="43.4048803" lon="11.4630595"><ele>452.99999999999994</ele><time>2026-05-02T08:40:11.352Z</time></trkpt><trkpt lat="43.4048318" lon="11.4629733"><ele>452.3333333333333</ele><time>2026-05-02T08:40:12.358Z</time></trkpt><trkpt lat="43.4047851" lon="11.4628848"><ele>451.66666666666663</ele><time>2026-05-02T08:40:13.346Z</time></trkpt><trkpt lat="43.4047514" lon="11.4627842"><ele>451.0</ele><time>2026-05-02T08:40:14.346Z</time></trkpt><trkpt lat="43.4047265" lon="11.4626765"><ele>450.3333333333333</ele><time>2026-05-02T08:40:15.351Z</time></trkpt><trkpt lat="43.4047115" lon="11.4625667"><ele>449.66666666666663</ele><time>2026-05-02T08:40:16.352Z</time></trkpt><trkpt lat="43.4046932" lon="11.4624455"><ele>449.0</ele><time>2026-05-02T08:40:17.356Z</time></trkpt><trkpt lat="43.4046771" lon="11.4623134"><ele>449.4</ele><time>2026-05-02T08:40:18.351Z</time></trkpt><trkpt lat="43.4046612" lon="11.4621747"><ele>449.79999999999995</ele><time>2026-05-02T08:40:19.351Z</time></trkpt><trkpt lat="43.4046359" lon="11.4620321"><ele>450.20000000000005</ele><time>2026-05-02T08:40:20.36Z</time></trkpt><trkpt lat="43.4046134" lon="11.4618858"><ele>450.6</ele><time>2026-05-02T08:40:21.35Z</time></trkpt><trkpt lat="43.4045862" lon="11.4617456"><ele>451.0</ele><time>2026-05-02T08:40:22.368Z</time></trkpt><trkpt lat="43.4045494" lon="11.461616"><ele>452.25</ele><time>2026-05-02T08:40:23.36Z</time></trkpt><trkpt lat="43.4044897" lon="11.4614814"><ele>453.5</ele><time>2026-05-02T08:40:24.348Z</time></trkpt><trkpt lat="43.4044154" lon="11.4613225"><ele>454.75</ele><time>2026-05-02T08:40:25.365Z</time></trkpt><trkpt lat="43.4043407" lon="11.4611547"><ele>456.0</ele><time>2026-05-02T08:40:26.359Z</time></trkpt><trkpt lat="43.4042716" lon="11.4610054"><ele>456.0</ele><time>2026-05-02T08:40:27.352Z</time></trkpt><trkpt lat="43.404212" lon="11.4608687"><ele>456.0</ele><time>2026-05-02T08:40:28.358Z</time></trkpt><trkpt lat="43.404162" lon="11.4607298"><ele>456.0</ele><time>2026-05-02T08:40:29.351Z</time></trkpt><trkpt lat="43.4041233" lon="11.4605853"><ele>456.0</ele><time>2026-05-02T08:40:30.347Z</time></trkpt><trkpt lat="43.4041047" lon="11.4604504"><ele>456.0</ele><time>2026-05-02T08:40:31.351Z</time></trkpt><trkpt lat="43.404105" lon="11.4603092"><ele>456.0</ele><time>2026-05-02T08:40:32.35Z</time></trkpt><trkpt lat="43.4041157" lon="11.4601661"><ele>456.0</ele><time>2026-05-02T08:40:33.349Z</time></trkpt><trkpt lat="43.4041352" lon="11.4600456"><ele>456.0</ele><time>2026-05-02T08:40:34.351Z</time></trkpt><trkpt lat="43.4041504" lon="11.4599521"><ele>456.0</ele><time>2026-05-02T08:40:35.349Z</time></trkpt><trkpt lat="43.404162" lon="11.4598612"><ele>456.0</ele><time>2026-05-02T08:40:36.345Z</time></trkpt><trkpt lat="43.4041763" lon="11.4597679"><ele>456.0</ele><time>2026-05-02T08:40:37.369Z</time></trkpt><trkpt lat="43.4042015" lon="11.4596703"><ele>455.8333333333333</ele><time>2026-05-02T08:40:38.346Z</time></trkpt><trkpt lat="43.404229" lon="11.4595725"><ele>455.66666666666663</ele><time>2026-05-02T08:40:39.346Z</time></trkpt><trkpt lat="43.4042715" lon="11.4594728"><ele>455.5</ele><time>2026-05-02T08:40:40.365Z</time></trkpt><trkpt lat="43.4043154" lon="11.4593787"><ele>455.3333333333333</ele><time>2026-05-02T08:40:41.339Z</time></trkpt><trkpt lat="43.4043659" lon="11.4592845"><ele>455.16666666666663</ele><time>2026-05-02T08:40:42.366Z</time></trkpt><trkpt lat="43.4044233" lon="11.4591931"><ele>455.0</ele><time>2026-05-02T08:40:43.368Z</time></trkpt><trkpt lat="43.4044817" lon="11.4591019"><ele>454.99999999999994</ele><time>2026-05-02T08:40:44.357Z</time></trkpt><trkpt lat="43.404547" lon="11.4590111"><ele>455.0</ele><time>2026-05-02T08:40:45.349Z</time></trkpt><trkpt lat="43.404608" lon="11.458927"><ele>455.0</ele><time>2026-05-02T08:40:46.356Z</time></trkpt><trkpt lat="43.404666" lon="11.4588432"><ele>455.0</ele><time>2026-05-02T08:40:47.349Z</time></trkpt><trkpt lat="43.4047207" lon="11.4587539"><ele>454.99999999999994</ele><time>2026-05-02T08:40:48.35Z</time></trkpt><trkpt lat="43.4047629" lon="11.4586517"><ele>455.0</ele><time>2026-05-02T08:40:49.343Z</time></trkpt><trkpt lat="43.4047959" lon="11.4585459"><ele>454.2</ele><time>2026-05-02T08:40:50.346Z</time></trkpt><trkpt lat="43.4048197" lon="11.4584376"><ele>453.4</ele><time>2026-05-02T08:40:51.361Z</time></trkpt><trkpt lat="43.4048439" lon="11.4583346"><ele>452.6</ele><time>2026-05-02T08:40:52.362Z</time></trkpt><trkpt lat="43.4048753" lon="11.4582506"><ele>451.8</ele><time>2026-05-02T08:40:53.353Z</time></trkpt><trkpt lat="43.4049516" lon="11.4581144"><ele>451.0</ele><time>2026-05-02T08:40:55.358Z</time></trkpt><trkpt lat="43.4050132" lon="11.457959"><ele>449.6666666666667</ele><time>2026-05-02T08:40:57.359Z</time></trkpt><trkpt lat="43.4050242" lon="11.4578573"><ele>448.33333333333337</ele><time>2026-05-02T08:40:58.342Z</time></trkpt><trkpt lat="43.4050322" lon="11.4577488"><ele>447.0</ele><time>2026-05-02T08:40:59.357Z</time></trkpt><trkpt lat="43.4050253" lon="11.4576349"><ele>445.66666666666663</ele><time>2026-05-02T08:41:00.361Z</time></trkpt><trkpt lat="43.4050188" lon="11.4575139"><ele>444.3333333333333</ele><time>2026-05-02T08:41:01.348Z</time></trkpt><trkpt lat="43.4050085" lon="11.4573961"><ele>443.0</ele><time>2026-05-02T08:41:02.359Z</time></trkpt><trkpt lat="43.4049928" lon="11.4572776"><ele>442.99999999999994</ele><time>2026-05-02T08:41:03.367Z</time></trkpt><trkpt lat="43.4049755" lon="11.4571622"><ele>443.0</ele><time>2026-05-02T08:41:04.348Z</time></trkpt><trkpt lat="43.4049533" lon="11.4570473"><ele>443.0</ele><time>2026-05-02T08:41:05.365Z</time></trkpt><trkpt lat="43.4049262" lon="11.4569389"><ele>443.0</ele><time>2026-05-02T08:41:06.351Z</time></trkpt><trkpt lat="43.4048857" lon="11.4568385"><ele>442.99999999999994</ele><time>2026-05-02T08:41:07.352Z</time></trkpt><trkpt lat="43.4048526" lon="11.4567462"><ele>443.0</ele><time>2026-05-02T08:41:08.351Z</time></trkpt><trkpt lat="43.404811" lon="11.4565947"><ele>441.59999999999997</ele><time>2026-05-02T08:41:10.352Z</time></trkpt><trkpt lat="43.4048227" lon="11.4564536"><ele>440.19999999999993</ele><time>2026-05-02T08:41:12.346Z</time></trkpt><trkpt lat="43.4049179" lon="11.456364"><ele>438.8</ele><time>2026-05-02T08:41:14.352Z</time></trkpt><trkpt lat="43.405054" lon="11.45637"><ele>437.4</ele><time>2026-05-02T08:41:16.347Z</time></trkpt><trkpt lat="43.4051296" lon="11.4563837"><ele>436.0</ele><time>2026-05-02T08:41:17.341Z</time></trkpt><trkpt lat="43.405213" lon="11.4563941"><ele>436.0</ele><time>2026-05-02T08:41:18.345Z</time></trkpt><trkpt lat="43.4052927" lon="11.4564024"><ele>436.0</ele><time>2026-05-02T08:41:19.358Z</time></trkpt><trkpt lat="43.4053669" lon="11.4564075"><ele>436.0</ele><time>2026-05-02T08:41:20.349Z</time></trkpt><trkpt lat="43.4054378" lon="11.456418"><ele>436.0</ele><time>2026-05-02T08:41:21.374Z</time></trkpt><trkpt lat="43.4055087" lon="11.4564146"><ele>436.0</ele><time>2026-05-02T08:41:22.36Z</time></trkpt><trkpt lat="43.40558" lon="11.4564024"><ele>436.0</ele><time>2026-05-02T08:41:23.355Z</time></trkpt><trkpt lat="43.405651" lon="11.4563778"><ele>436.0</ele><time>2026-05-02T08:41:24.35Z</time></trkpt><trkpt lat="43.4057157" lon="11.4563282"><ele>434.33333333333337</ele><time>2026-05-02T08:41:25.352Z</time></trkpt><trkpt lat="43.4057818" lon="11.4562724"><ele>432.6666666666667</ele><time>2026-05-02T08:41:26.368Z</time></trkpt><trkpt lat="43.4058364" lon="11.4562009"><ele>431.0</ele><time>2026-05-02T08:41:27.357Z</time></trkpt><trkpt lat="43.4058847" lon="11.4561206"><ele>429.33333333333337</ele><time>2026-05-02T08:41:28.354Z</time></trkpt><trkpt lat="43.4059353" lon="11.456032"><ele>427.6666666666667</ele><time>2026-05-02T08:41:29.35Z</time></trkpt><trkpt lat="43.4059795" lon="11.4559418"><ele>426.0</ele><time>2026-05-02T08:41:30.356Z</time></trkpt><trkpt lat="43.4060123" lon="11.455844"><ele>426.0</ele><time>2026-05-02T08:41:31.349Z</time></trkpt><trkpt lat="43.4060359" lon="11.4557371"><ele>426.0</ele><time>2026-05-02T08:41:32.351Z</time></trkpt><trkpt lat="43.406053" lon="11.4556319"><ele>426.0</ele><time>2026-05-02T08:41:33.345Z</time></trkpt><trkpt lat="43.4060618" lon="11.4555247"><ele>426.0</ele><time>2026-05-02T08:41:34.357Z</time></trkpt><trkpt lat="43.4060796" lon="11.4554089"><ele>426.0</ele><time>2026-05-02T08:41:35.351Z</time></trkpt><trkpt lat="43.4061068" lon="11.4552876"><ele>426.0</ele><time>2026-05-02T08:41:36.344Z</time></trkpt><trkpt lat="43.4061351" lon="11.4551661"><ele>425.3333333333333</ele><time>2026-05-02T08:41:37.344Z</time></trkpt><trkpt lat="43.4061624" lon="11.4550421"><ele>424.66666666666663</ele><time>2026-05-02T08:41:38.36Z</time></trkpt><trkpt lat="43.4061918" lon="11.4549247"><ele>424.0</ele><time>2026-05-02T08:41:39.344Z</time></trkpt><trkpt lat="43.4062235" lon="11.4548147"><ele>423.3333333333333</ele><time>2026-05-02T08:41:40.36Z</time></trkpt><trkpt lat="43.4062592" lon="11.4547131"><ele>422.66666666666663</ele><time>2026-05-02T08:41:41.352Z</time></trkpt><trkpt lat="43.406308" lon="11.4546266"><ele>422.0</ele><time>2026-05-02T08:41:42.358Z</time></trkpt><trkpt lat="43.4063626" lon="11.4545434"><ele>420.0</ele><time>2026-05-02T08:41:43.344Z</time></trkpt><trkpt lat="43.4064141" lon="11.4544464"><ele>418.0</ele><time>2026-05-02T08:41:44.353Z</time></trkpt><trkpt lat="43.4064628" lon="11.4543253"><ele>416.0</ele><time>2026-05-02T08:41:45.354Z</time></trkpt><trkpt lat="43.4065088" lon="11.4541931"><ele>414.0</ele><time>2026-05-02T08:41:46.355Z</time></trkpt><trkpt lat="43.406544" lon="11.4540544"><ele>412.0</ele><time>2026-05-02T08:41:47.346Z</time></trkpt><trkpt lat="43.4065676" lon="11.4539154"><ele>412.00000000000006</ele><time>2026-05-02T08:41:48.362Z</time></trkpt><trkpt lat="43.4065691" lon="11.4537874"><ele>412.0</ele><time>2026-05-02T08:41:49.346Z</time></trkpt><trkpt lat="43.406553" lon="11.4536795"><ele>412.0</ele><time>2026-05-02T08:41:50.339Z</time></trkpt><trkpt lat="43.4065329" lon="11.4535811"><ele>412.0</ele><time>2026-05-02T08:41:51.337Z</time></trkpt><trkpt lat="43.4065058" lon="11.4534977"><ele>412.00000000000006</ele><time>2026-05-02T08:41:52.352Z</time></trkpt><trkpt lat="43.4064822" lon="11.4534058"><ele>412.0</ele><time>2026-05-02T08:41:53.35Z</time></trkpt><trkpt lat="43.4064606" lon="11.4533051"><ele>412.00000000000006</ele><time>2026-05-02T08:41:54.352Z</time></trkpt><trkpt lat="43.406448" lon="11.4531906"><ele>412.0</ele><time>2026-05-02T08:41:55.343Z</time></trkpt><trkpt lat="43.4064459" lon="11.453077"><ele>412.0</ele><time>2026-05-02T08:41:56.352Z</time></trkpt><trkpt lat="43.4064631" lon="11.4529559"><ele>412.0</ele><time>2026-05-02T08:41:57.368Z</time></trkpt><trkpt lat="43.4064917" lon="11.4528358"><ele>412.00000000000006</ele><time>2026-05-02T08:41:58.35Z</time></trkpt><trkpt lat="43.4065068" lon="11.452725"><ele>412.0</ele><time>2026-05-02T08:41:59.35Z</time></trkpt><trkpt lat="43.4065161" lon="11.4526107"><ele>411.40000000000003</ele><time>2026-05-02T08:42:00.356Z</time></trkpt><trkpt lat="43.4065243" lon="11.4524966"><ele>410.8</ele><time>2026-05-02T08:42:01.364Z</time></trkpt><trkpt lat="43.4065337" lon="11.4523708"><ele>410.2</ele><time>2026-05-02T08:42:02.355Z</time></trkpt><trkpt lat="43.4065325" lon="11.4522474"><ele>409.6</ele><time>2026-05-02T08:42:03.345Z</time></trkpt><trkpt lat="43.4065193" lon="11.4521174"><ele>409.0</ele><time>2026-05-02T08:42:04.366Z</time></trkpt><trkpt lat="43.4064933" lon="11.4519887"><ele>409.5</ele><time>2026-05-02T08:42:05.353Z</time></trkpt><trkpt lat="43.4064533" lon="11.451858"><ele>410.0</ele><time>2026-05-02T08:42:06.363Z</time></trkpt><trkpt lat="43.4064039" lon="11.4517297"><ele>410.5</ele><time>2026-05-02T08:42:07.361Z</time></trkpt><trkpt lat="43.4063403" lon="11.4515931"><ele>411.0</ele><time>2026-05-02T08:42:08.359Z</time></trkpt><trkpt lat="43.4062674" lon="11.4514535"><ele>411.0</ele><time>2026-05-02T08:42:09.363Z</time></trkpt><trkpt lat="43.4061944" lon="11.4513274"><ele>411.0</ele><time>2026-05-02T08:42:10.355Z</time></trkpt><trkpt lat="43.4061301" lon="11.4512136"><ele>411.0</ele><time>2026-05-02T08:42:11.35Z</time></trkpt><trkpt lat="43.4060761" lon="11.451104"><ele>411.0</ele><time>2026-05-02T08:42:12.341Z</time></trkpt><trkpt lat="43.4060258" lon="11.4509847"><ele>411.0</ele><time>2026-05-02T08:42:13.356Z</time></trkpt><trkpt lat="43.4059803" lon="11.4508569"><ele>411.0</ele><time>2026-05-02T08:42:14.348Z</time></trkpt><trkpt lat="43.4059419" lon="11.450728"><ele>411.0</ele><time>2026-05-02T08:42:15.35Z</time></trkpt><trkpt lat="43.4059046" lon="11.4505881"><ele>411.0</ele><time>2026-05-02T08:42:16.36Z</time></trkpt><trkpt lat="43.4058674" lon="11.4504459"><ele>411.0</ele><time>2026-05-02T08:42:17.351Z</time></trkpt><trkpt lat="43.4058244" lon="11.4503079"><ele>411.0</ele><time>2026-05-02T08:42:18.349Z</time></trkpt><trkpt lat="43.4057735" lon="11.4501734"><ele>410.4</ele><time>2026-05-02T08:42:19.355Z</time></trkpt><trkpt lat="43.4057188" lon="11.4500435"><ele>409.8</ele><time>2026-05-02T08:42:20.349Z</time></trkpt><trkpt lat="43.4056622" lon="11.4499197"><ele>409.2</ele><time>2026-05-02T08:42:21.348Z</time></trkpt><trkpt lat="43.4056066" lon="11.4497972"><ele>408.59999999999997</ele><time>2026-05-02T08:42:22.347Z</time></trkpt><trkpt lat="43.4055509" lon="11.4496897"><ele>408.0</ele><time>2026-05-02T08:42:23.365Z</time></trkpt><trkpt lat="43.4054933" lon="11.4495923"><ele>406.8333333333333</ele><time>2026-05-02T08:42:24.352Z</time></trkpt><trkpt lat="43.405433" lon="11.4495002"><ele>405.66666666666663</ele><time>2026-05-02T08:42:25.359Z</time></trkpt><trkpt lat="43.4053758" lon="11.4494116"><ele>404.5</ele><time>2026-05-02T08:42:26.36Z</time></trkpt><trkpt lat="43.4053213" lon="11.4493114"><ele>403.3333333333333</ele><time>2026-05-02T08:42:27.346Z</time></trkpt><trkpt lat="43.4052662" lon="11.4492112"><ele>402.16666666666663</ele><time>2026-05-02T08:42:28.353Z</time></trkpt><trkpt lat="43.4052115" lon="11.4491114"><ele>401.0</ele><time>2026-05-02T08:42:29.34Z</time></trkpt><trkpt lat="43.4051543" lon="11.449014"><ele>401.0</ele><time>2026-05-02T08:42:30.353Z</time></trkpt><trkpt lat="43.4051036" lon="11.4489364"><ele>401.0</ele><time>2026-05-02T08:42:31.354Z</time></trkpt><trkpt lat="43.4050335" lon="11.4488141"><ele>401.0</ele><time>2026-05-02T08:42:33.345Z</time></trkpt><trkpt lat="43.4049672" lon="11.4487109"><ele>401.0</ele><time>2026-05-02T08:42:35.349Z</time></trkpt><trkpt lat="43.4049154" lon="11.4486612"><ele>401.0</ele><time>2026-05-02T08:42:38.358Z</time></trkpt><trkpt lat="43.4048156" lon="11.4485798"><ele>400.6</ele><time>2026-05-02T08:42:41.353Z</time></trkpt><trkpt lat="43.4047157" lon="11.4484568"><ele>400.20000000000005</ele><time>2026-05-02T08:42:43.36Z</time></trkpt><trkpt lat="43.4046507" lon="11.4483965"><ele>399.79999999999995</ele><time>2026-05-02T08:42:44.356Z</time></trkpt><trkpt lat="43.4045688" lon="11.4483294"><ele>399.4</ele><time>2026-05-02T08:42:45.344Z</time></trkpt><trkpt lat="43.4044805" lon="11.4482717"><ele>399.0</ele><time>2026-05-02T08:42:46.353Z</time></trkpt><trkpt lat="43.4043956" lon="11.4482065"><ele>398.75</ele><time>2026-05-02T08:42:47.355Z</time></trkpt><trkpt lat="43.4042942" lon="11.4481309"><ele>398.5</ele><time>2026-05-02T08:42:48.358Z</time></trkpt><trkpt lat="43.4041805" lon="11.4480431"><ele>398.25</ele><time>2026-05-02T08:42:49.356Z</time></trkpt><trkpt lat="43.4040646" lon="11.4479583"><ele>398.0</ele><time>2026-05-02T08:42:50.368Z</time></trkpt><trkpt lat="43.4039413" lon="11.4478836"><ele>398.25</ele><time>2026-05-02T08:42:51.36Z</time></trkpt><trkpt lat="43.4038139" lon="11.4478193"><ele>398.5</ele><time>2026-05-02T08:42:52.346Z</time></trkpt><trkpt lat="43.4036773" lon="11.4477696"><ele>398.75</ele><time>2026-05-02T08:42:53.368Z</time></trkpt><trkpt lat="43.4035411" lon="11.4477094"><ele>399.0</ele><time>2026-05-02T08:42:54.361Z</time></trkpt><trkpt lat="43.4034086" lon="11.4476502"><ele>399.0</ele><time>2026-05-02T08:42:55.347Z</time></trkpt><trkpt lat="43.4032772" lon="11.447577"><ele>399.0</ele><time>2026-05-02T08:42:56.357Z</time></trkpt><trkpt lat="43.4031456" lon="11.4475144"><ele>399.0</ele><time>2026-05-02T08:42:57.355Z</time></trkpt><trkpt lat="43.4030138" lon="11.4474429"><ele>399.0</ele><time>2026-05-02T08:42:58.347Z</time></trkpt><trkpt lat="43.4028854" lon="11.4473638"><ele>399.0</ele><time>2026-05-02T08:42:59.374Z</time></trkpt><trkpt lat="43.4027586" lon="11.4472898"><ele>399.0</ele><time>2026-05-02T08:43:00.354Z</time></trkpt><trkpt lat="43.4026315" lon="11.4472161"><ele>399.0</ele><time>2026-05-02T08:43:01.352Z</time></trkpt><trkpt lat="43.4024999" lon="11.4471437"><ele>399.0</ele><time>2026-05-02T08:43:02.354Z</time></trkpt><trkpt lat="43.4023744" lon="11.4470669"><ele>399.0</ele><time>2026-05-02T08:43:03.357Z</time></trkpt><trkpt lat="43.4022535" lon="11.4469839"><ele>399.0</ele><time>2026-05-02T08:43:04.355Z</time></trkpt><trkpt lat="43.4021385" lon="11.4469028"><ele>399.0</ele><time>2026-05-02T08:43:05.358Z</time></trkpt><trkpt lat="43.4020324" lon="11.4468202"><ele>399.0</ele><time>2026-05-02T08:43:06.348Z</time></trkpt><trkpt lat="43.4019273" lon="11.4467329"><ele>396.75</ele><time>2026-05-02T08:43:07.366Z</time></trkpt><trkpt lat="43.4018325" lon="11.4466246"><ele>394.5</ele><time>2026-05-02T08:43:08.351Z</time></trkpt><trkpt lat="43.4017393" lon="11.446509"><ele>392.25</ele><time>2026-05-02T08:43:09.357Z</time></trkpt><trkpt lat="43.4016427" lon="11.4463887"><ele>390.0</ele><time>2026-05-02T08:43:10.369Z</time></trkpt><trkpt lat="43.4015407" lon="11.4462685"><ele>390.0</ele><time>2026-05-02T08:43:11.362Z</time></trkpt><trkpt lat="43.4014474" lon="11.4461348"><ele>390.0</ele><time>2026-05-02T08:43:12.352Z</time></trkpt><trkpt lat="43.4013545" lon="11.4459872"><ele>390.0</ele><time>2026-05-02T08:43:13.35Z</time></trkpt><trkpt lat="43.4012612" lon="11.4458391"><ele>390.0</ele><time>2026-05-02T08:43:14.372Z</time></trkpt><trkpt lat="43.4011737" lon="11.445691"><ele>388.25</ele><time>2026-05-02T08:43:15.359Z</time></trkpt><trkpt lat="43.4010869" lon="11.4455394"><ele>386.5</ele><time>2026-05-02T08:43:16.366Z</time></trkpt><trkpt lat="43.4010002" lon="11.4454042"><ele>384.75</ele><time>2026-05-02T08:43:17.349Z</time></trkpt><trkpt lat="43.4009055" lon="11.4452738"><ele>383.0</ele><time>2026-05-02T08:43:18.361Z</time></trkpt><trkpt lat="43.4008041" lon="11.4451434"><ele>382.75</ele><time>2026-05-02T08:43:19.355Z</time></trkpt><trkpt lat="43.4007035" lon="11.4450083"><ele>382.5</ele><time>2026-05-02T08:43:20.347Z</time></trkpt><trkpt lat="43.4005965" lon="11.4448698"><ele>382.25</ele><time>2026-05-02T08:43:21.365Z</time></trkpt><trkpt lat="43.400488" lon="11.4447335"><ele>382.0</ele><time>2026-05-02T08:43:22.352Z</time></trkpt><trkpt lat="43.4003879" lon="11.4445965"><ele>380.75</ele><time>2026-05-02T08:43:23.358Z</time></trkpt><trkpt lat="43.4002876" lon="11.4444621"><ele>379.5</ele><time>2026-05-02T08:43:24.354Z</time></trkpt><trkpt lat="43.4001885" lon="11.4443238"><ele>378.25</ele><time>2026-05-02T08:43:25.349Z</time></trkpt><trkpt lat="43.4000863" lon="11.4441854"><ele>377.0</ele><time>2026-05-02T08:43:26.346Z</time></trkpt><trkpt lat="43.399984" lon="11.4440488"><ele>377.0</ele><time>2026-05-02T08:43:27.355Z</time></trkpt><trkpt lat="43.3998776" lon="11.4439194"><ele>377.0</ele><time>2026-05-02T08:43:28.357Z</time></trkpt><trkpt lat="43.3997641" lon="11.4438018"><ele>377.0</ele><time>2026-05-02T08:43:29.35Z</time></trkpt><trkpt lat="43.3996382" lon="11.4437132"><ele>377.0</ele><time>2026-05-02T08:43:30.352Z</time></trkpt><trkpt lat="43.3995053" lon="11.443652"><ele>376.75</ele><time>2026-05-02T08:43:31.354Z</time></trkpt><trkpt lat="43.3993837" lon="11.4436017"><ele>376.5</ele><time>2026-05-02T08:43:32.345Z</time></trkpt><trkpt lat="43.3992644" lon="11.4435486"><ele>376.25</ele><time>2026-05-02T08:43:33.355Z</time></trkpt><trkpt lat="43.3991434" lon="11.4435022"><ele>376.0</ele><time>2026-05-02T08:43:34.345Z</time></trkpt><trkpt lat="43.3990183" lon="11.4434795"><ele>376.0</ele><time>2026-05-02T08:43:35.353Z</time></trkpt><trkpt lat="43.3988881" lon="11.4434826"><ele>376.0</ele><time>2026-05-02T08:43:36.342Z</time></trkpt><trkpt lat="43.3987652" lon="11.4434985"><ele>376.0</ele><time>2026-05-02T08:43:37.354Z</time></trkpt><trkpt lat="43.3986329" lon="11.4435215"><ele>376.0</ele><time>2026-05-02T08:43:38.358Z</time></trkpt><trkpt lat="43.3984924" lon="11.4435454"><ele>376.0</ele><time>2026-05-02T08:43:39.34Z</time></trkpt><trkpt lat="43.3983624" lon="11.4435707"><ele>376.0</ele><time>2026-05-02T08:43:40.352Z</time></trkpt><trkpt lat="43.3982352" lon="11.4435946"><ele>376.0</ele><time>2026-05-02T08:43:41.358Z</time></trkpt><trkpt lat="43.3981124" lon="11.4436149"><ele>376.0</ele><time>2026-05-02T08:43:42.358Z</time></trkpt><trkpt lat="43.3979912" lon="11.4436375"><ele>375.25</ele><time>2026-05-02T08:43:43.348Z</time></trkpt><trkpt lat="43.3978643" lon="11.4436355"><ele>374.5</ele><time>2026-05-02T08:43:44.354Z</time></trkpt><trkpt lat="43.3977401" lon="11.4436047"><ele>373.75</ele><time>2026-05-02T08:43:45.346Z</time></trkpt><trkpt lat="43.3976191" lon="11.4435541"><ele>373.0</ele><time>2026-05-02T08:43:46.36Z</time></trkpt><trkpt lat="43.3974926" lon="11.4434987"><ele>373.0</ele><time>2026-05-02T08:43:47.352Z</time></trkpt><trkpt lat="43.397357" lon="11.4434433"><ele>373.0</ele><time>2026-05-02T08:43:48.354Z</time></trkpt><trkpt lat="43.3972138" lon="11.4433959"><ele>373.0</ele><time>2026-05-02T08:43:49.359Z</time></trkpt><trkpt lat="43.3970739" lon="11.4433435"><ele>373.0</ele><time>2026-05-02T08:43:50.356Z</time></trkpt><trkpt lat="43.3969192" lon="11.4432969"><ele>372.3333333333333</ele><time>2026-05-02T08:43:51.352Z</time></trkpt><trkpt lat="43.3967538" lon="11.4432415"><ele>371.6666666666667</ele><time>2026-05-02T08:43:52.37Z</time></trkpt><trkpt lat="43.3965671" lon="11.443173"><ele>371.0</ele><time>2026-05-02T08:43:53.356Z</time></trkpt><trkpt lat="43.3963675" lon="11.4430863"><ele>369.6666666666667</ele><time>2026-05-02T08:43:54.358Z</time></trkpt><trkpt lat="43.3961711" lon="11.4429985"><ele>368.3333333333333</ele><time>2026-05-02T08:43:55.354Z</time></trkpt><trkpt lat="43.395988" lon="11.4429228"><ele>367.0</ele><time>2026-05-02T08:43:56.357Z</time></trkpt><trkpt lat="43.3958274" lon="11.4428616"><ele>367.0</ele><time>2026-05-02T08:43:57.358Z</time></trkpt><trkpt lat="43.3956863" lon="11.4428088"><ele>367.0</ele><time>2026-05-02T08:43:58.35Z</time></trkpt><trkpt lat="43.3955617" lon="11.4427648"><ele>367.0</ele><time>2026-05-02T08:43:59.351Z</time></trkpt><trkpt lat="43.3954425" lon="11.4427285"><ele>367.0</ele><time>2026-05-02T08:44:00.347Z</time></trkpt><trkpt lat="43.3953249" lon="11.4427002"><ele>367.25</ele><time>2026-05-02T08:44:01.353Z</time></trkpt><trkpt lat="43.3952065" lon="11.4426881"><ele>367.5</ele><time>2026-05-02T08:44:02.349Z</time></trkpt><trkpt lat="43.3950817" lon="11.4426956"><ele>367.75</ele><time>2026-05-02T08:44:03.356Z</time></trkpt><trkpt lat="43.3949592" lon="11.4427045"><ele>368.0</ele><time>2026-05-02T08:44:04.354Z</time></trkpt><trkpt lat="43.3948362" lon="11.4427138"><ele>368.0</ele><time>2026-05-02T08:44:05.351Z</time></trkpt><trkpt lat="43.3947195" lon="11.442717"><ele>368.0</ele><time>2026-05-02T08:44:06.345Z</time></trkpt><trkpt lat="43.3946045" lon="11.4427191"><ele>368.0</ele><time>2026-05-02T08:44:07.349Z</time></trkpt><trkpt lat="43.3944887" lon="11.4427128"><ele>368.0</ele><time>2026-05-02T08:44:08.35Z</time></trkpt><trkpt lat="43.3943638" lon="11.4427025"><ele>368.0</ele><time>2026-05-02T08:44:09.349Z</time></trkpt><trkpt lat="43.394238" lon="11.4426926"><ele>368.0</ele><time>2026-05-02T08:44:10.367Z</time></trkpt><trkpt lat="43.3941111" lon="11.4426739"><ele>368.0</ele><time>2026-05-02T08:44:11.341Z</time></trkpt><trkpt lat="43.3939889" lon="11.4426564"><ele>368.0</ele><time>2026-05-02T08:44:12.345Z</time></trkpt><trkpt lat="43.3938693" lon="11.4426353"><ele>368.0</ele><time>2026-05-02T08:44:13.364Z</time></trkpt><trkpt lat="43.393753" lon="11.4426144"><ele>368.0</ele><time>2026-05-02T08:44:14.349Z</time></trkpt><trkpt lat="43.393638" lon="11.4425902"><ele>368.0</ele><time>2026-05-02T08:44:15.347Z</time></trkpt><trkpt lat="43.3935225" lon="11.4425523"><ele>368.0</ele><time>2026-05-02T08:44:16.354Z</time></trkpt><trkpt lat="43.3934024" lon="11.4424941"><ele>368.0</ele><time>2026-05-02T08:44:17.365Z</time></trkpt><trkpt lat="43.3932834" lon="11.4424325"><ele>368.0</ele><time>2026-05-02T08:44:18.355Z</time></trkpt><trkpt lat="43.3931613" lon="11.4423724"><ele>368.0</ele><time>2026-05-02T08:44:19.351Z</time></trkpt><trkpt lat="43.3930307" lon="11.44233"><ele>368.0</ele><time>2026-05-02T08:44:20.356Z</time></trkpt><trkpt lat="43.392896" lon="11.4423103"><ele>368.25</ele><time>2026-05-02T08:44:21.356Z</time></trkpt><trkpt lat="43.3927653" lon="11.4423128"><ele>368.5</ele><time>2026-05-02T08:44:22.357Z</time></trkpt><trkpt lat="43.3926348" lon="11.4423422"><ele>368.75</ele><time>2026-05-02T08:44:23.351Z</time></trkpt><trkpt lat="43.392507" lon="11.4423794"><ele>369.0</ele><time>2026-05-02T08:44:24.356Z</time></trkpt><trkpt lat="43.3923815" lon="11.4424319"><ele>369.0</ele><time>2026-05-02T08:44:25.351Z</time></trkpt><trkpt lat="43.3922609" lon="11.4425005"><ele>369.0</ele><time>2026-05-02T08:44:26.356Z</time></trkpt><trkpt lat="43.3921454" lon="11.4425722"><ele>369.0</ele><time>2026-05-02T08:44:27.349Z</time></trkpt><trkpt lat="43.3920289" lon="11.4426522"><ele>369.0</ele><time>2026-05-02T08:44:28.354Z</time></trkpt><trkpt lat="43.3919161" lon="11.4427281"><ele>368.25</ele><time>2026-05-02T08:44:29.349Z</time></trkpt><trkpt lat="43.3918007" lon="11.4427948"><ele>367.5</ele><time>2026-05-02T08:44:30.353Z</time></trkpt><trkpt lat="43.391682" lon="11.4428361"><ele>366.75</ele><time>2026-05-02T08:44:31.355Z</time></trkpt><trkpt lat="43.3915748" lon="11.4428564"><ele>366.0</ele><time>2026-05-02T08:44:32.349Z</time></trkpt><trkpt lat="43.3914782" lon="11.4428552"><ele>366.0</ele><time>2026-05-02T08:44:33.346Z</time></trkpt><trkpt lat="43.3913838" lon="11.4428518"><ele>366.0</ele><time>2026-05-02T08:44:34.35Z</time></trkpt><trkpt lat="43.3912915" lon="11.4428582"><ele>366.0</ele><time>2026-05-02T08:44:35.354Z</time></trkpt><trkpt lat="43.3911905" lon="11.4428699"><ele>366.0</ele><time>2026-05-02T08:44:36.344Z</time></trkpt><trkpt lat="43.3910858" lon="11.442885"><ele>366.0</ele><time>2026-05-02T08:44:37.357Z</time></trkpt><trkpt lat="43.3909771" lon="11.4429039"><ele>365.8</ele><time>2026-05-02T08:44:38.347Z</time></trkpt><trkpt lat="43.3908744" lon="11.4429181"><ele>365.6</ele><time>2026-05-02T08:44:39.353Z</time></trkpt><trkpt lat="43.39077" lon="11.4429408"><ele>365.4</ele><time>2026-05-02T08:44:40.372Z</time></trkpt><trkpt lat="43.3906628" lon="11.4429565"><ele>365.2</ele><time>2026-05-02T08:44:41.345Z</time></trkpt><trkpt lat="43.390549" lon="11.442964"><ele>365.0</ele><time>2026-05-02T08:44:42.352Z</time></trkpt><trkpt lat="43.3904326" lon="11.4429538"><ele>365.0</ele><time>2026-05-02T08:44:43.347Z</time></trkpt><trkpt lat="43.3903126" lon="11.4429342"><ele>365.0</ele><time>2026-05-02T08:44:44.354Z</time></trkpt><trkpt lat="43.3901874" lon="11.4429179"><ele>365.0</ele><time>2026-05-02T08:44:45.354Z</time></trkpt><trkpt lat="43.3900624" lon="11.4428979"><ele>365.0</ele><time>2026-05-02T08:44:46.346Z</time></trkpt><trkpt lat="43.3899394" lon="11.4428516"><ele>365.0</ele><time>2026-05-02T08:44:47.361Z</time></trkpt><trkpt lat="43.3898337" lon="11.4427768"><ele>365.0</ele><time>2026-05-02T08:44:48.348Z</time></trkpt><trkpt lat="43.3897571" lon="11.4426639"><ele>365.0</ele><time>2026-05-02T08:44:49.35Z</time></trkpt><trkpt lat="43.3897029" lon="11.4425229"><ele>365.0</ele><time>2026-05-02T08:44:50.362Z</time></trkpt><trkpt lat="43.3896522" lon="11.4423756"><ele>363.0</ele><time>2026-05-02T08:44:51.363Z</time></trkpt><trkpt lat="43.3895908" lon="11.4422338"><ele>361.0</ele><time>2026-05-02T08:44:52.363Z</time></trkpt><trkpt lat="43.3895173" lon="11.4421053"><ele>359.0</ele><time>2026-05-02T08:44:53.365Z</time></trkpt><trkpt lat="43.3894308" lon="11.4419753"><ele>357.0</ele><time>2026-05-02T08:44:54.346Z</time></trkpt><trkpt lat="43.3893387" lon="11.441839"><ele>357.0</ele><time>2026-05-02T08:44:55.338Z</time></trkpt><trkpt lat="43.3892523" lon="11.4417043"><ele>357.0</ele><time>2026-05-02T08:44:56.351Z</time></trkpt><trkpt lat="43.389162" lon="11.4415707"><ele>357.0</ele><time>2026-05-02T08:44:57.359Z</time></trkpt><trkpt lat="43.3890696" lon="11.4414272"><ele>357.0</ele><time>2026-05-02T08:44:58.35Z</time></trkpt><trkpt lat="43.3889806" lon="11.4412849"><ele>356.25</ele><time>2026-05-02T08:44:59.355Z</time></trkpt><trkpt lat="43.3888823" lon="11.4411416"><ele>355.5</ele><time>2026-05-02T08:45:00.348Z</time></trkpt><trkpt lat="43.3887822" lon="11.4410061"><ele>354.75</ele><time>2026-05-02T08:45:01.356Z</time></trkpt><trkpt lat="43.3886768" lon="11.4408797"><ele>354.0</ele><time>2026-05-02T08:45:02.355Z</time></trkpt><trkpt lat="43.388568" lon="11.4407662"><ele>354.0</ele><time>2026-05-02T08:45:03.363Z</time></trkpt><trkpt lat="43.3884607" lon="11.4406545"><ele>354.0</ele><time>2026-05-02T08:45:04.344Z</time></trkpt><trkpt lat="43.3883614" lon="11.4405312"><ele>354.0</ele><time>2026-05-02T08:45:05.355Z</time></trkpt><trkpt lat="43.3882657" lon="11.4403982"><ele>354.0</ele><time>2026-05-02T08:45:06.357Z</time></trkpt><trkpt lat="43.3881658" lon="11.44026"><ele>352.0</ele><time>2026-05-02T08:45:07.354Z</time></trkpt><trkpt lat="43.3880709" lon="11.4401243"><ele>350.0</ele><time>2026-05-02T08:45:08.352Z</time></trkpt><trkpt lat="43.3879817" lon="11.4399856"><ele>348.0</ele><time>2026-05-02T08:45:09.362Z</time></trkpt><trkpt lat="43.3879055" lon="11.4398419"><ele>346.0</ele><time>2026-05-02T08:45:10.342Z</time></trkpt><trkpt lat="43.3878315" lon="11.4396991"><ele>345.0</ele><time>2026-05-02T08:45:11.365Z</time></trkpt><trkpt lat="43.3877508" lon="11.4395578"><ele>344.0</ele><time>2026-05-02T08:45:12.346Z</time></trkpt><trkpt lat="43.3876705" lon="11.4394127"><ele>343.0</ele><time>2026-05-02T08:45:13.348Z</time></trkpt><trkpt lat="43.387582" lon="11.439266"><ele>342.0</ele><time>2026-05-02T08:45:14.351Z</time></trkpt><trkpt lat="43.3874919" lon="11.4391176"><ele>342.0</ele><time>2026-05-02T08:45:15.355Z</time></trkpt><trkpt lat="43.3873998" lon="11.4389762"><ele>342.0</ele><time>2026-05-02T08:45:16.341Z</time></trkpt><trkpt lat="43.387309" lon="11.438829"><ele>342.0</ele><time>2026-05-02T08:45:17.344Z</time></trkpt><trkpt lat="43.3872324" lon="11.4386822"><ele>342.0</ele><time>2026-05-02T08:45:18.349Z</time></trkpt><trkpt lat="43.3871614" lon="11.4385188"><ele>342.25</ele><time>2026-05-02T08:45:19.347Z</time></trkpt><trkpt lat="43.3871052" lon="11.4383479"><ele>342.5</ele><time>2026-05-02T08:45:20.356Z</time></trkpt><trkpt lat="43.387059" lon="11.4381704"><ele>342.75</ele><time>2026-05-02T08:45:21.345Z</time></trkpt><trkpt lat="43.3870131" lon="11.4379874"><ele>343.0</ele><time>2026-05-02T08:45:22.362Z</time></trkpt><trkpt lat="43.3869681" lon="11.4378131"><ele>343.25</ele><time>2026-05-02T08:45:23.347Z</time></trkpt><trkpt lat="43.3869216" lon="11.4376419"><ele>343.5</ele><time>2026-05-02T08:45:24.348Z</time></trkpt><trkpt lat="43.3868787" lon="11.4374665"><ele>343.75</ele><time>2026-05-02T08:45:25.356Z</time></trkpt><trkpt lat="43.3868301" lon="11.4372961"><ele>344.0</ele><time>2026-05-02T08:45:26.35Z</time></trkpt><trkpt lat="43.3867681" lon="11.4371479"><ele>342.0</ele><time>2026-05-02T08:45:27.36Z</time></trkpt><trkpt lat="43.38669" lon="11.4370162"><ele>340.0</ele><time>2026-05-02T08:45:28.345Z</time></trkpt><trkpt lat="43.3866002" lon="11.4368954"><ele>338.0</ele><time>2026-05-02T08:45:29.353Z</time></trkpt><trkpt lat="43.3865022" lon="11.4367886"><ele>336.0</ele><time>2026-05-02T08:45:30.353Z</time></trkpt><trkpt lat="43.3863991" lon="11.4366786"><ele>336.0</ele><time>2026-05-02T08:45:31.341Z</time></trkpt><trkpt lat="43.3862953" lon="11.4365663"><ele>336.0</ele><time>2026-05-02T08:45:32.346Z</time></trkpt><trkpt lat="43.3861874" lon="11.4364436"><ele>336.0</ele><time>2026-05-02T08:45:33.353Z</time></trkpt><trkpt lat="43.3860793" lon="11.436318"><ele>336.0</ele><time>2026-05-02T08:45:34.38Z</time></trkpt><trkpt lat="43.3859861" lon="11.4361872"><ele>336.0</ele><time>2026-05-02T08:45:35.353Z</time></trkpt><trkpt lat="43.3859022" lon="11.4360625"><ele>336.0</ele><time>2026-05-02T08:45:36.357Z</time></trkpt><trkpt lat="43.385817" lon="11.4359502"><ele>336.0</ele><time>2026-05-02T08:45:37.35Z</time></trkpt><trkpt lat="43.385726" lon="11.4358567"><ele>336.0</ele><time>2026-05-02T08:45:38.349Z</time></trkpt><trkpt lat="43.3856223" lon="11.4357727"><ele>334.75</ele><time>2026-05-02T08:45:39.35Z</time></trkpt><trkpt lat="43.38551" lon="11.4356897"><ele>333.5</ele><time>2026-05-02T08:45:40.348Z</time></trkpt><trkpt lat="43.3853981" lon="11.4356012"><ele>332.25</ele><time>2026-05-02T08:45:41.35Z</time></trkpt><trkpt lat="43.3852915" lon="11.4355164"><ele>331.0</ele><time>2026-05-02T08:45:42.353Z</time></trkpt><trkpt lat="43.3851826" lon="11.4354273"><ele>330.5</ele><time>2026-05-02T08:45:43.343Z</time></trkpt><trkpt lat="43.385072" lon="11.4353348"><ele>330.0</ele><time>2026-05-02T08:45:44.35Z</time></trkpt><trkpt lat="43.3849474" lon="11.4352568"><ele>329.5</ele><time>2026-05-02T08:45:45.362Z</time></trkpt><trkpt lat="43.3848133" lon="11.435204"><ele>329.0</ele><time>2026-05-02T08:45:46.355Z</time></trkpt><trkpt lat="43.3846748" lon="11.4351653"><ele>328.0</ele><time>2026-05-02T08:45:47.359Z</time></trkpt><trkpt lat="43.3845352" lon="11.4351364"><ele>327.0</ele><time>2026-05-02T08:45:48.344Z</time></trkpt><trkpt lat="43.3843936" lon="11.4351109"><ele>326.0</ele><time>2026-05-02T08:45:49.35Z</time></trkpt><trkpt lat="43.384252" lon="11.435078"><ele>325.0</ele><time>2026-05-02T08:45:50.352Z</time></trkpt><trkpt lat="43.3841113" lon="11.4350407"><ele>325.0</ele><time>2026-05-02T08:45:51.352Z</time></trkpt><trkpt lat="43.383977" lon="11.4350018"><ele>325.0</ele><time>2026-05-02T08:45:52.363Z</time></trkpt><trkpt lat="43.3838484" lon="11.4349604"><ele>325.0</ele><time>2026-05-02T08:45:53.35Z</time></trkpt><trkpt lat="43.3837167" lon="11.4349133"><ele>325.0</ele><time>2026-05-02T08:45:54.341Z</time></trkpt><trkpt lat="43.3835857" lon="11.4348568"><ele>324.75</ele><time>2026-05-02T08:45:55.358Z</time></trkpt><trkpt lat="43.3834672" lon="11.4347867"><ele>324.5</ele><time>2026-05-02T08:45:56.351Z</time></trkpt><trkpt lat="43.3833535" lon="11.4347066"><ele>324.25</ele><time>2026-05-02T08:45:57.364Z</time></trkpt><trkpt lat="43.3832463" lon="11.4346177"><ele>324.0</ele><time>2026-05-02T08:45:58.353Z</time></trkpt><trkpt lat="43.3831422" lon="11.4345241"><ele>324.75</ele><time>2026-05-02T08:45:59.358Z</time></trkpt><trkpt lat="43.3830393" lon="11.4344263"><ele>325.5</ele><time>2026-05-02T08:46:00.353Z</time></trkpt><trkpt lat="43.3829413" lon="11.4343305"><ele>326.25</ele><time>2026-05-02T08:46:01.346Z</time></trkpt><trkpt lat="43.3828378" lon="11.4342503"><ele>327.0</ele><time>2026-05-02T08:46:02.354Z</time></trkpt><trkpt lat="43.3827334" lon="11.4341884"><ele>327.0</ele><time>2026-05-02T08:46:03.347Z</time></trkpt><trkpt lat="43.3826235" lon="11.4341389"><ele>327.0</ele><time>2026-05-02T08:46:04.361Z</time></trkpt><trkpt lat="43.3825085" lon="11.4341032"><ele>327.0</ele><time>2026-05-02T08:46:05.36Z</time></trkpt><trkpt lat="43.3823927" lon="11.4340777"><ele>327.0</ele><time>2026-05-02T08:46:06.367Z</time></trkpt><trkpt lat="43.3822688" lon="11.4340513"><ele>326.5</ele><time>2026-05-02T08:46:07.348Z</time></trkpt><trkpt lat="43.3821444" lon="11.434026"><ele>326.0</ele><time>2026-05-02T08:46:08.355Z</time></trkpt><trkpt lat="43.382024" lon="11.4340138"><ele>325.5</ele><time>2026-05-02T08:46:09.346Z</time></trkpt><trkpt lat="43.3819063" lon="11.4340007"><ele>325.0</ele><time>2026-05-02T08:46:10.356Z</time></trkpt><trkpt lat="43.3817855" lon="11.433979"><ele>325.0</ele><time>2026-05-02T08:46:11.352Z</time></trkpt><trkpt lat="43.3816686" lon="11.4339352"><ele>325.0</ele><time>2026-05-02T08:46:12.357Z</time></trkpt><trkpt lat="43.3815495" lon="11.4338705"><ele>325.0</ele><time>2026-05-02T08:46:13.349Z</time></trkpt><trkpt lat="43.3814304" lon="11.4337951"><ele>325.0</ele><time>2026-05-02T08:46:14.353Z</time></trkpt><trkpt lat="43.3813089" lon="11.4337115"><ele>323.0</ele><time>2026-05-02T08:46:15.357Z</time></trkpt><trkpt lat="43.3811919" lon="11.4336281"><ele>321.0</ele><time>2026-05-02T08:46:16.356Z</time></trkpt><trkpt lat="43.3810765" lon="11.4335325"><ele>319.0</ele><time>2026-05-02T08:46:17.346Z</time></trkpt><trkpt lat="43.3809759" lon="11.4334194"><ele>317.0</ele><time>2026-05-02T08:46:18.357Z</time></trkpt><trkpt lat="43.38088" lon="11.4332971"><ele>317.0</ele><time>2026-05-02T08:46:19.351Z</time></trkpt><trkpt lat="43.3808021" lon="11.4331564"><ele>317.0</ele><time>2026-05-02T08:46:20.353Z</time></trkpt><trkpt lat="43.3807293" lon="11.433011"><ele>317.0</ele><time>2026-05-02T08:46:21.353Z</time></trkpt><trkpt lat="43.3806563" lon="11.4328783"><ele>317.0</ele><time>2026-05-02T08:46:22.345Z</time></trkpt><trkpt lat="43.3805707" lon="11.4327801"><ele>317.8</ele><time>2026-05-02T08:46:23.362Z</time></trkpt><trkpt lat="43.3804735" lon="11.4327242"><ele>318.6</ele><time>2026-05-02T08:46:24.341Z</time></trkpt><trkpt lat="43.3803779" lon="11.4326954"><ele>319.40000000000003</ele><time>2026-05-02T08:46:25.354Z</time></trkpt><trkpt lat="43.3802891" lon="11.432676"><ele>320.2</ele><time>2026-05-02T08:46:26.348Z</time></trkpt><trkpt lat="43.3802005" lon="11.4326591"><ele>321.0</ele><time>2026-05-02T08:46:27.354Z</time></trkpt><trkpt lat="43.380101" lon="11.4326397"><ele>321.0</ele><time>2026-05-02T08:46:28.373Z</time></trkpt><trkpt lat="43.3799945" lon="11.4326256"><ele>321.0</ele><time>2026-05-02T08:46:29.356Z</time></trkpt><trkpt lat="43.3798869" lon="11.4326093"><ele>321.0</ele><time>2026-05-02T08:46:30.348Z</time></trkpt><trkpt lat="43.3797709" lon="11.4325816"><ele>321.0</ele><time>2026-05-02T08:46:31.352Z</time></trkpt><trkpt lat="43.3796571" lon="11.4325411"><ele>320.25</ele><time>2026-05-02T08:46:32.347Z</time></trkpt><trkpt lat="43.3795418" lon="11.4324907"><ele>319.5</ele><time>2026-05-02T08:46:33.358Z</time></trkpt><trkpt lat="43.3794272" lon="11.4324348"><ele>318.75</ele><time>2026-05-02T08:46:34.348Z</time></trkpt><trkpt lat="43.37931" lon="11.4323763"><ele>318.0</ele><time>2026-05-02T08:46:35.357Z</time></trkpt><trkpt lat="43.3791919" lon="11.4323176"><ele>318.0</ele><time>2026-05-02T08:46:36.353Z</time></trkpt><trkpt lat="43.3790722" lon="11.4322641"><ele>318.0</ele><time>2026-05-02T08:46:37.362Z</time></trkpt><trkpt lat="43.3789471" lon="11.4322104"><ele>318.0</ele><time>2026-05-02T08:46:38.358Z</time></trkpt><trkpt lat="43.3788218" lon="11.4321545"><ele>318.0</ele><time>2026-05-02T08:46:39.353Z</time></trkpt><trkpt lat="43.3786952" lon="11.4320901"><ele>317.75</ele><time>2026-05-02T08:46:40.351Z</time></trkpt><trkpt lat="43.3785671" lon="11.4320224"><ele>317.5</ele><time>2026-05-02T08:46:41.351Z</time></trkpt><trkpt lat="43.3784375" lon="11.4319561"><ele>317.25</ele><time>2026-05-02T08:46:42.387Z</time></trkpt><trkpt lat="43.3783082" lon="11.4318899"><ele>317.0</ele><time>2026-05-02T08:46:43.353Z</time></trkpt><trkpt lat="43.3781852" lon="11.4318264"><ele>317.0</ele><time>2026-05-02T08:46:44.347Z</time></trkpt><trkpt lat="43.3780595" lon="11.4317648"><ele>317.0</ele><time>2026-05-02T08:46:45.353Z</time></trkpt><trkpt lat="43.3779349" lon="11.4317041"><ele>317.0</ele><time>2026-05-02T08:46:46.35Z</time></trkpt><trkpt lat="43.3778069" lon="11.4316412"><ele>317.0</ele><time>2026-05-02T08:46:47.389Z</time></trkpt><trkpt lat="43.3776731" lon="11.4315743"><ele>316.75</ele><time>2026-05-02T08:46:48.342Z</time></trkpt><trkpt lat="43.3775363" lon="11.4315069"><ele>316.5</ele><time>2026-05-02T08:46:49.342Z</time></trkpt><trkpt lat="43.3773999" lon="11.4314455"><ele>316.25</ele><time>2026-05-02T08:46:50.357Z</time></trkpt><trkpt lat="43.377263" lon="11.4314053"><ele>316.0</ele><time>2026-05-02T08:46:51.346Z</time></trkpt><trkpt lat="43.3771296" lon="11.4313789"><ele>316.0</ele><time>2026-05-02T08:46:52.357Z</time></trkpt><trkpt lat="43.3769893" lon="11.4313613"><ele>316.0</ele><time>2026-05-02T08:46:53.35Z</time></trkpt><trkpt lat="43.3768516" lon="11.4313492"><ele>316.0</ele><time>2026-05-02T08:46:54.349Z</time></trkpt><trkpt lat="43.3767093" lon="11.4313403"><ele>316.0</ele><time>2026-05-02T08:46:55.34Z</time></trkpt><trkpt lat="43.376571" lon="11.4313264"><ele>316.0</ele><time>2026-05-02T08:46:56.364Z</time></trkpt><trkpt lat="43.3764389" lon="11.4313076"><ele>316.0</ele><time>2026-05-02T08:46:57.362Z</time></trkpt><trkpt lat="43.3763113" lon="11.4312969"><ele>316.0</ele><time>2026-05-02T08:46:58.349Z</time></trkpt><trkpt lat="43.3761915" lon="11.4312784"><ele>316.0</ele><time>2026-05-02T08:46:59.346Z</time></trkpt><trkpt lat="43.3760741" lon="11.4312574"><ele>315.25</ele><time>2026-05-02T08:47:00.354Z</time></trkpt><trkpt lat="43.3759564" lon="11.4312333"><ele>314.5</ele><time>2026-05-02T08:47:01.361Z</time></trkpt><trkpt lat="43.3758393" lon="11.4311947"><ele>313.75</ele><time>2026-05-02T08:47:02.354Z</time></trkpt><trkpt lat="43.3757236" lon="11.4311353"><ele>313.0</ele><time>2026-05-02T08:47:03.36Z</time></trkpt><trkpt lat="43.3756042" lon="11.4310537"><ele>310.75</ele><time>2026-05-02T08:47:04.35Z</time></trkpt><trkpt lat="43.3754876" lon="11.4309632"><ele>308.5</ele><time>2026-05-02T08:47:05.349Z</time></trkpt><trkpt lat="43.3753756" lon="11.4308685"><ele>306.25</ele><time>2026-05-02T08:47:06.342Z</time></trkpt><trkpt lat="43.3752609" lon="11.4307806"><ele>304.0</ele><time>2026-05-02T08:47:07.353Z</time></trkpt><trkpt lat="43.3751363" lon="11.4306894"><ele>304.0</ele><time>2026-05-02T08:47:08.376Z</time></trkpt><trkpt lat="43.3750091" lon="11.43061"><ele>304.0</ele><time>2026-05-02T08:47:09.357Z</time></trkpt><trkpt lat="43.3748789" lon="11.4305411"><ele>304.0</ele><time>2026-05-02T08:47:10.349Z</time></trkpt><trkpt lat="43.37475" lon="11.4304885"><ele>304.0</ele><time>2026-05-02T08:47:11.356Z</time></trkpt><trkpt lat="43.3746192" lon="11.4304384"><ele>304.25</ele><time>2026-05-02T08:47:12.355Z</time></trkpt><trkpt lat="43.374484" lon="11.4303981"><ele>304.5</ele><time>2026-05-02T08:47:13.35Z</time></trkpt><trkpt lat="43.3743389" lon="11.4303532"><ele>304.75</ele><time>2026-05-02T08:47:14.351Z</time></trkpt><trkpt lat="43.3741904" lon="11.4303069"><ele>305.0</ele><time>2026-05-02T08:47:15.36Z</time></trkpt><trkpt lat="43.3740375" lon="11.4302483"><ele>305.0</ele><time>2026-05-02T08:47:16.368Z</time></trkpt><trkpt lat="43.3738836" lon="11.4301823"><ele>305.0</ele><time>2026-05-02T08:47:17.359Z</time></trkpt><trkpt lat="43.3737196" lon="11.4301092"><ele>305.0</ele><time>2026-05-02T08:47:18.359Z</time></trkpt><trkpt lat="43.3735541" lon="11.430027"><ele>304.6666666666667</ele><time>2026-05-02T08:47:19.348Z</time></trkpt><trkpt lat="43.3733819" lon="11.4299388"><ele>304.3333333333333</ele><time>2026-05-02T08:47:20.354Z</time></trkpt><trkpt lat="43.3732185" lon="11.4298456"><ele>304.0</ele><time>2026-05-02T08:47:21.353Z</time></trkpt><trkpt lat="43.3730564" lon="11.4297471"><ele>301.66666666666663</ele><time>2026-05-02T08:47:22.357Z</time></trkpt><trkpt lat="43.3728916" lon="11.4296473"><ele>299.3333333333333</ele><time>2026-05-02T08:47:23.352Z</time></trkpt><trkpt lat="43.3727238" lon="11.4295541"><ele>297.0</ele><time>2026-05-02T08:47:24.356Z</time></trkpt><trkpt lat="43.3725568" lon="11.4294642"><ele>297.0</ele><time>2026-05-02T08:47:25.354Z</time></trkpt><trkpt lat="43.3723917" lon="11.4293716"><ele>297.0</ele><time>2026-05-02T08:47:26.347Z</time></trkpt><trkpt lat="43.3722325" lon="11.4292747"><ele>297.0</ele><time>2026-05-02T08:47:27.358Z</time></trkpt><trkpt lat="43.3720731" lon="11.429184"><ele>295.6666666666667</ele><time>2026-05-02T08:47:28.342Z</time></trkpt><trkpt lat="43.371921" lon="11.4290908"><ele>294.33333333333337</ele><time>2026-05-02T08:47:29.382Z</time></trkpt><trkpt lat="43.3717723" lon="11.4290037"><ele>293.0</ele><time>2026-05-02T08:47:30.354Z</time></trkpt><trkpt lat="43.3716258" lon="11.4289252"><ele>293.0</ele><time>2026-05-02T08:47:31.359Z</time></trkpt><trkpt lat="43.3714838" lon="11.4288561"><ele>293.0</ele><time>2026-05-02T08:47:32.355Z</time></trkpt><trkpt lat="43.3713371" lon="11.428802"><ele>293.0</ele><time>2026-05-02T08:47:33.348Z</time></trkpt><trkpt lat="43.3711878" lon="11.4287568"><ele>293.33333333333337</ele><time>2026-05-02T08:47:34.349Z</time></trkpt><trkpt lat="43.3710414" lon="11.4287173"><ele>293.6666666666667</ele><time>2026-05-02T08:47:35.361Z</time></trkpt><trkpt lat="43.3708904" lon="11.4286881"><ele>294.0</ele><time>2026-05-02T08:47:36.345Z</time></trkpt><trkpt lat="43.3707338" lon="11.4286647"><ele>294.0</ele><time>2026-05-02T08:47:37.365Z</time></trkpt><trkpt lat="43.3705747" lon="11.4286412"><ele>294.0</ele><time>2026-05-02T08:47:38.358Z</time></trkpt><trkpt lat="43.3704063" lon="11.4286179"><ele>294.0</ele><time>2026-05-02T08:47:39.374Z</time></trkpt><trkpt lat="43.3702366" lon="11.428592"><ele>291.6666666666667</ele><time>2026-05-02T08:47:40.358Z</time></trkpt><trkpt lat="43.370066" lon="11.4285738"><ele>289.33333333333337</ele><time>2026-05-02T08:47:41.359Z</time></trkpt><trkpt lat="43.3698962" lon="11.4285572"><ele>287.0</ele><time>2026-05-02T08:47:42.358Z</time></trkpt><trkpt lat="43.36974" lon="11.428545"><ele>285.33333333333337</ele><time>2026-05-02T08:47:43.349Z</time></trkpt><trkpt lat="43.3695845" lon="11.4285315"><ele>283.6666666666667</ele><time>2026-05-02T08:47:44.354Z</time></trkpt><trkpt lat="43.3694291" lon="11.4285146"><ele>282.0</ele><time>2026-05-02T08:47:45.358Z</time></trkpt><trkpt lat="43.3692751" lon="11.428506"><ele>282.0</ele><time>2026-05-02T08:47:46.359Z</time></trkpt><trkpt lat="43.3691219" lon="11.4285018"><ele>282.0</ele><time>2026-05-02T08:47:47.367Z</time></trkpt><trkpt lat="43.3689686" lon="11.428491"><ele>282.0</ele><time>2026-05-02T08:47:48.369Z</time></trkpt><trkpt lat="43.3688182" lon="11.4284733"><ele>282.6666666666667</ele><time>2026-05-02T08:47:49.364Z</time></trkpt><trkpt lat="43.3686737" lon="11.4284172"><ele>283.33333333333337</ele><time>2026-05-02T08:47:50.353Z</time></trkpt><trkpt lat="43.3685373" lon="11.4283269"><ele>284.0</ele><time>2026-05-02T08:47:51.356Z</time></trkpt><trkpt lat="43.3684128" lon="11.4282122"><ele>284.0</ele><time>2026-05-02T08:47:52.355Z</time></trkpt><trkpt lat="43.3682953" lon="11.4280747"><ele>284.0</ele><time>2026-05-02T08:47:53.349Z</time></trkpt><trkpt lat="43.3681967" lon="11.4279138"><ele>284.0</ele><time>2026-05-02T08:47:54.356Z</time></trkpt><trkpt lat="43.3681143" lon="11.427731"><ele>284.0</ele><time>2026-05-02T08:47:55.356Z</time></trkpt><trkpt lat="43.3680515" lon="11.4275311"><ele>284.0</ele><time>2026-05-02T08:47:56.362Z</time></trkpt><trkpt lat="43.3679899" lon="11.4273111"><ele>284.0</ele><time>2026-05-02T08:47:57.351Z</time></trkpt><trkpt lat="43.3679142" lon="11.4271071"><ele>284.0</ele><time>2026-05-02T08:47:58.352Z</time></trkpt><trkpt lat="43.3678197" lon="11.4269429"><ele>284.0</ele><time>2026-05-02T08:47:59.363Z</time></trkpt><trkpt lat="43.3677095" lon="11.4268239"><ele>284.0</ele><time>2026-05-02T08:48:00.357Z</time></trkpt><trkpt lat="43.3675786" lon="11.4267506"><ele>284.0</ele><time>2026-05-02T08:48:01.348Z</time></trkpt><trkpt lat="43.3674414" lon="11.4266981"><ele>284.0</ele><time>2026-05-02T08:48:02.347Z</time></trkpt><trkpt lat="43.3672975" lon="11.4266383"><ele>284.0</ele><time>2026-05-02T08:48:03.353Z</time></trkpt><trkpt lat="43.3671551" lon="11.4265771"><ele>284.0</ele><time>2026-05-02T08:48:04.364Z</time></trkpt><trkpt lat="43.3670072" lon="11.4265132"><ele>285.6666666666667</ele><time>2026-05-02T08:48:05.368Z</time></trkpt><trkpt lat="43.3668558" lon="11.4264495"><ele>287.3333333333333</ele><time>2026-05-02T08:48:06.359Z</time></trkpt><trkpt lat="43.3667021" lon="11.4263931"><ele>289.0</ele><time>2026-05-02T08:48:07.373Z</time></trkpt><trkpt lat="43.3665451" lon="11.4263626"><ele>289.0</ele><time>2026-05-02T08:48:08.368Z</time></trkpt><trkpt lat="43.3663893" lon="11.4263734"><ele>289.0</ele><time>2026-05-02T08:48:09.353Z</time></trkpt><trkpt lat="43.3662447" lon="11.4263989"><ele>289.0</ele><time>2026-05-02T08:48:10.356Z</time></trkpt><trkpt lat="43.366104" lon="11.4264139"><ele>289.0</ele><time>2026-05-02T08:48:11.352Z</time></trkpt><trkpt lat="43.3659707" lon="11.4263916"><ele>289.25</ele><time>2026-05-02T08:48:12.342Z</time></trkpt><trkpt lat="43.3658474" lon="11.4263266"><ele>289.5</ele><time>2026-05-02T08:48:13.355Z</time></trkpt><trkpt lat="43.3657518" lon="11.4262093"><ele>289.75</ele><time>2026-05-02T08:48:14.346Z</time></trkpt><trkpt lat="43.3656759" lon="11.426063"><ele>290.0</ele><time>2026-05-02T08:48:15.361Z</time></trkpt><trkpt lat="43.3655813" lon="11.4259268"><ele>287.33333333333337</ele><time>2026-05-02T08:48:16.36Z</time></trkpt><trkpt lat="43.3654809" lon="11.4257665"><ele>284.6666666666667</ele><time>2026-05-02T08:48:17.353Z</time></trkpt><trkpt lat="43.3653797" lon="11.4255875"><ele>282.0</ele><time>2026-05-02T08:48:18.36Z</time></trkpt><trkpt lat="43.3652776" lon="11.4254206"><ele>281.6666666666667</ele><time>2026-05-02T08:48:19.37Z</time></trkpt><trkpt lat="43.3651733" lon="11.4252595"><ele>281.33333333333337</ele><time>2026-05-02T08:48:20.369Z</time></trkpt><trkpt lat="43.3650706" lon="11.4251058"><ele>281.0</ele><time>2026-05-02T08:48:21.35Z</time></trkpt><trkpt lat="43.3649757" lon="11.4249461"><ele>281.0</ele><time>2026-05-02T08:48:22.351Z</time></trkpt><trkpt lat="43.3648827" lon="11.4247748"><ele>281.0</ele><time>2026-05-02T08:48:23.35Z</time></trkpt><trkpt lat="43.3647961" lon="11.4246071"><ele>281.0</ele><time>2026-05-02T08:48:24.35Z</time></trkpt><trkpt lat="43.3647157" lon="11.4244302"><ele>280.0</ele><time>2026-05-02T08:48:25.357Z</time></trkpt><trkpt lat="43.3646511" lon="11.4242459"><ele>279.0</ele><time>2026-05-02T08:48:26.347Z</time></trkpt><trkpt lat="43.3645949" lon="11.424046"><ele>278.0</ele><time>2026-05-02T08:48:27.358Z</time></trkpt><trkpt lat="43.3645592" lon="11.4238368"><ele>275.6666666666667</ele><time>2026-05-02T08:48:28.346Z</time></trkpt><trkpt lat="43.3645317" lon="11.4236303"><ele>273.3333333333333</ele><time>2026-05-02T08:48:29.351Z</time></trkpt><trkpt lat="43.3645197" lon="11.423414"><ele>271.0</ele><time>2026-05-02T08:48:30.352Z</time></trkpt><trkpt lat="43.3645114" lon="11.4231911"><ele>268.66666666666663</ele><time>2026-05-02T08:48:31.366Z</time></trkpt><trkpt lat="43.3645038" lon="11.4229671"><ele>266.3333333333333</ele><time>2026-05-02T08:48:32.358Z</time></trkpt><trkpt lat="43.3644905" lon="11.422746"><ele>264.0</ele><time>2026-05-02T08:48:33.348Z</time></trkpt><trkpt lat="43.3644784" lon="11.4225226"><ele>264.0</ele><time>2026-05-02T08:48:34.35Z</time></trkpt><trkpt lat="43.3644618" lon="11.4222962"><ele>264.0</ele><time>2026-05-02T08:48:35.347Z</time></trkpt><trkpt lat="43.3644542" lon="11.4220645"><ele>264.0</ele><time>2026-05-02T08:48:36.339Z</time></trkpt><trkpt lat="43.364443" lon="11.4218339"><ele>261.6666666666667</ele><time>2026-05-02T08:48:37.354Z</time></trkpt><trkpt lat="43.3644213" lon="11.4216182"><ele>259.33333333333337</ele><time>2026-05-02T08:48:38.362Z</time></trkpt><trkpt lat="43.3643893" lon="11.4214198"><ele>257.0</ele><time>2026-05-02T08:48:39.341Z</time></trkpt><trkpt lat="43.3643407" lon="11.4212239"><ele>256.75</ele><time>2026-05-02T08:48:40.358Z</time></trkpt><trkpt lat="43.3642893" lon="11.4210333"><ele>256.5</ele><time>2026-05-02T08:48:41.358Z</time></trkpt><trkpt lat="43.364228" lon="11.4208458"><ele>256.25</ele><time>2026-05-02T08:48:42.359Z</time></trkpt><trkpt lat="43.3641712" lon="11.420655"><ele>256.0</ele><time>2026-05-02T08:48:43.344Z</time></trkpt><trkpt lat="43.3641298" lon="11.4204509"><ele>255.33333333333331</ele><time>2026-05-02T08:48:44.348Z</time></trkpt><trkpt lat="43.3640991" lon="11.4202405"><ele>254.66666666666669</ele><time>2026-05-02T08:48:45.348Z</time></trkpt><trkpt lat="43.3640812" lon="11.4200287"><ele>254.0</ele><time>2026-05-02T08:48:46.342Z</time></trkpt><trkpt lat="43.364069" lon="11.4198132"><ele>253.0</ele><time>2026-05-02T08:48:47.346Z</time></trkpt><trkpt lat="43.3640579" lon="11.4195986"><ele>252.0</ele><time>2026-05-02T08:48:48.343Z</time></trkpt><trkpt lat="43.3640458" lon="11.4193885"><ele>251.0</ele><time>2026-05-02T08:48:49.352Z</time></trkpt><trkpt lat="43.364039" lon="11.4191988"><ele>250.0</ele><time>2026-05-02T08:48:50.356Z</time></trkpt><trkpt lat="43.3640393" lon="11.4190426"><ele>249.99999999999997</ele><time>2026-05-02T08:48:51.344Z</time></trkpt><trkpt lat="43.3640387" lon="11.4189262"><ele>250.0</ele><time>2026-05-02T08:48:52.346Z</time></trkpt><trkpt lat="43.3640162" lon="11.4188109"><ele>250.0</ele><time>2026-05-02T08:48:53.353Z</time></trkpt><trkpt lat="43.3639917" lon="11.4187306"><ele>250.0</ele><time>2026-05-02T08:48:54.344Z</time></trkpt><trkpt lat="43.3639474" lon="11.4186553"><ele>249.99999999999997</ele><time>2026-05-02T08:48:55.351Z</time></trkpt><trkpt lat="43.3638422" lon="11.4185855"><ele>250.0</ele><time>2026-05-02T08:48:57.351Z</time></trkpt><trkpt lat="43.36376" lon="11.4185431"><ele>248.33333333333331</ele><time>2026-05-02T08:48:59.356Z</time></trkpt><trkpt lat="43.3636998" lon="11.4185001"><ele>246.66666666666666</ele><time>2026-05-02T08:49:01.359Z</time></trkpt><trkpt lat="43.3636319" lon="11.4184797"><ele>245.0</ele><time>2026-05-02T08:49:02.351Z</time></trkpt><trkpt lat="43.3635567" lon="11.4184767"><ele>243.33333333333331</ele><time>2026-05-02T08:49:03.355Z</time></trkpt><trkpt lat="43.3634596" lon="11.4184736"><ele>241.66666666666666</ele><time>2026-05-02T08:49:04.347Z</time></trkpt><trkpt lat="43.3633363" lon="11.4184727"><ele>240.0</ele><time>2026-05-02T08:49:05.357Z</time></trkpt><trkpt lat="43.3632135" lon="11.4184727"><ele>240.0</ele><time>2026-05-02T08:49:06.353Z</time></trkpt><trkpt lat="43.3630926" lon="11.4184561"><ele>240.0</ele><time>2026-05-02T08:49:07.356Z</time></trkpt><trkpt lat="43.3629615" lon="11.4184293"><ele>240.0</ele><time>2026-05-02T08:49:08.349Z</time></trkpt><trkpt lat="43.3628331" lon="11.4183953"><ele>240.0</ele><time>2026-05-02T08:49:09.364Z</time></trkpt><trkpt lat="43.3626985" lon="11.4183447"><ele>239.25</ele><time>2026-05-02T08:49:10.353Z</time></trkpt><trkpt lat="43.3625614" lon="11.4183004"><ele>238.5</ele><time>2026-05-02T08:49:11.359Z</time></trkpt><trkpt lat="43.3624348" lon="11.4182679"><ele>237.75</ele><time>2026-05-02T08:49:12.35Z</time></trkpt><trkpt lat="43.3623161" lon="11.4182746"><ele>237.0</ele><time>2026-05-02T08:49:13.349Z</time></trkpt><trkpt lat="43.3622079" lon="11.4183118"><ele>235.5</ele><time>2026-05-02T08:49:14.372Z</time></trkpt><trkpt lat="43.3621148" lon="11.4183881"><ele>234.0</ele><time>2026-05-02T08:49:15.35Z</time></trkpt><trkpt lat="43.3620301" lon="11.4184799"><ele>232.5</ele><time>2026-05-02T08:49:16.354Z</time></trkpt><trkpt lat="43.3619474" lon="11.4185987"><ele>231.0</ele><time>2026-05-02T08:49:17.349Z</time></trkpt><trkpt lat="43.3618641" lon="11.4187265"><ele>232.75</ele><time>2026-05-02T08:49:18.352Z</time></trkpt><trkpt lat="43.3617788" lon="11.418865"><ele>234.5</ele><time>2026-05-02T08:49:19.346Z</time></trkpt><trkpt lat="43.3616885" lon="11.4189886"><ele>236.25</ele><time>2026-05-02T08:49:20.355Z</time></trkpt><trkpt lat="43.3615795" lon="11.419093"><ele>238.0</ele><time>2026-05-02T08:49:21.359Z</time></trkpt><trkpt lat="43.3614521" lon="11.4191543"><ele>236.5</ele><time>2026-05-02T08:49:22.347Z</time></trkpt><trkpt lat="43.3613085" lon="11.4192028"><ele>235.0</ele><time>2026-05-02T08:49:23.349Z</time></trkpt><trkpt lat="43.3611625" lon="11.4192512"><ele>233.5</ele><time>2026-05-02T08:49:24.349Z</time></trkpt><trkpt lat="43.3610217" lon="11.4193042"><ele>232.0</ele><time>2026-05-02T08:49:25.342Z</time></trkpt><trkpt lat="43.3608927" lon="11.4193528"><ele>231.99999999999997</ele><time>2026-05-02T08:49:26.354Z</time></trkpt><trkpt lat="43.360777" lon="11.4193964"><ele>232.0</ele><time>2026-05-02T08:49:27.361Z</time></trkpt><trkpt lat="43.3606784" lon="11.4194346"><ele>232.0</ele><time>2026-05-02T08:49:28.354Z</time></trkpt><trkpt lat="43.360602" lon="11.4194641"><ele>232.0</ele><time>2026-05-02T08:49:29.34Z</time></trkpt><trkpt lat="43.3605328" lon="11.4194891"><ele>231.99999999999997</ele><time>2026-05-02T08:49:30.363Z</time></trkpt><trkpt lat="43.36046" lon="11.4195122"><ele>232.0</ele><time>2026-05-02T08:49:31.343Z</time></trkpt><trkpt lat="43.3603906" lon="11.4195397"><ele>232.0</ele><time>2026-05-02T08:49:32.353Z</time></trkpt><trkpt lat="43.3603089" lon="11.4195663"><ele>232.0</ele><time>2026-05-02T08:49:33.348Z</time></trkpt><trkpt lat="43.3602227" lon="11.4195949"><ele>232.0</ele><time>2026-05-02T08:49:34.362Z</time></trkpt><trkpt lat="43.3601274" lon="11.4196258"><ele>232.0</ele><time>2026-05-02T08:49:35.358Z</time></trkpt><trkpt lat="43.3600242" lon="11.4196637"><ele>232.0</ele><time>2026-05-02T08:49:36.351Z</time></trkpt><trkpt lat="43.3599143" lon="11.4197068"><ele>232.0</ele><time>2026-05-02T08:49:37.36Z</time></trkpt><trkpt lat="43.3597999" lon="11.4197513"><ele>232.0</ele><time>2026-05-02T08:49:38.356Z</time></trkpt><trkpt lat="43.3596814" lon="11.4197966"><ele>232.0</ele><time>2026-05-02T08:49:39.357Z</time></trkpt><trkpt lat="43.3595565" lon="11.41985"><ele>232.0</ele><time>2026-05-02T08:49:40.353Z</time></trkpt><trkpt lat="43.359425" lon="11.4199023"><ele>231.0</ele><time>2026-05-02T08:49:41.356Z</time></trkpt><trkpt lat="43.3592989" lon="11.4199428"><ele>230.0</ele><time>2026-05-02T08:49:42.362Z</time></trkpt><trkpt lat="43.3591773" lon="11.4199521"><ele>229.0</ele><time>2026-05-02T08:49:43.344Z</time></trkpt><trkpt lat="43.3590616" lon="11.4199233"><ele>228.0</ele><time>2026-05-02T08:49:44.354Z</time></trkpt><trkpt lat="43.3589729" lon="11.4198437"><ele>228.0</ele><time>2026-05-02T08:49:45.35Z</time></trkpt><trkpt lat="43.3588963" lon="11.4197431"><ele>228.0</ele><time>2026-05-02T08:49:46.348Z</time></trkpt><trkpt lat="43.3588128" lon="11.4196126"><ele>228.0</ele><time>2026-05-02T08:49:47.349Z</time></trkpt><trkpt lat="43.3587255" lon="11.4194765"><ele>228.0</ele><time>2026-05-02T08:49:48.356Z</time></trkpt><trkpt lat="43.3586281" lon="11.4193355"><ele>226.5</ele><time>2026-05-02T08:49:49.358Z</time></trkpt><trkpt lat="43.3585339" lon="11.4191906"><ele>225.0</ele><time>2026-05-02T08:49:50.352Z</time></trkpt><trkpt lat="43.3584428" lon="11.4190466"><ele>223.5</ele><time>2026-05-02T08:49:51.359Z</time></trkpt><trkpt lat="43.3583517" lon="11.4189123"><ele>222.0</ele><time>2026-05-02T08:49:52.358Z</time></trkpt><trkpt lat="43.358263" lon="11.4187764"><ele>221.75</ele><time>2026-05-02T08:49:53.35Z</time></trkpt><trkpt lat="43.3581756" lon="11.4186355"><ele>221.5</ele><time>2026-05-02T08:49:54.351Z</time></trkpt><trkpt lat="43.358095" lon="11.4185136"><ele>221.25</ele><time>2026-05-02T08:49:55.368Z</time></trkpt><trkpt lat="43.3580207" lon="11.4184035"><ele>221.0</ele><time>2026-05-02T08:49:56.36Z</time></trkpt><trkpt lat="43.3579483" lon="11.418295"><ele>220.75</ele><time>2026-05-02T08:49:57.373Z</time></trkpt><trkpt lat="43.3578734" lon="11.4181833"><ele>220.5</ele><time>2026-05-02T08:49:58.351Z</time></trkpt><trkpt lat="43.357799" lon="11.4180686"><ele>220.25</ele><time>2026-05-02T08:49:59.346Z</time></trkpt><trkpt lat="43.3577196" lon="11.417955"><ele>220.0</ele><time>2026-05-02T08:50:00.353Z</time></trkpt><trkpt lat="43.3576401" lon="11.4178345"><ele>220.0</ele><time>2026-05-02T08:50:01.356Z</time></trkpt><trkpt lat="43.3575611" lon="11.4177142"><ele>220.0</ele><time>2026-05-02T08:50:02.357Z</time></trkpt><trkpt lat="43.3574833" lon="11.4175855"><ele>220.0</ele><time>2026-05-02T08:50:03.352Z</time></trkpt><trkpt lat="43.3574033" lon="11.4174627"><ele>220.0</ele><time>2026-05-02T08:50:04.356Z</time></trkpt><trkpt lat="43.3573261" lon="11.4173366"><ele>220.0</ele><time>2026-05-02T08:50:05.338Z</time></trkpt><trkpt lat="43.3572508" lon="11.4172154"><ele>220.0</ele><time>2026-05-02T08:50:06.344Z</time></trkpt><trkpt lat="43.3571728" lon="11.4170973"><ele>220.0</ele><time>2026-05-02T08:50:07.345Z</time></trkpt><trkpt lat="43.3570997" lon="11.4169761"><ele>220.0</ele><time>2026-05-02T08:50:08.356Z</time></trkpt><trkpt lat="43.3570254" lon="11.4168639"><ele>219.8</ele><time>2026-05-02T08:50:09.343Z</time></trkpt><trkpt lat="43.3569504" lon="11.4167478"><ele>219.6</ele><time>2026-05-02T08:50:10.352Z</time></trkpt><trkpt lat="43.3568772" lon="11.416632"><ele>219.39999999999998</ele><time>2026-05-02T08:50:11.351Z</time></trkpt><trkpt lat="43.3568027" lon="11.4165156"><ele>219.2</ele><time>2026-05-02T08:50:12.369Z</time></trkpt><trkpt lat="43.3567294" lon="11.4164018"><ele>219.0</ele><time>2026-05-02T08:50:13.354Z</time></trkpt><trkpt lat="43.3566612" lon="11.4162958"><ele>219.39999999999998</ele><time>2026-05-02T08:50:14.364Z</time></trkpt><trkpt lat="43.356604" lon="11.4161934"><ele>219.79999999999998</ele><time>2026-05-02T08:50:15.355Z</time></trkpt><trkpt lat="43.3565509" lon="11.4160953"><ele>220.20000000000002</ele><time>2026-05-02T08:50:16.347Z</time></trkpt><trkpt lat="43.3564861" lon="11.4160002"><ele>220.60000000000002</ele><time>2026-05-02T08:50:17.368Z</time></trkpt><trkpt lat="43.3564101" lon="11.4159168"><ele>221.0</ele><time>2026-05-02T08:50:18.36Z</time></trkpt><trkpt lat="43.3563223" lon="11.4158616"><ele>221.20000000000002</ele><time>2026-05-02T08:50:19.352Z</time></trkpt><trkpt lat="43.3562147" lon="11.4158411"><ele>221.40000000000003</ele><time>2026-05-02T08:50:20.355Z</time></trkpt><trkpt lat="43.3561095" lon="11.4158619"><ele>221.6</ele><time>2026-05-02T08:50:21.349Z</time></trkpt><trkpt lat="43.3560023" lon="11.4159002"><ele>221.8</ele><time>2026-05-02T08:50:22.351Z</time></trkpt><trkpt lat="43.355902" lon="11.4159603"><ele>222.0</ele><time>2026-05-02T08:50:23.353Z</time></trkpt><trkpt lat="43.3557905" lon="11.4160329"><ele>222.0</ele><time>2026-05-02T08:50:24.359Z</time></trkpt><trkpt lat="43.3556767" lon="11.4161143"><ele>222.0</ele><time>2026-05-02T08:50:25.362Z</time></trkpt><trkpt lat="43.3555595" lon="11.4161892"><ele>222.0</ele><time>2026-05-02T08:50:26.35Z</time></trkpt><trkpt lat="43.3554452" lon="11.4162401"><ele>222.0</ele><time>2026-05-02T08:50:27.357Z</time></trkpt><trkpt lat="43.35532" lon="11.4162559"><ele>223.25</ele><time>2026-05-02T08:50:28.355Z</time></trkpt><trkpt lat="43.3551888" lon="11.4162408"><ele>224.5</ele><time>2026-05-02T08:50:29.358Z</time></trkpt><trkpt lat="43.3550495" lon="11.4162237"><ele>225.75</ele><time>2026-05-02T08:50:30.349Z</time></trkpt><trkpt lat="43.354903" lon="11.4162037"><ele>227.0</ele><time>2026-05-02T08:50:31.356Z</time></trkpt><trkpt lat="43.3547654" lon="11.416185"><ele>226.5</ele><time>2026-05-02T08:50:32.348Z</time></trkpt><trkpt lat="43.3546228" lon="11.4161671"><ele>226.0</ele><time>2026-05-02T08:50:33.348Z</time></trkpt><trkpt lat="43.3544759" lon="11.4161478"><ele>225.5</ele><time>2026-05-02T08:50:34.347Z</time></trkpt><trkpt lat="43.3543289" lon="11.4161331"><ele>225.0</ele><time>2026-05-02T08:50:35.349Z</time></trkpt><trkpt lat="43.3541754" lon="11.4161222"><ele>225.0</ele><time>2026-05-02T08:50:36.351Z</time></trkpt><trkpt lat="43.354013" lon="11.4161115"><ele>225.0</ele><time>2026-05-02T08:50:37.356Z</time></trkpt><trkpt lat="43.3538371" lon="11.4160955"><ele>225.0</ele><time>2026-05-02T08:50:38.355Z</time></trkpt><trkpt lat="43.3536564" lon="11.4160686"><ele>224.33333333333331</ele><time>2026-05-02T08:50:39.359Z</time></trkpt><trkpt lat="43.3534799" lon="11.4160212"><ele>223.66666666666666</ele><time>2026-05-02T08:50:40.364Z</time></trkpt><trkpt lat="43.353302" lon="11.4159552"><ele>223.0</ele><time>2026-05-02T08:50:41.36Z</time></trkpt><trkpt lat="43.3531234" lon="11.4158962"><ele>223.0</ele><time>2026-05-02T08:50:42.355Z</time></trkpt><trkpt lat="43.3529577" lon="11.4158463"><ele>223.0</ele><time>2026-05-02T08:50:43.365Z</time></trkpt><trkpt lat="43.3528022" lon="11.4158008"><ele>223.0</ele><time>2026-05-02T08:50:44.358Z</time></trkpt><trkpt lat="43.3526555" lon="11.4157531"><ele>223.0</ele><time>2026-05-02T08:50:45.353Z</time></trkpt><trkpt lat="43.3525159" lon="11.4157072"><ele>223.0</ele><time>2026-05-02T08:50:46.355Z</time></trkpt><trkpt lat="43.35238" lon="11.415669"><ele>223.0</ele><time>2026-05-02T08:50:47.35Z</time></trkpt><trkpt lat="43.3522493" lon="11.4156368"><ele>223.0</ele><time>2026-05-02T08:50:48.359Z</time></trkpt><trkpt lat="43.352129" lon="11.4156078"><ele>222.60000000000002</ele><time>2026-05-02T08:50:49.352Z</time></trkpt><trkpt lat="43.3520196" lon="11.4155812"><ele>222.20000000000002</ele><time>2026-05-02T08:50:50.346Z</time></trkpt><trkpt lat="43.3519126" lon="11.4155543"><ele>221.8</ele><time>2026-05-02T08:50:51.356Z</time></trkpt><trkpt lat="43.351807" lon="11.4155203"><ele>221.4</ele><time>2026-05-02T08:50:52.347Z</time></trkpt><trkpt lat="43.3516956" lon="11.4154841"><ele>221.0</ele><time>2026-05-02T08:50:53.358Z</time></trkpt><trkpt lat="43.3515807" lon="11.4154501"><ele>221.0</ele><time>2026-05-02T08:50:54.36Z</time></trkpt><trkpt lat="43.3514651" lon="11.4154222"><ele>221.0</ele><time>2026-05-02T08:50:55.354Z</time></trkpt><trkpt lat="43.3513514" lon="11.4153917"><ele>221.0</ele><time>2026-05-02T08:50:56.355Z</time></trkpt><trkpt lat="43.3512355" lon="11.415357"><ele>221.0</ele><time>2026-05-02T08:50:57.354Z</time></trkpt><trkpt lat="43.3511145" lon="11.415321"><ele>220.75</ele><time>2026-05-02T08:50:58.352Z</time></trkpt><trkpt lat="43.3509895" lon="11.4152858"><ele>220.5</ele><time>2026-05-02T08:50:59.354Z</time></trkpt><trkpt lat="43.3508593" lon="11.4152497"><ele>220.25</ele><time>2026-05-02T08:51:00.371Z</time></trkpt><trkpt lat="43.3507326" lon="11.415218"><ele>220.0</ele><time>2026-05-02T08:51:01.346Z</time></trkpt><trkpt lat="43.3506053" lon="11.4151812"><ele>221.5</ele><time>2026-05-02T08:51:02.357Z</time></trkpt><trkpt lat="43.3504795" lon="11.4151365"><ele>223.0</ele><time>2026-05-02T08:51:03.357Z</time></trkpt><trkpt lat="43.3503585" lon="11.4151014"><ele>224.5</ele><time>2026-05-02T08:51:04.356Z</time></trkpt><trkpt lat="43.3502363" lon="11.4150441"><ele>226.0</ele><time>2026-05-02T08:51:05.347Z</time></trkpt><trkpt lat="43.3501271" lon="11.4149612"><ele>226.0</ele><time>2026-05-02T08:51:06.344Z</time></trkpt><trkpt lat="43.3500306" lon="11.4148463"><ele>226.0</ele><time>2026-05-02T08:51:07.357Z</time></trkpt><trkpt lat="43.3499472" lon="11.4147"><ele>226.0</ele><time>2026-05-02T08:51:08.349Z</time></trkpt><trkpt lat="43.3498693" lon="11.4145484"><ele>226.0</ele><time>2026-05-02T08:51:09.344Z</time></trkpt><trkpt lat="43.3497908" lon="11.4143972"><ele>226.25</ele><time>2026-05-02T08:51:10.36Z</time></trkpt><trkpt lat="43.3497103" lon="11.4142512"><ele>226.5</ele><time>2026-05-02T08:51:11.354Z</time></trkpt><trkpt lat="43.349634" lon="11.4141114"><ele>226.75</ele><time>2026-05-02T08:51:12.355Z</time></trkpt><trkpt lat="43.3495694" lon="11.4139646"><ele>227.0</ele><time>2026-05-02T08:51:13.354Z</time></trkpt><trkpt lat="43.3495174" lon="11.4138126"><ele>227.0</ele><time>2026-05-02T08:51:14.351Z</time></trkpt><trkpt lat="43.3494675" lon="11.4136609"><ele>227.0</ele><time>2026-05-02T08:51:15.348Z</time></trkpt><trkpt lat="43.3494138" lon="11.4135127"><ele>227.0</ele><time>2026-05-02T08:51:16.353Z</time></trkpt><trkpt lat="43.3493524" lon="11.4133717"><ele>227.0</ele><time>2026-05-02T08:51:17.349Z</time></trkpt><trkpt lat="43.3492811" lon="11.4132283"><ele>227.0</ele><time>2026-05-02T08:51:18.352Z</time></trkpt><trkpt lat="43.3491914" lon="11.4130823"><ele>227.0</ele><time>2026-05-02T08:51:19.35Z</time></trkpt><trkpt lat="43.3490926" lon="11.4129371"><ele>227.0</ele><time>2026-05-02T08:51:20.36Z</time></trkpt><trkpt lat="43.3489874" lon="11.4127921"><ele>227.0</ele><time>2026-05-02T08:51:21.343Z</time></trkpt><trkpt lat="43.3488889" lon="11.4126369"><ele>228.66666666666669</ele><time>2026-05-02T08:51:22.363Z</time></trkpt><trkpt lat="43.3487973" lon="11.4124674"><ele>230.33333333333331</ele><time>2026-05-02T08:51:23.341Z</time></trkpt><trkpt lat="43.3487191" lon="11.4122843"><ele>232.0</ele><time>2026-05-02T08:51:24.354Z</time></trkpt><trkpt lat="43.3486491" lon="11.412071"><ele>232.0</ele><time>2026-05-02T08:51:25.363Z</time></trkpt><trkpt lat="43.3485907" lon="11.4118376"><ele>232.0</ele><time>2026-05-02T08:51:26.347Z</time></trkpt><trkpt lat="43.3485532" lon="11.4115887"><ele>232.0</ele><time>2026-05-02T08:51:27.349Z</time></trkpt><trkpt lat="43.3485383" lon="11.4113335"><ele>234.0</ele><time>2026-05-02T08:51:28.352Z</time></trkpt><trkpt lat="43.3485241" lon="11.4110978"><ele>236.0</ele><time>2026-05-02T08:51:29.362Z</time></trkpt><trkpt lat="43.3485027" lon="11.4108848"><ele>238.0</ele><time>2026-05-02T08:51:30.348Z</time></trkpt><trkpt lat="43.3484695" lon="11.4106888"><ele>238.5</ele><time>2026-05-02T08:51:31.36Z</time></trkpt><trkpt lat="43.3484308" lon="11.4104886"><ele>239.0</ele><time>2026-05-02T08:51:32.354Z</time></trkpt><trkpt lat="43.3483868" lon="11.4102955"><ele>239.5</ele><time>2026-05-02T08:51:33.349Z</time></trkpt><trkpt lat="43.3483359" lon="11.4101014"><ele>240.0</ele><time>2026-05-02T08:51:34.361Z</time></trkpt><trkpt lat="43.3482879" lon="11.4099162"><ele>240.0</ele><time>2026-05-02T08:51:35.345Z</time></trkpt><trkpt lat="43.3482406" lon="11.409735"><ele>240.0</ele><time>2026-05-02T08:51:36.371Z</time></trkpt><trkpt lat="43.3481963" lon="11.4095551"><ele>240.0</ele><time>2026-05-02T08:51:37.358Z</time></trkpt><trkpt lat="43.3481516" lon="11.4093803"><ele>240.0</ele><time>2026-05-02T08:51:38.356Z</time></trkpt><trkpt lat="43.3481109" lon="11.4092076"><ele>240.0</ele><time>2026-05-02T08:51:39.351Z</time></trkpt><trkpt lat="43.3480765" lon="11.4090248"><ele>240.0</ele><time>2026-05-02T08:51:40.351Z</time></trkpt><trkpt lat="43.3480563" lon="11.4088403"><ele>240.0</ele><time>2026-05-02T08:51:41.372Z</time></trkpt><trkpt lat="43.3480441" lon="11.408645"><ele>240.0</ele><time>2026-05-02T08:51:42.346Z</time></trkpt><trkpt lat="43.3480348" lon="11.4084483"><ele>246.0</ele><time>2026-05-02T08:51:43.357Z</time></trkpt><trkpt lat="43.348031" lon="11.4082511"><ele>252.0</ele><time>2026-05-02T08:51:44.345Z</time></trkpt><trkpt lat="43.3480291" lon="11.4080544"><ele>258.0</ele><time>2026-05-02T08:51:45.348Z</time></trkpt><trkpt lat="43.3480321" lon="11.4078557"><ele>264.0</ele><time>2026-05-02T08:51:46.349Z</time></trkpt><trkpt lat="43.3480344" lon="11.4076531"><ele>265.5</ele><time>2026-05-02T08:51:47.348Z</time></trkpt><trkpt lat="43.3480413" lon="11.4074572"><ele>267.0</ele><time>2026-05-02T08:51:48.355Z</time></trkpt><trkpt lat="43.3480473" lon="11.4072583"><ele>268.5</ele><time>2026-05-02T08:51:49.343Z</time></trkpt><trkpt lat="43.348062" lon="11.4070635"><ele>270.0</ele><time>2026-05-02T08:51:50.356Z</time></trkpt><trkpt lat="43.3480801" lon="11.4068663"><ele>266.5</ele><time>2026-05-02T08:51:51.351Z</time></trkpt><trkpt lat="43.3480988" lon="11.4066693"><ele>263.0</ele><time>2026-05-02T08:51:52.348Z</time></trkpt><trkpt lat="43.3481279" lon="11.4064804"><ele>259.5</ele><time>2026-05-02T08:51:53.358Z</time></trkpt><trkpt lat="43.3481691" lon="11.4062982"><ele>256.0</ele><time>2026-05-02T08:51:54.347Z</time></trkpt><trkpt lat="43.3482204" lon="11.4061195"><ele>256.0</ele><time>2026-05-02T08:51:55.37Z</time></trkpt><trkpt lat="43.3482808" lon="11.4059409"><ele>256.0</ele><time>2026-05-02T08:51:56.353Z</time></trkpt><trkpt lat="43.3483373" lon="11.4057536"><ele>256.0</ele><time>2026-05-02T08:51:57.345Z</time></trkpt><trkpt lat="43.3483856" lon="11.4055633"><ele>256.0</ele><time>2026-05-02T08:51:58.357Z</time></trkpt><trkpt lat="43.3484223" lon="11.4053668"><ele>258.75</ele><time>2026-05-02T08:51:59.359Z</time></trkpt><trkpt lat="43.3484423" lon="11.4051771"><ele>261.5</ele><time>2026-05-02T08:52:00.36Z</time></trkpt><trkpt lat="43.3484598" lon="11.4050015"><ele>264.25</ele><time>2026-05-02T08:52:01.344Z</time></trkpt><trkpt lat="43.3484763" lon="11.4048268"><ele>267.0</ele><time>2026-05-02T08:52:02.347Z</time></trkpt><trkpt lat="43.3485029" lon="11.4046594"><ele>267.5</ele><time>2026-05-02T08:52:03.36Z</time></trkpt><trkpt lat="43.3485447" lon="11.404497"><ele>268.0</ele><time>2026-05-02T08:52:04.358Z</time></trkpt><trkpt lat="43.3486006" lon="11.4043432"><ele>268.5</ele><time>2026-05-02T08:52:05.346Z</time></trkpt><trkpt lat="43.3486707" lon="11.4042032"><ele>269.0</ele><time>2026-05-02T08:52:06.356Z</time></trkpt><trkpt lat="43.3487538" lon="11.4040828"><ele>269.0</ele><time>2026-05-02T08:52:07.373Z</time></trkpt><trkpt lat="43.3488392" lon="11.4039561"><ele>269.0</ele><time>2026-05-02T08:52:08.342Z</time></trkpt><trkpt lat="43.348921" lon="11.4038301"><ele>269.0</ele><time>2026-05-02T08:52:09.348Z</time></trkpt><trkpt lat="43.3489996" lon="11.403684"><ele>269.0</ele><time>2026-05-02T08:52:10.356Z</time></trkpt><trkpt lat="43.3490636" lon="11.4035335"><ele>269.75</ele><time>2026-05-02T08:52:11.346Z</time></trkpt><trkpt lat="43.3491092" lon="11.4033732"><ele>270.5</ele><time>2026-05-02T08:52:12.35Z</time></trkpt><trkpt lat="43.3491327" lon="11.4031996"><ele>271.25</ele><time>2026-05-02T08:52:13.352Z</time></trkpt><trkpt lat="43.3491418" lon="11.4030199"><ele>272.0</ele><time>2026-05-02T08:52:14.352Z</time></trkpt><trkpt lat="43.3491506" lon="11.4028368"><ele>273.75</ele><time>2026-05-02T08:52:15.363Z</time></trkpt><trkpt lat="43.3491655" lon="11.4026553"><ele>275.5</ele><time>2026-05-02T08:52:16.351Z</time></trkpt><trkpt lat="43.3491754" lon="11.4024698"><ele>277.25</ele><time>2026-05-02T08:52:17.341Z</time></trkpt><trkpt lat="43.3491931" lon="11.4022766"><ele>279.0</ele><time>2026-05-02T08:52:18.351Z</time></trkpt><trkpt lat="43.3492177" lon="11.4020808"><ele>281.0</ele><time>2026-05-02T08:52:19.346Z</time></trkpt><trkpt lat="43.349255" lon="11.4018996"><ele>283.0</ele><time>2026-05-02T08:52:20.352Z</time></trkpt><trkpt lat="43.3493201" lon="11.4017431"><ele>285.0</ele><time>2026-05-02T08:52:21.356Z</time></trkpt><trkpt lat="43.3494197" lon="11.4016046"><ele>287.0</ele><time>2026-05-02T08:52:22.366Z</time></trkpt><trkpt lat="43.3495414" lon="11.4015278"><ele>287.0</ele><time>2026-05-02T08:52:23.366Z</time></trkpt><trkpt lat="43.3496733" lon="11.4015186"><ele>287.0</ele><time>2026-05-02T08:52:24.348Z</time></trkpt><trkpt lat="43.3497908" lon="11.4015515"><ele>287.0</ele><time>2026-05-02T08:52:25.353Z</time></trkpt><trkpt lat="43.3498939" lon="11.4016047"><ele>287.0</ele><time>2026-05-02T08:52:26.358Z</time></trkpt><trkpt lat="43.3499938" lon="11.4016471"><ele>286.0</ele><time>2026-05-02T08:52:27.342Z</time></trkpt><trkpt lat="43.3500838" lon="11.401643"><ele>285.0</ele><time>2026-05-02T08:52:28.345Z</time></trkpt><trkpt lat="43.3501779" lon="11.4015679"><ele>284.0</ele><time>2026-05-02T08:52:29.359Z</time></trkpt><trkpt lat="43.3502449" lon="11.4014304"><ele>283.0</ele><time>2026-05-02T08:52:30.352Z</time></trkpt><trkpt lat="43.3502538" lon="11.4013063"><ele>282.0</ele><time>2026-05-02T08:52:31.354Z</time></trkpt><trkpt lat="43.3502015" lon="11.4011654"><ele>284.5</ele><time>2026-05-02T08:52:32.351Z</time></trkpt><trkpt lat="43.3501215" lon="11.4010226"><ele>287.0</ele><time>2026-05-02T08:52:33.362Z</time></trkpt><trkpt lat="43.3500188" lon="11.4008901"><ele>289.5</ele><time>2026-05-02T08:52:34.347Z</time></trkpt><trkpt lat="43.3499026" lon="11.4007662"><ele>292.0</ele><time>2026-05-02T08:52:35.362Z</time></trkpt><trkpt lat="43.3497629" lon="11.4006655"><ele>292.5</ele><time>2026-05-02T08:52:36.341Z</time></trkpt><trkpt lat="43.349621" lon="11.4006313"><ele>293.0</ele><time>2026-05-02T08:52:37.352Z</time></trkpt><trkpt lat="43.3494763" lon="11.4006505"><ele>293.5</ele><time>2026-05-02T08:52:38.345Z</time></trkpt><trkpt lat="43.3493352" lon="11.4007164"><ele>294.0</ele><time>2026-05-02T08:52:39.359Z</time></trkpt><trkpt lat="43.3491953" lon="11.4008059"><ele>294.0</ele><time>2026-05-02T08:52:40.354Z</time></trkpt><trkpt lat="43.3490635" lon="11.4008862"><ele>294.0</ele><time>2026-05-02T08:52:41.355Z</time></trkpt><trkpt lat="43.3489401" lon="11.4009671"><ele>294.0</ele><time>2026-05-02T08:52:42.352Z</time></trkpt><trkpt lat="43.3488276" lon="11.4010252"><ele>294.0</ele><time>2026-05-02T08:52:43.358Z</time></trkpt><trkpt lat="43.348707" lon="11.4010514"><ele>295.5</ele><time>2026-05-02T08:52:44.357Z</time></trkpt><trkpt lat="43.3486027" lon="11.401024"><ele>297.0</ele><time>2026-05-02T08:52:45.358Z</time></trkpt><trkpt lat="43.3484945" lon="11.4009527"><ele>298.5</ele><time>2026-05-02T08:52:46.349Z</time></trkpt><trkpt lat="43.3483897" lon="11.4008431"><ele>300.0</ele><time>2026-05-02T08:52:47.347Z</time></trkpt><trkpt lat="43.3482792" lon="11.4007148"><ele>300.0</ele><time>2026-05-02T08:52:48.36Z</time></trkpt><trkpt lat="43.3481641" lon="11.4005808"><ele>300.0</ele><time>2026-05-02T08:52:49.351Z</time></trkpt><trkpt lat="43.3480322" lon="11.4004607"><ele>300.0</ele><time>2026-05-02T08:52:50.344Z</time></trkpt><trkpt lat="43.3479025" lon="11.4003687"><ele>301.75</ele><time>2026-05-02T08:52:51.348Z</time></trkpt><trkpt lat="43.3477776" lon="11.4002953"><ele>303.5</ele><time>2026-05-02T08:52:52.351Z</time></trkpt><trkpt lat="43.3476681" lon="11.4002294"><ele>305.25</ele><time>2026-05-02T08:52:53.346Z</time></trkpt><trkpt lat="43.3475683" lon="11.4001587"><ele>307.0</ele><time>2026-05-02T08:52:54.347Z</time></trkpt><trkpt lat="43.34749" lon="11.4000622"><ele>307.0</ele><time>2026-05-02T08:52:55.35Z</time></trkpt><trkpt lat="43.3474342" lon="11.399932"><ele>307.0</ele><time>2026-05-02T08:52:56.342Z</time></trkpt><trkpt lat="43.3474057" lon="11.39978"><ele>307.0</ele><time>2026-05-02T08:52:57.347Z</time></trkpt><trkpt lat="43.3474254" lon="11.3996459"><ele>307.0</ele><time>2026-05-02T08:52:58.354Z</time></trkpt><trkpt lat="43.3474712" lon="11.3995188"><ele>307.0</ele><time>2026-05-02T08:52:59.349Z</time></trkpt><trkpt lat="43.347545" lon="11.3994148"><ele>307.25</ele><time>2026-05-02T08:53:00.342Z</time></trkpt><trkpt lat="43.3476327" lon="11.3993255"><ele>307.5</ele><time>2026-05-02T08:53:01.353Z</time></trkpt><trkpt lat="43.347727" lon="11.3992506"><ele>307.75</ele><time>2026-05-02T08:53:02.343Z</time></trkpt><trkpt lat="43.3478301" lon="11.3991752"><ele>308.0</ele><time>2026-05-02T08:53:03.35Z</time></trkpt><trkpt lat="43.3479431" lon="11.3991133"><ele>308.4</ele><time>2026-05-02T08:53:04.358Z</time></trkpt><trkpt lat="43.3480598" lon="11.39907"><ele>308.8</ele><time>2026-05-02T08:53:05.356Z</time></trkpt><trkpt lat="43.3481669" lon="11.3990412"><ele>309.2</ele><time>2026-05-02T08:53:06.355Z</time></trkpt><trkpt lat="43.3482682" lon="11.3990194"><ele>309.6</ele><time>2026-05-02T08:53:07.344Z</time></trkpt><trkpt lat="43.3483512" lon="11.3989986"><ele>310.0</ele><time>2026-05-02T08:53:08.348Z</time></trkpt><trkpt lat="43.3484322" lon="11.3989661"><ele>310.0</ele><time>2026-05-02T08:53:10.352Z</time></trkpt><trkpt lat="43.3484135" lon="11.3988754"><ele>310.0</ele><time>2026-05-02T08:53:12.354Z</time></trkpt><trkpt lat="43.3483656" lon="11.3987574"><ele>310.0</ele><time>2026-05-02T08:53:14.354Z</time></trkpt><trkpt lat="43.3483291" lon="11.398686"><ele>310.0</ele><time>2026-05-02T08:53:15.349Z</time></trkpt><trkpt lat="43.3482873" lon="11.3986021"><ele>310.0</ele><time>2026-05-02T08:53:16.357Z</time></trkpt><trkpt lat="43.348238" lon="11.398538"><ele>310.0</ele><time>2026-05-02T08:53:17.354Z</time></trkpt><trkpt lat="43.3481686" lon="11.3985008"><ele>310.0</ele><time>2026-05-02T08:53:18.355Z</time></trkpt><trkpt lat="43.3481028" lon="11.3984979"><ele>307.8</ele><time>2026-05-02T08:53:19.347Z</time></trkpt><trkpt lat="43.3480312" lon="11.3985219"><ele>305.6</ele><time>2026-05-02T08:53:20.337Z</time></trkpt><trkpt lat="43.3479488" lon="11.3985548"><ele>303.4</ele><time>2026-05-02T08:53:21.346Z</time></trkpt><trkpt lat="43.3478552" lon="11.3985975"><ele>301.2</ele><time>2026-05-02T08:53:22.347Z</time></trkpt><trkpt lat="43.3477588" lon="11.398637"><ele>299.0</ele><time>2026-05-02T08:53:23.356Z</time></trkpt><trkpt lat="43.3476598" lon="11.3986624"><ele>299.0</ele><time>2026-05-02T08:53:24.353Z</time></trkpt><trkpt lat="43.3475546" lon="11.3986799"><ele>299.0</ele><time>2026-05-02T08:53:25.346Z</time></trkpt><trkpt lat="43.3474469" lon="11.3987029"><ele>299.0</ele><time>2026-05-02T08:53:26.348Z</time></trkpt><trkpt lat="43.3473411" lon="11.398722"><ele>299.0</ele><time>2026-05-02T08:53:27.352Z</time></trkpt><trkpt lat="43.3472301" lon="11.3987365"><ele>299.0</ele><time>2026-05-02T08:53:28.344Z</time></trkpt><trkpt lat="43.3471195" lon="11.3987542"><ele>299.75</ele><time>2026-05-02T08:53:29.346Z</time></trkpt><trkpt lat="43.3470033" lon="11.3987929"><ele>300.5</ele><time>2026-05-02T08:53:30.356Z</time></trkpt><trkpt lat="43.3468949" lon="11.398852"><ele>301.25</ele><time>2026-05-02T08:53:31.344Z</time></trkpt><trkpt lat="43.3468009" lon="11.3989321"><ele>302.0</ele><time>2026-05-02T08:53:32.357Z</time></trkpt><trkpt lat="43.3467198" lon="11.3990435"><ele>302.0</ele><time>2026-05-02T08:53:33.344Z</time></trkpt><trkpt lat="43.3466393" lon="11.3991612"><ele>302.0</ele><time>2026-05-02T08:53:34.348Z</time></trkpt><trkpt lat="43.346562" lon="11.3992812"><ele>302.0</ele><time>2026-05-02T08:53:35.355Z</time></trkpt><trkpt lat="43.3464907" lon="11.3993948"><ele>302.0</ele><time>2026-05-02T08:53:36.349Z</time></trkpt><trkpt lat="43.3464215" lon="11.399506"><ele>301.5</ele><time>2026-05-02T08:53:37.357Z</time></trkpt><trkpt lat="43.3463546" lon="11.3996094"><ele>301.0</ele><time>2026-05-02T08:53:38.359Z</time></trkpt><trkpt lat="43.3462916" lon="11.3997094"><ele>300.5</ele><time>2026-05-02T08:53:39.348Z</time></trkpt><trkpt lat="43.3462332" lon="11.3997956"><ele>300.0</ele><time>2026-05-02T08:53:40.35Z</time></trkpt><trkpt lat="43.3461777" lon="11.3998811"><ele>299.5</ele><time>2026-05-02T08:53:41.35Z</time></trkpt><trkpt lat="43.3461272" lon="11.3999652"><ele>299.0</ele><time>2026-05-02T08:53:42.348Z</time></trkpt><trkpt lat="43.346077" lon="11.4000444"><ele>299.0</ele><time>2026-05-02T08:53:43.347Z</time></trkpt><trkpt lat="43.3460258" lon="11.4001165"><ele>299.0</ele><time>2026-05-02T08:53:44.351Z</time></trkpt><trkpt lat="43.3459759" lon="11.4001982"><ele>299.0</ele><time>2026-05-02T08:53:45.355Z</time></trkpt><trkpt lat="43.345921" lon="11.4002915"><ele>299.0</ele><time>2026-05-02T08:53:46.343Z</time></trkpt><trkpt lat="43.3458574" lon="11.4003892"><ele>299.0</ele><time>2026-05-02T08:53:47.356Z</time></trkpt><trkpt lat="43.3457923" lon="11.4004951"><ele>299.0</ele><time>2026-05-02T08:53:48.347Z</time></trkpt><trkpt lat="43.3457236" lon="11.4005968"><ele>299.0</ele><time>2026-05-02T08:53:49.345Z</time></trkpt><trkpt lat="43.3456449" lon="11.4007066"><ele>299.0</ele><time>2026-05-02T08:53:50.344Z</time></trkpt><trkpt lat="43.3455642" lon="11.4008157"><ele>299.0</ele><time>2026-05-02T08:53:51.368Z</time></trkpt><trkpt lat="43.3454893" lon="11.4009156"><ele>299.0</ele><time>2026-05-02T08:53:52.364Z</time></trkpt><trkpt lat="43.3454155" lon="11.4010128"><ele>299.0</ele><time>2026-05-02T08:53:53.351Z</time></trkpt><trkpt lat="43.345342" lon="11.4010856"><ele>299.0</ele><time>2026-05-02T08:53:54.349Z</time></trkpt><trkpt lat="43.3452571" lon="11.4011379"><ele>299.0</ele><time>2026-05-02T08:53:55.345Z</time></trkpt><trkpt lat="43.3451731" lon="11.4011731"><ele>299.0</ele><time>2026-05-02T08:53:56.341Z</time></trkpt><trkpt lat="43.3450807" lon="11.4012135"><ele>299.0</ele><time>2026-05-02T08:53:57.342Z</time></trkpt><trkpt lat="43.3449925" lon="11.4012564"><ele>299.0</ele><time>2026-05-02T08:53:58.341Z</time></trkpt><trkpt lat="43.3449011" lon="11.4012861"><ele>299.0</ele><time>2026-05-02T08:53:59.358Z</time></trkpt><trkpt lat="43.344808" lon="11.4013096"><ele>299.0</ele><time>2026-05-02T08:54:00.364Z</time></trkpt><trkpt lat="43.3447085" lon="11.4013321"><ele>299.0</ele><time>2026-05-02T08:54:01.367Z</time></trkpt><trkpt lat="43.3446082" lon="11.401341"><ele>299.0</ele><time>2026-05-02T08:54:02.345Z</time></trkpt><trkpt lat="43.3445093" lon="11.4013434"><ele>299.0</ele><time>2026-05-02T08:54:03.355Z</time></trkpt><trkpt lat="43.3444136" lon="11.4013469"><ele>297.8</ele><time>2026-05-02T08:54:04.363Z</time></trkpt><trkpt lat="43.3443134" lon="11.401359"><ele>296.59999999999997</ele><time>2026-05-02T08:54:05.345Z</time></trkpt><trkpt lat="43.3442092" lon="11.4013808"><ele>295.4</ele><time>2026-05-02T08:54:06.345Z</time></trkpt><trkpt lat="43.3441023" lon="11.4014047"><ele>294.2</ele><time>2026-05-02T08:54:07.35Z</time></trkpt><trkpt lat="43.3439946" lon="11.4014384"><ele>293.0</ele><time>2026-05-02T08:54:08.343Z</time></trkpt><trkpt lat="43.3439054" lon="11.401486"><ele>292.83333333333337</ele><time>2026-05-02T08:54:09.346Z</time></trkpt><trkpt lat="43.3438185" lon="11.4015342"><ele>292.6666666666667</ele><time>2026-05-02T08:54:10.349Z</time></trkpt><trkpt lat="43.3437419" lon="11.4015762"><ele>292.5</ele><time>2026-05-02T08:54:11.361Z</time></trkpt><trkpt lat="43.3436679" lon="11.4016161"><ele>292.3333333333333</ele><time>2026-05-02T08:54:12.351Z</time></trkpt><trkpt lat="43.3435983" lon="11.4016565"><ele>292.16666666666663</ele><time>2026-05-02T08:54:13.35Z</time></trkpt><trkpt lat="43.34354" lon="11.4016957"><ele>292.0</ele><time>2026-05-02T08:54:14.362Z</time></trkpt><trkpt lat="43.3434335" lon="11.4017736"><ele>292.0</ele><time>2026-05-02T08:54:16.368Z</time></trkpt><trkpt lat="43.3433405" lon="11.4018643"><ele>292.0</ele><time>2026-05-02T08:54:18.355Z</time></trkpt><trkpt lat="43.3432635" lon="11.4019797"><ele>292.0</ele><time>2026-05-02T08:54:20.352Z</time></trkpt><trkpt lat="43.3432026" lon="11.4021144"><ele>292.0</ele><time>2026-05-02T08:54:22.345Z</time></trkpt><trkpt lat="43.3431539" lon="11.4022669"><ele>291.5</ele><time>2026-05-02T08:54:24.346Z</time></trkpt><trkpt lat="43.3431107" lon="11.4024353"><ele>291.0</ele><time>2026-05-02T08:54:26.343Z</time></trkpt><trkpt lat="43.3430944" lon="11.4025315"><ele>290.5</ele><time>2026-05-02T08:54:27.35Z</time></trkpt><trkpt lat="43.3430835" lon="11.4026269"><ele>290.0</ele><time>2026-05-02T08:54:28.347Z</time></trkpt><trkpt lat="43.3430785" lon="11.4027339"><ele>289.5</ele><time>2026-05-02T08:54:29.354Z</time></trkpt><trkpt lat="43.3430697" lon="11.4028451"><ele>289.0</ele><time>2026-05-02T08:54:30.352Z</time></trkpt><trkpt lat="43.3430515" lon="11.4029607"><ele>289.0</ele><time>2026-05-02T08:54:31.358Z</time></trkpt><trkpt lat="43.3430192" lon="11.4030722"><ele>289.0</ele><time>2026-05-02T08:54:32.348Z</time></trkpt><trkpt lat="43.3429632" lon="11.4031831"><ele>289.0</ele><time>2026-05-02T08:54:33.343Z</time></trkpt><trkpt lat="43.3428869" lon="11.4032709"><ele>289.0</ele><time>2026-05-02T08:54:34.348Z</time></trkpt><trkpt lat="43.3427993" lon="11.4033052"><ele>289.0</ele><time>2026-05-02T08:54:35.354Z</time></trkpt><trkpt lat="43.3427177" lon="11.4033053"><ele>289.0</ele><time>2026-05-02T08:54:36.348Z</time></trkpt><trkpt lat="43.342632" lon="11.4033196"><ele>289.0</ele><time>2026-05-02T08:54:37.362Z</time></trkpt><trkpt lat="43.3425478" lon="11.4033377"><ele>289.0</ele><time>2026-05-02T08:54:38.344Z</time></trkpt><trkpt lat="43.3424641" lon="11.403377"><ele>289.0</ele><time>2026-05-02T08:54:39.357Z</time></trkpt><trkpt lat="43.3423863" lon="11.4034196"><ele>289.0</ele><time>2026-05-02T08:54:40.344Z</time></trkpt><trkpt lat="43.3423092" lon="11.4034842"><ele>289.0</ele><time>2026-05-02T08:54:41.353Z</time></trkpt><trkpt lat="43.3422266" lon="11.4035666"><ele>288.0</ele><time>2026-05-02T08:54:42.362Z</time></trkpt><trkpt lat="43.3421485" lon="11.4036534"><ele>287.0</ele><time>2026-05-02T08:54:43.348Z</time></trkpt><trkpt lat="43.3420691" lon="11.4037396"><ele>286.0</ele><time>2026-05-02T08:54:44.338Z</time></trkpt><trkpt lat="43.3419921" lon="11.4038332"><ele>285.0</ele><time>2026-05-02T08:54:45.348Z</time></trkpt><trkpt lat="43.3419152" lon="11.4039195"><ele>284.0</ele><time>2026-05-02T08:54:46.351Z</time></trkpt><trkpt lat="43.3418417" lon="11.404014"><ele>284.0</ele><time>2026-05-02T08:54:47.353Z</time></trkpt><trkpt lat="43.341769" lon="11.4041046"><ele>284.0</ele><time>2026-05-02T08:54:48.357Z</time></trkpt><trkpt lat="43.3416958" lon="11.4041918"><ele>284.0</ele><time>2026-05-02T08:54:49.35Z</time></trkpt><trkpt lat="43.3416172" lon="11.4042736"><ele>284.0</ele><time>2026-05-02T08:54:50.349Z</time></trkpt><trkpt lat="43.3415395" lon="11.4043619"><ele>284.0</ele><time>2026-05-02T08:54:51.354Z</time></trkpt><trkpt lat="43.3414634" lon="11.4044539"><ele>284.0</ele><time>2026-05-02T08:54:52.355Z</time></trkpt><trkpt lat="43.3413889" lon="11.4045477"><ele>284.0</ele><time>2026-05-02T08:54:53.353Z</time></trkpt><trkpt lat="43.3413197" lon="11.404652"><ele>284.0</ele><time>2026-05-02T08:54:54.347Z</time></trkpt><trkpt lat="43.3412478" lon="11.404765"><ele>284.0</ele><time>2026-05-02T08:54:55.346Z</time></trkpt><trkpt lat="43.3411804" lon="11.4048775"><ele>284.0</ele><time>2026-05-02T08:54:56.36Z</time></trkpt><trkpt lat="43.3411095" lon="11.4049843"><ele>285.2</ele><time>2026-05-02T08:54:57.361Z</time></trkpt><trkpt lat="43.3410373" lon="11.4050836"><ele>286.4</ele><time>2026-05-02T08:54:58.343Z</time></trkpt><trkpt lat="43.3409634" lon="11.4051808"><ele>287.6</ele><time>2026-05-02T08:54:59.343Z</time></trkpt><trkpt lat="43.3408801" lon="11.4052655"><ele>288.8</ele><time>2026-05-02T08:55:00.354Z</time></trkpt><trkpt lat="43.3407973" lon="11.4053379"><ele>290.0</ele><time>2026-05-02T08:55:01.353Z</time></trkpt><trkpt lat="43.3407105" lon="11.4053957"><ele>290.0</ele><time>2026-05-02T08:55:02.366Z</time></trkpt><trkpt lat="43.3406257" lon="11.4054518"><ele>290.0</ele><time>2026-05-02T08:55:03.349Z</time></trkpt><trkpt lat="43.3405392" lon="11.4055051"><ele>290.0</ele><time>2026-05-02T08:55:04.357Z</time></trkpt><trkpt lat="43.3404504" lon="11.40556"><ele>290.0</ele><time>2026-05-02T08:55:05.348Z</time></trkpt><trkpt lat="43.3403634" lon="11.4056106"><ele>290.0</ele><time>2026-05-02T08:55:06.351Z</time></trkpt><trkpt lat="43.3402757" lon="11.4056607"><ele>290.0</ele><time>2026-05-02T08:55:07.36Z</time></trkpt><trkpt lat="43.3401913" lon="11.4057186"><ele>290.0</ele><time>2026-05-02T08:55:08.344Z</time></trkpt><trkpt lat="43.3401096" lon="11.4057709"><ele>290.0</ele><time>2026-05-02T08:55:09.365Z</time></trkpt><trkpt lat="43.3400249" lon="11.4058216"><ele>290.0</ele><time>2026-05-02T08:55:10.346Z</time></trkpt><trkpt lat="43.3399413" lon="11.4058725"><ele>290.0</ele><time>2026-05-02T08:55:11.355Z</time></trkpt><trkpt lat="43.3398628" lon="11.4059225"><ele>290.0</ele><time>2026-05-02T08:55:12.343Z</time></trkpt><trkpt lat="43.3397839" lon="11.4059734"><ele>290.0</ele><time>2026-05-02T08:55:13.348Z</time></trkpt><trkpt lat="43.3397083" lon="11.4060337"><ele>290.0</ele><time>2026-05-02T08:55:14.357Z</time></trkpt><trkpt lat="43.3396471" lon="11.4060974"><ele>290.0</ele><time>2026-05-02T08:55:15.354Z</time></trkpt><trkpt lat="43.3395955" lon="11.4061729"><ele>290.0</ele><time>2026-05-02T08:55:16.353Z</time></trkpt><trkpt lat="43.339551" lon="11.406262"><ele>290.0</ele><time>2026-05-02T08:55:17.347Z</time></trkpt><trkpt lat="43.3395156" lon="11.4063648"><ele>289.4</ele><time>2026-05-02T08:55:18.351Z</time></trkpt><trkpt lat="43.3394705" lon="11.4064698"><ele>288.8</ele><time>2026-05-02T08:55:19.35Z</time></trkpt><trkpt lat="43.3394139" lon="11.4065817"><ele>288.2</ele><time>2026-05-02T08:55:20.343Z</time></trkpt><trkpt lat="43.339346" lon="11.4066884"><ele>287.6</ele><time>2026-05-02T08:55:21.346Z</time></trkpt><trkpt lat="43.339271" lon="11.4067941"><ele>287.0</ele><time>2026-05-02T08:55:22.352Z</time></trkpt><trkpt lat="43.3391869" lon="11.4068905"><ele>287.0</ele><time>2026-05-02T08:55:23.352Z</time></trkpt><trkpt lat="43.3391006" lon="11.4069866"><ele>287.0</ele><time>2026-05-02T08:55:24.36Z</time></trkpt><trkpt lat="43.339013" lon="11.4070866"><ele>287.0</ele><time>2026-05-02T08:55:25.349Z</time></trkpt><trkpt lat="43.3389316" lon="11.4071878"><ele>287.0</ele><time>2026-05-02T08:55:26.349Z</time></trkpt><trkpt lat="43.3388544" lon="11.407281"><ele>287.0</ele><time>2026-05-02T08:55:27.351Z</time></trkpt><trkpt lat="43.3387749" lon="11.4073758"><ele>287.4</ele><time>2026-05-02T08:55:28.34Z</time></trkpt><trkpt lat="43.3386919" lon="11.4074659"><ele>287.79999999999995</ele><time>2026-05-02T08:55:29.354Z</time></trkpt><trkpt lat="43.3386109" lon="11.4075462"><ele>288.2</ele><time>2026-05-02T08:55:30.355Z</time></trkpt><trkpt lat="43.3385321" lon="11.4076216"><ele>288.59999999999997</ele><time>2026-05-02T08:55:31.352Z</time></trkpt><trkpt lat="43.3384536" lon="11.407682"><ele>289.0</ele><time>2026-05-02T08:55:32.348Z</time></trkpt><trkpt lat="43.338382" lon="11.4077307"><ele>289.0</ele><time>2026-05-02T08:55:33.35Z</time></trkpt><trkpt lat="43.3383135" lon="11.4077716"><ele>289.0</ele><time>2026-05-02T08:55:34.336Z</time></trkpt><trkpt lat="43.3382522" lon="11.4078033"><ele>289.0</ele><time>2026-05-02T08:55:35.352Z</time></trkpt><trkpt lat="43.3381321" lon="11.4078276"><ele>289.0</ele><time>2026-05-02T08:55:37.355Z</time></trkpt><trkpt lat="43.3380696" lon="11.407811"><ele>289.0</ele><time>2026-05-02T08:55:38.355Z</time></trkpt><trkpt lat="43.3379986" lon="11.4077706"><ele>289.0</ele><time>2026-05-02T08:55:39.35Z</time></trkpt><trkpt lat="43.3379222" lon="11.4077126"><ele>289.4</ele><time>2026-05-02T08:55:40.338Z</time></trkpt><trkpt lat="43.3378363" lon="11.4076371"><ele>289.79999999999995</ele><time>2026-05-02T08:55:41.345Z</time></trkpt><trkpt lat="43.3377507" lon="11.4075559"><ele>290.20000000000005</ele><time>2026-05-02T08:55:42.35Z</time></trkpt><trkpt lat="43.3376604" lon="11.4074747"><ele>290.6</ele><time>2026-05-02T08:55:43.334Z</time></trkpt><trkpt lat="43.3375666" lon="11.407391"><ele>291.0</ele><time>2026-05-02T08:55:44.358Z</time></trkpt><trkpt lat="43.3374752" lon="11.4073073"><ele>291.0</ele><time>2026-05-02T08:55:45.348Z</time></trkpt><trkpt lat="43.3373837" lon="11.4072145"><ele>291.0</ele><time>2026-05-02T08:55:46.346Z</time></trkpt><trkpt lat="43.3372903" lon="11.4071298"><ele>291.0</ele><time>2026-05-02T08:55:47.351Z</time></trkpt><trkpt lat="43.3372013" lon="11.4070624"><ele>291.0</ele><time>2026-05-02T08:55:48.351Z</time></trkpt><trkpt lat="43.3371131" lon="11.4070013"><ele>291.0</ele><time>2026-05-02T08:55:49.352Z</time></trkpt><trkpt lat="43.3370194" lon="11.4069535"><ele>291.2</ele><time>2026-05-02T08:55:50.358Z</time></trkpt><trkpt lat="43.3369235" lon="11.4069123"><ele>291.40000000000003</ele><time>2026-05-02T08:55:51.344Z</time></trkpt><trkpt lat="43.3368269" lon="11.406871"><ele>291.6</ele><time>2026-05-02T08:55:52.356Z</time></trkpt><trkpt lat="43.336728" lon="11.4068356"><ele>291.8</ele><time>2026-05-02T08:55:53.345Z</time></trkpt><trkpt lat="43.3366297" lon="11.4067875"><ele>292.0</ele><time>2026-05-02T08:55:54.346Z</time></trkpt><trkpt lat="43.3365324" lon="11.4067433"><ele>292.0</ele><time>2026-05-02T08:55:55.36Z</time></trkpt><trkpt lat="43.336435" lon="11.4067133"><ele>292.0</ele><time>2026-05-02T08:55:56.356Z</time></trkpt><trkpt lat="43.336343" lon="11.4066945"><ele>292.0</ele><time>2026-05-02T08:55:57.359Z</time></trkpt><trkpt lat="43.3362473" lon="11.4066898"><ele>292.0</ele><time>2026-05-02T08:55:58.352Z</time></trkpt><trkpt lat="43.3361511" lon="11.4067143"><ele>292.0</ele><time>2026-05-02T08:55:59.351Z</time></trkpt><trkpt lat="43.3360623" lon="11.406752"><ele>293.4</ele><time>2026-05-02T08:56:00.344Z</time></trkpt><trkpt lat="43.3359786" lon="11.4068109"><ele>294.79999999999995</ele><time>2026-05-02T08:56:01.345Z</time></trkpt><trkpt lat="43.3358983" lon="11.40688"><ele>296.2</ele><time>2026-05-02T08:56:02.355Z</time></trkpt><trkpt lat="43.3358185" lon="11.406962"><ele>297.59999999999997</ele><time>2026-05-02T08:56:03.344Z</time></trkpt><trkpt lat="43.3357385" lon="11.4070586"><ele>299.0</ele><time>2026-05-02T08:56:04.358Z</time></trkpt><trkpt lat="43.3356592" lon="11.407155"><ele>298.59999999999997</ele><time>2026-05-02T08:56:05.346Z</time></trkpt><trkpt lat="43.335576" lon="11.4072462"><ele>298.2</ele><time>2026-05-02T08:56:06.352Z</time></trkpt><trkpt lat="43.3354845" lon="11.4073192"><ele>297.79999999999995</ele><time>2026-05-02T08:56:07.35Z</time></trkpt><trkpt lat="43.3353894" lon="11.4073792"><ele>297.4</ele><time>2026-05-02T08:56:08.347Z</time></trkpt><trkpt lat="43.3352928" lon="11.4074048"><ele>297.0</ele><time>2026-05-02T08:56:09.347Z</time></trkpt><trkpt lat="43.3351863" lon="11.4074201"><ele>297.0</ele><time>2026-05-02T08:56:10.349Z</time></trkpt><trkpt lat="43.3350636" lon="11.4074313"><ele>297.0</ele><time>2026-05-02T08:56:11.348Z</time></trkpt><trkpt lat="43.33494" lon="11.4074546"><ele>297.0</ele><time>2026-05-02T08:56:12.345Z</time></trkpt><trkpt lat="43.3348173" lon="11.4074752"><ele>297.0</ele><time>2026-05-02T08:56:13.346Z</time></trkpt><trkpt lat="43.3346956" lon="11.4074953"><ele>295.6</ele><time>2026-05-02T08:56:14.366Z</time></trkpt><trkpt lat="43.3345877" lon="11.4075053"><ele>294.2</ele><time>2026-05-02T08:56:15.353Z</time></trkpt><trkpt lat="43.3344961" lon="11.4075043"><ele>292.8</ele><time>2026-05-02T08:56:16.355Z</time></trkpt><trkpt lat="43.3344264" lon="11.4074999"><ele>291.4</ele><time>2026-05-02T08:56:17.354Z</time></trkpt><trkpt lat="43.3343635" lon="11.4074824"><ele>290.0</ele><time>2026-05-02T08:56:18.344Z</time></trkpt><trkpt lat="43.3342664" lon="11.4073821"><ele>290.0</ele><time>2026-05-02T08:56:20.344Z</time></trkpt><trkpt lat="43.334242" lon="11.407295"><ele>290.0</ele><time>2026-05-02T08:56:21.346Z</time></trkpt><trkpt lat="43.3342337" lon="11.4071878"><ele>290.0</ele><time>2026-05-02T08:56:22.351Z</time></trkpt><trkpt lat="43.334224" lon="11.4070677"><ele>290.0</ele><time>2026-05-02T08:56:23.354Z</time></trkpt><trkpt lat="43.334215" lon="11.4069346"><ele>290.0</ele><time>2026-05-02T08:56:24.352Z</time></trkpt><trkpt lat="43.3342008" lon="11.4068018"><ele>290.0</ele><time>2026-05-02T08:56:25.352Z</time></trkpt><trkpt lat="43.3341861" lon="11.4066677"><ele>289.83333333333337</ele><time>2026-05-02T08:56:26.345Z</time></trkpt><trkpt lat="43.3341678" lon="11.4065384"><ele>289.6666666666667</ele><time>2026-05-02T08:56:27.349Z</time></trkpt><trkpt lat="43.3341516" lon="11.4064191"><ele>289.5</ele><time>2026-05-02T08:56:28.347Z</time></trkpt><trkpt lat="43.334135" lon="11.406309"><ele>289.3333333333333</ele><time>2026-05-02T08:56:29.345Z</time></trkpt><trkpt lat="43.3341194" lon="11.4062051"><ele>289.16666666666663</ele><time>2026-05-02T08:56:30.352Z</time></trkpt><trkpt lat="43.334108" lon="11.4061062"><ele>289.0</ele><time>2026-05-02T08:56:31.35Z</time></trkpt><trkpt lat="43.3340946" lon="11.406007"><ele>288.5</ele><time>2026-05-02T08:56:32.344Z</time></trkpt><trkpt lat="43.3340935" lon="11.4059072"><ele>288.0</ele><time>2026-05-02T08:56:33.354Z</time></trkpt><trkpt lat="43.334095" lon="11.4057993"><ele>287.5</ele><time>2026-05-02T08:56:34.348Z</time></trkpt><trkpt lat="43.3341038" lon="11.4056803"><ele>287.0</ele><time>2026-05-02T08:56:35.347Z</time></trkpt><trkpt lat="43.3341134" lon="11.4055612"><ele>286.5</ele><time>2026-05-02T08:56:36.342Z</time></trkpt><trkpt lat="43.3341229" lon="11.4054317"><ele>286.0</ele><time>2026-05-02T08:56:37.347Z</time></trkpt><trkpt lat="43.3341349" lon="11.4052962"><ele>285.2</ele><time>2026-05-02T08:56:38.35Z</time></trkpt><trkpt lat="43.334149" lon="11.4051681"><ele>284.40000000000003</ele><time>2026-05-02T08:56:39.348Z</time></trkpt><trkpt lat="43.3341608" lon="11.4050471"><ele>283.6</ele><time>2026-05-02T08:56:40.346Z</time></trkpt><trkpt lat="43.3341704" lon="11.4049463"><ele>282.8</ele><time>2026-05-02T08:56:41.359Z</time></trkpt><trkpt lat="43.3341824" lon="11.4047799"><ele>282.0</ele><time>2026-05-02T08:56:43.351Z</time></trkpt><trkpt lat="43.334191" lon="11.4046248"><ele>282.0</ele><time>2026-05-02T08:56:45.349Z</time></trkpt><trkpt lat="43.3342102" lon="11.404496"><ele>282.0</ele><time>2026-05-02T08:56:47.341Z</time></trkpt><trkpt lat="43.3342181" lon="11.4043566"><ele>282.0</ele><time>2026-05-02T08:56:49.352Z</time></trkpt><trkpt lat="43.3342128" lon="11.404218"><ele>282.0</ele><time>2026-05-02T08:56:51.348Z</time></trkpt><trkpt lat="43.3341624" lon="11.4040986"><ele>282.0</ele><time>2026-05-02T08:56:53.34Z</time></trkpt><trkpt lat="43.3340606" lon="11.4040427"><ele>282.0</ele><time>2026-05-02T08:56:55.364Z</time></trkpt><trkpt lat="43.333998" lon="11.404063"><ele>282.0</ele><time>2026-05-02T08:56:56.357Z</time></trkpt><trkpt lat="43.3339297" lon="11.4041061"><ele>282.0</ele><time>2026-05-02T08:56:57.352Z</time></trkpt><trkpt lat="43.3338636" lon="11.4041468"><ele>282.0</ele><time>2026-05-02T08:56:58.346Z</time></trkpt><trkpt lat="43.3337941" lon="11.4041802"><ele>282.0</ele><time>2026-05-02T08:56:59.364Z</time></trkpt><trkpt lat="43.3337179" lon="11.4042119"><ele>282.0</ele><time>2026-05-02T08:57:00.347Z</time></trkpt><trkpt lat="43.3336404" lon="11.4042454"><ele>282.0</ele><time>2026-05-02T08:57:01.342Z</time></trkpt><trkpt lat="43.3335547" lon="11.4042854"><ele>281.6</ele><time>2026-05-02T08:57:02.349Z</time></trkpt><trkpt lat="43.3334666" lon="11.4043294"><ele>281.2</ele><time>2026-05-02T08:57:03.355Z</time></trkpt><trkpt lat="43.3333737" lon="11.4043848"><ele>280.8</ele><time>2026-05-02T08:57:04.358Z</time></trkpt><trkpt lat="43.333275" lon="11.4044387"><ele>280.4</ele><time>2026-05-02T08:57:05.356Z</time></trkpt><trkpt lat="43.3331876" lon="11.4044844"><ele>280.0</ele><time>2026-05-02T08:57:06.37Z</time></trkpt><trkpt lat="43.3331052" lon="11.4045299"><ele>280.2</ele><time>2026-05-02T08:57:07.352Z</time></trkpt><trkpt lat="43.3330156" lon="11.404569"><ele>280.4</ele><time>2026-05-02T08:57:08.354Z</time></trkpt><trkpt lat="43.3329255" lon="11.4046199"><ele>280.6</ele><time>2026-05-02T08:57:09.359Z</time></trkpt><trkpt lat="43.3328282" lon="11.4046713"><ele>280.8</ele><time>2026-05-02T08:57:10.349Z</time></trkpt><trkpt lat="43.3327282" lon="11.4047253"><ele>281.0</ele><time>2026-05-02T08:57:11.356Z</time></trkpt><trkpt lat="43.332625" lon="11.4047873"><ele>280.40000000000003</ele><time>2026-05-02T08:57:12.336Z</time></trkpt><trkpt lat="43.3325154" lon="11.4048465"><ele>279.8</ele><time>2026-05-02T08:57:13.354Z</time></trkpt><trkpt lat="43.3324199" lon="11.404904"><ele>279.20000000000005</ele><time>2026-05-02T08:57:14.351Z</time></trkpt><trkpt lat="43.3323241" lon="11.4049652"><ele>278.6</ele><time>2026-05-02T08:57:15.35Z</time></trkpt><trkpt lat="43.3322223" lon="11.4050215"><ele>278.0</ele><time>2026-05-02T08:57:16.35Z</time></trkpt><trkpt lat="43.3321073" lon="11.4050843"><ele>278.0</ele><time>2026-05-02T08:57:17.349Z</time></trkpt><trkpt lat="43.3319879" lon="11.4051463"><ele>278.0</ele><time>2026-05-02T08:57:18.336Z</time></trkpt><trkpt lat="43.3318713" lon="11.4051988"><ele>278.0</ele><time>2026-05-02T08:57:19.362Z</time></trkpt><trkpt lat="43.3317481" lon="11.4052457"><ele>278.0</ele><time>2026-05-02T08:57:20.354Z</time></trkpt><trkpt lat="43.3316207" lon="11.4052899"><ele>278.0</ele><time>2026-05-02T08:57:21.346Z</time></trkpt><trkpt lat="43.3314878" lon="11.4053207"><ele>278.0</ele><time>2026-05-02T08:57:22.353Z</time></trkpt><trkpt lat="43.3313577" lon="11.4053426"><ele>278.0</ele><time>2026-05-02T08:57:23.352Z</time></trkpt><trkpt lat="43.3312417" lon="11.4053647"><ele>278.0</ele><time>2026-05-02T08:57:24.343Z</time></trkpt><trkpt lat="43.3311278" lon="11.405396"><ele>276.8</ele><time>2026-05-02T08:57:25.367Z</time></trkpt><trkpt lat="43.33102" lon="11.4054172"><ele>275.6</ele><time>2026-05-02T08:57:26.344Z</time></trkpt><trkpt lat="43.3309192" lon="11.4054433"><ele>274.4</ele><time>2026-05-02T08:57:27.35Z</time></trkpt><trkpt lat="43.3308311" lon="11.4054732"><ele>273.2</ele><time>2026-05-02T08:57:28.348Z</time></trkpt><trkpt lat="43.3307324" lon="11.4055027"><ele>272.0</ele><time>2026-05-02T08:57:29.345Z</time></trkpt><trkpt lat="43.3306344" lon="11.4055374"><ele>270.0</ele><time>2026-05-02T08:57:30.353Z</time></trkpt><trkpt lat="43.3305321" lon="11.4055756"><ele>268.0</ele><time>2026-05-02T08:57:31.355Z</time></trkpt><trkpt lat="43.33042" lon="11.4056121"><ele>266.0</ele><time>2026-05-02T08:57:32.353Z</time></trkpt><trkpt lat="43.3303048" lon="11.4056491"><ele>264.0</ele><time>2026-05-02T08:57:33.34Z</time></trkpt><trkpt lat="43.3301881" lon="11.4056961"><ele>264.0</ele><time>2026-05-02T08:57:34.351Z</time></trkpt><trkpt lat="43.3300773" lon="11.4057577"><ele>264.0</ele><time>2026-05-02T08:57:35.344Z</time></trkpt><trkpt lat="43.3299645" lon="11.4058211"><ele>264.0</ele><time>2026-05-02T08:57:36.343Z</time></trkpt><trkpt lat="43.3298564" lon="11.4058954"><ele>264.0</ele><time>2026-05-02T08:57:37.351Z</time></trkpt><trkpt lat="43.3297494" lon="11.4059717"><ele>262.75</ele><time>2026-05-02T08:57:38.345Z</time></trkpt><trkpt lat="43.3296424" lon="11.4060555"><ele>261.5</ele><time>2026-05-02T08:57:39.349Z</time></trkpt><trkpt lat="43.3295406" lon="11.4061536"><ele>260.25</ele><time>2026-05-02T08:57:40.336Z</time></trkpt><trkpt lat="43.3294463" lon="11.4062621"><ele>259.0</ele><time>2026-05-02T08:57:41.342Z</time></trkpt><trkpt lat="43.3293563" lon="11.406377"><ele>258.75</ele><time>2026-05-02T08:57:42.353Z</time></trkpt><trkpt lat="43.329258" lon="11.4065017"><ele>258.5</ele><time>2026-05-02T08:57:43.348Z</time></trkpt><trkpt lat="43.3291638" lon="11.4066253"><ele>258.25</ele><time>2026-05-02T08:57:44.36Z</time></trkpt><trkpt lat="43.3290659" lon="11.4067422"><ele>258.0</ele><time>2026-05-02T08:57:45.346Z</time></trkpt><trkpt lat="43.3289547" lon="11.4068732"><ele>257.6666666666667</ele><time>2026-05-02T08:57:46.357Z</time></trkpt><trkpt lat="43.3288329" lon="11.4070112"><ele>257.33333333333337</ele><time>2026-05-02T08:57:47.354Z</time></trkpt><trkpt lat="43.3287125" lon="11.4071615"><ele>257.0</ele><time>2026-05-02T08:57:48.337Z</time></trkpt><trkpt lat="43.3286035" lon="11.4072987"><ele>256.0</ele><time>2026-05-02T08:57:49.352Z</time></trkpt><trkpt lat="43.3284911" lon="11.4074331"><ele>255.0</ele><time>2026-05-02T08:57:50.348Z</time></trkpt><trkpt lat="43.3283758" lon="11.4075709"><ele>254.0</ele><time>2026-05-02T08:57:51.351Z</time></trkpt><trkpt lat="43.3282654" lon="11.4077011"><ele>253.0</ele><time>2026-05-02T08:57:52.343Z</time></trkpt><trkpt lat="43.3281502" lon="11.4078275"><ele>253.0</ele><time>2026-05-02T08:57:53.362Z</time></trkpt><trkpt lat="43.3280442" lon="11.4079516"><ele>253.0</ele><time>2026-05-02T08:57:54.342Z</time></trkpt><trkpt lat="43.3279384" lon="11.4080785"><ele>253.0</ele><time>2026-05-02T08:57:55.357Z</time></trkpt><trkpt lat="43.3278328" lon="11.4082017"><ele>253.0</ele><time>2026-05-02T08:57:56.351Z</time></trkpt><trkpt lat="43.3277265" lon="11.4083217"><ele>253.0</ele><time>2026-05-02T08:57:57.351Z</time></trkpt><trkpt lat="43.3276213" lon="11.4084372"><ele>253.0</ele><time>2026-05-02T08:57:58.349Z</time></trkpt><trkpt lat="43.327517" lon="11.4085657"><ele>253.0</ele><time>2026-05-02T08:57:59.351Z</time></trkpt><trkpt lat="43.3274113" lon="11.4086898"><ele>253.0</ele><time>2026-05-02T08:58:00.352Z</time></trkpt><trkpt lat="43.3273024" lon="11.4088147"><ele>251.25</ele><time>2026-05-02T08:58:01.363Z</time></trkpt><trkpt lat="43.3271973" lon="11.4089393"><ele>249.5</ele><time>2026-05-02T08:58:02.351Z</time></trkpt><trkpt lat="43.3270976" lon="11.4090682"><ele>247.75</ele><time>2026-05-02T08:58:03.356Z</time></trkpt><trkpt lat="43.3270085" lon="11.4092085"><ele>246.0</ele><time>2026-05-02T08:58:04.35Z</time></trkpt><trkpt lat="43.3269203" lon="11.4093557"><ele>246.0</ele><time>2026-05-02T08:58:05.34Z</time></trkpt><trkpt lat="43.3268311" lon="11.4094988"><ele>246.0</ele><time>2026-05-02T08:58:06.346Z</time></trkpt><trkpt lat="43.326735" lon="11.4096297"><ele>246.0</ele><time>2026-05-02T08:58:07.348Z</time></trkpt><trkpt lat="43.3266422" lon="11.4097496"><ele>246.0</ele><time>2026-05-02T08:58:08.358Z</time></trkpt><trkpt lat="43.3265478" lon="11.4098538"><ele>245.4</ele><time>2026-05-02T08:58:09.352Z</time></trkpt><trkpt lat="43.3264601" lon="11.4099488"><ele>244.8</ele><time>2026-05-02T08:58:10.35Z</time></trkpt><trkpt lat="43.326374" lon="11.4100401"><ele>244.20000000000002</ele><time>2026-05-02T08:58:11.348Z</time></trkpt><trkpt lat="43.3262918" lon="11.4101274"><ele>243.60000000000002</ele><time>2026-05-02T08:58:12.351Z</time></trkpt><trkpt lat="43.3262226" lon="11.4101978"><ele>243.0</ele><time>2026-05-02T08:58:13.343Z</time></trkpt><trkpt lat="43.3261687" lon="11.4102645"><ele>243.0</ele><time>2026-05-02T08:58:14.343Z</time></trkpt><trkpt lat="43.3260821" lon="11.4103388"><ele>243.0</ele><time>2026-05-02T08:58:16.351Z</time></trkpt><trkpt lat="43.3260062" lon="11.4103469"><ele>243.0</ele><time>2026-05-02T08:58:18.345Z</time></trkpt><trkpt lat="43.3259485" lon="11.4103057"><ele>243.0</ele><time>2026-05-02T08:58:24.353Z</time></trkpt><trkpt lat="43.3258964" lon="11.4102202"><ele>243.0</ele><time>2026-05-02T08:58:26.363Z</time></trkpt><trkpt lat="43.3258607" lon="11.4101297"><ele>243.0</ele><time>2026-05-02T08:58:27.355Z</time></trkpt><trkpt lat="43.3258307" lon="11.4100105"><ele>243.0</ele><time>2026-05-02T08:58:28.344Z</time></trkpt><trkpt lat="43.3258114" lon="11.4098716"><ele>243.0</ele><time>2026-05-02T08:58:29.354Z</time></trkpt><trkpt lat="43.3258079" lon="11.4097173"><ele>243.0</ele><time>2026-05-02T08:58:30.35Z</time></trkpt><trkpt lat="43.3258177" lon="11.4095662"><ele>243.0</ele><time>2026-05-02T08:58:31.358Z</time></trkpt><trkpt lat="43.3258309" lon="11.4094235"><ele>243.0</ele><time>2026-05-02T08:58:32.35Z</time></trkpt><trkpt lat="43.3258359" lon="11.4092812"><ele>241.66666666666666</ele><time>2026-05-02T08:58:33.35Z</time></trkpt><trkpt lat="43.3258403" lon="11.4091531"><ele>240.33333333333331</ele><time>2026-05-02T08:58:34.353Z</time></trkpt><trkpt lat="43.3258306" lon="11.4090397"><ele>239.0</ele><time>2026-05-02T08:58:35.352Z</time></trkpt><trkpt lat="43.3258181" lon="11.4089243"><ele>237.66666666666666</ele><time>2026-05-02T08:58:36.348Z</time></trkpt><trkpt lat="43.3258119" lon="11.4088146"><ele>236.33333333333331</ele><time>2026-05-02T08:58:37.354Z</time></trkpt><trkpt lat="43.3257988" lon="11.4086949"><ele>235.0</ele><time>2026-05-02T08:58:38.344Z</time></trkpt><trkpt lat="43.325786" lon="11.4085783"><ele>234.2</ele><time>2026-05-02T08:58:39.352Z</time></trkpt><trkpt lat="43.3257759" lon="11.408472"><ele>233.4</ele><time>2026-05-02T08:58:40.347Z</time></trkpt><trkpt lat="43.325768" lon="11.4083526"><ele>232.60000000000002</ele><time>2026-05-02T08:58:41.349Z</time></trkpt><trkpt lat="43.3257565" lon="11.4082147"><ele>231.8</ele><time>2026-05-02T08:58:42.347Z</time></trkpt><trkpt lat="43.3257387" lon="11.4080532"><ele>231.0</ele><time>2026-05-02T08:58:43.366Z</time></trkpt><trkpt lat="43.325721" lon="11.4078801"><ele>230.0</ele><time>2026-05-02T08:58:44.37Z</time></trkpt><trkpt lat="43.3257065" lon="11.4077048"><ele>229.0</ele><time>2026-05-02T08:58:45.358Z</time></trkpt><trkpt lat="43.3256902" lon="11.4075243"><ele>228.0</ele><time>2026-05-02T08:58:46.357Z</time></trkpt><trkpt lat="43.3256694" lon="11.4073247"><ele>227.0</ele><time>2026-05-02T08:58:47.354Z</time></trkpt><trkpt lat="43.3256372" lon="11.4071049"><ele>225.66666666666669</ele><time>2026-05-02T08:58:48.353Z</time></trkpt><trkpt lat="43.3255922" lon="11.4068882"><ele>224.33333333333331</ele><time>2026-05-02T08:58:49.353Z</time></trkpt><trkpt lat="43.3255204" lon="11.4066745"><ele>223.0</ele><time>2026-05-02T08:58:50.367Z</time></trkpt><trkpt lat="43.3254264" lon="11.4064674"><ele>221.0</ele><time>2026-05-02T08:58:51.346Z</time></trkpt><trkpt lat="43.3253292" lon="11.4062597"><ele>219.0</ele><time>2026-05-02T08:58:52.345Z</time></trkpt><trkpt lat="43.3252399" lon="11.406052"><ele>217.0</ele><time>2026-05-02T08:58:53.354Z</time></trkpt><trkpt lat="43.3251642" lon="11.4058421"><ele>217.0</ele><time>2026-05-02T08:58:54.363Z</time></trkpt><trkpt lat="43.3251077" lon="11.4056423"><ele>217.0</ele><time>2026-05-02T08:58:55.349Z</time></trkpt><trkpt lat="43.3250602" lon="11.4054438"><ele>217.0</ele><time>2026-05-02T08:58:56.362Z</time></trkpt><trkpt lat="43.3250209" lon="11.4052437"><ele>216.33333333333331</ele><time>2026-05-02T08:58:57.338Z</time></trkpt><trkpt lat="43.3249938" lon="11.4050335"><ele>215.66666666666669</ele><time>2026-05-02T08:58:58.356Z</time></trkpt><trkpt lat="43.3249747" lon="11.4048175"><ele>215.0</ele><time>2026-05-02T08:58:59.352Z</time></trkpt><trkpt lat="43.3249656" lon="11.4045965"><ele>214.66666666666669</ele><time>2026-05-02T08:59:00.348Z</time></trkpt><trkpt lat="43.3249574" lon="11.4043693"><ele>214.33333333333331</ele><time>2026-05-02T08:59:01.366Z</time></trkpt><trkpt lat="43.3249514" lon="11.4041451"><ele>214.0</ele><time>2026-05-02T08:59:02.352Z</time></trkpt><trkpt lat="43.3249513" lon="11.4039256"><ele>213.33333333333331</ele><time>2026-05-02T08:59:03.343Z</time></trkpt><trkpt lat="43.324953" lon="11.4036992"><ele>212.66666666666669</ele><time>2026-05-02T08:59:04.369Z</time></trkpt><trkpt lat="43.3249672" lon="11.4034762"><ele>212.0</ele><time>2026-05-02T08:59:05.351Z</time></trkpt><trkpt lat="43.3249879" lon="11.4032369"><ele>212.0</ele><time>2026-05-02T08:59:06.349Z</time></trkpt><trkpt lat="43.3250087" lon="11.4030096"><ele>212.0</ele><time>2026-05-02T08:59:07.358Z</time></trkpt><trkpt lat="43.3250293" lon="11.4028049"><ele>212.0</ele><time>2026-05-02T08:59:08.347Z</time></trkpt><trkpt lat="43.3250527" lon="11.4026085"><ele>213.0</ele><time>2026-05-02T08:59:09.349Z</time></trkpt><trkpt lat="43.3250702" lon="11.4024164"><ele>214.0</ele><time>2026-05-02T08:59:10.373Z</time></trkpt><trkpt lat="43.325086" lon="11.4022297"><ele>215.0</ele><time>2026-05-02T08:59:11.36Z</time></trkpt><trkpt lat="43.3251002" lon="11.4020415"><ele>216.0</ele><time>2026-05-02T08:59:12.351Z</time></trkpt><trkpt lat="43.3251064" lon="11.4018445"><ele>218.5</ele><time>2026-05-02T08:59:13.361Z</time></trkpt><trkpt lat="43.3251092" lon="11.4016519"><ele>221.0</ele><time>2026-05-02T08:59:14.358Z</time></trkpt><trkpt lat="43.3251056" lon="11.4014625"><ele>223.5</ele><time>2026-05-02T08:59:15.369Z</time></trkpt><trkpt lat="43.3250974" lon="11.4012712"><ele>226.0</ele><time>2026-05-02T08:59:16.357Z</time></trkpt><trkpt lat="43.325092" lon="11.4010884"><ele>227.25</ele><time>2026-05-02T08:59:17.338Z</time></trkpt><trkpt lat="43.3250937" lon="11.4009106"><ele>228.5</ele><time>2026-05-02T08:59:18.344Z</time></trkpt><trkpt lat="43.3251042" lon="11.4007328"><ele>229.75</ele><time>2026-05-02T08:59:19.344Z</time></trkpt><trkpt lat="43.325124" lon="11.4005522"><ele>231.0</ele><time>2026-05-02T08:59:20.361Z</time></trkpt><trkpt lat="43.3251527" lon="11.4003698"><ele>232.25</ele><time>2026-05-02T08:59:21.36Z</time></trkpt><trkpt lat="43.3251718" lon="11.400172"><ele>233.5</ele><time>2026-05-02T08:59:22.36Z</time></trkpt><trkpt lat="43.3251788" lon="11.3999709"><ele>234.75</ele><time>2026-05-02T08:59:23.349Z</time></trkpt><trkpt lat="43.325176" lon="11.3997687"><ele>236.0</ele><time>2026-05-02T08:59:24.356Z</time></trkpt><trkpt lat="43.3251636" lon="11.3995531"><ele>237.66666666666669</ele><time>2026-05-02T08:59:25.35Z</time></trkpt><trkpt lat="43.3251479" lon="11.3993403"><ele>239.33333333333331</ele><time>2026-05-02T08:59:26.349Z</time></trkpt><trkpt lat="43.3251302" lon="11.3991236"><ele>241.0</ele><time>2026-05-02T08:59:27.348Z</time></trkpt><trkpt lat="43.3251178" lon="11.3989148"><ele>242.5</ele><time>2026-05-02T08:59:28.343Z</time></trkpt><trkpt lat="43.3251109" lon="11.3987168"><ele>244.0</ele><time>2026-05-02T08:59:29.353Z</time></trkpt><trkpt lat="43.3251037" lon="11.3985309"><ele>245.5</ele><time>2026-05-02T08:59:30.349Z</time></trkpt><trkpt lat="43.3250927" lon="11.3983546"><ele>247.0</ele><time>2026-05-02T08:59:31.356Z</time></trkpt><trkpt lat="43.3250927" lon="11.3981979"><ele>247.0</ele><time>2026-05-02T08:59:32.357Z</time></trkpt><trkpt lat="43.3250938" lon="11.398051"><ele>247.0</ele><time>2026-05-02T08:59:33.355Z</time></trkpt><trkpt lat="43.3250953" lon="11.3979222"><ele>247.0</ele><time>2026-05-02T08:59:34.357Z</time></trkpt><trkpt lat="43.3251045" lon="11.3978045"><ele>247.0</ele><time>2026-05-02T08:59:35.355Z</time></trkpt><trkpt lat="43.3251329" lon="11.3976683"><ele>247.0</ele><time>2026-05-02T08:59:36.356Z</time></trkpt><trkpt lat="43.3251807" lon="11.3975385"><ele>247.0</ele><time>2026-05-02T08:59:37.36Z</time></trkpt><trkpt lat="43.3252314" lon="11.3974137"><ele>247.0</ele><time>2026-05-02T08:59:38.357Z</time></trkpt><trkpt lat="43.3252799" lon="11.3972786"><ele>247.0</ele><time>2026-05-02T08:59:39.348Z</time></trkpt><trkpt lat="43.3253299" lon="11.3971312"><ele>247.0</ele><time>2026-05-02T08:59:40.363Z</time></trkpt><trkpt lat="43.3253755" lon="11.3969669"><ele>247.0</ele><time>2026-05-02T08:59:41.345Z</time></trkpt><trkpt lat="43.3254207" lon="11.3967977"><ele>247.0</ele><time>2026-05-02T08:59:42.352Z</time></trkpt><trkpt lat="43.3254736" lon="11.3966279"><ele>247.0</ele><time>2026-05-02T08:59:43.365Z</time></trkpt><trkpt lat="43.3255254" lon="11.3964593"><ele>247.0</ele><time>2026-05-02T08:59:44.36Z</time></trkpt><trkpt lat="43.3255799" lon="11.3962885"><ele>247.75</ele><time>2026-05-02T08:59:45.367Z</time></trkpt><trkpt lat="43.325628" lon="11.3961156"><ele>248.5</ele><time>2026-05-02T08:59:46.36Z</time></trkpt><trkpt lat="43.3256683" lon="11.395934"><ele>249.25</ele><time>2026-05-02T08:59:47.351Z</time></trkpt><trkpt lat="43.3256896" lon="11.3957401"><ele>250.0</ele><time>2026-05-02T08:59:48.349Z</time></trkpt><trkpt lat="43.3256953" lon="11.3955527"><ele>250.5</ele><time>2026-05-02T08:59:49.359Z</time></trkpt><trkpt lat="43.3256973" lon="11.3953603"><ele>251.0</ele><time>2026-05-02T08:59:50.349Z</time></trkpt><trkpt lat="43.3256995" lon="11.3951691"><ele>251.5</ele><time>2026-05-02T08:59:51.349Z</time></trkpt><trkpt lat="43.3256991" lon="11.3949773"><ele>252.0</ele><time>2026-05-02T08:59:52.351Z</time></trkpt><trkpt lat="43.3256906" lon="11.3947804"><ele>253.66666666666669</ele><time>2026-05-02T08:59:53.345Z</time></trkpt><trkpt lat="43.3256675" lon="11.3945754"><ele>255.33333333333334</ele><time>2026-05-02T08:59:54.347Z</time></trkpt><trkpt lat="43.3256244" lon="11.3943654"><ele>257.0</ele><time>2026-05-02T08:59:55.347Z</time></trkpt><trkpt lat="43.3255735" lon="11.3941548"><ele>256.33333333333337</ele><time>2026-05-02T08:59:56.357Z</time></trkpt><trkpt lat="43.3255116" lon="11.3939344"><ele>255.66666666666669</ele><time>2026-05-02T08:59:57.353Z</time></trkpt><trkpt lat="43.3254403" lon="11.3936976"><ele>255.0</ele><time>2026-05-02T08:59:58.352Z</time></trkpt><trkpt lat="43.3253703" lon="11.3934637"><ele>256.6666666666667</ele><time>2026-05-02T08:59:59.349Z</time></trkpt><trkpt lat="43.3252964" lon="11.3932327"><ele>258.33333333333337</ele><time>2026-05-02T09:00:00.369Z</time></trkpt><trkpt lat="43.3252367" lon="11.393015"><ele>260.0</ele><time>2026-05-02T09:00:01.358Z</time></trkpt><trkpt lat="43.3251754" lon="11.3928309"><ele>260.8</ele><time>2026-05-02T09:00:02.356Z</time></trkpt><trkpt lat="43.325111" lon="11.3926876"><ele>261.6</ele><time>2026-05-02T09:00:03.348Z</time></trkpt><trkpt lat="43.325028" lon="11.3925794"><ele>262.4</ele><time>2026-05-02T09:00:04.349Z</time></trkpt><trkpt lat="43.3249376" lon="11.3925208"><ele>263.2</ele><time>2026-05-02T09:00:05.349Z</time></trkpt><trkpt lat="43.3248324" lon="11.3925172"><ele>264.0</ele><time>2026-05-02T09:00:06.345Z</time></trkpt><trkpt lat="43.3247097" lon="11.3925447"><ele>264.25</ele><time>2026-05-02T09:00:07.348Z</time></trkpt><trkpt lat="43.3245868" lon="11.3925589"><ele>264.5</ele><time>2026-05-02T09:00:08.337Z</time></trkpt><trkpt lat="43.3244612" lon="11.3925532"><ele>264.75</ele><time>2026-05-02T09:00:09.351Z</time></trkpt><trkpt lat="43.3243411" lon="11.3925041"><ele>265.0</ele><time>2026-05-02T09:00:10.346Z</time></trkpt><trkpt lat="43.3242294" lon="11.3924432"><ele>265.0</ele><time>2026-05-02T09:00:11.348Z</time></trkpt><trkpt lat="43.3241278" lon="11.3923991"><ele>265.0</ele><time>2026-05-02T09:00:12.355Z</time></trkpt><trkpt lat="43.3240261" lon="11.3923717"><ele>265.0</ele><time>2026-05-02T09:00:13.336Z</time></trkpt><trkpt lat="43.3239303" lon="11.3923515"><ele>265.0</ele><time>2026-05-02T09:00:14.356Z</time></trkpt><trkpt lat="43.3238314" lon="11.3923261"><ele>265.0</ele><time>2026-05-02T09:00:15.357Z</time></trkpt><trkpt lat="43.3237257" lon="11.392295"><ele>264.8</ele><time>2026-05-02T09:00:16.351Z</time></trkpt><trkpt lat="43.3236167" lon="11.3922725"><ele>264.6</ele><time>2026-05-02T09:00:17.354Z</time></trkpt><trkpt lat="43.323506" lon="11.3922463"><ele>264.4</ele><time>2026-05-02T09:00:18.355Z</time></trkpt><trkpt lat="43.3233968" lon="11.3922215"><ele>264.2</ele><time>2026-05-02T09:00:19.352Z</time></trkpt><trkpt lat="43.3232832" lon="11.3921989"><ele>264.0</ele><time>2026-05-02T09:00:20.352Z</time></trkpt><trkpt lat="43.3231672" lon="11.3921728"><ele>262.25</ele><time>2026-05-02T09:00:21.367Z</time></trkpt><trkpt lat="43.3230545" lon="11.3921527"><ele>260.5</ele><time>2026-05-02T09:00:22.364Z</time></trkpt><trkpt lat="43.3229406" lon="11.3921231"><ele>258.75</ele><time>2026-05-02T09:00:23.342Z</time></trkpt><trkpt lat="43.3228303" lon="11.3920868"><ele>257.0</ele><time>2026-05-02T09:00:24.348Z</time></trkpt><trkpt lat="43.3227197" lon="11.3920421"><ele>257.0</ele><time>2026-05-02T09:00:25.359Z</time></trkpt><trkpt lat="43.3226023" lon="11.3920062"><ele>257.0</ele><time>2026-05-02T09:00:26.357Z</time></trkpt><trkpt lat="43.3224813" lon="11.3919665"><ele>257.0</ele><time>2026-05-02T09:00:27.358Z</time></trkpt><trkpt lat="43.3223542" lon="11.3919313"><ele>257.0</ele><time>2026-05-02T09:00:28.352Z</time></trkpt><trkpt lat="43.3222235" lon="11.3919027"><ele>256.0</ele><time>2026-05-02T09:00:29.361Z</time></trkpt><trkpt lat="43.3220973" lon="11.3918664"><ele>255.0</ele><time>2026-05-02T09:00:30.356Z</time></trkpt><trkpt lat="43.3219641" lon="11.3918283"><ele>254.0</ele><time>2026-05-02T09:00:31.356Z</time></trkpt><trkpt lat="43.3218315" lon="11.3917915"><ele>253.0</ele><time>2026-05-02T09:00:32.347Z</time></trkpt><trkpt lat="43.3216909" lon="11.3917394"><ele>253.0</ele><time>2026-05-02T09:00:33.34Z</time></trkpt><trkpt lat="43.3215506" lon="11.3916717"><ele>253.0</ele><time>2026-05-02T09:00:34.35Z</time></trkpt><trkpt lat="43.3214171" lon="11.3915881"><ele>253.0</ele><time>2026-05-02T09:00:35.347Z</time></trkpt><trkpt lat="43.3212847" lon="11.3914964"><ele>253.0</ele><time>2026-05-02T09:00:36.35Z</time></trkpt><trkpt lat="43.3211531" lon="11.3913978"><ele>251.5</ele><time>2026-05-02T09:00:37.348Z</time></trkpt><trkpt lat="43.3210201" lon="11.3912964"><ele>250.0</ele><time>2026-05-02T09:00:38.363Z</time></trkpt><trkpt lat="43.3208856" lon="11.3912056"><ele>248.5</ele><time>2026-05-02T09:00:39.376Z</time></trkpt><trkpt lat="43.3207514" lon="11.3911217"><ele>247.0</ele><time>2026-05-02T09:00:40.352Z</time></trkpt><trkpt lat="43.3206179" lon="11.3910481"><ele>247.39999999999998</ele><time>2026-05-02T09:00:41.344Z</time></trkpt><trkpt lat="43.3204938" lon="11.391002"><ele>247.79999999999998</ele><time>2026-05-02T09:00:42.345Z</time></trkpt><trkpt lat="43.3203851" lon="11.390967"><ele>248.2</ele><time>2026-05-02T09:00:43.342Z</time></trkpt><trkpt lat="43.3202824" lon="11.3909361"><ele>248.6</ele><time>2026-05-02T09:00:44.347Z</time></trkpt><trkpt lat="43.3201982" lon="11.3908953"><ele>249.0</ele><time>2026-05-02T09:00:45.345Z</time></trkpt><trkpt lat="43.3201292" lon="11.3908099"><ele>249.0</ele><time>2026-05-02T09:00:46.359Z</time></trkpt><trkpt lat="43.3200979" lon="11.3906895"><ele>248.99999999999997</ele><time>2026-05-02T09:00:47.374Z</time></trkpt><trkpt lat="43.3200796" lon="11.3905383"><ele>248.99999999999997</ele><time>2026-05-02T09:00:48.353Z</time></trkpt><trkpt lat="43.320063" lon="11.3903873"><ele>249.0</ele><time>2026-05-02T09:00:49.346Z</time></trkpt><trkpt lat="43.3200408" lon="11.3902287"><ele>249.0</ele><time>2026-05-02T09:00:50.347Z</time></trkpt><trkpt lat="43.3200075" lon="11.3900614"><ele>248.5</ele><time>2026-05-02T09:00:51.349Z</time></trkpt><trkpt lat="43.3199721" lon="11.3898936"><ele>248.0</ele><time>2026-05-02T09:00:52.347Z</time></trkpt><trkpt lat="43.3199291" lon="11.3897173"><ele>247.5</ele><time>2026-05-02T09:00:53.347Z</time></trkpt><trkpt lat="43.3198786" lon="11.3895416"><ele>247.0</ele><time>2026-05-02T09:00:54.365Z</time></trkpt><trkpt lat="43.3198218" lon="11.3893602"><ele>245.66666666666666</ele><time>2026-05-02T09:00:55.348Z</time></trkpt><trkpt lat="43.319772" lon="11.3891616"><ele>244.33333333333331</ele><time>2026-05-02T09:00:56.344Z</time></trkpt><trkpt lat="43.3197238" lon="11.3889602"><ele>243.0</ele><time>2026-05-02T09:00:57.343Z</time></trkpt><trkpt lat="43.3196803" lon="11.3887648"><ele>239.5</ele><time>2026-05-02T09:00:58.348Z</time></trkpt><trkpt lat="43.3196431" lon="11.3885809"><ele>236.0</ele><time>2026-05-02T09:00:59.368Z</time></trkpt><trkpt lat="43.3196052" lon="11.3884046"><ele>232.5</ele><time>2026-05-02T09:01:00.356Z</time></trkpt><trkpt lat="43.3195681" lon="11.3882276"><ele>229.0</ele><time>2026-05-02T09:01:01.354Z</time></trkpt><trkpt lat="43.3195384" lon="11.3880456"><ele>229.0</ele><time>2026-05-02T09:01:02.352Z</time></trkpt><trkpt lat="43.3195103" lon="11.3878602"><ele>229.0</ele><time>2026-05-02T09:01:03.35Z</time></trkpt><trkpt lat="43.3194725" lon="11.3876877"><ele>229.0</ele><time>2026-05-02T09:01:04.362Z</time></trkpt><trkpt lat="43.319401" lon="11.3875497"><ele>229.0</ele><time>2026-05-02T09:01:05.345Z</time></trkpt><trkpt lat="43.319312" lon="11.3874537"><ele>229.0</ele><time>2026-05-02T09:01:06.358Z</time></trkpt><trkpt lat="43.319201" lon="11.3873894"><ele>228.99999999999997</ele><time>2026-05-02T09:01:07.347Z</time></trkpt><trkpt lat="43.3191111" lon="11.3873174"><ele>228.99999999999997</ele><time>2026-05-02T09:01:08.348Z</time></trkpt><trkpt lat="43.3190607" lon="11.3872065"><ele>229.0</ele><time>2026-05-02T09:01:09.347Z</time></trkpt><trkpt lat="43.3190419" lon="11.3870587"><ele>229.0</ele><time>2026-05-02T09:01:10.345Z</time></trkpt><trkpt lat="43.3190586" lon="11.3869001"><ele>228.5</ele><time>2026-05-02T09:01:11.361Z</time></trkpt><trkpt lat="43.319104" lon="11.3867454"><ele>228.0</ele><time>2026-05-02T09:01:12.342Z</time></trkpt><trkpt lat="43.3191713" lon="11.3866253"><ele>227.5</ele><time>2026-05-02T09:01:13.348Z</time></trkpt><trkpt lat="43.3192646" lon="11.3865157"><ele>227.0</ele><time>2026-05-02T09:01:14.35Z</time></trkpt><trkpt lat="43.3193721" lon="11.3864203"><ele>227.0</ele><time>2026-05-02T09:01:15.348Z</time></trkpt><trkpt lat="43.3194892" lon="11.3863493"><ele>227.0</ele><time>2026-05-02T09:01:16.348Z</time></trkpt><trkpt lat="43.3196051" lon="11.3862895"><ele>227.0</ele><time>2026-05-02T09:01:17.353Z</time></trkpt><trkpt lat="43.319719" lon="11.3862288"><ele>227.0</ele><time>2026-05-02T09:01:18.351Z</time></trkpt><trkpt lat="43.3198289" lon="11.3861656"><ele>226.0</ele><time>2026-05-02T09:01:19.367Z</time></trkpt><trkpt lat="43.3199234" lon="11.3860892"><ele>225.0</ele><time>2026-05-02T09:01:20.343Z</time></trkpt><trkpt lat="43.3200097" lon="11.3859983"><ele>224.0</ele><time>2026-05-02T09:01:21.346Z</time></trkpt><trkpt lat="43.3200715" lon="11.3858899"><ele>223.0</ele><time>2026-05-02T09:01:22.338Z</time></trkpt><trkpt lat="43.320109" lon="11.3857655"><ele>222.0</ele><time>2026-05-02T09:01:23.349Z</time></trkpt><trkpt lat="43.3201193" lon="11.3856279"><ele>220.75</ele><time>2026-05-02T09:01:24.372Z</time></trkpt><trkpt lat="43.3201168" lon="11.3854846"><ele>219.5</ele><time>2026-05-02T09:01:25.353Z</time></trkpt><trkpt lat="43.3201165" lon="11.3853314"><ele>218.25</ele><time>2026-05-02T09:01:26.352Z</time></trkpt><trkpt lat="43.3201257" lon="11.3851615"><ele>217.0</ele><time>2026-05-02T09:01:27.351Z</time></trkpt><trkpt lat="43.3201621" lon="11.3849931"><ele>217.0</ele><time>2026-05-02T09:01:28.347Z</time></trkpt><trkpt lat="43.320226" lon="11.3848348"><ele>217.0</ele><time>2026-05-02T09:01:29.357Z</time></trkpt><trkpt lat="43.3202977" lon="11.3846927"><ele>217.0</ele><time>2026-05-02T09:01:30.345Z</time></trkpt><trkpt lat="43.3203809" lon="11.3845717"><ele>217.0</ele><time>2026-05-02T09:01:31.345Z</time></trkpt><trkpt lat="43.3204709" lon="11.384464"><ele>216.2</ele><time>2026-05-02T09:01:32.338Z</time></trkpt><trkpt lat="43.3205643" lon="11.3843754"><ele>215.39999999999998</ele><time>2026-05-02T09:01:33.344Z</time></trkpt><trkpt lat="43.3206486" lon="11.3842781"><ele>214.60000000000002</ele><time>2026-05-02T09:01:34.345Z</time></trkpt><trkpt lat="43.3207139" lon="11.3841684"><ele>213.8</ele><time>2026-05-02T09:01:35.348Z</time></trkpt><trkpt lat="43.3207521" lon="11.3840602"><ele>213.0</ele><time>2026-05-02T09:01:36.364Z</time></trkpt><trkpt lat="43.3207788" lon="11.3839553"><ele>210.8</ele><time>2026-05-02T09:01:37.354Z</time></trkpt><trkpt lat="43.320781" lon="11.3838349"><ele>208.60000000000002</ele><time>2026-05-02T09:01:38.351Z</time></trkpt><trkpt lat="43.3207525" lon="11.3836975"><ele>206.39999999999998</ele><time>2026-05-02T09:01:39.336Z</time></trkpt><trkpt lat="43.3207115" lon="11.3835603"><ele>204.2</ele><time>2026-05-02T09:01:40.353Z</time></trkpt><trkpt lat="43.3206724" lon="11.3834158"><ele>202.0</ele><time>2026-05-02T09:01:41.349Z</time></trkpt><trkpt lat="43.3206404" lon="11.3832396"><ele>202.0</ele><time>2026-05-02T09:01:42.345Z</time></trkpt><trkpt lat="43.3206174" lon="11.3830555"><ele>202.0</ele><time>2026-05-02T09:01:43.349Z</time></trkpt><trkpt lat="43.3205957" lon="11.3828613"><ele>202.0</ele><time>2026-05-02T09:01:44.346Z</time></trkpt><trkpt lat="43.320566" lon="11.3826635"><ele>202.0</ele><time>2026-05-02T09:01:45.35Z</time></trkpt><trkpt lat="43.3205356" lon="11.3824606"><ele>201.0</ele><time>2026-05-02T09:01:46.352Z</time></trkpt><trkpt lat="43.3205067" lon="11.3822381"><ele>200.0</ele><time>2026-05-02T09:01:47.379Z</time></trkpt><trkpt lat="43.3204729" lon="11.3820103"><ele>199.0</ele><time>2026-05-02T09:01:48.351Z</time></trkpt><trkpt lat="43.3204318" lon="11.3817747"><ele>198.66666666666666</ele><time>2026-05-02T09:01:49.358Z</time></trkpt><trkpt lat="43.3203897" lon="11.3815344"><ele>198.33333333333331</ele><time>2026-05-02T09:01:50.352Z</time></trkpt><trkpt lat="43.3203521" lon="11.3813127"><ele>198.0</ele><time>2026-05-02T09:01:51.35Z</time></trkpt><trkpt lat="43.3203267" lon="11.3810951"><ele>197.66666666666669</ele><time>2026-05-02T09:01:52.36Z</time></trkpt><trkpt lat="43.3203228" lon="11.3808762"><ele>197.33333333333334</ele><time>2026-05-02T09:01:53.349Z</time></trkpt><trkpt lat="43.3203406" lon="11.3806544"><ele>197.0</ele><time>2026-05-02T09:01:54.351Z</time></trkpt><trkpt lat="43.3203684" lon="11.3804275"><ele>197.0</ele><time>2026-05-02T09:01:55.347Z</time></trkpt><trkpt lat="43.3203933" lon="11.3802124"><ele>197.0</ele><time>2026-05-02T09:01:56.346Z</time></trkpt><trkpt lat="43.3204201" lon="11.3799906"><ele>197.0</ele><time>2026-05-02T09:01:57.354Z</time></trkpt><trkpt lat="43.3204525" lon="11.3797712"><ele>198.0</ele><time>2026-05-02T09:01:58.348Z</time></trkpt><trkpt lat="43.3204831" lon="11.379555"><ele>199.0</ele><time>2026-05-02T09:01:59.345Z</time></trkpt><trkpt lat="43.3205158" lon="11.3793368"><ele>200.0</ele><time>2026-05-02T09:02:00.346Z</time></trkpt><trkpt lat="43.3205386" lon="11.379119"><ele>200.0</ele><time>2026-05-02T09:02:01.348Z</time></trkpt><trkpt lat="43.3205612" lon="11.378921"><ele>200.0</ele><time>2026-05-02T09:02:02.346Z</time></trkpt><trkpt lat="43.3205778" lon="11.3787297"><ele>200.0</ele><time>2026-05-02T09:02:03.36Z</time></trkpt><trkpt lat="43.3205826" lon="11.3785316"><ele>200.0</ele><time>2026-05-02T09:02:04.36Z</time></trkpt><trkpt lat="43.3205757" lon="11.3783274"><ele>200.33333333333334</ele><time>2026-05-02T09:02:05.359Z</time></trkpt><trkpt lat="43.320557" lon="11.378121"><ele>200.66666666666669</ele><time>2026-05-02T09:02:06.355Z</time></trkpt><trkpt lat="43.3205322" lon="11.3779128"><ele>201.0</ele><time>2026-05-02T09:02:07.355Z</time></trkpt><trkpt lat="43.3205108" lon="11.3777136"><ele>204.25</ele><time>2026-05-02T09:02:08.353Z</time></trkpt><trkpt lat="43.3204899" lon="11.3775261"><ele>207.5</ele><time>2026-05-02T09:02:09.347Z</time></trkpt><trkpt lat="43.3204655" lon="11.3773396"><ele>210.75</ele><time>2026-05-02T09:02:10.348Z</time></trkpt><trkpt lat="43.3204472" lon="11.3771482"><ele>214.0</ele><time>2026-05-02T09:02:11.35Z</time></trkpt><trkpt lat="43.3204328" lon="11.3769497"><ele>216.33333333333331</ele><time>2026-05-02T09:02:12.343Z</time></trkpt><trkpt lat="43.3204315" lon="11.3767449"><ele>218.66666666666669</ele><time>2026-05-02T09:02:13.349Z</time></trkpt><trkpt lat="43.3204455" lon="11.3765327"><ele>221.0</ele><time>2026-05-02T09:02:14.347Z</time></trkpt><trkpt lat="43.3204695" lon="11.3763306"><ele>221.0</ele><time>2026-05-02T09:02:15.357Z</time></trkpt><trkpt lat="43.3204888" lon="11.3761219"><ele>221.0</ele><time>2026-05-02T09:02:16.363Z</time></trkpt><trkpt lat="43.3205067" lon="11.3759156"><ele>221.0</ele><time>2026-05-02T09:02:17.349Z</time></trkpt><trkpt lat="43.3204989" lon="11.3757171"><ele>221.0</ele><time>2026-05-02T09:02:18.364Z</time></trkpt><trkpt lat="43.3204644" lon="11.3755328"><ele>220.5</ele><time>2026-05-02T09:02:19.344Z</time></trkpt><trkpt lat="43.3204054" lon="11.3753872"><ele>220.0</ele><time>2026-05-02T09:02:20.341Z</time></trkpt><trkpt lat="43.3203204" lon="11.3752627"><ele>219.5</ele><time>2026-05-02T09:02:21.348Z</time></trkpt><trkpt lat="43.3202421" lon="11.3751267"><ele>219.0</ele><time>2026-05-02T09:02:22.354Z</time></trkpt><trkpt lat="43.320221" lon="11.3749831"><ele>219.0</ele><time>2026-05-02T09:02:23.358Z</time></trkpt><trkpt lat="43.3202464" lon="11.3748272"><ele>219.0</ele><time>2026-05-02T09:02:24.347Z</time></trkpt><trkpt lat="43.3202867" lon="11.3746645"><ele>219.0</ele><time>2026-05-02T09:02:25.36Z</time></trkpt><trkpt lat="43.3203308" lon="11.3744824"><ele>219.0</ele><time>2026-05-02T09:02:26.353Z</time></trkpt><trkpt lat="43.3203824" lon="11.3742958"><ele>219.66666666666669</ele><time>2026-05-02T09:02:27.35Z</time></trkpt><trkpt lat="43.3204348" lon="11.3741022"><ele>220.33333333333334</ele><time>2026-05-02T09:02:28.35Z</time></trkpt><trkpt lat="43.3204868" lon="11.3739015"><ele>221.0</ele><time>2026-05-02T09:02:29.344Z</time></trkpt><trkpt lat="43.3205549" lon="11.3737015"><ele>223.66666666666669</ele><time>2026-05-02T09:02:30.361Z</time></trkpt><trkpt lat="43.3206365" lon="11.3735047"><ele>226.33333333333331</ele><time>2026-05-02T09:02:31.356Z</time></trkpt><trkpt lat="43.3207271" lon="11.3733121"><ele>229.0</ele><time>2026-05-02T09:02:32.351Z</time></trkpt><trkpt lat="43.3208193" lon="11.3731312"><ele>231.25</ele><time>2026-05-02T09:02:33.372Z</time></trkpt><trkpt lat="43.320902" lon="11.3729644"><ele>233.5</ele><time>2026-05-02T09:02:34.361Z</time></trkpt><trkpt lat="43.3209728" lon="11.372815"><ele>235.75</ele><time>2026-05-02T09:02:35.36Z</time></trkpt><trkpt lat="43.3210247" lon="11.3726427"><ele>238.0</ele><time>2026-05-02T09:02:36.354Z</time></trkpt><trkpt lat="43.3210593" lon="11.372471"><ele>238.0</ele><time>2026-05-02T09:02:37.353Z</time></trkpt><trkpt lat="43.3210809" lon="11.3722978"><ele>238.0</ele><time>2026-05-02T09:02:38.339Z</time></trkpt><trkpt lat="43.3211042" lon="11.3721223"><ele>238.0</ele><time>2026-05-02T09:02:39.353Z</time></trkpt><trkpt lat="43.321133" lon="11.3719456"><ele>238.0</ele><time>2026-05-02T09:02:40.345Z</time></trkpt><trkpt lat="43.3211577" lon="11.3717709"><ele>240.25</ele><time>2026-05-02T09:02:41.363Z</time></trkpt><trkpt lat="43.3211762" lon="11.3715902"><ele>242.5</ele><time>2026-05-02T09:02:42.362Z</time></trkpt><trkpt lat="43.3211952" lon="11.3714057"><ele>244.75</ele><time>2026-05-02T09:02:43.35Z</time></trkpt><trkpt lat="43.3212179" lon="11.371222"><ele>247.0</ele><time>2026-05-02T09:02:44.346Z</time></trkpt><trkpt lat="43.3212555" lon="11.3710374"><ele>246.5</ele><time>2026-05-02T09:02:45.347Z</time></trkpt><trkpt lat="43.3213047" lon="11.370861"><ele>246.0</ele><time>2026-05-02T09:02:46.345Z</time></trkpt><trkpt lat="43.3213643" lon="11.3706869"><ele>245.5</ele><time>2026-05-02T09:02:47.349Z</time></trkpt><trkpt lat="43.3214384" lon="11.370531"><ele>245.0</ele><time>2026-05-02T09:02:48.351Z</time></trkpt><trkpt lat="43.3215152" lon="11.3703707"><ele>246.75</ele><time>2026-05-02T09:02:49.344Z</time></trkpt><trkpt lat="43.3215928" lon="11.3702169"><ele>248.5</ele><time>2026-05-02T09:02:50.348Z</time></trkpt><trkpt lat="43.3216676" lon="11.3700684"><ele>250.25</ele><time>2026-05-02T09:02:51.356Z</time></trkpt><trkpt lat="43.3217326" lon="11.3699239"><ele>252.0</ele><time>2026-05-02T09:02:52.349Z</time></trkpt><trkpt lat="43.3218007" lon="11.3697905"><ele>253.8</ele><time>2026-05-02T09:02:53.353Z</time></trkpt><trkpt lat="43.3218618" lon="11.3696717"><ele>255.6</ele><time>2026-05-02T09:02:54.338Z</time></trkpt><trkpt lat="43.3219138" lon="11.3695703"><ele>257.40000000000003</ele><time>2026-05-02T09:02:55.347Z</time></trkpt><trkpt lat="43.3219598" lon="11.3694881"><ele>259.2</ele><time>2026-05-02T09:02:56.345Z</time></trkpt><trkpt lat="43.3220123" lon="11.3693632"><ele>261.0</ele><time>2026-05-02T09:02:58.351Z</time></trkpt><trkpt lat="43.3220149" lon="11.3692237"><ele>261.0</ele><time>2026-05-02T09:03:00.344Z</time></trkpt><trkpt lat="43.3218944" lon="11.3691566"><ele>261.0</ele><time>2026-05-02T09:03:02.342Z</time></trkpt><trkpt lat="43.3218088" lon="11.3692087"><ele>261.0</ele><time>2026-05-02T09:03:03.352Z</time></trkpt><trkpt lat="43.3217342" lon="11.3692936"><ele>261.0</ele><time>2026-05-02T09:03:04.355Z</time></trkpt><trkpt lat="43.3216616" lon="11.3693719"><ele>261.0</ele><time>2026-05-02T09:03:05.346Z</time></trkpt><trkpt lat="43.3215827" lon="11.3694266"><ele>261.0</ele><time>2026-05-02T09:03:06.341Z</time></trkpt><trkpt lat="43.3215052" lon="11.3694461"><ele>261.0</ele><time>2026-05-02T09:03:07.349Z</time></trkpt><trkpt lat="43.3214359" lon="11.3694258"><ele>261.0</ele><time>2026-05-02T09:03:08.346Z</time></trkpt><trkpt lat="43.3213545" lon="11.369361"><ele>261.0</ele><time>2026-05-02T09:03:09.344Z</time></trkpt><trkpt lat="43.3212855" lon="11.3692766"><ele>261.0</ele><time>2026-05-02T09:03:10.344Z</time></trkpt><trkpt lat="43.3212117" lon="11.3691983"><ele>261.0</ele><time>2026-05-02T09:03:11.357Z</time></trkpt><trkpt lat="43.3211426" lon="11.3691286"><ele>261.3333333333333</ele><time>2026-05-02T09:03:12.341Z</time></trkpt><trkpt lat="43.3210869" lon="11.3690555"><ele>261.6666666666667</ele><time>2026-05-02T09:03:13.338Z</time></trkpt><trkpt lat="43.3210384" lon="11.3689958"><ele>262.0</ele><time>2026-05-02T09:03:14.337Z</time></trkpt><trkpt lat="43.3209593" lon="11.3688713"><ele>262.33333333333337</ele><time>2026-05-02T09:03:16.344Z</time></trkpt><trkpt lat="43.320953" lon="11.3687737"><ele>262.6666666666667</ele><time>2026-05-02T09:03:17.348Z</time></trkpt><trkpt lat="43.3209728" lon="11.36867"><ele>263.0</ele><time>2026-05-02T09:03:18.368Z</time></trkpt><trkpt lat="43.3210007" lon="11.3685802"><ele>263.0</ele><time>2026-05-02T09:03:19.346Z</time></trkpt><trkpt lat="43.3210331" lon="11.3684779"><ele>263.0</ele><time>2026-05-02T09:03:20.342Z</time></trkpt><trkpt lat="43.3210555" lon="11.3683681"><ele>263.0</ele><time>2026-05-02T09:03:21.342Z</time></trkpt><trkpt lat="43.3210791" lon="11.3682583"><ele>263.0</ele><time>2026-05-02T09:03:22.349Z</time></trkpt><trkpt lat="43.3210939" lon="11.3681468"><ele>263.0</ele><time>2026-05-02T09:03:23.354Z</time></trkpt><trkpt lat="43.3210978" lon="11.3680239"><ele>263.0</ele><time>2026-05-02T09:03:24.356Z</time></trkpt><trkpt lat="43.3210962" lon="11.3678971"><ele>263.8</ele><time>2026-05-02T09:03:25.347Z</time></trkpt><trkpt lat="43.3211016" lon="11.3677715"><ele>264.6</ele><time>2026-05-02T09:03:26.347Z</time></trkpt><trkpt lat="43.3211037" lon="11.3676371"><ele>265.4</ele><time>2026-05-02T09:03:27.342Z</time></trkpt><trkpt lat="43.321104" lon="11.3675025"><ele>266.2</ele><time>2026-05-02T09:03:28.347Z</time></trkpt><trkpt lat="43.3211095" lon="11.3673642"><ele>267.0</ele><time>2026-05-02T09:03:29.355Z</time></trkpt><trkpt lat="43.3211109" lon="11.3672179"><ele>267.8</ele><time>2026-05-02T09:03:30.351Z</time></trkpt><trkpt lat="43.3211112" lon="11.3670717"><ele>268.6</ele><time>2026-05-02T09:03:31.353Z</time></trkpt><trkpt lat="43.3211113" lon="11.3669201"><ele>269.40000000000003</ele><time>2026-05-02T09:03:32.348Z</time></trkpt><trkpt lat="43.3211064" lon="11.3667671"><ele>270.2</ele><time>2026-05-02T09:03:33.364Z</time></trkpt><trkpt lat="43.3210912" lon="11.36661"><ele>271.0</ele><time>2026-05-02T09:03:34.371Z</time></trkpt><trkpt lat="43.3210755" lon="11.3664572"><ele>271.0</ele><time>2026-05-02T09:03:35.346Z</time></trkpt><trkpt lat="43.3210519" lon="11.3663129"><ele>271.0</ele><time>2026-05-02T09:03:36.354Z</time></trkpt><trkpt lat="43.3210308" lon="11.3661688"><ele>271.0</ele><time>2026-05-02T09:03:37.352Z</time></trkpt><trkpt lat="43.3210138" lon="11.3660344"><ele>271.0</ele><time>2026-05-02T09:03:38.345Z</time></trkpt><trkpt lat="43.3209935" lon="11.3659187"><ele>271.0</ele><time>2026-05-02T09:03:39.356Z</time></trkpt><trkpt lat="43.3209733" lon="11.3658179"><ele>271.0</ele><time>2026-05-02T09:03:40.346Z</time></trkpt><trkpt lat="43.3209455" lon="11.3657087"><ele>271.0</ele><time>2026-05-02T09:03:41.353Z</time></trkpt><trkpt lat="43.3209053" lon="11.365603"><ele>271.0</ele><time>2026-05-02T09:03:42.347Z</time></trkpt><trkpt lat="43.320867" lon="11.3654861"><ele>271.0</ele><time>2026-05-02T09:03:43.358Z</time></trkpt><trkpt lat="43.3208193" lon="11.3653583"><ele>271.0</ele><time>2026-05-02T09:03:44.343Z</time></trkpt><trkpt lat="43.3207613" lon="11.3652252"><ele>271.2</ele><time>2026-05-02T09:03:45.363Z</time></trkpt><trkpt lat="43.3207043" lon="11.3650896"><ele>271.40000000000003</ele><time>2026-05-02T09:03:46.342Z</time></trkpt><trkpt lat="43.3206487" lon="11.3649569"><ele>271.6</ele><time>2026-05-02T09:03:47.353Z</time></trkpt><trkpt lat="43.3205938" lon="11.3648315"><ele>271.8</ele><time>2026-05-02T09:03:48.348Z</time></trkpt><trkpt lat="43.3205419" lon="11.364719"><ele>272.0</ele><time>2026-05-02T09:03:49.351Z</time></trkpt><trkpt lat="43.3204885" lon="11.3646193"><ele>272.4</ele><time>2026-05-02T09:03:50.352Z</time></trkpt><trkpt lat="43.3204337" lon="11.3645297"><ele>272.79999999999995</ele><time>2026-05-02T09:03:51.334Z</time></trkpt><trkpt lat="43.3203783" lon="11.3644339"><ele>273.2</ele><time>2026-05-02T09:03:52.369Z</time></trkpt><trkpt lat="43.3203177" lon="11.3643308"><ele>273.59999999999997</ele><time>2026-05-02T09:03:53.367Z</time></trkpt><trkpt lat="43.3202566" lon="11.3642211"><ele>274.0</ele><time>2026-05-02T09:03:54.356Z</time></trkpt><trkpt lat="43.3201943" lon="11.3641111"><ele>274.0</ele><time>2026-05-02T09:03:55.349Z</time></trkpt><trkpt lat="43.3201292" lon="11.3640026"><ele>274.0</ele><time>2026-05-02T09:03:56.351Z</time></trkpt><trkpt lat="43.3200576" lon="11.3638843"><ele>274.0</ele><time>2026-05-02T09:03:57.353Z</time></trkpt><trkpt lat="43.3199797" lon="11.3637675"><ele>274.0</ele><time>2026-05-02T09:03:58.352Z</time></trkpt><trkpt lat="43.3199032" lon="11.3636614"><ele>274.0</ele><time>2026-05-02T09:03:59.364Z</time></trkpt><trkpt lat="43.3198329" lon="11.3635671"><ele>274.5</ele><time>2026-05-02T09:04:00.346Z</time></trkpt><trkpt lat="43.3197688" lon="11.3634769"><ele>275.0</ele><time>2026-05-02T09:04:01.351Z</time></trkpt><trkpt lat="43.319702" lon="11.3633895"><ele>275.5</ele><time>2026-05-02T09:04:02.334Z</time></trkpt><trkpt lat="43.31964" lon="11.3633092"><ele>276.0</ele><time>2026-05-02T09:04:03.348Z</time></trkpt><trkpt lat="43.319585" lon="11.3632311"><ele>276.5</ele><time>2026-05-02T09:04:04.354Z</time></trkpt><trkpt lat="43.3195328" lon="11.3631391"><ele>277.0</ele><time>2026-05-02T09:04:05.357Z</time></trkpt><trkpt lat="43.319496" lon="11.3630408"><ele>276.0</ele><time>2026-05-02T09:04:06.353Z</time></trkpt><trkpt lat="43.3194655" lon="11.3629378"><ele>275.0</ele><time>2026-05-02T09:04:07.354Z</time></trkpt><trkpt lat="43.3194457" lon="11.3628414"><ele>274.0</ele><time>2026-05-02T09:04:08.346Z</time></trkpt><trkpt lat="43.3194197" lon="11.3627543"><ele>273.0</ele><time>2026-05-02T09:04:09.35Z</time></trkpt><trkpt lat="43.3193907" lon="11.3626695"><ele>272.0</ele><time>2026-05-02T09:04:10.362Z</time></trkpt><trkpt lat="43.3193539" lon="11.3625933"><ele>271.0</ele><time>2026-05-02T09:04:11.354Z</time></trkpt><trkpt lat="43.3193018" lon="11.362511"><ele>270.0</ele><time>2026-05-02T09:04:12.353Z</time></trkpt><trkpt lat="43.3192365" lon="11.3624256"><ele>270.0</ele><time>2026-05-02T09:04:13.348Z</time></trkpt><trkpt lat="43.3191643" lon="11.3623356"><ele>270.0</ele><time>2026-05-02T09:04:14.348Z</time></trkpt><trkpt lat="43.3190975" lon="11.3622333"><ele>270.0</ele><time>2026-05-02T09:04:15.355Z</time></trkpt><trkpt lat="43.319026" lon="11.3621301"><ele>270.0</ele><time>2026-05-02T09:04:16.343Z</time></trkpt><trkpt lat="43.3189652" lon="11.3620292"><ele>270.0</ele><time>2026-05-02T09:04:17.349Z</time></trkpt><trkpt lat="43.318903" lon="11.3619344"><ele>269.2</ele><time>2026-05-02T09:04:18.352Z</time></trkpt><trkpt lat="43.3188596" lon="11.361841"><ele>268.4</ele><time>2026-05-02T09:04:19.347Z</time></trkpt><trkpt lat="43.3188043" lon="11.3617429"><ele>267.6</ele><time>2026-05-02T09:04:20.358Z</time></trkpt><trkpt lat="43.3187467" lon="11.3616224"><ele>266.8</ele><time>2026-05-02T09:04:21.347Z</time></trkpt><trkpt lat="43.3186865" lon="11.3614951"><ele>266.0</ele><time>2026-05-02T09:04:22.353Z</time></trkpt><trkpt lat="43.3186387" lon="11.3613643"><ele>264.40000000000003</ele><time>2026-05-02T09:04:23.35Z</time></trkpt><trkpt lat="43.3186045" lon="11.3612333"><ele>262.8</ele><time>2026-05-02T09:04:24.336Z</time></trkpt><trkpt lat="43.3185721" lon="11.3611237"><ele>261.20000000000005</ele><time>2026-05-02T09:04:25.337Z</time></trkpt><trkpt lat="43.3185343" lon="11.3610067"><ele>259.6</ele><time>2026-05-02T09:04:26.345Z</time></trkpt><trkpt lat="43.3184807" lon="11.3608798"><ele>258.0</ele><time>2026-05-02T09:04:27.353Z</time></trkpt><trkpt lat="43.318424" lon="11.3607491"><ele>258.0</ele><time>2026-05-02T09:04:28.343Z</time></trkpt><trkpt lat="43.318374" lon="11.3606283"><ele>258.0</ele><time>2026-05-02T09:04:29.344Z</time></trkpt><trkpt lat="43.3183169" lon="11.3605174"><ele>258.0</ele><time>2026-05-02T09:04:30.339Z</time></trkpt><trkpt lat="43.3182508" lon="11.3603899"><ele>258.0</ele><time>2026-05-02T09:04:31.349Z</time></trkpt><trkpt lat="43.3181849" lon="11.3602463"><ele>258.0</ele><time>2026-05-02T09:04:32.345Z</time></trkpt><trkpt lat="43.3181023" lon="11.3600914"><ele>255.66666666666669</ele><time>2026-05-02T09:04:33.353Z</time></trkpt><trkpt lat="43.3180093" lon="11.3599166"><ele>253.33333333333334</ele><time>2026-05-02T09:04:34.351Z</time></trkpt><trkpt lat="43.3179275" lon="11.3597432"><ele>251.0</ele><time>2026-05-02T09:04:35.353Z</time></trkpt><trkpt lat="43.3178472" lon="11.359549"><ele>248.5</ele><time>2026-05-02T09:04:36.353Z</time></trkpt><trkpt lat="43.3177936" lon="11.3593377"><ele>246.0</ele><time>2026-05-02T09:04:37.343Z</time></trkpt><trkpt lat="43.317757" lon="11.359137"><ele>243.5</ele><time>2026-05-02T09:04:38.351Z</time></trkpt><trkpt lat="43.3177149" lon="11.3589611"><ele>241.0</ele><time>2026-05-02T09:04:39.344Z</time></trkpt><trkpt lat="43.3176649" lon="11.3588005"><ele>240.0</ele><time>2026-05-02T09:04:40.351Z</time></trkpt><trkpt lat="43.3175967" lon="11.3586494"><ele>239.0</ele><time>2026-05-02T09:04:41.346Z</time></trkpt><trkpt lat="43.317512" lon="11.3585192"><ele>238.0</ele><time>2026-05-02T09:04:42.354Z</time></trkpt><trkpt lat="43.317407" lon="11.3584188"><ele>237.0</ele><time>2026-05-02T09:04:43.342Z</time></trkpt><trkpt lat="43.317293" lon="11.3583527"><ele>235.25</ele><time>2026-05-02T09:04:44.346Z</time></trkpt><trkpt lat="43.3171664" lon="11.3583262"><ele>233.5</ele><time>2026-05-02T09:04:45.357Z</time></trkpt><trkpt lat="43.31703" lon="11.3583229"><ele>231.75</ele><time>2026-05-02T09:04:46.347Z</time></trkpt><trkpt lat="43.3169062" lon="11.3583091"><ele>230.0</ele><time>2026-05-02T09:04:47.346Z</time></trkpt><trkpt lat="43.3167992" lon="11.3582592"><ele>230.0</ele><time>2026-05-02T09:04:48.351Z</time></trkpt><trkpt lat="43.3166958" lon="11.3581701"><ele>230.0</ele><time>2026-05-02T09:04:49.348Z</time></trkpt><trkpt lat="43.3166043" lon="11.3580673"><ele>230.0</ele><time>2026-05-02T09:04:50.353Z</time></trkpt><trkpt lat="43.316523" lon="11.3579431"><ele>230.0</ele><time>2026-05-02T09:04:51.352Z</time></trkpt><trkpt lat="43.3164324" lon="11.3578049"><ele>229.25</ele><time>2026-05-02T09:04:52.346Z</time></trkpt><trkpt lat="43.3163435" lon="11.3576646"><ele>228.5</ele><time>2026-05-02T09:04:53.344Z</time></trkpt><trkpt lat="43.3162531" lon="11.357525"><ele>227.75</ele><time>2026-05-02T09:04:54.349Z</time></trkpt><trkpt lat="43.3161763" lon="11.3573884"><ele>227.0</ele><time>2026-05-02T09:04:55.338Z</time></trkpt><trkpt lat="43.316122" lon="11.3572264"><ele>226.8</ele><time>2026-05-02T09:04:56.355Z</time></trkpt><trkpt lat="43.3160852" lon="11.3570654"><ele>226.6</ele><time>2026-05-02T09:04:57.349Z</time></trkpt><trkpt lat="43.3160695" lon="11.3569367"><ele>226.40000000000003</ele><time>2026-05-02T09:04:58.342Z</time></trkpt><trkpt lat="43.3160608" lon="11.3568264"><ele>226.20000000000002</ele><time>2026-05-02T09:04:59.362Z</time></trkpt><trkpt lat="43.3160541" lon="11.3567393"><ele>226.0</ele><time>2026-05-02T09:05:00.339Z</time></trkpt><trkpt lat="43.3160524" lon="11.3566081"><ele>226.0</ele><time>2026-05-02T09:05:02.356Z</time></trkpt><trkpt lat="43.3160484" lon="11.3565202"><ele>226.0</ele><time>2026-05-02T09:05:04.349Z</time></trkpt><trkpt lat="43.3160396" lon="11.3564321"><ele>226.0</ele><time>2026-05-02T09:05:07.349Z</time></trkpt><trkpt lat="43.3160195" lon="11.356346"><ele>226.0</ele><time>2026-05-02T09:05:28.345Z</time></trkpt><trkpt lat="43.316011" lon="11.3562335"><ele>226.0</ele><time>2026-05-02T09:05:34.348Z</time></trkpt><trkpt lat="43.3160372" lon="11.3561263"><ele>226.0</ele><time>2026-05-02T09:05:37.349Z</time></trkpt><trkpt lat="43.3160754" lon="11.3560364"><ele>226.0</ele><time>2026-05-02T09:05:39.328Z</time></trkpt><trkpt lat="43.3161337" lon="11.3559067"><ele>225.8</ele><time>2026-05-02T09:05:41.339Z</time></trkpt><trkpt lat="43.3162058" lon="11.3557481"><ele>225.60000000000002</ele><time>2026-05-02T09:05:43.349Z</time></trkpt><trkpt lat="43.3162894" lon="11.3556821"><ele>225.4</ele><time>2026-05-02T09:05:45.345Z</time></trkpt><trkpt lat="43.3163665" lon="11.3555854"><ele>225.2</ele><time>2026-05-02T09:05:47.336Z</time></trkpt><trkpt lat="43.3163999" lon="11.3554698"><ele>225.0</ele><time>2026-05-02T09:05:49.341Z</time></trkpt><trkpt lat="43.3163732" lon="11.3553378"><ele>225.0</ele><time>2026-05-02T09:05:51.343Z</time></trkpt><trkpt lat="43.3162885" lon="11.355235"><ele>225.0</ele><time>2026-05-02T09:05:53.346Z</time></trkpt><trkpt lat="43.3162255" lon="11.3552239"><ele>225.0</ele><time>2026-05-02T09:05:54.344Z</time></trkpt><trkpt lat="43.3161605" lon="11.3552437"><ele>225.0</ele><time>2026-05-02T09:05:55.358Z</time></trkpt><trkpt lat="43.3160825" lon="11.3553741"><ele>225.0</ele><time>2026-05-02T09:05:57.345Z</time></trkpt><trkpt lat="43.3160672" lon="11.3554812"><ele>225.0</ele><time>2026-05-02T09:05:58.352Z</time></trkpt><trkpt lat="43.3160673" lon="11.3555801"><ele>225.0</ele><time>2026-05-02T09:05:59.337Z</time></trkpt><trkpt lat="43.3160471" lon="11.3557252"><ele>225.0</ele><time>2026-05-02T09:06:01.353Z</time></trkpt><trkpt lat="43.3159793" lon="11.3558533"><ele>225.0</ele><time>2026-05-02T09:06:03.346Z</time></trkpt><trkpt lat="43.3159275" lon="11.3559148"><ele>225.0</ele><time>2026-05-02T09:06:04.349Z</time></trkpt><trkpt lat="43.3158699" lon="11.3559669"><ele>225.0</ele><time>2026-05-02T09:06:05.35Z</time></trkpt><trkpt lat="43.3157599" lon="11.3559734"><ele>225.0</ele><time>2026-05-02T09:06:07.34Z</time></trkpt><trkpt lat="43.3156897" lon="11.3559383"><ele>225.0</ele><time>2026-05-02T09:06:08.345Z</time></trkpt><trkpt lat="43.315617" lon="11.3558937"><ele>225.0</ele><time>2026-05-02T09:06:09.352Z</time></trkpt><trkpt lat="43.3154476" lon="11.3558209"><ele>225.0</ele><time>2026-05-02T09:06:11.34Z</time></trkpt><trkpt lat="43.3153498" lon="11.3557934"><ele>225.0</ele><time>2026-05-02T09:06:12.349Z</time></trkpt><trkpt lat="43.3152435" lon="11.3558001"><ele>225.66666666666666</ele><time>2026-05-02T09:06:13.351Z</time></trkpt><trkpt lat="43.3151508" lon="11.3558471"><ele>226.33333333333331</ele><time>2026-05-02T09:06:14.343Z</time></trkpt><trkpt lat="43.3150848" lon="11.3559153"><ele>227.0</ele><time>2026-05-02T09:06:15.355Z</time></trkpt><trkpt lat="43.3150231" lon="11.3559931"><ele>227.66666666666666</ele><time>2026-05-02T09:06:16.347Z</time></trkpt><trkpt lat="43.3149574" lon="11.3560738"><ele>228.33333333333331</ele><time>2026-05-02T09:06:17.355Z</time></trkpt><trkpt lat="43.3148796" lon="11.3561408"><ele>229.0</ele><time>2026-05-02T09:06:18.345Z</time></trkpt><trkpt lat="43.3148051" lon="11.356202"><ele>229.66666666666666</ele><time>2026-05-02T09:06:19.342Z</time></trkpt><trkpt lat="43.3147248" lon="11.3562705"><ele>230.33333333333331</ele><time>2026-05-02T09:06:20.351Z</time></trkpt><trkpt lat="43.3146473" lon="11.3563404"><ele>231.0</ele><time>2026-05-02T09:06:21.346Z</time></trkpt><trkpt lat="43.3145769" lon="11.3563919"><ele>231.66666666666669</ele><time>2026-05-02T09:06:22.353Z</time></trkpt><trkpt lat="43.3145062" lon="11.3564074"><ele>232.33333333333334</ele><time>2026-05-02T09:06:23.34Z</time></trkpt><trkpt lat="43.3144569" lon="11.3563497"><ele>233.0</ele><time>2026-05-02T09:06:24.345Z</time></trkpt><trkpt lat="43.3144406" lon="11.3562571"><ele>235.5</ele><time>2026-05-02T09:06:25.349Z</time></trkpt><trkpt lat="43.3144904" lon="11.3560679"><ele>238.0</ele><time>2026-05-02T09:06:27.365Z</time></trkpt><trkpt lat="43.3145345" lon="11.3559411"><ele>240.5</ele><time>2026-05-02T09:06:28.342Z</time></trkpt><trkpt lat="43.3145846" lon="11.355795"><ele>243.0</ele><time>2026-05-02T09:06:29.347Z</time></trkpt><trkpt lat="43.3146297" lon="11.3556375"><ele>245.75</ele><time>2026-05-02T09:06:30.35Z</time></trkpt><trkpt lat="43.3146566" lon="11.3554618"><ele>248.5</ele><time>2026-05-02T09:06:31.339Z</time></trkpt><trkpt lat="43.3146722" lon="11.3552695"><ele>251.25</ele><time>2026-05-02T09:06:32.341Z</time></trkpt><trkpt lat="43.3146921" lon="11.3550919"><ele>254.0</ele><time>2026-05-02T09:06:33.35Z</time></trkpt><trkpt lat="43.3146863" lon="11.3549348"><ele>254.0</ele><time>2026-05-02T09:06:34.34Z</time></trkpt><trkpt lat="43.3146796" lon="11.3547886"><ele>253.99999999999997</ele><time>2026-05-02T09:06:35.356Z</time></trkpt><trkpt lat="43.3146674" lon="11.3546481"><ele>253.99999999999997</ele><time>2026-05-02T09:06:36.347Z</time></trkpt><trkpt lat="43.3146306" lon="11.3545173"><ele>254.0</ele><time>2026-05-02T09:06:37.353Z</time></trkpt><trkpt lat="43.3145618" lon="11.3543867"><ele>254.0</ele><time>2026-05-02T09:06:38.359Z</time></trkpt><trkpt lat="43.3144763" lon="11.3542648"><ele>254.25</ele><time>2026-05-02T09:06:39.353Z</time></trkpt><trkpt lat="43.3143865" lon="11.354147"><ele>254.5</ele><time>2026-05-02T09:06:40.34Z</time></trkpt><trkpt lat="43.3143118" lon="11.3540156"><ele>254.75</ele><time>2026-05-02T09:06:41.346Z</time></trkpt><trkpt lat="43.3142566" lon="11.3538689"><ele>255.0</ele><time>2026-05-02T09:06:42.342Z</time></trkpt><trkpt lat="43.3141994" lon="11.3537375"><ele>255.0</ele><time>2026-05-02T09:06:43.343Z</time></trkpt><trkpt lat="43.3141279" lon="11.3536194"><ele>255.0</ele><time>2026-05-02T09:06:44.344Z</time></trkpt><trkpt lat="43.3140339" lon="11.3535072"><ele>255.0</ele><time>2026-05-02T09:06:45.349Z</time></trkpt><trkpt lat="43.3139287" lon="11.3534022"><ele>255.0</ele><time>2026-05-02T09:06:46.35Z</time></trkpt><trkpt lat="43.3138137" lon="11.3532704"><ele>259.6666666666667</ele><time>2026-05-02T09:06:47.346Z</time></trkpt><trkpt lat="43.3136956" lon="11.3531211"><ele>264.33333333333337</ele><time>2026-05-02T09:06:48.344Z</time></trkpt><trkpt lat="43.313579" lon="11.3529656"><ele>269.0</ele><time>2026-05-02T09:06:49.343Z</time></trkpt><trkpt lat="43.3134903" lon="11.352834"><ele>269.0</ele><time>2026-05-02T09:06:50.351Z</time></trkpt><trkpt lat="43.3134077" lon="11.3527108"><ele>269.0</ele><time>2026-05-02T09:06:51.35Z</time></trkpt><trkpt lat="43.3133233" lon="11.3525709"><ele>269.0</ele><time>2026-05-02T09:06:52.332Z</time></trkpt><trkpt lat="43.3132453" lon="11.352417"><ele>269.0</ele><time>2026-05-02T09:06:53.343Z</time></trkpt><trkpt lat="43.3131711" lon="11.3522789"><ele>267.5</ele><time>2026-05-02T09:06:54.343Z</time></trkpt><trkpt lat="43.3131021" lon="11.3521341"><ele>266.0</ele><time>2026-05-02T09:06:55.344Z</time></trkpt><trkpt lat="43.313029" lon="11.3519821"><ele>264.5</ele><time>2026-05-02T09:06:56.344Z</time></trkpt><trkpt lat="43.3129588" lon="11.3518065"><ele>263.0</ele><time>2026-05-02T09:06:57.352Z</time></trkpt><trkpt lat="43.3129015" lon="11.3516167"><ele>267.33333333333337</ele><time>2026-05-02T09:06:58.348Z</time></trkpt><trkpt lat="43.3128548" lon="11.3514182"><ele>271.6666666666667</ele><time>2026-05-02T09:06:59.352Z</time></trkpt><trkpt lat="43.3128145" lon="11.3512111"><ele>276.0</ele><time>2026-05-02T09:07:00.344Z</time></trkpt><trkpt lat="43.3127763" lon="11.3510176"><ele>276.75</ele><time>2026-05-02T09:07:01.343Z</time></trkpt><trkpt lat="43.3127425" lon="11.3508344"><ele>277.5</ele><time>2026-05-02T09:07:02.336Z</time></trkpt><trkpt lat="43.3127064" lon="11.3506683"><ele>278.25</ele><time>2026-05-02T09:07:03.358Z</time></trkpt><trkpt lat="43.3126557" lon="11.3505032"><ele>279.0</ele><time>2026-05-02T09:07:04.341Z</time></trkpt><trkpt lat="43.3126049" lon="11.3503467"><ele>279.0</ele><time>2026-05-02T09:07:05.342Z</time></trkpt><trkpt lat="43.3125555" lon="11.3502078"><ele>279.0</ele><time>2026-05-02T09:07:06.344Z</time></trkpt><trkpt lat="43.3125196" lon="11.350084"><ele>279.0</ele><time>2026-05-02T09:07:07.34Z</time></trkpt><trkpt lat="43.3125001" lon="11.3499696"><ele>279.0</ele><time>2026-05-02T09:07:08.35Z</time></trkpt><trkpt lat="43.3124983" lon="11.3498639"><ele>279.0</ele><time>2026-05-02T09:07:09.34Z</time></trkpt><trkpt lat="43.3125183" lon="11.3497633"><ele>279.0</ele><time>2026-05-02T09:07:10.348Z</time></trkpt><trkpt lat="43.3125456" lon="11.3496721"><ele>278.1666666666667</ele><time>2026-05-02T09:07:11.349Z</time></trkpt><trkpt lat="43.3125906" lon="11.3495872"><ele>277.3333333333333</ele><time>2026-05-02T09:07:12.347Z</time></trkpt><trkpt lat="43.3126392" lon="11.3494992"><ele>276.5</ele><time>2026-05-02T09:07:13.345Z</time></trkpt><trkpt lat="43.3126754" lon="11.3494022"><ele>275.66666666666663</ele><time>2026-05-02T09:07:14.349Z</time></trkpt><trkpt lat="43.3127109" lon="11.3493011"><ele>274.8333333333333</ele><time>2026-05-02T09:07:15.354Z</time></trkpt><trkpt lat="43.3127331" lon="11.3492054"><ele>274.0</ele><time>2026-05-02T09:07:16.354Z</time></trkpt><trkpt lat="43.3127541" lon="11.3491007"><ele>274.0</ele><time>2026-05-02T09:07:17.344Z</time></trkpt><trkpt lat="43.3127444" lon="11.3489966"><ele>274.0</ele><time>2026-05-02T09:07:18.358Z</time></trkpt><trkpt lat="43.3127185" lon="11.3488708"><ele>274.0</ele><time>2026-05-02T09:07:19.343Z</time></trkpt><trkpt lat="43.3126858" lon="11.3487324"><ele>274.0</ele><time>2026-05-02T09:07:20.356Z</time></trkpt><trkpt lat="43.3126504" lon="11.348605"><ele>274.0</ele><time>2026-05-02T09:07:21.356Z</time></trkpt><trkpt lat="43.3126051" lon="11.348489"><ele>273.3333333333333</ele><time>2026-05-02T09:07:22.346Z</time></trkpt><trkpt lat="43.3125519" lon="11.348379"><ele>272.66666666666663</ele><time>2026-05-02T09:07:23.348Z</time></trkpt><trkpt lat="43.3124916" lon="11.3482757"><ele>272.0</ele><time>2026-05-02T09:07:24.342Z</time></trkpt><trkpt lat="43.3124377" lon="11.3482045"><ele>271.3333333333333</ele><time>2026-05-02T09:07:25.347Z</time></trkpt><trkpt lat="43.3123802" lon="11.3481144"><ele>270.6666666666667</ele><time>2026-05-02T09:07:27.343Z</time></trkpt><trkpt lat="43.3123268" lon="11.3480533"><ele>270.0</ele><time>2026-05-02T09:07:30.353Z</time></trkpt><trkpt lat="43.3122362" lon="11.3481006"><ele>269.1666666666667</ele><time>2026-05-02T09:07:33.352Z</time></trkpt><trkpt lat="43.3121934" lon="11.3481907"><ele>268.3333333333333</ele><time>2026-05-02T09:07:34.351Z</time></trkpt><trkpt lat="43.3121428" lon="11.3482821"><ele>267.5</ele><time>2026-05-02T09:07:35.345Z</time></trkpt><trkpt lat="43.3121006" lon="11.3483874"><ele>266.66666666666663</ele><time>2026-05-02T09:07:36.333Z</time></trkpt><trkpt lat="43.3120629" lon="11.3484838"><ele>265.8333333333333</ele><time>2026-05-02T09:07:37.358Z</time></trkpt><trkpt lat="43.3120234" lon="11.3486105"><ele>265.0</ele><time>2026-05-02T09:07:38.354Z</time></trkpt><trkpt lat="43.3119913" lon="11.3487542"><ele>264.25</ele><time>2026-05-02T09:07:39.355Z</time></trkpt><trkpt lat="43.3119584" lon="11.3489079"><ele>263.5</ele><time>2026-05-02T09:07:40.349Z</time></trkpt><trkpt lat="43.3119126" lon="11.3490644"><ele>262.75</ele><time>2026-05-02T09:07:41.342Z</time></trkpt><trkpt lat="43.3118645" lon="11.3492236"><ele>262.0</ele><time>2026-05-02T09:07:42.353Z</time></trkpt><trkpt lat="43.311807" lon="11.3493818"><ele>262.0</ele><time>2026-05-02T09:07:43.341Z</time></trkpt><trkpt lat="43.3117363" lon="11.3495219"><ele>262.0</ele><time>2026-05-02T09:07:44.348Z</time></trkpt><trkpt lat="43.311651" lon="11.3496466"><ele>262.0</ele><time>2026-05-02T09:07:45.352Z</time></trkpt><trkpt lat="43.3115608" lon="11.3497327"><ele>262.0</ele><time>2026-05-02T09:07:46.333Z</time></trkpt><trkpt lat="43.3114739" lon="11.3497989"><ele>262.0</ele><time>2026-05-02T09:07:47.345Z</time></trkpt><trkpt lat="43.3113822" lon="11.349844"><ele>262.0</ele><time>2026-05-02T09:07:48.338Z</time></trkpt><trkpt lat="43.3113057" lon="11.3498653"><ele>262.0</ele><time>2026-05-02T09:07:49.344Z</time></trkpt><trkpt lat="43.3112216" lon="11.349905"><ele>262.0</ele><time>2026-05-02T09:07:51.355Z</time></trkpt><trkpt lat="43.3111233" lon="11.3499543"><ele>262.0</ele><time>2026-05-02T09:07:54.347Z</time></trkpt><trkpt lat="43.3110163" lon="11.3499985"><ele>262.0</ele><time>2026-05-02T09:07:56.344Z</time></trkpt><trkpt lat="43.3109446" lon="11.3500273"><ele>262.0</ele><time>2026-05-02T09:07:57.345Z</time></trkpt><trkpt lat="43.3108713" lon="11.3500558"><ele>262.0</ele><time>2026-05-02T09:07:58.349Z</time></trkpt><trkpt lat="43.3108039" lon="11.3500697"><ele>262.0</ele><time>2026-05-02T09:07:59.345Z</time></trkpt><trkpt lat="43.3107245" lon="11.350094"><ele>262.0</ele><time>2026-05-02T09:08:00.34Z</time></trkpt><trkpt lat="43.3106415" lon="11.3501329"><ele>262.0</ele><time>2026-05-02T09:08:01.343Z</time></trkpt><trkpt lat="43.3105655" lon="11.3501829"><ele>262.0</ele><time>2026-05-02T09:08:02.359Z</time></trkpt><trkpt lat="43.3104988" lon="11.3502417"><ele>262.0</ele><time>2026-05-02T09:08:03.337Z</time></trkpt><trkpt lat="43.3104342" lon="11.3502977"><ele>262.0</ele><time>2026-05-02T09:08:04.337Z</time></trkpt><trkpt lat="43.3103689" lon="11.3503568"><ele>262.0</ele><time>2026-05-02T09:08:05.351Z</time></trkpt><trkpt lat="43.3102952" lon="11.3504206"><ele>262.0</ele><time>2026-05-02T09:08:06.342Z</time></trkpt><trkpt lat="43.3102361" lon="11.3504797"><ele>262.0</ele><time>2026-05-02T09:08:07.348Z</time></trkpt><trkpt lat="43.3101597" lon="11.3505905"><ele>261.8333333333333</ele><time>2026-05-02T09:08:09.343Z</time></trkpt><trkpt lat="43.3100973" lon="11.350691"><ele>261.66666666666663</ele><time>2026-05-02T09:08:11.338Z</time></trkpt><trkpt lat="43.3100442" lon="11.3507576"><ele>261.5</ele><time>2026-05-02T09:08:12.349Z</time></trkpt><trkpt lat="43.30998" lon="11.3508187"><ele>261.3333333333333</ele><time>2026-05-02T09:08:13.345Z</time></trkpt><trkpt lat="43.3099235" lon="11.3508905"><ele>261.1666666666667</ele><time>2026-05-02T09:08:14.348Z</time></trkpt><trkpt lat="43.3098567" lon="11.3509905"><ele>261.0</ele><time>2026-05-02T09:08:15.35Z</time></trkpt><trkpt lat="43.3097913" lon="11.3511186"><ele>262.0</ele><time>2026-05-02T09:08:16.35Z</time></trkpt><trkpt lat="43.3097335" lon="11.3512599"><ele>263.0</ele><time>2026-05-02T09:08:17.34Z</time></trkpt><trkpt lat="43.3096751" lon="11.3513971"><ele>264.0</ele><time>2026-05-02T09:08:18.346Z</time></trkpt><trkpt lat="43.3096311" lon="11.3515517"><ele>265.0</ele><time>2026-05-02T09:08:19.349Z</time></trkpt><trkpt lat="43.3095929" lon="11.3517089"><ele>265.0</ele><time>2026-05-02T09:08:20.352Z</time></trkpt><trkpt lat="43.3095585" lon="11.3518817"><ele>265.0</ele><time>2026-05-02T09:08:21.342Z</time></trkpt><trkpt lat="43.3095234" lon="11.3520593"><ele>265.0</ele><time>2026-05-02T09:08:22.349Z</time></trkpt><trkpt lat="43.3094883" lon="11.3522451"><ele>265.0</ele><time>2026-05-02T09:08:23.346Z</time></trkpt><trkpt lat="43.3094522" lon="11.3524269"><ele>265.0</ele><time>2026-05-02T09:08:24.333Z</time></trkpt><trkpt lat="43.3094219" lon="11.3525833"><ele>265.0</ele><time>2026-05-02T09:08:25.343Z</time></trkpt><trkpt lat="43.3094021" lon="11.3527191"><ele>265.0</ele><time>2026-05-02T09:08:26.353Z</time></trkpt><trkpt lat="43.3093869" lon="11.3528557"><ele>265.0</ele><time>2026-05-02T09:08:27.344Z</time></trkpt><trkpt lat="43.3093598" lon="11.352995"><ele>265.0</ele><time>2026-05-02T09:08:28.341Z</time></trkpt><trkpt lat="43.3093368" lon="11.3531417"><ele>265.0</ele><time>2026-05-02T09:08:29.35Z</time></trkpt><trkpt lat="43.309311" lon="11.3532841"><ele>265.0</ele><time>2026-05-02T09:08:30.34Z</time></trkpt><trkpt lat="43.3092892" lon="11.3534073"><ele>265.0</ele><time>2026-05-02T09:08:31.339Z</time></trkpt><trkpt lat="43.3092715" lon="11.3535193"><ele>265.0</ele><time>2026-05-02T09:08:32.344Z</time></trkpt><trkpt lat="43.309261" lon="11.3536357"><ele>265.0</ele><time>2026-05-02T09:08:33.342Z</time></trkpt><trkpt lat="43.3092563" lon="11.3537615"><ele>264.25</ele><time>2026-05-02T09:08:34.345Z</time></trkpt><trkpt lat="43.3092493" lon="11.35391"><ele>263.5</ele><time>2026-05-02T09:08:35.356Z</time></trkpt><trkpt lat="43.3092421" lon="11.3540661"><ele>262.75</ele><time>2026-05-02T09:08:36.351Z</time></trkpt><trkpt lat="43.3092402" lon="11.35423"><ele>262.0</ele><time>2026-05-02T09:08:37.344Z</time></trkpt><trkpt lat="43.3092325" lon="11.3543966"><ele>262.0</ele><time>2026-05-02T09:08:38.35Z</time></trkpt><trkpt lat="43.3092307" lon="11.3545637"><ele>262.0</ele><time>2026-05-02T09:08:39.345Z</time></trkpt><trkpt lat="43.3092307" lon="11.3547193"><ele>262.0</ele><time>2026-05-02T09:08:40.341Z</time></trkpt><trkpt lat="43.3092372" lon="11.3548631"><ele>262.0</ele><time>2026-05-02T09:08:41.347Z</time></trkpt><trkpt lat="43.3092488" lon="11.3549842"><ele>262.0</ele><time>2026-05-02T09:08:42.354Z</time></trkpt><trkpt lat="43.3092619" lon="11.355096"><ele>262.2</ele><time>2026-05-02T09:08:43.353Z</time></trkpt><trkpt lat="43.3092754" lon="11.3551965"><ele>262.4</ele><time>2026-05-02T09:08:44.35Z</time></trkpt><trkpt lat="43.3093048" lon="11.3553412"><ele>262.6</ele><time>2026-05-02T09:08:46.345Z</time></trkpt><trkpt lat="43.3093285" lon="11.3554365"><ele>262.8</ele><time>2026-05-02T09:08:47.34Z</time></trkpt><trkpt lat="43.3093635" lon="11.3555635"><ele>263.0</ele><time>2026-05-02T09:08:48.347Z</time></trkpt><trkpt lat="43.3093988" lon="11.35571"><ele>262.5</ele><time>2026-05-02T09:08:49.353Z</time></trkpt><trkpt lat="43.3094383" lon="11.3558639"><ele>262.0</ele><time>2026-05-02T09:08:50.344Z</time></trkpt><trkpt lat="43.3094744" lon="11.356026"><ele>261.5</ele><time>2026-05-02T09:08:51.357Z</time></trkpt><trkpt lat="43.309506" lon="11.3561905"><ele>261.0</ele><time>2026-05-02T09:08:52.347Z</time></trkpt><trkpt lat="43.3095297" lon="11.356341"><ele>259.8</ele><time>2026-05-02T09:08:53.345Z</time></trkpt><trkpt lat="43.3095312" lon="11.3564829"><ele>258.6</ele><time>2026-05-02T09:08:54.335Z</time></trkpt><trkpt lat="43.309512" lon="11.3566202"><ele>257.4</ele><time>2026-05-02T09:08:55.347Z</time></trkpt><trkpt lat="43.3094868" lon="11.3567674"><ele>256.2</ele><time>2026-05-02T09:08:56.341Z</time></trkpt><trkpt lat="43.3094578" lon="11.3569106"><ele>255.0</ele><time>2026-05-02T09:08:57.353Z</time></trkpt><trkpt lat="43.3094184" lon="11.3570527"><ele>255.0</ele><time>2026-05-02T09:08:58.359Z</time></trkpt><trkpt lat="43.3093693" lon="11.357185"><ele>255.0</ele><time>2026-05-02T09:08:59.35Z</time></trkpt><trkpt lat="43.3093033" lon="11.3573067"><ele>255.0</ele><time>2026-05-02T09:09:00.34Z</time></trkpt><trkpt lat="43.309218" lon="11.3574143"><ele>255.0</ele><time>2026-05-02T09:09:01.341Z</time></trkpt><trkpt lat="43.3091182" lon="11.3575198"><ele>254.6</ele><time>2026-05-02T09:09:02.345Z</time></trkpt><trkpt lat="43.309029" lon="11.3576094"><ele>254.2</ele><time>2026-05-02T09:09:03.343Z</time></trkpt><trkpt lat="43.3089472" lon="11.3576953"><ele>253.8</ele><time>2026-05-02T09:09:04.347Z</time></trkpt><trkpt lat="43.3088668" lon="11.3577722"><ele>253.4</ele><time>2026-05-02T09:09:05.349Z</time></trkpt><trkpt lat="43.3087831" lon="11.3578577"><ele>253.0</ele><time>2026-05-02T09:09:06.336Z</time></trkpt><trkpt lat="43.3086906" lon="11.3579493"><ele>251.5</ele><time>2026-05-02T09:09:07.352Z</time></trkpt><trkpt lat="43.3085925" lon="11.3580403"><ele>250.0</ele><time>2026-05-02T09:09:08.346Z</time></trkpt><trkpt lat="43.3084923" lon="11.3581291"><ele>248.5</ele><time>2026-05-02T09:09:09.342Z</time></trkpt><trkpt lat="43.308382" lon="11.3582053"><ele>247.0</ele><time>2026-05-02T09:09:10.347Z</time></trkpt><trkpt lat="43.30828" lon="11.3582856"><ele>247.0</ele><time>2026-05-02T09:09:11.345Z</time></trkpt><trkpt lat="43.3081755" lon="11.3583647"><ele>247.0</ele><time>2026-05-02T09:09:12.339Z</time></trkpt><trkpt lat="43.3080745" lon="11.3584483"><ele>247.0</ele><time>2026-05-02T09:09:13.345Z</time></trkpt><trkpt lat="43.3079748" lon="11.3585448"><ele>247.0</ele><time>2026-05-02T09:09:14.342Z</time></trkpt><trkpt lat="43.3078853" lon="11.3586489"><ele>244.75</ele><time>2026-05-02T09:09:15.35Z</time></trkpt><trkpt lat="43.3077948" lon="11.3587612"><ele>242.5</ele><time>2026-05-02T09:09:16.351Z</time></trkpt><trkpt lat="43.3077031" lon="11.3588708"><ele>240.25</ele><time>2026-05-02T09:09:17.345Z</time></trkpt><trkpt lat="43.3076194" lon="11.3589792"><ele>238.0</ele><time>2026-05-02T09:09:18.338Z</time></trkpt><trkpt lat="43.307536" lon="11.3590846"><ele>238.0</ele><time>2026-05-02T09:09:19.353Z</time></trkpt><trkpt lat="43.3074506" lon="11.3591862"><ele>238.0</ele><time>2026-05-02T09:09:20.349Z</time></trkpt><trkpt lat="43.3073639" lon="11.3592885"><ele>238.0</ele><time>2026-05-02T09:09:21.338Z</time></trkpt><trkpt lat="43.307272" lon="11.3593913"><ele>238.0</ele><time>2026-05-02T09:09:22.344Z</time></trkpt><trkpt lat="43.3071768" lon="11.3594861"><ele>238.60000000000002</ele><time>2026-05-02T09:09:23.348Z</time></trkpt><trkpt lat="43.3070893" lon="11.3595808"><ele>239.20000000000002</ele><time>2026-05-02T09:09:24.346Z</time></trkpt><trkpt lat="43.3070038" lon="11.3596898"><ele>239.8</ele><time>2026-05-02T09:09:25.348Z</time></trkpt><trkpt lat="43.3069241" lon="11.3597904"><ele>240.4</ele><time>2026-05-02T09:09:26.339Z</time></trkpt><trkpt lat="43.3068559" lon="11.3598789"><ele>241.0</ele><time>2026-05-02T09:09:27.348Z</time></trkpt><trkpt lat="43.306788" lon="11.3599748"><ele>241.0</ele><time>2026-05-02T09:09:28.333Z</time></trkpt><trkpt lat="43.3067222" lon="11.3600766"><ele>241.00000000000003</ele><time>2026-05-02T09:09:29.341Z</time></trkpt><trkpt lat="43.3066575" lon="11.3601829"><ele>241.00000000000003</ele><time>2026-05-02T09:09:30.347Z</time></trkpt><trkpt lat="43.3065981" lon="11.3602861"><ele>241.0</ele><time>2026-05-02T09:09:31.348Z</time></trkpt><trkpt lat="43.3065364" lon="11.3603823"><ele>241.0</ele><time>2026-05-02T09:09:32.343Z</time></trkpt><trkpt lat="43.3064724" lon="11.3604892"><ele>243.20000000000002</ele><time>2026-05-02T09:09:33.327Z</time></trkpt><trkpt lat="43.3064072" lon="11.3606025"><ele>245.40000000000003</ele><time>2026-05-02T09:09:34.345Z</time></trkpt><trkpt lat="43.3063291" lon="11.3607042"><ele>247.6</ele><time>2026-05-02T09:09:35.348Z</time></trkpt><trkpt lat="43.3062526" lon="11.3608086"><ele>249.8</ele><time>2026-05-02T09:09:36.338Z</time></trkpt><trkpt lat="43.3061871" lon="11.3609145"><ele>252.0</ele><time>2026-05-02T09:09:37.351Z</time></trkpt><trkpt lat="43.3061297" lon="11.3610372"><ele>252.0</ele><time>2026-05-02T09:09:38.344Z</time></trkpt><trkpt lat="43.3060734" lon="11.3611713"><ele>252.0</ele><time>2026-05-02T09:09:39.343Z</time></trkpt><trkpt lat="43.306022" lon="11.3612914"><ele>252.0</ele><time>2026-05-02T09:09:40.352Z</time></trkpt><trkpt lat="43.3059626" lon="11.3614019"><ele>252.0</ele><time>2026-05-02T09:09:41.343Z</time></trkpt><trkpt lat="43.3058956" lon="11.3615009"><ele>252.0</ele><time>2026-05-02T09:09:42.349Z</time></trkpt><trkpt lat="43.3058106" lon="11.3615855"><ele>251.0</ele><time>2026-05-02T09:09:43.344Z</time></trkpt><trkpt lat="43.3057186" lon="11.3616513"><ele>250.0</ele><time>2026-05-02T09:09:44.345Z</time></trkpt><trkpt lat="43.3056106" lon="11.3616905"><ele>249.0</ele><time>2026-05-02T09:09:45.342Z</time></trkpt><trkpt lat="43.3054991" lon="11.3617107"><ele>248.0</ele><time>2026-05-02T09:09:46.348Z</time></trkpt><trkpt lat="43.3053851" lon="11.3617245"><ele>247.0</ele><time>2026-05-02T09:09:47.347Z</time></trkpt><trkpt lat="43.3052742" lon="11.3617392"><ele>247.0</ele><time>2026-05-02T09:09:48.339Z</time></trkpt><trkpt lat="43.3051684" lon="11.3617619"><ele>247.0</ele><time>2026-05-02T09:09:49.338Z</time></trkpt><trkpt lat="43.3050703" lon="11.3617792"><ele>247.0</ele><time>2026-05-02T09:09:50.35Z</time></trkpt><trkpt lat="43.3049762" lon="11.3617982"><ele>247.0</ele><time>2026-05-02T09:09:51.343Z</time></trkpt><trkpt lat="43.3048788" lon="11.3618248"><ele>247.0</ele><time>2026-05-02T09:09:52.345Z</time></trkpt><trkpt lat="43.3047883" lon="11.3618421"><ele>245.33333333333331</ele><time>2026-05-02T09:09:53.348Z</time></trkpt><trkpt lat="43.3047087" lon="11.3618414"><ele>243.66666666666666</ele><time>2026-05-02T09:09:54.349Z</time></trkpt><trkpt lat="43.3046295" lon="11.36184"><ele>242.0</ele><time>2026-05-02T09:09:55.336Z</time></trkpt><trkpt lat="43.3045442" lon="11.361849"><ele>240.33333333333331</ele><time>2026-05-02T09:09:56.348Z</time></trkpt><trkpt lat="43.304456" lon="11.3618714"><ele>238.66666666666666</ele><time>2026-05-02T09:09:57.343Z</time></trkpt><trkpt lat="43.3043676" lon="11.3619182"><ele>237.0</ele><time>2026-05-02T09:09:58.345Z</time></trkpt><trkpt lat="43.3042839" lon="11.3619644"><ele>237.0</ele><time>2026-05-02T09:09:59.344Z</time></trkpt><trkpt lat="43.3042029" lon="11.3620253"><ele>237.0</ele><time>2026-05-02T09:10:00.355Z</time></trkpt><trkpt lat="43.30412" lon="11.3620847"><ele>237.0</ele><time>2026-05-02T09:10:01.346Z</time></trkpt><trkpt lat="43.3040377" lon="11.3621481"><ele>237.0</ele><time>2026-05-02T09:10:02.347Z</time></trkpt><trkpt lat="43.3039603" lon="11.3622158"><ele>237.0</ele><time>2026-05-02T09:10:03.345Z</time></trkpt><trkpt lat="43.3038791" lon="11.36228"><ele>238.5</ele><time>2026-05-02T09:10:04.343Z</time></trkpt><trkpt lat="43.3038025" lon="11.3623427"><ele>240.0</ele><time>2026-05-02T09:10:05.351Z</time></trkpt><trkpt lat="43.3037361" lon="11.3624047"><ele>241.5</ele><time>2026-05-02T09:10:06.348Z</time></trkpt><trkpt lat="43.3036677" lon="11.3624731"><ele>243.0</ele><time>2026-05-02T09:10:07.353Z</time></trkpt><trkpt lat="43.3036035" lon="11.3625513"><ele>244.5</ele><time>2026-05-02T09:10:08.345Z</time></trkpt><trkpt lat="43.3035366" lon="11.3626394"><ele>246.0</ele><time>2026-05-02T09:10:09.354Z</time></trkpt><trkpt lat="43.303474" lon="11.3627436"><ele>246.0</ele><time>2026-05-02T09:10:10.348Z</time></trkpt><trkpt lat="43.3034357" lon="11.3628634"><ele>246.00000000000003</ele><time>2026-05-02T09:10:11.347Z</time></trkpt><trkpt lat="43.3034173" lon="11.3629861"><ele>246.00000000000003</ele><time>2026-05-02T09:10:12.344Z</time></trkpt><trkpt lat="43.3034081" lon="11.3631198"><ele>246.0</ele><time>2026-05-02T09:10:13.356Z</time></trkpt><trkpt lat="43.3033992" lon="11.3632613"><ele>246.0</ele><time>2026-05-02T09:10:14.343Z</time></trkpt><trkpt lat="43.3033785" lon="11.3634126"><ele>246.0</ele><time>2026-05-02T09:10:15.35Z</time></trkpt><trkpt lat="43.3033477" lon="11.3635582"><ele>246.00000000000003</ele><time>2026-05-02T09:10:16.352Z</time></trkpt><trkpt lat="43.3033036" lon="11.3636966"><ele>246.00000000000003</ele><time>2026-05-02T09:10:17.354Z</time></trkpt><trkpt lat="43.3032486" lon="11.3638117"><ele>246.0</ele><time>2026-05-02T09:10:18.343Z</time></trkpt><trkpt lat="43.3031771" lon="11.3638959"><ele>246.0</ele><time>2026-05-02T09:10:19.356Z</time></trkpt><trkpt lat="43.3030851" lon="11.3639451"><ele>247.4</ele><time>2026-05-02T09:10:20.332Z</time></trkpt><trkpt lat="43.3029859" lon="11.3639686"><ele>248.8</ele><time>2026-05-02T09:10:21.345Z</time></trkpt><trkpt lat="43.3028827" lon="11.3639693"><ele>250.20000000000002</ele><time>2026-05-02T09:10:22.347Z</time></trkpt><trkpt lat="43.3027804" lon="11.3639562"><ele>251.60000000000002</ele><time>2026-05-02T09:10:23.359Z</time></trkpt><trkpt lat="43.3026756" lon="11.3639653"><ele>253.0</ele><time>2026-05-02T09:10:24.354Z</time></trkpt><trkpt lat="43.3025681" lon="11.3639939"><ele>253.0</ele><time>2026-05-02T09:10:25.357Z</time></trkpt><trkpt lat="43.3024538" lon="11.3640419"><ele>253.0</ele><time>2026-05-02T09:10:26.34Z</time></trkpt><trkpt lat="43.3023378" lon="11.3641009"><ele>253.0</ele><time>2026-05-02T09:10:27.353Z</time></trkpt><trkpt lat="43.3022316" lon="11.3641698"><ele>253.0</ele><time>2026-05-02T09:10:28.35Z</time></trkpt><trkpt lat="43.3021368" lon="11.3642409"><ele>251.0</ele><time>2026-05-02T09:10:29.355Z</time></trkpt><trkpt lat="43.3020448" lon="11.3643199"><ele>249.0</ele><time>2026-05-02T09:10:30.351Z</time></trkpt><trkpt lat="43.3019629" lon="11.3644118"><ele>247.0</ele><time>2026-05-02T09:10:31.341Z</time></trkpt><trkpt lat="43.3018977" lon="11.3645193"><ele>245.0</ele><time>2026-05-02T09:10:32.344Z</time></trkpt><trkpt lat="43.3018452" lon="11.3646435"><ele>243.0</ele><time>2026-05-02T09:10:33.348Z</time></trkpt><trkpt lat="43.3018009" lon="11.3647922"><ele>243.0</ele><time>2026-05-02T09:10:34.326Z</time></trkpt><trkpt lat="43.301761" lon="11.3649338"><ele>243.0</ele><time>2026-05-02T09:10:35.353Z</time></trkpt><trkpt lat="43.3017167" lon="11.3650672"><ele>243.0</ele><time>2026-05-02T09:10:36.337Z</time></trkpt><trkpt lat="43.3016565" lon="11.3651795"><ele>243.0</ele><time>2026-05-02T09:10:37.353Z</time></trkpt><trkpt lat="43.3015849" lon="11.3652749"><ele>243.0</ele><time>2026-05-02T09:10:38.344Z</time></trkpt><trkpt lat="43.3014986" lon="11.3653484"><ele>242.60000000000002</ele><time>2026-05-02T09:10:39.35Z</time></trkpt><trkpt lat="43.30141" lon="11.3653916"><ele>242.20000000000002</ele><time>2026-05-02T09:10:40.344Z</time></trkpt><trkpt lat="43.3013221" lon="11.3654387"><ele>241.8</ele><time>2026-05-02T09:10:41.342Z</time></trkpt><trkpt lat="43.3012393" lon="11.3654873"><ele>241.4</ele><time>2026-05-02T09:10:42.35Z</time></trkpt><trkpt lat="43.3011562" lon="11.365546"><ele>241.0</ele><time>2026-05-02T09:10:43.351Z</time></trkpt><trkpt lat="43.3010697" lon="11.3656047"><ele>241.0</ele><time>2026-05-02T09:10:44.344Z</time></trkpt><trkpt lat="43.3009807" lon="11.3656602"><ele>241.00000000000003</ele><time>2026-05-02T09:10:45.343Z</time></trkpt><trkpt lat="43.3008858" lon="11.3657056"><ele>241.00000000000003</ele><time>2026-05-02T09:10:46.35Z</time></trkpt><trkpt lat="43.300789" lon="11.3657362"><ele>241.0</ele><time>2026-05-02T09:10:47.345Z</time></trkpt><trkpt lat="43.3006806" lon="11.3657491"><ele>241.0</ele><time>2026-05-02T09:10:48.35Z</time></trkpt><trkpt lat="43.3005785" lon="11.3657511"><ele>241.60000000000002</ele><time>2026-05-02T09:10:49.343Z</time></trkpt><trkpt lat="43.3004768" lon="11.3657458"><ele>242.20000000000002</ele><time>2026-05-02T09:10:50.346Z</time></trkpt><trkpt lat="43.3003766" lon="11.365748"><ele>242.79999999999998</ele><time>2026-05-02T09:10:51.349Z</time></trkpt><trkpt lat="43.3002717" lon="11.3657527"><ele>243.39999999999998</ele><time>2026-05-02T09:10:52.352Z</time></trkpt><trkpt lat="43.3001835" lon="11.3657762"><ele>244.0</ele><time>2026-05-02T09:10:53.35Z</time></trkpt><trkpt lat="43.3001191" lon="11.3658069"><ele>244.0</ele><time>2026-05-02T09:10:54.353Z</time></trkpt><trkpt lat="43.30001" lon="11.3658902"><ele>243.99999999999997</ele><time>2026-05-02T09:10:56.35Z</time></trkpt><trkpt lat="43.2999443" lon="11.3659407"><ele>243.99999999999997</ele><time>2026-05-02T09:10:57.337Z</time></trkpt><trkpt lat="43.2998778" lon="11.3660029"><ele>244.0</ele><time>2026-05-02T09:10:58.341Z</time></trkpt><trkpt lat="43.2998101" lon="11.36608"><ele>244.0</ele><time>2026-05-02T09:10:59.348Z</time></trkpt><trkpt lat="43.2997385" lon="11.3661652"><ele>242.25</ele><time>2026-05-02T09:11:00.345Z</time></trkpt><trkpt lat="43.2996608" lon="11.3662516"><ele>240.5</ele><time>2026-05-02T09:11:01.353Z</time></trkpt><trkpt lat="43.2995767" lon="11.3663536"><ele>238.75</ele><time>2026-05-02T09:11:02.354Z</time></trkpt><trkpt lat="43.2994854" lon="11.3664725"><ele>237.0</ele><time>2026-05-02T09:11:03.338Z</time></trkpt><trkpt lat="43.2993945" lon="11.3665857"><ele>237.0</ele><time>2026-05-02T09:11:04.357Z</time></trkpt><trkpt lat="43.2993048" lon="11.3666938"><ele>237.0</ele><time>2026-05-02T09:11:05.348Z</time></trkpt><trkpt lat="43.2992239" lon="11.3668087"><ele>237.0</ele><time>2026-05-02T09:11:06.344Z</time></trkpt><trkpt lat="43.2991512" lon="11.366932"><ele>237.0</ele><time>2026-05-02T09:11:07.341Z</time></trkpt><trkpt lat="43.2990915" lon="11.3670617"><ele>237.5</ele><time>2026-05-02T09:11:08.35Z</time></trkpt><trkpt lat="43.2990316" lon="11.3671948"><ele>238.0</ele><time>2026-05-02T09:11:09.343Z</time></trkpt><trkpt lat="43.2989749" lon="11.3673319"><ele>238.5</ele><time>2026-05-02T09:11:10.344Z</time></trkpt><trkpt lat="43.2989154" lon="11.3674748"><ele>239.0</ele><time>2026-05-02T09:11:11.337Z</time></trkpt><trkpt lat="43.2988517" lon="11.3676221"><ele>238.0</ele><time>2026-05-02T09:11:12.351Z</time></trkpt><trkpt lat="43.2987956" lon="11.3677563"><ele>237.0</ele><time>2026-05-02T09:11:13.336Z</time></trkpt><trkpt lat="43.2987374" lon="11.3678958"><ele>236.0</ele><time>2026-05-02T09:11:14.333Z</time></trkpt><trkpt lat="43.2986768" lon="11.3680272"><ele>235.0</ele><time>2026-05-02T09:11:15.344Z</time></trkpt><trkpt lat="43.2986175" lon="11.3681556"><ele>235.0</ele><time>2026-05-02T09:11:16.353Z</time></trkpt><trkpt lat="43.2985516" lon="11.3682818"><ele>235.0</ele><time>2026-05-02T09:11:17.346Z</time></trkpt><trkpt lat="43.298473" lon="11.3683724"><ele>235.0</ele><time>2026-05-02T09:11:18.35Z</time></trkpt><trkpt lat="43.2983838" lon="11.3684299"><ele>235.0</ele><time>2026-05-02T09:11:19.354Z</time></trkpt><trkpt lat="43.2983026" lon="11.3684768"><ele>235.0</ele><time>2026-05-02T09:11:20.348Z</time></trkpt><trkpt lat="43.2982115" lon="11.3685064"><ele>235.0</ele><time>2026-05-02T09:11:21.342Z</time></trkpt><trkpt lat="43.2981131" lon="11.3685307"><ele>235.0</ele><time>2026-05-02T09:11:22.341Z</time></trkpt><trkpt lat="43.2980046" lon="11.3685427"><ele>235.0</ele><time>2026-05-02T09:11:23.345Z</time></trkpt><trkpt lat="43.2978981" lon="11.3685299"><ele>235.0</ele><time>2026-05-02T09:11:24.341Z</time></trkpt><trkpt lat="43.2977981" lon="11.3685033"><ele>235.0</ele><time>2026-05-02T09:11:25.339Z</time></trkpt><trkpt lat="43.2977025" lon="11.36846"><ele>235.0</ele><time>2026-05-02T09:11:26.34Z</time></trkpt><trkpt lat="43.2975993" lon="11.3684062"><ele>235.0</ele><time>2026-05-02T09:11:27.347Z</time></trkpt><trkpt lat="43.2975037" lon="11.36835"><ele>235.0</ele><time>2026-05-02T09:11:28.346Z</time></trkpt><trkpt lat="43.297408" lon="11.368299"><ele>235.0</ele><time>2026-05-02T09:11:29.354Z</time></trkpt><trkpt lat="43.2973098" lon="11.3682403"><ele>235.0</ele><time>2026-05-02T09:11:30.339Z</time></trkpt><trkpt lat="43.2972075" lon="11.3681944"><ele>235.0</ele><time>2026-05-02T09:11:31.346Z</time></trkpt><trkpt lat="43.2971029" lon="11.3681564"><ele>235.0</ele><time>2026-05-02T09:11:32.346Z</time></trkpt><trkpt lat="43.2969939" lon="11.3681145"><ele>235.0</ele><time>2026-05-02T09:11:33.355Z</time></trkpt><trkpt lat="43.2968843" lon="11.3680819"><ele>235.0</ele><time>2026-05-02T09:11:34.339Z</time></trkpt><trkpt lat="43.2967634" lon="11.3680535"><ele>235.0</ele><time>2026-05-02T09:11:35.348Z</time></trkpt><trkpt lat="43.2966316" lon="11.3680363"><ele>235.0</ele><time>2026-05-02T09:11:36.348Z</time></trkpt><trkpt lat="43.2965009" lon="11.3680331"><ele>235.0</ele><time>2026-05-02T09:11:37.351Z</time></trkpt><trkpt lat="43.2963794" lon="11.3680425"><ele>235.0</ele><time>2026-05-02T09:11:38.339Z</time></trkpt><trkpt lat="43.2962701" lon="11.3680621"><ele>237.0</ele><time>2026-05-02T09:11:39.354Z</time></trkpt><trkpt lat="43.2961611" lon="11.3680878"><ele>239.0</ele><time>2026-05-02T09:11:40.345Z</time></trkpt><trkpt lat="43.2960506" lon="11.36813"><ele>241.0</ele><time>2026-05-02T09:11:41.35Z</time></trkpt><trkpt lat="43.2959434" lon="11.3681822"><ele>243.0</ele><time>2026-05-02T09:11:42.345Z</time></trkpt><trkpt lat="43.2958448" lon="11.3682485"><ele>245.0</ele><time>2026-05-02T09:11:43.36Z</time></trkpt><trkpt lat="43.2957526" lon="11.3682925"><ele>245.00000000000003</ele><time>2026-05-02T09:11:44.35Z</time></trkpt><trkpt lat="43.2956606" lon="11.3683168"><ele>245.0</ele><time>2026-05-02T09:11:45.346Z</time></trkpt><trkpt lat="43.2955727" lon="11.3683343"><ele>245.0</ele><time>2026-05-02T09:11:46.34Z</time></trkpt><trkpt lat="43.2954874" lon="11.3683383"><ele>245.0</ele><time>2026-05-02T09:11:47.353Z</time></trkpt><trkpt lat="43.2954067" lon="11.3683592"><ele>245.00000000000003</ele><time>2026-05-02T09:11:48.351Z</time></trkpt><trkpt lat="43.2953255" lon="11.3683832"><ele>245.0</ele><time>2026-05-02T09:11:49.34Z</time></trkpt><trkpt lat="43.2952421" lon="11.3684153"><ele>243.83333333333334</ele><time>2026-05-02T09:11:50.34Z</time></trkpt><trkpt lat="43.2951613" lon="11.3684652"><ele>242.66666666666669</ele><time>2026-05-02T09:11:51.342Z</time></trkpt><trkpt lat="43.2950937" lon="11.3685159"><ele>241.5</ele><time>2026-05-02T09:11:52.345Z</time></trkpt><trkpt lat="43.2950381" lon="11.3685789"><ele>240.33333333333331</ele><time>2026-05-02T09:11:53.342Z</time></trkpt><trkpt lat="43.2949875" lon="11.3686501"><ele>239.16666666666666</ele><time>2026-05-02T09:11:54.348Z</time></trkpt><trkpt lat="43.2949385" lon="11.3687354"><ele>238.0</ele><time>2026-05-02T09:11:55.355Z</time></trkpt><trkpt lat="43.2948889" lon="11.3688302"><ele>238.60000000000002</ele><time>2026-05-02T09:11:56.356Z</time></trkpt><trkpt lat="43.2948391" lon="11.3689397"><ele>239.20000000000002</ele><time>2026-05-02T09:11:57.361Z</time></trkpt><trkpt lat="43.2947822" lon="11.3690517"><ele>239.8</ele><time>2026-05-02T09:11:58.348Z</time></trkpt><trkpt lat="43.2947111" lon="11.3691462"><ele>240.4</ele><time>2026-05-02T09:11:59.345Z</time></trkpt><trkpt lat="43.2946317" lon="11.3692188"><ele>241.0</ele><time>2026-05-02T09:12:00.352Z</time></trkpt><trkpt lat="43.294549" lon="11.3692866"><ele>238.8</ele><time>2026-05-02T09:12:01.344Z</time></trkpt><trkpt lat="43.2944619" lon="11.3693418"><ele>236.60000000000002</ele><time>2026-05-02T09:12:02.339Z</time></trkpt><trkpt lat="43.2943664" lon="11.369398"><ele>234.4</ele><time>2026-05-02T09:12:03.343Z</time></trkpt><trkpt lat="43.2942716" lon="11.3694544"><ele>232.2</ele><time>2026-05-02T09:12:04.347Z</time></trkpt><trkpt lat="43.2941776" lon="11.369508"><ele>230.0</ele><time>2026-05-02T09:12:05.35Z</time></trkpt><trkpt lat="43.2940893" lon="11.3695616"><ele>230.0</ele><time>2026-05-02T09:12:06.348Z</time></trkpt><trkpt lat="43.2940059" lon="11.3696236"><ele>230.0</ele><time>2026-05-02T09:12:07.345Z</time></trkpt><trkpt lat="43.2939172" lon="11.3696902"><ele>230.0</ele><time>2026-05-02T09:12:08.349Z</time></trkpt><trkpt lat="43.2938223" lon="11.3697551"><ele>230.0</ele><time>2026-05-02T09:12:09.343Z</time></trkpt><trkpt lat="43.2937193" lon="11.3698204"><ele>230.0</ele><time>2026-05-02T09:12:10.34Z</time></trkpt><trkpt lat="43.2936133" lon="11.3698816"><ele>228.75</ele><time>2026-05-02T09:12:11.351Z</time></trkpt><trkpt lat="43.2935041" lon="11.3699315"><ele>227.5</ele><time>2026-05-02T09:12:12.353Z</time></trkpt><trkpt lat="43.2933966" lon="11.3699795"><ele>226.25</ele><time>2026-05-02T09:12:13.351Z</time></trkpt><trkpt lat="43.2932798" lon="11.3700122"><ele>225.0</ele><time>2026-05-02T09:12:14.353Z</time></trkpt><trkpt lat="43.2931672" lon="11.3700444"><ele>224.4</ele><time>2026-05-02T09:12:15.358Z</time></trkpt><trkpt lat="43.2930508" lon="11.3700677"><ele>223.8</ele><time>2026-05-02T09:12:16.356Z</time></trkpt><trkpt lat="43.2929378" lon="11.3700816"><ele>223.2</ele><time>2026-05-02T09:12:17.346Z</time></trkpt><trkpt lat="43.29283" lon="11.3700816"><ele>222.6</ele><time>2026-05-02T09:12:18.35Z</time></trkpt><trkpt lat="43.2927314" lon="11.3700788"><ele>222.0</ele><time>2026-05-02T09:12:19.352Z</time></trkpt><trkpt lat="43.2926459" lon="11.3700714"><ele>222.0</ele><time>2026-05-02T09:12:20.356Z</time></trkpt><trkpt lat="43.2925725" lon="11.3700719"><ele>222.0</ele><time>2026-05-02T09:12:21.35Z</time></trkpt><trkpt lat="43.2925059" lon="11.3700699"><ele>222.0</ele><time>2026-05-02T09:12:22.348Z</time></trkpt><trkpt lat="43.2924415" lon="11.3700701"><ele>222.0</ele><time>2026-05-02T09:12:23.352Z</time></trkpt><trkpt lat="43.2923138" lon="11.3700656"><ele>222.0</ele><time>2026-05-02T09:12:25.357Z</time></trkpt><trkpt lat="43.2922332" lon="11.3700734"><ele>222.0</ele><time>2026-05-02T09:12:26.333Z</time></trkpt><trkpt lat="43.2921353" lon="11.3700831"><ele>222.2</ele><time>2026-05-02T09:12:27.338Z</time></trkpt><trkpt lat="43.2920294" lon="11.3700891"><ele>222.39999999999998</ele><time>2026-05-02T09:12:28.365Z</time></trkpt><trkpt lat="43.2919149" lon="11.3701055"><ele>222.60000000000002</ele><time>2026-05-02T09:12:29.346Z</time></trkpt><trkpt lat="43.2918142" lon="11.3701345"><ele>222.8</ele><time>2026-05-02T09:12:30.354Z</time></trkpt><trkpt lat="43.2917245" lon="11.3701619"><ele>223.0</ele><time>2026-05-02T09:12:31.349Z</time></trkpt><trkpt lat="43.2916523" lon="11.3701889"><ele>222.99999999999997</ele><time>2026-05-02T09:12:32.352Z</time></trkpt><trkpt lat="43.2915777" lon="11.3702247"><ele>223.0</ele><time>2026-05-02T09:12:33.353Z</time></trkpt><trkpt lat="43.2915036" lon="11.3702646"><ele>223.0</ele><time>2026-05-02T09:12:34.351Z</time></trkpt><trkpt lat="43.2914246" lon="11.3702999"><ele>223.0</ele><time>2026-05-02T09:12:35.362Z</time></trkpt><trkpt lat="43.2913472" lon="11.3703513"><ele>222.99999999999997</ele><time>2026-05-02T09:12:36.342Z</time></trkpt><trkpt lat="43.2912638" lon="11.3704106"><ele>223.0</ele><time>2026-05-02T09:12:37.35Z</time></trkpt><trkpt lat="43.2911776" lon="11.3704781"><ele>223.4</ele><time>2026-05-02T09:12:38.346Z</time></trkpt><trkpt lat="43.2910894" lon="11.370542"><ele>223.8</ele><time>2026-05-02T09:12:39.35Z</time></trkpt><trkpt lat="43.2909941" lon="11.3705929"><ele>224.2</ele><time>2026-05-02T09:12:40.349Z</time></trkpt><trkpt lat="43.2908948" lon="11.3706334"><ele>224.6</ele><time>2026-05-02T09:12:41.337Z</time></trkpt><trkpt lat="43.2907958" lon="11.3706675"><ele>225.0</ele><time>2026-05-02T09:12:42.348Z</time></trkpt><trkpt lat="43.2907012" lon="11.3707094"><ele>225.0</ele><time>2026-05-02T09:12:43.358Z</time></trkpt><trkpt lat="43.2906107" lon="11.3707758"><ele>225.0</ele><time>2026-05-02T09:12:44.337Z</time></trkpt><trkpt lat="43.2905384" lon="11.3708567"><ele>225.0</ele><time>2026-05-02T09:12:45.335Z</time></trkpt><trkpt lat="43.2904819" lon="11.3709541"><ele>225.0</ele><time>2026-05-02T09:12:46.347Z</time></trkpt><trkpt lat="43.29043" lon="11.3710588"><ele>225.0</ele><time>2026-05-02T09:12:47.349Z</time></trkpt><trkpt lat="43.2903844" lon="11.3711687"><ele>225.0</ele><time>2026-05-02T09:12:48.344Z</time></trkpt><trkpt lat="43.2903282" lon="11.3712682"><ele>225.0</ele><time>2026-05-02T09:12:49.346Z</time></trkpt><trkpt lat="43.2902646" lon="11.3713589"><ele>225.0</ele><time>2026-05-02T09:12:50.352Z</time></trkpt><trkpt lat="43.2901901" lon="11.371426"><ele>225.0</ele><time>2026-05-02T09:12:51.344Z</time></trkpt><trkpt lat="43.2901146" lon="11.3714751"><ele>225.0</ele><time>2026-05-02T09:12:52.349Z</time></trkpt><trkpt lat="43.2900534" lon="11.371505"><ele>225.0</ele><time>2026-05-02T09:12:53.346Z</time></trkpt><trkpt lat="43.2899562" lon="11.3715915"><ele>225.0</ele><time>2026-05-02T09:12:55.344Z</time></trkpt><trkpt lat="43.289927" lon="11.3717195"><ele>225.0</ele><time>2026-05-02T09:12:57.345Z</time></trkpt><trkpt lat="43.28992" lon="11.3718331"><ele>225.0</ele><time>2026-05-02T09:13:00.344Z</time></trkpt><trkpt lat="43.2899059" lon="11.3719595"><ele>225.0</ele><time>2026-05-02T09:13:03.344Z</time></trkpt><trkpt lat="43.2898752" lon="11.3720477"><ele>225.0</ele><time>2026-05-02T09:13:05.351Z</time></trkpt><trkpt lat="43.2898058" lon="11.3721407"><ele>225.0</ele><time>2026-05-02T09:13:07.348Z</time></trkpt><trkpt lat="43.2897349" lon="11.3722046"><ele>223.66666666666666</ele><time>2026-05-02T09:13:09.348Z</time></trkpt><trkpt lat="43.2896581" lon="11.3722405"><ele>222.33333333333331</ele><time>2026-05-02T09:13:11.328Z</time></trkpt><trkpt lat="43.2895864" lon="11.3722833"><ele>221.0</ele><time>2026-05-02T09:13:13.351Z</time></trkpt><trkpt lat="43.2895091" lon="11.3723185"><ele>219.66666666666666</ele><time>2026-05-02T09:13:15.35Z</time></trkpt><trkpt lat="43.2894242" lon="11.3723618"><ele>218.33333333333331</ele><time>2026-05-02T09:13:17.355Z</time></trkpt><trkpt lat="43.2893399" lon="11.3724109"><ele>217.0</ele><time>2026-05-02T09:13:19.355Z</time></trkpt><trkpt lat="43.2892433" lon="11.3724753"><ele>216.99999999999997</ele><time>2026-05-02T09:13:21.36Z</time></trkpt><trkpt lat="43.2891548" lon="11.3725811"><ele>217.0</ele><time>2026-05-02T09:13:23.342Z</time></trkpt><trkpt lat="43.289121" lon="11.3727458"><ele>217.0</ele><time>2026-05-02T09:13:25.349Z</time></trkpt><trkpt lat="43.289119" lon="11.3728385"><ele>217.0</ele><time>2026-05-02T09:13:26.348Z</time></trkpt><trkpt lat="43.2891182" lon="11.372929"><ele>216.99999999999997</ele><time>2026-05-02T09:13:27.349Z</time></trkpt><trkpt lat="43.2891185" lon="11.3730158"><ele>217.0</ele><time>2026-05-02T09:13:28.346Z</time></trkpt><trkpt lat="43.2891179" lon="11.3731023"><ele>216.0</ele><time>2026-05-02T09:13:29.347Z</time></trkpt><trkpt lat="43.2891088" lon="11.3731906"><ele>215.0</ele><time>2026-05-02T09:13:30.354Z</time></trkpt><trkpt lat="43.2891022" lon="11.3732842"><ele>214.0</ele><time>2026-05-02T09:13:31.35Z</time></trkpt><trkpt lat="43.2890985" lon="11.3733772"><ele>213.0</ele><time>2026-05-02T09:13:32.358Z</time></trkpt><trkpt lat="43.2890923" lon="11.3734695"><ele>212.0</ele><time>2026-05-02T09:13:33.351Z</time></trkpt><trkpt lat="43.2890922" lon="11.3735625"><ele>211.0</ele><time>2026-05-02T09:13:34.347Z</time></trkpt><trkpt lat="43.2890925" lon="11.3736632"><ele>210.0</ele><time>2026-05-02T09:13:35.344Z</time></trkpt><trkpt lat="43.2890936" lon="11.3737748"><ele>208.66666666666666</ele><time>2026-05-02T09:13:36.345Z</time></trkpt><trkpt lat="43.2890998" lon="11.3738915"><ele>207.33333333333331</ele><time>2026-05-02T09:13:37.35Z</time></trkpt><trkpt lat="43.289099" lon="11.3740109"><ele>206.0</ele><time>2026-05-02T09:13:38.334Z</time></trkpt><trkpt lat="43.2890994" lon="11.3741278"><ele>204.66666666666666</ele><time>2026-05-02T09:13:39.348Z</time></trkpt><trkpt lat="43.2891029" lon="11.3742409"><ele>203.33333333333331</ele><time>2026-05-02T09:13:40.352Z</time></trkpt><trkpt lat="43.2891092" lon="11.3743615"><ele>202.0</ele><time>2026-05-02T09:13:41.347Z</time></trkpt><trkpt lat="43.2891101" lon="11.3744869"><ele>202.0</ele><time>2026-05-02T09:13:42.356Z</time></trkpt><trkpt lat="43.2891131" lon="11.3746126"><ele>202.0</ele><time>2026-05-02T09:13:43.352Z</time></trkpt><trkpt lat="43.2891173" lon="11.3747421"><ele>202.0</ele><time>2026-05-02T09:13:44.353Z</time></trkpt><trkpt lat="43.2891216" lon="11.3748678"><ele>202.0</ele><time>2026-05-02T09:13:45.341Z</time></trkpt><trkpt lat="43.2891258" lon="11.3749879"><ele>202.0</ele><time>2026-05-02T09:13:46.342Z</time></trkpt><trkpt lat="43.2891278" lon="11.3751055"><ele>200.66666666666666</ele><time>2026-05-02T09:13:47.344Z</time></trkpt><trkpt lat="43.289131" lon="11.3752277"><ele>199.33333333333331</ele><time>2026-05-02T09:13:48.347Z</time></trkpt><trkpt lat="43.289135" lon="11.3753471"><ele>198.0</ele><time>2026-05-02T09:13:49.336Z</time></trkpt><trkpt lat="43.2891451" lon="11.3754621"><ele>196.66666666666669</ele><time>2026-05-02T09:13:50.348Z</time></trkpt><trkpt lat="43.2891513" lon="11.3755815"><ele>195.33333333333334</ele><time>2026-05-02T09:13:51.354Z</time></trkpt><trkpt lat="43.2891632" lon="11.3757113"><ele>194.0</ele><time>2026-05-02T09:13:52.343Z</time></trkpt><trkpt lat="43.2891667" lon="11.3758404"><ele>192.66666666666669</ele><time>2026-05-02T09:13:53.345Z</time></trkpt><trkpt lat="43.2891674" lon="11.3759635"><ele>191.33333333333334</ele><time>2026-05-02T09:13:54.354Z</time></trkpt><trkpt lat="43.2891686" lon="11.3760788"><ele>190.0</ele><time>2026-05-02T09:13:55.352Z</time></trkpt><trkpt lat="43.2891723" lon="11.3761953"><ele>188.66666666666669</ele><time>2026-05-02T09:13:56.339Z</time></trkpt><trkpt lat="43.2891757" lon="11.3763066"><ele>187.33333333333334</ele><time>2026-05-02T09:13:57.359Z</time></trkpt><trkpt lat="43.2891813" lon="11.3764185"><ele>186.0</ele><time>2026-05-02T09:13:58.352Z</time></trkpt><trkpt lat="43.289191" lon="11.3765272"><ele>185.83333333333334</ele><time>2026-05-02T09:13:59.332Z</time></trkpt><trkpt lat="43.2891955" lon="11.3766294"><ele>185.66666666666666</ele><time>2026-05-02T09:14:00.345Z</time></trkpt><trkpt lat="43.2892016" lon="11.3767251"><ele>185.5</ele><time>2026-05-02T09:14:01.343Z</time></trkpt><trkpt lat="43.289215" lon="11.376826"><ele>185.33333333333331</ele><time>2026-05-02T09:14:02.342Z</time></trkpt><trkpt lat="43.2892299" lon="11.3769531"><ele>185.16666666666666</ele><time>2026-05-02T09:14:03.346Z</time></trkpt><trkpt lat="43.2892443" lon="11.3770931"><ele>185.0</ele><time>2026-05-02T09:14:04.349Z</time></trkpt><trkpt lat="43.2892529" lon="11.37724"><ele>185.0</ele><time>2026-05-02T09:14:05.35Z</time></trkpt><trkpt lat="43.2892609" lon="11.3773888"><ele>185.0</ele><time>2026-05-02T09:14:06.361Z</time></trkpt><trkpt lat="43.2892632" lon="11.3775374"><ele>185.0</ele><time>2026-05-02T09:14:07.346Z</time></trkpt><trkpt lat="43.2892555" lon="11.3776617"><ele>185.0</ele><time>2026-05-02T09:14:08.349Z</time></trkpt><trkpt lat="43.2892365" lon="11.3777633"><ele>185.0</ele><time>2026-05-02T09:14:09.35Z</time></trkpt><trkpt lat="43.2891461" lon="11.3778773"><ele>185.0</ele><time>2026-05-02T09:14:11.343Z</time></trkpt><trkpt lat="43.2890516" lon="11.3779587"><ele>185.0</ele><time>2026-05-02T09:14:13.34Z</time></trkpt><trkpt lat="43.2889529" lon="11.3780254"><ele>185.0</ele><time>2026-05-02T09:14:15.348Z</time></trkpt><trkpt lat="43.2888348" lon="11.3780933"><ele>185.0</ele><time>2026-05-02T09:14:17.359Z</time></trkpt><trkpt lat="43.288773" lon="11.3781253"><ele>185.0</ele><time>2026-05-02T09:14:18.349Z</time></trkpt><trkpt lat="43.2886593" lon="11.378183"><ele>187.6</ele><time>2026-05-02T09:14:20.343Z</time></trkpt><trkpt lat="43.2885411" lon="11.3782532"><ele>190.2</ele><time>2026-05-02T09:14:22.341Z</time></trkpt><trkpt lat="43.2884807" lon="11.3782942"><ele>192.8</ele><time>2026-05-02T09:14:23.345Z</time></trkpt><trkpt lat="43.2883749" lon="11.3783833"><ele>195.4</ele><time>2026-05-02T09:14:25.345Z</time></trkpt><trkpt lat="43.288323" lon="11.378437"><ele>198.0</ele><time>2026-05-02T09:14:26.354Z</time></trkpt><trkpt lat="43.2882714" lon="11.3784929"><ele>198.0</ele><time>2026-05-02T09:14:27.351Z</time></trkpt><trkpt lat="43.288221" lon="11.3785456"><ele>198.0</ele><time>2026-05-02T09:14:28.35Z</time></trkpt><trkpt lat="43.2881269" lon="11.3786565"><ele>198.0</ele><time>2026-05-02T09:14:30.349Z</time></trkpt><trkpt lat="43.2880583" lon="11.3787693"><ele>198.0</ele><time>2026-05-02T09:14:32.351Z</time></trkpt><trkpt lat="43.2880207" lon="11.3788775"><ele>198.0</ele><time>2026-05-02T09:14:34.346Z</time></trkpt><trkpt lat="43.2880149" lon="11.3790087"><ele>198.33333333333334</ele><time>2026-05-02T09:14:36.349Z</time></trkpt><trkpt lat="43.2880142" lon="11.3791383"><ele>198.66666666666669</ele><time>2026-05-02T09:14:38.346Z</time></trkpt><trkpt lat="43.2880226" lon="11.3792571"><ele>199.0</ele><time>2026-05-02T09:14:40.347Z</time></trkpt><trkpt lat="43.2880239" lon="11.3793636"><ele>199.33333333333334</ele><time>2026-05-02T09:14:43.343Z</time></trkpt><trkpt lat="43.2880059" lon="11.3794624"><ele>199.66666666666669</ele><time>2026-05-02T09:14:57.349Z</time></trkpt><trkpt lat="43.2879333" lon="11.37956"><ele>200.0</ele><time>2026-05-02T09:14:59.343Z</time></trkpt><trkpt lat="43.2877885" lon="11.3796373"><ele>199.5</ele><time>2026-05-02T09:15:01.342Z</time></trkpt><trkpt lat="43.2876746" lon="11.3796977"><ele>199.0</ele><time>2026-05-02T09:15:02.348Z</time></trkpt><trkpt lat="43.287546" lon="11.3797649"><ele>198.5</ele><time>2026-05-02T09:15:03.345Z</time></trkpt><trkpt lat="43.2874224" lon="11.3798251"><ele>198.0</ele><time>2026-05-02T09:15:04.348Z</time></trkpt><trkpt lat="43.2872997" lon="11.3798759"><ele>197.25</ele><time>2026-05-02T09:15:05.344Z</time></trkpt><trkpt lat="43.2871726" lon="11.3798936"><ele>196.5</ele><time>2026-05-02T09:15:06.346Z</time></trkpt><trkpt lat="43.2870408" lon="11.3798962"><ele>195.75</ele><time>2026-05-02T09:15:07.344Z</time></trkpt><trkpt lat="43.286921" lon="11.3798837"><ele>195.0</ele><time>2026-05-02T09:15:08.343Z</time></trkpt><trkpt lat="43.2868106" lon="11.3798626"><ele>195.0</ele><time>2026-05-02T09:15:09.358Z</time></trkpt><trkpt lat="43.286701" lon="11.3798346"><ele>195.0</ele><time>2026-05-02T09:15:10.338Z</time></trkpt><trkpt lat="43.2866022" lon="11.3797983"><ele>195.0</ele><time>2026-05-02T09:15:11.356Z</time></trkpt><trkpt lat="43.2865002" lon="11.379754"><ele>195.0</ele><time>2026-05-02T09:15:12.342Z</time></trkpt><trkpt lat="43.2864014" lon="11.3797054"><ele>195.0</ele><time>2026-05-02T09:15:13.352Z</time></trkpt><trkpt lat="43.2863049" lon="11.3796488"><ele>195.4</ele><time>2026-05-02T09:15:14.358Z</time></trkpt><trkpt lat="43.2862089" lon="11.3795915"><ele>195.8</ele><time>2026-05-02T09:15:15.353Z</time></trkpt><trkpt lat="43.2861155" lon="11.3795267"><ele>196.2</ele><time>2026-05-02T09:15:16.349Z</time></trkpt><trkpt lat="43.2860196" lon="11.379466"><ele>196.6</ele><time>2026-05-02T09:15:17.343Z</time></trkpt><trkpt lat="43.285925" lon="11.3794026"><ele>197.0</ele><time>2026-05-02T09:15:18.35Z</time></trkpt><trkpt lat="43.2858362" lon="11.379339"><ele>197.0</ele><time>2026-05-02T09:15:19.344Z</time></trkpt><trkpt lat="43.2857527" lon="11.3792789"><ele>197.0</ele><time>2026-05-02T09:15:20.348Z</time></trkpt><trkpt lat="43.285666" lon="11.3792206"><ele>197.0</ele><time>2026-05-02T09:15:21.348Z</time></trkpt><trkpt lat="43.2855913" lon="11.3791711"><ele>197.0</ele><time>2026-05-02T09:15:22.347Z</time></trkpt><trkpt lat="43.2855105" lon="11.3791251"><ele>197.0</ele><time>2026-05-02T09:15:23.348Z</time></trkpt><trkpt lat="43.2854148" lon="11.3790828"><ele>196.39999999999998</ele><time>2026-05-02T09:15:24.352Z</time></trkpt><trkpt lat="43.2853201" lon="11.3790464"><ele>195.79999999999998</ele><time>2026-05-02T09:15:25.348Z</time></trkpt><trkpt lat="43.2852226" lon="11.3790229"><ele>195.2</ele><time>2026-05-02T09:15:26.345Z</time></trkpt><trkpt lat="43.2851179" lon="11.3790088"><ele>194.6</ele><time>2026-05-02T09:15:27.349Z</time></trkpt><trkpt lat="43.2850134" lon="11.3789964"><ele>194.0</ele><time>2026-05-02T09:15:28.351Z</time></trkpt><trkpt lat="43.2849013" lon="11.3789934"><ele>194.0</ele><time>2026-05-02T09:15:29.348Z</time></trkpt><trkpt lat="43.2847931" lon="11.3789905"><ele>194.0</ele><time>2026-05-02T09:15:30.348Z</time></trkpt><trkpt lat="43.284691" lon="11.3789742"><ele>194.0</ele><time>2026-05-02T09:15:31.351Z</time></trkpt><trkpt lat="43.2845931" lon="11.3789625"><ele>194.0</ele><time>2026-05-02T09:15:32.351Z</time></trkpt><trkpt lat="43.2844882" lon="11.378948"><ele>194.0</ele><time>2026-05-02T09:15:33.35Z</time></trkpt><trkpt lat="43.2843841" lon="11.3789257"><ele>193.79999999999998</ele><time>2026-05-02T09:15:34.348Z</time></trkpt><trkpt lat="43.2842901" lon="11.3788925"><ele>193.6</ele><time>2026-05-02T09:15:35.347Z</time></trkpt><trkpt lat="43.2842024" lon="11.3788437"><ele>193.4</ele><time>2026-05-02T09:15:36.337Z</time></trkpt><trkpt lat="43.2841189" lon="11.3787605"><ele>193.2</ele><time>2026-05-02T09:15:37.343Z</time></trkpt><trkpt lat="43.2840399" lon="11.3786463"><ele>193.0</ele><time>2026-05-02T09:15:38.335Z</time></trkpt><trkpt lat="43.2839815" lon="11.3785164"><ele>191.8</ele><time>2026-05-02T09:15:39.332Z</time></trkpt><trkpt lat="43.2839311" lon="11.3783787"><ele>190.60000000000002</ele><time>2026-05-02T09:15:40.343Z</time></trkpt><trkpt lat="43.2838798" lon="11.3782462"><ele>189.39999999999998</ele><time>2026-05-02T09:15:41.351Z</time></trkpt><trkpt lat="43.2838208" lon="11.3781203"><ele>188.2</ele><time>2026-05-02T09:15:42.35Z</time></trkpt><trkpt lat="43.2837467" lon="11.3780223"><ele>187.0</ele><time>2026-05-02T09:15:43.35Z</time></trkpt><trkpt lat="43.2836623" lon="11.3779363"><ele>185.0</ele><time>2026-05-02T09:15:44.352Z</time></trkpt><trkpt lat="43.2835638" lon="11.3778623"><ele>183.0</ele><time>2026-05-02T09:15:45.347Z</time></trkpt><trkpt lat="43.2834605" lon="11.3778177"><ele>181.0</ele><time>2026-05-02T09:15:46.342Z</time></trkpt><trkpt lat="43.2833354" lon="11.3777854"><ele>179.0</ele><time>2026-05-02T09:15:47.335Z</time></trkpt><trkpt lat="43.2832062" lon="11.377785"><ele>178.75</ele><time>2026-05-02T09:15:48.328Z</time></trkpt><trkpt lat="43.2830717" lon="11.3778027"><ele>178.5</ele><time>2026-05-02T09:15:49.353Z</time></trkpt><trkpt lat="43.2829384" lon="11.3778403"><ele>178.25</ele><time>2026-05-02T09:15:50.357Z</time></trkpt><trkpt lat="43.2828099" lon="11.3778898"><ele>178.0</ele><time>2026-05-02T09:15:51.351Z</time></trkpt><trkpt lat="43.2826926" lon="11.3779347"><ele>178.0</ele><time>2026-05-02T09:15:52.354Z</time></trkpt><trkpt lat="43.2825689" lon="11.3779588"><ele>178.0</ele><time>2026-05-02T09:15:53.361Z</time></trkpt><trkpt lat="43.2824512" lon="11.3779471"><ele>178.0</ele><time>2026-05-02T09:15:54.367Z</time></trkpt><trkpt lat="43.2823309" lon="11.3779093"><ele>178.0</ele><time>2026-05-02T09:15:55.369Z</time></trkpt><trkpt lat="43.2822315" lon="11.3778233"><ele>177.8</ele><time>2026-05-02T09:15:56.363Z</time></trkpt><trkpt lat="43.2821494" lon="11.3777354"><ele>177.60000000000002</ele><time>2026-05-02T09:15:57.37Z</time></trkpt><trkpt lat="43.2820818" lon="11.377618"><ele>177.39999999999998</ele><time>2026-05-02T09:15:58.367Z</time></trkpt><trkpt lat="43.2820349" lon="11.3774945"><ele>177.2</ele><time>2026-05-02T09:15:59.348Z</time></trkpt><trkpt lat="43.2819941" lon="11.3773776"><ele>177.0</ele><time>2026-05-02T09:16:00.396Z</time></trkpt><trkpt lat="43.2819704" lon="11.3772582"><ele>176.6</ele><time>2026-05-02T09:16:01.361Z</time></trkpt><trkpt lat="43.2819417" lon="11.3771454"><ele>176.2</ele><time>2026-05-02T09:16:02.369Z</time></trkpt><trkpt lat="43.281914" lon="11.377039"><ele>175.8</ele><time>2026-05-02T09:16:03.339Z</time></trkpt><trkpt lat="43.2818932" lon="11.3769407"><ele>175.4</ele><time>2026-05-02T09:16:04.374Z</time></trkpt><trkpt lat="43.281864" lon="11.3767913"><ele>175.0</ele><time>2026-05-02T09:16:06.367Z</time></trkpt><trkpt lat="43.2818876" lon="11.3766488"><ele>175.0</ele><time>2026-05-02T09:16:08.348Z</time></trkpt><trkpt lat="43.2819216" lon="11.3765679"><ele>175.0</ele><time>2026-05-02T09:16:09.362Z</time></trkpt><trkpt lat="43.2819554" lon="11.376489"><ele>175.0</ele><time>2026-05-02T09:16:10.36Z</time></trkpt><trkpt lat="43.2819778" lon="11.3763895"><ele>175.0</ele><time>2026-05-02T09:16:11.358Z</time></trkpt><trkpt lat="43.2819851" lon="11.3762864"><ele>175.0</ele><time>2026-05-02T09:16:12.383Z</time></trkpt><trkpt lat="43.2819593" lon="11.3761813"><ele>175.0</ele><time>2026-05-02T09:16:13.341Z</time></trkpt><trkpt lat="43.2819041" lon="11.3760834"><ele>175.4</ele><time>2026-05-02T09:16:14.353Z</time></trkpt><trkpt lat="43.2818249" lon="11.3760119"><ele>175.8</ele><time>2026-05-02T09:16:15.36Z</time></trkpt><trkpt lat="43.2817363" lon="11.375932"><ele>176.2</ele><time>2026-05-02T09:16:16.362Z</time></trkpt><trkpt lat="43.2816587" lon="11.3758233"><ele>176.6</ele><time>2026-05-02T09:16:17.369Z</time></trkpt><trkpt lat="43.2815995" lon="11.3756759"><ele>177.0</ele><time>2026-05-02T09:16:18.367Z</time></trkpt><trkpt lat="43.2815589" lon="11.375512"><ele>178.25</ele><time>2026-05-02T09:16:19.374Z</time></trkpt><trkpt lat="43.2815486" lon="11.3753333"><ele>179.5</ele><time>2026-05-02T09:16:20.362Z</time></trkpt><trkpt lat="43.2815469" lon="11.3751528"><ele>180.75</ele><time>2026-05-02T09:16:21.366Z</time></trkpt><trkpt lat="43.2815607" lon="11.374958"><ele>182.0</ele><time>2026-05-02T09:16:22.386Z</time></trkpt><trkpt lat="43.2815941" lon="11.374761"><ele>184.33333333333331</ele><time>2026-05-02T09:16:23.336Z</time></trkpt><trkpt lat="43.2816486" lon="11.3745677"><ele>186.66666666666666</ele><time>2026-05-02T09:16:24.371Z</time></trkpt><trkpt lat="43.2817198" lon="11.3743653"><ele>189.0</ele><time>2026-05-02T09:16:25.365Z</time></trkpt><trkpt lat="43.2818077" lon="11.374176"><ele>189.0</ele><time>2026-05-02T09:16:26.372Z</time></trkpt><trkpt lat="43.2818964" lon="11.3739969"><ele>189.0</ele><time>2026-05-02T09:16:27.377Z</time></trkpt><trkpt lat="43.2819976" lon="11.3738156"><ele>189.0</ele><time>2026-05-02T09:16:28.366Z</time></trkpt><trkpt lat="43.2820887" lon="11.3736303"><ele>190.33333333333331</ele><time>2026-05-02T09:16:29.376Z</time></trkpt><trkpt lat="43.2821601" lon="11.3734299"><ele>191.66666666666666</ele><time>2026-05-02T09:16:30.339Z</time></trkpt><trkpt lat="43.2822123" lon="11.3732303"><ele>193.0</ele><time>2026-05-02T09:16:31.335Z</time></trkpt><trkpt lat="43.2822477" lon="11.3730237"><ele>208.0</ele><time>2026-05-02T09:16:32.336Z</time></trkpt><trkpt lat="43.2835426" lon="11.3678739"><ele>208.0</ele><time>2026-05-02T09:16:58.188Z</time></trkpt><trkpt lat="43.2834756" lon="11.3676844"><ele>208.0</ele><time>2026-05-02T09:16:59.337Z</time></trkpt><trkpt lat="43.2834864" lon="11.3674929"><ele>208.0</ele><time>2026-05-02T09:17:00.357Z</time></trkpt><trkpt lat="43.2834657" lon="11.3673711"><ele>208.0</ele><time>2026-05-02T09:17:01.331Z</time></trkpt><trkpt lat="43.283441" lon="11.367172"><ele>208.75</ele><time>2026-05-02T09:17:02.331Z</time></trkpt><trkpt lat="43.2834017" lon="11.366994"><ele>209.5</ele><time>2026-05-02T09:17:03.342Z</time></trkpt><trkpt lat="43.2833423" lon="11.3668388"><ele>210.25</ele><time>2026-05-02T09:17:04.345Z</time></trkpt><trkpt lat="43.2832934" lon="11.3666858"><ele>211.0</ele><time>2026-05-02T09:17:05.348Z</time></trkpt><trkpt lat="43.2832536" lon="11.3665714"><ele>211.0</ele><time>2026-05-02T09:17:06.338Z</time></trkpt><trkpt lat="43.2831965" lon="11.3664633"><ele>211.0</ele><time>2026-05-02T09:17:07.35Z</time></trkpt><trkpt lat="43.2831354" lon="11.3663563"><ele>211.0</ele><time>2026-05-02T09:17:08.348Z</time></trkpt><trkpt lat="43.2830463" lon="11.3662406"><ele>211.0</ele><time>2026-05-02T09:17:09.347Z</time></trkpt><trkpt lat="43.2829316" lon="11.3660868"><ele>212.33333333333331</ele><time>2026-05-02T09:17:10.348Z</time></trkpt><trkpt lat="43.2827909" lon="11.3659296"><ele>213.66666666666669</ele><time>2026-05-02T09:17:11.336Z</time></trkpt><trkpt lat="43.2826368" lon="11.3657622"><ele>215.0</ele><time>2026-05-02T09:17:12.349Z</time></trkpt><trkpt lat="43.2824881" lon="11.3655937"><ele>215.0</ele><time>2026-05-02T09:17:13.339Z</time></trkpt><trkpt lat="43.2823604" lon="11.3654398"><ele>215.0</ele><time>2026-05-02T09:17:14.349Z</time></trkpt><trkpt lat="43.2822591" lon="11.3652658"><ele>215.0</ele><time>2026-05-02T09:17:15.347Z</time></trkpt><trkpt lat="43.2821941" lon="11.3650579"><ele>215.0</ele><time>2026-05-02T09:17:16.344Z</time></trkpt><trkpt lat="43.2821716" lon="11.3648292"><ele>215.0</ele><time>2026-05-02T09:17:17.348Z</time></trkpt><trkpt lat="43.2821746" lon="11.364606"><ele>215.0</ele><time>2026-05-02T09:17:18.337Z</time></trkpt><trkpt lat="43.2821963" lon="11.3643742"><ele>213.66666666666669</ele><time>2026-05-02T09:17:19.343Z</time></trkpt><trkpt lat="43.282228" lon="11.3641415"><ele>212.33333333333331</ele><time>2026-05-02T09:17:20.352Z</time></trkpt><trkpt lat="43.2822821" lon="11.3639126"><ele>211.0</ele><time>2026-05-02T09:17:21.352Z</time></trkpt><trkpt lat="43.2823643" lon="11.363704"><ele>214.0</ele><time>2026-05-02T09:17:22.348Z</time></trkpt><trkpt lat="43.2824544" lon="11.3634932"><ele>217.0</ele><time>2026-05-02T09:17:23.344Z</time></trkpt><trkpt lat="43.2825392" lon="11.3632803"><ele>220.0</ele><time>2026-05-02T09:17:24.349Z</time></trkpt><trkpt lat="43.2826412" lon="11.3630687"><ele>217.33333333333331</ele><time>2026-05-02T09:17:25.347Z</time></trkpt><trkpt lat="43.2827499" lon="11.3628675"><ele>214.66666666666669</ele><time>2026-05-02T09:17:26.344Z</time></trkpt><trkpt lat="43.2828536" lon="11.3626634"><ele>212.0</ele><time>2026-05-02T09:17:27.346Z</time></trkpt><trkpt lat="43.2829479" lon="11.3624703"><ele>212.0</ele><time>2026-05-02T09:17:28.354Z</time></trkpt><trkpt lat="43.2830337" lon="11.3622761"><ele>212.0</ele><time>2026-05-02T09:17:29.36Z</time></trkpt><trkpt lat="43.2831109" lon="11.3620805"><ele>212.0</ele><time>2026-05-02T09:17:30.346Z</time></trkpt><trkpt lat="43.283174" lon="11.3618889"><ele>215.66666666666669</ele><time>2026-05-02T09:17:31.353Z</time></trkpt><trkpt lat="43.2832331" lon="11.3616929"><ele>219.33333333333331</ele><time>2026-05-02T09:17:32.346Z</time></trkpt><trkpt lat="43.2832804" lon="11.3614912"><ele>223.0</ele><time>2026-05-02T09:17:33.359Z</time></trkpt><trkpt lat="43.2833231" lon="11.3612781"><ele>223.0</ele><time>2026-05-02T09:17:34.348Z</time></trkpt><trkpt lat="43.283363" lon="11.3610672"><ele>223.0</ele><time>2026-05-02T09:17:35.347Z</time></trkpt><trkpt lat="43.2834034" lon="11.3608555"><ele>223.0</ele><time>2026-05-02T09:17:36.352Z</time></trkpt><trkpt lat="43.2834514" lon="11.3606415"><ele>221.0</ele><time>2026-05-02T09:17:37.352Z</time></trkpt><trkpt lat="43.2835035" lon="11.3604284"><ele>219.0</ele><time>2026-05-02T09:17:38.353Z</time></trkpt><trkpt lat="43.283558" lon="11.3602302"><ele>217.0</ele><time>2026-05-02T09:17:39.359Z</time></trkpt><trkpt lat="43.2836132" lon="11.360048"><ele>217.0</ele><time>2026-05-02T09:17:40.341Z</time></trkpt><trkpt lat="43.2836645" lon="11.3598774"><ele>217.0</ele><time>2026-05-02T09:17:41.344Z</time></trkpt><trkpt lat="43.2837137" lon="11.3597185"><ele>217.0</ele><time>2026-05-02T09:17:42.344Z</time></trkpt><trkpt lat="43.2837586" lon="11.3595693"><ele>217.0</ele><time>2026-05-02T09:17:43.353Z</time></trkpt><trkpt lat="43.2838057" lon="11.3594274"><ele>216.6</ele><time>2026-05-02T09:17:44.342Z</time></trkpt><trkpt lat="43.283847" lon="11.3593175"><ele>216.2</ele><time>2026-05-02T09:17:45.344Z</time></trkpt><trkpt lat="43.2838744" lon="11.35922"><ele>215.8</ele><time>2026-05-02T09:17:47.344Z</time></trkpt><trkpt lat="43.2839062" lon="11.3590744"><ele>215.4</ele><time>2026-05-02T09:17:54.348Z</time></trkpt><trkpt lat="43.2839453" lon="11.3589151"><ele>215.0</ele><time>2026-05-02T09:17:56.346Z</time></trkpt><trkpt lat="43.2839729" lon="11.3588281"><ele>217.8</ele><time>2026-05-02T09:17:57.345Z</time></trkpt><trkpt lat="43.2840001" lon="11.3587302"><ele>220.6</ele><time>2026-05-02T09:17:58.343Z</time></trkpt><trkpt lat="43.2840346" lon="11.3586251"><ele>223.39999999999998</ele><time>2026-05-02T09:17:59.354Z</time></trkpt><trkpt lat="43.2840639" lon="11.3585073"><ele>226.2</ele><time>2026-05-02T09:18:00.348Z</time></trkpt><trkpt lat="43.2840975" lon="11.358383"><ele>229.0</ele><time>2026-05-02T09:18:01.342Z</time></trkpt><trkpt lat="43.2841308" lon="11.3582475"><ele>229.0</ele><time>2026-05-02T09:18:02.344Z</time></trkpt><trkpt lat="43.284167" lon="11.3581032"><ele>229.0</ele><time>2026-05-02T09:18:03.342Z</time></trkpt><trkpt lat="43.2841966" lon="11.3579576"><ele>229.0</ele><time>2026-05-02T09:18:04.34Z</time></trkpt><trkpt lat="43.2842259" lon="11.3578025"><ele>229.0</ele><time>2026-05-02T09:18:05.34Z</time></trkpt><trkpt lat="43.2842527" lon="11.3576447"><ele>228.75</ele><time>2026-05-02T09:18:06.353Z</time></trkpt><trkpt lat="43.2842832" lon="11.357485"><ele>228.5</ele><time>2026-05-02T09:18:07.377Z</time></trkpt><trkpt lat="43.2843191" lon="11.3573242"><ele>228.25</ele><time>2026-05-02T09:18:08.355Z</time></trkpt><trkpt lat="43.2843607" lon="11.3571677"><ele>228.0</ele><time>2026-05-02T09:18:09.341Z</time></trkpt><trkpt lat="43.2844023" lon="11.3570108"><ele>227.75</ele><time>2026-05-02T09:18:10.36Z</time></trkpt><trkpt lat="43.2844496" lon="11.3568352"><ele>227.5</ele><time>2026-05-02T09:18:11.34Z</time></trkpt><trkpt lat="43.2845038" lon="11.3566512"><ele>227.25</ele><time>2026-05-02T09:18:12.347Z</time></trkpt><trkpt lat="43.2845656" lon="11.3564613"><ele>227.0</ele><time>2026-05-02T09:18:13.352Z</time></trkpt><trkpt lat="43.2846336" lon="11.3562526"><ele>226.75</ele><time>2026-05-02T09:18:14.345Z</time></trkpt><trkpt lat="43.284706" lon="11.3560547"><ele>226.5</ele><time>2026-05-02T09:18:15.339Z</time></trkpt><trkpt lat="43.2847692" lon="11.3558804"><ele>226.25</ele><time>2026-05-02T09:18:16.356Z</time></trkpt><trkpt lat="43.2848318" lon="11.3557087"><ele>226.0</ele><time>2026-05-02T09:18:17.351Z</time></trkpt><trkpt lat="43.2848918" lon="11.3555406"><ele>228.5</ele><time>2026-05-02T09:18:18.355Z</time></trkpt><trkpt lat="43.2849566" lon="11.3553682"><ele>231.0</ele><time>2026-05-02T09:18:19.333Z</time></trkpt><trkpt lat="43.2850144" lon="11.355195"><ele>233.5</ele><time>2026-05-02T09:18:20.354Z</time></trkpt><trkpt lat="43.2850649" lon="11.3550196"><ele>236.0</ele><time>2026-05-02T09:18:21.352Z</time></trkpt><trkpt lat="43.2850935" lon="11.3548457"><ele>236.5</ele><time>2026-05-02T09:18:22.354Z</time></trkpt><trkpt lat="43.2850934" lon="11.3546696"><ele>237.0</ele><time>2026-05-02T09:18:23.35Z</time></trkpt><trkpt lat="43.2850706" lon="11.3545031"><ele>237.5</ele><time>2026-05-02T09:18:24.354Z</time></trkpt><trkpt lat="43.2850241" lon="11.3543472"><ele>238.0</ele><time>2026-05-02T09:18:25.351Z</time></trkpt><trkpt lat="43.2849583" lon="11.3542145"><ele>238.0</ele><time>2026-05-02T09:18:26.344Z</time></trkpt><trkpt lat="43.2848796" lon="11.3540959"><ele>238.0</ele><time>2026-05-02T09:18:27.353Z</time></trkpt><trkpt lat="43.2848005" lon="11.3539877"><ele>238.0</ele><time>2026-05-02T09:18:28.334Z</time></trkpt><trkpt lat="43.2847345" lon="11.3538884"><ele>238.0</ele><time>2026-05-02T09:18:29.338Z</time></trkpt><trkpt lat="43.2846752" lon="11.3537845"><ele>238.0</ele><time>2026-05-02T09:18:30.339Z</time></trkpt><trkpt lat="43.2846194" lon="11.3536857"><ele>237.66666666666666</ele><time>2026-05-02T09:18:31.341Z</time></trkpt><trkpt lat="43.2845718" lon="11.353598"><ele>237.33333333333331</ele><time>2026-05-02T09:18:32.356Z</time></trkpt><trkpt lat="43.2845291" lon="11.3535303"><ele>237.0</ele><time>2026-05-02T09:18:33.344Z</time></trkpt><trkpt lat="43.2844734" lon="11.3534122"><ele>236.66666666666669</ele><time>2026-05-02T09:18:35.35Z</time></trkpt><trkpt lat="43.2843981" lon="11.3533285"><ele>236.33333333333334</ele><time>2026-05-02T09:18:38.358Z</time></trkpt><trkpt lat="43.2843336" lon="11.3533469"><ele>236.0</ele><time>2026-05-02T09:18:39.35Z</time></trkpt><trkpt lat="43.284259" lon="11.3533834"><ele>236.0</ele><time>2026-05-02T09:18:40.352Z</time></trkpt><trkpt lat="43.2841854" lon="11.3534403"><ele>236.00000000000003</ele><time>2026-05-02T09:18:41.359Z</time></trkpt><trkpt lat="43.2840946" lon="11.3534943"><ele>236.00000000000003</ele><time>2026-05-02T09:18:42.345Z</time></trkpt><trkpt lat="43.2839899" lon="11.3535383"><ele>236.0</ele><time>2026-05-02T09:18:43.347Z</time></trkpt><trkpt lat="43.2838837" lon="11.3535822"><ele>236.0</ele><time>2026-05-02T09:18:44.359Z</time></trkpt><trkpt lat="43.2837725" lon="11.3536249"><ele>236.5</ele><time>2026-05-02T09:18:45.344Z</time></trkpt><trkpt lat="43.2836482" lon="11.3536614"><ele>237.0</ele><time>2026-05-02T09:18:46.352Z</time></trkpt><trkpt lat="43.2835122" lon="11.3536766"><ele>237.5</ele><time>2026-05-02T09:18:47.351Z</time></trkpt><trkpt lat="43.2833696" lon="11.3536768"><ele>238.0</ele><time>2026-05-02T09:18:48.34Z</time></trkpt><trkpt lat="43.2832286" lon="11.3536769"><ele>238.0</ele><time>2026-05-02T09:18:49.347Z</time></trkpt><trkpt lat="43.2830807" lon="11.3536619"><ele>238.0</ele><time>2026-05-02T09:18:50.342Z</time></trkpt><trkpt lat="43.2829164" lon="11.3536222"><ele>238.0</ele><time>2026-05-02T09:18:51.351Z</time></trkpt><trkpt lat="43.2827544" lon="11.3535861"><ele>238.0</ele><time>2026-05-02T09:18:52.345Z</time></trkpt><trkpt lat="43.2825991" lon="11.3535503"><ele>238.0</ele><time>2026-05-02T09:18:53.351Z</time></trkpt><trkpt lat="43.282454" lon="11.3535178"><ele>238.0</ele><time>2026-05-02T09:18:54.347Z</time></trkpt><trkpt lat="43.2823128" lon="11.3534801"><ele>238.0</ele><time>2026-05-02T09:18:55.342Z</time></trkpt><trkpt lat="43.2821759" lon="11.3534436"><ele>238.0</ele><time>2026-05-02T09:18:56.335Z</time></trkpt><trkpt lat="43.2820435" lon="11.3534138"><ele>238.0</ele><time>2026-05-02T09:18:57.364Z</time></trkpt><trkpt lat="43.2819165" lon="11.353387"><ele>238.0</ele><time>2026-05-02T09:18:58.348Z</time></trkpt><trkpt lat="43.2817842" lon="11.3533588"><ele>238.0</ele><time>2026-05-02T09:18:59.351Z</time></trkpt><trkpt lat="43.281642" lon="11.3533272"><ele>238.0</ele><time>2026-05-02T09:19:00.337Z</time></trkpt><trkpt lat="43.2814929" lon="11.3532904"><ele>238.0</ele><time>2026-05-02T09:19:01.349Z</time></trkpt><trkpt lat="43.2813398" lon="11.3532518"><ele>238.0</ele><time>2026-05-02T09:19:02.357Z</time></trkpt><trkpt lat="43.2811867" lon="11.3532106"><ele>238.0</ele><time>2026-05-02T09:19:03.339Z</time></trkpt><trkpt lat="43.2810336" lon="11.3531697"><ele>238.0</ele><time>2026-05-02T09:19:04.358Z</time></trkpt><trkpt lat="43.2808784" lon="11.3531235"><ele>238.0</ele><time>2026-05-02T09:19:05.357Z</time></trkpt><trkpt lat="43.2807212" lon="11.3530718"><ele>235.33333333333331</ele><time>2026-05-02T09:19:06.347Z</time></trkpt><trkpt lat="43.2805573" lon="11.3530119"><ele>232.66666666666669</ele><time>2026-05-02T09:19:07.345Z</time></trkpt><trkpt lat="43.2803868" lon="11.3529527"><ele>230.0</ele><time>2026-05-02T09:19:08.341Z</time></trkpt><trkpt lat="43.280218" lon="11.352893"><ele>230.0</ele><time>2026-05-02T09:19:09.344Z</time></trkpt><trkpt lat="43.2800481" lon="11.3528363"><ele>230.0</ele><time>2026-05-02T09:19:10.344Z</time></trkpt><trkpt lat="43.2798796" lon="11.3527879"><ele>230.0</ele><time>2026-05-02T09:19:11.353Z</time></trkpt><trkpt lat="43.2797085" lon="11.3527429"><ele>229.0</ele><time>2026-05-02T09:19:12.344Z</time></trkpt><trkpt lat="43.2795334" lon="11.35271"><ele>228.0</ele><time>2026-05-02T09:19:13.356Z</time></trkpt><trkpt lat="43.27936" lon="11.3526793"><ele>227.0</ele><time>2026-05-02T09:19:14.345Z</time></trkpt><trkpt lat="43.2791794" lon="11.3526558"><ele>227.0</ele><time>2026-05-02T09:19:15.345Z</time></trkpt><trkpt lat="43.2790008" lon="11.3526505"><ele>227.0</ele><time>2026-05-02T09:19:16.347Z</time></trkpt><trkpt lat="43.2788255" lon="11.3526787"><ele>227.0</ele><time>2026-05-02T09:19:17.342Z</time></trkpt><trkpt lat="43.2786496" lon="11.3527376"><ele>227.0</ele><time>2026-05-02T09:19:18.343Z</time></trkpt><trkpt lat="43.2784849" lon="11.3528247"><ele>227.0</ele><time>2026-05-02T09:19:19.356Z</time></trkpt><trkpt lat="43.2783184" lon="11.3529221"><ele>227.0</ele><time>2026-05-02T09:19:20.341Z</time></trkpt><trkpt lat="43.2781548" lon="11.3530204"><ele>228.33333333333334</ele><time>2026-05-02T09:19:21.356Z</time></trkpt><trkpt lat="43.2779912" lon="11.3531157"><ele>229.66666666666669</ele><time>2026-05-02T09:19:22.364Z</time></trkpt><trkpt lat="43.2778243" lon="11.35322"><ele>231.0</ele><time>2026-05-02T09:19:23.352Z</time></trkpt><trkpt lat="43.2776589" lon="11.3533182"><ele>231.0</ele><time>2026-05-02T09:19:24.358Z</time></trkpt><trkpt lat="43.2774984" lon="11.3534134"><ele>231.0</ele><time>2026-05-02T09:19:25.345Z</time></trkpt><trkpt lat="43.2773358" lon="11.3535058"><ele>231.0</ele><time>2026-05-02T09:19:26.358Z</time></trkpt><trkpt lat="43.2771713" lon="11.3535867"><ele>231.33333333333331</ele><time>2026-05-02T09:19:27.326Z</time></trkpt><trkpt lat="43.2769959" lon="11.3536521"><ele>231.66666666666666</ele><time>2026-05-02T09:19:28.335Z</time></trkpt><trkpt lat="43.2768145" lon="11.3537029"><ele>232.0</ele><time>2026-05-02T09:19:29.352Z</time></trkpt><trkpt lat="43.2766318" lon="11.3537359"><ele>232.0</ele><time>2026-05-02T09:19:30.346Z</time></trkpt><trkpt lat="43.2764498" lon="11.3537716"><ele>232.0</ele><time>2026-05-02T09:19:31.344Z</time></trkpt><trkpt lat="43.2762686" lon="11.3538077"><ele>232.0</ele><time>2026-05-02T09:19:32.35Z</time></trkpt><trkpt lat="43.2760849" lon="11.3538427"><ele>229.0</ele><time>2026-05-02T09:19:33.343Z</time></trkpt><trkpt lat="43.2758979" lon="11.3538762"><ele>226.0</ele><time>2026-05-02T09:19:34.352Z</time></trkpt><trkpt lat="43.2757064" lon="11.3539125"><ele>223.0</ele><time>2026-05-02T09:19:35.351Z</time></trkpt><trkpt lat="43.275515" lon="11.3539545"><ele>222.66666666666666</ele><time>2026-05-02T09:19:36.345Z</time></trkpt><trkpt lat="43.2753269" lon="11.3539975"><ele>222.33333333333331</ele><time>2026-05-02T09:19:37.346Z</time></trkpt><trkpt lat="43.2751364" lon="11.3540403"><ele>222.0</ele><time>2026-05-02T09:19:38.353Z</time></trkpt><trkpt lat="43.2749494" lon="11.3540922"><ele>223.0</ele><time>2026-05-02T09:19:39.348Z</time></trkpt><trkpt lat="43.2747641" lon="11.3541781"><ele>224.0</ele><time>2026-05-02T09:19:40.333Z</time></trkpt><trkpt lat="43.2745909" lon="11.3543112"><ele>225.0</ele><time>2026-05-02T09:19:41.348Z</time></trkpt><trkpt lat="43.274422" lon="11.3544898"><ele>225.0</ele><time>2026-05-02T09:19:42.358Z</time></trkpt><trkpt lat="43.2742674" lon="11.3546906"><ele>225.0</ele><time>2026-05-02T09:19:43.343Z</time></trkpt><trkpt lat="43.2741194" lon="11.3548877"><ele>225.0</ele><time>2026-05-02T09:19:44.365Z</time></trkpt><trkpt lat="43.2739717" lon="11.3550773"><ele>224.33333333333331</ele><time>2026-05-02T09:19:45.354Z</time></trkpt><trkpt lat="43.2738273" lon="11.355254"><ele>223.66666666666666</ele><time>2026-05-02T09:19:46.343Z</time></trkpt><trkpt lat="43.2736778" lon="11.3554183"><ele>223.0</ele><time>2026-05-02T09:19:47.351Z</time></trkpt><trkpt lat="43.2735341" lon="11.3555805"><ele>223.0</ele><time>2026-05-02T09:19:48.346Z</time></trkpt><trkpt lat="43.2733952" lon="11.3557426"><ele>223.0</ele><time>2026-05-02T09:19:49.348Z</time></trkpt><trkpt lat="43.273258" lon="11.3559035"><ele>223.0</ele><time>2026-05-02T09:19:50.335Z</time></trkpt><trkpt lat="43.2731215" lon="11.3560578"><ele>224.33333333333331</ele><time>2026-05-02T09:19:51.344Z</time></trkpt><trkpt lat="43.2729823" lon="11.3562079"><ele>225.66666666666669</ele><time>2026-05-02T09:19:52.346Z</time></trkpt><trkpt lat="43.2728457" lon="11.3563565"><ele>227.0</ele><time>2026-05-02T09:19:53.337Z</time></trkpt><trkpt lat="43.2727047" lon="11.3565041"><ele>227.0</ele><time>2026-05-02T09:19:54.338Z</time></trkpt><trkpt lat="43.2725665" lon="11.3566606"><ele>227.0</ele><time>2026-05-02T09:19:55.344Z</time></trkpt><trkpt lat="43.2724278" lon="11.3568154"><ele>227.0</ele><time>2026-05-02T09:19:56.341Z</time></trkpt><trkpt lat="43.2722919" lon="11.3569673"><ele>226.0</ele><time>2026-05-02T09:19:57.34Z</time></trkpt><trkpt lat="43.2721707" lon="11.3571013"><ele>225.0</ele><time>2026-05-02T09:19:58.35Z</time></trkpt><trkpt lat="43.2720686" lon="11.3572085"><ele>224.0</ele><time>2026-05-02T09:19:59.343Z</time></trkpt><trkpt lat="43.2719845" lon="11.3572978"><ele>223.0</ele><time>2026-05-02T09:20:00.341Z</time></trkpt><trkpt lat="43.2719046" lon="11.3573587"><ele>223.0</ele><time>2026-05-02T09:20:01.342Z</time></trkpt><trkpt lat="43.2718205" lon="11.3573748"><ele>223.0</ele><time>2026-05-02T09:20:02.34Z</time></trkpt><trkpt lat="43.2717378" lon="11.3573403"><ele>223.0</ele><time>2026-05-02T09:20:03.335Z</time></trkpt><trkpt lat="43.2716582" lon="11.3572646"><ele>223.0</ele><time>2026-05-02T09:20:04.352Z</time></trkpt><trkpt lat="43.2715841" lon="11.357177"><ele>223.0</ele><time>2026-05-02T09:20:05.353Z</time></trkpt><trkpt lat="43.2715049" lon="11.3570931"><ele>222.8</ele><time>2026-05-02T09:20:06.366Z</time></trkpt><trkpt lat="43.2714257" lon="11.3570085"><ele>222.60000000000002</ele><time>2026-05-02T09:20:07.352Z</time></trkpt><trkpt lat="43.2713495" lon="11.3569306"><ele>222.39999999999998</ele><time>2026-05-02T09:20:08.347Z</time></trkpt><trkpt lat="43.2712767" lon="11.3568564"><ele>222.2</ele><time>2026-05-02T09:20:09.34Z</time></trkpt><trkpt lat="43.271209" lon="11.3567872"><ele>222.0</ele><time>2026-05-02T09:20:10.345Z</time></trkpt><trkpt lat="43.2711425" lon="11.3567195"><ele>222.0</ele><time>2026-05-02T09:20:11.357Z</time></trkpt><trkpt lat="43.2710764" lon="11.3566493"><ele>222.0</ele><time>2026-05-02T09:20:12.355Z</time></trkpt><trkpt lat="43.2710077" lon="11.3565798"><ele>222.0</ele><time>2026-05-02T09:20:13.347Z</time></trkpt><trkpt lat="43.2709358" lon="11.3564995"><ele>222.0</ele><time>2026-05-02T09:20:14.338Z</time></trkpt><trkpt lat="43.2708581" lon="11.356418"><ele>222.0</ele><time>2026-05-02T09:20:15.349Z</time></trkpt><trkpt lat="43.2707816" lon="11.3563405"><ele>220.33333333333334</ele><time>2026-05-02T09:20:16.373Z</time></trkpt><trkpt lat="43.2707088" lon="11.3562715"><ele>218.66666666666669</ele><time>2026-05-02T09:20:17.34Z</time></trkpt><trkpt lat="43.2706435" lon="11.3562037"><ele>217.0</ele><time>2026-05-02T09:20:18.371Z</time></trkpt><trkpt lat="43.2705835" lon="11.3561384"><ele>215.33333333333334</ele><time>2026-05-02T09:20:19.344Z</time></trkpt><trkpt lat="43.2705194" lon="11.3560854"><ele>213.66666666666669</ele><time>2026-05-02T09:20:20.354Z</time></trkpt><trkpt lat="43.2704613" lon="11.3560274"><ele>212.0</ele><time>2026-05-02T09:20:21.368Z</time></trkpt><trkpt lat="43.2703943" lon="11.3559763"><ele>211.6</ele><time>2026-05-02T09:20:22.339Z</time></trkpt><trkpt lat="43.2703133" lon="11.3559374"><ele>211.2</ele><time>2026-05-02T09:20:23.344Z</time></trkpt><trkpt lat="43.2702271" lon="11.3559139"><ele>210.8</ele><time>2026-05-02T09:20:24.339Z</time></trkpt><trkpt lat="43.2701373" lon="11.355907"><ele>210.4</ele><time>2026-05-02T09:20:25.361Z</time></trkpt><trkpt lat="43.270044" lon="11.3559103"><ele>210.0</ele><time>2026-05-02T09:20:26.349Z</time></trkpt><trkpt lat="43.2699489" lon="11.3559216"><ele>210.0</ele><time>2026-05-02T09:20:27.351Z</time></trkpt><trkpt lat="43.2698599" lon="11.3559378"><ele>210.0</ele><time>2026-05-02T09:20:28.35Z</time></trkpt><trkpt lat="43.2697729" lon="11.355961"><ele>210.0</ele><time>2026-05-02T09:20:29.353Z</time></trkpt><trkpt lat="43.2696861" lon="11.3559965"><ele>210.0</ele><time>2026-05-02T09:20:30.348Z</time></trkpt><trkpt lat="43.2695941" lon="11.3560513"><ele>210.0</ele><time>2026-05-02T09:20:31.356Z</time></trkpt><trkpt lat="43.2695106" lon="11.3561082"><ele>208.66666666666666</ele><time>2026-05-02T09:20:32.342Z</time></trkpt><trkpt lat="43.2694378" lon="11.3561662"><ele>207.33333333333331</ele><time>2026-05-02T09:20:33.348Z</time></trkpt><trkpt lat="43.269372" lon="11.3562321"><ele>206.0</ele><time>2026-05-02T09:20:34.339Z</time></trkpt><trkpt lat="43.269311" lon="11.3563087"><ele>204.66666666666666</ele><time>2026-05-02T09:20:35.373Z</time></trkpt><trkpt lat="43.2692567" lon="11.3563821"><ele>203.33333333333331</ele><time>2026-05-02T09:20:36.35Z</time></trkpt><trkpt lat="43.269208" lon="11.3564561"><ele>202.0</ele><time>2026-05-02T09:20:37.345Z</time></trkpt><trkpt lat="43.2691667" lon="11.3565349"><ele>201.99999999999997</ele><time>2026-05-02T09:20:38.342Z</time></trkpt><trkpt lat="43.2691258" lon="11.3566254"><ele>202.0</ele><time>2026-05-02T09:20:39.349Z</time></trkpt><trkpt lat="43.2690878" lon="11.3567111"><ele>202.0</ele><time>2026-05-02T09:20:40.357Z</time></trkpt><trkpt lat="43.2690502" lon="11.356807"><ele>202.0</ele><time>2026-05-02T09:20:41.346Z</time></trkpt><trkpt lat="43.2690143" lon="11.3569084"><ele>201.99999999999997</ele><time>2026-05-02T09:20:42.36Z</time></trkpt><trkpt lat="43.268986" lon="11.3570207"><ele>202.0</ele><time>2026-05-02T09:20:43.342Z</time></trkpt><trkpt lat="43.2689715" lon="11.3571469"><ele>202.39999999999998</ele><time>2026-05-02T09:20:44.343Z</time></trkpt><trkpt lat="43.2689571" lon="11.3572763"><ele>202.79999999999998</ele><time>2026-05-02T09:20:45.35Z</time></trkpt><trkpt lat="43.268948" lon="11.3574056"><ele>203.2</ele><time>2026-05-02T09:20:46.338Z</time></trkpt><trkpt lat="43.2689433" lon="11.3575324"><ele>203.6</ele><time>2026-05-02T09:20:47.346Z</time></trkpt><trkpt lat="43.2689435" lon="11.357663"><ele>204.0</ele><time>2026-05-02T09:20:48.342Z</time></trkpt><trkpt lat="43.2689427" lon="11.3577936"><ele>201.0</ele><time>2026-05-02T09:20:49.344Z</time></trkpt><trkpt lat="43.2689347" lon="11.35792"><ele>198.0</ele><time>2026-05-02T09:20:50.352Z</time></trkpt><trkpt lat="43.2689302" lon="11.358049"><ele>195.0</ele><time>2026-05-02T09:20:51.357Z</time></trkpt><trkpt lat="43.2689241" lon="11.3581796"><ele>192.0</ele><time>2026-05-02T09:20:52.355Z</time></trkpt><trkpt lat="43.2689071" lon="11.3583116"><ele>189.0</ele><time>2026-05-02T09:20:53.347Z</time></trkpt><trkpt lat="43.2688844" lon="11.3584393"><ele>189.0</ele><time>2026-05-02T09:20:54.345Z</time></trkpt><trkpt lat="43.2688496" lon="11.3585689"><ele>189.0</ele><time>2026-05-02T09:20:55.357Z</time></trkpt><trkpt lat="43.268813" lon="11.358699"><ele>189.0</ele><time>2026-05-02T09:20:56.343Z</time></trkpt><trkpt lat="43.2687644" lon="11.3588234"><ele>189.0</ele><time>2026-05-02T09:20:57.348Z</time></trkpt><trkpt lat="43.268708" lon="11.3589379"><ele>189.0</ele><time>2026-05-02T09:20:58.347Z</time></trkpt><trkpt lat="43.2686412" lon="11.3590411"><ele>189.2</ele><time>2026-05-02T09:20:59.343Z</time></trkpt><trkpt lat="43.2685698" lon="11.3591345"><ele>189.39999999999998</ele><time>2026-05-02T09:21:00.343Z</time></trkpt><trkpt lat="43.2684946" lon="11.3592137"><ele>189.6</ele><time>2026-05-02T09:21:01.345Z</time></trkpt><trkpt lat="43.2684039" lon="11.3592816"><ele>189.8</ele><time>2026-05-02T09:21:02.341Z</time></trkpt><trkpt lat="43.2683088" lon="11.3593369"><ele>190.0</ele><time>2026-05-02T09:21:03.34Z</time></trkpt><trkpt lat="43.2682192" lon="11.3593721"><ele>190.0</ele><time>2026-05-02T09:21:04.345Z</time></trkpt><trkpt lat="43.2681204" lon="11.3593991"><ele>190.0</ele><time>2026-05-02T09:21:05.359Z</time></trkpt><trkpt lat="43.2680159" lon="11.359405"><ele>190.0</ele><time>2026-05-02T09:21:06.351Z</time></trkpt><trkpt lat="43.2679177" lon="11.3593956"><ele>190.0</ele><time>2026-05-02T09:21:07.34Z</time></trkpt><trkpt lat="43.2678179" lon="11.3593786"><ele>190.0</ele><time>2026-05-02T09:21:08.35Z</time></trkpt><trkpt lat="43.2677218" lon="11.3593539"><ele>189.2</ele><time>2026-05-02T09:21:09.344Z</time></trkpt><trkpt lat="43.2676301" lon="11.3593172"><ele>188.4</ele><time>2026-05-02T09:21:10.364Z</time></trkpt><trkpt lat="43.2675365" lon="11.3592751"><ele>187.60000000000002</ele><time>2026-05-02T09:21:11.344Z</time></trkpt><trkpt lat="43.2674449" lon="11.3592295"><ele>186.8</ele><time>2026-05-02T09:21:12.347Z</time></trkpt><trkpt lat="43.2673538" lon="11.3591897"><ele>186.0</ele><time>2026-05-02T09:21:13.352Z</time></trkpt><trkpt lat="43.2672637" lon="11.3591501"><ele>185.8</ele><time>2026-05-02T09:21:14.348Z</time></trkpt><trkpt lat="43.2671703" lon="11.3591101"><ele>185.60000000000002</ele><time>2026-05-02T09:21:15.34Z</time></trkpt><trkpt lat="43.2670726" lon="11.3590735"><ele>185.4</ele><time>2026-05-02T09:21:16.351Z</time></trkpt><trkpt lat="43.2669745" lon="11.3590358"><ele>185.2</ele><time>2026-05-02T09:21:17.343Z</time></trkpt><trkpt lat="43.2668729" lon="11.3589935"><ele>185.0</ele><time>2026-05-02T09:21:18.345Z</time></trkpt><trkpt lat="43.2667678" lon="11.3589541"><ele>185.0</ele><time>2026-05-02T09:21:19.335Z</time></trkpt><trkpt lat="43.2666624" lon="11.3589118"><ele>185.0</ele><time>2026-05-02T09:21:20.339Z</time></trkpt><trkpt lat="43.2665545" lon="11.3588631"><ele>185.0</ele><time>2026-05-02T09:21:21.347Z</time></trkpt><trkpt lat="43.2664513" lon="11.3588108"><ele>185.0</ele><time>2026-05-02T09:21:22.351Z</time></trkpt><trkpt lat="43.2663384" lon="11.358759"><ele>185.0</ele><time>2026-05-02T09:21:23.344Z</time></trkpt><trkpt lat="43.2662194" lon="11.3587134"><ele>185.0</ele><time>2026-05-02T09:21:24.339Z</time></trkpt><trkpt lat="43.2661168" lon="11.3586684"><ele>185.0</ele><time>2026-05-02T09:21:25.345Z</time></trkpt><trkpt lat="43.2660132" lon="11.3586269"><ele>185.0</ele><time>2026-05-02T09:21:26.358Z</time></trkpt><trkpt lat="43.2659098" lon="11.3585857"><ele>185.0</ele><time>2026-05-02T09:21:27.338Z</time></trkpt><trkpt lat="43.2658013" lon="11.3585441"><ele>185.0</ele><time>2026-05-02T09:21:28.338Z</time></trkpt><trkpt lat="43.265687" lon="11.3584999"><ele>185.0</ele><time>2026-05-02T09:21:29.347Z</time></trkpt><trkpt lat="43.2655803" lon="11.3584511"><ele>185.0</ele><time>2026-05-02T09:21:30.34Z</time></trkpt><trkpt lat="43.2654754" lon="11.358405"><ele>185.0</ele><time>2026-05-02T09:21:31.347Z</time></trkpt><trkpt lat="43.2653759" lon="11.3583584"><ele>185.0</ele><time>2026-05-02T09:21:32.34Z</time></trkpt><trkpt lat="43.2652843" lon="11.3583162"><ele>184.83333333333331</ele><time>2026-05-02T09:21:33.347Z</time></trkpt><trkpt lat="43.2651928" lon="11.3582744"><ele>184.66666666666666</ele><time>2026-05-02T09:21:34.345Z</time></trkpt><trkpt lat="43.2651012" lon="11.3582353"><ele>184.5</ele><time>2026-05-02T09:21:35.342Z</time></trkpt><trkpt lat="43.2650173" lon="11.3582094"><ele>184.33333333333334</ele><time>2026-05-02T09:21:36.341Z</time></trkpt><trkpt lat="43.2649313" lon="11.3582021"><ele>184.16666666666669</ele><time>2026-05-02T09:21:37.349Z</time></trkpt><trkpt lat="43.2648473" lon="11.358216"><ele>184.0</ele><time>2026-05-02T09:21:38.337Z</time></trkpt><trkpt lat="43.2647564" lon="11.3582527"><ele>184.5</ele><time>2026-05-02T09:21:39.334Z</time></trkpt><trkpt lat="43.2646819" lon="11.3583015"><ele>185.0</ele><time>2026-05-02T09:21:40.35Z</time></trkpt><trkpt lat="43.2646161" lon="11.3583778"><ele>185.5</ele><time>2026-05-02T09:21:41.334Z</time></trkpt><trkpt lat="43.2645557" lon="11.3584656"><ele>186.0</ele><time>2026-05-02T09:21:42.359Z</time></trkpt><trkpt lat="43.2645031" lon="11.3585635"><ele>186.5</ele><time>2026-05-02T09:21:43.342Z</time></trkpt><trkpt lat="43.2644534" lon="11.3586627"><ele>187.0</ele><time>2026-05-02T09:21:44.355Z</time></trkpt><trkpt lat="43.2643972" lon="11.3587602"><ele>187.0</ele><time>2026-05-02T09:21:45.349Z</time></trkpt><trkpt lat="43.2643384" lon="11.3588653"><ele>187.0</ele><time>2026-05-02T09:21:46.34Z</time></trkpt><trkpt lat="43.2642764" lon="11.3589691"><ele>187.0</ele><time>2026-05-02T09:21:47.353Z</time></trkpt><trkpt lat="43.2642082" lon="11.3590662"><ele>187.0</ele><time>2026-05-02T09:21:48.343Z</time></trkpt><trkpt lat="43.264126" lon="11.3591622"><ele>187.0</ele><time>2026-05-02T09:21:49.339Z</time></trkpt><trkpt lat="43.2640209" lon="11.3592534"><ele>186.0</ele><time>2026-05-02T09:21:50.348Z</time></trkpt><trkpt lat="43.2639131" lon="11.359346"><ele>185.0</ele><time>2026-05-02T09:21:51.349Z</time></trkpt><trkpt lat="43.2638012" lon="11.3594295"><ele>184.0</ele><time>2026-05-02T09:21:52.35Z</time></trkpt><trkpt lat="43.2636953" lon="11.35951"><ele>183.0</ele><time>2026-05-02T09:21:53.336Z</time></trkpt><trkpt lat="43.2635836" lon="11.359593"><ele>183.0</ele><time>2026-05-02T09:21:54.36Z</time></trkpt><trkpt lat="43.263468" lon="11.3596922"><ele>183.0</ele><time>2026-05-02T09:21:55.341Z</time></trkpt><trkpt lat="43.2633505" lon="11.3598021"><ele>183.0</ele><time>2026-05-02T09:21:56.346Z</time></trkpt><trkpt lat="43.2632317" lon="11.3599199"><ele>183.0</ele><time>2026-05-02T09:21:57.344Z</time></trkpt><trkpt lat="43.2631125" lon="11.360045"><ele>183.0</ele><time>2026-05-02T09:21:58.357Z</time></trkpt><trkpt lat="43.2629967" lon="11.3601767"><ele>183.0</ele><time>2026-05-02T09:21:59.349Z</time></trkpt><trkpt lat="43.2628826" lon="11.3603049"><ele>183.0</ele><time>2026-05-02T09:22:00.338Z</time></trkpt><trkpt lat="43.2627657" lon="11.3604352"><ele>183.0</ele><time>2026-05-02T09:22:01.352Z</time></trkpt><trkpt lat="43.2626515" lon="11.3605607"><ele>183.0</ele><time>2026-05-02T09:22:02.339Z</time></trkpt><trkpt lat="43.2625292" lon="11.3606967"><ele>183.0</ele><time>2026-05-02T09:22:03.35Z</time></trkpt><trkpt lat="43.262409" lon="11.3608403"><ele>183.0</ele><time>2026-05-02T09:22:04.355Z</time></trkpt><trkpt lat="43.2622917" lon="11.3609885"><ele>182.66666666666666</ele><time>2026-05-02T09:22:05.344Z</time></trkpt><trkpt lat="43.2621733" lon="11.3611393"><ele>182.33333333333331</ele><time>2026-05-02T09:22:06.355Z</time></trkpt><trkpt lat="43.2620591" lon="11.3612749"><ele>182.0</ele><time>2026-05-02T09:22:07.342Z</time></trkpt><trkpt lat="43.2619387" lon="11.361403"><ele>182.0</ele><time>2026-05-02T09:22:08.347Z</time></trkpt><trkpt lat="43.2617985" lon="11.3615174"><ele>182.0</ele><time>2026-05-02T09:22:09.351Z</time></trkpt><trkpt lat="43.2616501" lon="11.3616226"><ele>182.0</ele><time>2026-05-02T09:22:10.345Z</time></trkpt><trkpt lat="43.2614926" lon="11.3617234"><ele>182.0</ele><time>2026-05-02T09:22:11.343Z</time></trkpt><trkpt lat="43.2613282" lon="11.3618114"><ele>182.0</ele><time>2026-05-02T09:22:12.355Z</time></trkpt><trkpt lat="43.2611654" lon="11.3618843"><ele>182.0</ele><time>2026-05-02T09:22:13.346Z</time></trkpt><trkpt lat="43.2610061" lon="11.3619313"><ele>182.0</ele><time>2026-05-02T09:22:14.343Z</time></trkpt><trkpt lat="43.260853" lon="11.3619674"><ele>182.0</ele><time>2026-05-02T09:22:15.351Z</time></trkpt><trkpt lat="43.2606918" lon="11.3619756"><ele>182.0</ele><time>2026-05-02T09:22:16.34Z</time></trkpt><trkpt lat="43.2605219" lon="11.3619553"><ele>183.0</ele><time>2026-05-02T09:22:17.344Z</time></trkpt><trkpt lat="43.2603517" lon="11.3619171"><ele>184.0</ele><time>2026-05-02T09:22:18.351Z</time></trkpt><trkpt lat="43.2601802" lon="11.3618661"><ele>185.0</ele><time>2026-05-02T09:22:19.344Z</time></trkpt><trkpt lat="43.2599954" lon="11.3618106"><ele>185.0</ele><time>2026-05-02T09:22:20.35Z</time></trkpt><trkpt lat="43.2598065" lon="11.3617438"><ele>185.0</ele><time>2026-05-02T09:22:21.352Z</time></trkpt><trkpt lat="43.2596159" lon="11.3616711"><ele>185.0</ele><time>2026-05-02T09:22:22.354Z</time></trkpt><trkpt lat="43.2594488" lon="11.3615931"><ele>185.0</ele><time>2026-05-02T09:22:23.334Z</time></trkpt><trkpt lat="43.2592904" lon="11.3615102"><ele>185.0</ele><time>2026-05-02T09:22:24.344Z</time></trkpt><trkpt lat="43.259136" lon="11.3614287"><ele>185.0</ele><time>2026-05-02T09:22:25.346Z</time></trkpt><trkpt lat="43.2589818" lon="11.3613451"><ele>188.33333333333331</ele><time>2026-05-02T09:22:26.345Z</time></trkpt><trkpt lat="43.2588379" lon="11.3612415"><ele>191.66666666666666</ele><time>2026-05-02T09:22:27.343Z</time></trkpt><trkpt lat="43.2586955" lon="11.3611268"><ele>195.0</ele><time>2026-05-02T09:22:28.34Z</time></trkpt><trkpt lat="43.2585522" lon="11.3609972"><ele>195.0</ele><time>2026-05-02T09:22:29.349Z</time></trkpt><trkpt lat="43.258414" lon="11.3608642"><ele>195.0</ele><time>2026-05-02T09:22:30.34Z</time></trkpt><trkpt lat="43.2582795" lon="11.3607306"><ele>195.0</ele><time>2026-05-02T09:22:31.338Z</time></trkpt><trkpt lat="43.25816" lon="11.3606092"><ele>195.0</ele><time>2026-05-02T09:22:32.333Z</time></trkpt><trkpt lat="43.2580374" lon="11.3605044"><ele>195.0</ele><time>2026-05-02T09:22:33.343Z</time></trkpt><trkpt lat="43.257913" lon="11.3604145"><ele>195.0</ele><time>2026-05-02T09:22:34.336Z</time></trkpt><trkpt lat="43.257781" lon="11.3603339"><ele>195.0</ele><time>2026-05-02T09:22:35.348Z</time></trkpt><trkpt lat="43.257641" lon="11.3602693"><ele>195.0</ele><time>2026-05-02T09:22:36.341Z</time></trkpt><trkpt lat="43.2574929" lon="11.3602092"><ele>195.0</ele><time>2026-05-02T09:22:37.352Z</time></trkpt><trkpt lat="43.2573499" lon="11.3601536"><ele>195.0</ele><time>2026-05-02T09:22:38.347Z</time></trkpt><trkpt lat="43.2572119" lon="11.3601088"><ele>195.0</ele><time>2026-05-02T09:22:39.343Z</time></trkpt><trkpt lat="43.2570704" lon="11.3600771"><ele>196.33333333333331</ele><time>2026-05-02T09:22:40.337Z</time></trkpt><trkpt lat="43.2569236" lon="11.3600681"><ele>197.66666666666666</ele><time>2026-05-02T09:22:41.34Z</time></trkpt><trkpt lat="43.2567718" lon="11.3600804"><ele>199.0</ele><time>2026-05-02T09:22:42.352Z</time></trkpt><trkpt lat="43.2566179" lon="11.3601038"><ele>199.0</ele><time>2026-05-02T09:22:43.354Z</time></trkpt><trkpt lat="43.256474" lon="11.3601327"><ele>199.0</ele><time>2026-05-02T09:22:44.334Z</time></trkpt><trkpt lat="43.2563547" lon="11.3601571"><ele>199.0</ele><time>2026-05-02T09:22:45.348Z</time></trkpt><trkpt lat="43.2562442" lon="11.3601904"><ele>199.0</ele><time>2026-05-02T09:22:46.349Z</time></trkpt><trkpt lat="43.2561424" lon="11.3602341"><ele>200.0</ele><time>2026-05-02T09:22:47.343Z</time></trkpt><trkpt lat="43.2560426" lon="11.360295"><ele>201.0</ele><time>2026-05-02T09:22:48.34Z</time></trkpt><trkpt lat="43.2559417" lon="11.3603638"><ele>202.0</ele><time>2026-05-02T09:22:49.338Z</time></trkpt><trkpt lat="43.2558294" lon="11.3604442"><ele>203.0</ele><time>2026-05-02T09:22:50.347Z</time></trkpt><trkpt lat="43.2557063" lon="11.3605332"><ele>205.75</ele><time>2026-05-02T09:22:51.35Z</time></trkpt><trkpt lat="43.2555789" lon="11.3606228"><ele>208.5</ele><time>2026-05-02T09:22:52.348Z</time></trkpt><trkpt lat="43.2554507" lon="11.3607222"><ele>211.25</ele><time>2026-05-02T09:22:53.358Z</time></trkpt><trkpt lat="43.2553268" lon="11.3608379"><ele>214.0</ele><time>2026-05-02T09:22:54.34Z</time></trkpt><trkpt lat="43.255205" lon="11.3609771"><ele>214.0</ele><time>2026-05-02T09:22:55.335Z</time></trkpt><trkpt lat="43.2550841" lon="11.3611554"><ele>214.0</ele><time>2026-05-02T09:22:56.358Z</time></trkpt><trkpt lat="43.2549767" lon="11.3613472"><ele>214.0</ele><time>2026-05-02T09:22:57.355Z</time></trkpt><trkpt lat="43.2548898" lon="11.3615128"><ele>214.0</ele><time>2026-05-02T09:22:58.368Z</time></trkpt><trkpt lat="43.2548031" lon="11.3616757"><ele>214.0</ele><time>2026-05-02T09:22:59.341Z</time></trkpt><trkpt lat="43.254714" lon="11.3618339"><ele>214.0</ele><time>2026-05-02T09:23:00.34Z</time></trkpt><trkpt lat="43.25461" lon="11.3619765"><ele>214.0</ele><time>2026-05-02T09:23:01.347Z</time></trkpt><trkpt lat="43.2544876" lon="11.3620951"><ele>215.5</ele><time>2026-05-02T09:23:02.348Z</time></trkpt><trkpt lat="43.2543519" lon="11.3622035"><ele>217.0</ele><time>2026-05-02T09:23:03.358Z</time></trkpt><trkpt lat="43.2542199" lon="11.3622847"><ele>218.5</ele><time>2026-05-02T09:23:04.339Z</time></trkpt><trkpt lat="43.254089" lon="11.3623427"><ele>220.0</ele><time>2026-05-02T09:23:05.345Z</time></trkpt><trkpt lat="43.2539472" lon="11.3623722"><ele>221.66666666666666</ele><time>2026-05-02T09:23:06.336Z</time></trkpt><trkpt lat="43.2537977" lon="11.362391"><ele>223.33333333333331</ele><time>2026-05-02T09:23:07.346Z</time></trkpt><trkpt lat="43.2536428" lon="11.3624199"><ele>225.0</ele><time>2026-05-02T09:23:08.343Z</time></trkpt><trkpt lat="43.2534842" lon="11.3624657"><ele>225.0</ele><time>2026-05-02T09:23:09.346Z</time></trkpt><trkpt lat="43.2533208" lon="11.3625212"><ele>225.0</ele><time>2026-05-02T09:23:10.346Z</time></trkpt><trkpt lat="43.2531447" lon="11.3625853"><ele>225.0</ele><time>2026-05-02T09:23:11.347Z</time></trkpt><trkpt lat="43.2529699" lon="11.3626669"><ele>226.0</ele><time>2026-05-02T09:23:12.359Z</time></trkpt><trkpt lat="43.2528043" lon="11.362756"><ele>227.0</ele><time>2026-05-02T09:23:13.352Z</time></trkpt><trkpt lat="43.2526601" lon="11.3628452"><ele>228.0</ele><time>2026-05-02T09:23:14.357Z</time></trkpt><trkpt lat="43.252541" lon="11.3629258"><ele>228.0</ele><time>2026-05-02T09:23:15.359Z</time></trkpt><trkpt lat="43.2524372" lon="11.3630074"><ele>228.0</ele><time>2026-05-02T09:23:16.359Z</time></trkpt><trkpt lat="43.2523348" lon="11.3631109"><ele>228.0</ele><time>2026-05-02T09:23:17.346Z</time></trkpt><trkpt lat="43.2522304" lon="11.363222"><ele>228.0</ele><time>2026-05-02T09:23:18.354Z</time></trkpt><trkpt lat="43.2521263" lon="11.3633332"><ele>229.25</ele><time>2026-05-02T09:23:19.341Z</time></trkpt><trkpt lat="43.2520225" lon="11.3634343"><ele>230.5</ele><time>2026-05-02T09:23:20.347Z</time></trkpt><trkpt lat="43.2519211" lon="11.3635099"><ele>231.75</ele><time>2026-05-02T09:23:21.341Z</time></trkpt><trkpt lat="43.2518187" lon="11.3635672"><ele>233.0</ele><time>2026-05-02T09:23:22.344Z</time></trkpt><trkpt lat="43.2517047" lon="11.3636036"><ele>233.0</ele><time>2026-05-02T09:23:23.341Z</time></trkpt><trkpt lat="43.2515824" lon="11.3636147"><ele>233.0</ele><time>2026-05-02T09:23:24.341Z</time></trkpt><trkpt lat="43.2514555" lon="11.3636093"><ele>233.0</ele><time>2026-05-02T09:23:25.351Z</time></trkpt><trkpt lat="43.2513201" lon="11.3635733"><ele>233.0</ele><time>2026-05-02T09:23:26.345Z</time></trkpt><trkpt lat="43.2511834" lon="11.3635237"><ele>230.33333333333334</ele><time>2026-05-02T09:23:27.352Z</time></trkpt><trkpt lat="43.2510359" lon="11.3634615"><ele>227.66666666666669</ele><time>2026-05-02T09:23:28.344Z</time></trkpt><trkpt lat="43.2508846" lon="11.3634008"><ele>225.0</ele><time>2026-05-02T09:23:29.344Z</time></trkpt><trkpt lat="43.2507233" lon="11.3633458"><ele>224.33333333333331</ele><time>2026-05-02T09:23:30.355Z</time></trkpt><trkpt lat="43.2505565" lon="11.3632978"><ele>223.66666666666666</ele><time>2026-05-02T09:23:31.347Z</time></trkpt><trkpt lat="43.2503938" lon="11.363256"><ele>223.0</ele><time>2026-05-02T09:23:32.34Z</time></trkpt><trkpt lat="43.2502475" lon="11.3632223"><ele>223.0</ele><time>2026-05-02T09:23:33.35Z</time></trkpt><trkpt lat="43.2501086" lon="11.3631824"><ele>223.0</ele><time>2026-05-02T09:23:34.346Z</time></trkpt><trkpt lat="43.2499807" lon="11.3631428"><ele>223.0</ele><time>2026-05-02T09:23:35.344Z</time></trkpt><trkpt lat="43.2498533" lon="11.3631052"><ele>223.0</ele><time>2026-05-02T09:23:36.351Z</time></trkpt><trkpt lat="43.2497258" lon="11.3630822"><ele>224.25</ele><time>2026-05-02T09:23:37.342Z</time></trkpt><trkpt lat="43.2495938" lon="11.3630798"><ele>225.5</ele><time>2026-05-02T09:23:38.332Z</time></trkpt><trkpt lat="43.2494554" lon="11.3631108"><ele>226.75</ele><time>2026-05-02T09:23:39.358Z</time></trkpt><trkpt lat="43.2493147" lon="11.363174"><ele>228.0</ele><time>2026-05-02T09:23:40.347Z</time></trkpt><trkpt lat="43.2491883" lon="11.363267"><ele>228.0</ele><time>2026-05-02T09:23:41.342Z</time></trkpt><trkpt lat="43.249071" lon="11.3633686"><ele>228.0</ele><time>2026-05-02T09:23:42.35Z</time></trkpt><trkpt lat="43.2489737" lon="11.3634812"><ele>228.0</ele><time>2026-05-02T09:23:43.359Z</time></trkpt><trkpt lat="43.2488692" lon="11.3636139"><ele>228.0</ele><time>2026-05-02T09:23:44.347Z</time></trkpt><trkpt lat="43.2487638" lon="11.3637755"><ele>227.75</ele><time>2026-05-02T09:23:45.357Z</time></trkpt><trkpt lat="43.2486571" lon="11.363936"><ele>227.5</ele><time>2026-05-02T09:23:46.346Z</time></trkpt><trkpt lat="43.2485608" lon="11.3640702"><ele>227.25</ele><time>2026-05-02T09:23:47.352Z</time></trkpt><trkpt lat="43.2484682" lon="11.3641872"><ele>227.0</ele><time>2026-05-02T09:23:48.347Z</time></trkpt><trkpt lat="43.2483909" lon="11.3643059"><ele>227.0</ele><time>2026-05-02T09:23:49.337Z</time></trkpt><trkpt lat="43.2483247" lon="11.3644387"><ele>227.0</ele><time>2026-05-02T09:23:50.349Z</time></trkpt><trkpt lat="43.2482834" lon="11.3645843"><ele>227.0</ele><time>2026-05-02T09:23:51.347Z</time></trkpt><trkpt lat="43.2482664" lon="11.3647352"><ele>227.0</ele><time>2026-05-02T09:23:52.352Z</time></trkpt><trkpt lat="43.2482643" lon="11.3648892"><ele>227.2</ele><time>2026-05-02T09:23:53.351Z</time></trkpt><trkpt lat="43.2482627" lon="11.3650538"><ele>227.39999999999998</ele><time>2026-05-02T09:23:54.349Z</time></trkpt><trkpt lat="43.2482513" lon="11.365204"><ele>227.60000000000002</ele><time>2026-05-02T09:23:55.355Z</time></trkpt><trkpt lat="43.2482226" lon="11.3653274"><ele>227.8</ele><time>2026-05-02T09:23:56.344Z</time></trkpt><trkpt lat="43.2481806" lon="11.3654363"><ele>228.0</ele><time>2026-05-02T09:23:57.348Z</time></trkpt><trkpt lat="43.2481322" lon="11.3655409"><ele>227.0</ele><time>2026-05-02T09:23:58.338Z</time></trkpt><trkpt lat="43.2480757" lon="11.3656446"><ele>226.0</ele><time>2026-05-02T09:23:59.371Z</time></trkpt><trkpt lat="43.248005" lon="11.3657409"><ele>225.0</ele><time>2026-05-02T09:24:00.347Z</time></trkpt><trkpt lat="43.2479242" lon="11.3658349"><ele>224.0</ele><time>2026-05-02T09:24:01.342Z</time></trkpt><trkpt lat="43.2478358" lon="11.3659238"><ele>223.0</ele><time>2026-05-02T09:24:02.347Z</time></trkpt><trkpt lat="43.2477296" lon="11.3659979"><ele>223.0</ele><time>2026-05-02T09:24:03.346Z</time></trkpt><trkpt lat="43.2476199" lon="11.3660469"><ele>223.0</ele><time>2026-05-02T09:24:04.353Z</time></trkpt><trkpt lat="43.2474986" lon="11.3660809"><ele>223.0</ele><time>2026-05-02T09:24:05.343Z</time></trkpt><trkpt lat="43.2473736" lon="11.3661112"><ele>223.0</ele><time>2026-05-02T09:24:06.341Z</time></trkpt><trkpt lat="43.2472431" lon="11.3661441"><ele>222.5</ele><time>2026-05-02T09:24:07.346Z</time></trkpt><trkpt lat="43.2471122" lon="11.3661727"><ele>222.0</ele><time>2026-05-02T09:24:08.342Z</time></trkpt><trkpt lat="43.2469933" lon="11.3662094"><ele>221.5</ele><time>2026-05-02T09:24:09.345Z</time></trkpt><trkpt lat="43.2468821" lon="11.3662508"><ele>221.0</ele><time>2026-05-02T09:24:10.354Z</time></trkpt><trkpt lat="43.2467736" lon="11.3662921"><ele>221.0</ele><time>2026-05-02T09:24:11.346Z</time></trkpt><trkpt lat="43.2466653" lon="11.3663402"><ele>221.00000000000003</ele><time>2026-05-02T09:24:12.348Z</time></trkpt><trkpt lat="43.2465625" lon="11.3663873"><ele>221.00000000000003</ele><time>2026-05-02T09:24:13.36Z</time></trkpt><trkpt lat="43.2464652" lon="11.3664383"><ele>221.0</ele><time>2026-05-02T09:24:14.342Z</time></trkpt><trkpt lat="43.2463729" lon="11.3664941"><ele>221.0</ele><time>2026-05-02T09:24:15.343Z</time></trkpt><trkpt lat="43.2462991" lon="11.3665535"><ele>221.60000000000002</ele><time>2026-05-02T09:24:16.351Z</time></trkpt><trkpt lat="43.24623" lon="11.3666133"><ele>222.20000000000002</ele><time>2026-05-02T09:24:17.354Z</time></trkpt><trkpt lat="43.2461662" lon="11.3666778"><ele>222.79999999999998</ele><time>2026-05-02T09:24:18.341Z</time></trkpt><trkpt lat="43.2460965" lon="11.3667512"><ele>223.39999999999998</ele><time>2026-05-02T09:24:19.348Z</time></trkpt><trkpt lat="43.246018" lon="11.3668366"><ele>224.0</ele><time>2026-05-02T09:24:20.347Z</time></trkpt><trkpt lat="43.2459364" lon="11.3669236"><ele>224.0</ele><time>2026-05-02T09:24:21.346Z</time></trkpt><trkpt lat="43.2458441" lon="11.3670185"><ele>224.0</ele><time>2026-05-02T09:24:22.348Z</time></trkpt><trkpt lat="43.2457449" lon="11.367119"><ele>224.0</ele><time>2026-05-02T09:24:23.361Z</time></trkpt><trkpt lat="43.2456318" lon="11.3672134"><ele>224.0</ele><time>2026-05-02T09:24:24.339Z</time></trkpt><trkpt lat="43.2455094" lon="11.3672972"><ele>222.66666666666669</ele><time>2026-05-02T09:24:25.344Z</time></trkpt><trkpt lat="43.2453735" lon="11.3673731"><ele>221.33333333333331</ele><time>2026-05-02T09:24:26.343Z</time></trkpt><trkpt lat="43.2452291" lon="11.3674359"><ele>220.0</ele><time>2026-05-02T09:24:27.348Z</time></trkpt><trkpt lat="43.2450728" lon="11.3674825"><ele>220.0</ele><time>2026-05-02T09:24:28.341Z</time></trkpt><trkpt lat="43.2449054" lon="11.3675327"><ele>220.0</ele><time>2026-05-02T09:24:29.344Z</time></trkpt><trkpt lat="43.2447183" lon="11.3675979"><ele>220.0</ele><time>2026-05-02T09:24:30.36Z</time></trkpt><trkpt lat="43.2445047" lon="11.3676612"><ele>221.0</ele><time>2026-05-02T09:24:31.342Z</time></trkpt><trkpt lat="43.2442954" lon="11.3677391"><ele>222.0</ele><time>2026-05-02T09:24:32.344Z</time></trkpt><trkpt lat="43.2441161" lon="11.3677999"><ele>223.0</ele><time>2026-05-02T09:24:33.341Z</time></trkpt><trkpt lat="43.2439523" lon="11.3678504"><ele>223.75</ele><time>2026-05-02T09:24:34.349Z</time></trkpt><trkpt lat="43.2438014" lon="11.3679004"><ele>224.5</ele><time>2026-05-02T09:24:35.342Z</time></trkpt><trkpt lat="43.2436699" lon="11.3679362"><ele>225.25</ele><time>2026-05-02T09:24:36.364Z</time></trkpt><trkpt lat="43.2435381" lon="11.3679677"><ele>226.0</ele><time>2026-05-02T09:24:37.347Z</time></trkpt><trkpt lat="43.2434055" lon="11.3679894"><ele>226.0</ele><time>2026-05-02T09:24:38.344Z</time></trkpt><trkpt lat="43.2432766" lon="11.3680084"><ele>226.0</ele><time>2026-05-02T09:24:39.343Z</time></trkpt><trkpt lat="43.243157" lon="11.3680418"><ele>226.0</ele><time>2026-05-02T09:24:40.35Z</time></trkpt><trkpt lat="43.2430413" lon="11.3680895"><ele>226.0</ele><time>2026-05-02T09:24:41.338Z</time></trkpt><trkpt lat="43.2429255" lon="11.3681383"><ele>225.0</ele><time>2026-05-02T09:24:42.359Z</time></trkpt><trkpt lat="43.2428138" lon="11.3681995"><ele>224.0</ele><time>2026-05-02T09:24:43.345Z</time></trkpt><trkpt lat="43.2427051" lon="11.3682773"><ele>223.0</ele><time>2026-05-02T09:24:44.351Z</time></trkpt><trkpt lat="43.2426005" lon="11.3683721"><ele>222.0</ele><time>2026-05-02T09:24:45.342Z</time></trkpt><trkpt lat="43.2425045" lon="11.3684896"><ele>222.0</ele><time>2026-05-02T09:24:46.346Z</time></trkpt><trkpt lat="43.242402" lon="11.3686063"><ele>222.0</ele><time>2026-05-02T09:24:47.344Z</time></trkpt><trkpt lat="43.2423048" lon="11.3687259"><ele>222.0</ele><time>2026-05-02T09:24:48.342Z</time></trkpt><trkpt lat="43.2422137" lon="11.368841"><ele>222.0</ele><time>2026-05-02T09:24:49.348Z</time></trkpt><trkpt lat="43.2421263" lon="11.3689565"><ele>221.5</ele><time>2026-05-02T09:24:50.34Z</time></trkpt><trkpt lat="43.2420391" lon="11.3690727"><ele>221.0</ele><time>2026-05-02T09:24:51.348Z</time></trkpt><trkpt lat="43.2419551" lon="11.3691881"><ele>220.5</ele><time>2026-05-02T09:24:52.351Z</time></trkpt><trkpt lat="43.2418709" lon="11.3692981"><ele>220.0</ele><time>2026-05-02T09:24:53.345Z</time></trkpt><trkpt lat="43.2417859" lon="11.3694044"><ele>220.0</ele><time>2026-05-02T09:24:54.342Z</time></trkpt><trkpt lat="43.2416983" lon="11.3695087"><ele>220.0</ele><time>2026-05-02T09:24:55.352Z</time></trkpt><trkpt lat="43.24161" lon="11.3696155"><ele>220.0</ele><time>2026-05-02T09:24:56.351Z</time></trkpt><trkpt lat="43.2415199" lon="11.3697209"><ele>220.0</ele><time>2026-05-02T09:24:57.341Z</time></trkpt><trkpt lat="43.2414211" lon="11.36982"><ele>218.75</ele><time>2026-05-02T09:24:58.338Z</time></trkpt><trkpt lat="43.2413259" lon="11.3699249"><ele>217.5</ele><time>2026-05-02T09:24:59.351Z</time></trkpt><trkpt lat="43.2412245" lon="11.37003"><ele>216.25</ele><time>2026-05-02T09:25:00.339Z</time></trkpt><trkpt lat="43.2411266" lon="11.3701217"><ele>215.0</ele><time>2026-05-02T09:25:01.344Z</time></trkpt><trkpt lat="43.2410301" lon="11.3702065"><ele>215.0</ele><time>2026-05-02T09:25:02.344Z</time></trkpt><trkpt lat="43.2409441" lon="11.3702858"><ele>215.0</ele><time>2026-05-02T09:25:03.346Z</time></trkpt><trkpt lat="43.2408621" lon="11.3703568"><ele>215.0</ele><time>2026-05-02T09:25:04.351Z</time></trkpt><trkpt lat="43.2407829" lon="11.3704234"><ele>215.0</ele><time>2026-05-02T09:25:05.343Z</time></trkpt><trkpt lat="43.2407114" lon="11.3704915"><ele>215.0</ele><time>2026-05-02T09:25:06.357Z</time></trkpt><trkpt lat="43.2406467" lon="11.3705583"><ele>215.4</ele><time>2026-05-02T09:25:07.35Z</time></trkpt><trkpt lat="43.240598" lon="11.3706193"><ele>215.8</ele><time>2026-05-02T09:25:08.338Z</time></trkpt><trkpt lat="43.2405252" lon="11.3706737"><ele>216.2</ele><time>2026-05-02T09:25:10.357Z</time></trkpt><trkpt lat="43.2404832" lon="11.3707491"><ele>216.6</ele><time>2026-05-02T09:26:25.367Z</time></trkpt><trkpt lat="43.2404034" lon="11.3709078"><ele>217.0</ele><time>2026-05-02T09:26:27.349Z</time></trkpt><trkpt lat="43.2403246" lon="11.3710298"><ele>217.0</ele><time>2026-05-02T09:26:28.365Z</time></trkpt><trkpt lat="43.2402283" lon="11.3711991"><ele>217.0</ele><time>2026-05-02T09:26:29.338Z</time></trkpt><trkpt lat="43.2401242" lon="11.3713923"><ele>217.0</ele><time>2026-05-02T09:26:30.344Z</time></trkpt><trkpt lat="43.2400276" lon="11.3715857"><ele>216.25</ele><time>2026-05-02T09:26:31.345Z</time></trkpt><trkpt lat="43.2399383" lon="11.3717538"><ele>215.5</ele><time>2026-05-02T09:26:32.343Z</time></trkpt><trkpt lat="43.2398627" lon="11.3719077"><ele>214.75</ele><time>2026-05-02T09:26:33.337Z</time></trkpt><trkpt lat="43.239801" lon="11.3720476"><ele>214.0</ele><time>2026-05-02T09:26:34.346Z</time></trkpt><trkpt lat="43.2397339" lon="11.3721936"><ele>213.79999999999998</ele><time>2026-05-02T09:26:35.349Z</time></trkpt><trkpt lat="43.2396705" lon="11.3723392"><ele>213.59999999999997</ele><time>2026-05-02T09:26:36.343Z</time></trkpt><trkpt lat="43.2396077" lon="11.3724548"><ele>213.4</ele><time>2026-05-02T09:26:37.348Z</time></trkpt><trkpt lat="43.2395348" lon="11.3725505"><ele>213.2</ele><time>2026-05-02T09:26:38.337Z</time></trkpt><trkpt lat="43.2394526" lon="11.3726221"><ele>213.0</ele><time>2026-05-02T09:26:39.346Z</time></trkpt><trkpt lat="43.2393401" lon="11.372667"><ele>213.0</ele><time>2026-05-02T09:26:40.338Z</time></trkpt><trkpt lat="43.2391959" lon="11.3726933"><ele>213.0</ele><time>2026-05-02T09:26:41.346Z</time></trkpt><trkpt lat="43.2390349" lon="11.372708"><ele>213.0</ele><time>2026-05-02T09:26:42.346Z</time></trkpt><trkpt lat="43.2388887" lon="11.3727237"><ele>213.0</ele><time>2026-05-02T09:26:43.343Z</time></trkpt><trkpt lat="43.2387588" lon="11.3727526"><ele>213.0</ele><time>2026-05-02T09:26:44.34Z</time></trkpt><trkpt lat="43.2386453" lon="11.3728059"><ele>213.0</ele><time>2026-05-02T09:26:45.356Z</time></trkpt><trkpt lat="43.238538" lon="11.372863"><ele>213.0</ele><time>2026-05-02T09:26:46.356Z</time></trkpt><trkpt lat="43.2384501" lon="11.3729241"><ele>213.0</ele><time>2026-05-02T09:26:47.359Z</time></trkpt><trkpt lat="43.2383651" lon="11.3729893"><ele>213.0</ele><time>2026-05-02T09:26:48.335Z</time></trkpt><trkpt lat="43.2382976" lon="11.3730808"><ele>213.0</ele><time>2026-05-02T09:26:49.34Z</time></trkpt><trkpt lat="43.2382611" lon="11.3731902"><ele>213.0</ele><time>2026-05-02T09:26:50.358Z</time></trkpt><trkpt lat="43.2382416" lon="11.3733436"><ele>213.0</ele><time>2026-05-02T09:26:51.339Z</time></trkpt><trkpt lat="43.2382406" lon="11.3735225"><ele>210.33333333333331</ele><time>2026-05-02T09:26:52.341Z</time></trkpt><trkpt lat="43.2382522" lon="11.3737388"><ele>207.66666666666666</ele><time>2026-05-02T09:26:53.354Z</time></trkpt><trkpt lat="43.2382669" lon="11.3739732"><ele>205.0</ele><time>2026-05-02T09:26:54.344Z</time></trkpt><trkpt lat="43.2382805" lon="11.3741861"><ele>204.75</ele><time>2026-05-02T09:26:55.35Z</time></trkpt><trkpt lat="43.2382882" lon="11.3743714"><ele>204.5</ele><time>2026-05-02T09:26:56.351Z</time></trkpt><trkpt lat="43.2382939" lon="11.3745423"><ele>204.25</ele><time>2026-05-02T09:26:57.364Z</time></trkpt><trkpt lat="43.2382894" lon="11.3747044"><ele>204.0</ele><time>2026-05-02T09:26:58.356Z</time></trkpt><trkpt lat="43.2382713" lon="11.3748578"><ele>204.0</ele><time>2026-05-02T09:26:59.339Z</time></trkpt><trkpt lat="43.2382341" lon="11.3749743"><ele>204.0</ele><time>2026-05-02T09:27:00.367Z</time></trkpt><trkpt lat="43.2381788" lon="11.3750833"><ele>204.0</ele><time>2026-05-02T09:27:01.347Z</time></trkpt><trkpt lat="43.2380899" lon="11.3751981"><ele>204.0</ele><time>2026-05-02T09:27:02.36Z</time></trkpt><trkpt lat="43.2379746" lon="11.3753085"><ele>204.0</ele><time>2026-05-02T09:27:03.331Z</time></trkpt><trkpt lat="43.2378386" lon="11.3754332"><ele>204.0</ele><time>2026-05-02T09:27:04.343Z</time></trkpt><trkpt lat="43.2376846" lon="11.37558"><ele>204.0</ele><time>2026-05-02T09:27:05.337Z</time></trkpt><trkpt lat="43.2375345" lon="11.3757375"><ele>202.75</ele><time>2026-05-02T09:27:06.349Z</time></trkpt><trkpt lat="43.237413" lon="11.3758742"><ele>201.5</ele><time>2026-05-02T09:27:07.353Z</time></trkpt><trkpt lat="43.2373014" lon="11.3759932"><ele>200.25</ele><time>2026-05-02T09:27:08.343Z</time></trkpt><trkpt lat="43.2371969" lon="11.3761058"><ele>199.0</ele><time>2026-05-02T09:27:09.34Z</time></trkpt><trkpt lat="43.2371029" lon="11.3762029"><ele>198.25</ele><time>2026-05-02T09:27:10.348Z</time></trkpt><trkpt lat="43.2370131" lon="11.3762871"><ele>197.5</ele><time>2026-05-02T09:27:11.343Z</time></trkpt><trkpt lat="43.2369021" lon="11.3763348"><ele>196.75</ele><time>2026-05-02T09:27:12.341Z</time></trkpt><trkpt lat="43.2367826" lon="11.3763657"><ele>196.0</ele><time>2026-05-02T09:27:13.357Z</time></trkpt><trkpt lat="43.2366536" lon="11.3763624"><ele>196.0</ele><time>2026-05-02T09:27:14.357Z</time></trkpt><trkpt lat="43.2365448" lon="11.3763322"><ele>196.0</ele><time>2026-05-02T09:27:15.363Z</time></trkpt><trkpt lat="43.2364509" lon="11.3762813"><ele>196.0</ele><time>2026-05-02T09:27:16.346Z</time></trkpt><trkpt lat="43.2363657" lon="11.3761948"><ele>196.0</ele><time>2026-05-02T09:27:17.342Z</time></trkpt><trkpt lat="43.2362981" lon="11.3760877"><ele>196.0</ele><time>2026-05-02T09:27:18.351Z</time></trkpt><trkpt lat="43.236246" lon="11.3759502"><ele>194.0</ele><time>2026-05-02T09:27:19.343Z</time></trkpt><trkpt lat="43.2362082" lon="11.3758001"><ele>192.0</ele><time>2026-05-02T09:27:20.349Z</time></trkpt><trkpt lat="43.2361901" lon="11.375642"><ele>190.0</ele><time>2026-05-02T09:27:21.355Z</time></trkpt><trkpt lat="43.2361958" lon="11.3754918"><ele>188.0</ele><time>2026-05-02T09:27:22.341Z</time></trkpt><trkpt lat="43.2362183" lon="11.3753602"><ele>186.0</ele><time>2026-05-02T09:27:23.354Z</time></trkpt><trkpt lat="43.2362583" lon="11.375224"><ele>185.0</ele><time>2026-05-02T09:27:24.349Z</time></trkpt><trkpt lat="43.2363138" lon="11.3750779"><ele>184.0</ele><time>2026-05-02T09:27:25.351Z</time></trkpt><trkpt lat="43.2363809" lon="11.3749369"><ele>183.0</ele><time>2026-05-02T09:27:26.354Z</time></trkpt><trkpt lat="43.2364363" lon="11.374793"><ele>182.0</ele><time>2026-05-02T09:27:27.354Z</time></trkpt><trkpt lat="43.2364832" lon="11.3746344"><ele>183.8</ele><time>2026-05-02T09:27:28.347Z</time></trkpt><trkpt lat="43.2365176" lon="11.3744691"><ele>185.6</ele><time>2026-05-02T09:27:29.336Z</time></trkpt><trkpt lat="43.2365408" lon="11.3743168"><ele>187.4</ele><time>2026-05-02T09:27:30.344Z</time></trkpt><trkpt lat="43.2365639" lon="11.3741773"><ele>189.20000000000002</ele><time>2026-05-02T09:27:31.35Z</time></trkpt><trkpt lat="43.2365765" lon="11.3740449"><ele>191.0</ele><time>2026-05-02T09:27:32.356Z</time></trkpt><trkpt lat="43.2365688" lon="11.3739183"><ele>190.20000000000002</ele><time>2026-05-02T09:27:33.357Z</time></trkpt><trkpt lat="43.2365474" lon="11.3737974"><ele>189.4</ele><time>2026-05-02T09:27:34.352Z</time></trkpt><trkpt lat="43.2365018" lon="11.3736795"><ele>188.6</ele><time>2026-05-02T09:27:35.337Z</time></trkpt><trkpt lat="43.2364377" lon="11.3735772"><ele>187.8</ele><time>2026-05-02T09:27:36.348Z</time></trkpt><trkpt lat="43.2363487" lon="11.3734922"><ele>187.0</ele><time>2026-05-02T09:27:37.346Z</time></trkpt><trkpt lat="43.236247" lon="11.3734367"><ele>185.75</ele><time>2026-05-02T09:27:38.34Z</time></trkpt><trkpt lat="43.236133" lon="11.3734202"><ele>184.5</ele><time>2026-05-02T09:27:39.361Z</time></trkpt><trkpt lat="43.2359991" lon="11.3734199"><ele>183.25</ele><time>2026-05-02T09:27:40.336Z</time></trkpt><trkpt lat="43.2358367" lon="11.3734346"><ele>182.0</ele><time>2026-05-02T09:27:41.343Z</time></trkpt><trkpt lat="43.2356512" lon="11.3734495"><ele>179.5</ele><time>2026-05-02T09:27:42.342Z</time></trkpt><trkpt lat="43.235432" lon="11.3734753"><ele>177.0</ele><time>2026-05-02T09:27:43.342Z</time></trkpt><trkpt lat="43.2351855" lon="11.3734988"><ele>177.0</ele><time>2026-05-02T09:27:44.339Z</time></trkpt><trkpt lat="43.2349454" lon="11.373521"><ele>177.0</ele><time>2026-05-02T09:27:45.356Z</time></trkpt><trkpt lat="43.2347377" lon="11.3735402"><ele>177.0</ele><time>2026-05-02T09:27:46.342Z</time></trkpt><trkpt lat="43.2345429" lon="11.3735562"><ele>177.33333333333334</ele><time>2026-05-02T09:27:47.349Z</time></trkpt><trkpt lat="43.234372" lon="11.3735665"><ele>177.66666666666669</ele><time>2026-05-02T09:27:48.337Z</time></trkpt><trkpt lat="43.2342216" lon="11.373577"><ele>178.0</ele><time>2026-05-02T09:27:49.346Z</time></trkpt><trkpt lat="43.2340698" lon="11.3735892"><ele>178.33333333333334</ele><time>2026-05-02T09:27:50.347Z</time></trkpt><trkpt lat="43.2339219" lon="11.3736026"><ele>178.66666666666666</ele><time>2026-05-02T09:27:51.348Z</time></trkpt><trkpt lat="43.2337768" lon="11.3736384"><ele>179.0</ele><time>2026-05-02T09:27:52.336Z</time></trkpt><trkpt lat="43.2336287" lon="11.3737094"><ele>179.0</ele><time>2026-05-02T09:27:53.348Z</time></trkpt><trkpt lat="43.2334728" lon="11.3738127"><ele>179.0</ele><time>2026-05-02T09:27:54.333Z</time></trkpt><trkpt lat="43.2332948" lon="11.3739415"><ele>179.0</ele><time>2026-05-02T09:27:55.35Z</time></trkpt><trkpt lat="43.2330979" lon="11.3740776"><ele>179.0</ele><time>2026-05-02T09:27:56.348Z</time></trkpt><trkpt lat="43.2328745" lon="11.3742279"><ele>179.0</ele><time>2026-05-02T09:27:57.348Z</time></trkpt><trkpt lat="43.2326388" lon="11.3743858"><ele>179.0</ele><time>2026-05-02T09:27:58.348Z</time></trkpt><trkpt lat="43.2324286" lon="11.374542"><ele>179.0</ele><time>2026-05-02T09:27:59.347Z</time></trkpt><trkpt lat="43.2322565" lon="11.3746579"><ele>179.0</ele><time>2026-05-02T09:28:00.344Z</time></trkpt><trkpt lat="43.2320904" lon="11.3747788"><ele>179.0</ele><time>2026-05-02T09:28:01.343Z</time></trkpt><trkpt lat="43.2319198" lon="11.374893"><ele>179.0</ele><time>2026-05-02T09:28:02.331Z</time></trkpt><trkpt lat="43.2317416" lon="11.3750214"><ele>179.0</ele><time>2026-05-02T09:28:03.359Z</time></trkpt><trkpt lat="43.2315429" lon="11.3751581"><ele>181.5</ele><time>2026-05-02T09:28:04.357Z</time></trkpt><trkpt lat="43.2313314" lon="11.3753143"><ele>184.0</ele><time>2026-05-02T09:28:05.351Z</time></trkpt><trkpt lat="43.2311183" lon="11.375461"><ele>181.5</ele><time>2026-05-02T09:28:06.351Z</time></trkpt><trkpt lat="43.2309106" lon="11.3756078"><ele>179.0</ele><time>2026-05-02T09:28:07.346Z</time></trkpt><trkpt lat="43.2307036" lon="11.3757508"><ele>181.5</ele><time>2026-05-02T09:28:08.337Z</time></trkpt><trkpt lat="43.2304908" lon="11.3759088"><ele>184.0</ele><time>2026-05-02T09:28:09.353Z</time></trkpt><trkpt lat="43.2302809" lon="11.3760579"><ele>184.0</ele><time>2026-05-02T09:28:10.356Z</time></trkpt><trkpt lat="43.230086" lon="11.3762015"><ele>184.0</ele><time>2026-05-02T09:28:11.344Z</time></trkpt><trkpt lat="43.2299158" lon="11.3763349"><ele>184.0</ele><time>2026-05-02T09:28:12.34Z</time></trkpt><trkpt lat="43.2297464" lon="11.3764749"><ele>184.66666666666669</ele><time>2026-05-02T09:28:13.342Z</time></trkpt><trkpt lat="43.2295855" lon="11.3766077"><ele>185.33333333333334</ele><time>2026-05-02T09:28:14.349Z</time></trkpt><trkpt lat="43.2294356" lon="11.3767336"><ele>186.0</ele><time>2026-05-02T09:28:15.349Z</time></trkpt><trkpt lat="43.2292991" lon="11.3768482"><ele>186.0</ele><time>2026-05-02T09:28:16.35Z</time></trkpt><trkpt lat="43.2291638" lon="11.3769546"><ele>186.0</ele><time>2026-05-02T09:28:17.35Z</time></trkpt><trkpt lat="43.2290275" lon="11.3770454"><ele>186.0</ele><time>2026-05-02T09:28:18.349Z</time></trkpt><trkpt lat="43.2288825" lon="11.3771282"><ele>183.33333333333334</ele><time>2026-05-02T09:28:19.343Z</time></trkpt><trkpt lat="43.2287371" lon="11.37719"><ele>180.66666666666669</ele><time>2026-05-02T09:28:20.336Z</time></trkpt><trkpt lat="43.2285927" lon="11.3772334"><ele>178.0</ele><time>2026-05-02T09:28:21.358Z</time></trkpt><trkpt lat="43.228435" lon="11.3772518"><ele>178.0</ele><time>2026-05-02T09:28:22.343Z</time></trkpt><trkpt lat="43.2282649" lon="11.377262"><ele>178.0</ele><time>2026-05-02T09:28:23.345Z</time></trkpt><trkpt lat="43.2280811" lon="11.3772691"><ele>178.0</ele><time>2026-05-02T09:28:24.358Z</time></trkpt><trkpt lat="43.2279061" lon="11.3772864"><ele>178.0</ele><time>2026-05-02T09:28:25.339Z</time></trkpt><trkpt lat="43.2277525" lon="11.3772913"><ele>178.0</ele><time>2026-05-02T09:28:26.345Z</time></trkpt><trkpt lat="43.2275983" lon="11.3772932"><ele>178.0</ele><time>2026-05-02T09:28:27.341Z</time></trkpt><trkpt lat="43.2274422" lon="11.3772803"><ele>177.75</ele><time>2026-05-02T09:28:28.342Z</time></trkpt><trkpt lat="43.227297" lon="11.377253"><ele>177.5</ele><time>2026-05-02T09:28:29.353Z</time></trkpt><trkpt lat="43.2271575" lon="11.3772082"><ele>177.25</ele><time>2026-05-02T09:28:30.345Z</time></trkpt><trkpt lat="43.22701" lon="11.3771365"><ele>177.0</ele><time>2026-05-02T09:28:31.346Z</time></trkpt><trkpt lat="43.2268712" lon="11.3770421"><ele>178.33333333333334</ele><time>2026-05-02T09:28:32.343Z</time></trkpt><trkpt lat="43.2267332" lon="11.376936"><ele>179.66666666666669</ele><time>2026-05-02T09:28:33.343Z</time></trkpt><trkpt lat="43.2265985" lon="11.3768129"><ele>181.0</ele><time>2026-05-02T09:28:34.34Z</time></trkpt><trkpt lat="43.2264828" lon="11.3766849"><ele>180.5</ele><time>2026-05-02T09:28:35.337Z</time></trkpt><trkpt lat="43.2263794" lon="11.3765507"><ele>180.0</ele><time>2026-05-02T09:28:36.341Z</time></trkpt><trkpt lat="43.2262921" lon="11.3764087"><ele>179.5</ele><time>2026-05-02T09:28:37.337Z</time></trkpt><trkpt lat="43.2262286" lon="11.3762802"><ele>179.0</ele><time>2026-05-02T09:28:38.342Z</time></trkpt><trkpt lat="43.2261845" lon="11.3761594"><ele>179.0</ele><time>2026-05-02T09:28:39.357Z</time></trkpt><trkpt lat="43.2261445" lon="11.3760461"><ele>179.0</ele><time>2026-05-02T09:28:40.355Z</time></trkpt><trkpt lat="43.2261012" lon="11.3759338"><ele>179.0</ele><time>2026-05-02T09:28:41.332Z</time></trkpt><trkpt lat="43.2260614" lon="11.3758117"><ele>179.0</ele><time>2026-05-02T09:28:42.346Z</time></trkpt><trkpt lat="43.2260435" lon="11.3756786"><ele>179.0</ele><time>2026-05-02T09:28:43.352Z</time></trkpt><trkpt lat="43.2260224" lon="11.3755405"><ele>178.75</ele><time>2026-05-02T09:28:44.342Z</time></trkpt><trkpt lat="43.2260122" lon="11.3753865"><ele>178.5</ele><time>2026-05-02T09:28:45.364Z</time></trkpt><trkpt lat="43.2260214" lon="11.3752346"><ele>178.25</ele><time>2026-05-02T09:28:46.352Z</time></trkpt><trkpt lat="43.2260338" lon="11.3750843"><ele>178.0</ele><time>2026-05-02T09:28:47.355Z</time></trkpt><trkpt lat="43.2260522" lon="11.374921"><ele>178.0</ele><time>2026-05-02T09:28:48.351Z</time></trkpt><trkpt lat="43.2260729" lon="11.3747514"><ele>178.0</ele><time>2026-05-02T09:28:49.344Z</time></trkpt><trkpt lat="43.2260904" lon="11.3745661"><ele>178.0</ele><time>2026-05-02T09:28:50.34Z</time></trkpt><trkpt lat="43.226112" lon="11.3743733"><ele>178.0</ele><time>2026-05-02T09:28:51.348Z</time></trkpt><trkpt lat="43.2261309" lon="11.3741757"><ele>178.0</ele><time>2026-05-02T09:28:52.336Z</time></trkpt><trkpt lat="43.2261309" lon="11.3739778"><ele>178.0</ele><time>2026-05-02T09:28:53.333Z</time></trkpt><trkpt lat="43.2261218" lon="11.3737732"><ele>178.0</ele><time>2026-05-02T09:28:54.361Z</time></trkpt><trkpt lat="43.2260843" lon="11.3735521"><ele>178.0</ele><time>2026-05-02T09:28:55.351Z</time></trkpt><trkpt lat="43.226034" lon="11.3733261"><ele>178.0</ele><time>2026-05-02T09:28:56.356Z</time></trkpt><trkpt lat="43.2259627" lon="11.3730965"><ele>178.0</ele><time>2026-05-02T09:28:57.344Z</time></trkpt><trkpt lat="43.2258941" lon="11.3728902"><ele>179.0</ele><time>2026-05-02T09:28:58.337Z</time></trkpt><trkpt lat="43.2258452" lon="11.3727082"><ele>180.0</ele><time>2026-05-02T09:28:59.347Z</time></trkpt><trkpt lat="43.2257927" lon="11.372555"><ele>181.0</ele><time>2026-05-02T09:29:00.339Z</time></trkpt><trkpt lat="43.2257484" lon="11.3724247"><ele>182.0</ele><time>2026-05-02T09:29:01.338Z</time></trkpt><trkpt lat="43.2256985" lon="11.3723151"><ele>181.83333333333331</ele><time>2026-05-02T09:29:02.344Z</time></trkpt><trkpt lat="43.2256372" lon="11.372228"><ele>181.66666666666666</ele><time>2026-05-02T09:29:03.341Z</time></trkpt><trkpt lat="43.2255719" lon="11.3721843"><ele>181.5</ele><time>2026-05-02T09:29:04.348Z</time></trkpt><trkpt lat="43.2254986" lon="11.3721765"><ele>181.33333333333334</ele><time>2026-05-02T09:29:05.357Z</time></trkpt><trkpt lat="43.2254247" lon="11.3722049"><ele>181.16666666666669</ele><time>2026-05-02T09:29:06.341Z</time></trkpt><trkpt lat="43.2253514" lon="11.3722777"><ele>181.0</ele><time>2026-05-02T09:29:07.373Z</time></trkpt><trkpt lat="43.2252882" lon="11.3723858"><ele>180.75</ele><time>2026-05-02T09:29:08.348Z</time></trkpt><trkpt lat="43.2252266" lon="11.3725214"><ele>180.5</ele><time>2026-05-02T09:29:09.358Z</time></trkpt><trkpt lat="43.2251753" lon="11.3726759"><ele>180.25</ele><time>2026-05-02T09:29:10.342Z</time></trkpt><trkpt lat="43.2251155" lon="11.3728413"><ele>180.0</ele><time>2026-05-02T09:29:11.354Z</time></trkpt><trkpt lat="43.2250491" lon="11.3730093"><ele>180.0</ele><time>2026-05-02T09:29:12.348Z</time></trkpt><trkpt lat="43.2249705" lon="11.3731632"><ele>180.0</ele><time>2026-05-02T09:29:13.355Z</time></trkpt><trkpt lat="43.2248819" lon="11.3733023"><ele>180.0</ele><time>2026-05-02T09:29:14.337Z</time></trkpt><trkpt lat="43.2247811" lon="11.3733997"><ele>180.0</ele><time>2026-05-02T09:29:15.335Z</time></trkpt><trkpt lat="43.2246596" lon="11.3734668"><ele>182.0</ele><time>2026-05-02T09:29:16.346Z</time></trkpt><trkpt lat="43.224528" lon="11.3735058"><ele>184.0</ele><time>2026-05-02T09:29:17.343Z</time></trkpt><trkpt lat="43.224396" lon="11.3735196"><ele>186.0</ele><time>2026-05-02T09:29:18.345Z</time></trkpt><trkpt lat="43.2242748" lon="11.373511"><ele>188.0</ele><time>2026-05-02T09:29:19.343Z</time></trkpt><trkpt lat="43.224145" lon="11.3734672"><ele>188.0</ele><time>2026-05-02T09:29:20.334Z</time></trkpt><trkpt lat="43.2240284" lon="11.3734004"><ele>188.0</ele><time>2026-05-02T09:29:21.349Z</time></trkpt><trkpt lat="43.2239189" lon="11.3733208"><ele>188.0</ele><time>2026-05-02T09:29:22.343Z</time></trkpt><trkpt lat="43.2238234" lon="11.373216"><ele>188.0</ele><time>2026-05-02T09:29:23.347Z</time></trkpt><trkpt lat="43.2237442" lon="11.3730955"><ele>192.5</ele><time>2026-05-02T09:29:24.35Z</time></trkpt><trkpt lat="43.2236707" lon="11.3729577"><ele>197.0</ele><time>2026-05-02T09:29:25.344Z</time></trkpt><trkpt lat="43.2236119" lon="11.3727989"><ele>201.5</ele><time>2026-05-02T09:29:26.354Z</time></trkpt><trkpt lat="43.2235787" lon="11.3726321"><ele>206.0</ele><time>2026-05-02T09:29:27.337Z</time></trkpt><trkpt lat="43.2235845" lon="11.3724852"><ele>206.0</ele><time>2026-05-02T09:29:28.345Z</time></trkpt><trkpt lat="43.2236119" lon="11.3723221"><ele>206.0</ele><time>2026-05-02T09:29:29.345Z</time></trkpt><trkpt lat="43.2236361" lon="11.3721549"><ele>206.0</ele><time>2026-05-02T09:29:30.354Z</time></trkpt><trkpt lat="43.2236508" lon="11.3719866"><ele>206.0</ele><time>2026-05-02T09:29:31.35Z</time></trkpt><trkpt lat="43.2236399" lon="11.3718377"><ele>206.0</ele><time>2026-05-02T09:29:32.336Z</time></trkpt><trkpt lat="43.2236155" lon="11.3717021"><ele>206.0</ele><time>2026-05-02T09:29:33.351Z</time></trkpt><trkpt lat="43.2235683" lon="11.3715742"><ele>206.0</ele><time>2026-05-02T09:29:34.348Z</time></trkpt><trkpt lat="43.2234974" lon="11.3714308"><ele>206.0</ele><time>2026-05-02T09:29:35.345Z</time></trkpt><trkpt lat="43.2234197" lon="11.3713175"><ele>206.0</ele><time>2026-05-02T09:29:36.363Z</time></trkpt><trkpt lat="43.2233347" lon="11.3712324"><ele>206.4</ele><time>2026-05-02T09:29:37.345Z</time></trkpt><trkpt lat="43.2232418" lon="11.3711731"><ele>206.8</ele><time>2026-05-02T09:29:38.347Z</time></trkpt><trkpt lat="43.2231493" lon="11.3711614"><ele>207.20000000000002</ele><time>2026-05-02T09:29:39.346Z</time></trkpt><trkpt lat="43.2230625" lon="11.3711955"><ele>207.60000000000002</ele><time>2026-05-02T09:29:40.346Z</time></trkpt><trkpt lat="43.2229721" lon="11.3712678"><ele>208.0</ele><time>2026-05-02T09:29:41.35Z</time></trkpt><trkpt lat="43.2228792" lon="11.371382"><ele>208.0</ele><time>2026-05-02T09:29:42.347Z</time></trkpt><trkpt lat="43.2227926" lon="11.3715203"><ele>208.0</ele><time>2026-05-02T09:29:43.346Z</time></trkpt><trkpt lat="43.2227088" lon="11.3716636"><ele>208.0</ele><time>2026-05-02T09:29:44.339Z</time></trkpt><trkpt lat="43.2226385" lon="11.3718002"><ele>208.0</ele><time>2026-05-02T09:29:45.368Z</time></trkpt><trkpt lat="43.2225798" lon="11.371917"><ele>208.0</ele><time>2026-05-02T09:29:46.356Z</time></trkpt><trkpt lat="43.2225188" lon="11.3720246"><ele>208.0</ele><time>2026-05-02T09:29:47.341Z</time></trkpt><trkpt lat="43.2224559" lon="11.3721237"><ele>208.0</ele><time>2026-05-02T09:29:48.351Z</time></trkpt><trkpt lat="43.222392" lon="11.3722095"><ele>208.0</ele><time>2026-05-02T09:29:49.35Z</time></trkpt><trkpt lat="43.2223204" lon="11.3722937"><ele>208.0</ele><time>2026-05-02T09:29:50.365Z</time></trkpt><trkpt lat="43.2222409" lon="11.3723688"><ele>210.60000000000002</ele><time>2026-05-02T09:29:51.343Z</time></trkpt><trkpt lat="43.2221559" lon="11.3724413"><ele>213.20000000000002</ele><time>2026-05-02T09:29:52.337Z</time></trkpt><trkpt lat="43.2220671" lon="11.3725101"><ele>215.8</ele><time>2026-05-02T09:29:53.35Z</time></trkpt><trkpt lat="43.2219664" lon="11.3725643"><ele>218.4</ele><time>2026-05-02T09:29:54.347Z</time></trkpt><trkpt lat="43.2218559" lon="11.3726045"><ele>221.0</ele><time>2026-05-02T09:29:55.344Z</time></trkpt><trkpt lat="43.2217388" lon="11.3726482"><ele>221.0</ele><time>2026-05-02T09:29:56.344Z</time></trkpt><trkpt lat="43.2216087" lon="11.3726863"><ele>221.0</ele><time>2026-05-02T09:29:57.365Z</time></trkpt><trkpt lat="43.2214679" lon="11.3727163"><ele>221.0</ele><time>2026-05-02T09:29:58.344Z</time></trkpt><trkpt lat="43.2213079" lon="11.3727556"><ele>221.0</ele><time>2026-05-02T09:29:59.372Z</time></trkpt><trkpt lat="43.2211365" lon="11.3727894"><ele>223.0</ele><time>2026-05-02T09:30:00.348Z</time></trkpt><trkpt lat="43.2209507" lon="11.3728334"><ele>225.0</ele><time>2026-05-02T09:30:01.345Z</time></trkpt><trkpt lat="43.2207454" lon="11.3728722"><ele>227.0</ele><time>2026-05-02T09:30:02.363Z</time></trkpt><trkpt lat="43.2205555" lon="11.3729032"><ele>229.66666666666669</ele><time>2026-05-02T09:30:03.348Z</time></trkpt><trkpt lat="43.2203856" lon="11.3729384"><ele>232.33333333333331</ele><time>2026-05-02T09:30:04.341Z</time></trkpt><trkpt lat="43.2202292" lon="11.3729805"><ele>235.0</ele><time>2026-05-02T09:30:05.354Z</time></trkpt><trkpt lat="43.2200653" lon="11.3730162"><ele>233.66666666666666</ele><time>2026-05-02T09:30:06.343Z</time></trkpt><trkpt lat="43.2199059" lon="11.3730412"><ele>232.33333333333331</ele><time>2026-05-02T09:30:07.347Z</time></trkpt><trkpt lat="43.2197437" lon="11.3730706"><ele>231.0</ele><time>2026-05-02T09:30:08.343Z</time></trkpt><trkpt lat="43.2195795" lon="11.3730838"><ele>235.33333333333331</ele><time>2026-05-02T09:30:09.335Z</time></trkpt><trkpt lat="43.2194128" lon="11.3730842"><ele>239.66666666666666</ele><time>2026-05-02T09:30:10.341Z</time></trkpt><trkpt lat="43.2192568" lon="11.3730666"><ele>244.0</ele><time>2026-05-02T09:30:11.356Z</time></trkpt><trkpt lat="43.219108" lon="11.3730382"><ele>246.0</ele><time>2026-05-02T09:30:12.35Z</time></trkpt><trkpt lat="43.2189777" lon="11.3730202"><ele>248.0</ele><time>2026-05-02T09:30:13.364Z</time></trkpt><trkpt lat="43.218848" lon="11.3729873"><ele>250.0</ele><time>2026-05-02T09:30:14.35Z</time></trkpt><trkpt lat="43.2187112" lon="11.3729283"><ele>252.0</ele><time>2026-05-02T09:30:15.343Z</time></trkpt><trkpt lat="43.2185942" lon="11.3728758"><ele>252.0</ele><time>2026-05-02T09:30:16.35Z</time></trkpt><trkpt lat="43.2185205" lon="11.3728401"><ele>252.0</ele><time>2026-05-02T09:30:17.337Z</time></trkpt><trkpt lat="43.2184179" lon="11.3728236"><ele>252.0</ele><time>2026-05-02T09:30:19.352Z</time></trkpt><trkpt lat="43.2183677" lon="11.372765"><ele>252.0</ele><time>2026-05-02T09:47:30.333Z</time></trkpt><trkpt lat="43.2183039" lon="11.3727008"><ele>252.0</ele><time>2026-05-02T09:47:34.339Z</time></trkpt><trkpt lat="43.2182277" lon="11.3726516"><ele>252.0</ele><time>2026-05-02T09:47:37.344Z</time></trkpt><trkpt lat="43.2181271" lon="11.3726124"><ele>250.0</ele><time>2026-05-02T09:47:40.357Z</time></trkpt><trkpt lat="43.2180249" lon="11.3725583"><ele>248.0</ele><time>2026-05-02T09:47:42.335Z</time></trkpt><trkpt lat="43.2179181" lon="11.372501"><ele>246.0</ele><time>2026-05-02T09:47:44.352Z</time></trkpt><trkpt lat="43.2178486" lon="11.3724609"><ele>244.0</ele><time>2026-05-02T09:47:45.347Z</time></trkpt><trkpt lat="43.2177729" lon="11.3724255"><ele>242.0</ele><time>2026-05-02T09:47:46.338Z</time></trkpt><trkpt lat="43.217697" lon="11.3723917"><ele>242.0</ele><time>2026-05-02T09:47:47.333Z</time></trkpt><trkpt lat="43.2176132" lon="11.3723444"><ele>242.0</ele><time>2026-05-02T09:47:48.338Z</time></trkpt><trkpt lat="43.2175272" lon="11.3723021"><ele>242.0</ele><time>2026-05-02T09:47:49.343Z</time></trkpt><trkpt lat="43.2174357" lon="11.3722501"><ele>242.0</ele><time>2026-05-02T09:47:50.342Z</time></trkpt><trkpt lat="43.2173404" lon="11.3722032"><ele>242.0</ele><time>2026-05-02T09:47:51.346Z</time></trkpt><trkpt lat="43.2172505" lon="11.3721604"><ele>241.2</ele><time>2026-05-02T09:47:52.337Z</time></trkpt><trkpt lat="43.2171595" lon="11.3721162"><ele>240.39999999999998</ele><time>2026-05-02T09:47:53.345Z</time></trkpt><trkpt lat="43.2170639" lon="11.372057"><ele>239.60000000000002</ele><time>2026-05-02T09:47:54.342Z</time></trkpt><trkpt lat="43.2169646" lon="11.3720009"><ele>238.8</ele><time>2026-05-02T09:47:55.35Z</time></trkpt><trkpt lat="43.2168659" lon="11.3719432"><ele>238.0</ele><time>2026-05-02T09:47:56.333Z</time></trkpt><trkpt lat="43.2167631" lon="11.371891"><ele>238.0</ele><time>2026-05-02T09:47:57.35Z</time></trkpt><trkpt lat="43.2166574" lon="11.3718377"><ele>238.0</ele><time>2026-05-02T09:47:58.338Z</time></trkpt><trkpt lat="43.2165489" lon="11.3717887"><ele>238.0</ele><time>2026-05-02T09:47:59.344Z</time></trkpt><trkpt lat="43.2164355" lon="11.3717334"><ele>238.0</ele><time>2026-05-02T09:48:00.332Z</time></trkpt><trkpt lat="43.2163242" lon="11.3716732"><ele>239.5</ele><time>2026-05-02T09:48:01.342Z</time></trkpt><trkpt lat="43.2162127" lon="11.3716153"><ele>241.0</ele><time>2026-05-02T09:48:02.338Z</time></trkpt><trkpt lat="43.2160955" lon="11.3715539"><ele>242.5</ele><time>2026-05-02T09:48:03.334Z</time></trkpt><trkpt lat="43.2159758" lon="11.3714899"><ele>244.0</ele><time>2026-05-02T09:48:04.336Z</time></trkpt><trkpt lat="43.2158628" lon="11.3714222"><ele>243.0</ele><time>2026-05-02T09:48:05.345Z</time></trkpt><trkpt lat="43.2157581" lon="11.3713317"><ele>242.0</ele><time>2026-05-02T09:48:06.348Z</time></trkpt><trkpt lat="43.2156682" lon="11.3712221"><ele>241.0</ele><time>2026-05-02T09:48:07.351Z</time></trkpt><trkpt lat="43.2155786" lon="11.3711005"><ele>240.0</ele><time>2026-05-02T09:48:08.335Z</time></trkpt><trkpt lat="43.2154733" lon="11.3709936"><ele>240.0</ele><time>2026-05-02T09:48:09.339Z</time></trkpt><trkpt lat="43.2153602" lon="11.3708963"><ele>240.0</ele><time>2026-05-02T09:48:10.336Z</time></trkpt><trkpt lat="43.2152408" lon="11.3708014"><ele>240.0</ele><time>2026-05-02T09:48:11.345Z</time></trkpt><trkpt lat="43.2151233" lon="11.370736"><ele>240.0</ele><time>2026-05-02T09:48:12.337Z</time></trkpt><trkpt lat="43.2150071" lon="11.3706943"><ele>240.0</ele><time>2026-05-02T09:48:13.35Z</time></trkpt><trkpt lat="43.2148864" lon="11.3706819"><ele>240.0</ele><time>2026-05-02T09:48:14.336Z</time></trkpt><trkpt lat="43.2147777" lon="11.370695"><ele>240.0</ele><time>2026-05-02T09:48:15.342Z</time></trkpt><trkpt lat="43.2146544" lon="11.3707368"><ele>240.0</ele><time>2026-05-02T09:48:16.337Z</time></trkpt><trkpt lat="43.2145346" lon="11.3708076"><ele>237.0</ele><time>2026-05-02T09:48:17.337Z</time></trkpt><trkpt lat="43.2144099" lon="11.3708945"><ele>234.0</ele><time>2026-05-02T09:48:18.341Z</time></trkpt><trkpt lat="43.2142894" lon="11.3709753"><ele>231.0</ele><time>2026-05-02T09:48:19.329Z</time></trkpt><trkpt lat="43.2141668" lon="11.371053"><ele>228.0</ele><time>2026-05-02T09:48:20.34Z</time></trkpt><trkpt lat="43.2140492" lon="11.3711272"><ele>226.5</ele><time>2026-05-02T09:48:21.337Z</time></trkpt><trkpt lat="43.2139353" lon="11.3711968"><ele>225.0</ele><time>2026-05-02T09:48:22.332Z</time></trkpt><trkpt lat="43.2138287" lon="11.3712625"><ele>223.5</ele><time>2026-05-02T09:48:23.338Z</time></trkpt><trkpt lat="43.2137202" lon="11.3713187"><ele>222.0</ele><time>2026-05-02T09:48:24.331Z</time></trkpt><trkpt lat="43.2136115" lon="11.371365"><ele>222.0</ele><time>2026-05-02T09:48:25.341Z</time></trkpt><trkpt lat="43.2135018" lon="11.3713855"><ele>222.0</ele><time>2026-05-02T09:48:26.341Z</time></trkpt><trkpt lat="43.2133988" lon="11.3713649"><ele>222.0</ele><time>2026-05-02T09:48:27.35Z</time></trkpt><trkpt lat="43.213311" lon="11.3712906"><ele>222.0</ele><time>2026-05-02T09:48:28.341Z</time></trkpt><trkpt lat="43.2132336" lon="11.3711835"><ele>222.0</ele><time>2026-05-02T09:48:29.346Z</time></trkpt><trkpt lat="43.2131653" lon="11.3710587"><ele>222.0</ele><time>2026-05-02T09:48:30.344Z</time></trkpt><trkpt lat="43.2130971" lon="11.3709219"><ele>222.0</ele><time>2026-05-02T09:48:31.341Z</time></trkpt><trkpt lat="43.2130217" lon="11.3707706"><ele>222.0</ele><time>2026-05-02T09:48:32.365Z</time></trkpt><trkpt lat="43.2129477" lon="11.3706207"><ele>222.0</ele><time>2026-05-02T09:48:33.34Z</time></trkpt><trkpt lat="43.2128734" lon="11.3704717"><ele>223.25</ele><time>2026-05-02T09:48:34.35Z</time></trkpt><trkpt lat="43.2128024" lon="11.3703256"><ele>224.5</ele><time>2026-05-02T09:48:35.334Z</time></trkpt><trkpt lat="43.2127272" lon="11.370184"><ele>225.75</ele><time>2026-05-02T09:48:36.34Z</time></trkpt><trkpt lat="43.2126523" lon="11.3700382"><ele>227.0</ele><time>2026-05-02T09:48:37.346Z</time></trkpt><trkpt lat="43.2125765" lon="11.3699042"><ele>227.0</ele><time>2026-05-02T09:48:38.344Z</time></trkpt><trkpt lat="43.2124949" lon="11.369771"><ele>227.0</ele><time>2026-05-02T09:48:39.351Z</time></trkpt><trkpt lat="43.2124127" lon="11.3696447"><ele>227.0</ele><time>2026-05-02T09:48:40.348Z</time></trkpt><trkpt lat="43.2123279" lon="11.3695233"><ele>227.0</ele><time>2026-05-02T09:48:41.357Z</time></trkpt><trkpt lat="43.2122467" lon="11.3693937"><ele>228.39999999999998</ele><time>2026-05-02T09:48:42.339Z</time></trkpt><trkpt lat="43.2121665" lon="11.3692777"><ele>229.79999999999998</ele><time>2026-05-02T09:48:43.35Z</time></trkpt><trkpt lat="43.2120867" lon="11.3691874"><ele>231.2</ele><time>2026-05-02T09:48:44.355Z</time></trkpt><trkpt lat="43.2120091" lon="11.3691258"><ele>232.6</ele><time>2026-05-02T09:48:45.336Z</time></trkpt><trkpt lat="43.2119351" lon="11.3690628"><ele>234.0</ele><time>2026-05-02T09:48:46.344Z</time></trkpt><trkpt lat="43.2118546" lon="11.3690065"><ele>234.0</ele><time>2026-05-02T09:48:47.349Z</time></trkpt><trkpt lat="43.2117773" lon="11.3689565"><ele>234.0</ele><time>2026-05-02T09:48:48.347Z</time></trkpt><trkpt lat="43.2116951" lon="11.3689084"><ele>234.0</ele><time>2026-05-02T09:48:49.339Z</time></trkpt><trkpt lat="43.2116196" lon="11.368863"><ele>234.0</ele><time>2026-05-02T09:48:50.343Z</time></trkpt><trkpt lat="43.2115399" lon="11.3688188"><ele>234.0</ele><time>2026-05-02T09:48:51.342Z</time></trkpt><trkpt lat="43.2114541" lon="11.3687856"><ele>234.0</ele><time>2026-05-02T09:48:52.344Z</time></trkpt><trkpt lat="43.211369" lon="11.3687602"><ele>233.83333333333334</ele><time>2026-05-02T09:48:53.342Z</time></trkpt><trkpt lat="43.2112847" lon="11.3687346"><ele>233.66666666666669</ele><time>2026-05-02T09:48:54.36Z</time></trkpt><trkpt lat="43.2112055" lon="11.3687025"><ele>233.5</ele><time>2026-05-02T09:48:55.348Z</time></trkpt><trkpt lat="43.2111241" lon="11.3686707"><ele>233.33333333333334</ele><time>2026-05-02T09:48:56.347Z</time></trkpt><trkpt lat="43.2110348" lon="11.3686328"><ele>233.16666666666669</ele><time>2026-05-02T09:48:57.343Z</time></trkpt><trkpt lat="43.2109431" lon="11.3685991"><ele>233.0</ele><time>2026-05-02T09:48:58.345Z</time></trkpt><trkpt lat="43.2108489" lon="11.3685627"><ele>233.0</ele><time>2026-05-02T09:48:59.345Z</time></trkpt><trkpt lat="43.2107544" lon="11.3685287"><ele>233.0</ele><time>2026-05-02T09:49:00.345Z</time></trkpt><trkpt lat="43.2106601" lon="11.3684925"><ele>233.0</ele><time>2026-05-02T09:49:01.352Z</time></trkpt><trkpt lat="43.2105636" lon="11.3684594"><ele>233.0</ele><time>2026-05-02T09:49:02.336Z</time></trkpt><trkpt lat="43.2104663" lon="11.3684222"><ele>233.0</ele><time>2026-05-02T09:49:03.351Z</time></trkpt><trkpt lat="43.21037" lon="11.3683868"><ele>232.60000000000002</ele><time>2026-05-02T09:49:04.344Z</time></trkpt><trkpt lat="43.2102778" lon="11.3683492"><ele>232.20000000000002</ele><time>2026-05-02T09:49:05.334Z</time></trkpt><trkpt lat="43.2101908" lon="11.3683123"><ele>231.8</ele><time>2026-05-02T09:49:06.34Z</time></trkpt><trkpt lat="43.2101006" lon="11.3682763"><ele>231.4</ele><time>2026-05-02T09:49:07.342Z</time></trkpt><trkpt lat="43.2100071" lon="11.3682469"><ele>231.0</ele><time>2026-05-02T09:49:08.345Z</time></trkpt><trkpt lat="43.2099122" lon="11.3682277"><ele>233.8</ele><time>2026-05-02T09:49:09.347Z</time></trkpt><trkpt lat="43.2098238" lon="11.3682214"><ele>236.60000000000002</ele><time>2026-05-02T09:49:10.358Z</time></trkpt><trkpt lat="43.2097347" lon="11.3682398"><ele>239.4</ele><time>2026-05-02T09:49:11.334Z</time></trkpt><trkpt lat="43.2096502" lon="11.3682849"><ele>242.2</ele><time>2026-05-02T09:49:12.346Z</time></trkpt><trkpt lat="43.2095716" lon="11.368365"><ele>245.0</ele><time>2026-05-02T09:49:13.34Z</time></trkpt><trkpt lat="43.2094959" lon="11.3684668"><ele>245.0</ele><time>2026-05-02T09:49:14.338Z</time></trkpt><trkpt lat="43.2094172" lon="11.3685811"><ele>245.0</ele><time>2026-05-02T09:49:15.353Z</time></trkpt><trkpt lat="43.209334" lon="11.3687169"><ele>245.0</ele><time>2026-05-02T09:49:16.344Z</time></trkpt><trkpt lat="43.2092429" lon="11.3688509"><ele>245.0</ele><time>2026-05-02T09:49:17.339Z</time></trkpt><trkpt lat="43.2091535" lon="11.3689847"><ele>243.0</ele><time>2026-05-02T09:49:18.352Z</time></trkpt><trkpt lat="43.2090549" lon="11.3691172"><ele>241.0</ele><time>2026-05-02T09:49:19.334Z</time></trkpt><trkpt lat="43.2089478" lon="11.3692597"><ele>239.0</ele><time>2026-05-02T09:49:20.343Z</time></trkpt><trkpt lat="43.208828" lon="11.3694291"><ele>243.66666666666669</ele><time>2026-05-02T09:49:21.354Z</time></trkpt><trkpt lat="43.2087016" lon="11.3696098"><ele>248.33333333333331</ele><time>2026-05-02T09:49:22.338Z</time></trkpt><trkpt lat="43.2085633" lon="11.3698012"><ele>253.0</ele><time>2026-05-02T09:49:23.349Z</time></trkpt><trkpt lat="43.2084168" lon="11.3700011"><ele>253.0</ele><time>2026-05-02T09:49:24.336Z</time></trkpt><trkpt lat="43.2082636" lon="11.3702034"><ele>253.0</ele><time>2026-05-02T09:49:25.347Z</time></trkpt><trkpt lat="43.208094" lon="11.3704353"><ele>261.5</ele><time>2026-05-02T09:49:26.338Z</time></trkpt><trkpt lat="43.2079203" lon="11.3706758"><ele>270.0</ele><time>2026-05-02T09:49:27.324Z</time></trkpt><trkpt lat="43.207751" lon="11.3709137"><ele>270.0</ele><time>2026-05-02T09:49:28.352Z</time></trkpt><trkpt lat="43.2075951" lon="11.3711322"><ele>270.0</ele><time>2026-05-02T09:49:29.343Z</time></trkpt><trkpt lat="43.207453" lon="11.3713142"><ele>270.0</ele><time>2026-05-02T09:49:30.346Z</time></trkpt><trkpt lat="43.2073323" lon="11.371469"><ele>274.25</ele><time>2026-05-02T09:49:31.343Z</time></trkpt><trkpt lat="43.2072257" lon="11.371606"><ele>278.5</ele><time>2026-05-02T09:49:32.344Z</time></trkpt><trkpt lat="43.2071439" lon="11.371756"><ele>282.75</ele><time>2026-05-02T09:49:33.347Z</time></trkpt><trkpt lat="43.2070723" lon="11.3719178"><ele>287.0</ele><time>2026-05-02T09:49:34.345Z</time></trkpt><trkpt lat="43.2069909" lon="11.3720758"><ele>283.0</ele><time>2026-05-02T09:49:35.342Z</time></trkpt><trkpt lat="43.206909" lon="11.3722366"><ele>279.0</ele><time>2026-05-02T09:49:36.336Z</time></trkpt><trkpt lat="43.2068254" lon="11.3723947"><ele>275.0</ele><time>2026-05-02T09:49:37.345Z</time></trkpt><trkpt lat="43.2067358" lon="11.3725363"><ele>271.0</ele><time>2026-05-02T09:49:38.334Z</time></trkpt><trkpt lat="43.2066401" lon="11.3726563"><ele>271.0</ele><time>2026-05-02T09:49:39.345Z</time></trkpt><trkpt lat="43.2065407" lon="11.3727629"><ele>271.0</ele><time>2026-05-02T09:49:40.34Z</time></trkpt><trkpt lat="43.2064334" lon="11.3728682"><ele>271.0</ele><time>2026-05-02T09:49:41.337Z</time></trkpt><trkpt lat="43.206314" lon="11.3729541"><ele>271.0</ele><time>2026-05-02T09:49:42.333Z</time></trkpt><trkpt lat="43.2061937" lon="11.3730359"><ele>270.0</ele><time>2026-05-02T09:49:43.344Z</time></trkpt><trkpt lat="43.2060743" lon="11.3731265"><ele>269.0</ele><time>2026-05-02T09:49:44.346Z</time></trkpt><trkpt lat="43.2059591" lon="11.3732126"><ele>268.0</ele><time>2026-05-02T09:49:45.332Z</time></trkpt><trkpt lat="43.2058483" lon="11.3732975"><ele>267.0</ele><time>2026-05-02T09:49:46.346Z</time></trkpt><trkpt lat="43.2057395" lon="11.3733897"><ele>267.2</ele><time>2026-05-02T09:49:47.345Z</time></trkpt><trkpt lat="43.2056372" lon="11.3734693"><ele>267.4</ele><time>2026-05-02T09:49:48.349Z</time></trkpt><trkpt lat="43.2055663" lon="11.3735415"><ele>267.6</ele><time>2026-05-02T09:49:49.337Z</time></trkpt><trkpt lat="43.2054914" lon="11.3736176"><ele>267.8</ele><time>2026-05-02T09:49:50.342Z</time></trkpt><trkpt lat="43.2054164" lon="11.3736864"><ele>268.0</ele><time>2026-05-02T09:49:51.343Z</time></trkpt><trkpt lat="43.2053447" lon="11.3737336"><ele>268.0</ele><time>2026-05-02T09:49:52.334Z</time></trkpt><trkpt lat="43.2052628" lon="11.3737663"><ele>268.0</ele><time>2026-05-02T09:49:53.344Z</time></trkpt><trkpt lat="43.2051787" lon="11.3737695"><ele>268.0</ele><time>2026-05-02T09:49:54.333Z</time></trkpt><trkpt lat="43.20509" lon="11.3737672"><ele>268.0</ele><time>2026-05-02T09:49:55.34Z</time></trkpt><trkpt lat="43.2049809" lon="11.3737549"><ele>268.0</ele><time>2026-05-02T09:49:56.363Z</time></trkpt><trkpt lat="43.2048553" lon="11.3737568"><ele>267.75</ele><time>2026-05-02T09:49:57.339Z</time></trkpt><trkpt lat="43.2047219" lon="11.3737689"><ele>267.5</ele><time>2026-05-02T09:49:58.337Z</time></trkpt><trkpt lat="43.2045856" lon="11.3738002"><ele>267.25</ele><time>2026-05-02T09:49:59.333Z</time></trkpt><trkpt lat="43.204447" lon="11.3738474"><ele>267.0</ele><time>2026-05-02T09:50:00.344Z</time></trkpt><trkpt lat="43.2043069" lon="11.3738881"><ele>264.75</ele><time>2026-05-02T09:50:01.336Z</time></trkpt><trkpt lat="43.2041826" lon="11.3739354"><ele>262.5</ele><time>2026-05-02T09:50:02.344Z</time></trkpt><trkpt lat="43.2040685" lon="11.373968"><ele>260.25</ele><time>2026-05-02T09:50:03.349Z</time></trkpt><trkpt lat="43.2039673" lon="11.3740017"><ele>258.0</ele><time>2026-05-02T09:50:04.349Z</time></trkpt><trkpt lat="43.2038697" lon="11.3740384"><ele>258.0</ele><time>2026-05-02T09:50:05.331Z</time></trkpt><trkpt lat="43.2037719" lon="11.374088"><ele>258.0</ele><time>2026-05-02T09:50:06.332Z</time></trkpt><trkpt lat="43.2036683" lon="11.3741514"><ele>258.0</ele><time>2026-05-02T09:50:07.348Z</time></trkpt><trkpt lat="43.2035606" lon="11.3742424"><ele>258.0</ele><time>2026-05-02T09:50:08.344Z</time></trkpt><trkpt lat="43.2034526" lon="11.3743385"><ele>258.0</ele><time>2026-05-02T09:50:09.338Z</time></trkpt><trkpt lat="43.2033485" lon="11.3744176"><ele>258.0</ele><time>2026-05-02T09:50:10.34Z</time></trkpt><trkpt lat="43.2032267" lon="11.3744832"><ele>258.0</ele><time>2026-05-02T09:50:11.35Z</time></trkpt><trkpt lat="43.2030983" lon="11.3745206"><ele>258.0</ele><time>2026-05-02T09:50:12.352Z</time></trkpt><trkpt lat="43.2029695" lon="11.374553"><ele>260.3333333333333</ele><time>2026-05-02T09:50:13.345Z</time></trkpt><trkpt lat="43.2028297" lon="11.3745887"><ele>262.66666666666663</ele><time>2026-05-02T09:50:14.343Z</time></trkpt><trkpt lat="43.2026782" lon="11.3746159"><ele>265.0</ele><time>2026-05-02T09:50:15.343Z</time></trkpt><trkpt lat="43.2025005" lon="11.3746522"><ele>265.3333333333333</ele><time>2026-05-02T09:50:16.336Z</time></trkpt><trkpt lat="43.2023157" lon="11.3747038"><ele>265.6666666666667</ele><time>2026-05-02T09:50:17.342Z</time></trkpt><trkpt lat="43.2021417" lon="11.3747537"><ele>266.0</ele><time>2026-05-02T09:50:18.334Z</time></trkpt><trkpt lat="43.201991" lon="11.3748053"><ele>266.0</ele><time>2026-05-02T09:50:19.342Z</time></trkpt><trkpt lat="43.2018555" lon="11.3748496"><ele>266.0</ele><time>2026-05-02T09:50:20.344Z</time></trkpt><trkpt lat="43.2017243" lon="11.3749153"><ele>266.0</ele><time>2026-05-02T09:50:21.351Z</time></trkpt><trkpt lat="43.2015978" lon="11.3749997"><ele>266.0</ele><time>2026-05-02T09:50:22.343Z</time></trkpt><trkpt lat="43.2014847" lon="11.3750856"><ele>267.25</ele><time>2026-05-02T09:50:23.339Z</time></trkpt><trkpt lat="43.2013746" lon="11.3751655"><ele>268.5</ele><time>2026-05-02T09:50:24.339Z</time></trkpt><trkpt lat="43.201266" lon="11.3752407"><ele>269.75</ele><time>2026-05-02T09:50:25.335Z</time></trkpt><trkpt lat="43.2011647" lon="11.3753051"><ele>271.0</ele><time>2026-05-02T09:50:26.348Z</time></trkpt><trkpt lat="43.2010717" lon="11.3753473"><ele>271.0</ele><time>2026-05-02T09:50:27.341Z</time></trkpt><trkpt lat="43.2009928" lon="11.3753618"><ele>271.0</ele><time>2026-05-02T09:50:28.35Z</time></trkpt><trkpt lat="43.2009099" lon="11.3753362"><ele>271.0</ele><time>2026-05-02T09:50:29.357Z</time></trkpt><trkpt lat="43.2008167" lon="11.3752994"><ele>271.0</ele><time>2026-05-02T09:50:30.34Z</time></trkpt><trkpt lat="43.2007172" lon="11.3752537"><ele>271.0</ele><time>2026-05-02T09:50:31.343Z</time></trkpt><trkpt lat="43.2006249" lon="11.3751867"><ele>268.5</ele><time>2026-05-02T09:50:32.354Z</time></trkpt><trkpt lat="43.2005283" lon="11.3751278"><ele>266.0</ele><time>2026-05-02T09:50:33.342Z</time></trkpt><trkpt lat="43.200439" lon="11.3750656"><ele>263.5</ele><time>2026-05-02T09:50:34.342Z</time></trkpt><trkpt lat="43.2003626" lon="11.375023"><ele>261.0</ele><time>2026-05-02T09:50:35.342Z</time></trkpt><trkpt lat="43.200288" lon="11.3749909"><ele>258.5</ele><time>2026-05-02T09:50:36.345Z</time></trkpt><trkpt lat="43.200218" lon="11.3749754"><ele>256.0</ele><time>2026-05-02T09:50:37.348Z</time></trkpt><trkpt lat="43.2001529" lon="11.3749832"><ele>255.99999999999997</ele><time>2026-05-02T09:50:38.343Z</time></trkpt><trkpt lat="43.200085" lon="11.3750157"><ele>256.0</ele><time>2026-05-02T09:50:39.356Z</time></trkpt><trkpt lat="43.2000239" lon="11.375083"><ele>256.0</ele><time>2026-05-02T09:50:40.348Z</time></trkpt><trkpt lat="43.1999784" lon="11.3751742"><ele>256.0</ele><time>2026-05-02T09:50:41.336Z</time></trkpt><trkpt lat="43.1999238" lon="11.3752863"><ele>255.99999999999997</ele><time>2026-05-02T09:50:42.346Z</time></trkpt><trkpt lat="43.1998674" lon="11.3753959"><ele>256.0</ele><time>2026-05-02T09:50:43.348Z</time></trkpt><trkpt lat="43.1998002" lon="11.3755035"><ele>253.0</ele><time>2026-05-02T09:50:44.35Z</time></trkpt><trkpt lat="43.1997221" lon="11.3756074"><ele>250.0</ele><time>2026-05-02T09:50:45.351Z</time></trkpt><trkpt lat="43.1996351" lon="11.3757082"><ele>247.0</ele><time>2026-05-02T09:50:46.347Z</time></trkpt><trkpt lat="43.1995439" lon="11.3758234"><ele>244.0</ele><time>2026-05-02T09:50:47.348Z</time></trkpt><trkpt lat="43.1994449" lon="11.3759357"><ele>244.0</ele><time>2026-05-02T09:50:48.337Z</time></trkpt><trkpt lat="43.199343" lon="11.3760408"><ele>244.0</ele><time>2026-05-02T09:50:49.347Z</time></trkpt><trkpt lat="43.1992296" lon="11.3761295"><ele>244.0</ele><time>2026-05-02T09:50:50.364Z</time></trkpt><trkpt lat="43.1991027" lon="11.3761806"><ele>244.0</ele><time>2026-05-02T09:50:51.33Z</time></trkpt><trkpt lat="43.1989681" lon="11.3762127"><ele>243.0</ele><time>2026-05-02T09:50:52.345Z</time></trkpt><trkpt lat="43.198822" lon="11.3762352"><ele>242.0</ele><time>2026-05-02T09:50:53.331Z</time></trkpt><trkpt lat="43.1986827" lon="11.376275"><ele>241.0</ele><time>2026-05-02T09:50:54.344Z</time></trkpt><trkpt lat="43.1985459" lon="11.376328"><ele>240.0</ele><time>2026-05-02T09:50:55.342Z</time></trkpt><trkpt lat="43.19842" lon="11.3763907"><ele>240.0</ele><time>2026-05-02T09:50:56.343Z</time></trkpt><trkpt lat="43.1983028" lon="11.376489"><ele>240.0</ele><time>2026-05-02T09:50:57.342Z</time></trkpt><trkpt lat="43.1981952" lon="11.3766001"><ele>240.0</ele><time>2026-05-02T09:50:58.354Z</time></trkpt><trkpt lat="43.1980761" lon="11.3767262"><ele>240.0</ele><time>2026-05-02T09:50:59.355Z</time></trkpt><trkpt lat="43.1979455" lon="11.3768611"><ele>240.0</ele><time>2026-05-02T09:51:00.343Z</time></trkpt><trkpt lat="43.1978057" lon="11.3769869"><ele>240.0</ele><time>2026-05-02T09:51:01.355Z</time></trkpt><trkpt lat="43.1976594" lon="11.3771033"><ele>240.0</ele><time>2026-05-02T09:51:02.353Z</time></trkpt><trkpt lat="43.1975075" lon="11.3772161"><ele>240.0</ele><time>2026-05-02T09:51:03.339Z</time></trkpt><trkpt lat="43.1973522" lon="11.3773165"><ele>240.0</ele><time>2026-05-02T09:51:04.354Z</time></trkpt><trkpt lat="43.1971929" lon="11.3774238"><ele>240.0</ele><time>2026-05-02T09:51:05.334Z</time></trkpt><trkpt lat="43.1970237" lon="11.3775357"><ele>237.33333333333331</ele><time>2026-05-02T09:51:06.355Z</time></trkpt><trkpt lat="43.1968478" lon="11.3776555"><ele>234.66666666666666</ele><time>2026-05-02T09:51:07.334Z</time></trkpt><trkpt lat="43.196675" lon="11.377777"><ele>232.0</ele><time>2026-05-02T09:51:08.342Z</time></trkpt><trkpt lat="43.196516" lon="11.3778987"><ele>231.33333333333331</ele><time>2026-05-02T09:51:09.351Z</time></trkpt><trkpt lat="43.1963654" lon="11.3780058"><ele>230.66666666666669</ele><time>2026-05-02T09:51:10.35Z</time></trkpt><trkpt lat="43.1962285" lon="11.3780989"><ele>230.0</ele><time>2026-05-02T09:51:11.338Z</time></trkpt><trkpt lat="43.1960916" lon="11.3781808"><ele>230.0</ele><time>2026-05-02T09:51:12.347Z</time></trkpt><trkpt lat="43.1959479" lon="11.3782586"><ele>230.0</ele><time>2026-05-02T09:51:13.349Z</time></trkpt><trkpt lat="43.1958016" lon="11.378327"><ele>230.0</ele><time>2026-05-02T09:51:14.351Z</time></trkpt><trkpt lat="43.1956563" lon="11.3783944"><ele>230.0</ele><time>2026-05-02T09:51:15.345Z</time></trkpt><trkpt lat="43.1955246" lon="11.3784545"><ele>230.0</ele><time>2026-05-02T09:51:16.354Z</time></trkpt><trkpt lat="43.1954032" lon="11.3785201"><ele>230.0</ele><time>2026-05-02T09:51:17.345Z</time></trkpt><trkpt lat="43.1952898" lon="11.3786097"><ele>230.0</ele><time>2026-05-02T09:51:18.349Z</time></trkpt><trkpt lat="43.1951703" lon="11.378721"><ele>231.0</ele><time>2026-05-02T09:51:19.341Z</time></trkpt><trkpt lat="43.1950548" lon="11.3788593"><ele>232.0</ele><time>2026-05-02T09:51:20.347Z</time></trkpt><trkpt lat="43.194942" lon="11.3790229"><ele>233.0</ele><time>2026-05-02T09:51:21.341Z</time></trkpt><trkpt lat="43.1948464" lon="11.3791878"><ele>231.0</ele><time>2026-05-02T09:51:22.341Z</time></trkpt><trkpt lat="43.1947683" lon="11.3793536"><ele>229.0</ele><time>2026-05-02T09:51:23.358Z</time></trkpt><trkpt lat="43.1947" lon="11.3795385"><ele>227.0</ele><time>2026-05-02T09:51:24.334Z</time></trkpt><trkpt lat="43.1946435" lon="11.3797396"><ele>227.0</ele><time>2026-05-02T09:51:25.353Z</time></trkpt><trkpt lat="43.1945922" lon="11.3799591"><ele>227.0</ele><time>2026-05-02T09:51:26.348Z</time></trkpt><trkpt lat="43.1945626" lon="11.3801843"><ele>227.0</ele><time>2026-05-02T09:51:27.345Z</time></trkpt><trkpt lat="43.1945425" lon="11.380409"><ele>227.33333333333334</ele><time>2026-05-02T09:51:28.349Z</time></trkpt><trkpt lat="43.1945233" lon="11.3806264"><ele>227.66666666666669</ele><time>2026-05-02T09:51:29.355Z</time></trkpt><trkpt lat="43.1944901" lon="11.3808446"><ele>228.0</ele><time>2026-05-02T09:51:30.334Z</time></trkpt><trkpt lat="43.1944299" lon="11.3810639"><ele>228.0</ele><time>2026-05-02T09:51:31.345Z</time></trkpt><trkpt lat="43.1943611" lon="11.381283"><ele>228.0</ele><time>2026-05-02T09:51:32.341Z</time></trkpt><trkpt lat="43.1942853" lon="11.3814966"><ele>228.0</ele><time>2026-05-02T09:51:33.338Z</time></trkpt><trkpt lat="43.1942022" lon="11.3817189"><ele>228.0</ele><time>2026-05-02T09:51:34.347Z</time></trkpt><trkpt lat="43.1941201" lon="11.3819478"><ele>228.0</ele><time>2026-05-02T09:51:35.354Z</time></trkpt><trkpt lat="43.1940413" lon="11.3821635"><ele>228.0</ele><time>2026-05-02T09:51:36.346Z</time></trkpt><trkpt lat="43.1939664" lon="11.3823978"><ele>225.66666666666669</ele><time>2026-05-02T09:51:37.343Z</time></trkpt><trkpt lat="43.1938906" lon="11.3826227"><ele>223.33333333333334</ele><time>2026-05-02T09:51:38.33Z</time></trkpt><trkpt lat="43.1938215" lon="11.3828236"><ele>221.0</ele><time>2026-05-02T09:51:39.353Z</time></trkpt><trkpt lat="43.193758" lon="11.3830005"><ele>222.25</ele><time>2026-05-02T09:51:40.353Z</time></trkpt><trkpt lat="43.1936939" lon="11.3831502"><ele>223.5</ele><time>2026-05-02T09:51:41.355Z</time></trkpt><trkpt lat="43.193612" lon="11.3832785"><ele>224.75</ele><time>2026-05-02T09:51:42.342Z</time></trkpt><trkpt lat="43.1935107" lon="11.3833986"><ele>226.0</ele><time>2026-05-02T09:51:43.358Z</time></trkpt><trkpt lat="43.1933958" lon="11.3834815"><ele>226.0</ele><time>2026-05-02T09:51:44.331Z</time></trkpt><trkpt lat="43.1932701" lon="11.3835321"><ele>226.0</ele><time>2026-05-02T09:51:45.347Z</time></trkpt><trkpt lat="43.1931309" lon="11.3835986"><ele>226.0</ele><time>2026-05-02T09:51:46.347Z</time></trkpt><trkpt lat="43.1929804" lon="11.3836664"><ele>226.0</ele><time>2026-05-02T09:51:47.34Z</time></trkpt><trkpt lat="43.1928312" lon="11.3837381"><ele>225.75</ele><time>2026-05-02T09:51:48.343Z</time></trkpt><trkpt lat="43.1926891" lon="11.3838081"><ele>225.5</ele><time>2026-05-02T09:51:49.35Z</time></trkpt><trkpt lat="43.1925567" lon="11.3838621"><ele>225.25</ele><time>2026-05-02T09:51:50.349Z</time></trkpt><trkpt lat="43.1924241" lon="11.38391"><ele>225.0</ele><time>2026-05-02T09:51:51.342Z</time></trkpt><trkpt lat="43.1922827" lon="11.3839337"><ele>225.0</ele><time>2026-05-02T09:51:52.367Z</time></trkpt><trkpt lat="43.1921384" lon="11.3839385"><ele>225.0</ele><time>2026-05-02T09:51:53.341Z</time></trkpt><trkpt lat="43.1920079" lon="11.383933"><ele>225.0</ele><time>2026-05-02T09:51:54.332Z</time></trkpt><trkpt lat="43.1918975" lon="11.383946"><ele>225.0</ele><time>2026-05-02T09:51:55.365Z</time></trkpt><trkpt lat="43.1917939" lon="11.3839965"><ele>225.0</ele><time>2026-05-02T09:51:56.345Z</time></trkpt><trkpt lat="43.1916731" lon="11.3840839"><ele>225.0</ele><time>2026-05-02T09:51:57.352Z</time></trkpt><trkpt lat="43.1915629" lon="11.3842045"><ele>225.0</ele><time>2026-05-02T09:51:58.339Z</time></trkpt><trkpt lat="43.1914647" lon="11.3843469"><ele>225.0</ele><time>2026-05-02T09:51:59.336Z</time></trkpt><trkpt lat="43.1913757" lon="11.3845031"><ele>226.0</ele><time>2026-05-02T09:52:00.347Z</time></trkpt><trkpt lat="43.1912625" lon="11.3846607"><ele>227.0</ele><time>2026-05-02T09:52:01.345Z</time></trkpt><trkpt lat="43.1911601" lon="11.3848113"><ele>228.0</ele><time>2026-05-02T09:52:02.336Z</time></trkpt><trkpt lat="43.1910504" lon="11.3849381"><ele>228.0</ele><time>2026-05-02T09:52:03.333Z</time></trkpt><trkpt lat="43.1909292" lon="11.3850595"><ele>228.0</ele><time>2026-05-02T09:52:04.338Z</time></trkpt><trkpt lat="43.1908074" lon="11.3851689"><ele>228.0</ele><time>2026-05-02T09:52:05.352Z</time></trkpt><trkpt lat="43.1906854" lon="11.3852671"><ele>228.0</ele><time>2026-05-02T09:52:06.343Z</time></trkpt><trkpt lat="43.1905547" lon="11.385363"><ele>229.0</ele><time>2026-05-02T09:52:07.342Z</time></trkpt><trkpt lat="43.1904112" lon="11.3854516"><ele>230.0</ele><time>2026-05-02T09:52:08.348Z</time></trkpt><trkpt lat="43.1902739" lon="11.3855169"><ele>231.0</ele><time>2026-05-02T09:52:09.348Z</time></trkpt><trkpt lat="43.1901345" lon="11.385564"><ele>232.0</ele><time>2026-05-02T09:52:10.346Z</time></trkpt><trkpt lat="43.1899997" lon="11.3855964"><ele>228.66666666666666</ele><time>2026-05-02T09:52:11.343Z</time></trkpt><trkpt lat="43.1898507" lon="11.3856248"><ele>225.33333333333331</ele><time>2026-05-02T09:52:12.369Z</time></trkpt><trkpt lat="43.1896978" lon="11.3856593"><ele>222.0</ele><time>2026-05-02T09:52:13.329Z</time></trkpt><trkpt lat="43.1895208" lon="11.3857012"><ele>221.0</ele><time>2026-05-02T09:52:14.335Z</time></trkpt><trkpt lat="43.1893373" lon="11.3857476"><ele>220.0</ele><time>2026-05-02T09:52:15.348Z</time></trkpt><trkpt lat="43.1891653" lon="11.385805"><ele>219.0</ele><time>2026-05-02T09:52:16.331Z</time></trkpt><trkpt lat="43.1890034" lon="11.385865"><ele>220.75</ele><time>2026-05-02T09:52:17.336Z</time></trkpt><trkpt lat="43.1888576" lon="11.3859043"><ele>222.5</ele><time>2026-05-02T09:52:18.359Z</time></trkpt><trkpt lat="43.1887158" lon="11.3859252"><ele>224.25</ele><time>2026-05-02T09:52:19.352Z</time></trkpt><trkpt lat="43.1885836" lon="11.385912"><ele>226.0</ele><time>2026-05-02T09:52:20.34Z</time></trkpt><trkpt lat="43.1884538" lon="11.3858593"><ele>226.0</ele><time>2026-05-02T09:52:21.341Z</time></trkpt><trkpt lat="43.188333" lon="11.3857745"><ele>226.0</ele><time>2026-05-02T09:52:22.337Z</time></trkpt><trkpt lat="43.1882145" lon="11.3856696"><ele>226.0</ele><time>2026-05-02T09:52:23.342Z</time></trkpt><trkpt lat="43.1880855" lon="11.3855606"><ele>226.0</ele><time>2026-05-02T09:52:24.355Z</time></trkpt><trkpt lat="43.1879422" lon="11.3854696"><ele>230.66666666666666</ele><time>2026-05-02T09:52:25.336Z</time></trkpt><trkpt lat="43.1877876" lon="11.3853966"><ele>235.33333333333331</ele><time>2026-05-02T09:52:26.352Z</time></trkpt><trkpt lat="43.18763" lon="11.3853293"><ele>240.0</ele><time>2026-05-02T09:52:27.334Z</time></trkpt><trkpt lat="43.1875069" lon="11.3852881"><ele>240.0</ele><time>2026-05-02T09:52:28.344Z</time></trkpt><trkpt lat="43.1874041" lon="11.3852643"><ele>240.0</ele><time>2026-05-02T09:52:29.352Z</time></trkpt><trkpt lat="43.1872982" lon="11.385251"><ele>240.0</ele><time>2026-05-02T09:52:30.337Z</time></trkpt><trkpt lat="43.1871851" lon="11.3852653"><ele>240.0</ele><time>2026-05-02T09:52:31.34Z</time></trkpt><trkpt lat="43.1870665" lon="11.3852823"><ele>240.0</ele><time>2026-05-02T09:52:32.343Z</time></trkpt><trkpt lat="43.1869524" lon="11.3853096"><ele>241.6</ele><time>2026-05-02T09:52:33.345Z</time></trkpt><trkpt lat="43.1868457" lon="11.3853351"><ele>243.2</ele><time>2026-05-02T09:52:34.336Z</time></trkpt><trkpt lat="43.18675" lon="11.3853558"><ele>244.8</ele><time>2026-05-02T09:52:35.328Z</time></trkpt><trkpt lat="43.1866614" lon="11.3853851"><ele>246.4</ele><time>2026-05-02T09:52:36.351Z</time></trkpt><trkpt lat="43.1865789" lon="11.3854039"><ele>248.0</ele><time>2026-05-02T09:52:37.337Z</time></trkpt><trkpt lat="43.186492" lon="11.3854232"><ele>249.33333333333334</ele><time>2026-05-02T09:52:38.333Z</time></trkpt><trkpt lat="43.1864076" lon="11.3854368"><ele>250.66666666666669</ele><time>2026-05-02T09:52:39.351Z</time></trkpt><trkpt lat="43.1863247" lon="11.3854371"><ele>252.0</ele><time>2026-05-02T09:52:40.328Z</time></trkpt><trkpt lat="43.1862391" lon="11.3854376"><ele>253.33333333333331</ele><time>2026-05-02T09:52:41.34Z</time></trkpt><trkpt lat="43.1861565" lon="11.3854332"><ele>254.66666666666666</ele><time>2026-05-02T09:52:42.341Z</time></trkpt><trkpt lat="43.1860708" lon="11.3854267"><ele>256.0</ele><time>2026-05-02T09:52:43.338Z</time></trkpt><trkpt lat="43.1859808" lon="11.38543"><ele>256.0</ele><time>2026-05-02T09:52:44.341Z</time></trkpt><trkpt lat="43.1858865" lon="11.3854348"><ele>256.0</ele><time>2026-05-02T09:52:45.347Z</time></trkpt><trkpt lat="43.1857838" lon="11.385437"><ele>256.0</ele><time>2026-05-02T09:52:46.335Z</time></trkpt><trkpt lat="43.185676" lon="11.3854368"><ele>256.0</ele><time>2026-05-02T09:52:47.342Z</time></trkpt><trkpt lat="43.1855693" lon="11.3854174"><ele>256.0</ele><time>2026-05-02T09:52:48.347Z</time></trkpt><trkpt lat="43.1854626" lon="11.3853801"><ele>258.2</ele><time>2026-05-02T09:52:49.336Z</time></trkpt><trkpt lat="43.1853759" lon="11.3853066"><ele>260.40000000000003</ele><time>2026-05-02T09:52:50.339Z</time></trkpt><trkpt lat="43.1852972" lon="11.3852252"><ele>262.6</ele><time>2026-05-02T09:52:51.346Z</time></trkpt><trkpt lat="43.1852204" lon="11.3851327"><ele>264.8</ele><time>2026-05-02T09:52:52.344Z</time></trkpt><trkpt lat="43.1851469" lon="11.3850311"><ele>267.0</ele><time>2026-05-02T09:52:53.342Z</time></trkpt><trkpt lat="43.1850713" lon="11.3849161"><ele>267.0</ele><time>2026-05-02T09:52:54.357Z</time></trkpt><trkpt lat="43.1849842" lon="11.3847942"><ele>267.0</ele><time>2026-05-02T09:52:55.34Z</time></trkpt><trkpt lat="43.1849046" lon="11.3846736"><ele>267.0</ele><time>2026-05-02T09:52:56.335Z</time></trkpt><trkpt lat="43.1848303" lon="11.384574"><ele>267.0</ele><time>2026-05-02T09:52:57.349Z</time></trkpt><trkpt lat="43.1847552" lon="11.3844883"><ele>267.0</ele><time>2026-05-02T09:52:58.336Z</time></trkpt><trkpt lat="43.1846844" lon="11.3844103"><ele>268.6</ele><time>2026-05-02T09:52:59.354Z</time></trkpt><trkpt lat="43.1846088" lon="11.3843368"><ele>270.2</ele><time>2026-05-02T09:53:00.343Z</time></trkpt><trkpt lat="43.1845337" lon="11.3842694"><ele>271.8</ele><time>2026-05-02T09:53:01.346Z</time></trkpt><trkpt lat="43.1844619" lon="11.3841975"><ele>273.4</ele><time>2026-05-02T09:53:02.341Z</time></trkpt><trkpt lat="43.1843886" lon="11.3841237"><ele>275.0</ele><time>2026-05-02T09:53:03.345Z</time></trkpt><trkpt lat="43.1843043" lon="11.3840538"><ele>275.0</ele><time>2026-05-02T09:53:04.35Z</time></trkpt><trkpt lat="43.1842141" lon="11.3839851"><ele>275.0</ele><time>2026-05-02T09:53:05.354Z</time></trkpt><trkpt lat="43.1841127" lon="11.3839257"><ele>275.0</ele><time>2026-05-02T09:53:06.359Z</time></trkpt><trkpt lat="43.1840041" lon="11.3838758"><ele>275.0</ele><time>2026-05-02T09:53:07.351Z</time></trkpt><trkpt lat="43.1838842" lon="11.3838276"><ele>274.75</ele><time>2026-05-02T09:53:08.338Z</time></trkpt><trkpt lat="43.1837578" lon="11.383773"><ele>274.5</ele><time>2026-05-02T09:53:09.343Z</time></trkpt><trkpt lat="43.1836271" lon="11.3837206"><ele>274.25</ele><time>2026-05-02T09:53:10.34Z</time></trkpt><trkpt lat="43.1834928" lon="11.3836712"><ele>274.0</ele><time>2026-05-02T09:53:11.356Z</time></trkpt><trkpt lat="43.1833566" lon="11.383617"><ele>274.0</ele><time>2026-05-02T09:53:12.339Z</time></trkpt><trkpt lat="43.1832151" lon="11.3835599"><ele>274.0</ele><time>2026-05-02T09:53:13.353Z</time></trkpt><trkpt lat="43.1830684" lon="11.3834987"><ele>274.0</ele><time>2026-05-02T09:53:14.36Z</time></trkpt><trkpt lat="43.1829309" lon="11.3834324"><ele>274.0</ele><time>2026-05-02T09:53:15.337Z</time></trkpt><trkpt lat="43.1827994" lon="11.3833729"><ele>273.25</ele><time>2026-05-02T09:53:16.34Z</time></trkpt><trkpt lat="43.1826633" lon="11.3833098"><ele>272.5</ele><time>2026-05-02T09:53:17.332Z</time></trkpt><trkpt lat="43.1825326" lon="11.3832408"><ele>271.75</ele><time>2026-05-02T09:53:18.331Z</time></trkpt><trkpt lat="43.182398" lon="11.3831807"><ele>271.0</ele><time>2026-05-02T09:53:19.34Z</time></trkpt><trkpt lat="43.1822531" lon="11.3831311"><ele>270.3333333333333</ele><time>2026-05-02T09:53:20.336Z</time></trkpt><trkpt lat="43.1820997" lon="11.383093"><ele>269.6666666666667</ele><time>2026-05-02T09:53:21.34Z</time></trkpt><trkpt lat="43.1819418" lon="11.3830552"><ele>269.0</ele><time>2026-05-02T09:53:22.351Z</time></trkpt><trkpt lat="43.1817975" lon="11.3830272"><ele>268.25</ele><time>2026-05-02T09:53:23.331Z</time></trkpt><trkpt lat="43.1816714" lon="11.3829983"><ele>267.5</ele><time>2026-05-02T09:53:24.344Z</time></trkpt><trkpt lat="43.1815574" lon="11.3829684"><ele>266.75</ele><time>2026-05-02T09:53:25.338Z</time></trkpt><trkpt lat="43.1814494" lon="11.3829505"><ele>266.0</ele><time>2026-05-02T09:53:26.351Z</time></trkpt><trkpt lat="43.1813387" lon="11.3829223"><ele>266.0</ele><time>2026-05-02T09:53:27.343Z</time></trkpt><trkpt lat="43.1812345" lon="11.3828791"><ele>266.0</ele><time>2026-05-02T09:53:28.344Z</time></trkpt><trkpt lat="43.1811397" lon="11.3828324"><ele>266.0</ele><time>2026-05-02T09:53:29.344Z</time></trkpt><trkpt lat="43.1810587" lon="11.3827841"><ele>266.0</ele><time>2026-05-02T09:53:30.342Z</time></trkpt><trkpt lat="43.1809964" lon="11.3827414"><ele>266.0</ele><time>2026-05-02T09:53:31.336Z</time></trkpt><trkpt lat="43.1809086" lon="11.3826932"><ele>266.0</ele><time>2026-05-02T09:53:33.337Z</time></trkpt><trkpt lat="43.1808265" lon="11.3826883"><ele>266.0</ele><time>2026-05-02T09:53:35.344Z</time></trkpt><trkpt lat="43.1807563" lon="11.3827295"><ele>266.0</ele><time>2026-05-02T09:53:36.342Z</time></trkpt><trkpt lat="43.1806855" lon="11.3827809"><ele>266.0</ele><time>2026-05-02T09:53:37.351Z</time></trkpt><trkpt lat="43.1806223" lon="11.3828469"><ele>266.0</ele><time>2026-05-02T09:53:38.342Z</time></trkpt><trkpt lat="43.180543" lon="11.3829292"><ele>266.0</ele><time>2026-05-02T09:53:39.34Z</time></trkpt><trkpt lat="43.1804511" lon="11.3830224"><ele>266.0</ele><time>2026-05-02T09:53:40.342Z</time></trkpt><trkpt lat="43.1803482" lon="11.3831203"><ele>266.0</ele><time>2026-05-02T09:53:41.341Z</time></trkpt><trkpt lat="43.1802386" lon="11.3832231"><ele>266.0</ele><time>2026-05-02T09:53:42.349Z</time></trkpt><trkpt lat="43.1801208" lon="11.3833215"><ele>266.0</ele><time>2026-05-02T09:53:43.349Z</time></trkpt><trkpt lat="43.1799925" lon="11.3834099"><ele>266.0</ele><time>2026-05-02T09:53:44.346Z</time></trkpt><trkpt lat="43.1798619" lon="11.3834783"><ele>266.0</ele><time>2026-05-02T09:53:45.332Z</time></trkpt><trkpt lat="43.1797258" lon="11.3835448"><ele>266.0</ele><time>2026-05-02T09:53:46.34Z</time></trkpt><trkpt lat="43.1795938" lon="11.3836171"><ele>266.0</ele><time>2026-05-02T09:53:47.35Z</time></trkpt><trkpt lat="43.1794605" lon="11.3836862"><ele>265.25</ele><time>2026-05-02T09:53:48.348Z</time></trkpt><trkpt lat="43.1793274" lon="11.3837608"><ele>264.5</ele><time>2026-05-02T09:53:49.339Z</time></trkpt><trkpt lat="43.179192" lon="11.3838354"><ele>263.75</ele><time>2026-05-02T09:53:50.341Z</time></trkpt><trkpt lat="43.1790556" lon="11.3839133"><ele>263.0</ele><time>2026-05-02T09:53:51.34Z</time></trkpt><trkpt lat="43.1789202" lon="11.3839984"><ele>265.0</ele><time>2026-05-02T09:53:52.335Z</time></trkpt><trkpt lat="43.1787906" lon="11.3841038"><ele>267.0</ele><time>2026-05-02T09:53:53.356Z</time></trkpt><trkpt lat="43.1786682" lon="11.3842356"><ele>269.0</ele><time>2026-05-02T09:53:54.34Z</time></trkpt><trkpt lat="43.1785509" lon="11.3843798"><ele>269.0</ele><time>2026-05-02T09:53:55.341Z</time></trkpt><trkpt lat="43.1784321" lon="11.3845297"><ele>269.0</ele><time>2026-05-02T09:53:56.333Z</time></trkpt><trkpt lat="43.1783148" lon="11.3846786"><ele>269.0</ele><time>2026-05-02T09:53:57.34Z</time></trkpt><trkpt lat="43.1781918" lon="11.3848148"><ele>269.0</ele><time>2026-05-02T09:53:58.335Z</time></trkpt><trkpt lat="43.1780558" lon="11.3849382"><ele>269.0</ele><time>2026-05-02T09:53:59.336Z</time></trkpt><trkpt lat="43.1779111" lon="11.3850598"><ele>269.0</ele><time>2026-05-02T09:54:00.346Z</time></trkpt><trkpt lat="43.1777573" lon="11.3851776"><ele>269.0</ele><time>2026-05-02T09:54:01.343Z</time></trkpt><trkpt lat="43.177605" lon="11.385306"><ele>269.0</ele><time>2026-05-02T09:54:02.34Z</time></trkpt><trkpt lat="43.1774725" lon="11.3854413"><ele>269.0</ele><time>2026-05-02T09:54:03.351Z</time></trkpt><trkpt lat="43.1773568" lon="11.3856039"><ele>270.6666666666667</ele><time>2026-05-02T09:54:04.346Z</time></trkpt><trkpt lat="43.1772596" lon="11.3857795"><ele>272.3333333333333</ele><time>2026-05-02T09:54:05.343Z</time></trkpt><trkpt lat="43.1771821" lon="11.3859608"><ele>274.0</ele><time>2026-05-02T09:54:06.335Z</time></trkpt><trkpt lat="43.1771104" lon="11.3861192"><ele>274.0</ele><time>2026-05-02T09:54:07.338Z</time></trkpt><trkpt lat="43.1770471" lon="11.3862677"><ele>274.0</ele><time>2026-05-02T09:54:08.341Z</time></trkpt><trkpt lat="43.1769907" lon="11.3864042"><ele>274.0</ele><time>2026-05-02T09:54:09.336Z</time></trkpt><trkpt lat="43.176936" lon="11.3865348"><ele>274.0</ele><time>2026-05-02T09:54:10.341Z</time></trkpt><trkpt lat="43.1768828" lon="11.3866656"><ele>273.5</ele><time>2026-05-02T09:54:11.338Z</time></trkpt><trkpt lat="43.1768239" lon="11.3868099"><ele>273.0</ele><time>2026-05-02T09:54:12.337Z</time></trkpt><trkpt lat="43.1767582" lon="11.3869733"><ele>272.5</ele><time>2026-05-02T09:54:13.346Z</time></trkpt><trkpt lat="43.1766848" lon="11.3871479"><ele>272.0</ele><time>2026-05-02T09:54:14.343Z</time></trkpt><trkpt lat="43.1765995" lon="11.3873342"><ele>274.0</ele><time>2026-05-02T09:54:15.345Z</time></trkpt><trkpt lat="43.1765152" lon="11.38753"><ele>276.0</ele><time>2026-05-02T09:54:16.346Z</time></trkpt><trkpt lat="43.1764235" lon="11.3877216"><ele>278.0</ele><time>2026-05-02T09:54:17.332Z</time></trkpt><trkpt lat="43.1763184" lon="11.3879043"><ele>276.6666666666667</ele><time>2026-05-02T09:54:18.346Z</time></trkpt><trkpt lat="43.1761863" lon="11.3880582"><ele>275.3333333333333</ele><time>2026-05-02T09:54:19.33Z</time></trkpt><trkpt lat="43.176047" lon="11.3881945"><ele>274.0</ele><time>2026-05-02T09:54:20.343Z</time></trkpt><trkpt lat="43.1758948" lon="11.3883044"><ele>274.0</ele><time>2026-05-02T09:54:21.342Z</time></trkpt><trkpt lat="43.1757238" lon="11.3883983"><ele>274.0</ele><time>2026-05-02T09:54:22.344Z</time></trkpt><trkpt lat="43.1755443" lon="11.3884742"><ele>274.0</ele><time>2026-05-02T09:54:23.343Z</time></trkpt><trkpt lat="43.1753542" lon="11.3885565"><ele>273.66666666666663</ele><time>2026-05-02T09:54:24.34Z</time></trkpt><trkpt lat="43.1751604" lon="11.3886393"><ele>273.3333333333333</ele><time>2026-05-02T09:54:25.342Z</time></trkpt><trkpt lat="43.1749753" lon="11.3887244"><ele>273.0</ele><time>2026-05-02T09:54:26.338Z</time></trkpt><trkpt lat="43.1747964" lon="11.3888015"><ele>275.0</ele><time>2026-05-02T09:54:27.359Z</time></trkpt><trkpt lat="43.1746191" lon="11.3888824"><ele>277.0</ele><time>2026-05-02T09:54:28.341Z</time></trkpt><trkpt lat="43.1744474" lon="11.3889607"><ele>279.0</ele><time>2026-05-02T09:54:29.343Z</time></trkpt><trkpt lat="43.1742899" lon="11.3890366"><ele>279.0</ele><time>2026-05-02T09:54:30.337Z</time></trkpt><trkpt lat="43.1741398" lon="11.3891174"><ele>279.0</ele><time>2026-05-02T09:54:31.339Z</time></trkpt><trkpt lat="43.1739923" lon="11.389222"><ele>279.0</ele><time>2026-05-02T09:54:32.326Z</time></trkpt><trkpt lat="43.1738485" lon="11.3893487"><ele>280.75</ele><time>2026-05-02T09:54:33.329Z</time></trkpt><trkpt lat="43.1737394" lon="11.3894976"><ele>282.5</ele><time>2026-05-02T09:54:34.339Z</time></trkpt><trkpt lat="43.1736489" lon="11.3896485"><ele>284.25</ele><time>2026-05-02T09:54:35.323Z</time></trkpt><trkpt lat="43.1735657" lon="11.3897825"><ele>286.0</ele><time>2026-05-02T09:54:36.338Z</time></trkpt><trkpt lat="43.1734877" lon="11.3899205"><ele>286.0</ele><time>2026-05-02T09:54:37.344Z</time></trkpt><trkpt lat="43.1734105" lon="11.3900582"><ele>286.0</ele><time>2026-05-02T09:54:38.344Z</time></trkpt><trkpt lat="43.1733328" lon="11.3901971"><ele>286.0</ele><time>2026-05-02T09:54:39.349Z</time></trkpt><trkpt lat="43.173248" lon="11.3903356"><ele>286.0</ele><time>2026-05-02T09:54:40.35Z</time></trkpt><trkpt lat="43.1731518" lon="11.3904763"><ele>290.0</ele><time>2026-05-02T09:54:41.348Z</time></trkpt><trkpt lat="43.1730396" lon="11.3906089"><ele>294.0</ele><time>2026-05-02T09:54:42.339Z</time></trkpt><trkpt lat="43.1728991" lon="11.3907059"><ele>298.0</ele><time>2026-05-02T09:54:43.326Z</time></trkpt><trkpt lat="43.1727296" lon="11.3907935"><ele>298.0</ele><time>2026-05-02T09:54:44.332Z</time></trkpt><trkpt lat="43.1725376" lon="11.3908829"><ele>298.0</ele><time>2026-05-02T09:54:45.352Z</time></trkpt><trkpt lat="43.1723574" lon="11.3909715"><ele>298.0</ele><time>2026-05-02T09:54:46.332Z</time></trkpt><trkpt lat="43.1722039" lon="11.3910449"><ele>299.75</ele><time>2026-05-02T09:54:47.332Z</time></trkpt><trkpt lat="43.1720697" lon="11.3911169"><ele>301.5</ele><time>2026-05-02T09:54:48.321Z</time></trkpt><trkpt lat="43.1719534" lon="11.3911831"><ele>303.25</ele><time>2026-05-02T09:54:49.344Z</time></trkpt><trkpt lat="43.1718371" lon="11.3912336"><ele>305.0</ele><time>2026-05-02T09:54:50.34Z</time></trkpt><trkpt lat="43.1717204" lon="11.3912747"><ele>305.0</ele><time>2026-05-02T09:54:51.346Z</time></trkpt><trkpt lat="43.1716203" lon="11.3912958"><ele>305.0</ele><time>2026-05-02T09:54:52.333Z</time></trkpt><trkpt lat="43.1715271" lon="11.391305"><ele>305.0</ele><time>2026-05-02T09:54:53.35Z</time></trkpt><trkpt lat="43.1714378" lon="11.3913073"><ele>305.0</ele><time>2026-05-02T09:54:54.351Z</time></trkpt><trkpt lat="43.1713441" lon="11.3913075"><ele>305.0</ele><time>2026-05-02T09:54:55.331Z</time></trkpt><trkpt lat="43.1712528" lon="11.3912911"><ele>304.4</ele><time>2026-05-02T09:54:56.334Z</time></trkpt><trkpt lat="43.1711688" lon="11.3912657"><ele>303.8</ele><time>2026-05-02T09:54:57.344Z</time></trkpt><trkpt lat="43.1710849" lon="11.3912277"><ele>303.2</ele><time>2026-05-02T09:54:58.344Z</time></trkpt><trkpt lat="43.1709957" lon="11.3911839"><ele>302.6</ele><time>2026-05-02T09:54:59.34Z</time></trkpt><trkpt lat="43.170902" lon="11.3911294"><ele>302.0</ele><time>2026-05-02T09:55:00.343Z</time></trkpt><trkpt lat="43.1708053" lon="11.391073"><ele>302.0</ele><time>2026-05-02T09:55:01.341Z</time></trkpt><trkpt lat="43.1707196" lon="11.3910207"><ele>302.0</ele><time>2026-05-02T09:55:02.347Z</time></trkpt><trkpt lat="43.1706361" lon="11.3909756"><ele>302.0</ele><time>2026-05-02T09:55:03.355Z</time></trkpt><trkpt lat="43.1705514" lon="11.3909262"><ele>302.0</ele><time>2026-05-02T09:55:04.341Z</time></trkpt><trkpt lat="43.170472" lon="11.3908767"><ele>302.0</ele><time>2026-05-02T09:55:05.345Z</time></trkpt><trkpt lat="43.1704028" lon="11.39083"><ele>302.0</ele><time>2026-05-02T09:55:06.345Z</time></trkpt><trkpt lat="43.170335" lon="11.3907822"><ele>302.0</ele><time>2026-05-02T09:55:07.352Z</time></trkpt><trkpt lat="43.1702681" lon="11.3907337"><ele>302.0</ele><time>2026-05-02T09:55:08.344Z</time></trkpt><trkpt lat="43.1702029" lon="11.3906794"><ele>302.0</ele><time>2026-05-02T09:55:09.342Z</time></trkpt><trkpt lat="43.1701359" lon="11.3906161"><ele>302.0</ele><time>2026-05-02T09:55:10.341Z</time></trkpt><trkpt lat="43.1700607" lon="11.3905568"><ele>302.0</ele><time>2026-05-02T09:55:11.339Z</time></trkpt><trkpt lat="43.1699843" lon="11.390488"><ele>302.0</ele><time>2026-05-02T09:55:12.357Z</time></trkpt><trkpt lat="43.1699036" lon="11.3904226"><ele>299.6</ele><time>2026-05-02T09:55:13.33Z</time></trkpt><trkpt lat="43.16982" lon="11.3903561"><ele>297.2</ele><time>2026-05-02T09:55:14.342Z</time></trkpt><trkpt lat="43.1697306" lon="11.3902888"><ele>294.8</ele><time>2026-05-02T09:55:15.342Z</time></trkpt><trkpt lat="43.169637" lon="11.3902209"><ele>292.4</ele><time>2026-05-02T09:55:16.333Z</time></trkpt><trkpt lat="43.1695344" lon="11.390157"><ele>290.0</ele><time>2026-05-02T09:55:17.345Z</time></trkpt><trkpt lat="43.1694283" lon="11.3901008"><ele>290.0</ele><time>2026-05-02T09:55:18.336Z</time></trkpt><trkpt lat="43.1693124" lon="11.3900575"><ele>290.0</ele><time>2026-05-02T09:55:19.34Z</time></trkpt><trkpt lat="43.1691915" lon="11.3900264"><ele>290.0</ele><time>2026-05-02T09:55:20.34Z</time></trkpt><trkpt lat="43.1690692" lon="11.3900079"><ele>290.0</ele><time>2026-05-02T09:55:21.35Z</time></trkpt><trkpt lat="43.1689318" lon="11.3899987"><ele>286.33333333333337</ele><time>2026-05-02T09:55:22.337Z</time></trkpt><trkpt lat="43.1687779" lon="11.3899917"><ele>282.6666666666667</ele><time>2026-05-02T09:55:23.35Z</time></trkpt><trkpt lat="43.1686218" lon="11.389987"><ele>279.0</ele><time>2026-05-02T09:55:24.341Z</time></trkpt><trkpt lat="43.168456" lon="11.3899828"><ele>279.0</ele><time>2026-05-02T09:55:25.337Z</time></trkpt><trkpt lat="43.1682888" lon="11.3899702"><ele>279.0</ele><time>2026-05-02T09:55:26.336Z</time></trkpt><trkpt lat="43.1681162" lon="11.3899506"><ele>279.0</ele><time>2026-05-02T09:55:27.337Z</time></trkpt><trkpt lat="43.1679401" lon="11.3899331"><ele>277.0</ele><time>2026-05-02T09:55:28.344Z</time></trkpt><trkpt lat="43.1677608" lon="11.3899065"><ele>275.0</ele><time>2026-05-02T09:55:29.351Z</time></trkpt><trkpt lat="43.1675931" lon="11.3898859"><ele>273.0</ele><time>2026-05-02T09:55:30.348Z</time></trkpt><trkpt lat="43.1674439" lon="11.3898691"><ele>273.25</ele><time>2026-05-02T09:55:31.332Z</time></trkpt><trkpt lat="43.1673156" lon="11.389859"><ele>273.5</ele><time>2026-05-02T09:55:32.339Z</time></trkpt><trkpt lat="43.1671846" lon="11.3898622"><ele>273.75</ele><time>2026-05-02T09:55:33.35Z</time></trkpt><trkpt lat="43.1670424" lon="11.3898718"><ele>274.0</ele><time>2026-05-02T09:55:34.337Z</time></trkpt><trkpt lat="43.1668991" lon="11.3899034"><ele>274.0</ele><time>2026-05-02T09:55:35.332Z</time></trkpt><trkpt lat="43.1667405" lon="11.3899592"><ele>274.0</ele><time>2026-05-02T09:55:36.347Z</time></trkpt><trkpt lat="43.1665932" lon="11.390064"><ele>274.0</ele><time>2026-05-02T09:55:37.337Z</time></trkpt><trkpt lat="43.1664806" lon="11.3901925"><ele>274.75</ele><time>2026-05-02T09:55:38.345Z</time></trkpt><trkpt lat="43.1663812" lon="11.3903361"><ele>275.5</ele><time>2026-05-02T09:55:39.344Z</time></trkpt><trkpt lat="43.1662985" lon="11.3904704"><ele>276.25</ele><time>2026-05-02T09:55:40.342Z</time></trkpt><trkpt lat="43.1662035" lon="11.390583"><ele>277.0</ele><time>2026-05-02T09:55:41.336Z</time></trkpt><trkpt lat="43.1660861" lon="11.3906684"><ele>276.25</ele><time>2026-05-02T09:55:42.339Z</time></trkpt><trkpt lat="43.165954" lon="11.3907442"><ele>275.5</ele><time>2026-05-02T09:55:43.334Z</time></trkpt><trkpt lat="43.1658136" lon="11.3908031"><ele>274.75</ele><time>2026-05-02T09:55:44.354Z</time></trkpt><trkpt lat="43.1656616" lon="11.3908549"><ele>274.0</ele><time>2026-05-02T09:55:45.355Z</time></trkpt><trkpt lat="43.1654986" lon="11.3909063"><ele>274.0</ele><time>2026-05-02T09:55:46.352Z</time></trkpt><trkpt lat="43.1653271" lon="11.390955"><ele>274.0</ele><time>2026-05-02T09:55:47.354Z</time></trkpt><trkpt lat="43.1651421" lon="11.3909974"><ele>274.0</ele><time>2026-05-02T09:55:48.342Z</time></trkpt><trkpt lat="43.1649463" lon="11.391036"><ele>274.3333333333333</ele><time>2026-05-02T09:55:49.346Z</time></trkpt><trkpt lat="43.1647531" lon="11.3910762"><ele>274.6666666666667</ele><time>2026-05-02T09:55:50.335Z</time></trkpt><trkpt lat="43.1645535" lon="11.3911264"><ele>275.0</ele><time>2026-05-02T09:55:51.34Z</time></trkpt><trkpt lat="43.1643387" lon="11.3911799"><ele>275.0</ele><time>2026-05-02T09:55:52.334Z</time></trkpt><trkpt lat="43.1641146" lon="11.3912415"><ele>275.0</ele><time>2026-05-02T09:55:53.355Z</time></trkpt><trkpt lat="43.1638837" lon="11.3913064"><ele>276.0</ele><time>2026-05-02T09:55:54.343Z</time></trkpt><trkpt lat="43.1636525" lon="11.3913748"><ele>277.0</ele><time>2026-05-02T09:55:55.339Z</time></trkpt><trkpt lat="43.163425" lon="11.3914381"><ele>277.0</ele><time>2026-05-02T09:55:56.334Z</time></trkpt><trkpt lat="43.1632104" lon="11.3914929"><ele>277.0</ele><time>2026-05-02T09:55:57.35Z</time></trkpt><trkpt lat="43.1630172" lon="11.3915378"><ele>277.0</ele><time>2026-05-02T09:55:58.335Z</time></trkpt><trkpt lat="43.1628258" lon="11.3915799"><ele>278.66666666666663</ele><time>2026-05-02T09:55:59.344Z</time></trkpt><trkpt lat="43.1626385" lon="11.3916091"><ele>280.3333333333333</ele><time>2026-05-02T09:56:00.338Z</time></trkpt><trkpt lat="43.1624507" lon="11.3916209"><ele>282.0</ele><time>2026-05-02T09:56:01.342Z</time></trkpt><trkpt lat="43.1622758" lon="11.3916392"><ele>283.0</ele><time>2026-05-02T09:56:02.344Z</time></trkpt><trkpt lat="43.1621244" lon="11.391668"><ele>284.0</ele><time>2026-05-02T09:56:03.349Z</time></trkpt><trkpt lat="43.1619887" lon="11.3917282"><ele>285.0</ele><time>2026-05-02T09:56:04.347Z</time></trkpt><trkpt lat="43.1618727" lon="11.3918203"><ele>286.0</ele><time>2026-05-02T09:56:05.348Z</time></trkpt><trkpt lat="43.161768" lon="11.3919482"><ele>286.0</ele><time>2026-05-02T09:56:06.335Z</time></trkpt><trkpt lat="43.1616912" lon="11.3921116"><ele>286.0</ele><time>2026-05-02T09:56:07.342Z</time></trkpt><trkpt lat="43.1616326" lon="11.3923053"><ele>286.0</ele><time>2026-05-02T09:56:08.342Z</time></trkpt><trkpt lat="43.1615747" lon="11.3925201"><ele>284.25</ele><time>2026-05-02T09:56:09.346Z</time></trkpt><trkpt lat="43.1615117" lon="11.3927001"><ele>282.5</ele><time>2026-05-02T09:56:10.371Z</time></trkpt><trkpt lat="43.1614224" lon="11.392851"><ele>280.75</ele><time>2026-05-02T09:56:11.349Z</time></trkpt><trkpt lat="43.161299" lon="11.392986"><ele>279.0</ele><time>2026-05-02T09:56:12.345Z</time></trkpt><trkpt lat="43.1611511" lon="11.3930966"><ele>279.0</ele><time>2026-05-02T09:56:13.342Z</time></trkpt><trkpt lat="43.1609787" lon="11.3931739"><ele>279.0</ele><time>2026-05-02T09:56:14.335Z</time></trkpt><trkpt lat="43.1607855" lon="11.3932474"><ele>279.0</ele><time>2026-05-02T09:56:15.338Z</time></trkpt><trkpt lat="43.1605848" lon="11.3933191"><ele>278.3333333333333</ele><time>2026-05-02T09:56:16.343Z</time></trkpt><trkpt lat="43.1603848" lon="11.3934024"><ele>277.66666666666663</ele><time>2026-05-02T09:56:17.345Z</time></trkpt><trkpt lat="43.1601934" lon="11.3934851"><ele>277.0</ele><time>2026-05-02T09:56:18.34Z</time></trkpt><trkpt lat="43.1599988" lon="11.3935802"><ele>276.66666666666663</ele><time>2026-05-02T09:56:19.349Z</time></trkpt><trkpt lat="43.1598223" lon="11.3936858"><ele>276.3333333333333</ele><time>2026-05-02T09:56:20.345Z</time></trkpt><trkpt lat="43.1596596" lon="11.3937888"><ele>276.0</ele><time>2026-05-02T09:56:21.335Z</time></trkpt><trkpt lat="43.1595166" lon="11.3938998"><ele>276.0</ele><time>2026-05-02T09:56:22.347Z</time></trkpt><trkpt lat="43.1593867" lon="11.3940257"><ele>276.0</ele><time>2026-05-02T09:56:23.355Z</time></trkpt><trkpt lat="43.1592569" lon="11.3941666"><ele>276.0</ele><time>2026-05-02T09:56:24.357Z</time></trkpt><trkpt lat="43.1591379" lon="11.3943365"><ele>277.0</ele><time>2026-05-02T09:56:25.355Z</time></trkpt><trkpt lat="43.1590236" lon="11.3945172"><ele>278.0</ele><time>2026-05-02T09:56:26.335Z</time></trkpt><trkpt lat="43.1589178" lon="11.3947033"><ele>279.0</ele><time>2026-05-02T09:56:27.364Z</time></trkpt><trkpt lat="43.1588327" lon="11.3949034"><ele>279.0</ele><time>2026-05-02T09:56:28.347Z</time></trkpt><trkpt lat="43.1587726" lon="11.3951031"><ele>279.0</ele><time>2026-05-02T09:56:29.349Z</time></trkpt><trkpt lat="43.1587326" lon="11.395311"><ele>279.0</ele><time>2026-05-02T09:56:30.34Z</time></trkpt><trkpt lat="43.1587037" lon="11.3955436"><ele>279.0</ele><time>2026-05-02T09:56:31.35Z</time></trkpt><trkpt lat="43.1586906" lon="11.3957868"><ele>279.0</ele><time>2026-05-02T09:56:32.335Z</time></trkpt><trkpt lat="43.1586819" lon="11.3960321"><ele>279.0</ele><time>2026-05-02T09:56:33.341Z</time></trkpt><trkpt lat="43.1586807" lon="11.3962963"><ele>279.3333333333333</ele><time>2026-05-02T09:56:34.337Z</time></trkpt><trkpt lat="43.1586861" lon="11.3965724"><ele>279.66666666666663</ele><time>2026-05-02T09:56:35.342Z</time></trkpt><trkpt lat="43.1586824" lon="11.396855"><ele>280.0</ele><time>2026-05-02T09:56:36.337Z</time></trkpt><trkpt lat="43.1586761" lon="11.3971416"><ele>280.0</ele><time>2026-05-02T09:56:37.337Z</time></trkpt><trkpt lat="43.1586769" lon="11.3974204"><ele>280.0</ele><time>2026-05-02T09:56:38.341Z</time></trkpt><trkpt lat="43.1586906" lon="11.3976805"><ele>280.0</ele><time>2026-05-02T09:56:39.334Z</time></trkpt><trkpt lat="43.1587161" lon="11.3979185"><ele>280.66666666666663</ele><time>2026-05-02T09:56:40.35Z</time></trkpt><trkpt lat="43.1587606" lon="11.3981435"><ele>281.3333333333333</ele><time>2026-05-02T09:56:41.352Z</time></trkpt><trkpt lat="43.1588153" lon="11.3983682"><ele>282.0</ele><time>2026-05-02T09:56:42.346Z</time></trkpt><trkpt lat="43.1588643" lon="11.3985886"><ele>282.0</ele><time>2026-05-02T09:56:43.353Z</time></trkpt><trkpt lat="43.1589121" lon="11.3988042"><ele>282.0</ele><time>2026-05-02T09:56:44.343Z</time></trkpt><trkpt lat="43.158936" lon="11.3990096"><ele>282.0</ele><time>2026-05-02T09:56:45.35Z</time></trkpt><trkpt lat="43.1589443" lon="11.3992058"><ele>282.5</ele><time>2026-05-02T09:56:46.339Z</time></trkpt><trkpt lat="43.1589131" lon="11.3993689"><ele>283.0</ele><time>2026-05-02T09:56:47.336Z</time></trkpt><trkpt lat="43.1588498" lon="11.3995084"><ele>283.5</ele><time>2026-05-02T09:56:48.343Z</time></trkpt><trkpt lat="43.1587561" lon="11.3996052"><ele>284.0</ele><time>2026-05-02T09:56:49.345Z</time></trkpt><trkpt lat="43.1586378" lon="11.3996403"><ele>284.0</ele><time>2026-05-02T09:56:50.342Z</time></trkpt><trkpt lat="43.158502" lon="11.399629"><ele>284.0</ele><time>2026-05-02T09:56:51.327Z</time></trkpt><trkpt lat="43.1583496" lon="11.399601"><ele>284.0</ele><time>2026-05-02T09:56:52.339Z</time></trkpt><trkpt lat="43.1581954" lon="11.3996107"><ele>284.0</ele><time>2026-05-02T09:56:53.339Z</time></trkpt><trkpt lat="43.1580405" lon="11.3996539"><ele>286.0</ele><time>2026-05-02T09:56:54.345Z</time></trkpt><trkpt lat="43.1578829" lon="11.3997516"><ele>288.0</ele><time>2026-05-02T09:56:55.336Z</time></trkpt><trkpt lat="43.1577453" lon="11.3998703"><ele>290.0</ele><time>2026-05-02T09:56:56.367Z</time></trkpt><trkpt lat="43.1576019" lon="11.4000071"><ele>290.0</ele><time>2026-05-02T09:56:57.339Z</time></trkpt><trkpt lat="43.1574538" lon="11.4001111"><ele>290.0</ele><time>2026-05-02T09:56:58.339Z</time></trkpt><trkpt lat="43.1573062" lon="11.4001611"><ele>290.0</ele><time>2026-05-02T09:56:59.351Z</time></trkpt><trkpt lat="43.1571531" lon="11.4001605"><ele>291.33333333333337</ele><time>2026-05-02T09:57:00.329Z</time></trkpt><trkpt lat="43.1570029" lon="11.4001193"><ele>292.6666666666667</ele><time>2026-05-02T09:57:01.345Z</time></trkpt><trkpt lat="43.1568521" lon="11.4000517"><ele>294.0</ele><time>2026-05-02T09:57:02.35Z</time></trkpt><trkpt lat="43.1567109" lon="11.3999978"><ele>294.0</ele><time>2026-05-02T09:57:03.343Z</time></trkpt><trkpt lat="43.1565905" lon="11.3999777"><ele>294.0</ele><time>2026-05-02T09:57:04.344Z</time></trkpt><trkpt lat="43.1564906" lon="11.3999848"><ele>294.0</ele><time>2026-05-02T09:57:05.353Z</time></trkpt><trkpt lat="43.1563951" lon="11.400052"><ele>294.0</ele><time>2026-05-02T09:57:06.334Z</time></trkpt><trkpt lat="43.1563163" lon="11.4001618"><ele>294.0</ele><time>2026-05-02T09:57:07.337Z</time></trkpt><trkpt lat="43.1562904" lon="11.4002943"><ele>297.25</ele><time>2026-05-02T09:57:08.344Z</time></trkpt><trkpt lat="43.1562976" lon="11.400446"><ele>300.5</ele><time>2026-05-02T09:57:09.347Z</time></trkpt><trkpt lat="43.1563577" lon="11.4006015"><ele>303.75</ele><time>2026-05-02T09:57:10.341Z</time></trkpt><trkpt lat="43.156437" lon="11.4007645"><ele>307.0</ele><time>2026-05-02T09:57:11.334Z</time></trkpt><trkpt lat="43.1565244" lon="11.4009371"><ele>300.3333333333333</ele><time>2026-05-02T09:57:12.342Z</time></trkpt><trkpt lat="43.1566046" lon="11.4011283"><ele>293.6666666666667</ele><time>2026-05-02T09:57:13.339Z</time></trkpt><trkpt lat="43.1566718" lon="11.4013139"><ele>287.0</ele><time>2026-05-02T09:57:14.333Z</time></trkpt><trkpt lat="43.1567106" lon="11.4015013"><ele>286.5</ele><time>2026-05-02T09:57:15.35Z</time></trkpt><trkpt lat="43.1567075" lon="11.4016833"><ele>286.0</ele><time>2026-05-02T09:57:16.348Z</time></trkpt><trkpt lat="43.156687" lon="11.4018605"><ele>285.5</ele><time>2026-05-02T09:57:17.333Z</time></trkpt><trkpt lat="43.1566489" lon="11.4020435"><ele>285.0</ele><time>2026-05-02T09:57:18.338Z</time></trkpt><trkpt lat="43.1566108" lon="11.4022422"><ele>284.3333333333333</ele><time>2026-05-02T09:57:19.345Z</time></trkpt><trkpt lat="43.1565706" lon="11.402472"><ele>283.66666666666663</ele><time>2026-05-02T09:57:20.336Z</time></trkpt><trkpt lat="43.1565358" lon="11.4027247"><ele>283.0</ele><time>2026-05-02T09:57:21.352Z</time></trkpt><trkpt lat="43.1565019" lon="11.4029824"><ele>288.0</ele><time>2026-05-02T09:57:22.354Z</time></trkpt><trkpt lat="43.1564744" lon="11.4032224"><ele>293.0</ele><time>2026-05-02T09:57:23.346Z</time></trkpt><trkpt lat="43.1564541" lon="11.4034569"><ele>298.0</ele><time>2026-05-02T09:57:24.341Z</time></trkpt><trkpt lat="43.1564386" lon="11.4036871"><ele>296.0</ele><time>2026-05-02T09:57:25.339Z</time></trkpt><trkpt lat="43.1564239" lon="11.4039101"><ele>294.0</ele><time>2026-05-02T09:57:26.362Z</time></trkpt><trkpt lat="43.1563936" lon="11.4041117"><ele>292.0</ele><time>2026-05-02T09:57:27.333Z</time></trkpt><trkpt lat="43.1563406" lon="11.4042911"><ele>292.0</ele><time>2026-05-02T09:57:28.336Z</time></trkpt><trkpt lat="43.1562504" lon="11.4044507"><ele>292.0</ele><time>2026-05-02T09:57:29.348Z</time></trkpt><trkpt lat="43.156146" lon="11.4045768"><ele>292.0</ele><time>2026-05-02T09:57:30.333Z</time></trkpt><trkpt lat="43.1560157" lon="11.4046954"><ele>292.0</ele><time>2026-05-02T09:57:31.342Z</time></trkpt><trkpt lat="43.1558703" lon="11.4047865"><ele>289.66666666666663</ele><time>2026-05-02T09:57:32.336Z</time></trkpt><trkpt lat="43.155705" lon="11.4048422"><ele>287.3333333333333</ele><time>2026-05-02T09:57:33.331Z</time></trkpt><trkpt lat="43.1555305" lon="11.404877"><ele>285.0</ele><time>2026-05-02T09:57:34.337Z</time></trkpt><trkpt lat="43.1553429" lon="11.4048987"><ele>285.0</ele><time>2026-05-02T09:57:35.354Z</time></trkpt><trkpt lat="43.1551573" lon="11.4049568"><ele>285.0</ele><time>2026-05-02T09:57:36.334Z</time></trkpt><trkpt lat="43.15497" lon="11.4050465"><ele>285.0</ele><time>2026-05-02T09:57:37.336Z</time></trkpt><trkpt lat="43.1547779" lon="11.4051362"><ele>288.0</ele><time>2026-05-02T09:57:38.353Z</time></trkpt><trkpt lat="43.1545995" lon="11.4052222"><ele>291.0</ele><time>2026-05-02T09:57:39.338Z</time></trkpt><trkpt lat="43.154428" lon="11.4053227"><ele>294.0</ele><time>2026-05-02T09:57:40.34Z</time></trkpt><trkpt lat="43.1542713" lon="11.4054496"><ele>291.3333333333333</ele><time>2026-05-02T09:57:41.345Z</time></trkpt><trkpt lat="43.1541271" lon="11.4055606"><ele>288.66666666666663</ele><time>2026-05-02T09:57:42.336Z</time></trkpt><trkpt lat="43.1539837" lon="11.4056291"><ele>286.0</ele><time>2026-05-02T09:57:43.348Z</time></trkpt><trkpt lat="43.1538237" lon="11.4056711"><ele>286.0</ele><time>2026-05-02T09:57:44.342Z</time></trkpt><trkpt lat="43.1536566" lon="11.4056822"><ele>286.0</ele><time>2026-05-02T09:57:45.349Z</time></trkpt><trkpt lat="43.1534871" lon="11.4056996"><ele>286.0</ele><time>2026-05-02T09:57:46.347Z</time></trkpt><trkpt lat="43.1533229" lon="11.4057639"><ele>289.3333333333333</ele><time>2026-05-02T09:57:47.332Z</time></trkpt><trkpt lat="43.1531758" lon="11.4058761"><ele>292.6666666666667</ele><time>2026-05-02T09:57:48.362Z</time></trkpt><trkpt lat="43.1530341" lon="11.4060228"><ele>296.0</ele><time>2026-05-02T09:57:49.358Z</time></trkpt><trkpt lat="43.1528925" lon="11.4061789"><ele>296.0</ele><time>2026-05-02T09:57:50.343Z</time></trkpt><trkpt lat="43.1527324" lon="11.4063139"><ele>296.0</ele><time>2026-05-02T09:57:51.349Z</time></trkpt><trkpt lat="43.1525613" lon="11.4064239"><ele>296.0</ele><time>2026-05-02T09:57:52.345Z</time></trkpt><trkpt lat="43.1523885" lon="11.4065031"><ele>291.6666666666667</ele><time>2026-05-02T09:57:53.346Z</time></trkpt><trkpt lat="43.1522317" lon="11.4065565"><ele>287.3333333333333</ele><time>2026-05-02T09:57:54.343Z</time></trkpt><trkpt lat="43.1520781" lon="11.4065853"><ele>283.0</ele><time>2026-05-02T09:57:55.346Z</time></trkpt><trkpt lat="43.1519146" lon="11.4065954"><ele>283.0</ele><time>2026-05-02T09:57:56.338Z</time></trkpt><trkpt lat="43.1517432" lon="11.4065921"><ele>283.0</ele><time>2026-05-02T09:57:57.346Z</time></trkpt><trkpt lat="43.1515681" lon="11.4066065"><ele>283.0</ele><time>2026-05-02T09:57:58.345Z</time></trkpt><trkpt lat="43.151382" lon="11.4066429"><ele>284.0</ele><time>2026-05-02T09:57:59.331Z</time></trkpt><trkpt lat="43.1512028" lon="11.4067061"><ele>285.0</ele><time>2026-05-02T09:58:00.345Z</time></trkpt><trkpt lat="43.1510202" lon="11.4067618"><ele>286.0</ele><time>2026-05-02T09:58:01.343Z</time></trkpt><trkpt lat="43.150832" lon="11.4067863"><ele>284.3333333333333</ele><time>2026-05-02T09:58:02.339Z</time></trkpt><trkpt lat="43.1506489" lon="11.4067777"><ele>282.6666666666667</ele><time>2026-05-02T09:58:03.356Z</time></trkpt><trkpt lat="43.1504742" lon="11.4067485"><ele>281.0</ele><time>2026-05-02T09:58:04.348Z</time></trkpt><trkpt lat="43.1503383" lon="11.4067019"><ele>281.0</ele><time>2026-05-02T09:58:05.348Z</time></trkpt><trkpt lat="43.1502129" lon="11.406629"><ele>281.0</ele><time>2026-05-02T09:58:06.341Z</time></trkpt><trkpt lat="43.1501005" lon="11.4065292"><ele>281.0</ele><time>2026-05-02T09:58:07.346Z</time></trkpt><trkpt lat="43.1500022" lon="11.406395"><ele>281.0</ele><time>2026-05-02T09:58:08.342Z</time></trkpt><trkpt lat="43.1499067" lon="11.4062819"><ele>282.0</ele><time>2026-05-02T09:58:09.355Z</time></trkpt><trkpt lat="43.1497958" lon="11.4062192"><ele>283.0</ele><time>2026-05-02T09:58:10.34Z</time></trkpt><trkpt lat="43.1496758" lon="11.4061952"><ele>284.0</ele><time>2026-05-02T09:58:11.319Z</time></trkpt><trkpt lat="43.1495484" lon="11.4062488"><ele>285.0</ele><time>2026-05-02T09:58:12.339Z</time></trkpt><trkpt lat="43.1494334" lon="11.4063504"><ele>285.0</ele><time>2026-05-02T09:58:13.338Z</time></trkpt><trkpt lat="43.1493285" lon="11.4064911"><ele>285.0</ele><time>2026-05-02T09:58:14.331Z</time></trkpt><trkpt lat="43.1492319" lon="11.4066395"><ele>285.0</ele><time>2026-05-02T09:58:15.344Z</time></trkpt><trkpt lat="43.149112" lon="11.4067045"><ele>285.0</ele><time>2026-05-02T09:58:16.332Z</time></trkpt><trkpt lat="43.1489648" lon="11.4067361"><ele>286.3333333333333</ele><time>2026-05-02T09:58:17.332Z</time></trkpt><trkpt lat="43.1488071" lon="11.4067586"><ele>287.66666666666663</ele><time>2026-05-02T09:58:18.341Z</time></trkpt><trkpt lat="43.1486505" lon="11.406805"><ele>289.0</ele><time>2026-05-02T09:58:19.337Z</time></trkpt><trkpt lat="43.1485173" lon="11.4069032"><ele>289.0</ele><time>2026-05-02T09:58:20.327Z</time></trkpt><trkpt lat="43.1484052" lon="11.4070562"><ele>289.0</ele><time>2026-05-02T09:58:21.342Z</time></trkpt><trkpt lat="43.1483113" lon="11.4072272"><ele>289.0</ele><time>2026-05-02T09:58:22.335Z</time></trkpt><trkpt lat="43.1482196" lon="11.4074192"><ele>290.0</ele><time>2026-05-02T09:58:23.343Z</time></trkpt><trkpt lat="43.1481228" lon="11.4076218"><ele>291.0</ele><time>2026-05-02T09:58:24.342Z</time></trkpt><trkpt lat="43.1480352" lon="11.4078198"><ele>292.0</ele><time>2026-05-02T09:58:25.355Z</time></trkpt><trkpt lat="43.1479527" lon="11.4080145"><ele>290.0</ele><time>2026-05-02T09:58:26.346Z</time></trkpt><trkpt lat="43.1479131" lon="11.4082319"><ele>288.0</ele><time>2026-05-02T09:58:27.336Z</time></trkpt><trkpt lat="43.1478835" lon="11.4084631"><ele>286.0</ele><time>2026-05-02T09:58:28.333Z</time></trkpt><trkpt lat="43.1478635" lon="11.4087029"><ele>284.0</ele><time>2026-05-02T09:58:29.344Z</time></trkpt><trkpt lat="43.1478356" lon="11.4089587"><ele>282.0</ele><time>2026-05-02T09:58:30.341Z</time></trkpt><trkpt lat="43.1478003" lon="11.409221"><ele>280.0</ele><time>2026-05-02T09:58:31.349Z</time></trkpt><trkpt lat="43.1477575" lon="11.4094603"><ele>278.25</ele><time>2026-05-02T09:58:32.339Z</time></trkpt><trkpt lat="43.1477236" lon="11.4096794"><ele>276.5</ele><time>2026-05-02T09:58:33.348Z</time></trkpt><trkpt lat="43.1476928" lon="11.4098783"><ele>274.75</ele><time>2026-05-02T09:58:34.341Z</time></trkpt><trkpt lat="43.1476514" lon="11.4100564"><ele>273.0</ele><time>2026-05-02T09:58:35.333Z</time></trkpt><trkpt lat="43.1475805" lon="11.4102228"><ele>273.0</ele><time>2026-05-02T09:58:36.339Z</time></trkpt><trkpt lat="43.1474874" lon="11.4103748"><ele>273.0</ele><time>2026-05-02T09:58:37.356Z</time></trkpt><trkpt lat="43.1473764" lon="11.4105086"><ele>273.0</ele><time>2026-05-02T09:58:38.343Z</time></trkpt><trkpt lat="43.1472231" lon="11.4106305"><ele>270.6666666666667</ele><time>2026-05-02T09:58:39.344Z</time></trkpt><trkpt lat="43.1470686" lon="11.4107258"><ele>268.33333333333337</ele><time>2026-05-02T09:58:40.336Z</time></trkpt><trkpt lat="43.1469148" lon="11.4108251"><ele>266.0</ele><time>2026-05-02T09:58:41.327Z</time></trkpt><trkpt lat="43.1467662" lon="11.4109584"><ele>266.0</ele><time>2026-05-02T09:58:42.342Z</time></trkpt><trkpt lat="43.146633" lon="11.411129"><ele>266.0</ele><time>2026-05-02T09:58:43.334Z</time></trkpt><trkpt lat="43.1465187" lon="11.4113184"><ele>266.0</ele><time>2026-05-02T09:58:44.339Z</time></trkpt><trkpt lat="43.1463993" lon="11.4115149"><ele>264.33333333333337</ele><time>2026-05-02T09:58:45.347Z</time></trkpt><trkpt lat="43.1462847" lon="11.4117063"><ele>262.6666666666667</ele><time>2026-05-02T09:58:46.351Z</time></trkpt><trkpt lat="43.1461749" lon="11.4119004"><ele>261.0</ele><time>2026-05-02T09:58:47.342Z</time></trkpt><trkpt lat="43.1460834" lon="11.4120856"><ele>258.3333333333333</ele><time>2026-05-02T09:58:48.34Z</time></trkpt><trkpt lat="43.1460131" lon="11.4122716"><ele>255.66666666666666</ele><time>2026-05-02T09:58:49.351Z</time></trkpt><trkpt lat="43.1459566" lon="11.4124695"><ele>253.0</ele><time>2026-05-02T09:58:50.339Z</time></trkpt><trkpt lat="43.1459103" lon="11.4126761"><ele>253.0</ele><time>2026-05-02T09:58:51.345Z</time></trkpt><trkpt lat="43.1458651" lon="11.4128939"><ele>253.0</ele><time>2026-05-02T09:58:52.341Z</time></trkpt><trkpt lat="43.1458103" lon="11.4131149"><ele>253.0</ele><time>2026-05-02T09:58:53.346Z</time></trkpt><trkpt lat="43.1457258" lon="11.4133183"><ele>250.66666666666666</ele><time>2026-05-02T09:58:54.344Z</time></trkpt><trkpt lat="43.1456324" lon="11.4134915"><ele>248.33333333333331</ele><time>2026-05-02T09:58:55.347Z</time></trkpt><trkpt lat="43.1455301" lon="11.4136432"><ele>246.0</ele><time>2026-05-02T09:58:56.344Z</time></trkpt><trkpt lat="43.1454287" lon="11.413779"><ele>245.0</ele><time>2026-05-02T09:58:57.338Z</time></trkpt><trkpt lat="43.1453438" lon="11.4139105"><ele>244.0</ele><time>2026-05-02T09:58:58.339Z</time></trkpt><trkpt lat="43.1452821" lon="11.4140432"><ele>243.0</ele><time>2026-05-02T09:58:59.339Z</time></trkpt><trkpt lat="43.1452362" lon="11.41418"><ele>242.0</ele><time>2026-05-02T09:59:00.342Z</time></trkpt><trkpt lat="43.1452172" lon="11.4143287"><ele>242.0</ele><time>2026-05-02T09:59:01.342Z</time></trkpt><trkpt lat="43.1452233" lon="11.4144733"><ele>242.0</ele><time>2026-05-02T09:59:02.341Z</time></trkpt><trkpt lat="43.1452425" lon="11.4146177"><ele>242.0</ele><time>2026-05-02T09:59:03.345Z</time></trkpt><trkpt lat="43.1452893" lon="11.4147583"><ele>242.0</ele><time>2026-05-02T09:59:04.359Z</time></trkpt><trkpt lat="43.1453613" lon="11.414889"><ele>242.0</ele><time>2026-05-02T09:59:05.337Z</time></trkpt><trkpt lat="43.1454543" lon="11.4149999"><ele>241.25</ele><time>2026-05-02T09:59:06.338Z</time></trkpt><trkpt lat="43.1455416" lon="11.4151299"><ele>240.5</ele><time>2026-05-02T09:59:07.354Z</time></trkpt><trkpt lat="43.1456188" lon="11.4152754"><ele>239.75</ele><time>2026-05-02T09:59:08.349Z</time></trkpt><trkpt lat="43.1456812" lon="11.4154136"><ele>239.0</ele><time>2026-05-02T09:59:09.351Z</time></trkpt><trkpt lat="43.145729" lon="11.4155466"><ele>239.0</ele><time>2026-05-02T09:59:10.336Z</time></trkpt><trkpt lat="43.1457608" lon="11.4156799"><ele>238.99999999999997</ele><time>2026-05-02T09:59:11.342Z</time></trkpt><trkpt lat="43.1457827" lon="11.4158127"><ele>238.99999999999997</ele><time>2026-05-02T09:59:12.347Z</time></trkpt><trkpt lat="43.1457921" lon="11.4159517"><ele>239.0</ele><time>2026-05-02T09:59:13.347Z</time></trkpt><trkpt lat="43.1457866" lon="11.4161078"><ele>239.0</ele><time>2026-05-02T09:59:14.344Z</time></trkpt><trkpt lat="43.1457752" lon="11.4162947"><ele>238.0</ele><time>2026-05-02T09:59:15.339Z</time></trkpt><trkpt lat="43.1457565" lon="11.4164947"><ele>237.0</ele><time>2026-05-02T09:59:16.355Z</time></trkpt><trkpt lat="43.1457293" lon="11.4166998"><ele>236.0</ele><time>2026-05-02T09:59:17.341Z</time></trkpt><trkpt lat="43.1456976" lon="11.4169058"><ele>231.33333333333334</ele><time>2026-05-02T09:59:18.343Z</time></trkpt><trkpt lat="43.1456587" lon="11.4171146"><ele>226.66666666666669</ele><time>2026-05-02T09:59:19.342Z</time></trkpt><trkpt lat="43.1456066" lon="11.4173316"><ele>222.0</ele><time>2026-05-02T09:59:20.35Z</time></trkpt><trkpt lat="43.1455416" lon="11.4175448"><ele>220.33333333333331</ele><time>2026-05-02T09:59:21.346Z</time></trkpt><trkpt lat="43.1454738" lon="11.4177628"><ele>218.66666666666666</ele><time>2026-05-02T09:59:22.339Z</time></trkpt><trkpt lat="43.145415" lon="11.4179785"><ele>217.0</ele><time>2026-05-02T09:59:23.341Z</time></trkpt><trkpt lat="43.1453757" lon="11.4181949"><ele>216.0</ele><time>2026-05-02T09:59:24.343Z</time></trkpt><trkpt lat="43.1453574" lon="11.418404"><ele>215.0</ele><time>2026-05-02T09:59:25.352Z</time></trkpt><trkpt lat="43.145355" lon="11.4186109"><ele>214.0</ele><time>2026-05-02T09:59:26.335Z</time></trkpt><trkpt lat="43.1453537" lon="11.4188132"><ele>213.66666666666666</ele><time>2026-05-02T09:59:27.343Z</time></trkpt><trkpt lat="43.1453398" lon="11.4190083"><ele>213.33333333333331</ele><time>2026-05-02T09:59:28.339Z</time></trkpt><trkpt lat="43.1453174" lon="11.4192076"><ele>213.0</ele><time>2026-05-02T09:59:29.344Z</time></trkpt><trkpt lat="43.1452795" lon="11.4194206"><ele>213.0</ele><time>2026-05-02T09:59:30.337Z</time></trkpt><trkpt lat="43.1452363" lon="11.4196345"><ele>213.0</ele><time>2026-05-02T09:59:31.345Z</time></trkpt><trkpt lat="43.145192" lon="11.419849"><ele>213.0</ele><time>2026-05-02T09:59:32.338Z</time></trkpt><trkpt lat="43.1451584" lon="11.4200583"><ele>212.0</ele><time>2026-05-02T09:59:33.332Z</time></trkpt><trkpt lat="43.1451438" lon="11.4202807"><ele>211.0</ele><time>2026-05-02T09:59:34.34Z</time></trkpt><trkpt lat="43.1451492" lon="11.4205077"><ele>210.0</ele><time>2026-05-02T09:59:35.341Z</time></trkpt><trkpt lat="43.1451543" lon="11.4207019"><ele>209.4</ele><time>2026-05-02T09:59:36.346Z</time></trkpt><trkpt lat="43.1451495" lon="11.4208559"><ele>208.8</ele><time>2026-05-02T09:59:37.34Z</time></trkpt><trkpt lat="43.145147" lon="11.4209987"><ele>208.2</ele><time>2026-05-02T09:59:38.339Z</time></trkpt><trkpt lat="43.1451531" lon="11.4211212"><ele>207.6</ele><time>2026-05-02T09:59:39.338Z</time></trkpt><trkpt lat="43.145173" lon="11.4212188"><ele>207.0</ele><time>2026-05-02T09:59:40.344Z</time></trkpt><trkpt lat="43.145205" lon="11.4213378"><ele>206.8</ele><time>2026-05-02T09:59:42.351Z</time></trkpt><trkpt lat="43.145253" lon="11.4214005"><ele>206.6</ele><time>2026-05-02T10:00:30.345Z</time></trkpt><trkpt lat="43.1452862" lon="11.4215283"><ele>206.4</ele><time>2026-05-02T10:00:41.344Z</time></trkpt><trkpt lat="43.1453079" lon="11.4216449"><ele>206.20000000000002</ele><time>2026-05-02T10:00:42.328Z</time></trkpt><trkpt lat="43.1453657" lon="11.421801"><ele>206.0</ele><time>2026-05-02T10:00:43.35Z</time></trkpt><trkpt lat="43.1454285" lon="11.421988"><ele>207.0</ele><time>2026-05-02T10:00:44.343Z</time></trkpt><trkpt lat="43.1454977" lon="11.4222159"><ele>208.0</ele><time>2026-05-02T10:00:45.332Z</time></trkpt><trkpt lat="43.1455802" lon="11.4224542"><ele>209.0</ele><time>2026-05-02T10:00:46.342Z</time></trkpt><trkpt lat="43.1456582" lon="11.4226676"><ele>208.5</ele><time>2026-05-02T10:00:47.346Z</time></trkpt><trkpt lat="43.1457273" lon="11.4228462"><ele>208.0</ele><time>2026-05-02T10:00:48.363Z</time></trkpt><trkpt lat="43.145784" lon="11.4230097"><ele>207.5</ele><time>2026-05-02T10:00:49.342Z</time></trkpt><trkpt lat="43.1458306" lon="11.4231576"><ele>207.0</ele><time>2026-05-02T10:00:50.34Z</time></trkpt><trkpt lat="43.145876" lon="11.4232927"><ele>207.0</ele><time>2026-05-02T10:00:51.334Z</time></trkpt><trkpt lat="43.1459121" lon="11.4234286"><ele>207.0</ele><time>2026-05-02T10:00:52.342Z</time></trkpt><trkpt lat="43.1459423" lon="11.4235657"><ele>207.0</ele><time>2026-05-02T10:00:53.355Z</time></trkpt><trkpt lat="43.1459563" lon="11.4237047"><ele>207.0</ele><time>2026-05-02T10:00:54.35Z</time></trkpt><trkpt lat="43.145963" lon="11.4238358"><ele>207.0</ele><time>2026-05-02T10:00:55.341Z</time></trkpt><trkpt lat="43.1459541" lon="11.4239569"><ele>206.83333333333334</ele><time>2026-05-02T10:00:56.342Z</time></trkpt><trkpt lat="43.1459355" lon="11.4240658"><ele>206.66666666666669</ele><time>2026-05-02T10:00:57.346Z</time></trkpt><trkpt lat="43.1459088" lon="11.424158"><ele>206.5</ele><time>2026-05-02T10:00:58.358Z</time></trkpt><trkpt lat="43.1458788" lon="11.4242432"><ele>206.33333333333334</ele><time>2026-05-02T10:00:59.342Z</time></trkpt><trkpt lat="43.1458522" lon="11.424328"><ele>206.16666666666669</ele><time>2026-05-02T10:01:00.35Z</time></trkpt><trkpt lat="43.145818" lon="11.4244018"><ele>206.0</ele><time>2026-05-02T10:01:01.352Z</time></trkpt><trkpt lat="43.1457551" lon="11.424523"><ele>206.0</ele><time>2026-05-02T10:01:03.343Z</time></trkpt><trkpt lat="43.1457011" lon="11.4246184"><ele>206.0</ele><time>2026-05-02T10:01:05.342Z</time></trkpt><trkpt lat="43.1457906" lon="11.4245144"><ele>206.0</ele><time>2026-05-02T10:01:24.355Z</time></trkpt><trkpt lat="43.1458314" lon="11.4244187"><ele>206.0</ele><time>2026-05-02T10:01:25.331Z</time></trkpt><trkpt lat="43.1458734" lon="11.4243142"><ele>206.0</ele><time>2026-05-02T10:01:26.342Z</time></trkpt><trkpt lat="43.1459127" lon="11.4241893"><ele>206.0</ele><time>2026-05-02T10:01:27.338Z</time></trkpt><trkpt lat="43.1459454" lon="11.4240687"><ele>206.0</ele><time>2026-05-02T10:01:28.337Z</time></trkpt><trkpt lat="43.1459648" lon="11.4239357"><ele>206.0</ele><time>2026-05-02T10:01:29.336Z</time></trkpt><trkpt lat="43.1459675" lon="11.4237796"><ele>206.0</ele><time>2026-05-02T10:01:30.366Z</time></trkpt><trkpt lat="43.1459484" lon="11.4236044"><ele>206.0</ele><time>2026-05-02T10:01:31.342Z</time></trkpt><trkpt lat="43.1459097" lon="11.4234246"><ele>206.33333333333334</ele><time>2026-05-02T10:01:32.349Z</time></trkpt><trkpt lat="43.1458616" lon="11.4232452"><ele>206.66666666666669</ele><time>2026-05-02T10:01:33.337Z</time></trkpt><trkpt lat="43.1457944" lon="11.4230249"><ele>207.0</ele><time>2026-05-02T10:01:34.355Z</time></trkpt><trkpt lat="43.1457239" lon="11.4228187"><ele>207.5</ele><time>2026-05-02T10:01:35.345Z</time></trkpt><trkpt lat="43.1456678" lon="11.4226504"><ele>208.0</ele><time>2026-05-02T10:01:36.353Z</time></trkpt><trkpt lat="43.145614" lon="11.4225012"><ele>208.5</ele><time>2026-05-02T10:01:37.354Z</time></trkpt><trkpt lat="43.145559" lon="11.4223567"><ele>209.0</ele><time>2026-05-02T10:01:38.329Z</time></trkpt><trkpt lat="43.1455024" lon="11.4222091"><ele>208.25</ele><time>2026-05-02T10:01:39.34Z</time></trkpt><trkpt lat="43.1454488" lon="11.4220531"><ele>207.5</ele><time>2026-05-02T10:01:40.34Z</time></trkpt><trkpt lat="43.1453981" lon="11.4219073"><ele>206.75</ele><time>2026-05-02T10:01:41.337Z</time></trkpt><trkpt lat="43.1453499" lon="11.4217523"><ele>206.0</ele><time>2026-05-02T10:01:42.346Z</time></trkpt><trkpt lat="43.1453104" lon="11.4216123"><ele>206.00000000000003</ele><time>2026-05-02T10:01:43.346Z</time></trkpt><trkpt lat="43.1452764" lon="11.4214875"><ele>206.0</ele><time>2026-05-02T10:01:44.359Z</time></trkpt><trkpt lat="43.1452511" lon="11.4213886"><ele>206.0</ele><time>2026-05-02T10:01:45.35Z</time></trkpt><trkpt lat="43.1452062" lon="11.4212788"><ele>206.0</ele><time>2026-05-02T10:01:47.342Z</time></trkpt><trkpt lat="43.1451305" lon="11.4213148"><ele>206.00000000000003</ele><time>2026-05-02T10:03:55.341Z</time></trkpt><trkpt lat="43.1452127" lon="11.4213248"><ele>206.0</ele><time>2026-05-02T10:16:27.328Z</time></trkpt><trkpt lat="43.1452523" lon="11.4214343"><ele>206.0</ele><time>2026-05-02T10:16:29.347Z</time></trkpt><trkpt lat="43.145284" lon="11.4215675"><ele>206.0</ele><time>2026-05-02T10:16:31.333Z</time></trkpt><trkpt lat="43.1453323" lon="11.4217444"><ele>206.0</ele><time>2026-05-02T10:16:33.34Z</time></trkpt><trkpt lat="43.1453689" lon="11.4218468"><ele>206.0</ele><time>2026-05-02T10:16:34.329Z</time></trkpt><trkpt lat="43.1454103" lon="11.4219693"><ele>206.0</ele><time>2026-05-02T10:16:35.35Z</time></trkpt><trkpt lat="43.1454525" lon="11.422104"><ele>206.75</ele><time>2026-05-02T10:16:36.343Z</time></trkpt><trkpt lat="43.1454968" lon="11.4222407"><ele>207.5</ele><time>2026-05-02T10:16:37.341Z</time></trkpt><trkpt lat="43.1455464" lon="11.4223853"><ele>208.25</ele><time>2026-05-02T10:16:38.336Z</time></trkpt><trkpt lat="43.1455977" lon="11.4225358"><ele>209.0</ele><time>2026-05-02T10:16:39.334Z</time></trkpt><trkpt lat="43.1456564" lon="11.4226937"><ele>208.5</ele><time>2026-05-02T10:16:40.339Z</time></trkpt><trkpt lat="43.1457236" lon="11.4228684"><ele>208.0</ele><time>2026-05-02T10:16:41.334Z</time></trkpt><trkpt lat="43.1457899" lon="11.4230413"><ele>207.5</ele><time>2026-05-02T10:16:42.333Z</time></trkpt><trkpt lat="43.1458383" lon="11.4231904"><ele>207.0</ele><time>2026-05-02T10:16:43.34Z</time></trkpt><trkpt lat="43.1458835" lon="11.4233288"><ele>207.0</ele><time>2026-05-02T10:16:44.332Z</time></trkpt><trkpt lat="43.1459179" lon="11.4234663"><ele>207.0</ele><time>2026-05-02T10:16:45.336Z</time></trkpt><trkpt lat="43.1459476" lon="11.423615"><ele>207.0</ele><time>2026-05-02T10:16:46.336Z</time></trkpt><trkpt lat="43.1459565" lon="11.4237624"><ele>207.0</ele><time>2026-05-02T10:16:47.338Z</time></trkpt><trkpt lat="43.1459524" lon="11.4239167"><ele>207.0</ele><time>2026-05-02T10:16:48.34Z</time></trkpt><trkpt lat="43.145932" lon="11.4240791"><ele>206.75</ele><time>2026-05-02T10:16:49.334Z</time></trkpt><trkpt lat="43.145889" lon="11.4242365"><ele>206.5</ele><time>2026-05-02T10:16:50.333Z</time></trkpt><trkpt lat="43.1458275" lon="11.4243821"><ele>206.25</ele><time>2026-05-02T10:16:51.346Z</time></trkpt><trkpt lat="43.1457581" lon="11.4245277"><ele>206.0</ele><time>2026-05-02T10:16:52.337Z</time></trkpt><trkpt lat="43.1456869" lon="11.4246448"><ele>208.33333333333334</ele><time>2026-05-02T10:16:53.331Z</time></trkpt><trkpt lat="43.1456304" lon="11.4247584"><ele>210.66666666666669</ele><time>2026-05-02T10:16:54.343Z</time></trkpt><trkpt lat="43.1455847" lon="11.4248597"><ele>213.0</ele><time>2026-05-02T10:16:55.335Z</time></trkpt><trkpt lat="43.1455554" lon="11.4249657"><ele>215.33333333333331</ele><time>2026-05-02T10:16:56.337Z</time></trkpt><trkpt lat="43.145562" lon="11.4250813"><ele>217.66666666666666</ele><time>2026-05-02T10:16:57.334Z</time></trkpt><trkpt lat="43.1455981" lon="11.4251819"><ele>220.0</ele><time>2026-05-02T10:16:58.351Z</time></trkpt><trkpt lat="43.1456574" lon="11.4252715"><ele>218.25</ele><time>2026-05-02T10:16:59.349Z</time></trkpt><trkpt lat="43.14574" lon="11.4253503"><ele>216.5</ele><time>2026-05-02T10:17:00.343Z</time></trkpt><trkpt lat="43.1458412" lon="11.4254129"><ele>214.75</ele><time>2026-05-02T10:17:01.332Z</time></trkpt><trkpt lat="43.1459658" lon="11.4254881"><ele>213.0</ele><time>2026-05-02T10:17:02.336Z</time></trkpt><trkpt lat="43.1460987" lon="11.4255849"><ele>213.0</ele><time>2026-05-02T10:17:03.329Z</time></trkpt><trkpt lat="43.1462207" lon="11.4257098"><ele>213.0</ele><time>2026-05-02T10:17:04.332Z</time></trkpt><trkpt lat="43.146328" lon="11.4258443"><ele>213.0</ele><time>2026-05-02T10:17:05.339Z</time></trkpt><trkpt lat="43.1464343" lon="11.4259736"><ele>213.0</ele><time>2026-05-02T10:17:06.33Z</time></trkpt><trkpt lat="43.1465473" lon="11.4260916"><ele>212.75</ele><time>2026-05-02T10:17:07.347Z</time></trkpt><trkpt lat="43.1466544" lon="11.4261916"><ele>212.5</ele><time>2026-05-02T10:17:08.333Z</time></trkpt><trkpt lat="43.1467544" lon="11.4262731"><ele>212.25</ele><time>2026-05-02T10:17:09.341Z</time></trkpt><trkpt lat="43.1468636" lon="11.426352"><ele>212.0</ele><time>2026-05-02T10:17:10.34Z</time></trkpt><trkpt lat="43.1469738" lon="11.426433"><ele>212.0</ele><time>2026-05-02T10:17:11.344Z</time></trkpt><trkpt lat="43.1470867" lon="11.4265247"><ele>212.0</ele><time>2026-05-02T10:17:12.334Z</time></trkpt><trkpt lat="43.147192" lon="11.4266376"><ele>212.0</ele><time>2026-05-02T10:17:13.345Z</time></trkpt><trkpt lat="43.1472938" lon="11.426765"><ele>212.0</ele><time>2026-05-02T10:17:14.337Z</time></trkpt><trkpt lat="43.1473965" lon="11.4268929"><ele>211.0</ele><time>2026-05-02T10:17:15.36Z</time></trkpt><trkpt lat="43.1474989" lon="11.427011"><ele>210.0</ele><time>2026-05-02T10:17:16.336Z</time></trkpt><trkpt lat="43.1476019" lon="11.4270989"><ele>209.0</ele><time>2026-05-02T10:17:17.335Z</time></trkpt><trkpt lat="43.1477035" lon="11.4271581"><ele>208.0</ele><time>2026-05-02T10:17:18.353Z</time></trkpt><trkpt lat="43.1478151" lon="11.4272001"><ele>208.0</ele><time>2026-05-02T10:17:19.34Z</time></trkpt><trkpt lat="43.1479237" lon="11.4272321"><ele>208.0</ele><time>2026-05-02T10:17:20.344Z</time></trkpt><trkpt lat="43.1480321" lon="11.4272647"><ele>208.0</ele><time>2026-05-02T10:17:21.343Z</time></trkpt><trkpt lat="43.1481401" lon="11.4272958"><ele>208.0</ele><time>2026-05-02T10:17:22.332Z</time></trkpt><trkpt lat="43.148251" lon="11.4273399"><ele>208.0</ele><time>2026-05-02T10:17:23.333Z</time></trkpt><trkpt lat="43.1483543" lon="11.4273877"><ele>207.4</ele><time>2026-05-02T10:17:24.337Z</time></trkpt><trkpt lat="43.1484554" lon="11.4274433"><ele>206.8</ele><time>2026-05-02T10:17:25.336Z</time></trkpt><trkpt lat="43.1485588" lon="11.4275027"><ele>206.2</ele><time>2026-05-02T10:17:26.336Z</time></trkpt><trkpt lat="43.1486618" lon="11.4275571"><ele>205.6</ele><time>2026-05-02T10:17:27.333Z</time></trkpt><trkpt lat="43.1487661" lon="11.4276057"><ele>205.0</ele><time>2026-05-02T10:17:28.335Z</time></trkpt><trkpt lat="43.1488745" lon="11.4276575"><ele>205.0</ele><time>2026-05-02T10:17:29.341Z</time></trkpt><trkpt lat="43.1489835" lon="11.4277118"><ele>205.0</ele><time>2026-05-02T10:17:30.341Z</time></trkpt><trkpt lat="43.1490912" lon="11.4277703"><ele>205.0</ele><time>2026-05-02T10:17:31.341Z</time></trkpt><trkpt lat="43.1491917" lon="11.4278378"><ele>205.0</ele><time>2026-05-02T10:17:32.326Z</time></trkpt><trkpt lat="43.1492891" lon="11.4279178"><ele>202.25</ele><time>2026-05-02T10:17:33.346Z</time></trkpt><trkpt lat="43.1493842" lon="11.4280197"><ele>199.5</ele><time>2026-05-02T10:17:34.338Z</time></trkpt><trkpt lat="43.1494753" lon="11.4281238"><ele>196.75</ele><time>2026-05-02T10:17:35.328Z</time></trkpt><trkpt lat="43.1495582" lon="11.4282238"><ele>194.0</ele><time>2026-05-02T10:17:36.338Z</time></trkpt><trkpt lat="43.149652" lon="11.4283207"><ele>194.0</ele><time>2026-05-02T10:17:37.331Z</time></trkpt><trkpt lat="43.1497392" lon="11.4284122"><ele>194.0</ele><time>2026-05-02T10:17:38.324Z</time></trkpt><trkpt lat="43.149832" lon="11.428502"><ele>194.0</ele><time>2026-05-02T10:17:39.345Z</time></trkpt><trkpt lat="43.1499225" lon="11.4285954"><ele>194.0</ele><time>2026-05-02T10:17:40.337Z</time></trkpt><trkpt lat="43.150005" lon="11.4286852"><ele>194.0</ele><time>2026-05-02T10:17:41.343Z</time></trkpt><trkpt lat="43.1500752" lon="11.4287753"><ele>193.0</ele><time>2026-05-02T10:17:42.333Z</time></trkpt><trkpt lat="43.1501372" lon="11.4288736"><ele>192.0</ele><time>2026-05-02T10:17:43.337Z</time></trkpt><trkpt lat="43.1501993" lon="11.428981"><ele>191.0</ele><time>2026-05-02T10:17:44.333Z</time></trkpt><trkpt lat="43.1502607" lon="11.429097"><ele>190.0</ele><time>2026-05-02T10:17:45.333Z</time></trkpt><trkpt lat="43.150325" lon="11.4292215"><ele>189.0</ele><time>2026-05-02T10:17:46.339Z</time></trkpt><trkpt lat="43.1504058" lon="11.4293487"><ele>189.0</ele><time>2026-05-02T10:17:47.344Z</time></trkpt><trkpt lat="43.1504942" lon="11.4294752"><ele>189.0</ele><time>2026-05-02T10:17:48.329Z</time></trkpt><trkpt lat="43.1505904" lon="11.429601"><ele>189.0</ele><time>2026-05-02T10:17:49.336Z</time></trkpt><trkpt lat="43.1506857" lon="11.4297135"><ele>189.0</ele><time>2026-05-02T10:17:50.336Z</time></trkpt><trkpt lat="43.1507869" lon="11.4298033"><ele>189.25</ele><time>2026-05-02T10:17:51.347Z</time></trkpt><trkpt lat="43.150882" lon="11.4298884"><ele>189.5</ele><time>2026-05-02T10:17:52.342Z</time></trkpt><trkpt lat="43.1509735" lon="11.4299831"><ele>189.75</ele><time>2026-05-02T10:17:53.346Z</time></trkpt><trkpt lat="43.1510514" lon="11.4301008"><ele>190.0</ele><time>2026-05-02T10:17:54.337Z</time></trkpt><trkpt lat="43.151111" lon="11.4302256"><ele>190.0</ele><time>2026-05-02T10:17:55.346Z</time></trkpt><trkpt lat="43.1511457" lon="11.4303731"><ele>190.0</ele><time>2026-05-02T10:17:56.343Z</time></trkpt><trkpt lat="43.1511588" lon="11.4305362"><ele>190.0</ele><time>2026-05-02T10:17:57.336Z</time></trkpt><trkpt lat="43.1511515" lon="11.4306976"><ele>190.0</ele><time>2026-05-02T10:17:58.335Z</time></trkpt><trkpt lat="43.1511297" lon="11.4308882"><ele>188.25</ele><time>2026-05-02T10:17:59.342Z</time></trkpt><trkpt lat="43.1511079" lon="11.4310763"><ele>186.5</ele><time>2026-05-02T10:18:00.331Z</time></trkpt><trkpt lat="43.1510963" lon="11.4312623"><ele>184.75</ele><time>2026-05-02T10:18:01.36Z</time></trkpt><trkpt lat="43.1510946" lon="11.4314418"><ele>183.0</ele><time>2026-05-02T10:18:02.328Z</time></trkpt><trkpt lat="43.1511016" lon="11.4316247"><ele>181.5</ele><time>2026-05-02T10:18:03.348Z</time></trkpt><trkpt lat="43.1511249" lon="11.4318093"><ele>180.0</ele><time>2026-05-02T10:18:04.326Z</time></trkpt><trkpt lat="43.1511485" lon="11.4319998"><ele>178.5</ele><time>2026-05-02T10:18:05.33Z</time></trkpt><trkpt lat="43.1511487" lon="11.4321728"><ele>177.0</ele><time>2026-05-02T10:18:06.336Z</time></trkpt><trkpt lat="43.1511356" lon="11.4323307"><ele>176.39999999999998</ele><time>2026-05-02T10:18:07.342Z</time></trkpt><trkpt lat="43.1511239" lon="11.4324791"><ele>175.79999999999998</ele><time>2026-05-02T10:18:08.337Z</time></trkpt><trkpt lat="43.1511346" lon="11.4326286"><ele>175.2</ele><time>2026-05-02T10:18:09.343Z</time></trkpt><trkpt lat="43.1511663" lon="11.4327781"><ele>174.6</ele><time>2026-05-02T10:18:10.336Z</time></trkpt><trkpt lat="43.1512181" lon="11.4329039"><ele>174.0</ele><time>2026-05-02T10:18:11.331Z</time></trkpt><trkpt lat="43.1512817" lon="11.4330282"><ele>173.0</ele><time>2026-05-02T10:18:12.332Z</time></trkpt><trkpt lat="43.1513719" lon="11.4331427"><ele>172.0</ele><time>2026-05-02T10:18:13.339Z</time></trkpt><trkpt lat="43.151469" lon="11.4332479"><ele>171.0</ele><time>2026-05-02T10:18:14.345Z</time></trkpt><trkpt lat="43.1515729" lon="11.4333512"><ele>170.0</ele><time>2026-05-02T10:18:15.331Z</time></trkpt><trkpt lat="43.151673" lon="11.4334291"><ele>171.6</ele><time>2026-05-02T10:18:16.329Z</time></trkpt><trkpt lat="43.1517658" lon="11.433494"><ele>173.2</ele><time>2026-05-02T10:18:17.338Z</time></trkpt><trkpt lat="43.1518589" lon="11.4335258"><ele>174.8</ele><time>2026-05-02T10:18:18.331Z</time></trkpt><trkpt lat="43.1519595" lon="11.4335327"><ele>176.4</ele><time>2026-05-02T10:18:19.339Z</time></trkpt><trkpt lat="43.1520626" lon="11.433496"><ele>178.0</ele><time>2026-05-02T10:18:20.334Z</time></trkpt><trkpt lat="43.1521489" lon="11.4334351"><ele>178.0</ele><time>2026-05-02T10:18:21.329Z</time></trkpt><trkpt lat="43.1522278" lon="11.4333607"><ele>178.0</ele><time>2026-05-02T10:18:22.34Z</time></trkpt><trkpt lat="43.1523123" lon="11.4332585"><ele>178.0</ele><time>2026-05-02T10:18:23.353Z</time></trkpt><trkpt lat="43.1523884" lon="11.4331513"><ele>178.0</ele><time>2026-05-02T10:18:24.343Z</time></trkpt><trkpt lat="43.1524626" lon="11.4330616"><ele>178.0</ele><time>2026-05-02T10:18:25.339Z</time></trkpt><trkpt lat="43.1525356" lon="11.4329991"><ele>178.33333333333334</ele><time>2026-05-02T10:18:26.343Z</time></trkpt><trkpt lat="43.152616" lon="11.4329705"><ele>178.66666666666669</ele><time>2026-05-02T10:18:27.336Z</time></trkpt><trkpt lat="43.1526943" lon="11.4329947"><ele>179.0</ele><time>2026-05-02T10:18:28.329Z</time></trkpt><trkpt lat="43.1527521" lon="11.4330694"><ele>179.33333333333334</ele><time>2026-05-02T10:18:29.338Z</time></trkpt><trkpt lat="43.1527826" lon="11.4331519"><ele>179.66666666666666</ele><time>2026-05-02T10:18:30.337Z</time></trkpt><trkpt lat="43.1527787" lon="11.4332424"><ele>180.0</ele><time>2026-05-02T10:18:31.337Z</time></trkpt><trkpt lat="43.1527499" lon="11.4333417"><ele>178.2</ele><time>2026-05-02T10:18:32.338Z</time></trkpt><trkpt lat="43.1527036" lon="11.4334315"><ele>176.4</ele><time>2026-05-02T10:18:33.333Z</time></trkpt><trkpt lat="43.1526386" lon="11.4335194"><ele>174.60000000000002</ele><time>2026-05-02T10:18:34.339Z</time></trkpt><trkpt lat="43.1525642" lon="11.4336073"><ele>172.8</ele><time>2026-05-02T10:18:35.337Z</time></trkpt><trkpt lat="43.1524804" lon="11.4336933"><ele>171.0</ele><time>2026-05-02T10:18:36.338Z</time></trkpt><trkpt lat="43.1523935" lon="11.4337918"><ele>170.25</ele><time>2026-05-02T10:18:37.343Z</time></trkpt><trkpt lat="43.1522989" lon="11.4339007"><ele>169.5</ele><time>2026-05-02T10:18:38.34Z</time></trkpt><trkpt lat="43.1521966" lon="11.4340261"><ele>168.75</ele><time>2026-05-02T10:18:39.332Z</time></trkpt><trkpt lat="43.1520916" lon="11.4341556"><ele>168.0</ele><time>2026-05-02T10:18:40.326Z</time></trkpt><trkpt lat="43.1519851" lon="11.4342854"><ele>168.0</ele><time>2026-05-02T10:18:41.327Z</time></trkpt><trkpt lat="43.1518874" lon="11.4344043"><ele>168.0</ele><time>2026-05-02T10:18:42.334Z</time></trkpt><trkpt lat="43.1518051" lon="11.4345085"><ele>168.0</ele><time>2026-05-02T10:18:43.341Z</time></trkpt><trkpt lat="43.1517294" lon="11.4346181"><ele>168.0</ele><time>2026-05-02T10:18:44.332Z</time></trkpt><trkpt lat="43.1516604" lon="11.4347422"><ele>165.75</ele><time>2026-05-02T10:18:45.333Z</time></trkpt><trkpt lat="43.1516062" lon="11.4348808"><ele>163.5</ele><time>2026-05-02T10:18:46.341Z</time></trkpt><trkpt lat="43.1515812" lon="11.4350386"><ele>161.25</ele><time>2026-05-02T10:18:47.338Z</time></trkpt><trkpt lat="43.1515769" lon="11.4352028"><ele>159.0</ele><time>2026-05-02T10:18:48.339Z</time></trkpt><trkpt lat="43.1515881" lon="11.4353718"><ele>158.5</ele><time>2026-05-02T10:18:49.344Z</time></trkpt><trkpt lat="43.1516122" lon="11.4355476"><ele>158.0</ele><time>2026-05-02T10:18:50.334Z</time></trkpt><trkpt lat="43.1516382" lon="11.43573"><ele>157.5</ele><time>2026-05-02T10:18:51.356Z</time></trkpt><trkpt lat="43.151668" lon="11.4359228"><ele>157.0</ele><time>2026-05-02T10:18:52.339Z</time></trkpt><trkpt lat="43.1517005" lon="11.4361124"><ele>157.0</ele><time>2026-05-02T10:18:53.341Z</time></trkpt><trkpt lat="43.1517308" lon="11.4362966"><ele>157.0</ele><time>2026-05-02T10:18:54.334Z</time></trkpt><trkpt lat="43.1517541" lon="11.4364797"><ele>157.0</ele><time>2026-05-02T10:18:55.333Z</time></trkpt><trkpt lat="43.1517788" lon="11.4366564"><ele>157.0</ele><time>2026-05-02T10:18:56.331Z</time></trkpt><trkpt lat="43.1518056" lon="11.4368313"><ele>156.75</ele><time>2026-05-02T10:18:57.342Z</time></trkpt><trkpt lat="43.1518331" lon="11.4370086"><ele>156.5</ele><time>2026-05-02T10:18:58.345Z</time></trkpt><trkpt lat="43.1518621" lon="11.4371854"><ele>156.25</ele><time>2026-05-02T10:18:59.341Z</time></trkpt><trkpt lat="43.151893" lon="11.437371"><ele>156.0</ele><time>2026-05-02T10:19:00.339Z</time></trkpt><trkpt lat="43.1519212" lon="11.4375575"><ele>156.0</ele><time>2026-05-02T10:19:01.339Z</time></trkpt><trkpt lat="43.1519509" lon="11.4377444"><ele>156.0</ele><time>2026-05-02T10:19:02.341Z</time></trkpt><trkpt lat="43.1519789" lon="11.4379249"><ele>156.0</ele><time>2026-05-02T10:19:03.333Z</time></trkpt><trkpt lat="43.1520035" lon="11.4380977"><ele>156.0</ele><time>2026-05-02T10:19:04.33Z</time></trkpt><trkpt lat="43.1520205" lon="11.4382564"><ele>157.0</ele><time>2026-05-02T10:19:05.328Z</time></trkpt><trkpt lat="43.1520157" lon="11.4383928"><ele>158.0</ele><time>2026-05-02T10:19:06.331Z</time></trkpt><trkpt lat="43.1519971" lon="11.438512"><ele>159.0</ele><time>2026-05-02T10:19:07.329Z</time></trkpt><trkpt lat="43.1519619" lon="11.4386354"><ele>160.0</ele><time>2026-05-02T10:19:08.336Z</time></trkpt><trkpt lat="43.1519013" lon="11.438769"><ele>161.0</ele><time>2026-05-02T10:19:09.34Z</time></trkpt><trkpt lat="43.1518323" lon="11.438905"><ele>161.75</ele><time>2026-05-02T10:19:10.336Z</time></trkpt><trkpt lat="43.1517448" lon="11.4390266"><ele>162.5</ele><time>2026-05-02T10:19:11.343Z</time></trkpt><trkpt lat="43.1516636" lon="11.4391522"><ele>163.25</ele><time>2026-05-02T10:19:12.325Z</time></trkpt><trkpt lat="43.1515944" lon="11.4392727"><ele>164.0</ele><time>2026-05-02T10:19:13.335Z</time></trkpt><trkpt lat="43.1515314" lon="11.4394036"><ele>163.5</ele><time>2026-05-02T10:19:14.337Z</time></trkpt><trkpt lat="43.1514654" lon="11.4395391"><ele>163.0</ele><time>2026-05-02T10:19:15.337Z</time></trkpt><trkpt lat="43.1513959" lon="11.4396784"><ele>162.5</ele><time>2026-05-02T10:19:16.327Z</time></trkpt><trkpt lat="43.151325" lon="11.4398148"><ele>162.0</ele><time>2026-05-02T10:19:17.339Z</time></trkpt><trkpt lat="43.1512578" lon="11.4399579"><ele>162.0</ele><time>2026-05-02T10:19:18.333Z</time></trkpt><trkpt lat="43.1511916" lon="11.4401084"><ele>162.0</ele><time>2026-05-02T10:19:19.344Z</time></trkpt><trkpt lat="43.1511333" lon="11.440255"><ele>162.0</ele><time>2026-05-02T10:19:20.33Z</time></trkpt><trkpt lat="43.1510846" lon="11.4403908"><ele>162.0</ele><time>2026-05-02T10:19:21.334Z</time></trkpt><trkpt lat="43.1510373" lon="11.4405108"><ele>162.2</ele><time>2026-05-02T10:19:22.324Z</time></trkpt><trkpt lat="43.1509804" lon="11.4406205"><ele>162.39999999999998</ele><time>2026-05-02T10:19:23.338Z</time></trkpt><trkpt lat="43.1509118" lon="11.4407246"><ele>162.60000000000002</ele><time>2026-05-02T10:19:24.332Z</time></trkpt><trkpt lat="43.1508306" lon="11.4408127"><ele>162.8</ele><time>2026-05-02T10:19:25.331Z</time></trkpt><trkpt lat="43.1507405" lon="11.4408911"><ele>163.0</ele><time>2026-05-02T10:19:26.349Z</time></trkpt><trkpt lat="43.1506339" lon="11.4409643"><ele>163.0</ele><time>2026-05-02T10:19:27.336Z</time></trkpt><trkpt lat="43.1505148" lon="11.4410581"><ele>163.0</ele><time>2026-05-02T10:19:28.344Z</time></trkpt><trkpt lat="43.1503924" lon="11.4411541"><ele>163.0</ele><time>2026-05-02T10:19:29.333Z</time></trkpt><trkpt lat="43.1502623" lon="11.4412542"><ele>163.0</ele><time>2026-05-02T10:19:30.336Z</time></trkpt><trkpt lat="43.1501317" lon="11.4413636"><ele>163.0</ele><time>2026-05-02T10:19:31.347Z</time></trkpt><trkpt lat="43.1500052" lon="11.4414702"><ele>163.0</ele><time>2026-05-02T10:19:32.332Z</time></trkpt><trkpt lat="43.1498808" lon="11.4415744"><ele>163.0</ele><time>2026-05-02T10:19:33.333Z</time></trkpt><trkpt lat="43.1497645" lon="11.441672"><ele>163.0</ele><time>2026-05-02T10:19:34.32Z</time></trkpt><trkpt lat="43.149651" lon="11.4417605"><ele>163.0</ele><time>2026-05-02T10:19:35.34Z</time></trkpt><trkpt lat="43.1495435" lon="11.4418504"><ele>163.0</ele><time>2026-05-02T10:19:36.333Z</time></trkpt><trkpt lat="43.1494331" lon="11.4419449"><ele>163.0</ele><time>2026-05-02T10:19:37.335Z</time></trkpt><trkpt lat="43.1493187" lon="11.4420365"><ele>163.0</ele><time>2026-05-02T10:19:38.333Z</time></trkpt><trkpt lat="43.1492115" lon="11.442128"><ele>163.2</ele><time>2026-05-02T10:19:39.34Z</time></trkpt><trkpt lat="43.1491092" lon="11.4422093"><ele>163.4</ele><time>2026-05-02T10:19:40.34Z</time></trkpt><trkpt lat="43.149014" lon="11.4422771"><ele>163.6</ele><time>2026-05-02T10:19:41.339Z</time></trkpt><trkpt lat="43.1489281" lon="11.442338"><ele>163.79999999999998</ele><time>2026-05-02T10:19:42.331Z</time></trkpt><trkpt lat="43.1488439" lon="11.4424032"><ele>164.0</ele><time>2026-05-02T10:19:43.331Z</time></trkpt><trkpt lat="43.1487755" lon="11.4424735"><ele>164.0</ele><time>2026-05-02T10:19:44.335Z</time></trkpt><trkpt lat="43.1487112" lon="11.4425589"><ele>164.0</ele><time>2026-05-02T10:19:45.323Z</time></trkpt><trkpt lat="43.1486551" lon="11.442646"><ele>164.0</ele><time>2026-05-02T10:19:46.337Z</time></trkpt><trkpt lat="43.1486071" lon="11.4427322"><ele>164.0</ele><time>2026-05-02T10:19:47.344Z</time></trkpt><trkpt lat="43.1485564" lon="11.4428286"><ele>164.0</ele><time>2026-05-02T10:19:48.337Z</time></trkpt><trkpt lat="43.148499" lon="11.4429309"><ele>164.0</ele><time>2026-05-02T10:19:49.342Z</time></trkpt><trkpt lat="43.148422" lon="11.443037"><ele>163.79999999999998</ele><time>2026-05-02T10:19:50.346Z</time></trkpt><trkpt lat="43.1483407" lon="11.4431464"><ele>163.6</ele><time>2026-05-02T10:19:51.337Z</time></trkpt><trkpt lat="43.1482637" lon="11.4432561"><ele>163.4</ele><time>2026-05-02T10:19:52.338Z</time></trkpt><trkpt lat="43.1481897" lon="11.4433567"><ele>163.2</ele><time>2026-05-02T10:19:53.331Z</time></trkpt><trkpt lat="43.1481304" lon="11.4434625"><ele>163.0</ele><time>2026-05-02T10:19:54.353Z</time></trkpt><trkpt lat="43.1480858" lon="11.4435608"><ele>163.0</ele><time>2026-05-02T10:19:55.336Z</time></trkpt><trkpt lat="43.1480678" lon="11.443664"><ele>163.0</ele><time>2026-05-02T10:19:56.334Z</time></trkpt><trkpt lat="43.1480629" lon="11.4437674"><ele>163.0</ele><time>2026-05-02T10:19:57.334Z</time></trkpt><trkpt lat="43.1480798" lon="11.4438726"><ele>163.0</ele><time>2026-05-02T10:19:58.329Z</time></trkpt><trkpt lat="43.1481044" lon="11.4439768"><ele>163.0</ele><time>2026-05-02T10:19:59.333Z</time></trkpt><trkpt lat="43.1481442" lon="11.4440755"><ele>163.0</ele><time>2026-05-02T10:20:00.349Z</time></trkpt><trkpt lat="43.1481739" lon="11.4441587"><ele>163.2</ele><time>2026-05-02T10:20:01.335Z</time></trkpt><trkpt lat="43.1482185" lon="11.4443068"><ele>163.4</ele><time>2026-05-02T10:20:03.345Z</time></trkpt><trkpt lat="43.1482221" lon="11.4444532"><ele>163.6</ele><time>2026-05-02T10:20:05.341Z</time></trkpt><trkpt lat="43.148198" lon="11.4446087"><ele>163.79999999999998</ele><time>2026-05-02T10:20:07.332Z</time></trkpt><trkpt lat="43.1481634" lon="11.4446904"><ele>164.0</ele><time>2026-05-02T10:20:08.329Z</time></trkpt><trkpt lat="43.1481152" lon="11.4447543"><ele>165.39999999999998</ele><time>2026-05-02T10:20:09.326Z</time></trkpt><trkpt lat="43.1480554" lon="11.4447939"><ele>166.8</ele><time>2026-05-02T10:20:10.332Z</time></trkpt><trkpt lat="43.1479361" lon="11.4448186"><ele>168.2</ele><time>2026-05-02T10:20:12.335Z</time></trkpt><trkpt lat="43.1478065" lon="11.4447848"><ele>169.60000000000002</ele><time>2026-05-02T10:20:14.34Z</time></trkpt><trkpt lat="43.1477369" lon="11.4447543"><ele>171.0</ele><time>2026-05-02T10:20:15.336Z</time></trkpt><trkpt lat="43.147663" lon="11.4447236"><ele>171.0</ele><time>2026-05-02T10:20:16.342Z</time></trkpt><trkpt lat="43.1475766" lon="11.4446928"><ele>171.0</ele><time>2026-05-02T10:20:17.33Z</time></trkpt><trkpt lat="43.147486" lon="11.4446649"><ele>171.0</ele><time>2026-05-02T10:20:18.335Z</time></trkpt><trkpt lat="43.1473892" lon="11.4446336"><ele>171.0</ele><time>2026-05-02T10:20:19.336Z</time></trkpt><trkpt lat="43.1472897" lon="11.4446074"><ele>171.0</ele><time>2026-05-02T10:20:20.332Z</time></trkpt><trkpt lat="43.1471864" lon="11.4445896"><ele>169.20000000000002</ele><time>2026-05-02T10:20:21.343Z</time></trkpt><trkpt lat="43.1470844" lon="11.444571"><ele>167.4</ele><time>2026-05-02T10:20:22.335Z</time></trkpt><trkpt lat="43.1469825" lon="11.4445638"><ele>165.6</ele><time>2026-05-02T10:20:23.35Z</time></trkpt><trkpt lat="43.1468822" lon="11.4445576"><ele>163.8</ele><time>2026-05-02T10:20:24.337Z</time></trkpt><trkpt lat="43.1467893" lon="11.444555"><ele>162.0</ele><time>2026-05-02T10:20:25.335Z</time></trkpt><trkpt lat="43.1466965" lon="11.4445683"><ele>162.0</ele><time>2026-05-02T10:20:26.332Z</time></trkpt><trkpt lat="43.1466126" lon="11.4445837"><ele>162.0</ele><time>2026-05-02T10:20:27.336Z</time></trkpt><trkpt lat="43.1465293" lon="11.4445995"><ele>162.0</ele><time>2026-05-02T10:20:28.341Z</time></trkpt><trkpt lat="43.1464406" lon="11.4446296"><ele>162.0</ele><time>2026-05-02T10:20:29.331Z</time></trkpt><trkpt lat="43.1463557" lon="11.4446797"><ele>162.0</ele><time>2026-05-02T10:20:30.332Z</time></trkpt><trkpt lat="43.1462838" lon="11.4447487"><ele>162.0</ele><time>2026-05-02T10:20:31.329Z</time></trkpt><trkpt lat="43.1462316" lon="11.4448341"><ele>162.0</ele><time>2026-05-02T10:20:32.329Z</time></trkpt><trkpt lat="43.1461942" lon="11.4449405"><ele>162.0</ele><time>2026-05-02T10:20:33.335Z</time></trkpt><trkpt lat="43.1461556" lon="11.4450526"><ele>162.0</ele><time>2026-05-02T10:20:34.341Z</time></trkpt><trkpt lat="43.1461318" lon="11.4451626"><ele>162.0</ele><time>2026-05-02T10:20:35.353Z</time></trkpt><trkpt lat="43.1461237" lon="11.4452648"><ele>162.0</ele><time>2026-05-02T10:20:36.343Z</time></trkpt><trkpt lat="43.1461341" lon="11.4453689"><ele>162.0</ele><time>2026-05-02T10:20:37.331Z</time></trkpt><trkpt lat="43.1461591" lon="11.4454796"><ele>161.8</ele><time>2026-05-02T10:20:38.338Z</time></trkpt><trkpt lat="43.1461958" lon="11.4456022"><ele>161.6</ele><time>2026-05-02T10:20:39.326Z</time></trkpt><trkpt lat="43.14623" lon="11.4457303"><ele>161.4</ele><time>2026-05-02T10:20:40.333Z</time></trkpt><trkpt lat="43.1462627" lon="11.4458807"><ele>161.20000000000002</ele><time>2026-05-02T10:20:41.339Z</time></trkpt><trkpt lat="43.1462996" lon="11.4460391"><ele>161.0</ele><time>2026-05-02T10:20:42.339Z</time></trkpt><trkpt lat="43.1463365" lon="11.446199"><ele>162.0</ele><time>2026-05-02T10:20:43.336Z</time></trkpt><trkpt lat="43.1463776" lon="11.4463457"><ele>163.0</ele><time>2026-05-02T10:20:44.334Z</time></trkpt><trkpt lat="43.1464124" lon="11.4464734"><ele>164.0</ele><time>2026-05-02T10:20:45.336Z</time></trkpt><trkpt lat="43.1464392" lon="11.4465982"><ele>165.0</ele><time>2026-05-02T10:20:46.335Z</time></trkpt><trkpt lat="43.1464485" lon="11.4467137"><ele>166.0</ele><time>2026-05-02T10:20:47.326Z</time></trkpt><trkpt lat="43.1464315" lon="11.4468117"><ele>166.0</ele><time>2026-05-02T10:20:48.34Z</time></trkpt><trkpt lat="43.1463968" lon="11.4469015"><ele>166.0</ele><time>2026-05-02T10:20:49.319Z</time></trkpt><trkpt lat="43.1463246" lon="11.4469273"><ele>166.0</ele><time>2026-05-02T10:20:50.325Z</time></trkpt><trkpt lat="43.1462403" lon="11.44692"><ele>166.0</ele><time>2026-05-02T10:20:51.335Z</time></trkpt><trkpt lat="43.1461314" lon="11.4469026"><ele>166.0</ele><time>2026-05-02T10:20:52.333Z</time></trkpt><trkpt lat="43.1460103" lon="11.4468808"><ele>166.0</ele><time>2026-05-02T10:20:53.34Z</time></trkpt><trkpt lat="43.1458921" lon="11.4468686"><ele>166.0</ele><time>2026-05-02T10:20:54.329Z</time></trkpt><trkpt lat="43.1457787" lon="11.4468671"><ele>166.0</ele><time>2026-05-02T10:20:55.34Z</time></trkpt><trkpt lat="43.145674" lon="11.4468803"><ele>166.0</ele><time>2026-05-02T10:20:56.33Z</time></trkpt><trkpt lat="43.1455675" lon="11.4469098"><ele>166.0</ele><time>2026-05-02T10:20:57.332Z</time></trkpt><trkpt lat="43.1454674" lon="11.4469574"><ele>166.5</ele><time>2026-05-02T10:20:58.319Z</time></trkpt><trkpt lat="43.1453683" lon="11.4470322"><ele>167.0</ele><time>2026-05-02T10:20:59.327Z</time></trkpt><trkpt lat="43.1452691" lon="11.4471355"><ele>167.5</ele><time>2026-05-02T10:21:00.331Z</time></trkpt><trkpt lat="43.1451708" lon="11.4472391"><ele>168.0</ele><time>2026-05-02T10:21:01.345Z</time></trkpt><trkpt lat="43.1450829" lon="11.4473453"><ele>168.0</ele><time>2026-05-02T10:21:02.327Z</time></trkpt><trkpt lat="43.1450116" lon="11.4474418"><ele>168.0</ele><time>2026-05-02T10:21:03.348Z</time></trkpt><trkpt lat="43.1449575" lon="11.4475439"><ele>168.0</ele><time>2026-05-02T10:21:04.337Z</time></trkpt><trkpt lat="43.1449217" lon="11.4476439"><ele>168.0</ele><time>2026-05-02T10:21:05.342Z</time></trkpt><trkpt lat="43.1449081" lon="11.4477405"><ele>168.0</ele><time>2026-05-02T10:21:06.339Z</time></trkpt><trkpt lat="43.1449048" lon="11.4478428"><ele>168.0</ele><time>2026-05-02T10:21:07.337Z</time></trkpt><trkpt lat="43.1449032" lon="11.4479498"><ele>167.8</ele><time>2026-05-02T10:21:08.333Z</time></trkpt><trkpt lat="43.1449063" lon="11.4480785"><ele>167.60000000000002</ele><time>2026-05-02T10:21:09.332Z</time></trkpt><trkpt lat="43.1449025" lon="11.4482085"><ele>167.39999999999998</ele><time>2026-05-02T10:21:10.336Z</time></trkpt><trkpt lat="43.1448878" lon="11.4483178"><ele>167.2</ele><time>2026-05-02T10:21:11.342Z</time></trkpt><trkpt lat="43.1448493" lon="11.4484246"><ele>167.0</ele><time>2026-05-02T10:21:12.328Z</time></trkpt><trkpt lat="43.1447796" lon="11.4485104"><ele>167.0</ele><time>2026-05-02T10:21:13.335Z</time></trkpt><trkpt lat="43.1447074" lon="11.4485711"><ele>167.0</ele><time>2026-05-02T10:21:14.34Z</time></trkpt><trkpt lat="43.1446019" lon="11.4485913"><ele>167.0</ele><time>2026-05-02T10:21:15.339Z</time></trkpt><trkpt lat="43.144475" lon="11.4485845"><ele>167.0</ele><time>2026-05-02T10:21:16.329Z</time></trkpt><trkpt lat="43.1443423" lon="11.4485604"><ele>167.0</ele><time>2026-05-02T10:21:17.332Z</time></trkpt><trkpt lat="43.144206" lon="11.4485264"><ele>167.0</ele><time>2026-05-02T10:21:18.346Z</time></trkpt><trkpt lat="43.1440686" lon="11.4484687"><ele>167.0</ele><time>2026-05-02T10:21:19.338Z</time></trkpt><trkpt lat="43.1439177" lon="11.448389"><ele>167.0</ele><time>2026-05-02T10:21:20.341Z</time></trkpt><trkpt lat="43.1437735" lon="11.4483018"><ele>168.25</ele><time>2026-05-02T10:21:21.334Z</time></trkpt><trkpt lat="43.1436436" lon="11.4482115"><ele>169.5</ele><time>2026-05-02T10:21:22.334Z</time></trkpt><trkpt lat="43.1435255" lon="11.448123"><ele>170.75</ele><time>2026-05-02T10:21:23.336Z</time></trkpt><trkpt lat="43.1434033" lon="11.4480418"><ele>172.0</ele><time>2026-05-02T10:21:24.334Z</time></trkpt><trkpt lat="43.1432827" lon="11.4479551"><ele>170.2</ele><time>2026-05-02T10:21:25.332Z</time></trkpt><trkpt lat="43.143171" lon="11.4478721"><ele>168.39999999999998</ele><time>2026-05-02T10:21:26.332Z</time></trkpt><trkpt lat="43.1430658" lon="11.4478045"><ele>166.60000000000002</ele><time>2026-05-02T10:21:27.337Z</time></trkpt><trkpt lat="43.1429681" lon="11.4477596"><ele>164.8</ele><time>2026-05-02T10:21:28.339Z</time></trkpt><trkpt lat="43.1428712" lon="11.4477278"><ele>163.0</ele><time>2026-05-02T10:21:29.328Z</time></trkpt><trkpt lat="43.1427718" lon="11.4477077"><ele>163.0</ele><time>2026-05-02T10:21:30.325Z</time></trkpt><trkpt lat="43.1426708" lon="11.4476956"><ele>163.0</ele><time>2026-05-02T10:21:31.342Z</time></trkpt><trkpt lat="43.1425481" lon="11.4477083"><ele>163.0</ele><time>2026-05-02T10:21:32.326Z</time></trkpt><trkpt lat="43.1424141" lon="11.4477317"><ele>163.0</ele><time>2026-05-02T10:21:33.34Z</time></trkpt><trkpt lat="43.1422596" lon="11.4477704"><ele>162.66666666666669</ele><time>2026-05-02T10:21:34.339Z</time></trkpt><trkpt lat="43.1421023" lon="11.4478238"><ele>162.33333333333334</ele><time>2026-05-02T10:21:35.339Z</time></trkpt><trkpt lat="43.1419438" lon="11.4478846"><ele>162.0</ele><time>2026-05-02T10:21:36.326Z</time></trkpt><trkpt lat="43.1417919" lon="11.4479433"><ele>165.0</ele><time>2026-05-02T10:21:37.357Z</time></trkpt><trkpt lat="43.1416357" lon="11.4479982"><ele>168.0</ele><time>2026-05-02T10:21:38.335Z</time></trkpt><trkpt lat="43.1414787" lon="11.4480481"><ele>171.0</ele><time>2026-05-02T10:21:39.34Z</time></trkpt><trkpt lat="43.1413355" lon="11.4480774"><ele>171.0</ele><time>2026-05-02T10:21:40.331Z</time></trkpt><trkpt lat="43.1411954" lon="11.448101"><ele>171.0</ele><time>2026-05-02T10:21:41.344Z</time></trkpt><trkpt lat="43.1410504" lon="11.4481225"><ele>171.0</ele><time>2026-05-02T10:21:42.342Z</time></trkpt><trkpt lat="43.1409176" lon="11.4481473"><ele>171.0</ele><time>2026-05-02T10:21:43.327Z</time></trkpt><trkpt lat="43.1407999" lon="11.4481684"><ele>170.25</ele><time>2026-05-02T10:21:44.34Z</time></trkpt><trkpt lat="43.1406925" lon="11.4481811"><ele>169.5</ele><time>2026-05-02T10:21:45.343Z</time></trkpt><trkpt lat="43.1405842" lon="11.4481797"><ele>168.75</ele><time>2026-05-02T10:21:46.331Z</time></trkpt><trkpt lat="43.1404623" lon="11.4481603"><ele>168.0</ele><time>2026-05-02T10:21:47.337Z</time></trkpt><trkpt lat="43.1403318" lon="11.4481122"><ele>168.0</ele><time>2026-05-02T10:21:48.319Z</time></trkpt><trkpt lat="43.1401973" lon="11.448058"><ele>168.0</ele><time>2026-05-02T10:21:49.342Z</time></trkpt><trkpt lat="43.140076" lon="11.4479971"><ele>168.0</ele><time>2026-05-02T10:21:50.337Z</time></trkpt><trkpt lat="43.1399753" lon="11.4479399"><ele>168.0</ele><time>2026-05-02T10:21:51.331Z</time></trkpt><trkpt lat="43.1398959" lon="11.4478879"><ele>166.66666666666666</ele><time>2026-05-02T10:21:52.337Z</time></trkpt><trkpt lat="43.1398246" lon="11.4478455"><ele>165.33333333333334</ele><time>2026-05-02T10:21:53.328Z</time></trkpt><trkpt lat="43.1397501" lon="11.4478149"><ele>164.0</ele><time>2026-05-02T10:21:54.335Z</time></trkpt><trkpt lat="43.1396586" lon="11.4478196"><ele>162.66666666666669</ele><time>2026-05-02T10:21:55.334Z</time></trkpt><trkpt lat="43.1395676" lon="11.4478544"><ele>161.33333333333334</ele><time>2026-05-02T10:21:56.329Z</time></trkpt><trkpt lat="43.1394803" lon="11.4479174"><ele>160.0</ele><time>2026-05-02T10:21:57.331Z</time></trkpt><trkpt lat="43.1394138" lon="11.4480026"><ele>160.0</ele><time>2026-05-02T10:21:58.348Z</time></trkpt><trkpt lat="43.1393602" lon="11.4481254"><ele>160.0</ele><time>2026-05-02T10:21:59.339Z</time></trkpt><trkpt lat="43.1393284" lon="11.4482543"><ele>160.0</ele><time>2026-05-02T10:22:00.332Z</time></trkpt><trkpt lat="43.139307" lon="11.4484116"><ele>160.0</ele><time>2026-05-02T10:22:01.35Z</time></trkpt><trkpt lat="43.1392948" lon="11.4485733"><ele>160.0</ele><time>2026-05-02T10:22:02.331Z</time></trkpt><trkpt lat="43.1392895" lon="11.4487629"><ele>160.0</ele><time>2026-05-02T10:22:03.343Z</time></trkpt><trkpt lat="43.1392846" lon="11.4489632"><ele>160.0</ele><time>2026-05-02T10:22:04.342Z</time></trkpt><trkpt lat="43.1392782" lon="11.4491678"><ele>160.0</ele><time>2026-05-02T10:22:05.326Z</time></trkpt><trkpt lat="43.1392775" lon="11.4493722"><ele>160.0</ele><time>2026-05-02T10:22:06.342Z</time></trkpt><trkpt lat="43.1392755" lon="11.4495512"><ele>160.0</ele><time>2026-05-02T10:22:07.331Z</time></trkpt><trkpt lat="43.1392681" lon="11.4497118"><ele>160.0</ele><time>2026-05-02T10:22:08.341Z</time></trkpt><trkpt lat="43.1392687" lon="11.4498569"><ele>160.0</ele><time>2026-05-02T10:22:09.336Z</time></trkpt><trkpt lat="43.1392719" lon="11.4499982"><ele>160.0</ele><time>2026-05-02T10:22:10.334Z</time></trkpt><trkpt lat="43.1392758" lon="11.4501334"><ele>160.0</ele><time>2026-05-02T10:22:11.33Z</time></trkpt><trkpt lat="43.1392869" lon="11.4502761"><ele>160.0</ele><time>2026-05-02T10:22:12.331Z</time></trkpt><trkpt lat="43.1392984" lon="11.4504187"><ele>160.0</ele><time>2026-05-02T10:22:13.332Z</time></trkpt><trkpt lat="43.1393031" lon="11.4505561"><ele>160.0</ele><time>2026-05-02T10:22:14.334Z</time></trkpt><trkpt lat="43.1392915" lon="11.4506856"><ele>160.0</ele><time>2026-05-02T10:22:15.343Z</time></trkpt><trkpt lat="43.1392682" lon="11.4508199"><ele>160.0</ele><time>2026-05-02T10:22:16.338Z</time></trkpt><trkpt lat="43.1392232" lon="11.4509555"><ele>160.5</ele><time>2026-05-02T10:22:17.337Z</time></trkpt><trkpt lat="43.1391573" lon="11.4511132"><ele>161.0</ele><time>2026-05-02T10:22:18.331Z</time></trkpt><trkpt lat="43.1390652" lon="11.4512786"><ele>161.5</ele><time>2026-05-02T10:22:19.338Z</time></trkpt><trkpt lat="43.1389686" lon="11.4514549"><ele>162.0</ele><time>2026-05-02T10:22:20.331Z</time></trkpt><trkpt lat="43.1388794" lon="11.4516209"><ele>161.25</ele><time>2026-05-02T10:22:21.348Z</time></trkpt><trkpt lat="43.1387912" lon="11.4517823"><ele>160.5</ele><time>2026-05-02T10:22:22.34Z</time></trkpt><trkpt lat="43.1387094" lon="11.4519308"><ele>159.75</ele><time>2026-05-02T10:22:23.343Z</time></trkpt><trkpt lat="43.138626" lon="11.4520591"><ele>159.0</ele><time>2026-05-02T10:22:24.327Z</time></trkpt><trkpt lat="43.1385422" lon="11.4521782"><ele>159.0</ele><time>2026-05-02T10:22:25.332Z</time></trkpt><trkpt lat="43.1384506" lon="11.4523023"><ele>159.0</ele><time>2026-05-02T10:22:26.329Z</time></trkpt><trkpt lat="43.138353" lon="11.4524223"><ele>159.0</ele><time>2026-05-02T10:22:27.331Z</time></trkpt><trkpt lat="43.1382392" lon="11.4525403"><ele>159.0</ele><time>2026-05-02T10:22:28.326Z</time></trkpt><trkpt lat="43.1381152" lon="11.4526484"><ele>157.0</ele><time>2026-05-02T10:22:29.333Z</time></trkpt><trkpt lat="43.137968" lon="11.4527605"><ele>155.0</ele><time>2026-05-02T10:22:30.336Z</time></trkpt><trkpt lat="43.1378135" lon="11.4528543"><ele>153.0</ele><time>2026-05-02T10:22:31.334Z</time></trkpt><trkpt lat="43.1376811" lon="11.4529354"><ele>153.0</ele><time>2026-05-02T10:22:32.339Z</time></trkpt><trkpt lat="43.1375643" lon="11.4530053"><ele>153.0</ele><time>2026-05-02T10:22:33.341Z</time></trkpt><trkpt lat="43.1374557" lon="11.4530891"><ele>153.0</ele><time>2026-05-02T10:22:34.329Z</time></trkpt><trkpt lat="43.1373394" lon="11.4531869"><ele>153.0</ele><time>2026-05-02T10:22:35.335Z</time></trkpt><trkpt lat="43.1372162" lon="11.4532997"><ele>153.0</ele><time>2026-05-02T10:22:36.334Z</time></trkpt><trkpt lat="43.1370869" lon="11.4534245"><ele>153.0</ele><time>2026-05-02T10:22:37.339Z</time></trkpt><trkpt lat="43.1369657" lon="11.4535539"><ele>153.0</ele><time>2026-05-02T10:22:38.331Z</time></trkpt><trkpt lat="43.1368491" lon="11.453677"><ele>152.5</ele><time>2026-05-02T10:22:39.341Z</time></trkpt><trkpt lat="43.1367305" lon="11.4538065"><ele>152.0</ele><time>2026-05-02T10:22:40.343Z</time></trkpt><trkpt lat="43.1366227" lon="11.4539398"><ele>151.5</ele><time>2026-05-02T10:22:41.334Z</time></trkpt><trkpt lat="43.1365184" lon="11.4540836"><ele>151.0</ele><time>2026-05-02T10:22:42.356Z</time></trkpt><trkpt lat="43.1364202" lon="11.4542306"><ele>151.0</ele><time>2026-05-02T10:22:43.34Z</time></trkpt><trkpt lat="43.1363277" lon="11.4543842"><ele>151.0</ele><time>2026-05-02T10:22:44.339Z</time></trkpt><trkpt lat="43.13624" lon="11.4545515"><ele>151.0</ele><time>2026-05-02T10:22:45.339Z</time></trkpt><trkpt lat="43.1361569" lon="11.4547242"><ele>151.0</ele><time>2026-05-02T10:22:46.339Z</time></trkpt><trkpt lat="43.1360696" lon="11.4549106"><ele>152.25</ele><time>2026-05-02T10:22:47.335Z</time></trkpt><trkpt lat="43.1359835" lon="11.455101"><ele>153.5</ele><time>2026-05-02T10:22:48.331Z</time></trkpt><trkpt lat="43.135901" lon="11.4552743"><ele>154.75</ele><time>2026-05-02T10:22:49.336Z</time></trkpt><trkpt lat="43.1358207" lon="11.4554162"><ele>156.0</ele><time>2026-05-02T10:22:50.346Z</time></trkpt><trkpt lat="43.1357276" lon="11.455553"><ele>154.66666666666666</ele><time>2026-05-02T10:22:51.329Z</time></trkpt><trkpt lat="43.135617" lon="11.4556947"><ele>153.33333333333331</ele><time>2026-05-02T10:22:52.335Z</time></trkpt><trkpt lat="43.1354805" lon="11.4558414"><ele>152.0</ele><time>2026-05-02T10:22:53.333Z</time></trkpt><trkpt lat="43.1353394" lon="11.4559934"><ele>152.0</ele><time>2026-05-02T10:22:54.341Z</time></trkpt><trkpt lat="43.1351955" lon="11.4561385"><ele>152.0</ele><time>2026-05-02T10:22:55.335Z</time></trkpt><trkpt lat="43.1350563" lon="11.4562815"><ele>152.0</ele><time>2026-05-02T10:22:56.335Z</time></trkpt><trkpt lat="43.13492" lon="11.4564206"><ele>152.0</ele><time>2026-05-02T10:22:57.329Z</time></trkpt><trkpt lat="43.1347787" lon="11.4565601"><ele>152.0</ele><time>2026-05-02T10:22:58.335Z</time></trkpt><trkpt lat="43.1346442" lon="11.4566994"><ele>152.0</ele><time>2026-05-02T10:22:59.336Z</time></trkpt><trkpt lat="43.1345082" lon="11.4568375"><ele>152.0</ele><time>2026-05-02T10:23:00.341Z</time></trkpt><trkpt lat="43.1343692" lon="11.4569773"><ele>152.0</ele><time>2026-05-02T10:23:01.335Z</time></trkpt><trkpt lat="43.1342227" lon="11.4571216"><ele>152.0</ele><time>2026-05-02T10:23:02.33Z</time></trkpt><trkpt lat="43.1340761" lon="11.4572729"><ele>151.33333333333331</ele><time>2026-05-02T10:23:03.347Z</time></trkpt><trkpt lat="43.1339296" lon="11.4574202"><ele>150.66666666666666</ele><time>2026-05-02T10:23:04.331Z</time></trkpt><trkpt lat="43.1337855" lon="11.457556"><ele>150.0</ele><time>2026-05-02T10:23:05.338Z</time></trkpt><trkpt lat="43.1336464" lon="11.4576835"><ele>150.0</ele><time>2026-05-02T10:23:06.328Z</time></trkpt><trkpt lat="43.1335153" lon="11.4577943"><ele>150.0</ele><time>2026-05-02T10:23:07.335Z</time></trkpt><trkpt lat="43.1333967" lon="11.4578946"><ele>150.0</ele><time>2026-05-02T10:23:08.344Z</time></trkpt><trkpt lat="43.1332846" lon="11.4579895"><ele>150.0</ele><time>2026-05-02T10:23:09.337Z</time></trkpt><trkpt lat="43.1331802" lon="11.458091"><ele>149.25</ele><time>2026-05-02T10:23:10.346Z</time></trkpt><trkpt lat="43.1330769" lon="11.4582107"><ele>148.5</ele><time>2026-05-02T10:23:11.335Z</time></trkpt><trkpt lat="43.1329757" lon="11.4583371"><ele>147.75</ele><time>2026-05-02T10:23:12.344Z</time></trkpt><trkpt lat="43.1328756" lon="11.4584649"><ele>147.0</ele><time>2026-05-02T10:23:13.331Z</time></trkpt><trkpt lat="43.1327873" lon="11.4585777"><ele>147.0</ele><time>2026-05-02T10:23:14.344Z</time></trkpt><trkpt lat="43.1327044" lon="11.458687"><ele>147.0</ele><time>2026-05-02T10:23:15.333Z</time></trkpt><trkpt lat="43.1326264" lon="11.4588139"><ele>147.0</ele><time>2026-05-02T10:23:16.33Z</time></trkpt><trkpt lat="43.1325686" lon="11.4589681"><ele>147.0</ele><time>2026-05-02T10:23:17.337Z</time></trkpt><trkpt lat="43.1325137" lon="11.4591373"><ele>146.5</ele><time>2026-05-02T10:23:18.332Z</time></trkpt><trkpt lat="43.1324608" lon="11.4593111"><ele>146.0</ele><time>2026-05-02T10:23:19.33Z</time></trkpt><trkpt lat="43.1324197" lon="11.4594701"><ele>145.5</ele><time>2026-05-02T10:23:20.325Z</time></trkpt><trkpt lat="43.1323813" lon="11.4596165"><ele>145.0</ele><time>2026-05-02T10:23:21.336Z</time></trkpt><trkpt lat="43.1323513" lon="11.4597485"><ele>145.0</ele><time>2026-05-02T10:23:22.345Z</time></trkpt><trkpt lat="43.132318" lon="11.4598818"><ele>145.0</ele><time>2026-05-02T10:23:23.327Z</time></trkpt><trkpt lat="43.1322909" lon="11.4600016"><ele>145.0</ele><time>2026-05-02T10:23:24.336Z</time></trkpt><trkpt lat="43.1322603" lon="11.4601199"><ele>145.0</ele><time>2026-05-02T10:23:25.338Z</time></trkpt><trkpt lat="43.1322213" lon="11.4602584"><ele>145.0</ele><time>2026-05-02T10:23:26.338Z</time></trkpt><trkpt lat="43.1321846" lon="11.4604112"><ele>145.25</ele><time>2026-05-02T10:23:27.339Z</time></trkpt><trkpt lat="43.1321481" lon="11.460567"><ele>145.5</ele><time>2026-05-02T10:23:28.329Z</time></trkpt><trkpt lat="43.1321169" lon="11.4607267"><ele>145.75</ele><time>2026-05-02T10:23:29.346Z</time></trkpt><trkpt lat="43.1320998" lon="11.4608743"><ele>146.0</ele><time>2026-05-02T10:23:30.336Z</time></trkpt><trkpt lat="43.1320941" lon="11.4610243"><ele>146.0</ele><time>2026-05-02T10:23:31.343Z</time></trkpt><trkpt lat="43.1321124" lon="11.4611903"><ele>146.0</ele><time>2026-05-02T10:23:32.334Z</time></trkpt><trkpt lat="43.1321412" lon="11.4613427"><ele>146.0</ele><time>2026-05-02T10:23:33.343Z</time></trkpt><trkpt lat="43.132164" lon="11.4614696"><ele>146.0</ele><time>2026-05-02T10:23:34.34Z</time></trkpt><trkpt lat="43.1321734" lon="11.4615704"><ele>146.0</ele><time>2026-05-02T10:23:35.335Z</time></trkpt><trkpt lat="43.1321691" lon="11.4616601"><ele>146.0</ele><time>2026-05-02T10:23:36.335Z</time></trkpt><trkpt lat="43.1321188" lon="11.4617415"><ele>146.0</ele><time>2026-05-02T10:23:38.343Z</time></trkpt><trkpt lat="43.1320293" lon="11.4617446"><ele>146.0</ele><time>2026-05-02T10:23:40.333Z</time></trkpt><trkpt lat="43.1319323" lon="11.4616465"><ele>146.0</ele><time>2026-05-02T10:23:42.336Z</time></trkpt><trkpt lat="43.1318608" lon="11.4615747"><ele>146.0</ele><time>2026-05-02T10:23:44.339Z</time></trkpt><trkpt lat="43.1317656" lon="11.4615622"><ele>146.0</ele><time>2026-05-02T10:23:46.338Z</time></trkpt><trkpt lat="43.1316517" lon="11.4615498"><ele>146.0</ele><time>2026-05-02T10:23:48.338Z</time></trkpt><trkpt lat="43.1315258" lon="11.4615314"><ele>146.0</ele><time>2026-05-02T10:23:50.33Z</time></trkpt><trkpt lat="43.1314553" lon="11.4615066"><ele>146.0</ele><time>2026-05-02T10:23:51.336Z</time></trkpt><trkpt lat="43.1313811" lon="11.4614473"><ele>146.0</ele><time>2026-05-02T10:23:52.339Z</time></trkpt><trkpt lat="43.1313096" lon="11.4613578"><ele>145.4</ele><time>2026-05-02T10:23:53.33Z</time></trkpt><trkpt lat="43.1312372" lon="11.4612444"><ele>144.8</ele><time>2026-05-02T10:23:54.344Z</time></trkpt><trkpt lat="43.1311626" lon="11.4611161"><ele>144.20000000000002</ele><time>2026-05-02T10:23:55.337Z</time></trkpt><trkpt lat="43.1311004" lon="11.4609993"><ele>143.6</ele><time>2026-05-02T10:23:56.334Z</time></trkpt><trkpt lat="43.1310268" lon="11.4609183"><ele>143.0</ele><time>2026-05-02T10:23:57.344Z</time></trkpt><trkpt lat="43.1309549" lon="11.4608622"><ele>143.0</ele><time>2026-05-02T10:23:58.338Z</time></trkpt><trkpt lat="43.1308779" lon="11.4608217"><ele>143.0</ele><time>2026-05-02T10:23:59.332Z</time></trkpt><trkpt lat="43.1307917" lon="11.4607968"><ele>143.0</ele><time>2026-05-02T10:24:00.338Z</time></trkpt><trkpt lat="43.1306982" lon="11.4607746"><ele>143.0</ele><time>2026-05-02T10:24:01.337Z</time></trkpt><trkpt lat="43.1306103" lon="11.4607334"><ele>143.0</ele><time>2026-05-02T10:24:02.337Z</time></trkpt><trkpt lat="43.1305484" lon="11.4606723"><ele>143.0</ele><time>2026-05-02T10:24:03.34Z</time></trkpt><trkpt lat="43.1304952" lon="11.4605888"><ele>142.8</ele><time>2026-05-02T10:24:04.341Z</time></trkpt><trkpt lat="43.1304558" lon="11.4604824"><ele>142.60000000000002</ele><time>2026-05-02T10:24:05.339Z</time></trkpt><trkpt lat="43.1304218" lon="11.4603491"><ele>142.39999999999998</ele><time>2026-05-02T10:24:06.329Z</time></trkpt><trkpt lat="43.1303816" lon="11.4601845"><ele>142.2</ele><time>2026-05-02T10:24:07.335Z</time></trkpt><trkpt lat="43.1303432" lon="11.4600125"><ele>142.0</ele><time>2026-05-02T10:24:08.337Z</time></trkpt><trkpt lat="43.1303082" lon="11.4598617"><ele>142.5</ele><time>2026-05-02T10:24:09.335Z</time></trkpt><trkpt lat="43.1302682" lon="11.4597046"><ele>143.0</ele><time>2026-05-02T10:24:10.33Z</time></trkpt><trkpt lat="43.130235" lon="11.4595482"><ele>143.5</ele><time>2026-05-02T10:24:11.331Z</time></trkpt><trkpt lat="43.1301946" lon="11.4593814"><ele>144.0</ele><time>2026-05-02T10:24:12.334Z</time></trkpt><trkpt lat="43.1301601" lon="11.4592216"><ele>144.2</ele><time>2026-05-02T10:24:13.326Z</time></trkpt><trkpt lat="43.1301299" lon="11.4590725"><ele>144.4</ele><time>2026-05-02T10:24:14.342Z</time></trkpt><trkpt lat="43.1300964" lon="11.4589291"><ele>144.6</ele><time>2026-05-02T10:24:15.332Z</time></trkpt><trkpt lat="43.1300635" lon="11.4587936"><ele>144.8</ele><time>2026-05-02T10:24:16.353Z</time></trkpt><trkpt lat="43.1300328" lon="11.4586672"><ele>145.0</ele><time>2026-05-02T10:24:17.333Z</time></trkpt><trkpt lat="43.1300074" lon="11.4585632"><ele>146.2</ele><time>2026-05-02T10:24:18.323Z</time></trkpt><trkpt lat="43.1299937" lon="11.4584145"><ele>147.4</ele><time>2026-05-02T10:24:20.327Z</time></trkpt><trkpt lat="43.1299885" lon="11.4582425"><ele>148.6</ele><time>2026-05-02T10:24:22.334Z</time></trkpt><trkpt lat="43.1299667" lon="11.458146"><ele>149.8</ele><time>2026-05-02T10:24:23.338Z</time></trkpt><trkpt lat="43.1299186" lon="11.4580421"><ele>151.0</ele><time>2026-05-02T10:24:24.331Z</time></trkpt><trkpt lat="43.1298459" lon="11.4579022"><ele>154.33333333333334</ele><time>2026-05-02T10:24:25.336Z</time></trkpt><trkpt lat="43.1297458" lon="11.4577367"><ele>157.66666666666666</ele><time>2026-05-02T10:24:26.332Z</time></trkpt><trkpt lat="43.1296326" lon="11.4575593"><ele>161.0</ele><time>2026-05-02T10:24:27.333Z</time></trkpt><trkpt lat="43.1295256" lon="11.4573823"><ele>161.0</ele><time>2026-05-02T10:24:28.328Z</time></trkpt><trkpt lat="43.1294197" lon="11.4571959"><ele>161.0</ele><time>2026-05-02T10:24:29.334Z</time></trkpt><trkpt lat="43.1293115" lon="11.4569926"><ele>161.0</ele><time>2026-05-02T10:24:30.341Z</time></trkpt><trkpt lat="43.1291816" lon="11.4567691"><ele>167.0</ele><time>2026-05-02T10:24:31.335Z</time></trkpt><trkpt lat="43.12905" lon="11.4565156"><ele>173.0</ele><time>2026-05-02T10:24:32.345Z</time></trkpt><trkpt lat="43.1289127" lon="11.4562636"><ele>173.66666666666666</ele><time>2026-05-02T10:24:33.334Z</time></trkpt><trkpt lat="43.1287963" lon="11.4560527"><ele>174.33333333333334</ele><time>2026-05-02T10:24:34.335Z</time></trkpt><trkpt lat="43.1286922" lon="11.4558847"><ele>175.0</ele><time>2026-05-02T10:24:35.338Z</time></trkpt><trkpt lat="43.1286024" lon="11.4557367"><ele>175.0</ele><time>2026-05-02T10:24:36.34Z</time></trkpt><trkpt lat="43.1285128" lon="11.4556168"><ele>175.0</ele><time>2026-05-02T10:24:37.339Z</time></trkpt><trkpt lat="43.1284067" lon="11.4555161"><ele>175.0</ele><time>2026-05-02T10:24:38.334Z</time></trkpt><trkpt lat="43.1282905" lon="11.4554324"><ele>175.0</ele><time>2026-05-02T10:24:39.331Z</time></trkpt><trkpt lat="43.1281717" lon="11.4553664"><ele>179.5</ele><time>2026-05-02T10:24:40.336Z</time></trkpt><trkpt lat="43.1280451" lon="11.4553145"><ele>184.0</ele><time>2026-05-02T10:24:41.34Z</time></trkpt><trkpt lat="43.1279054" lon="11.4552562"><ele>188.5</ele><time>2026-05-02T10:24:42.339Z</time></trkpt><trkpt lat="43.1277761" lon="11.4551941"><ele>193.0</ele><time>2026-05-02T10:24:43.339Z</time></trkpt><trkpt lat="43.1276513" lon="11.4551308"><ele>193.0</ele><time>2026-05-02T10:24:44.33Z</time></trkpt><trkpt lat="43.1275384" lon="11.4550752"><ele>193.0</ele><time>2026-05-02T10:24:45.323Z</time></trkpt><trkpt lat="43.1274413" lon="11.4550326"><ele>193.0</ele><time>2026-05-02T10:24:46.332Z</time></trkpt><trkpt lat="43.127349" lon="11.4549847"><ele>193.0</ele><time>2026-05-02T10:24:47.331Z</time></trkpt><trkpt lat="43.1272582" lon="11.4549317"><ele>193.0</ele><time>2026-05-02T10:24:48.33Z</time></trkpt><trkpt lat="43.1271839" lon="11.4548681"><ele>195.2</ele><time>2026-05-02T10:24:49.342Z</time></trkpt><trkpt lat="43.1271237" lon="11.4547861"><ele>197.4</ele><time>2026-05-02T10:24:50.327Z</time></trkpt><trkpt lat="43.1270631" lon="11.4546893"><ele>199.6</ele><time>2026-05-02T10:24:51.34Z</time></trkpt><trkpt lat="43.1270118" lon="11.4545787"><ele>201.79999999999998</ele><time>2026-05-02T10:24:52.34Z</time></trkpt><trkpt lat="43.1269603" lon="11.4544641"><ele>204.0</ele><time>2026-05-02T10:24:53.348Z</time></trkpt><trkpt lat="43.1269091" lon="11.4543421"><ele>206.25</ele><time>2026-05-02T10:24:54.339Z</time></trkpt><trkpt lat="43.126863" lon="11.4542029"><ele>208.5</ele><time>2026-05-02T10:24:55.338Z</time></trkpt><trkpt lat="43.1268357" lon="11.4540485"><ele>210.75</ele><time>2026-05-02T10:24:56.331Z</time></trkpt><trkpt lat="43.1268145" lon="11.45388"><ele>213.0</ele><time>2026-05-02T10:24:57.343Z</time></trkpt><trkpt lat="43.1268049" lon="11.4537006"><ele>214.5</ele><time>2026-05-02T10:24:58.336Z</time></trkpt><trkpt lat="43.126794" lon="11.4535115"><ele>216.0</ele><time>2026-05-02T10:24:59.337Z</time></trkpt><trkpt lat="43.1267815" lon="11.4533073"><ele>217.5</ele><time>2026-05-02T10:25:00.331Z</time></trkpt><trkpt lat="43.1267806" lon="11.4530867"><ele>219.0</ele><time>2026-05-02T10:25:01.336Z</time></trkpt><trkpt lat="43.1267849" lon="11.4528592"><ele>220.0</ele><time>2026-05-02T10:25:02.327Z</time></trkpt><trkpt lat="43.1267876" lon="11.4526183"><ele>221.0</ele><time>2026-05-02T10:25:03.334Z</time></trkpt><trkpt lat="43.1267829" lon="11.4523551"><ele>222.0</ele><time>2026-05-02T10:25:04.328Z</time></trkpt><trkpt lat="43.1267729" lon="11.4520777"><ele>223.0</ele><time>2026-05-02T10:25:05.333Z</time></trkpt><trkpt lat="43.1267423" lon="11.4517765"><ele>224.0</ele><time>2026-05-02T10:25:06.332Z</time></trkpt><trkpt lat="43.1267055" lon="11.4514844"><ele>225.0</ele><time>2026-05-02T10:25:07.336Z</time></trkpt><trkpt lat="43.1266576" lon="11.4512209"><ele>225.0</ele><time>2026-05-02T10:25:08.331Z</time></trkpt><trkpt lat="43.1265862" lon="11.4509716"><ele>225.0</ele><time>2026-05-02T10:25:09.341Z</time></trkpt><trkpt lat="43.1265034" lon="11.4507217"><ele>225.0</ele><time>2026-05-02T10:25:10.332Z</time></trkpt><trkpt lat="43.1264328" lon="11.4504835"><ele>227.0</ele><time>2026-05-02T10:25:11.327Z</time></trkpt><trkpt lat="43.1263647" lon="11.4502587"><ele>229.0</ele><time>2026-05-02T10:25:12.342Z</time></trkpt><trkpt lat="43.126299" lon="11.4500363"><ele>231.0</ele><time>2026-05-02T10:25:13.33Z</time></trkpt><trkpt lat="43.1262417" lon="11.4498277"><ele>231.0</ele><time>2026-05-02T10:25:14.323Z</time></trkpt><trkpt lat="43.1261747" lon="11.4496384"><ele>231.0</ele><time>2026-05-02T10:25:15.328Z</time></trkpt><trkpt lat="43.1260975" lon="11.4494786"><ele>231.0</ele><time>2026-05-02T10:25:16.342Z</time></trkpt><trkpt lat="43.1260002" lon="11.4493407"><ele>231.0</ele><time>2026-05-02T10:25:17.33Z</time></trkpt><trkpt lat="43.1258781" lon="11.4492314"><ele>233.66666666666669</ele><time>2026-05-02T10:25:18.336Z</time></trkpt><trkpt lat="43.1257246" lon="11.4491575"><ele>236.33333333333334</ele><time>2026-05-02T10:25:19.336Z</time></trkpt><trkpt lat="43.1255565" lon="11.4491007"><ele>239.0</ele><time>2026-05-02T10:25:20.335Z</time></trkpt><trkpt lat="43.125401" lon="11.4490505"><ele>239.0</ele><time>2026-05-02T10:25:21.34Z</time></trkpt><trkpt lat="43.125254" lon="11.449001"><ele>239.0</ele><time>2026-05-02T10:25:22.342Z</time></trkpt><trkpt lat="43.1251212" lon="11.4489428"><ele>239.0</ele><time>2026-05-02T10:25:23.332Z</time></trkpt><trkpt lat="43.1249975" lon="11.4488785"><ele>239.0</ele><time>2026-05-02T10:25:24.331Z</time></trkpt><trkpt lat="43.1248833" lon="11.4488172"><ele>239.2</ele><time>2026-05-02T10:25:25.332Z</time></trkpt><trkpt lat="43.1247816" lon="11.4487732"><ele>239.39999999999998</ele><time>2026-05-02T10:25:26.333Z</time></trkpt><trkpt lat="43.1246967" lon="11.4487751"><ele>239.6</ele><time>2026-05-02T10:25:27.331Z</time></trkpt><trkpt lat="43.124609" lon="11.4488314"><ele>239.8</ele><time>2026-05-02T10:25:28.327Z</time></trkpt><trkpt lat="43.1245216" lon="11.4489303"><ele>240.0</ele><time>2026-05-02T10:25:29.338Z</time></trkpt><trkpt lat="43.1244392" lon="11.4490507"><ele>239.25</ele><time>2026-05-02T10:25:30.334Z</time></trkpt><trkpt lat="43.1243442" lon="11.4491558"><ele>238.5</ele><time>2026-05-02T10:25:31.338Z</time></trkpt><trkpt lat="43.1242488" lon="11.4492142"><ele>237.75</ele><time>2026-05-02T10:25:32.341Z</time></trkpt><trkpt lat="43.1241381" lon="11.4492376"><ele>237.0</ele><time>2026-05-02T10:25:33.331Z</time></trkpt><trkpt lat="43.1240134" lon="11.4492347"><ele>236.0</ele><time>2026-05-02T10:25:34.338Z</time></trkpt><trkpt lat="43.1238712" lon="11.4491931"><ele>235.0</ele><time>2026-05-02T10:25:35.327Z</time></trkpt><trkpt lat="43.1237139" lon="11.4491384"><ele>234.0</ele><time>2026-05-02T10:25:36.332Z</time></trkpt><trkpt lat="43.1235475" lon="11.4490862"><ele>234.0</ele><time>2026-05-02T10:25:37.339Z</time></trkpt><trkpt lat="43.1233759" lon="11.4490328"><ele>234.0</ele><time>2026-05-02T10:25:38.34Z</time></trkpt><trkpt lat="43.1232114" lon="11.4489784"><ele>234.0</ele><time>2026-05-02T10:25:39.339Z</time></trkpt><trkpt lat="43.1230548" lon="11.4489284"><ele>233.25</ele><time>2026-05-02T10:25:40.329Z</time></trkpt><trkpt lat="43.1229078" lon="11.4488839"><ele>232.5</ele><time>2026-05-02T10:25:41.326Z</time></trkpt><trkpt lat="43.1227678" lon="11.4488387"><ele>231.75</ele><time>2026-05-02T10:25:42.338Z</time></trkpt><trkpt lat="43.1226396" lon="11.4487898"><ele>231.0</ele><time>2026-05-02T10:25:43.332Z</time></trkpt><trkpt lat="43.1225186" lon="11.448742"><ele>230.75</ele><time>2026-05-02T10:25:44.344Z</time></trkpt><trkpt lat="43.1224022" lon="11.4486954"><ele>230.5</ele><time>2026-05-02T10:25:45.345Z</time></trkpt><trkpt lat="43.122282" lon="11.4486535"><ele>230.25</ele><time>2026-05-02T10:25:46.345Z</time></trkpt><trkpt lat="43.1221478" lon="11.4486024"><ele>230.0</ele><time>2026-05-02T10:25:47.329Z</time></trkpt><trkpt lat="43.1219978" lon="11.4485517"><ele>228.0</ele><time>2026-05-02T10:25:48.331Z</time></trkpt><trkpt lat="43.1218441" lon="11.448497"><ele>226.0</ele><time>2026-05-02T10:25:49.332Z</time></trkpt><trkpt lat="43.1217009" lon="11.4484411"><ele>224.0</ele><time>2026-05-02T10:25:50.326Z</time></trkpt><trkpt lat="43.1215692" lon="11.4483655"><ele>222.25</ele><time>2026-05-02T10:25:51.339Z</time></trkpt><trkpt lat="43.1214504" lon="11.4482581"><ele>220.5</ele><time>2026-05-02T10:25:52.327Z</time></trkpt><trkpt lat="43.1213691" lon="11.4481329"><ele>218.75</ele><time>2026-05-02T10:25:53.336Z</time></trkpt><trkpt lat="43.1213094" lon="11.447974"><ele>217.0</ele><time>2026-05-02T10:25:54.339Z</time></trkpt><trkpt lat="43.1212462" lon="11.4477966"><ele>217.0</ele><time>2026-05-02T10:25:55.335Z</time></trkpt><trkpt lat="43.1211733" lon="11.4476117"><ele>217.0</ele><time>2026-05-02T10:25:56.338Z</time></trkpt><trkpt lat="43.1211041" lon="11.4474135"><ele>217.0</ele><time>2026-05-02T10:25:57.337Z</time></trkpt><trkpt lat="43.1210394" lon="11.4472051"><ele>215.66666666666666</ele><time>2026-05-02T10:25:58.335Z</time></trkpt><trkpt lat="43.1209807" lon="11.4470005"><ele>214.33333333333331</ele><time>2026-05-02T10:25:59.341Z</time></trkpt><trkpt lat="43.1209259" lon="11.4468142"><ele>213.0</ele><time>2026-05-02T10:26:00.34Z</time></trkpt><trkpt lat="43.1208707" lon="11.4466341"><ele>213.0</ele><time>2026-05-02T10:26:01.344Z</time></trkpt><trkpt lat="43.1208137" lon="11.4464564"><ele>213.0</ele><time>2026-05-02T10:26:02.337Z</time></trkpt><trkpt lat="43.1207579" lon="11.4462866"><ele>213.0</ele><time>2026-05-02T10:26:03.341Z</time></trkpt><trkpt lat="43.1207168" lon="11.4461105"><ele>213.0</ele><time>2026-05-02T10:26:04.332Z</time></trkpt><trkpt lat="43.1207004" lon="11.4459395"><ele>212.5</ele><time>2026-05-02T10:26:05.335Z</time></trkpt><trkpt lat="43.1207243" lon="11.4457707"><ele>212.0</ele><time>2026-05-02T10:26:06.337Z</time></trkpt><trkpt lat="43.12077" lon="11.4456217"><ele>211.5</ele><time>2026-05-02T10:26:07.326Z</time></trkpt><trkpt lat="43.1208236" lon="11.445469"><ele>211.0</ele><time>2026-05-02T10:26:08.325Z</time></trkpt><trkpt lat="43.1208699" lon="11.4453077"><ele>211.0</ele><time>2026-05-02T10:26:09.336Z</time></trkpt><trkpt lat="43.1209123" lon="11.4451421"><ele>211.0</ele><time>2026-05-02T10:26:10.341Z</time></trkpt><trkpt lat="43.1209146" lon="11.4449657"><ele>211.0</ele><time>2026-05-02T10:26:11.332Z</time></trkpt><trkpt lat="43.1208721" lon="11.4448019"><ele>211.0</ele><time>2026-05-02T10:26:12.346Z</time></trkpt><trkpt lat="43.1208028" lon="11.4446683"><ele>209.25</ele><time>2026-05-02T10:26:13.339Z</time></trkpt><trkpt lat="43.1206888" lon="11.4445436"><ele>207.5</ele><time>2026-05-02T10:26:14.332Z</time></trkpt><trkpt lat="43.1205619" lon="11.4444555"><ele>205.75</ele><time>2026-05-02T10:26:15.336Z</time></trkpt><trkpt lat="43.1204259" lon="11.4443646"><ele>204.0</ele><time>2026-05-02T10:26:16.317Z</time></trkpt><trkpt lat="43.120279" lon="11.444268"><ele>204.0</ele><time>2026-05-02T10:26:17.329Z</time></trkpt><trkpt lat="43.1201243" lon="11.4441793"><ele>204.0</ele><time>2026-05-02T10:26:18.341Z</time></trkpt><trkpt lat="43.1199721" lon="11.4440771"><ele>204.0</ele><time>2026-05-02T10:26:19.322Z</time></trkpt><trkpt lat="43.119822" lon="11.4439774"><ele>202.0</ele><time>2026-05-02T10:26:20.335Z</time></trkpt><trkpt lat="43.1196803" lon="11.4438882"><ele>200.0</ele><time>2026-05-02T10:26:21.335Z</time></trkpt><trkpt lat="43.119549" lon="11.443809"><ele>198.0</ele><time>2026-05-02T10:26:22.325Z</time></trkpt><trkpt lat="43.1194197" lon="11.443731"><ele>196.0</ele><time>2026-05-02T10:26:23.324Z</time></trkpt><trkpt lat="43.1192961" lon="11.4436513"><ele>195.0</ele><time>2026-05-02T10:26:24.336Z</time></trkpt><trkpt lat="43.1191789" lon="11.4435641"><ele>194.0</ele><time>2026-05-02T10:26:25.32Z</time></trkpt><trkpt lat="43.1190721" lon="11.4434688"><ele>193.0</ele><time>2026-05-02T10:26:26.325Z</time></trkpt><trkpt lat="43.1189915" lon="11.4433737"><ele>192.0</ele><time>2026-05-02T10:26:27.331Z</time></trkpt><trkpt lat="43.1189371" lon="11.4432898"><ele>191.0</ele><time>2026-05-02T10:26:28.345Z</time></trkpt><trkpt lat="43.1188608" lon="11.4431778"><ele>190.33333333333331</ele><time>2026-05-02T10:26:30.343Z</time></trkpt><trkpt lat="43.1188123" lon="11.4430968"><ele>189.66666666666666</ele><time>2026-05-02T10:26:32.335Z</time></trkpt><trkpt lat="43.1187628" lon="11.4429973"><ele>189.0</ele><time>2026-05-02T10:26:36.339Z</time></trkpt><trkpt lat="43.1187138" lon="11.4429144"><ele>188.33333333333334</ele><time>2026-05-02T10:26:39.336Z</time></trkpt><trkpt lat="43.1186382" lon="11.4428481"><ele>187.66666666666669</ele><time>2026-05-02T10:26:43.333Z</time></trkpt><trkpt lat="43.118568" lon="11.442766"><ele>187.0</ele><time>2026-05-02T10:26:46.339Z</time></trkpt><trkpt lat="43.1184939" lon="11.4426845"><ele>185.16666666666669</ele><time>2026-05-02T10:26:48.332Z</time></trkpt><trkpt lat="43.1184401" lon="11.4426336"><ele>183.33333333333334</ele><time>2026-05-02T10:26:49.324Z</time></trkpt><trkpt lat="43.1183761" lon="11.4425918"><ele>181.5</ele><time>2026-05-02T10:26:50.338Z</time></trkpt><trkpt lat="43.1182976" lon="11.4425296"><ele>179.66666666666666</ele><time>2026-05-02T10:26:51.338Z</time></trkpt><trkpt lat="43.1182147" lon="11.4424731"><ele>177.83333333333331</ele><time>2026-05-02T10:26:52.337Z</time></trkpt><trkpt lat="43.1181238" lon="11.4424084"><ele>176.0</ele><time>2026-05-02T10:26:53.333Z</time></trkpt><trkpt lat="43.1180357" lon="11.4423458"><ele>176.0</ele><time>2026-05-02T10:26:54.331Z</time></trkpt><trkpt lat="43.1179525" lon="11.4422773"><ele>176.0</ele><time>2026-05-02T10:26:55.34Z</time></trkpt><trkpt lat="43.1178718" lon="11.442212"><ele>176.0</ele><time>2026-05-02T10:26:56.339Z</time></trkpt><trkpt lat="43.1177999" lon="11.4421418"><ele>176.0</ele><time>2026-05-02T10:26:57.333Z</time></trkpt><trkpt lat="43.1177218" lon="11.4420775"><ele>176.0</ele><time>2026-05-02T10:26:58.319Z</time></trkpt><trkpt lat="43.1176225" lon="11.4420253"><ele>174.16666666666666</ele><time>2026-05-02T10:26:59.33Z</time></trkpt><trkpt lat="43.1175219" lon="11.4419908"><ele>172.33333333333331</ele><time>2026-05-02T10:27:00.337Z</time></trkpt><trkpt lat="43.1174315" lon="11.4419732"><ele>170.5</ele><time>2026-05-02T10:27:01.331Z</time></trkpt><trkpt lat="43.1173483" lon="11.441968"><ele>168.66666666666666</ele><time>2026-05-02T10:27:02.339Z</time></trkpt><trkpt lat="43.1172701" lon="11.4419763"><ele>166.83333333333334</ele><time>2026-05-02T10:27:03.319Z</time></trkpt><trkpt lat="43.1171984" lon="11.4420017"><ele>165.0</ele><time>2026-05-02T10:27:04.33Z</time></trkpt><trkpt lat="43.1171191" lon="11.4420359"><ele>165.6</ele><time>2026-05-02T10:27:05.341Z</time></trkpt><trkpt lat="43.1170333" lon="11.4420825"><ele>166.2</ele><time>2026-05-02T10:27:06.332Z</time></trkpt><trkpt lat="43.1169431" lon="11.4421431"><ele>166.8</ele><time>2026-05-02T10:27:07.327Z</time></trkpt><trkpt lat="43.1168349" lon="11.4421964"><ele>167.4</ele><time>2026-05-02T10:27:08.341Z</time></trkpt><trkpt lat="43.1167186" lon="11.44224"><ele>168.0</ele><time>2026-05-02T10:27:09.337Z</time></trkpt><trkpt lat="43.1166148" lon="11.4422334"><ele>168.0</ele><time>2026-05-02T10:27:10.318Z</time></trkpt><trkpt lat="43.116526" lon="11.4421838"><ele>168.0</ele><time>2026-05-02T10:27:11.341Z</time></trkpt><trkpt lat="43.11645" lon="11.442106"><ele>168.0</ele><time>2026-05-02T10:27:12.325Z</time></trkpt><trkpt lat="43.116381" lon="11.4420144"><ele>168.0</ele><time>2026-05-02T10:27:13.342Z</time></trkpt><trkpt lat="43.1163092" lon="11.4419191"><ele>168.0</ele><time>2026-05-02T10:27:14.34Z</time></trkpt><trkpt lat="43.1162396" lon="11.4418185"><ele>166.20000000000002</ele><time>2026-05-02T10:27:15.337Z</time></trkpt><trkpt lat="43.1161679" lon="11.4417364"><ele>164.4</ele><time>2026-05-02T10:27:16.336Z</time></trkpt><trkpt lat="43.1160943" lon="11.4416615"><ele>162.60000000000002</ele><time>2026-05-02T10:27:17.345Z</time></trkpt><trkpt lat="43.1160172" lon="11.4415917"><ele>160.8</ele><time>2026-05-02T10:27:18.325Z</time></trkpt><trkpt lat="43.1159469" lon="11.4415213"><ele>159.0</ele><time>2026-05-02T10:27:19.328Z</time></trkpt><trkpt lat="43.1158799" lon="11.4414485"><ele>159.0</ele><time>2026-05-02T10:27:20.333Z</time></trkpt><trkpt lat="43.1158155" lon="11.4413716"><ele>159.0</ele><time>2026-05-02T10:27:21.332Z</time></trkpt><trkpt lat="43.1157395" lon="11.4413004"><ele>159.0</ele><time>2026-05-02T10:27:22.323Z</time></trkpt><trkpt lat="43.115659" lon="11.4412523"><ele>159.0</ele><time>2026-05-02T10:27:23.331Z</time></trkpt><trkpt lat="43.1155566" lon="11.4412377"><ele>159.0</ele><time>2026-05-02T10:27:24.339Z</time></trkpt><trkpt lat="43.115439" lon="11.4412367"><ele>157.25</ele><time>2026-05-02T10:27:25.335Z</time></trkpt><trkpt lat="43.115324" lon="11.4412448"><ele>155.5</ele><time>2026-05-02T10:27:26.332Z</time></trkpt><trkpt lat="43.1151945" lon="11.4412659"><ele>153.75</ele><time>2026-05-02T10:27:27.347Z</time></trkpt><trkpt lat="43.1150655" lon="11.4412949"><ele>152.0</ele><time>2026-05-02T10:27:28.337Z</time></trkpt><trkpt lat="43.1149293" lon="11.4413195"><ele>148.33333333333331</ele><time>2026-05-02T10:27:29.345Z</time></trkpt><trkpt lat="43.1147861" lon="11.4413313"><ele>144.66666666666666</ele><time>2026-05-02T10:27:30.326Z</time></trkpt><trkpt lat="43.1146256" lon="11.4413475"><ele>141.0</ele><time>2026-05-02T10:27:31.341Z</time></trkpt><trkpt lat="43.1144448" lon="11.4413588"><ele>141.0</ele><time>2026-05-02T10:27:32.328Z</time></trkpt><trkpt lat="43.1142415" lon="11.4413741"><ele>141.0</ele><time>2026-05-02T10:27:33.332Z</time></trkpt><trkpt lat="43.1140206" lon="11.4413888"><ele>141.0</ele><time>2026-05-02T10:27:34.333Z</time></trkpt><trkpt lat="43.11377" lon="11.4414094"><ele>139.5</ele><time>2026-05-02T10:27:35.338Z</time></trkpt><trkpt lat="43.1135109" lon="11.4414303"><ele>138.0</ele><time>2026-05-02T10:27:36.337Z</time></trkpt><trkpt lat="43.1132752" lon="11.4414527"><ele>137.66666666666666</ele><time>2026-05-02T10:27:37.337Z</time></trkpt><trkpt lat="43.1130603" lon="11.4414756"><ele>137.33333333333331</ele><time>2026-05-02T10:27:38.335Z</time></trkpt><trkpt lat="43.1128666" lon="11.4414945"><ele>137.0</ele><time>2026-05-02T10:27:39.337Z</time></trkpt><trkpt lat="43.1126866" lon="11.4415115"><ele>137.0</ele><time>2026-05-02T10:27:40.339Z</time></trkpt><trkpt lat="43.1125076" lon="11.4415306"><ele>137.0</ele><time>2026-05-02T10:27:41.346Z</time></trkpt><trkpt lat="43.1123265" lon="11.4415509"><ele>137.0</ele><time>2026-05-02T10:27:42.336Z</time></trkpt><trkpt lat="43.1121622" lon="11.4415696"><ele>136.75</ele><time>2026-05-02T10:27:43.339Z</time></trkpt><trkpt lat="43.1120117" lon="11.4415841"><ele>136.5</ele><time>2026-05-02T10:27:44.337Z</time></trkpt><trkpt lat="43.1118643" lon="11.4415928"><ele>136.25</ele><time>2026-05-02T10:27:45.345Z</time></trkpt><trkpt lat="43.1117157" lon="11.4416107"><ele>136.0</ele><time>2026-05-02T10:27:46.337Z</time></trkpt><trkpt lat="43.1115698" lon="11.4416293"><ele>135.66666666666669</ele><time>2026-05-02T10:27:47.334Z</time></trkpt><trkpt lat="43.1114263" lon="11.441655"><ele>135.33333333333334</ele><time>2026-05-02T10:27:48.333Z</time></trkpt><trkpt lat="43.1112752" lon="11.4416727"><ele>135.0</ele><time>2026-05-02T10:27:49.333Z</time></trkpt><trkpt lat="43.111119" lon="11.4416955"><ele>135.0</ele><time>2026-05-02T10:27:50.333Z</time></trkpt><trkpt lat="43.1109634" lon="11.4417139"><ele>135.0</ele><time>2026-05-02T10:27:51.328Z</time></trkpt><trkpt lat="43.1107975" lon="11.441723"><ele>135.0</ele><time>2026-05-02T10:27:52.338Z</time></trkpt><trkpt lat="43.110635" lon="11.4417294"><ele>134.33333333333334</ele><time>2026-05-02T10:27:53.346Z</time></trkpt><trkpt lat="43.1104758" lon="11.4417361"><ele>133.66666666666669</ele><time>2026-05-02T10:27:54.335Z</time></trkpt><trkpt lat="43.1103176" lon="11.4417545"><ele>133.0</ele><time>2026-05-02T10:27:55.327Z</time></trkpt><trkpt lat="43.1101645" lon="11.4417885"><ele>133.0</ele><time>2026-05-02T10:27:56.329Z</time></trkpt><trkpt lat="43.1100043" lon="11.441841"><ele>133.0</ele><time>2026-05-02T10:27:57.333Z</time></trkpt><trkpt lat="43.1098354" lon="11.4419017"><ele>133.0</ele><time>2026-05-02T10:27:58.341Z</time></trkpt><trkpt lat="43.1096663" lon="11.4419693"><ele>133.0</ele><time>2026-05-02T10:27:59.328Z</time></trkpt><trkpt lat="43.1094861" lon="11.442036"><ele>133.0</ele><time>2026-05-02T10:28:00.339Z</time></trkpt><trkpt lat="43.1092978" lon="11.4421036"><ele>133.0</ele><time>2026-05-02T10:28:01.335Z</time></trkpt><trkpt lat="43.109113" lon="11.4421605"><ele>133.0</ele><time>2026-05-02T10:28:02.351Z</time></trkpt><trkpt lat="43.1089301" lon="11.4422055"><ele>133.0</ele><time>2026-05-02T10:28:03.332Z</time></trkpt><trkpt lat="43.1087518" lon="11.4422456"><ele>133.0</ele><time>2026-05-02T10:28:04.35Z</time></trkpt><trkpt lat="43.1085876" lon="11.4422825"><ele>133.0</ele><time>2026-05-02T10:28:05.334Z</time></trkpt><trkpt lat="43.1084353" lon="11.4423153"><ele>133.0</ele><time>2026-05-02T10:28:06.335Z</time></trkpt><trkpt lat="43.1082922" lon="11.4423415"><ele>133.0</ele><time>2026-05-02T10:28:07.336Z</time></trkpt><trkpt lat="43.1081586" lon="11.4423692"><ele>133.0</ele><time>2026-05-02T10:28:08.335Z</time></trkpt><trkpt lat="43.1080325" lon="11.442397"><ele>133.25</ele><time>2026-05-02T10:28:09.335Z</time></trkpt><trkpt lat="43.1079165" lon="11.4424233"><ele>133.5</ele><time>2026-05-02T10:28:10.328Z</time></trkpt><trkpt lat="43.107806" lon="11.4424505"><ele>133.75</ele><time>2026-05-02T10:28:11.338Z</time></trkpt><trkpt lat="43.1076911" lon="11.4424581"><ele>134.0</ele><time>2026-05-02T10:28:12.345Z</time></trkpt><trkpt lat="43.1075752" lon="11.4424356"><ele>134.0</ele><time>2026-05-02T10:28:13.328Z</time></trkpt><trkpt lat="43.1074573" lon="11.4423823"><ele>134.0</ele><time>2026-05-02T10:28:14.331Z</time></trkpt><trkpt lat="43.1073509" lon="11.4422809"><ele>134.0</ele><time>2026-05-02T10:28:15.33Z</time></trkpt><trkpt lat="43.1072433" lon="11.4421529"><ele>134.0</ele><time>2026-05-02T10:28:16.328Z</time></trkpt><trkpt lat="43.1071366" lon="11.4420023"><ele>133.0</ele><time>2026-05-02T10:28:17.347Z</time></trkpt><trkpt lat="43.1070261" lon="11.4418437"><ele>132.0</ele><time>2026-05-02T10:28:18.332Z</time></trkpt><trkpt lat="43.1069167" lon="11.4416872"><ele>131.0</ele><time>2026-05-02T10:28:19.329Z</time></trkpt><trkpt lat="43.1068014" lon="11.4415252"><ele>131.0</ele><time>2026-05-02T10:28:20.332Z</time></trkpt><trkpt lat="43.1066955" lon="11.4413652"><ele>131.0</ele><time>2026-05-02T10:28:21.342Z</time></trkpt><trkpt lat="43.1065802" lon="11.4411977"><ele>131.0</ele><time>2026-05-02T10:28:22.329Z</time></trkpt><trkpt lat="43.1064669" lon="11.4410339"><ele>131.0</ele><time>2026-05-02T10:28:23.343Z</time></trkpt><trkpt lat="43.1063607" lon="11.4408774"><ele>131.0</ele><time>2026-05-02T10:28:24.333Z</time></trkpt><trkpt lat="43.1062606" lon="11.4407372"><ele>131.0</ele><time>2026-05-02T10:28:25.343Z</time></trkpt><trkpt lat="43.1061566" lon="11.4405987"><ele>131.0</ele><time>2026-05-02T10:28:26.341Z</time></trkpt><trkpt lat="43.1060541" lon="11.4404538"><ele>131.0</ele><time>2026-05-02T10:28:27.331Z</time></trkpt><trkpt lat="43.1059492" lon="11.4403114"><ele>131.0</ele><time>2026-05-02T10:28:28.338Z</time></trkpt><trkpt lat="43.1058503" lon="11.440176"><ele>131.0</ele><time>2026-05-02T10:28:29.337Z</time></trkpt><trkpt lat="43.1057616" lon="11.4400515"><ele>131.0</ele><time>2026-05-02T10:28:30.339Z</time></trkpt><trkpt lat="43.1056807" lon="11.4399466"><ele>130.83333333333331</ele><time>2026-05-02T10:28:31.339Z</time></trkpt><trkpt lat="43.1056075" lon="11.4398626"><ele>130.66666666666666</ele><time>2026-05-02T10:28:32.328Z</time></trkpt><trkpt lat="43.105551" lon="11.4397869"><ele>130.5</ele><time>2026-05-02T10:28:33.343Z</time></trkpt><trkpt lat="43.1054912" lon="11.4396937"><ele>130.33333333333334</ele><time>2026-05-02T10:28:35.34Z</time></trkpt><trkpt lat="43.1054367" lon="11.4396287"><ele>130.16666666666669</ele><time>2026-05-02T10:28:38.329Z</time></trkpt><trkpt lat="43.1053852" lon="11.43956"><ele>130.0</ele><time>2026-05-02T10:28:41.331Z</time></trkpt><trkpt lat="43.1053159" lon="11.4394481"><ele>129.8</ele><time>2026-05-02T10:28:43.334Z</time></trkpt><trkpt lat="43.1052598" lon="11.4393535"><ele>129.6</ele><time>2026-05-02T10:28:44.337Z</time></trkpt><trkpt lat="43.1051973" lon="11.4392532"><ele>129.4</ele><time>2026-05-02T10:28:45.334Z</time></trkpt><trkpt lat="43.1051213" lon="11.4391397"><ele>129.2</ele><time>2026-05-02T10:28:46.328Z</time></trkpt><trkpt lat="43.1050379" lon="11.4390051"><ele>129.0</ele><time>2026-05-02T10:28:47.337Z</time></trkpt><trkpt lat="43.1049515" lon="11.4388711"><ele>129.5</ele><time>2026-05-02T10:28:48.349Z</time></trkpt><trkpt lat="43.1048576" lon="11.4387402"><ele>130.0</ele><time>2026-05-02T10:28:49.337Z</time></trkpt><trkpt lat="43.1047618" lon="11.4385973"><ele>130.5</ele><time>2026-05-02T10:28:50.339Z</time></trkpt><trkpt lat="43.10466" lon="11.4384509"><ele>131.0</ele><time>2026-05-02T10:28:51.346Z</time></trkpt><trkpt lat="43.1045579" lon="11.4383147"><ele>131.0</ele><time>2026-05-02T10:28:52.341Z</time></trkpt><trkpt lat="43.1044569" lon="11.4381723"><ele>131.0</ele><time>2026-05-02T10:28:53.348Z</time></trkpt><trkpt lat="43.1043512" lon="11.4380225"><ele>131.0</ele><time>2026-05-02T10:28:54.333Z</time></trkpt><trkpt lat="43.10424" lon="11.4378675"><ele>131.0</ele><time>2026-05-02T10:28:55.339Z</time></trkpt><trkpt lat="43.1041249" lon="11.437696"><ele>131.0</ele><time>2026-05-02T10:28:56.334Z</time></trkpt><trkpt lat="43.1039985" lon="11.4375182"><ele>131.0</ele><time>2026-05-02T10:28:57.344Z</time></trkpt><trkpt lat="43.1038704" lon="11.4373382"><ele>131.33333333333331</ele><time>2026-05-02T10:28:58.356Z</time></trkpt><trkpt lat="43.103741" lon="11.4371654"><ele>131.66666666666666</ele><time>2026-05-02T10:28:59.327Z</time></trkpt><trkpt lat="43.1036277" lon="11.4370098"><ele>132.0</ele><time>2026-05-02T10:29:00.331Z</time></trkpt><trkpt lat="43.103534" lon="11.4368737"><ele>132.5</ele><time>2026-05-02T10:29:01.337Z</time></trkpt><trkpt lat="43.1034493" lon="11.4367456"><ele>133.0</ele><time>2026-05-02T10:29:02.332Z</time></trkpt><trkpt lat="43.1033552" lon="11.4366181"><ele>133.5</ele><time>2026-05-02T10:29:03.361Z</time></trkpt><trkpt lat="43.103259" lon="11.4364807"><ele>134.0</ele><time>2026-05-02T10:29:04.335Z</time></trkpt><trkpt lat="43.1031536" lon="11.4363356"><ele>134.66666666666666</ele><time>2026-05-02T10:29:05.35Z</time></trkpt><trkpt lat="43.1030399" lon="11.436182"><ele>135.33333333333334</ele><time>2026-05-02T10:29:06.342Z</time></trkpt><trkpt lat="43.1029244" lon="11.4360238"><ele>136.0</ele><time>2026-05-02T10:29:07.342Z</time></trkpt><trkpt lat="43.1028094" lon="11.4358679"><ele>136.0</ele><time>2026-05-02T10:29:08.329Z</time></trkpt><trkpt lat="43.1026049" lon="11.4355786"><ele>136.0</ele><time>2026-05-02T10:29:10.347Z</time></trkpt><trkpt lat="43.1025131" lon="11.4354391"><ele>136.0</ele><time>2026-05-02T10:29:11.325Z</time></trkpt><trkpt lat="43.1024295" lon="11.43531"><ele>136.75</ele><time>2026-05-02T10:29:12.325Z</time></trkpt><trkpt lat="43.1023503" lon="11.4351673"><ele>137.5</ele><time>2026-05-02T10:29:13.333Z</time></trkpt><trkpt lat="43.1022767" lon="11.4350211"><ele>138.25</ele><time>2026-05-02T10:29:14.331Z</time></trkpt><trkpt lat="43.1022303" lon="11.4348707"><ele>139.0</ele><time>2026-05-02T10:29:15.331Z</time></trkpt><trkpt lat="43.1022136" lon="11.4347142"><ele>140.5</ele><time>2026-05-02T10:29:16.334Z</time></trkpt><trkpt lat="43.1022153" lon="11.4345506"><ele>142.0</ele><time>2026-05-02T10:29:17.33Z</time></trkpt><trkpt lat="43.1022378" lon="11.4343743"><ele>143.5</ele><time>2026-05-02T10:29:18.332Z</time></trkpt><trkpt lat="43.1022721" lon="11.4341841"><ele>145.0</ele><time>2026-05-02T10:29:19.332Z</time></trkpt><trkpt lat="43.1023026" lon="11.4339947"><ele>145.0</ele><time>2026-05-02T10:29:20.339Z</time></trkpt><trkpt lat="43.1023234" lon="11.433826"><ele>145.0</ele><time>2026-05-02T10:29:21.329Z</time></trkpt><trkpt lat="43.1023383" lon="11.4336612"><ele>145.0</ele><time>2026-05-02T10:29:22.335Z</time></trkpt><trkpt lat="43.1023455" lon="11.4335075"><ele>145.0</ele><time>2026-05-02T10:29:23.329Z</time></trkpt><trkpt lat="43.1023436" lon="11.4333574"><ele>145.2</ele><time>2026-05-02T10:29:24.329Z</time></trkpt><trkpt lat="43.1023254" lon="11.4332074"><ele>145.4</ele><time>2026-05-02T10:29:25.332Z</time></trkpt><trkpt lat="43.1022945" lon="11.4330643"><ele>145.6</ele><time>2026-05-02T10:29:26.331Z</time></trkpt><trkpt lat="43.1022582" lon="11.4329287"><ele>145.8</ele><time>2026-05-02T10:29:27.326Z</time></trkpt><trkpt lat="43.1021974" lon="11.4327837"><ele>146.0</ele><time>2026-05-02T10:29:28.333Z</time></trkpt><trkpt lat="43.1021264" lon="11.4326655"><ele>146.0</ele><time>2026-05-02T10:29:29.332Z</time></trkpt><trkpt lat="43.1020375" lon="11.4325668"><ele>146.0</ele><time>2026-05-02T10:29:30.328Z</time></trkpt><trkpt lat="43.1019258" lon="11.4324952"><ele>146.0</ele><time>2026-05-02T10:29:31.338Z</time></trkpt><trkpt lat="43.1018029" lon="11.432459"><ele>146.0</ele><time>2026-05-02T10:29:32.334Z</time></trkpt><trkpt lat="43.1016755" lon="11.4324476"><ele>147.5</ele><time>2026-05-02T10:29:33.328Z</time></trkpt><trkpt lat="43.1015464" lon="11.4324399"><ele>149.0</ele><time>2026-05-02T10:29:34.322Z</time></trkpt><trkpt lat="43.1014108" lon="11.4324263"><ele>150.5</ele><time>2026-05-02T10:29:35.33Z</time></trkpt><trkpt lat="43.1012779" lon="11.4324061"><ele>152.0</ele><time>2026-05-02T10:29:36.332Z</time></trkpt><trkpt lat="43.1011414" lon="11.4323945"><ele>152.0</ele><time>2026-05-02T10:29:37.339Z</time></trkpt><trkpt lat="43.1010029" lon="11.4323874"><ele>152.0</ele><time>2026-05-02T10:29:38.347Z</time></trkpt><trkpt lat="43.100865" lon="11.4323766"><ele>152.0</ele><time>2026-05-02T10:29:39.33Z</time></trkpt><trkpt lat="43.1007318" lon="11.4323618"><ele>152.0</ele><time>2026-05-02T10:29:40.335Z</time></trkpt><trkpt lat="43.1006135" lon="11.432352"><ele>153.5</ele><time>2026-05-02T10:29:41.335Z</time></trkpt><trkpt lat="43.1005049" lon="11.432342"><ele>155.0</ele><time>2026-05-02T10:29:42.33Z</time></trkpt><trkpt lat="43.1003913" lon="11.432337"><ele>156.5</ele><time>2026-05-02T10:29:43.337Z</time></trkpt><trkpt lat="43.1002733" lon="11.4323218"><ele>158.0</ele><time>2026-05-02T10:29:44.338Z</time></trkpt><trkpt lat="43.1001535" lon="11.4323128"><ele>158.0</ele><time>2026-05-02T10:29:45.332Z</time></trkpt><trkpt lat="43.1000282" lon="11.4323031"><ele>158.0</ele><time>2026-05-02T10:29:46.34Z</time></trkpt><trkpt lat="43.0998992" lon="11.432292"><ele>158.0</ele><time>2026-05-02T10:29:47.339Z</time></trkpt><trkpt lat="43.0997702" lon="11.4322812"><ele>158.0</ele><time>2026-05-02T10:29:48.342Z</time></trkpt><trkpt lat="43.0996407" lon="11.4322691"><ele>158.75</ele><time>2026-05-02T10:29:49.339Z</time></trkpt><trkpt lat="43.0995077" lon="11.432256"><ele>159.5</ele><time>2026-05-02T10:29:50.328Z</time></trkpt><trkpt lat="43.099375" lon="11.4322437"><ele>160.25</ele><time>2026-05-02T10:29:51.352Z</time></trkpt><trkpt lat="43.0992424" lon="11.4322351"><ele>161.0</ele><time>2026-05-02T10:29:52.34Z</time></trkpt><trkpt lat="43.0991049" lon="11.4322258"><ele>160.0</ele><time>2026-05-02T10:29:53.337Z</time></trkpt><trkpt lat="43.0989683" lon="11.432209"><ele>159.0</ele><time>2026-05-02T10:29:54.337Z</time></trkpt><trkpt lat="43.0988309" lon="11.4321881"><ele>158.0</ele><time>2026-05-02T10:29:55.336Z</time></trkpt><trkpt lat="43.0986915" lon="11.4321419"><ele>157.0</ele><time>2026-05-02T10:29:56.329Z</time></trkpt><trkpt lat="43.0985601" lon="11.4320737"><ele>158.5</ele><time>2026-05-02T10:29:57.335Z</time></trkpt><trkpt lat="43.0984334" lon="11.4319872"><ele>160.0</ele><time>2026-05-02T10:29:58.328Z</time></trkpt><trkpt lat="43.0983115" lon="11.4318902"><ele>161.5</ele><time>2026-05-02T10:29:59.336Z</time></trkpt><trkpt lat="43.0981992" lon="11.4317929"><ele>163.0</ele><time>2026-05-02T10:30:00.334Z</time></trkpt><trkpt lat="43.0980832" lon="11.4316937"><ele>163.0</ele><time>2026-05-02T10:30:01.334Z</time></trkpt><trkpt lat="43.0979681" lon="11.431594"><ele>163.0</ele><time>2026-05-02T10:30:02.337Z</time></trkpt><trkpt lat="43.0978584" lon="11.4315046"><ele>163.0</ele><time>2026-05-02T10:30:03.341Z</time></trkpt><trkpt lat="43.0977539" lon="11.4314125"><ele>163.0</ele><time>2026-05-02T10:30:04.337Z</time></trkpt><trkpt lat="43.0976422" lon="11.4313179"><ele>164.0</ele><time>2026-05-02T10:30:05.334Z</time></trkpt><trkpt lat="43.0975326" lon="11.4312198"><ele>165.0</ele><time>2026-05-02T10:30:06.333Z</time></trkpt><trkpt lat="43.097421" lon="11.4311228"><ele>166.0</ele><time>2026-05-02T10:30:07.334Z</time></trkpt><trkpt lat="43.0973132" lon="11.4310307"><ele>167.0</ele><time>2026-05-02T10:30:08.333Z</time></trkpt><trkpt lat="43.0972038" lon="11.4309411"><ele>167.0</ele><time>2026-05-02T10:30:09.342Z</time></trkpt><trkpt lat="43.0970949" lon="11.4308498"><ele>167.0</ele><time>2026-05-02T10:30:10.332Z</time></trkpt><trkpt lat="43.0969821" lon="11.4307597"><ele>167.0</ele><time>2026-05-02T10:30:11.329Z</time></trkpt><trkpt lat="43.0968765" lon="11.4306682"><ele>167.0</ele><time>2026-05-02T10:30:12.328Z</time></trkpt><trkpt lat="43.0967743" lon="11.4305722"><ele>167.0</ele><time>2026-05-02T10:30:13.329Z</time></trkpt><trkpt lat="43.096681" lon="11.4304754"><ele>167.0</ele><time>2026-05-02T10:30:14.33Z</time></trkpt><trkpt lat="43.0965922" lon="11.4303658"><ele>167.0</ele><time>2026-05-02T10:30:15.345Z</time></trkpt><trkpt lat="43.0965024" lon="11.4302555"><ele>167.0</ele><time>2026-05-02T10:30:16.328Z</time></trkpt><trkpt lat="43.0964095" lon="11.430147"><ele>168.0</ele><time>2026-05-02T10:30:17.328Z</time></trkpt><trkpt lat="43.0963233" lon="11.4300359"><ele>169.0</ele><time>2026-05-02T10:30:18.336Z</time></trkpt><trkpt lat="43.0962267" lon="11.4299176"><ele>170.0</ele><time>2026-05-02T10:30:19.337Z</time></trkpt><trkpt lat="43.0961276" lon="11.4297963"><ele>171.0</ele><time>2026-05-02T10:30:20.342Z</time></trkpt><trkpt lat="43.0960221" lon="11.4296841"><ele>172.0</ele><time>2026-05-02T10:30:21.347Z</time></trkpt><trkpt lat="43.0959106" lon="11.4295797"><ele>173.0</ele><time>2026-05-02T10:30:22.337Z</time></trkpt><trkpt lat="43.0957843" lon="11.429482"><ele>174.0</ele><time>2026-05-02T10:30:23.337Z</time></trkpt><trkpt lat="43.0956618" lon="11.429387"><ele>175.0</ele><time>2026-05-02T10:30:24.334Z</time></trkpt><trkpt lat="43.0955401" lon="11.4292904"><ele>176.33333333333334</ele><time>2026-05-02T10:30:25.339Z</time></trkpt><trkpt lat="43.0954142" lon="11.4291915"><ele>177.66666666666666</ele><time>2026-05-02T10:30:26.327Z</time></trkpt><trkpt lat="43.0952816" lon="11.4290946"><ele>179.0</ele><time>2026-05-02T10:30:27.335Z</time></trkpt><trkpt lat="43.0951395" lon="11.4289994"><ele>179.0</ele><time>2026-05-02T10:30:28.325Z</time></trkpt><trkpt lat="43.0949963" lon="11.4288948"><ele>179.0</ele><time>2026-05-02T10:30:29.326Z</time></trkpt><trkpt lat="43.0948491" lon="11.4287907"><ele>179.0</ele><time>2026-05-02T10:30:30.337Z</time></trkpt><trkpt lat="43.0947001" lon="11.4286915"><ele>181.33333333333331</ele><time>2026-05-02T10:30:31.333Z</time></trkpt><trkpt lat="43.094551" lon="11.4285877"><ele>183.66666666666666</ele><time>2026-05-02T10:30:32.333Z</time></trkpt><trkpt lat="43.0944026" lon="11.4284832"><ele>186.0</ele><time>2026-05-02T10:30:33.346Z</time></trkpt><trkpt lat="43.0942583" lon="11.4283771"><ele>186.0</ele><time>2026-05-02T10:30:34.333Z</time></trkpt><trkpt lat="43.0941219" lon="11.4282761"><ele>186.0</ele><time>2026-05-02T10:30:35.34Z</time></trkpt><trkpt lat="43.0939859" lon="11.4281765"><ele>186.0</ele><time>2026-05-02T10:30:36.338Z</time></trkpt><trkpt lat="43.0938528" lon="11.4280766"><ele>186.66666666666666</ele><time>2026-05-02T10:30:37.331Z</time></trkpt><trkpt lat="43.093717" lon="11.4279777"><ele>187.33333333333331</ele><time>2026-05-02T10:30:38.34Z</time></trkpt><trkpt lat="43.093576" lon="11.4278744"><ele>188.0</ele><time>2026-05-02T10:30:39.327Z</time></trkpt><trkpt lat="43.093434" lon="11.42777"><ele>189.0</ele><time>2026-05-02T10:30:40.344Z</time></trkpt><trkpt lat="43.0932836" lon="11.427666"><ele>190.0</ele><time>2026-05-02T10:30:41.328Z</time></trkpt><trkpt lat="43.0931351" lon="11.4275653"><ele>191.0</ele><time>2026-05-02T10:30:42.354Z</time></trkpt><trkpt lat="43.0929815" lon="11.4274565"><ele>192.0</ele><time>2026-05-02T10:30:43.335Z</time></trkpt><trkpt lat="43.092831" lon="11.4273397"><ele>193.0</ele><time>2026-05-02T10:30:44.342Z</time></trkpt><trkpt lat="43.0926738" lon="11.4272146"><ele>194.0</ele><time>2026-05-02T10:30:45.342Z</time></trkpt><trkpt lat="43.0925154" lon="11.4270904"><ele>196.0</ele><time>2026-05-02T10:30:46.326Z</time></trkpt><trkpt lat="43.0923594" lon="11.4269766"><ele>198.0</ele><time>2026-05-02T10:30:47.328Z</time></trkpt><trkpt lat="43.0922088" lon="11.4268724"><ele>200.0</ele><time>2026-05-02T10:30:48.335Z</time></trkpt><trkpt lat="43.0920612" lon="11.4267591"><ele>200.0</ele><time>2026-05-02T10:30:49.34Z</time></trkpt><trkpt lat="43.0919119" lon="11.4266515"><ele>200.0</ele><time>2026-05-02T10:30:50.342Z</time></trkpt><trkpt lat="43.0917636" lon="11.4265458"><ele>200.0</ele><time>2026-05-02T10:30:51.333Z</time></trkpt><trkpt lat="43.091618" lon="11.4264395"><ele>199.66666666666669</ele><time>2026-05-02T10:30:52.345Z</time></trkpt><trkpt lat="43.091472" lon="11.426331"><ele>199.33333333333331</ele><time>2026-05-02T10:30:53.329Z</time></trkpt><trkpt lat="43.0913325" lon="11.426224"><ele>199.0</ele><time>2026-05-02T10:30:54.339Z</time></trkpt><trkpt lat="43.0911923" lon="11.4261104"><ele>200.33333333333331</ele><time>2026-05-02T10:30:55.336Z</time></trkpt><trkpt lat="43.0910477" lon="11.4260097"><ele>201.66666666666669</ele><time>2026-05-02T10:30:56.343Z</time></trkpt><trkpt lat="43.0908876" lon="11.42594"><ele>203.0</ele><time>2026-05-02T10:30:57.341Z</time></trkpt><trkpt lat="43.090712" lon="11.4258886"><ele>205.0</ele><time>2026-05-02T10:30:58.334Z</time></trkpt><trkpt lat="43.0905345" lon="11.4258434"><ele>207.0</ele><time>2026-05-02T10:30:59.332Z</time></trkpt><trkpt lat="43.090353" lon="11.4258051"><ele>209.0</ele><time>2026-05-02T10:31:00.326Z</time></trkpt><trkpt lat="43.0901669" lon="11.4257612"><ele>209.0</ele><time>2026-05-02T10:31:01.339Z</time></trkpt><trkpt lat="43.0899785" lon="11.4257106"><ele>209.0</ele><time>2026-05-02T10:31:02.328Z</time></trkpt><trkpt lat="43.089784" lon="11.4256599"><ele>209.0</ele><time>2026-05-02T10:31:03.326Z</time></trkpt><trkpt lat="43.0895868" lon="11.4256087"><ele>210.66666666666669</ele><time>2026-05-02T10:31:04.333Z</time></trkpt><trkpt lat="43.0894039" lon="11.4255582"><ele>212.33333333333331</ele><time>2026-05-02T10:31:05.338Z</time></trkpt><trkpt lat="43.0892514" lon="11.4255163"><ele>214.0</ele><time>2026-05-02T10:31:06.339Z</time></trkpt><trkpt lat="43.0891345" lon="11.4254614"><ele>219.2</ele><time>2026-05-02T10:31:07.336Z</time></trkpt><trkpt lat="43.0890434" lon="11.4253886"><ele>224.39999999999998</ele><time>2026-05-02T10:31:08.329Z</time></trkpt><trkpt lat="43.0889842" lon="11.425289"><ele>229.6</ele><time>2026-05-02T10:31:09.335Z</time></trkpt><trkpt lat="43.0889514" lon="11.4251339"><ele>234.8</ele><time>2026-05-02T10:31:10.329Z</time></trkpt><trkpt lat="43.0889382" lon="11.4249746"><ele>240.0</ele><time>2026-05-02T10:31:11.33Z</time></trkpt><trkpt lat="43.088957" lon="11.4248106"><ele>244.0</ele><time>2026-05-02T10:31:12.343Z</time></trkpt><trkpt lat="43.0889871" lon="11.4246393"><ele>248.0</ele><time>2026-05-02T10:31:13.326Z</time></trkpt><trkpt lat="43.0890213" lon="11.4244565"><ele>252.0</ele><time>2026-05-02T10:31:14.329Z</time></trkpt><trkpt lat="43.0890548" lon="11.4242692"><ele>256.0</ele><time>2026-05-02T10:31:15.328Z</time></trkpt><trkpt lat="43.0890843" lon="11.4240736"><ele>251.5</ele><time>2026-05-02T10:31:16.338Z</time></trkpt><trkpt lat="43.0891244" lon="11.4238803"><ele>247.0</ele><time>2026-05-02T10:31:17.324Z</time></trkpt><trkpt lat="43.0891617" lon="11.4236932"><ele>242.5</ele><time>2026-05-02T10:31:18.327Z</time></trkpt><trkpt lat="43.089184" lon="11.4235212"><ele>238.0</ele><time>2026-05-02T10:31:19.333Z</time></trkpt><trkpt lat="43.0891779" lon="11.4233581"><ele>238.0</ele><time>2026-05-02T10:31:20.326Z</time></trkpt><trkpt lat="43.0891575" lon="11.4232086"><ele>238.0</ele><time>2026-05-02T10:31:21.329Z</time></trkpt><trkpt lat="43.0891228" lon="11.423065"><ele>238.0</ele><time>2026-05-02T10:31:22.331Z</time></trkpt><trkpt lat="43.0890712" lon="11.4229144"><ele>238.0</ele><time>2026-05-02T10:31:23.33Z</time></trkpt><trkpt lat="43.0890057" lon="11.422748"><ele>246.33333333333331</ele><time>2026-05-02T10:31:24.317Z</time></trkpt><trkpt lat="43.0889224" lon="11.4225583"><ele>254.66666666666669</ele><time>2026-05-02T10:31:25.339Z</time></trkpt><trkpt lat="43.088843" lon="11.4223654"><ele>263.0</ele><time>2026-05-02T10:31:26.333Z</time></trkpt><trkpt lat="43.0887753" lon="11.4221888"><ele>261.8</ele><time>2026-05-02T10:31:27.339Z</time></trkpt><trkpt lat="43.0887266" lon="11.422063"><ele>260.6</ele><time>2026-05-02T10:31:28.337Z</time></trkpt><trkpt lat="43.0886758" lon="11.4219623"><ele>259.4</ele><time>2026-05-02T10:31:29.338Z</time></trkpt><trkpt lat="43.0886227" lon="11.4218621"><ele>258.2</ele><time>2026-05-02T10:31:30.322Z</time></trkpt><trkpt lat="43.0885637" lon="11.4217704"><ele>257.0</ele><time>2026-05-02T10:31:31.339Z</time></trkpt><trkpt lat="43.0884882" lon="11.4217092"><ele>257.0</ele><time>2026-05-02T10:31:32.334Z</time></trkpt><trkpt lat="43.0883996" lon="11.4216859"><ele>257.0</ele><time>2026-05-02T10:31:33.342Z</time></trkpt><trkpt lat="43.0883321" lon="11.4216937"><ele>257.0</ele><time>2026-05-02T10:31:34.326Z</time></trkpt><trkpt lat="43.088237" lon="11.4217563"><ele>257.0</ele><time>2026-05-02T10:31:36.329Z</time></trkpt><trkpt lat="43.0881641" lon="11.4218972"><ele>257.0</ele><time>2026-05-02T10:31:38.329Z</time></trkpt><trkpt lat="43.0881355" lon="11.4219931"><ele>262.5</ele><time>2026-05-02T10:31:39.335Z</time></trkpt><trkpt lat="43.0881002" lon="11.4221059"><ele>268.0</ele><time>2026-05-02T10:31:40.325Z</time></trkpt><trkpt lat="43.0880678" lon="11.4222511"><ele>273.5</ele><time>2026-05-02T10:31:41.338Z</time></trkpt><trkpt lat="43.0880288" lon="11.422426"><ele>279.0</ele><time>2026-05-02T10:31:42.33Z</time></trkpt><trkpt lat="43.0879873" lon="11.4225967"><ele>279.75</ele><time>2026-05-02T10:31:43.338Z</time></trkpt><trkpt lat="43.0879384" lon="11.4227711"><ele>280.5</ele><time>2026-05-02T10:31:44.333Z</time></trkpt><trkpt lat="43.0878955" lon="11.4229386"><ele>281.25</ele><time>2026-05-02T10:31:45.348Z</time></trkpt><trkpt lat="43.0878445" lon="11.4230922"><ele>282.0</ele><time>2026-05-02T10:31:46.334Z</time></trkpt><trkpt lat="43.0877974" lon="11.4232142"><ele>282.2</ele><time>2026-05-02T10:31:47.335Z</time></trkpt><trkpt lat="43.0877567" lon="11.4233184"><ele>282.4</ele><time>2026-05-02T10:31:48.334Z</time></trkpt><trkpt lat="43.0877184" lon="11.4234067"><ele>282.6</ele><time>2026-05-02T10:31:49.332Z</time></trkpt><trkpt lat="43.0876281" lon="11.423511"><ele>282.8</ele><time>2026-05-02T10:31:51.332Z</time></trkpt><trkpt lat="43.0875659" lon="11.423527"><ele>283.0</ele><time>2026-05-02T10:31:52.329Z</time></trkpt><trkpt lat="43.0874836" lon="11.4233786"><ele>283.0</ele><time>2026-05-02T10:31:54.335Z</time></trkpt><trkpt lat="43.0874575" lon="11.4232684"><ele>283.0</ele><time>2026-05-02T10:31:55.338Z</time></trkpt><trkpt lat="43.0874341" lon="11.4231275"><ele>283.0</ele><time>2026-05-02T10:31:56.332Z</time></trkpt><trkpt lat="43.0874157" lon="11.4229893"><ele>283.0</ele><time>2026-05-02T10:31:57.349Z</time></trkpt><trkpt lat="43.0874044" lon="11.4228866"><ele>283.0</ele><time>2026-05-02T10:31:58.326Z</time></trkpt><trkpt lat="43.0873843" lon="11.422788"><ele>283.0</ele><time>2026-05-02T10:31:59.323Z</time></trkpt><trkpt lat="43.0873599" lon="11.4227012"><ele>288.4</ele><time>2026-05-02T10:32:00.318Z</time></trkpt><trkpt lat="43.0872968" lon="11.4226229"><ele>293.8</ele><time>2026-05-02T10:32:02.336Z</time></trkpt><trkpt lat="43.0871858" lon="11.4226897"><ele>299.2</ele><time>2026-05-02T10:32:04.33Z</time></trkpt><trkpt lat="43.0871468" lon="11.4228622"><ele>304.6</ele><time>2026-05-02T10:32:06.335Z</time></trkpt><trkpt lat="43.0871195" lon="11.422983"><ele>310.0</ele><time>2026-05-02T10:32:07.325Z</time></trkpt><trkpt lat="43.0870819" lon="11.4231312"><ele>310.0</ele><time>2026-05-02T10:32:08.33Z</time></trkpt><trkpt lat="43.0870416" lon="11.4232916"><ele>310.0</ele><time>2026-05-02T10:32:09.338Z</time></trkpt><trkpt lat="43.0870129" lon="11.4234419"><ele>310.0</ele><time>2026-05-02T10:32:10.33Z</time></trkpt><trkpt lat="43.0869901" lon="11.423558"><ele>310.0</ele><time>2026-05-02T10:32:11.332Z</time></trkpt><trkpt lat="43.086966" lon="11.4236548"><ele>310.0</ele><time>2026-05-02T10:32:12.324Z</time></trkpt><trkpt lat="43.0869275" lon="11.4237331"><ele>310.0</ele><time>2026-05-02T10:32:13.326Z</time></trkpt><trkpt lat="43.086866" lon="11.4238085"><ele>310.0</ele><time>2026-05-02T10:32:14.336Z</time></trkpt><trkpt lat="43.0867849" lon="11.4238644"><ele>310.0</ele><time>2026-05-02T10:32:15.339Z</time></trkpt><trkpt lat="43.0867054" lon="11.4238665"><ele>310.0</ele><time>2026-05-02T10:32:16.33Z</time></trkpt><trkpt lat="43.086623" lon="11.4238537"><ele>310.0</ele><time>2026-05-02T10:32:17.322Z</time></trkpt><trkpt lat="43.0865435" lon="11.4238161"><ele>310.0</ele><time>2026-05-02T10:32:18.337Z</time></trkpt><trkpt lat="43.0864778" lon="11.4237509"><ele>313.8</ele><time>2026-05-02T10:32:19.342Z</time></trkpt><trkpt lat="43.086421" lon="11.4236696"><ele>317.6</ele><time>2026-05-02T10:32:20.336Z</time></trkpt><trkpt lat="43.086387" lon="11.423596"><ele>321.4</ele><time>2026-05-02T10:32:21.323Z</time></trkpt><trkpt lat="43.0863999" lon="11.4234207"><ele>325.2</ele><time>2026-05-02T10:32:23.332Z</time></trkpt><trkpt lat="43.0864346" lon="11.4233063"><ele>329.0</ele><time>2026-05-02T10:32:24.335Z</time></trkpt><trkpt lat="43.0864816" lon="11.4231763"><ele>329.0</ele><time>2026-05-02T10:32:25.333Z</time></trkpt><trkpt lat="43.086525" lon="11.42306"><ele>329.0</ele><time>2026-05-02T10:32:26.329Z</time></trkpt><trkpt lat="43.0865423" lon="11.4229596"><ele>329.0</ele><time>2026-05-02T10:32:27.334Z</time></trkpt><trkpt lat="43.0865367" lon="11.4228632"><ele>329.0</ele><time>2026-05-02T10:32:28.325Z</time></trkpt><trkpt lat="43.0865232" lon="11.4227625"><ele>329.0</ele><time>2026-05-02T10:32:29.336Z</time></trkpt><trkpt lat="43.086491" lon="11.4226706"><ele>329.0</ele><time>2026-05-02T10:32:30.33Z</time></trkpt><trkpt lat="43.0864272" lon="11.422613"><ele>329.0</ele><time>2026-05-02T10:32:31.333Z</time></trkpt><trkpt lat="43.0863587" lon="11.4225973"><ele>329.0</ele><time>2026-05-02T10:32:32.33Z</time></trkpt><trkpt lat="43.0862908" lon="11.4226241"><ele>329.0</ele><time>2026-05-02T10:32:33.331Z</time></trkpt><trkpt lat="43.0862337" lon="11.4226884"><ele>329.0</ele><time>2026-05-02T10:32:34.326Z</time></trkpt><trkpt lat="43.0861795" lon="11.4227799"><ele>329.0</ele><time>2026-05-02T10:32:35.327Z</time></trkpt><trkpt lat="43.0861251" lon="11.4229012"><ele>329.0</ele><time>2026-05-02T10:32:36.339Z</time></trkpt><trkpt lat="43.0860577" lon="11.4230264"><ele>329.0</ele><time>2026-05-02T10:32:37.329Z</time></trkpt><trkpt lat="43.0859828" lon="11.4231407"><ele>329.0</ele><time>2026-05-02T10:32:38.333Z</time></trkpt><trkpt lat="43.0859168" lon="11.4232178"><ele>329.0</ele><time>2026-05-02T10:32:39.34Z</time></trkpt><trkpt lat="43.0858451" lon="11.423273"><ele>329.0</ele><time>2026-05-02T10:32:40.326Z</time></trkpt><trkpt lat="43.0857609" lon="11.423282"><ele>329.0</ele><time>2026-05-02T10:32:41.334Z</time></trkpt><trkpt lat="43.0856754" lon="11.4232069"><ele>333.0</ele><time>2026-05-02T10:32:42.332Z</time></trkpt><trkpt lat="43.0856079" lon="11.4230895"><ele>337.0</ele><time>2026-05-02T10:32:43.328Z</time></trkpt><trkpt lat="43.0855456" lon="11.4229307"><ele>341.0</ele><time>2026-05-02T10:32:44.329Z</time></trkpt><trkpt lat="43.0854936" lon="11.4227439"><ele>345.0</ele><time>2026-05-02T10:32:45.335Z</time></trkpt><trkpt lat="43.0854502" lon="11.4225442"><ele>345.8</ele><time>2026-05-02T10:32:46.32Z</time></trkpt><trkpt lat="43.0854092" lon="11.4223674"><ele>346.6</ele><time>2026-05-02T10:32:47.339Z</time></trkpt><trkpt lat="43.0853641" lon="11.4222273"><ele>347.4</ele><time>2026-05-02T10:32:48.333Z</time></trkpt><trkpt lat="43.0853196" lon="11.4221034"><ele>348.2</ele><time>2026-05-02T10:32:49.332Z</time></trkpt><trkpt lat="43.085266" lon="11.4220018"><ele>349.0</ele><time>2026-05-02T10:32:50.329Z</time></trkpt><trkpt lat="43.0851921" lon="11.4219019"><ele>348.0</ele><time>2026-05-02T10:32:51.328Z</time></trkpt><trkpt lat="43.0851016" lon="11.421826"><ele>347.0</ele><time>2026-05-02T10:32:52.331Z</time></trkpt><trkpt lat="43.0850031" lon="11.4217454"><ele>346.0</ele><time>2026-05-02T10:32:53.322Z</time></trkpt><trkpt lat="43.0848835" lon="11.4216763"><ele>345.0</ele><time>2026-05-02T10:32:54.331Z</time></trkpt><trkpt lat="43.0847474" lon="11.4216265"><ele>345.0</ele><time>2026-05-02T10:32:55.324Z</time></trkpt><trkpt lat="43.0846093" lon="11.4215803"><ele>345.0</ele><time>2026-05-02T10:32:56.334Z</time></trkpt><trkpt lat="43.0844757" lon="11.4215298"><ele>345.0</ele><time>2026-05-02T10:32:57.328Z</time></trkpt><trkpt lat="43.0843403" lon="11.4214554"><ele>345.0</ele><time>2026-05-02T10:32:58.334Z</time></trkpt><trkpt lat="43.0842047" lon="11.4213535"><ele>345.6666666666667</ele><time>2026-05-02T10:32:59.327Z</time></trkpt><trkpt lat="43.0840686" lon="11.4212373"><ele>346.33333333333337</ele><time>2026-05-02T10:33:00.328Z</time></trkpt><trkpt lat="43.0839338" lon="11.4211316"><ele>347.0</ele><time>2026-05-02T10:33:01.332Z</time></trkpt><trkpt lat="43.0837989" lon="11.421042"><ele>347.0</ele><time>2026-05-02T10:33:02.332Z</time></trkpt><trkpt lat="43.0836597" lon="11.4209691"><ele>347.0</ele><time>2026-05-02T10:33:03.333Z</time></trkpt><trkpt lat="43.0835148" lon="11.4209096"><ele>347.0</ele><time>2026-05-02T10:33:04.335Z</time></trkpt><trkpt lat="43.0833794" lon="11.4208567"><ele>347.0</ele><time>2026-05-02T10:33:05.328Z</time></trkpt><trkpt lat="43.0832393" lon="11.4208107"><ele>349.0</ele><time>2026-05-02T10:33:06.333Z</time></trkpt><trkpt lat="43.0830985" lon="11.4207669"><ele>351.0</ele><time>2026-05-02T10:33:07.335Z</time></trkpt><trkpt lat="43.0829595" lon="11.4207203"><ele>353.0</ele><time>2026-05-02T10:33:08.331Z</time></trkpt><trkpt lat="43.0828184" lon="11.4206742"><ele>355.0</ele><time>2026-05-02T10:33:09.322Z</time></trkpt><trkpt lat="43.0826873" lon="11.4206328"><ele>355.0</ele><time>2026-05-02T10:33:10.336Z</time></trkpt><trkpt lat="43.0825542" lon="11.4205979"><ele>355.0</ele><time>2026-05-02T10:33:11.332Z</time></trkpt><trkpt lat="43.0824161" lon="11.4205654"><ele>355.0</ele><time>2026-05-02T10:33:12.346Z</time></trkpt><trkpt lat="43.0822786" lon="11.4205409"><ele>355.0</ele><time>2026-05-02T10:33:13.339Z</time></trkpt><trkpt lat="43.0821352" lon="11.4205374"><ele>354.75</ele><time>2026-05-02T10:33:14.335Z</time></trkpt><trkpt lat="43.0819988" lon="11.4205359"><ele>354.5</ele><time>2026-05-02T10:33:15.321Z</time></trkpt><trkpt lat="43.0818699" lon="11.4205149"><ele>354.25</ele><time>2026-05-02T10:33:16.339Z</time></trkpt><trkpt lat="43.0817306" lon="11.4204313"><ele>354.0</ele><time>2026-05-02T10:33:17.339Z</time></trkpt><trkpt lat="43.0816083" lon="11.4203289"><ele>359.3333333333333</ele><time>2026-05-02T10:33:18.33Z</time></trkpt><trkpt lat="43.0814901" lon="11.4201963"><ele>364.66666666666663</ele><time>2026-05-02T10:33:19.332Z</time></trkpt><trkpt lat="43.0813882" lon="11.4200382"><ele>370.0</ele><time>2026-05-02T10:33:20.317Z</time></trkpt><trkpt lat="43.0813014" lon="11.4198815"><ele>370.0</ele><time>2026-05-02T10:33:21.345Z</time></trkpt><trkpt lat="43.081226" lon="11.4197361"><ele>370.0</ele><time>2026-05-02T10:33:22.345Z</time></trkpt><trkpt lat="43.0811377" lon="11.4196197"><ele>370.0</ele><time>2026-05-02T10:33:23.338Z</time></trkpt><trkpt lat="43.0810298" lon="11.4195293"><ele>370.0</ele><time>2026-05-02T10:33:24.319Z</time></trkpt><trkpt lat="43.0809196" lon="11.4194666"><ele>369.0</ele><time>2026-05-02T10:33:25.336Z</time></trkpt><trkpt lat="43.0808099" lon="11.4194262"><ele>368.0</ele><time>2026-05-02T10:33:26.322Z</time></trkpt><trkpt lat="43.0806934" lon="11.419402"><ele>367.0</ele><time>2026-05-02T10:33:27.336Z</time></trkpt><trkpt lat="43.0805723" lon="11.4193811"><ele>366.0</ele><time>2026-05-02T10:33:28.336Z</time></trkpt><trkpt lat="43.0804635" lon="11.4193427"><ele>369.8</ele><time>2026-05-02T10:33:29.338Z</time></trkpt><trkpt lat="43.0803642" lon="11.4192962"><ele>373.6</ele><time>2026-05-02T10:33:30.34Z</time></trkpt><trkpt lat="43.080281" lon="11.4192102"><ele>377.4</ele><time>2026-05-02T10:33:31.333Z</time></trkpt><trkpt lat="43.0802149" lon="11.4191007"><ele>381.2</ele><time>2026-05-02T10:33:32.336Z</time></trkpt><trkpt lat="43.0801637" lon="11.418982"><ele>385.0</ele><time>2026-05-02T10:33:33.325Z</time></trkpt><trkpt lat="43.0801019" lon="11.4188594"><ele>383.2</ele><time>2026-05-02T10:33:34.327Z</time></trkpt><trkpt lat="43.0800319" lon="11.4187643"><ele>381.4</ele><time>2026-05-02T10:33:35.363Z</time></trkpt><trkpt lat="43.0799429" lon="11.418683"><ele>379.6</ele><time>2026-05-02T10:33:36.331Z</time></trkpt><trkpt lat="43.0798371" lon="11.4186197"><ele>377.8</ele><time>2026-05-02T10:33:37.332Z</time></trkpt><trkpt lat="43.0797185" lon="11.418564"><ele>376.0</ele><time>2026-05-02T10:33:38.334Z</time></trkpt><trkpt lat="43.0795958" lon="11.4185137"><ele>380.20000000000005</ele><time>2026-05-02T10:33:39.33Z</time></trkpt><trkpt lat="43.0794797" lon="11.4184637"><ele>384.40000000000003</ele><time>2026-05-02T10:33:40.326Z</time></trkpt><trkpt lat="43.0793702" lon="11.4184159"><ele>388.6</ele><time>2026-05-02T10:33:41.329Z</time></trkpt><trkpt lat="43.079272" lon="11.4183586"><ele>392.8</ele><time>2026-05-02T10:33:42.339Z</time></trkpt><trkpt lat="43.0791846" lon="11.4182853"><ele>397.0</ele><time>2026-05-02T10:33:43.335Z</time></trkpt><trkpt lat="43.0791004" lon="11.4181871"><ele>396.6</ele><time>2026-05-02T10:33:44.33Z</time></trkpt><trkpt lat="43.0790223" lon="11.4180984"><ele>396.20000000000005</ele><time>2026-05-02T10:33:45.332Z</time></trkpt><trkpt lat="43.078933" lon="11.4180323"><ele>395.8</ele><time>2026-05-02T10:33:46.335Z</time></trkpt><trkpt lat="43.078831" lon="11.4179877"><ele>395.4</ele><time>2026-05-02T10:33:47.327Z</time></trkpt><trkpt lat="43.0787172" lon="11.4179634"><ele>395.0</ele><time>2026-05-02T10:33:48.34Z</time></trkpt><trkpt lat="43.0785976" lon="11.4179443"><ele>395.0</ele><time>2026-05-02T10:33:49.333Z</time></trkpt><trkpt lat="43.078473" lon="11.4179336"><ele>395.0</ele><time>2026-05-02T10:33:50.332Z</time></trkpt><trkpt lat="43.0783395" lon="11.4179258"><ele>395.0</ele><time>2026-05-02T10:33:51.342Z</time></trkpt><trkpt lat="43.0782026" lon="11.4179053"><ele>395.0</ele><time>2026-05-02T10:33:52.323Z</time></trkpt><trkpt lat="43.0780685" lon="11.4178938"><ele>398.5</ele><time>2026-05-02T10:33:53.323Z</time></trkpt><trkpt lat="43.0779462" lon="11.4178931"><ele>402.0</ele><time>2026-05-02T10:33:54.328Z</time></trkpt><trkpt lat="43.0778279" lon="11.4179071"><ele>405.5</ele><time>2026-05-02T10:33:55.332Z</time></trkpt><trkpt lat="43.0777177" lon="11.4179182"><ele>409.0</ele><time>2026-05-02T10:33:56.328Z</time></trkpt><trkpt lat="43.0776136" lon="11.4179135"><ele>409.0</ele><time>2026-05-02T10:33:57.333Z</time></trkpt><trkpt lat="43.0775106" lon="11.4178868"><ele>409.0</ele><time>2026-05-02T10:33:58.326Z</time></trkpt><trkpt lat="43.0773965" lon="11.4178371"><ele>409.0</ele><time>2026-05-02T10:33:59.33Z</time></trkpt><trkpt lat="43.0772772" lon="11.4177581"><ele>409.0</ele><time>2026-05-02T10:34:00.331Z</time></trkpt><trkpt lat="43.0771691" lon="11.4176779"><ele>412.6</ele><time>2026-05-02T10:34:01.325Z</time></trkpt><trkpt lat="43.0770848" lon="11.4176059"><ele>416.2</ele><time>2026-05-02T10:34:02.345Z</time></trkpt><trkpt lat="43.0770152" lon="11.4175471"><ele>419.80000000000007</ele><time>2026-05-02T10:34:03.329Z</time></trkpt><trkpt lat="43.0769398" lon="11.4174728"><ele>423.40000000000003</ele><time>2026-05-02T10:34:04.323Z</time></trkpt><trkpt lat="43.0768745" lon="11.4173631"><ele>427.0</ele><time>2026-05-02T10:34:05.328Z</time></trkpt><trkpt lat="43.0768358" lon="11.4172253"><ele>427.50000000000006</ele><time>2026-05-02T10:34:06.337Z</time></trkpt><trkpt lat="43.0767949" lon="11.4170942"><ele>428.0</ele><time>2026-05-02T10:34:07.324Z</time></trkpt><trkpt lat="43.0767585" lon="11.417"><ele>428.5</ele><time>2026-05-02T10:34:08.327Z</time></trkpt><trkpt lat="43.0767127" lon="11.4169335"><ele>429.0</ele><time>2026-05-02T10:34:09.335Z</time></trkpt><trkpt lat="43.0766342" lon="11.4168804"><ele>429.50000000000006</ele><time>2026-05-02T10:34:10.328Z</time></trkpt><trkpt lat="43.0765339" lon="11.4168447"><ele>430.0</ele><time>2026-05-02T10:34:11.325Z</time></trkpt><trkpt lat="43.0764155" lon="11.416815"><ele>430.0</ele><time>2026-05-02T10:34:12.336Z</time></trkpt><trkpt lat="43.0762869" lon="11.4167722"><ele>430.0</ele><time>2026-05-02T10:34:13.339Z</time></trkpt><trkpt lat="43.076153" lon="11.4167232"><ele>430.0</ele><time>2026-05-02T10:34:14.335Z</time></trkpt><trkpt lat="43.0760175" lon="11.4166518"><ele>430.0</ele><time>2026-05-02T10:34:15.342Z</time></trkpt><trkpt lat="43.0758828" lon="11.4165503"><ele>431.0</ele><time>2026-05-02T10:34:16.324Z</time></trkpt><trkpt lat="43.0757373" lon="11.4164398"><ele>432.0</ele><time>2026-05-02T10:34:17.33Z</time></trkpt><trkpt lat="43.075605" lon="11.4163383"><ele>433.0</ele><time>2026-05-02T10:34:18.349Z</time></trkpt><trkpt lat="43.0754983" lon="11.4162684"><ele>434.0</ele><time>2026-05-02T10:34:19.327Z</time></trkpt><trkpt lat="43.0753966" lon="11.416195"><ele>434.2</ele><time>2026-05-02T10:34:20.339Z</time></trkpt><trkpt lat="43.0752998" lon="11.4161215"><ele>434.4</ele><time>2026-05-02T10:34:21.331Z</time></trkpt><trkpt lat="43.0752093" lon="11.4160478"><ele>434.6</ele><time>2026-05-02T10:34:22.331Z</time></trkpt><trkpt lat="43.075121" lon="11.4159819"><ele>434.8</ele><time>2026-05-02T10:34:23.333Z</time></trkpt><trkpt lat="43.0750382" lon="11.4159308"><ele>435.0</ele><time>2026-05-02T10:34:24.338Z</time></trkpt><trkpt lat="43.0749597" lon="11.4158935"><ele>435.7142857142857</ele><time>2026-05-02T10:34:25.332Z</time></trkpt><trkpt lat="43.0748819" lon="11.4158508"><ele>436.42857142857144</ele><time>2026-05-02T10:34:26.33Z</time></trkpt><trkpt lat="43.0748045" lon="11.4158183"><ele>437.1428571428571</ele><time>2026-05-02T10:34:27.332Z</time></trkpt><trkpt lat="43.0747361" lon="11.4157933"><ele>437.8571428571429</ele><time>2026-05-02T10:34:28.336Z</time></trkpt><trkpt lat="43.0746651" lon="11.4157765"><ele>438.57142857142856</ele><time>2026-05-02T10:34:29.33Z</time></trkpt><trkpt lat="43.0745996" lon="11.415765"><ele>439.2857142857143</ele><time>2026-05-02T10:34:30.337Z</time></trkpt><trkpt lat="43.0745338" lon="11.4157495"><ele>440.0</ele><time>2026-05-02T10:34:31.338Z</time></trkpt><trkpt lat="43.0744724" lon="11.4157168"><ele>439.99999999999994</ele><time>2026-05-02T10:34:32.336Z</time></trkpt><trkpt lat="43.0743909" lon="11.4155972"><ele>440.0</ele><time>2026-05-02T10:34:34.339Z</time></trkpt><trkpt lat="43.0743749" lon="11.4155138"><ele>440.0</ele><time>2026-05-02T10:34:35.337Z</time></trkpt><trkpt lat="43.074366" lon="11.4153593"><ele>440.0</ele><time>2026-05-02T10:34:37.335Z</time></trkpt><trkpt lat="43.0743826" lon="11.4152755"><ele>439.99999999999994</ele><time>2026-05-02T10:34:39.333Z</time></trkpt><trkpt lat="43.0743694" lon="11.4151624"><ele>440.0</ele><time>2026-05-02T10:34:49.337Z</time></trkpt><trkpt lat="43.0743306" lon="11.4150151"><ele>441.66666666666663</ele><time>2026-05-02T10:34:51.322Z</time></trkpt><trkpt lat="43.0743072" lon="11.4149082"><ele>443.3333333333333</ele><time>2026-05-02T10:34:52.328Z</time></trkpt><trkpt lat="43.0742821" lon="11.414784"><ele>445.0</ele><time>2026-05-02T10:34:53.316Z</time></trkpt><trkpt lat="43.0742512" lon="11.4146612"><ele>446.66666666666663</ele><time>2026-05-02T10:34:54.336Z</time></trkpt><trkpt lat="43.074207" lon="11.4145564"><ele>448.3333333333333</ele><time>2026-05-02T10:34:55.333Z</time></trkpt><trkpt lat="43.0741496" lon="11.4144822"><ele>450.0</ele><time>2026-05-02T10:34:56.324Z</time></trkpt><trkpt lat="43.074076" lon="11.4144215"><ele>453.6</ele><time>2026-05-02T10:34:57.335Z</time></trkpt><trkpt lat="43.0739867" lon="11.4144"><ele>457.2</ele><time>2026-05-02T10:34:58.314Z</time></trkpt><trkpt lat="43.0738721" lon="11.4143901"><ele>460.79999999999995</ele><time>2026-05-02T10:34:59.344Z</time></trkpt><trkpt lat="43.0737534" lon="11.4143774"><ele>464.4</ele><time>2026-05-02T10:35:00.33Z</time></trkpt><trkpt lat="43.0736319" lon="11.4143581"><ele>468.0</ele><time>2026-05-02T10:35:01.335Z</time></trkpt><trkpt lat="43.0735218" lon="11.4143381"><ele>468.0</ele><time>2026-05-02T10:35:02.325Z</time></trkpt><trkpt lat="43.0734276" lon="11.4143128"><ele>467.99999999999994</ele><time>2026-05-02T10:35:03.328Z</time></trkpt><trkpt lat="43.0733283" lon="11.4142888"><ele>467.99999999999994</ele><time>2026-05-02T10:35:04.332Z</time></trkpt><trkpt lat="43.0732173" lon="11.4142653"><ele>468.0</ele><time>2026-05-02T10:35:05.329Z</time></trkpt><trkpt lat="43.0730978" lon="11.4142513"><ele>468.0</ele><time>2026-05-02T10:35:06.333Z</time></trkpt><trkpt lat="43.0729813" lon="11.414255"><ele>470.25</ele><time>2026-05-02T10:35:07.333Z</time></trkpt><trkpt lat="43.0728629" lon="11.4142638"><ele>472.5</ele><time>2026-05-02T10:35:08.322Z</time></trkpt><trkpt lat="43.0727444" lon="11.41427"><ele>474.75</ele><time>2026-05-02T10:35:09.325Z</time></trkpt><trkpt lat="43.0726205" lon="11.4142499"><ele>477.0</ele><time>2026-05-02T10:35:10.343Z</time></trkpt><trkpt lat="43.0724982" lon="11.4142039"><ele>476.5</ele><time>2026-05-02T10:35:11.322Z</time></trkpt><trkpt lat="43.0723857" lon="11.4141448"><ele>476.0</ele><time>2026-05-02T10:35:12.332Z</time></trkpt><trkpt lat="43.0722769" lon="11.414061"><ele>475.5</ele><time>2026-05-02T10:35:13.343Z</time></trkpt><trkpt lat="43.0721575" lon="11.4139952"><ele>475.0</ele><time>2026-05-02T10:35:14.345Z</time></trkpt><trkpt lat="43.0720436" lon="11.4139345"><ele>475.0</ele><time>2026-05-02T10:35:15.335Z</time></trkpt><trkpt lat="43.071921" lon="11.4138763"><ele>475.0</ele><time>2026-05-02T10:35:16.335Z</time></trkpt><trkpt lat="43.0717867" lon="11.4138005"><ele>475.0</ele><time>2026-05-02T10:35:17.331Z</time></trkpt><trkpt lat="43.0716735" lon="11.4137229"><ele>475.0</ele><time>2026-05-02T10:35:18.33Z</time></trkpt><trkpt lat="43.0715731" lon="11.4136447"><ele>477.2</ele><time>2026-05-02T10:35:19.323Z</time></trkpt><trkpt lat="43.071472" lon="11.4135821"><ele>479.4</ele><time>2026-05-02T10:35:20.335Z</time></trkpt><trkpt lat="43.0713742" lon="11.4135502"><ele>481.6</ele><time>2026-05-02T10:35:21.342Z</time></trkpt><trkpt lat="43.0712676" lon="11.4135543"><ele>483.8</ele><time>2026-05-02T10:35:22.338Z</time></trkpt><trkpt lat="43.0711541" lon="11.4135823"><ele>486.0</ele><time>2026-05-02T10:35:23.329Z</time></trkpt><trkpt lat="43.0710415" lon="11.413572"><ele>486.0</ele><time>2026-05-02T10:35:24.335Z</time></trkpt><trkpt lat="43.0709391" lon="11.413529"><ele>486.0</ele><time>2026-05-02T10:35:25.334Z</time></trkpt><trkpt lat="43.0708384" lon="11.4134689"><ele>486.0</ele><time>2026-05-02T10:35:26.331Z</time></trkpt><trkpt lat="43.0707518" lon="11.4133644"><ele>486.0</ele><time>2026-05-02T10:35:27.326Z</time></trkpt><trkpt lat="43.070655" lon="11.4132368"><ele>487.8</ele><time>2026-05-02T10:35:28.34Z</time></trkpt><trkpt lat="43.0705555" lon="11.4131119"><ele>489.6</ele><time>2026-05-02T10:35:29.339Z</time></trkpt><trkpt lat="43.0704677" lon="11.4130048"><ele>491.4</ele><time>2026-05-02T10:35:30.336Z</time></trkpt><trkpt lat="43.0703933" lon="11.412945"><ele>493.2</ele><time>2026-05-02T10:35:31.342Z</time></trkpt><trkpt lat="43.070316" lon="11.4129071"><ele>495.0</ele><time>2026-05-02T10:35:32.327Z</time></trkpt><trkpt lat="43.0702433" lon="11.4129246"><ele>495.0</ele><time>2026-05-02T10:35:33.313Z</time></trkpt><trkpt lat="43.070173" lon="11.4130021"><ele>495.0</ele><time>2026-05-02T10:35:34.309Z</time></trkpt><trkpt lat="43.0701147" lon="11.4131037"><ele>495.0</ele><time>2026-05-02T10:35:35.325Z</time></trkpt><trkpt lat="43.0700661" lon="11.4132313"><ele>495.0</ele><time>2026-05-02T10:35:36.333Z</time></trkpt><trkpt lat="43.0700182" lon="11.4133616"><ele>495.0</ele><time>2026-05-02T10:35:37.314Z</time></trkpt><trkpt lat="43.0699878" lon="11.413519"><ele>495.0</ele><time>2026-05-02T10:35:38.332Z</time></trkpt><trkpt lat="43.0699799" lon="11.4136921"><ele>495.0</ele><time>2026-05-02T10:35:39.326Z</time></trkpt><trkpt lat="43.0699945" lon="11.4138933"><ele>495.0</ele><time>2026-05-02T10:35:40.337Z</time></trkpt><trkpt lat="43.07001" lon="11.4140948"><ele>495.0</ele><time>2026-05-02T10:35:41.328Z</time></trkpt><trkpt lat="43.070012" lon="11.414269"><ele>494.75</ele><time>2026-05-02T10:35:42.321Z</time></trkpt><trkpt lat="43.0699949" lon="11.4144374"><ele>494.5</ele><time>2026-05-02T10:35:43.33Z</time></trkpt><trkpt lat="43.0699633" lon="11.4145969"><ele>494.25</ele><time>2026-05-02T10:35:44.328Z</time></trkpt><trkpt lat="43.0699185" lon="11.4147359"><ele>494.0</ele><time>2026-05-02T10:35:45.337Z</time></trkpt><trkpt lat="43.0698499" lon="11.4148488"><ele>495.25</ele><time>2026-05-02T10:35:46.336Z</time></trkpt><trkpt lat="43.0697588" lon="11.4149533"><ele>496.5</ele><time>2026-05-02T10:35:47.326Z</time></trkpt><trkpt lat="43.0696394" lon="11.415041"><ele>497.75</ele><time>2026-05-02T10:35:48.327Z</time></trkpt><trkpt lat="43.0695052" lon="11.4151483"><ele>499.0</ele><time>2026-05-02T10:35:49.331Z</time></trkpt><trkpt lat="43.0693763" lon="11.4152674"><ele>499.0</ele><time>2026-05-02T10:35:50.339Z</time></trkpt><trkpt lat="43.0692464" lon="11.4153766"><ele>499.0</ele><time>2026-05-02T10:35:51.331Z</time></trkpt><trkpt lat="43.0691303" lon="11.4154587"><ele>499.0</ele><time>2026-05-02T10:35:52.328Z</time></trkpt><trkpt lat="43.0689968" lon="11.4155112"><ele>499.0</ele><time>2026-05-02T10:35:53.331Z</time></trkpt><trkpt lat="43.0688375" lon="11.4155683"><ele>495.33333333333337</ele><time>2026-05-02T10:35:54.327Z</time></trkpt><trkpt lat="43.0686788" lon="11.4156351"><ele>491.66666666666663</ele><time>2026-05-02T10:35:55.324Z</time></trkpt><trkpt lat="43.0685467" lon="11.4157376"><ele>488.0</ele><time>2026-05-02T10:35:56.339Z</time></trkpt><trkpt lat="43.0684087" lon="11.4158779"><ele>487.66666666666663</ele><time>2026-05-02T10:35:57.339Z</time></trkpt><trkpt lat="43.0682607" lon="11.4160482"><ele>487.33333333333337</ele><time>2026-05-02T10:35:58.337Z</time></trkpt><trkpt lat="43.0681035" lon="11.4162108"><ele>487.0</ele><time>2026-05-02T10:35:59.331Z</time></trkpt><trkpt lat="43.0679656" lon="11.4163295"><ele>489.5</ele><time>2026-05-02T10:36:00.348Z</time></trkpt><trkpt lat="43.0678624" lon="11.4164138"><ele>492.0</ele><time>2026-05-02T10:36:01.328Z</time></trkpt><trkpt lat="43.0677842" lon="11.4165096"><ele>494.5</ele><time>2026-05-02T10:36:02.334Z</time></trkpt><trkpt lat="43.0677256" lon="11.4166453"><ele>497.0</ele><time>2026-05-02T10:36:03.333Z</time></trkpt><trkpt lat="43.0676727" lon="11.41682"><ele>497.0</ele><time>2026-05-02T10:36:04.328Z</time></trkpt><trkpt lat="43.0676092" lon="11.4170085"><ele>497.0</ele><time>2026-05-02T10:36:05.326Z</time></trkpt><trkpt lat="43.0675267" lon="11.4171899"><ele>497.0</ele><time>2026-05-02T10:36:06.331Z</time></trkpt><trkpt lat="43.0674316" lon="11.4173212"><ele>497.0</ele><time>2026-05-02T10:36:07.337Z</time></trkpt><trkpt lat="43.0673374" lon="11.4174281"><ele>498.75</ele><time>2026-05-02T10:36:08.33Z</time></trkpt><trkpt lat="43.0672421" lon="11.4175098"><ele>500.5</ele><time>2026-05-02T10:36:09.331Z</time></trkpt><trkpt lat="43.0671202" lon="11.4175729"><ele>502.25</ele><time>2026-05-02T10:36:10.322Z</time></trkpt><trkpt lat="43.0669792" lon="11.4176373"><ele>504.0</ele><time>2026-05-02T10:36:11.347Z</time></trkpt><trkpt lat="43.0668634" lon="11.4177125"><ele>504.0</ele><time>2026-05-02T10:36:12.337Z</time></trkpt><trkpt lat="43.0667888" lon="11.4177969"><ele>504.0</ele><time>2026-05-02T10:36:13.334Z</time></trkpt><trkpt lat="43.066732" lon="11.4179192"><ele>504.0</ele><time>2026-05-02T10:36:14.342Z</time></trkpt><trkpt lat="43.0666832" lon="11.4180651"><ele>504.0</ele><time>2026-05-02T10:36:15.339Z</time></trkpt><trkpt lat="43.0666353" lon="11.4182491"><ele>498.66666666666663</ele><time>2026-05-02T10:36:16.342Z</time></trkpt><trkpt lat="43.0666009" lon="11.4184538"><ele>493.3333333333333</ele><time>2026-05-02T10:36:17.336Z</time></trkpt><trkpt lat="43.0665767" lon="11.4186752"><ele>488.0</ele><time>2026-05-02T10:36:18.335Z</time></trkpt><trkpt lat="43.0665662" lon="11.4189068"><ele>486.25</ele><time>2026-05-02T10:36:19.329Z</time></trkpt><trkpt lat="43.0665741" lon="11.419115"><ele>484.5</ele><time>2026-05-02T10:36:20.331Z</time></trkpt><trkpt lat="43.0665879" lon="11.4192906"><ele>482.75</ele><time>2026-05-02T10:36:21.337Z</time></trkpt><trkpt lat="43.0665985" lon="11.419446"><ele>481.0</ele><time>2026-05-02T10:36:22.33Z</time></trkpt><trkpt lat="43.0666052" lon="11.4195972"><ele>482.0</ele><time>2026-05-02T10:36:23.325Z</time></trkpt><trkpt lat="43.0666095" lon="11.4197548"><ele>483.0</ele><time>2026-05-02T10:36:24.339Z</time></trkpt><trkpt lat="43.0665975" lon="11.4199142"><ele>484.0</ele><time>2026-05-02T10:36:25.328Z</time></trkpt><trkpt lat="43.0665577" lon="11.4200559"><ele>485.0</ele><time>2026-05-02T10:36:26.337Z</time></trkpt><trkpt lat="43.0665033" lon="11.4201986"><ele>485.0</ele><time>2026-05-02T10:36:27.322Z</time></trkpt><trkpt lat="43.0664309" lon="11.4203213"><ele>485.0</ele><time>2026-05-02T10:36:28.325Z</time></trkpt><trkpt lat="43.0663516" lon="11.4204519"><ele>485.0</ele><time>2026-05-02T10:36:29.322Z</time></trkpt><trkpt lat="43.0662755" lon="11.4205986"><ele>485.0</ele><time>2026-05-02T10:36:30.337Z</time></trkpt><trkpt lat="43.066186" lon="11.4207742"><ele>487.3333333333333</ele><time>2026-05-02T10:36:31.321Z</time></trkpt><trkpt lat="43.0660765" lon="11.4209671"><ele>489.66666666666663</ele><time>2026-05-02T10:36:32.329Z</time></trkpt><trkpt lat="43.0659653" lon="11.4211653"><ele>492.0</ele><time>2026-05-02T10:36:33.327Z</time></trkpt><trkpt lat="43.0658683" lon="11.4213481"><ele>493.25</ele><time>2026-05-02T10:36:34.331Z</time></trkpt><trkpt lat="43.0657844" lon="11.4215079"><ele>494.5</ele><time>2026-05-02T10:36:35.329Z</time></trkpt><trkpt lat="43.065705" lon="11.4216496"><ele>495.75</ele><time>2026-05-02T10:36:36.34Z</time></trkpt><trkpt lat="43.0656281" lon="11.4217702"><ele>497.0</ele><time>2026-05-02T10:36:37.339Z</time></trkpt><trkpt lat="43.0655339" lon="11.4218723"><ele>496.25</ele><time>2026-05-02T10:36:38.334Z</time></trkpt><trkpt lat="43.0654241" lon="11.4219742"><ele>495.5</ele><time>2026-05-02T10:36:39.322Z</time></trkpt><trkpt lat="43.0653174" lon="11.4220709"><ele>494.75</ele><time>2026-05-02T10:36:40.331Z</time></trkpt><trkpt lat="43.0652165" lon="11.4221432"><ele>494.0</ele><time>2026-05-02T10:36:41.328Z</time></trkpt><trkpt lat="43.0651091" lon="11.4221879"><ele>494.0</ele><time>2026-05-02T10:36:42.332Z</time></trkpt><trkpt lat="43.0649933" lon="11.4222131"><ele>494.0</ele><time>2026-05-02T10:36:43.332Z</time></trkpt><trkpt lat="43.0648628" lon="11.422225"><ele>494.0</ele><time>2026-05-02T10:36:44.334Z</time></trkpt><trkpt lat="43.0647311" lon="11.4222282"><ele>494.0</ele><time>2026-05-02T10:36:45.332Z</time></trkpt><trkpt lat="43.0646033" lon="11.4222175"><ele>492.0</ele><time>2026-05-02T10:36:46.331Z</time></trkpt><trkpt lat="43.064472" lon="11.4221762"><ele>490.0</ele><time>2026-05-02T10:36:47.338Z</time></trkpt><trkpt lat="43.0643433" lon="11.4221244"><ele>488.0</ele><time>2026-05-02T10:36:48.331Z</time></trkpt><trkpt lat="43.0642201" lon="11.4220618"><ele>486.0</ele><time>2026-05-02T10:36:49.333Z</time></trkpt><trkpt lat="43.0641088" lon="11.4220122"><ele>483.20000000000005</ele><time>2026-05-02T10:36:50.343Z</time></trkpt><trkpt lat="43.0639978" lon="11.4219679"><ele>480.40000000000003</ele><time>2026-05-02T10:36:51.328Z</time></trkpt><trkpt lat="43.0638895" lon="11.4219555"><ele>477.6</ele><time>2026-05-02T10:36:52.335Z</time></trkpt><trkpt lat="43.0637786" lon="11.4219778"><ele>474.8</ele><time>2026-05-02T10:36:53.325Z</time></trkpt><trkpt lat="43.0636784" lon="11.4219884"><ele>472.0</ele><time>2026-05-02T10:36:54.33Z</time></trkpt><trkpt lat="43.0636091" lon="11.4220108"><ele>472.00000000000006</ele><time>2026-05-02T10:36:55.343Z</time></trkpt><trkpt lat="43.063545" lon="11.4220772"><ele>472.0</ele><time>2026-05-02T10:36:56.324Z</time></trkpt><trkpt lat="43.0635046" lon="11.4221542"><ele>472.0</ele><time>2026-05-02T10:36:57.321Z</time></trkpt><trkpt lat="43.0634929" lon="11.4222673"><ele>472.0</ele><time>2026-05-02T10:36:58.33Z</time></trkpt><trkpt lat="43.0635104" lon="11.4223994"><ele>472.00000000000006</ele><time>2026-05-02T10:36:59.332Z</time></trkpt><trkpt lat="43.0635411" lon="11.4225276"><ele>472.0</ele><time>2026-05-02T10:37:00.333Z</time></trkpt><trkpt lat="43.063562" lon="11.4226625"><ele>472.0</ele><time>2026-05-02T10:37:01.332Z</time></trkpt><trkpt lat="43.0635577" lon="11.4228097"><ele>472.0</ele><time>2026-05-02T10:37:02.337Z</time></trkpt><trkpt lat="43.0635258" lon="11.4229576"><ele>472.0</ele><time>2026-05-02T10:37:03.333Z</time></trkpt><trkpt lat="43.0634701" lon="11.4231004"><ele>472.0</ele><time>2026-05-02T10:37:04.33Z</time></trkpt><trkpt lat="43.0634018" lon="11.4232408"><ele>471.40000000000003</ele><time>2026-05-02T10:37:05.331Z</time></trkpt><trkpt lat="43.0633571" lon="11.4233684"><ele>470.80000000000007</ele><time>2026-05-02T10:37:06.345Z</time></trkpt><trkpt lat="43.063342" lon="11.4234976"><ele>470.2</ele><time>2026-05-02T10:37:07.329Z</time></trkpt><trkpt lat="43.0633522" lon="11.423627"><ele>469.6</ele><time>2026-05-02T10:37:08.339Z</time></trkpt><trkpt lat="43.0633774" lon="11.4237419"><ele>469.0</ele><time>2026-05-02T10:37:09.324Z</time></trkpt><trkpt lat="43.06339" lon="11.4238484"><ele>468.2</ele><time>2026-05-02T10:37:10.327Z</time></trkpt><trkpt lat="43.0634044" lon="11.4239662"><ele>467.4</ele><time>2026-05-02T10:37:11.334Z</time></trkpt><trkpt lat="43.0634008" lon="11.4240894"><ele>466.6</ele><time>2026-05-02T10:37:12.325Z</time></trkpt><trkpt lat="43.063373" lon="11.4242196"><ele>465.8</ele><time>2026-05-02T10:37:13.335Z</time></trkpt><trkpt lat="43.0633379" lon="11.4243541"><ele>465.0</ele><time>2026-05-02T10:37:14.343Z</time></trkpt><trkpt lat="43.063302" lon="11.4244918"><ele>464.25</ele><time>2026-05-02T10:37:15.325Z</time></trkpt><trkpt lat="43.0632735" lon="11.4246506"><ele>463.5</ele><time>2026-05-02T10:37:16.323Z</time></trkpt><trkpt lat="43.0632443" lon="11.424822"><ele>462.75</ele><time>2026-05-02T10:37:17.331Z</time></trkpt><trkpt lat="43.0632112" lon="11.4249872"><ele>462.0</ele><time>2026-05-02T10:37:18.324Z</time></trkpt><trkpt lat="43.063157" lon="11.4251366"><ele>462.0</ele><time>2026-05-02T10:37:19.336Z</time></trkpt><trkpt lat="43.0630767" lon="11.4252891"><ele>462.0</ele><time>2026-05-02T10:37:20.331Z</time></trkpt><trkpt lat="43.0629865" lon="11.4254499"><ele>462.0</ele><time>2026-05-02T10:37:21.342Z</time></trkpt><trkpt lat="43.0629157" lon="11.4255995"><ele>462.0</ele><time>2026-05-02T10:37:22.324Z</time></trkpt><trkpt lat="43.0628703" lon="11.4257563"><ele>463.0</ele><time>2026-05-02T10:37:23.334Z</time></trkpt><trkpt lat="43.0628546" lon="11.4259358"><ele>464.0</ele><time>2026-05-02T10:37:24.323Z</time></trkpt><trkpt lat="43.0628532" lon="11.4261222"><ele>465.0</ele><time>2026-05-02T10:37:25.336Z</time></trkpt><trkpt lat="43.0628602" lon="11.4263241"><ele>466.0</ele><time>2026-05-02T10:37:26.331Z</time></trkpt><trkpt lat="43.0628779" lon="11.4265148"><ele>466.0</ele><time>2026-05-02T10:37:27.342Z</time></trkpt><trkpt lat="43.0629006" lon="11.4266696"><ele>466.0</ele><time>2026-05-02T10:37:28.33Z</time></trkpt><trkpt lat="43.0629145" lon="11.4268146"><ele>466.0</ele><time>2026-05-02T10:37:29.351Z</time></trkpt><trkpt lat="43.0629099" lon="11.4269458"><ele>466.0</ele><time>2026-05-02T10:37:30.326Z</time></trkpt><trkpt lat="43.0628827" lon="11.4270791"><ele>466.0</ele><time>2026-05-02T10:37:31.332Z</time></trkpt><trkpt lat="43.0628301" lon="11.4272028"><ele>466.0</ele><time>2026-05-02T10:37:32.334Z</time></trkpt><trkpt lat="43.0627545" lon="11.4273018"><ele>466.0</ele><time>2026-05-02T10:37:33.338Z</time></trkpt><trkpt lat="43.0626596" lon="11.4273798"><ele>466.0</ele><time>2026-05-02T10:37:34.331Z</time></trkpt><trkpt lat="43.0625348" lon="11.4274436"><ele>466.0</ele><time>2026-05-02T10:37:35.324Z</time></trkpt><trkpt lat="43.0624043" lon="11.4275003"><ele>467.0</ele><time>2026-05-02T10:37:36.341Z</time></trkpt><trkpt lat="43.0622806" lon="11.4275523"><ele>468.0</ele><time>2026-05-02T10:37:37.334Z</time></trkpt><trkpt lat="43.0621635" lon="11.4275916"><ele>469.0</ele><time>2026-05-02T10:37:38.323Z</time></trkpt><trkpt lat="43.0620578" lon="11.4276138"><ele>470.0</ele><time>2026-05-02T10:37:39.329Z</time></trkpt><trkpt lat="43.0619559" lon="11.4275997"><ele>470.0</ele><time>2026-05-02T10:37:40.331Z</time></trkpt><trkpt lat="43.0618523" lon="11.4275666"><ele>470.0</ele><time>2026-05-02T10:37:41.331Z</time></trkpt><trkpt lat="43.0617432" lon="11.4275148"><ele>470.0</ele><time>2026-05-02T10:37:42.331Z</time></trkpt><trkpt lat="43.0616361" lon="11.427444"><ele>470.0</ele><time>2026-05-02T10:37:43.338Z</time></trkpt><trkpt lat="43.0615343" lon="11.4273947"><ele>470.0</ele><time>2026-05-02T10:37:44.331Z</time></trkpt><trkpt lat="43.061421" lon="11.4273762"><ele>470.25</ele><time>2026-05-02T10:37:45.337Z</time></trkpt><trkpt lat="43.0612989" lon="11.427386"><ele>470.5</ele><time>2026-05-02T10:37:46.34Z</time></trkpt><trkpt lat="43.0611701" lon="11.4274141"><ele>470.75</ele><time>2026-05-02T10:37:47.332Z</time></trkpt><trkpt lat="43.0610494" lon="11.4274543"><ele>471.0</ele><time>2026-05-02T10:37:48.322Z</time></trkpt><trkpt lat="43.06095" lon="11.4274809"><ele>471.0</ele><time>2026-05-02T10:37:49.337Z</time></trkpt><trkpt lat="43.0608506" lon="11.4274627"><ele>471.0</ele><time>2026-05-02T10:37:50.345Z</time></trkpt><trkpt lat="43.0607405" lon="11.4273964"><ele>471.0</ele><time>2026-05-02T10:37:51.323Z</time></trkpt><trkpt lat="43.0606279" lon="11.4273222"><ele>471.0</ele><time>2026-05-02T10:37:52.327Z</time></trkpt><trkpt lat="43.0605416" lon="11.4272681"><ele>471.0</ele><time>2026-05-02T10:37:53.325Z</time></trkpt><trkpt lat="43.0604711" lon="11.4272366"><ele>472.6</ele><time>2026-05-02T10:37:54.336Z</time></trkpt><trkpt lat="43.0603824" lon="11.4272518"><ele>474.20000000000005</ele><time>2026-05-02T10:37:56.341Z</time></trkpt><trkpt lat="43.0603099" lon="11.4273762"><ele>475.79999999999995</ele><time>2026-05-02T10:37:58.336Z</time></trkpt><trkpt lat="43.060285" lon="11.4274965"><ele>477.4</ele><time>2026-05-02T10:37:59.325Z</time></trkpt><trkpt lat="43.0602658" lon="11.4276219"><ele>479.0</ele><time>2026-05-02T10:38:00.327Z</time></trkpt><trkpt lat="43.0602253" lon="11.4277134"><ele>478.99999999999994</ele><time>2026-05-02T10:38:01.339Z</time></trkpt><trkpt lat="43.0601515" lon="11.4277803"><ele>479.0</ele><time>2026-05-02T10:38:02.313Z</time></trkpt><trkpt lat="43.0600622" lon="11.4278437"><ele>479.0</ele><time>2026-05-02T10:38:03.332Z</time></trkpt><trkpt lat="43.0599819" lon="11.427881"><ele>479.0</ele><time>2026-05-02T10:38:04.337Z</time></trkpt><trkpt lat="43.0599089" lon="11.4278981"><ele>478.99999999999994</ele><time>2026-05-02T10:38:05.34Z</time></trkpt><trkpt lat="43.0598339" lon="11.4278802"><ele>479.0</ele><time>2026-05-02T10:38:06.335Z</time></trkpt><trkpt lat="43.059765" lon="11.4278418"><ele>480.0</ele><time>2026-05-02T10:38:07.353Z</time></trkpt><trkpt lat="43.0596998" lon="11.4277751"><ele>481.0</ele><time>2026-05-02T10:38:08.335Z</time></trkpt><trkpt lat="43.0596347" lon="11.427681"><ele>482.0</ele><time>2026-05-02T10:38:09.32Z</time></trkpt><trkpt lat="43.0595584" lon="11.4275564"><ele>483.0</ele><time>2026-05-02T10:38:10.334Z</time></trkpt><trkpt lat="43.0594817" lon="11.4274417"><ele>484.0</ele><time>2026-05-02T10:38:11.343Z</time></trkpt><trkpt lat="43.0594143" lon="11.4273451"><ele>484.0</ele><time>2026-05-02T10:38:12.338Z</time></trkpt><trkpt lat="43.0593561" lon="11.4272959"><ele>483.99999999999994</ele><time>2026-05-02T10:38:13.323Z</time></trkpt><trkpt lat="43.0592841" lon="11.4272591"><ele>484.0</ele><time>2026-05-02T10:38:14.321Z</time></trkpt><trkpt lat="43.0592129" lon="11.4272467"><ele>484.0</ele><time>2026-05-02T10:38:15.316Z</time></trkpt><trkpt lat="43.0591357" lon="11.4272735"><ele>483.99999999999994</ele><time>2026-05-02T10:38:16.319Z</time></trkpt><trkpt lat="43.0590743" lon="11.4273272"><ele>484.0</ele><time>2026-05-02T10:38:17.332Z</time></trkpt><trkpt lat="43.0590317" lon="11.4273998"><ele>484.0</ele><time>2026-05-02T10:38:18.327Z</time></trkpt><trkpt lat="43.0590229" lon="11.4274878"><ele>484.00000000000006</ele><time>2026-05-02T10:38:19.329Z</time></trkpt><trkpt lat="43.0590386" lon="11.4275918"><ele>484.0</ele><time>2026-05-02T10:38:20.323Z</time></trkpt><trkpt lat="43.0590721" lon="11.4276967"><ele>484.0</ele><time>2026-05-02T10:38:21.335Z</time></trkpt><trkpt lat="43.059113" lon="11.4278113"><ele>484.0</ele><time>2026-05-02T10:38:22.325Z</time></trkpt><trkpt lat="43.0591481" lon="11.4279291"><ele>484.00000000000006</ele><time>2026-05-02T10:38:23.334Z</time></trkpt><trkpt lat="43.0591805" lon="11.4280554"><ele>484.0</ele><time>2026-05-02T10:38:24.332Z</time></trkpt><trkpt lat="43.0591891" lon="11.428166"><ele>483.1666666666667</ele><time>2026-05-02T10:38:25.338Z</time></trkpt><trkpt lat="43.0591657" lon="11.4282597"><ele>482.33333333333337</ele><time>2026-05-02T10:38:26.333Z</time></trkpt><trkpt lat="43.0591106" lon="11.4283286"><ele>481.5</ele><time>2026-05-02T10:38:27.33Z</time></trkpt><trkpt lat="43.0590436" lon="11.428389"><ele>480.66666666666663</ele><time>2026-05-02T10:38:28.329Z</time></trkpt><trkpt lat="43.0589572" lon="11.4284115"><ele>479.8333333333333</ele><time>2026-05-02T10:38:29.333Z</time></trkpt><trkpt lat="43.0588501" lon="11.4284511"><ele>479.0</ele><time>2026-05-02T10:38:30.323Z</time></trkpt><trkpt lat="43.058752" lon="11.4285441"><ele>480.75</ele><time>2026-05-02T10:38:31.333Z</time></trkpt><trkpt lat="43.0586716" lon="11.42868"><ele>482.5</ele><time>2026-05-02T10:38:32.325Z</time></trkpt><trkpt lat="43.0585958" lon="11.4288365"><ele>484.25</ele><time>2026-05-02T10:38:33.329Z</time></trkpt><trkpt lat="43.0585348" lon="11.4290329"><ele>486.0</ele><time>2026-05-02T10:38:34.345Z</time></trkpt><trkpt lat="43.0584693" lon="11.4292442"><ele>486.0</ele><time>2026-05-02T10:38:35.321Z</time></trkpt><trkpt lat="43.0584038" lon="11.4294798"><ele>486.0</ele><time>2026-05-02T10:38:36.327Z</time></trkpt><trkpt lat="43.0583517" lon="11.4297094"><ele>486.0</ele><time>2026-05-02T10:38:37.331Z</time></trkpt><trkpt lat="43.0583219" lon="11.4298961"><ele>486.0</ele><time>2026-05-02T10:38:38.324Z</time></trkpt><trkpt lat="43.0582976" lon="11.4300357"><ele>486.0</ele><time>2026-05-02T10:38:39.343Z</time></trkpt><trkpt lat="43.0582901" lon="11.430175"><ele>486.0</ele><time>2026-05-02T10:38:40.329Z</time></trkpt><trkpt lat="43.0582907" lon="11.4303351"><ele>486.0</ele><time>2026-05-02T10:38:41.331Z</time></trkpt><trkpt lat="43.0583007" lon="11.4304984"><ele>486.0</ele><time>2026-05-02T10:38:42.328Z</time></trkpt><trkpt lat="43.0582983" lon="11.4306364"><ele>484.8</ele><time>2026-05-02T10:38:43.336Z</time></trkpt><trkpt lat="43.0582823" lon="11.4307474"><ele>483.6</ele><time>2026-05-02T10:38:44.327Z</time></trkpt><trkpt lat="43.0582377" lon="11.4308606"><ele>482.4</ele><time>2026-05-02T10:38:45.341Z</time></trkpt><trkpt lat="43.0581652" lon="11.4309569"><ele>481.2</ele><time>2026-05-02T10:38:46.332Z</time></trkpt><trkpt lat="43.0580571" lon="11.4310486"><ele>480.0</ele><time>2026-05-02T10:38:47.331Z</time></trkpt><trkpt lat="43.0579268" lon="11.4311345"><ele>480.0</ele><time>2026-05-02T10:38:48.324Z</time></trkpt><trkpt lat="43.057798" lon="11.4312177"><ele>480.0</ele><time>2026-05-02T10:38:49.327Z</time></trkpt><trkpt lat="43.0576834" lon="11.4313012"><ele>480.0</ele><time>2026-05-02T10:38:50.33Z</time></trkpt><trkpt lat="43.0575794" lon="11.4313842"><ele>480.0</ele><time>2026-05-02T10:38:51.33Z</time></trkpt><trkpt lat="43.0574828" lon="11.4314826"><ele>482.25</ele><time>2026-05-02T10:38:52.332Z</time></trkpt><trkpt lat="43.0573791" lon="11.4316063"><ele>484.5</ele><time>2026-05-02T10:38:53.326Z</time></trkpt><trkpt lat="43.0572815" lon="11.4317391"><ele>486.75</ele><time>2026-05-02T10:38:54.328Z</time></trkpt><trkpt lat="43.0571973" lon="11.4318736"><ele>489.0</ele><time>2026-05-02T10:38:55.337Z</time></trkpt><trkpt lat="43.0571226" lon="11.4320086"><ele>489.0</ele><time>2026-05-02T10:38:56.332Z</time></trkpt><trkpt lat="43.057066" lon="11.4321315"><ele>489.0</ele><time>2026-05-02T10:38:57.343Z</time></trkpt><trkpt lat="43.0570139" lon="11.4322443"><ele>489.0</ele><time>2026-05-02T10:38:58.342Z</time></trkpt><trkpt lat="43.0569586" lon="11.4323569"><ele>489.0</ele><time>2026-05-02T10:38:59.328Z</time></trkpt><trkpt lat="43.0568922" lon="11.432469"><ele>489.0</ele><time>2026-05-02T10:39:00.328Z</time></trkpt><trkpt lat="43.0568172" lon="11.432588"><ele>489.25</ele><time>2026-05-02T10:39:01.323Z</time></trkpt><trkpt lat="43.0567305" lon="11.4327095"><ele>489.5</ele><time>2026-05-02T10:39:02.349Z</time></trkpt><trkpt lat="43.0566402" lon="11.4328239"><ele>489.75</ele><time>2026-05-02T10:39:03.321Z</time></trkpt><trkpt lat="43.0565579" lon="11.4329397"><ele>490.0</ele><time>2026-05-02T10:39:04.343Z</time></trkpt><trkpt lat="43.0564818" lon="11.4330348"><ele>491.4</ele><time>2026-05-02T10:39:05.344Z</time></trkpt><trkpt lat="43.0564072" lon="11.433109"><ele>492.8</ele><time>2026-05-02T10:39:06.329Z</time></trkpt><trkpt lat="43.0563171" lon="11.4331766"><ele>494.20000000000005</ele><time>2026-05-02T10:39:07.322Z</time></trkpt><trkpt lat="43.0562106" lon="11.4332351"><ele>495.6</ele><time>2026-05-02T10:39:08.335Z</time></trkpt><trkpt lat="43.0560941" lon="11.4332932"><ele>497.0</ele><time>2026-05-02T10:39:09.332Z</time></trkpt><trkpt lat="43.0559699" lon="11.4333421"><ele>497.0</ele><time>2026-05-02T10:39:10.329Z</time></trkpt><trkpt lat="43.0558491" lon="11.4333848"><ele>497.00000000000006</ele><time>2026-05-02T10:39:11.336Z</time></trkpt><trkpt lat="43.0557446" lon="11.4334322"><ele>497.00000000000006</ele><time>2026-05-02T10:39:12.332Z</time></trkpt><trkpt lat="43.0556494" lon="11.4334818"><ele>497.0</ele><time>2026-05-02T10:39:13.342Z</time></trkpt><trkpt lat="43.0555603" lon="11.4335312"><ele>497.0</ele><time>2026-05-02T10:39:14.336Z</time></trkpt><trkpt lat="43.0554772" lon="11.433578"><ele>496.8333333333333</ele><time>2026-05-02T10:39:15.335Z</time></trkpt><trkpt lat="43.0553978" lon="11.4336213"><ele>496.66666666666663</ele><time>2026-05-02T10:39:16.33Z</time></trkpt><trkpt lat="43.0553154" lon="11.4336576"><ele>496.5</ele><time>2026-05-02T10:39:17.329Z</time></trkpt><trkpt lat="43.0552267" lon="11.4336892"><ele>496.33333333333337</ele><time>2026-05-02T10:39:18.325Z</time></trkpt><trkpt lat="43.0551419" lon="11.4337141"><ele>496.1666666666667</ele><time>2026-05-02T10:39:19.334Z</time></trkpt><trkpt lat="43.0550522" lon="11.4337482"><ele>496.0</ele><time>2026-05-02T10:39:20.325Z</time></trkpt><trkpt lat="43.0549575" lon="11.4337931"><ele>493.5</ele><time>2026-05-02T10:39:21.324Z</time></trkpt><trkpt lat="43.054854" lon="11.4338606"><ele>491.0</ele><time>2026-05-02T10:39:22.333Z</time></trkpt><trkpt lat="43.0547456" lon="11.4339293"><ele>488.5</ele><time>2026-05-02T10:39:23.342Z</time></trkpt><trkpt lat="43.0546239" lon="11.4340075"><ele>486.0</ele><time>2026-05-02T10:39:24.337Z</time></trkpt><trkpt lat="43.0544991" lon="11.4340824"><ele>486.0</ele><time>2026-05-02T10:39:25.334Z</time></trkpt><trkpt lat="43.0543798" lon="11.4341474"><ele>486.0</ele><time>2026-05-02T10:39:26.327Z</time></trkpt><trkpt lat="43.0542782" lon="11.4341968"><ele>486.0</ele><time>2026-05-02T10:39:27.332Z</time></trkpt><trkpt lat="43.0541752" lon="11.4342368"><ele>486.0</ele><time>2026-05-02T10:39:28.341Z</time></trkpt><trkpt lat="43.054074" lon="11.4342717"><ele>486.0</ele><time>2026-05-02T10:39:29.343Z</time></trkpt><trkpt lat="43.0539806" lon="11.4342922"><ele>485.6666666666667</ele><time>2026-05-02T10:39:30.334Z</time></trkpt><trkpt lat="43.0538962" lon="11.4343094"><ele>485.33333333333337</ele><time>2026-05-02T10:39:31.336Z</time></trkpt><trkpt lat="43.0538181" lon="11.4343273"><ele>485.0</ele><time>2026-05-02T10:39:32.336Z</time></trkpt><trkpt lat="43.0537457" lon="11.4343585"><ele>484.6666666666667</ele><time>2026-05-02T10:39:33.321Z</time></trkpt><trkpt lat="43.0536767" lon="11.4344009"><ele>484.33333333333337</ele><time>2026-05-02T10:39:34.324Z</time></trkpt><trkpt lat="43.05361" lon="11.4344619"><ele>484.0</ele><time>2026-05-02T10:39:35.336Z</time></trkpt><trkpt lat="43.0535416" lon="11.4345244"><ele>484.0</ele><time>2026-05-02T10:39:36.331Z</time></trkpt><trkpt lat="43.0534781" lon="11.434596"><ele>484.0</ele><time>2026-05-02T10:39:37.352Z</time></trkpt><trkpt lat="43.053414" lon="11.4346755"><ele>484.0</ele><time>2026-05-02T10:39:38.339Z</time></trkpt><trkpt lat="43.0533544" lon="11.4347646"><ele>484.0</ele><time>2026-05-02T10:39:39.34Z</time></trkpt><trkpt lat="43.0533059" lon="11.4348775"><ele>484.0</ele><time>2026-05-02T10:39:40.327Z</time></trkpt><trkpt lat="43.053254" lon="11.4350104"><ele>482.6</ele><time>2026-05-02T10:39:41.33Z</time></trkpt><trkpt lat="43.0532103" lon="11.4351451"><ele>481.2</ele><time>2026-05-02T10:39:42.33Z</time></trkpt><trkpt lat="43.0531719" lon="11.4352864"><ele>479.80000000000007</ele><time>2026-05-02T10:39:43.339Z</time></trkpt><trkpt lat="43.0531415" lon="11.43543"><ele>478.40000000000003</ele><time>2026-05-02T10:39:44.335Z</time></trkpt><trkpt lat="43.0531203" lon="11.435564"><ele>477.0</ele><time>2026-05-02T10:39:45.337Z</time></trkpt><trkpt lat="43.0530977" lon="11.4356917"><ele>475.5</ele><time>2026-05-02T10:39:46.321Z</time></trkpt><trkpt lat="43.0530815" lon="11.4358128"><ele>474.0</ele><time>2026-05-02T10:39:47.326Z</time></trkpt><trkpt lat="43.0530737" lon="11.4359362"><ele>472.5</ele><time>2026-05-02T10:39:48.329Z</time></trkpt><trkpt lat="43.0530555" lon="11.436047"><ele>471.0</ele><time>2026-05-02T10:39:49.333Z</time></trkpt><trkpt lat="43.0530312" lon="11.4361626"><ele>469.5</ele><time>2026-05-02T10:39:50.33Z</time></trkpt><trkpt lat="43.0530046" lon="11.4362893"><ele>468.0</ele><time>2026-05-02T10:39:51.344Z</time></trkpt><trkpt lat="43.0529597" lon="11.436416"><ele>468.0</ele><time>2026-05-02T10:39:52.341Z</time></trkpt><trkpt lat="43.0529021" lon="11.4365365"><ele>467.99999999999994</ele><time>2026-05-02T10:39:53.33Z</time></trkpt><trkpt lat="43.0528271" lon="11.4366354"><ele>467.99999999999994</ele><time>2026-05-02T10:39:54.349Z</time></trkpt><trkpt lat="43.0527391" lon="11.4367188"><ele>468.0</ele><time>2026-05-02T10:39:55.343Z</time></trkpt><trkpt lat="43.0526422" lon="11.4367762"><ele>468.0</ele><time>2026-05-02T10:39:56.33Z</time></trkpt><trkpt lat="43.0525478" lon="11.4367968"><ele>468.2</ele><time>2026-05-02T10:39:57.322Z</time></trkpt><trkpt lat="43.052448" lon="11.4367858"><ele>468.4</ele><time>2026-05-02T10:39:58.337Z</time></trkpt><trkpt lat="43.0523529" lon="11.4367631"><ele>468.59999999999997</ele><time>2026-05-02T10:39:59.344Z</time></trkpt><trkpt lat="43.0522558" lon="11.4367548"><ele>468.79999999999995</ele><time>2026-05-02T10:40:00.336Z</time></trkpt><trkpt lat="43.0521499" lon="11.4367658"><ele>469.0</ele><time>2026-05-02T10:40:01.334Z</time></trkpt><trkpt lat="43.0520245" lon="11.436795"><ele>469.0</ele><time>2026-05-02T10:40:02.336Z</time></trkpt><trkpt lat="43.0518961" lon="11.4368296"><ele>469.0</ele><time>2026-05-02T10:40:03.345Z</time></trkpt><trkpt lat="43.0517862" lon="11.4368642"><ele>469.0</ele><time>2026-05-02T10:40:04.323Z</time></trkpt><trkpt lat="43.0516993" lon="11.4368996"><ele>469.0</ele><time>2026-05-02T10:40:05.332Z</time></trkpt><trkpt lat="43.0516207" lon="11.4369409"><ele>469.0</ele><time>2026-05-02T10:40:06.336Z</time></trkpt><trkpt lat="43.051547" lon="11.4370187"><ele>469.25</ele><time>2026-05-02T10:40:07.332Z</time></trkpt><trkpt lat="43.0514575" lon="11.4371306"><ele>469.5</ele><time>2026-05-02T10:40:08.325Z</time></trkpt><trkpt lat="43.0513622" lon="11.4372735"><ele>469.75</ele><time>2026-05-02T10:40:09.332Z</time></trkpt><trkpt lat="43.0512643" lon="11.4374009"><ele>470.0</ele><time>2026-05-02T10:40:10.33Z</time></trkpt><trkpt lat="43.051149" lon="11.4375124"><ele>470.0</ele><time>2026-05-02T10:40:11.339Z</time></trkpt><trkpt lat="43.0510175" lon="11.4376151"><ele>470.0</ele><time>2026-05-02T10:40:12.335Z</time></trkpt><trkpt lat="43.0508902" lon="11.4376957"><ele>470.0</ele><time>2026-05-02T10:40:13.332Z</time></trkpt><trkpt lat="43.0507826" lon="11.4377676"><ele>470.0</ele><time>2026-05-02T10:40:14.352Z</time></trkpt><trkpt lat="43.0506888" lon="11.4378443"><ele>471.4</ele><time>2026-05-02T10:40:15.336Z</time></trkpt><trkpt lat="43.0506058" lon="11.437935"><ele>472.8</ele><time>2026-05-02T10:40:16.33Z</time></trkpt><trkpt lat="43.0505352" lon="11.4380291"><ele>474.20000000000005</ele><time>2026-05-02T10:40:17.33Z</time></trkpt><trkpt lat="43.0504856" lon="11.4381524"><ele>475.6</ele><time>2026-05-02T10:40:18.332Z</time></trkpt><trkpt lat="43.0504526" lon="11.4383174"><ele>477.0</ele><time>2026-05-02T10:40:19.33Z</time></trkpt><trkpt lat="43.0504274" lon="11.4384905"><ele>478.0</ele><time>2026-05-02T10:40:20.326Z</time></trkpt><trkpt lat="43.0504" lon="11.4386383"><ele>479.00000000000006</ele><time>2026-05-02T10:40:21.333Z</time></trkpt><trkpt lat="43.0503891" lon="11.4387746"><ele>480.00000000000006</ele><time>2026-05-02T10:40:22.336Z</time></trkpt><trkpt lat="43.0504072" lon="11.4389071"><ele>481.0</ele><time>2026-05-02T10:40:23.331Z</time></trkpt><trkpt lat="43.0504572" lon="11.4390436"><ele>482.0</ele><time>2026-05-02T10:40:24.332Z</time></trkpt><trkpt lat="43.0505292" lon="11.4391761"><ele>481.75</ele><time>2026-05-02T10:40:25.345Z</time></trkpt><trkpt lat="43.0505989" lon="11.4393112"><ele>481.5</ele><time>2026-05-02T10:40:26.335Z</time></trkpt><trkpt lat="43.050658" lon="11.43945"><ele>481.25</ele><time>2026-05-02T10:40:27.336Z</time></trkpt><trkpt lat="43.0506973" lon="11.4396015"><ele>481.0</ele><time>2026-05-02T10:40:28.332Z</time></trkpt><trkpt lat="43.0507145" lon="11.4397753"><ele>481.0</ele><time>2026-05-02T10:40:29.338Z</time></trkpt><trkpt lat="43.0507021" lon="11.4399468"><ele>481.0</ele><time>2026-05-02T10:40:30.343Z</time></trkpt><trkpt lat="43.050675" lon="11.4400978"><ele>481.0</ele><time>2026-05-02T10:40:31.338Z</time></trkpt><trkpt lat="43.0506336" lon="11.4402383"><ele>481.0</ele><time>2026-05-02T10:40:32.332Z</time></trkpt><trkpt lat="43.0505621" lon="11.440374"><ele>477.5</ele><time>2026-05-02T10:40:33.327Z</time></trkpt><trkpt lat="43.050462" lon="11.4404877"><ele>474.0</ele><time>2026-05-02T10:40:34.326Z</time></trkpt><trkpt lat="43.0503599" lon="11.4405708"><ele>470.5</ele><time>2026-05-02T10:40:35.335Z</time></trkpt><trkpt lat="43.0502767" lon="11.4406484"><ele>467.0</ele><time>2026-05-02T10:40:36.338Z</time></trkpt><trkpt lat="43.050199" lon="11.4407403"><ele>467.0</ele><time>2026-05-02T10:40:37.34Z</time></trkpt><trkpt lat="43.0501472" lon="11.440846"><ele>467.00000000000006</ele><time>2026-05-02T10:40:38.324Z</time></trkpt><trkpt lat="43.0500971" lon="11.4409596"><ele>467.00000000000006</ele><time>2026-05-02T10:40:39.338Z</time></trkpt><trkpt lat="43.0500716" lon="11.4411085"><ele>467.0</ele><time>2026-05-02T10:40:40.335Z</time></trkpt><trkpt lat="43.050069" lon="11.4412714"><ele>467.0</ele><time>2026-05-02T10:40:41.33Z</time></trkpt><trkpt lat="43.050076" lon="11.4414604"><ele>465.25</ele><time>2026-05-02T10:40:42.337Z</time></trkpt><trkpt lat="43.0500801" lon="11.4416668"><ele>463.5</ele><time>2026-05-02T10:40:43.332Z</time></trkpt><trkpt lat="43.0500882" lon="11.4418413"><ele>461.75</ele><time>2026-05-02T10:40:44.329Z</time></trkpt><trkpt lat="43.0500926" lon="11.4419784"><ele>460.0</ele><time>2026-05-02T10:40:45.329Z</time></trkpt><trkpt lat="43.0500864" lon="11.4420813"><ele>460.8</ele><time>2026-05-02T10:40:46.338Z</time></trkpt><trkpt lat="43.0500721" lon="11.442214"><ele>461.6</ele><time>2026-05-02T10:40:48.349Z</time></trkpt><trkpt lat="43.0500694" lon="11.4423025"><ele>462.4</ele><time>2026-05-02T10:40:51.341Z</time></trkpt><trkpt lat="43.0501117" lon="11.4424128"><ele>463.2</ele><time>2026-05-02T10:41:41.329Z</time></trkpt><trkpt lat="43.0501374" lon="11.4425885"><ele>464.0</ele><time>2026-05-02T10:41:43.339Z</time></trkpt><trkpt lat="43.0501408" lon="11.442696"><ele>464.0</ele><time>2026-05-02T10:41:44.333Z</time></trkpt><trkpt lat="43.0501505" lon="11.4428382"><ele>464.0</ele><time>2026-05-02T10:41:45.326Z</time></trkpt><trkpt lat="43.0501653" lon="11.4429805"><ele>464.0</ele><time>2026-05-02T10:41:46.343Z</time></trkpt><trkpt lat="43.0501754" lon="11.4431078"><ele>464.0</ele><time>2026-05-02T10:41:47.328Z</time></trkpt><trkpt lat="43.0501775" lon="11.4432296"><ele>464.0</ele><time>2026-05-02T10:41:48.339Z</time></trkpt><trkpt lat="43.050169" lon="11.4433467"><ele>465.16666666666663</ele><time>2026-05-02T10:41:49.329Z</time></trkpt><trkpt lat="43.0501479" lon="11.4434509"><ele>466.3333333333333</ele><time>2026-05-02T10:41:50.336Z</time></trkpt><trkpt lat="43.050125" lon="11.4435527"><ele>467.5</ele><time>2026-05-02T10:41:51.322Z</time></trkpt><trkpt lat="43.0500988" lon="11.443655"><ele>468.66666666666663</ele><time>2026-05-02T10:41:52.33Z</time></trkpt><trkpt lat="43.0500674" lon="11.4437671"><ele>469.8333333333333</ele><time>2026-05-02T10:41:53.331Z</time></trkpt><trkpt lat="43.0500366" lon="11.4438971"><ele>471.0</ele><time>2026-05-02T10:41:54.332Z</time></trkpt><trkpt lat="43.0500037" lon="11.4440459"><ele>470.75</ele><time>2026-05-02T10:41:55.335Z</time></trkpt><trkpt lat="43.049972" lon="11.4442126"><ele>470.5</ele><time>2026-05-02T10:41:56.338Z</time></trkpt><trkpt lat="43.0499509" lon="11.444389"><ele>470.25</ele><time>2026-05-02T10:41:57.334Z</time></trkpt><trkpt lat="43.0499421" lon="11.4445767"><ele>470.0</ele><time>2026-05-02T10:41:58.33Z</time></trkpt><trkpt lat="43.0499412" lon="11.4447644"><ele>467.75</ele><time>2026-05-02T10:41:59.33Z</time></trkpt><trkpt lat="43.0499316" lon="11.4449372"><ele>465.5</ele><time>2026-05-02T10:42:00.331Z</time></trkpt><trkpt lat="43.0499246" lon="11.4450829"><ele>463.25</ele><time>2026-05-02T10:42:01.327Z</time></trkpt><trkpt lat="43.0499004" lon="11.4452395"><ele>461.0</ele><time>2026-05-02T10:42:02.341Z</time></trkpt><trkpt lat="43.0498493" lon="11.4454031"><ele>461.0</ele><time>2026-05-02T10:42:03.33Z</time></trkpt><trkpt lat="43.0497893" lon="11.4455631"><ele>461.0</ele><time>2026-05-02T10:42:04.338Z</time></trkpt><trkpt lat="43.0497408" lon="11.4457172"><ele>461.0</ele><time>2026-05-02T10:42:05.332Z</time></trkpt><trkpt lat="43.0497029" lon="11.4458787"><ele>461.0</ele><time>2026-05-02T10:42:06.327Z</time></trkpt><trkpt lat="43.04967" lon="11.4460567"><ele>461.0</ele><time>2026-05-02T10:42:07.332Z</time></trkpt><trkpt lat="43.049644" lon="11.4462404"><ele>461.0</ele><time>2026-05-02T10:42:08.331Z</time></trkpt><trkpt lat="43.04963" lon="11.4464247"><ele>461.0</ele><time>2026-05-02T10:42:09.333Z</time></trkpt><trkpt lat="43.0496253" lon="11.4466281"><ele>461.0</ele><time>2026-05-02T10:42:10.327Z</time></trkpt><trkpt lat="43.0496218" lon="11.4468415"><ele>462.0</ele><time>2026-05-02T10:42:11.342Z</time></trkpt><trkpt lat="43.0496168" lon="11.4470527"><ele>463.0</ele><time>2026-05-02T10:42:12.322Z</time></trkpt><trkpt lat="43.0496108" lon="11.4472413"><ele>464.0</ele><time>2026-05-02T10:42:13.324Z</time></trkpt><trkpt lat="43.0496088" lon="11.4474031"><ele>465.0</ele><time>2026-05-02T10:42:14.333Z</time></trkpt><trkpt lat="43.04961" lon="11.4475527"><ele>465.2</ele><time>2026-05-02T10:42:15.334Z</time></trkpt><trkpt lat="43.0496191" lon="11.4477026"><ele>465.4</ele><time>2026-05-02T10:42:16.332Z</time></trkpt><trkpt lat="43.0496396" lon="11.447848"><ele>465.6</ele><time>2026-05-02T10:42:17.333Z</time></trkpt><trkpt lat="43.0496732" lon="11.4479744"><ele>465.8</ele><time>2026-05-02T10:42:18.339Z</time></trkpt><trkpt lat="43.0497059" lon="11.448091"><ele>466.0</ele><time>2026-05-02T10:42:19.335Z</time></trkpt><trkpt lat="43.0497147" lon="11.448198"><ele>466.6</ele><time>2026-05-02T10:42:20.332Z</time></trkpt><trkpt lat="43.0496927" lon="11.4482966"><ele>467.20000000000005</ele><time>2026-05-02T10:42:21.325Z</time></trkpt><trkpt lat="43.0496499" lon="11.4484136"><ele>467.79999999999995</ele><time>2026-05-02T10:42:22.33Z</time></trkpt><trkpt lat="43.049578" lon="11.4485161"><ele>468.4</ele><time>2026-05-02T10:42:23.328Z</time></trkpt><trkpt lat="43.0494776" lon="11.4486187"><ele>469.0</ele><time>2026-05-02T10:42:24.33Z</time></trkpt><trkpt lat="43.0493772" lon="11.448753"><ele>469.6666666666667</ele><time>2026-05-02T10:42:25.336Z</time></trkpt><trkpt lat="43.0492623" lon="11.4489181"><ele>470.33333333333337</ele><time>2026-05-02T10:42:26.337Z</time></trkpt><trkpt lat="43.0491393" lon="11.4490969"><ele>471.0</ele><time>2026-05-02T10:42:27.331Z</time></trkpt><trkpt lat="43.0490296" lon="11.4492598"><ele>471.0</ele><time>2026-05-02T10:42:28.326Z</time></trkpt><trkpt lat="43.0489254" lon="11.4494068"><ele>471.0</ele><time>2026-05-02T10:42:29.317Z</time></trkpt><trkpt lat="43.0488338" lon="11.4495372"><ele>471.0</ele><time>2026-05-02T10:42:30.339Z</time></trkpt><trkpt lat="43.0487546" lon="11.4496571"><ele>471.0</ele><time>2026-05-02T10:42:31.336Z</time></trkpt><trkpt lat="43.0486733" lon="11.4497758"><ele>474.25</ele><time>2026-05-02T10:42:32.335Z</time></trkpt><trkpt lat="43.0485897" lon="11.4499085"><ele>477.5</ele><time>2026-05-02T10:42:33.325Z</time></trkpt><trkpt lat="43.0484938" lon="11.4500262"><ele>480.75</ele><time>2026-05-02T10:42:34.327Z</time></trkpt><trkpt lat="43.0483985" lon="11.4501417"><ele>484.0</ele><time>2026-05-02T10:42:35.338Z</time></trkpt><trkpt lat="43.048306" lon="11.4502352"><ele>483.4</ele><time>2026-05-02T10:42:36.339Z</time></trkpt><trkpt lat="43.0482257" lon="11.4503256"><ele>482.79999999999995</ele><time>2026-05-02T10:42:37.336Z</time></trkpt><trkpt lat="43.0481629" lon="11.4504284"><ele>482.20000000000005</ele><time>2026-05-02T10:42:38.342Z</time></trkpt><trkpt lat="43.0481088" lon="11.450548"><ele>481.6</ele><time>2026-05-02T10:42:39.327Z</time></trkpt><trkpt lat="43.0480807" lon="11.4507032"><ele>481.0</ele><time>2026-05-02T10:42:40.336Z</time></trkpt><trkpt lat="43.0480493" lon="11.450893"><ele>481.0</ele><time>2026-05-02T10:42:41.33Z</time></trkpt><trkpt lat="43.0480252" lon="11.4511091"><ele>481.0</ele><time>2026-05-02T10:42:42.332Z</time></trkpt><trkpt lat="43.0479871" lon="11.4513086"><ele>481.0</ele><time>2026-05-02T10:42:43.335Z</time></trkpt><trkpt lat="43.0479519" lon="11.4514861"><ele>481.0</ele><time>2026-05-02T10:42:44.33Z</time></trkpt><trkpt lat="43.0479056" lon="11.4516297"><ele>482.0</ele><time>2026-05-02T10:42:45.328Z</time></trkpt><trkpt lat="43.0478532" lon="11.4517498"><ele>483.0</ele><time>2026-05-02T10:42:46.339Z</time></trkpt><trkpt lat="43.0478022" lon="11.4518772"><ele>484.0</ele><time>2026-05-02T10:42:47.334Z</time></trkpt><trkpt lat="43.0477538" lon="11.4520186"><ele>485.0</ele><time>2026-05-02T10:42:48.339Z</time></trkpt><trkpt lat="43.047711" lon="11.4521939"><ele>486.66666666666663</ele><time>2026-05-02T10:42:49.327Z</time></trkpt><trkpt lat="43.0476763" lon="11.4524101"><ele>488.33333333333337</ele><time>2026-05-02T10:42:50.347Z</time></trkpt><trkpt lat="43.0476419" lon="11.4526365"><ele>490.0</ele><time>2026-05-02T10:42:51.328Z</time></trkpt><trkpt lat="43.0475983" lon="11.4528557"><ele>490.75</ele><time>2026-05-02T10:42:52.327Z</time></trkpt><trkpt lat="43.0475652" lon="11.4530541"><ele>491.5</ele><time>2026-05-02T10:42:53.338Z</time></trkpt><trkpt lat="43.0475443" lon="11.4532275"><ele>492.25</ele><time>2026-05-02T10:42:54.331Z</time></trkpt><trkpt lat="43.0475279" lon="11.453385"><ele>493.0</ele><time>2026-05-02T10:42:55.34Z</time></trkpt><trkpt lat="43.047517" lon="11.4535248"><ele>493.0</ele><time>2026-05-02T10:42:56.329Z</time></trkpt><trkpt lat="43.0475001" lon="11.4536409"><ele>492.99999999999994</ele><time>2026-05-02T10:42:57.329Z</time></trkpt><trkpt lat="43.0474707" lon="11.4537548"><ele>492.99999999999994</ele><time>2026-05-02T10:42:58.332Z</time></trkpt><trkpt lat="43.0474146" lon="11.4538426"><ele>493.0</ele><time>2026-05-02T10:42:59.333Z</time></trkpt><trkpt lat="43.0473337" lon="11.4539153"><ele>493.0</ele><time>2026-05-02T10:43:00.338Z</time></trkpt><trkpt lat="43.0472419" lon="11.4539812"><ele>495.25</ele><time>2026-05-02T10:43:01.331Z</time></trkpt><trkpt lat="43.0471235" lon="11.4540537"><ele>497.5</ele><time>2026-05-02T10:43:02.332Z</time></trkpt><trkpt lat="43.0469954" lon="11.4541288"><ele>499.75</ele><time>2026-05-02T10:43:03.341Z</time></trkpt><trkpt lat="43.0468668" lon="11.4542086"><ele>502.0</ele><time>2026-05-02T10:43:04.333Z</time></trkpt><trkpt lat="43.0467444" lon="11.4542842"><ele>503.25</ele><time>2026-05-02T10:43:05.331Z</time></trkpt><trkpt lat="43.0466221" lon="11.4543695"><ele>504.5</ele><time>2026-05-02T10:43:06.343Z</time></trkpt><trkpt lat="43.0464877" lon="11.4544729"><ele>505.75</ele><time>2026-05-02T10:43:07.332Z</time></trkpt><trkpt lat="43.0463597" lon="11.4545913"><ele>507.0</ele><time>2026-05-02T10:43:08.332Z</time></trkpt><trkpt lat="43.046244" lon="11.4546829"><ele>507.0</ele><time>2026-05-02T10:43:09.333Z</time></trkpt><trkpt lat="43.04613" lon="11.4547732"><ele>507.0</ele><time>2026-05-02T10:43:10.327Z</time></trkpt><trkpt lat="43.0460083" lon="11.4548524"><ele>507.0</ele><time>2026-05-02T10:43:11.33Z</time></trkpt><trkpt lat="43.0458993" lon="11.4549258"><ele>507.0</ele><time>2026-05-02T10:43:12.323Z</time></trkpt><trkpt lat="43.0457988" lon="11.4549835"><ele>506.8</ele><time>2026-05-02T10:43:13.337Z</time></trkpt><trkpt lat="43.0457025" lon="11.4550414"><ele>506.6</ele><time>2026-05-02T10:43:14.331Z</time></trkpt><trkpt lat="43.0456127" lon="11.4551145"><ele>506.40000000000003</ele><time>2026-05-02T10:43:15.325Z</time></trkpt><trkpt lat="43.0455302" lon="11.4552085"><ele>506.20000000000005</ele><time>2026-05-02T10:43:16.35Z</time></trkpt><trkpt lat="43.0454674" lon="11.4553265"><ele>506.0</ele><time>2026-05-02T10:43:17.323Z</time></trkpt><trkpt lat="43.0454038" lon="11.4554599"><ele>505.5</ele><time>2026-05-02T10:43:18.336Z</time></trkpt><trkpt lat="43.0453243" lon="11.4556107"><ele>505.0</ele><time>2026-05-02T10:43:19.332Z</time></trkpt><trkpt lat="43.0452392" lon="11.4557746"><ele>504.5</ele><time>2026-05-02T10:43:20.33Z</time></trkpt><trkpt lat="43.0451533" lon="11.455939"><ele>504.0</ele><time>2026-05-02T10:43:21.334Z</time></trkpt><trkpt lat="43.0450785" lon="11.4560952"><ele>504.0</ele><time>2026-05-02T10:43:22.338Z</time></trkpt><trkpt lat="43.0450032" lon="11.4562375"><ele>504.0</ele><time>2026-05-02T10:43:23.329Z</time></trkpt><trkpt lat="43.0449309" lon="11.4563788"><ele>504.0</ele><time>2026-05-02T10:43:24.342Z</time></trkpt><trkpt lat="43.0448692" lon="11.4565273"><ele>504.0</ele><time>2026-05-02T10:43:25.332Z</time></trkpt><trkpt lat="43.0448167" lon="11.4566821"><ele>503.5</ele><time>2026-05-02T10:43:26.332Z</time></trkpt><trkpt lat="43.0447895" lon="11.4568441"><ele>503.0</ele><time>2026-05-02T10:43:27.327Z</time></trkpt><trkpt lat="43.0447698" lon="11.4570091"><ele>502.5</ele><time>2026-05-02T10:43:28.334Z</time></trkpt><trkpt lat="43.0447482" lon="11.4571595"><ele>502.0</ele><time>2026-05-02T10:43:29.332Z</time></trkpt><trkpt lat="43.0447067" lon="11.4572935"><ele>504.0</ele><time>2026-05-02T10:43:30.327Z</time></trkpt><trkpt lat="43.0446449" lon="11.4574035"><ele>506.0</ele><time>2026-05-02T10:43:31.33Z</time></trkpt><trkpt lat="43.0445575" lon="11.4575"><ele>508.0</ele><time>2026-05-02T10:43:32.331Z</time></trkpt><trkpt lat="43.0444517" lon="11.4575972"><ele>510.0</ele><time>2026-05-02T10:43:33.334Z</time></trkpt><trkpt lat="43.0443416" lon="11.4576891"><ele>510.0</ele><time>2026-05-02T10:43:34.342Z</time></trkpt><trkpt lat="43.0442393" lon="11.4577865"><ele>510.0</ele><time>2026-05-02T10:43:35.338Z</time></trkpt><trkpt lat="43.044152" lon="11.4578956"><ele>510.0</ele><time>2026-05-02T10:43:36.348Z</time></trkpt><trkpt lat="43.0440717" lon="11.4580214"><ele>510.0</ele><time>2026-05-02T10:43:37.344Z</time></trkpt><trkpt lat="43.0439839" lon="11.4581603"><ele>509.0</ele><time>2026-05-02T10:43:38.336Z</time></trkpt><trkpt lat="43.0438788" lon="11.4583201"><ele>508.0</ele><time>2026-05-02T10:43:39.339Z</time></trkpt><trkpt lat="43.0437681" lon="11.4584902"><ele>507.0</ele><time>2026-05-02T10:43:40.335Z</time></trkpt><trkpt lat="43.0436534" lon="11.4586611"><ele>507.66666666666663</ele><time>2026-05-02T10:43:41.329Z</time></trkpt><trkpt lat="43.0435452" lon="11.4588127"><ele>508.3333333333333</ele><time>2026-05-02T10:43:42.326Z</time></trkpt><trkpt lat="43.0434386" lon="11.4589542"><ele>509.0</ele><time>2026-05-02T10:43:43.34Z</time></trkpt><trkpt lat="43.0433199" lon="11.459085"><ele>508.5</ele><time>2026-05-02T10:43:44.329Z</time></trkpt><trkpt lat="43.0432059" lon="11.4591629"><ele>508.0</ele><time>2026-05-02T10:43:45.332Z</time></trkpt><trkpt lat="43.0431012" lon="11.4592375"><ele>507.5</ele><time>2026-05-02T10:43:46.328Z</time></trkpt><trkpt lat="43.0430093" lon="11.4593106"><ele>507.0</ele><time>2026-05-02T10:43:47.33Z</time></trkpt><trkpt lat="43.0429375" lon="11.4594068"><ele>507.0</ele><time>2026-05-02T10:43:48.339Z</time></trkpt><trkpt lat="43.0428756" lon="11.4595279"><ele>507.00000000000006</ele><time>2026-05-02T10:43:49.338Z</time></trkpt><trkpt lat="43.0428276" lon="11.459652"><ele>507.00000000000006</ele><time>2026-05-02T10:43:50.33Z</time></trkpt><trkpt lat="43.0427883" lon="11.4597798"><ele>507.0</ele><time>2026-05-02T10:43:51.323Z</time></trkpt><trkpt lat="43.0427574" lon="11.4599187"><ele>507.0</ele><time>2026-05-02T10:43:52.336Z</time></trkpt><trkpt lat="43.0427348" lon="11.4600488"><ele>507.6</ele><time>2026-05-02T10:43:53.328Z</time></trkpt><trkpt lat="43.0427243" lon="11.4601769"><ele>508.20000000000005</ele><time>2026-05-02T10:43:54.336Z</time></trkpt><trkpt lat="43.0427459" lon="11.4603004"><ele>508.8</ele><time>2026-05-02T10:43:55.324Z</time></trkpt><trkpt lat="43.0427921" lon="11.460435"><ele>509.4</ele><time>2026-05-02T10:43:56.326Z</time></trkpt><trkpt lat="43.0428507" lon="11.4605758"><ele>510.0</ele><time>2026-05-02T10:43:57.336Z</time></trkpt><trkpt lat="43.0429378" lon="11.4607359"><ele>510.0</ele><time>2026-05-02T10:43:58.327Z</time></trkpt><trkpt lat="43.0430292" lon="11.4609357"><ele>510.0</ele><time>2026-05-02T10:43:59.343Z</time></trkpt><trkpt lat="43.043098" lon="11.4611225"><ele>510.0</ele><time>2026-05-02T10:44:00.33Z</time></trkpt><trkpt lat="43.0431681" lon="11.4613087"><ele>508.0</ele><time>2026-05-02T10:44:01.328Z</time></trkpt><trkpt lat="43.0432508" lon="11.461494"><ele>506.0</ele><time>2026-05-02T10:44:02.323Z</time></trkpt><trkpt lat="43.0433274" lon="11.46167"><ele>504.0</ele><time>2026-05-02T10:44:03.335Z</time></trkpt><trkpt lat="43.043406" lon="11.4618462"><ele>503.25</ele><time>2026-05-02T10:44:04.337Z</time></trkpt><trkpt lat="43.0434698" lon="11.4620214"><ele>502.5</ele><time>2026-05-02T10:44:05.312Z</time></trkpt><trkpt lat="43.0435296" lon="11.4621824"><ele>501.75</ele><time>2026-05-02T10:44:06.331Z</time></trkpt><trkpt lat="43.0435744" lon="11.4623125"><ele>501.0</ele><time>2026-05-02T10:44:07.328Z</time></trkpt><trkpt lat="43.0436146" lon="11.4624243"><ele>501.0</ele><time>2026-05-02T10:44:08.325Z</time></trkpt><trkpt lat="43.043633" lon="11.4625485"><ele>501.0</ele><time>2026-05-02T10:44:09.334Z</time></trkpt><trkpt lat="43.0436358" lon="11.4626749"><ele>501.0</ele><time>2026-05-02T10:44:10.325Z</time></trkpt><trkpt lat="43.0436088" lon="11.4627966"><ele>501.0</ele><time>2026-05-02T10:44:11.314Z</time></trkpt><trkpt lat="43.0435573" lon="11.4629124"><ele>501.0</ele><time>2026-05-02T10:44:12.323Z</time></trkpt><trkpt lat="43.0434816" lon="11.4630522"><ele>501.0</ele><time>2026-05-02T10:44:13.335Z</time></trkpt><trkpt lat="43.0433869" lon="11.4631896"><ele>501.0</ele><time>2026-05-02T10:44:14.319Z</time></trkpt><trkpt lat="43.0433002" lon="11.4633305"><ele>501.0</ele><time>2026-05-02T10:44:15.323Z</time></trkpt><trkpt lat="43.0432342" lon="11.4634835"><ele>501.0</ele><time>2026-05-02T10:44:16.335Z</time></trkpt><trkpt lat="43.0431876" lon="11.4636348"><ele>500.5</ele><time>2026-05-02T10:44:17.333Z</time></trkpt><trkpt lat="43.0431484" lon="11.463795"><ele>500.0</ele><time>2026-05-02T10:44:18.347Z</time></trkpt><trkpt lat="43.0431274" lon="11.4639703"><ele>499.5</ele><time>2026-05-02T10:44:19.329Z</time></trkpt><trkpt lat="43.0431089" lon="11.4641332"><ele>499.0</ele><time>2026-05-02T10:44:20.327Z</time></trkpt><trkpt lat="43.0430844" lon="11.4642766"><ele>499.0</ele><time>2026-05-02T10:44:21.333Z</time></trkpt><trkpt lat="43.043064" lon="11.4644062"><ele>499.0</ele><time>2026-05-02T10:44:22.331Z</time></trkpt><trkpt lat="43.0430446" lon="11.4645284"><ele>499.0</ele><time>2026-05-02T10:44:23.33Z</time></trkpt><trkpt lat="43.0430195" lon="11.464646"><ele>499.0</ele><time>2026-05-02T10:44:24.326Z</time></trkpt><trkpt lat="43.0429957" lon="11.4647709"><ele>499.0</ele><time>2026-05-02T10:44:25.326Z</time></trkpt><trkpt lat="43.0429575" lon="11.4649045"><ele>499.6</ele><time>2026-05-02T10:44:26.335Z</time></trkpt><trkpt lat="43.0429097" lon="11.465049"><ele>500.2</ele><time>2026-05-02T10:44:27.33Z</time></trkpt><trkpt lat="43.0428599" lon="11.4651832"><ele>500.80000000000007</ele><time>2026-05-02T10:44:28.34Z</time></trkpt><trkpt lat="43.0428074" lon="11.4653021"><ele>501.40000000000003</ele><time>2026-05-02T10:44:29.329Z</time></trkpt><trkpt lat="43.0427703" lon="11.465423"><ele>502.0</ele><time>2026-05-02T10:44:30.33Z</time></trkpt><trkpt lat="43.0427414" lon="11.465558"><ele>502.0</ele><time>2026-05-02T10:44:31.331Z</time></trkpt><trkpt lat="43.0427175" lon="11.4657121"><ele>502.0</ele><time>2026-05-02T10:44:32.333Z</time></trkpt><trkpt lat="43.0426986" lon="11.4658774"><ele>502.0</ele><time>2026-05-02T10:44:33.329Z</time></trkpt><trkpt lat="43.0426848" lon="11.4660516"><ele>502.0</ele><time>2026-05-02T10:44:34.334Z</time></trkpt><trkpt lat="43.0426773" lon="11.4662412"><ele>501.6666666666667</ele><time>2026-05-02T10:44:35.327Z</time></trkpt><trkpt lat="43.0426723" lon="11.4664418"><ele>501.33333333333337</ele><time>2026-05-02T10:44:36.328Z</time></trkpt><trkpt lat="43.0426645" lon="11.4666521"><ele>501.0</ele><time>2026-05-02T10:44:37.33Z</time></trkpt><trkpt lat="43.042649" lon="11.4668625"><ele>501.0</ele><time>2026-05-02T10:44:38.328Z</time></trkpt><trkpt lat="43.0426169" lon="11.4670467"><ele>501.0</ele><time>2026-05-02T10:44:39.329Z</time></trkpt><trkpt lat="43.0425711" lon="11.467221"><ele>501.0</ele><time>2026-05-02T10:44:40.339Z</time></trkpt><trkpt lat="43.0425096" lon="11.4674048"><ele>501.0</ele><time>2026-05-02T10:44:41.333Z</time></trkpt><trkpt lat="43.0424376" lon="11.4676152"><ele>501.66666666666663</ele><time>2026-05-02T10:44:42.327Z</time></trkpt><trkpt lat="43.0423604" lon="11.4678567"><ele>502.3333333333333</ele><time>2026-05-02T10:44:43.33Z</time></trkpt><trkpt lat="43.0422864" lon="11.4681113"><ele>503.0</ele><time>2026-05-02T10:44:44.334Z</time></trkpt><trkpt lat="43.042223" lon="11.4683656"><ele>503.66666666666663</ele><time>2026-05-02T10:44:45.335Z</time></trkpt><trkpt lat="43.0421721" lon="11.4685893"><ele>504.33333333333337</ele><time>2026-05-02T10:44:46.335Z</time></trkpt><trkpt lat="43.0421245" lon="11.4687801"><ele>505.0</ele><time>2026-05-02T10:44:47.334Z</time></trkpt><trkpt lat="43.0420681" lon="11.4689522"><ele>505.25</ele><time>2026-05-02T10:44:48.328Z</time></trkpt><trkpt lat="43.0419908" lon="11.4690889"><ele>505.5</ele><time>2026-05-02T10:44:49.333Z</time></trkpt><trkpt lat="43.0418966" lon="11.4691998"><ele>505.75</ele><time>2026-05-02T10:44:50.33Z</time></trkpt><trkpt lat="43.0417788" lon="11.4692917"><ele>506.0</ele><time>2026-05-02T10:44:51.33Z</time></trkpt><trkpt lat="43.0416493" lon="11.4693627"><ele>508.0</ele><time>2026-05-02T10:44:52.329Z</time></trkpt><trkpt lat="43.04151" lon="11.4694313"><ele>510.0</ele><time>2026-05-02T10:44:53.326Z</time></trkpt><trkpt lat="43.0413698" lon="11.4695129"><ele>512.0</ele><time>2026-05-02T10:44:54.338Z</time></trkpt><trkpt lat="43.0412267" lon="11.4696122"><ele>513.3333333333333</ele><time>2026-05-02T10:44:55.322Z</time></trkpt><trkpt lat="43.0410773" lon="11.4697338"><ele>514.6666666666666</ele><time>2026-05-02T10:44:56.332Z</time></trkpt><trkpt lat="43.0409231" lon="11.4698835"><ele>516.0</ele><time>2026-05-02T10:44:57.33Z</time></trkpt><trkpt lat="43.0407812" lon="11.4700313"><ele>517.6666666666666</ele><time>2026-05-02T10:44:58.33Z</time></trkpt><trkpt lat="43.0406622" lon="11.4701929"><ele>519.3333333333333</ele><time>2026-05-02T10:44:59.335Z</time></trkpt><trkpt lat="43.0405586" lon="11.4703501"><ele>521.0</ele><time>2026-05-02T10:45:00.327Z</time></trkpt><trkpt lat="43.0404716" lon="11.470498"><ele>522.75</ele><time>2026-05-02T10:45:01.341Z</time></trkpt><trkpt lat="43.0403779" lon="11.4706149"><ele>524.5</ele><time>2026-05-02T10:45:02.317Z</time></trkpt><trkpt lat="43.0402698" lon="11.4706833"><ele>526.25</ele><time>2026-05-02T10:45:03.344Z</time></trkpt><trkpt lat="43.0401589" lon="11.4707118"><ele>528.0</ele><time>2026-05-02T10:45:04.333Z</time></trkpt><trkpt lat="43.0400488" lon="11.4707538"><ele>529.0</ele><time>2026-05-02T10:45:05.328Z</time></trkpt><trkpt lat="43.0399258" lon="11.4708049"><ele>530.0</ele><time>2026-05-02T10:45:06.331Z</time></trkpt><trkpt lat="43.0398028" lon="11.470872"><ele>531.0</ele><time>2026-05-02T10:45:07.331Z</time></trkpt><trkpt lat="43.039666" lon="11.4709451"><ele>532.0</ele><time>2026-05-02T10:45:08.34Z</time></trkpt><trkpt lat="43.039522" lon="11.4710189"><ele>532.0</ele><time>2026-05-02T10:45:09.336Z</time></trkpt><trkpt lat="43.0393732" lon="11.4711034"><ele>532.0</ele><time>2026-05-02T10:45:10.334Z</time></trkpt><trkpt lat="43.0392225" lon="11.471212"><ele>532.0</ele><time>2026-05-02T10:45:11.333Z</time></trkpt><trkpt lat="43.0390812" lon="11.471336"><ele>532.3333333333334</ele><time>2026-05-02T10:45:12.314Z</time></trkpt><trkpt lat="43.0389529" lon="11.471491"><ele>532.6666666666666</ele><time>2026-05-02T10:45:13.326Z</time></trkpt><trkpt lat="43.0388377" lon="11.4716726"><ele>533.0</ele><time>2026-05-02T10:45:14.332Z</time></trkpt><trkpt lat="43.0387456" lon="11.4718836"><ele>533.0</ele><time>2026-05-02T10:45:15.336Z</time></trkpt><trkpt lat="43.0386913" lon="11.4721039"><ele>533.0</ele><time>2026-05-02T10:45:16.325Z</time></trkpt><trkpt lat="43.0386667" lon="11.4723497"><ele>533.0</ele><time>2026-05-02T10:45:17.336Z</time></trkpt><trkpt lat="43.0386828" lon="11.4726218"><ele>538.0</ele><time>2026-05-02T10:45:18.334Z</time></trkpt><trkpt lat="43.0387252" lon="11.4728842"><ele>543.0</ele><time>2026-05-02T10:45:19.333Z</time></trkpt><trkpt lat="43.0387351" lon="11.4731043"><ele>548.0</ele><time>2026-05-02T10:45:20.331Z</time></trkpt><trkpt lat="43.038737" lon="11.4732888"><ele>551.0</ele><time>2026-05-02T10:45:21.332Z</time></trkpt><trkpt lat="43.0387119" lon="11.4734486"><ele>554.0</ele><time>2026-05-02T10:45:22.322Z</time></trkpt><trkpt lat="43.0386625" lon="11.4735925"><ele>557.0</ele><time>2026-05-02T10:45:23.335Z</time></trkpt><trkpt lat="43.0385712" lon="11.4737245"><ele>560.0</ele><time>2026-05-02T10:45:24.322Z</time></trkpt><trkpt lat="43.0384451" lon="11.4738492"><ele>563.0</ele><time>2026-05-02T10:45:25.334Z</time></trkpt><trkpt lat="43.0382874" lon="11.4739423"><ele>566.0</ele><time>2026-05-02T10:45:26.324Z</time></trkpt><trkpt lat="43.0381067" lon="11.4740313"><ele>569.0</ele><time>2026-05-02T10:45:27.327Z</time></trkpt><trkpt lat="43.0379447" lon="11.4741243"><ele>569.0</ele><time>2026-05-02T10:45:28.322Z</time></trkpt><trkpt lat="43.0378375" lon="11.474223"><ele>569.0</ele><time>2026-05-02T10:45:29.332Z</time></trkpt><trkpt lat="43.0377617" lon="11.4743493"><ele>569.0</ele><time>2026-05-02T10:45:30.335Z</time></trkpt><trkpt lat="43.037706" lon="11.4745065"><ele>569.0</ele><time>2026-05-02T10:45:31.33Z</time></trkpt><trkpt lat="43.0376931" lon="11.4746989"><ele>573.0</ele><time>2026-05-02T10:45:32.327Z</time></trkpt><trkpt lat="43.0377079" lon="11.4749272"><ele>577.0</ele><time>2026-05-02T10:45:33.323Z</time></trkpt><trkpt lat="43.0377347" lon="11.4751585"><ele>581.0</ele><time>2026-05-02T10:45:34.327Z</time></trkpt><trkpt lat="43.0377372" lon="11.4754407"><ele>585.0</ele><time>2026-05-02T10:45:35.322Z</time></trkpt><trkpt lat="43.0377401" lon="11.475777"><ele>589.0</ele><time>2026-05-02T10:45:36.328Z</time></trkpt><trkpt lat="43.0377539" lon="11.4761245"><ele>590.0</ele><time>2026-05-02T10:45:37.34Z</time></trkpt><trkpt lat="43.037767" lon="11.4764276"><ele>591.0</ele><time>2026-05-02T10:45:38.33Z</time></trkpt><trkpt lat="43.0377758" lon="11.4767217"><ele>592.0</ele><time>2026-05-02T10:45:39.336Z</time></trkpt><trkpt lat="43.0377818" lon="11.4769948"><ele>594.0</ele><time>2026-05-02T10:45:40.337Z</time></trkpt><trkpt lat="43.0377839" lon="11.4772369"><ele>596.0</ele><time>2026-05-02T10:45:41.332Z</time></trkpt><trkpt lat="43.0377722" lon="11.4774506"><ele>598.0</ele><time>2026-05-02T10:45:42.325Z</time></trkpt><trkpt lat="43.0377529" lon="11.4776455"><ele>598.0</ele><time>2026-05-02T10:45:43.332Z</time></trkpt><trkpt lat="43.0377329" lon="11.477825"><ele>598.0</ele><time>2026-05-02T10:45:44.326Z</time></trkpt><trkpt lat="43.0377022" lon="11.4779842"><ele>598.0</ele><time>2026-05-02T10:45:45.33Z</time></trkpt><trkpt lat="43.0376751" lon="11.478137"><ele>598.0</ele><time>2026-05-02T10:45:46.329Z</time></trkpt><trkpt lat="43.0376417" lon="11.4782898"><ele>598.0</ele><time>2026-05-02T10:45:47.32Z</time></trkpt><trkpt lat="43.0375908" lon="11.4784375"><ele>598.0</ele><time>2026-05-02T10:45:48.319Z</time></trkpt><trkpt lat="43.0375267" lon="11.4786043"><ele>598.0</ele><time>2026-05-02T10:45:49.332Z</time></trkpt><trkpt lat="43.0374393" lon="11.4787554"><ele>598.0</ele><time>2026-05-02T10:45:50.323Z</time></trkpt><trkpt lat="43.0373425" lon="11.4789168"><ele>598.25</ele><time>2026-05-02T10:45:51.328Z</time></trkpt><trkpt lat="43.03724" lon="11.4790726"><ele>598.5</ele><time>2026-05-02T10:45:52.324Z</time></trkpt><trkpt lat="43.0371409" lon="11.479224"><ele>598.75</ele><time>2026-05-02T10:45:53.339Z</time></trkpt><trkpt lat="43.0370558" lon="11.4793487"><ele>599.0</ele><time>2026-05-02T10:45:54.328Z</time></trkpt><trkpt lat="43.0369993" lon="11.4794443"><ele>599.0</ele><time>2026-05-02T10:45:55.33Z</time></trkpt><trkpt lat="43.0369505" lon="11.4795098"><ele>599.0</ele><time>2026-05-02T10:45:56.306Z</time></trkpt><trkpt lat="43.0369069" lon="11.4795976"><ele>599.0</ele><time>2026-05-02T10:45:58.318Z</time></trkpt><trkpt lat="43.0368517" lon="11.4796862"><ele>599.0</ele><time>2026-05-02T10:46:01.326Z</time></trkpt><trkpt lat="43.036832" lon="11.4797734"><ele>599.0</ele><time>2026-05-02T10:46:04.332Z</time></trkpt><trkpt lat="43.0369237" lon="11.4798966"><ele>599.0</ele><time>2026-05-02T10:46:06.329Z</time></trkpt><trkpt lat="43.0369993" lon="11.4799497"><ele>599.5</ele><time>2026-05-02T10:46:07.336Z</time></trkpt><trkpt lat="43.0370906" lon="11.4800112"><ele>600.0</ele><time>2026-05-02T10:46:08.33Z</time></trkpt><trkpt lat="43.0371998" lon="11.480089"><ele>600.5</ele><time>2026-05-02T10:46:09.338Z</time></trkpt><trkpt lat="43.0373117" lon="11.4801745"><ele>601.0</ele><time>2026-05-02T10:46:10.322Z</time></trkpt><trkpt lat="43.0374207" lon="11.4802682"><ele>599.5</ele><time>2026-05-02T10:46:11.34Z</time></trkpt><trkpt lat="43.0375261" lon="11.4803614"><ele>598.0</ele><time>2026-05-02T10:46:12.325Z</time></trkpt><trkpt lat="43.0376251" lon="11.4804469"><ele>596.5</ele><time>2026-05-02T10:46:13.324Z</time></trkpt><trkpt lat="43.0377191" lon="11.4805362"><ele>595.0</ele><time>2026-05-02T10:46:14.332Z</time></trkpt><trkpt lat="43.0378094" lon="11.4806169"><ele>594.25</ele><time>2026-05-02T10:46:15.341Z</time></trkpt><trkpt lat="43.0379015" lon="11.4806965"><ele>593.5</ele><time>2026-05-02T10:46:16.331Z</time></trkpt><trkpt lat="43.0379956" lon="11.4807765"><ele>592.75</ele><time>2026-05-02T10:46:17.331Z</time></trkpt><trkpt lat="43.0380947" lon="11.4808649"><ele>592.0</ele><time>2026-05-02T10:46:18.329Z</time></trkpt><trkpt lat="43.0381897" lon="11.4809574"><ele>592.0</ele><time>2026-05-02T10:46:19.339Z</time></trkpt><trkpt lat="43.0382898" lon="11.4810435"><ele>592.0</ele><time>2026-05-02T10:46:20.326Z</time></trkpt><trkpt lat="43.0383942" lon="11.4811291"><ele>592.0</ele><time>2026-05-02T10:46:21.331Z</time></trkpt><trkpt lat="43.0385092" lon="11.4812321"><ele>592.0</ele><time>2026-05-02T10:46:22.319Z</time></trkpt><trkpt lat="43.0386346" lon="11.4813405"><ele>591.0</ele><time>2026-05-02T10:46:23.334Z</time></trkpt><trkpt lat="43.0387684" lon="11.4814585"><ele>590.0</ele><time>2026-05-02T10:46:24.328Z</time></trkpt><trkpt lat="43.0389085" lon="11.4815862"><ele>589.0</ele><time>2026-05-02T10:46:25.336Z</time></trkpt><trkpt lat="43.0390556" lon="11.4817149"><ele>591.3333333333334</ele><time>2026-05-02T10:46:26.325Z</time></trkpt><trkpt lat="43.0392016" lon="11.4818434"><ele>593.6666666666666</ele><time>2026-05-02T10:46:27.324Z</time></trkpt><trkpt lat="43.0393579" lon="11.4819816"><ele>596.0</ele><time>2026-05-02T10:46:28.32Z</time></trkpt><trkpt lat="43.0395157" lon="11.4821176"><ele>599.0</ele><time>2026-05-02T10:46:29.329Z</time></trkpt><trkpt lat="43.0396733" lon="11.4822541"><ele>602.0</ele><time>2026-05-02T10:46:30.323Z</time></trkpt><trkpt lat="43.0398225" lon="11.4823859"><ele>605.0</ele><time>2026-05-02T10:46:31.331Z</time></trkpt><trkpt lat="43.039969" lon="11.4825114"><ele>606.6666666666666</ele><time>2026-05-02T10:46:32.331Z</time></trkpt><trkpt lat="43.0401289" lon="11.482624"><ele>608.3333333333334</ele><time>2026-05-02T10:46:33.331Z</time></trkpt><trkpt lat="43.0402972" lon="11.4827235"><ele>610.0</ele><time>2026-05-02T10:46:34.335Z</time></trkpt><trkpt lat="43.0404765" lon="11.4828148"><ele>610.0</ele><time>2026-05-02T10:46:35.333Z</time></trkpt><trkpt lat="43.0406577" lon="11.4828955"><ele>610.0</ele><time>2026-05-02T10:46:36.331Z</time></trkpt><trkpt lat="43.0408596" lon="11.4829609"><ele>610.0</ele><time>2026-05-02T10:46:37.332Z</time></trkpt><trkpt lat="43.0410644" lon="11.4830276"><ele>612.6666666666667</ele><time>2026-05-02T10:46:38.325Z</time></trkpt><trkpt lat="43.0412467" lon="11.4830861"><ele>615.3333333333334</ele><time>2026-05-02T10:46:39.324Z</time></trkpt><trkpt lat="43.0414203" lon="11.4831405"><ele>618.0</ele><time>2026-05-02T10:46:40.326Z</time></trkpt><trkpt lat="43.0415749" lon="11.4831889"><ele>616.0</ele><time>2026-05-02T10:46:41.33Z</time></trkpt><trkpt lat="43.0417371" lon="11.4832264"><ele>614.0</ele><time>2026-05-02T10:46:42.337Z</time></trkpt><trkpt lat="43.0419013" lon="11.4832746"><ele>612.0</ele><time>2026-05-02T10:46:43.33Z</time></trkpt><trkpt lat="43.0420647" lon="11.483324"><ele>612.0</ele><time>2026-05-02T10:46:44.33Z</time></trkpt><trkpt lat="43.0422333" lon="11.4833771"><ele>612.0</ele><time>2026-05-02T10:46:45.34Z</time></trkpt><trkpt lat="43.0424072" lon="11.483432"><ele>612.0</ele><time>2026-05-02T10:46:46.33Z</time></trkpt><trkpt lat="43.0425676" lon="11.4834816"><ele>612.3333333333334</ele><time>2026-05-02T10:46:47.331Z</time></trkpt><trkpt lat="43.0427192" lon="11.4835324"><ele>612.6666666666667</ele><time>2026-05-02T10:46:48.349Z</time></trkpt><trkpt lat="43.0428764" lon="11.4835725"><ele>613.0</ele><time>2026-05-02T10:46:49.33Z</time></trkpt><trkpt lat="43.0430326" lon="11.4836152"><ele>613.0</ele><time>2026-05-02T10:46:50.331Z</time></trkpt><trkpt lat="43.0431888" lon="11.4836535"><ele>613.0</ele><time>2026-05-02T10:46:51.341Z</time></trkpt><trkpt lat="43.0433474" lon="11.4836983"><ele>613.0</ele><time>2026-05-02T10:46:52.328Z</time></trkpt><trkpt lat="43.0435129" lon="11.4837604"><ele>612.3333333333334</ele><time>2026-05-02T10:46:53.339Z</time></trkpt><trkpt lat="43.0436727" lon="11.4838552"><ele>611.6666666666666</ele><time>2026-05-02T10:46:54.325Z</time></trkpt><trkpt lat="43.0438307" lon="11.4839824"><ele>611.0</ele><time>2026-05-02T10:46:55.332Z</time></trkpt><trkpt lat="43.0439795" lon="11.4841264"><ele>611.0</ele><time>2026-05-02T10:46:56.328Z</time></trkpt><trkpt lat="43.0441184" lon="11.4842674"><ele>611.0</ele><time>2026-05-02T10:46:57.323Z</time></trkpt><trkpt lat="43.0442395" lon="11.4843983"><ele>611.0</ele><time>2026-05-02T10:46:58.325Z</time></trkpt><trkpt lat="43.0443417" lon="11.4845167"><ele>611.25</ele><time>2026-05-02T10:46:59.33Z</time></trkpt><trkpt lat="43.0444312" lon="11.4846402"><ele>611.5</ele><time>2026-05-02T10:47:00.337Z</time></trkpt><trkpt lat="43.0445017" lon="11.4847754"><ele>611.75</ele><time>2026-05-02T10:47:01.326Z</time></trkpt><trkpt lat="43.0445553" lon="11.4849201"><ele>612.0</ele><time>2026-05-02T10:47:02.34Z</time></trkpt><trkpt lat="43.0445984" lon="11.4850727"><ele>612.0</ele><time>2026-05-02T10:47:03.333Z</time></trkpt><trkpt lat="43.0446423" lon="11.4852374"><ele>612.0</ele><time>2026-05-02T10:47:04.335Z</time></trkpt><trkpt lat="43.0446885" lon="11.485413"><ele>612.0</ele><time>2026-05-02T10:47:05.328Z</time></trkpt><trkpt lat="43.0447444" lon="11.4856013"><ele>612.0</ele><time>2026-05-02T10:47:06.329Z</time></trkpt><trkpt lat="43.0448023" lon="11.485801"><ele>612.6666666666666</ele><time>2026-05-02T10:47:07.341Z</time></trkpt><trkpt lat="43.0448607" lon="11.4860043"><ele>613.3333333333333</ele><time>2026-05-02T10:47:08.334Z</time></trkpt><trkpt lat="43.0449168" lon="11.4862052"><ele>614.0</ele><time>2026-05-02T10:47:09.34Z</time></trkpt><trkpt lat="43.0449735" lon="11.4863942"><ele>614.25</ele><time>2026-05-02T10:47:10.33Z</time></trkpt><trkpt lat="43.0450192" lon="11.4865677"><ele>614.5</ele><time>2026-05-02T10:47:11.319Z</time></trkpt><trkpt lat="43.045068" lon="11.486722"><ele>614.75</ele><time>2026-05-02T10:47:12.321Z</time></trkpt><trkpt lat="43.045133" lon="11.4868583"><ele>615.0</ele><time>2026-05-02T10:47:13.335Z</time></trkpt><trkpt lat="43.0452163" lon="11.4869676"><ele>615.0</ele><time>2026-05-02T10:47:14.325Z</time></trkpt><trkpt lat="43.0453074" lon="11.487031"><ele>615.0</ele><time>2026-05-02T10:47:15.331Z</time></trkpt><trkpt lat="43.0454147" lon="11.4870577"><ele>615.0</ele><time>2026-05-02T10:47:16.328Z</time></trkpt><trkpt lat="43.0455284" lon="11.4870712"><ele>615.0</ele><time>2026-05-02T10:47:17.329Z</time></trkpt><trkpt lat="43.0456307" lon="11.4870741"><ele>615.0</ele><time>2026-05-02T10:47:18.325Z</time></trkpt><trkpt lat="43.0457357" lon="11.4870821"><ele>614.6</ele><time>2026-05-02T10:47:19.336Z</time></trkpt><trkpt lat="43.0458414" lon="11.4871149"><ele>614.2</ele><time>2026-05-02T10:47:20.331Z</time></trkpt><trkpt lat="43.0459385" lon="11.4871789"><ele>613.8</ele><time>2026-05-02T10:47:21.339Z</time></trkpt><trkpt lat="43.0460147" lon="11.4872676"><ele>613.4</ele><time>2026-05-02T10:47:22.323Z</time></trkpt><trkpt lat="43.0460839" lon="11.4873891"><ele>613.0</ele><time>2026-05-02T10:47:23.343Z</time></trkpt><trkpt lat="43.0461419" lon="11.4875009"><ele>613.0</ele><time>2026-05-02T10:47:24.328Z</time></trkpt><trkpt lat="43.0461956" lon="11.4876362"><ele>613.0</ele><time>2026-05-02T10:47:25.333Z</time></trkpt><trkpt lat="43.0462439" lon="11.4877788"><ele>613.0</ele><time>2026-05-02T10:47:26.328Z</time></trkpt><trkpt lat="43.0462752" lon="11.4879336"><ele>613.0</ele><time>2026-05-02T10:47:27.328Z</time></trkpt><trkpt lat="43.0463069" lon="11.4881023"><ele>610.25</ele><time>2026-05-02T10:47:28.324Z</time></trkpt><trkpt lat="43.0463336" lon="11.4882664"><ele>607.5</ele><time>2026-05-02T10:47:29.318Z</time></trkpt><trkpt lat="43.0463648" lon="11.4884397"><ele>604.75</ele><time>2026-05-02T10:47:30.312Z</time></trkpt><trkpt lat="43.046406" lon="11.4886045"><ele>602.0</ele><time>2026-05-02T10:47:31.332Z</time></trkpt><trkpt lat="43.0464449" lon="11.4887628"><ele>600.4</ele><time>2026-05-02T10:47:32.329Z</time></trkpt><trkpt lat="43.0464766" lon="11.4889115"><ele>598.8000000000001</ele><time>2026-05-02T10:47:33.328Z</time></trkpt><trkpt lat="43.0465121" lon="11.4890488"><ele>597.2</ele><time>2026-05-02T10:47:34.327Z</time></trkpt><trkpt lat="43.0465553" lon="11.4891707"><ele>595.6</ele><time>2026-05-02T10:47:35.335Z</time></trkpt><trkpt lat="43.0466195" lon="11.4892753"><ele>594.0</ele><time>2026-05-02T10:47:36.324Z</time></trkpt><trkpt lat="43.0466995" lon="11.4893666"><ele>598.2</ele><time>2026-05-02T10:47:37.335Z</time></trkpt><trkpt lat="43.0467867" lon="11.489439"><ele>602.4</ele><time>2026-05-02T10:47:38.325Z</time></trkpt><trkpt lat="43.0468876" lon="11.4894897"><ele>606.6</ele><time>2026-05-02T10:47:39.324Z</time></trkpt><trkpt lat="43.0469965" lon="11.489519"><ele>610.8</ele><time>2026-05-02T10:47:40.332Z</time></trkpt><trkpt lat="43.0471218" lon="11.4895276"><ele>615.0</ele><time>2026-05-02T10:47:41.336Z</time></trkpt><trkpt lat="43.0472486" lon="11.4895382"><ele>615.0</ele><time>2026-05-02T10:47:42.33Z</time></trkpt><trkpt lat="43.0473632" lon="11.4895805"><ele>615.0</ele><time>2026-05-02T10:47:43.338Z</time></trkpt><trkpt lat="43.0474683" lon="11.4896464"><ele>615.0</ele><time>2026-05-02T10:47:44.323Z</time></trkpt><trkpt lat="43.0475619" lon="11.4897431"><ele>615.0</ele><time>2026-05-02T10:47:45.33Z</time></trkpt><trkpt lat="43.0476473" lon="11.4898455"><ele>612.0</ele><time>2026-05-02T10:47:46.328Z</time></trkpt><trkpt lat="43.0477389" lon="11.4899485"><ele>609.0</ele><time>2026-05-02T10:47:47.342Z</time></trkpt><trkpt lat="43.0478373" lon="11.4900287"><ele>606.0</ele><time>2026-05-02T10:47:48.324Z</time></trkpt><trkpt lat="43.0479436" lon="11.4900734"><ele>603.0</ele><time>2026-05-02T10:47:49.341Z</time></trkpt><trkpt lat="43.0480502" lon="11.490077"><ele>603.0</ele><time>2026-05-02T10:47:50.327Z</time></trkpt><trkpt lat="43.0481494" lon="11.4900473"><ele>603.0</ele><time>2026-05-02T10:47:51.33Z</time></trkpt><trkpt lat="43.0482545" lon="11.4900134"><ele>603.0</ele><time>2026-05-02T10:47:52.331Z</time></trkpt><trkpt lat="43.0483602" lon="11.4899878"><ele>603.0</ele><time>2026-05-02T10:47:53.337Z</time></trkpt><trkpt lat="43.0484647" lon="11.4899728"><ele>603.0</ele><time>2026-05-02T10:47:54.333Z</time></trkpt><trkpt lat="43.0485584" lon="11.4899512"><ele>603.0</ele><time>2026-05-02T10:47:55.326Z</time></trkpt><trkpt lat="43.0486379" lon="11.4899473"><ele>603.0</ele><time>2026-05-02T10:47:56.325Z</time></trkpt><trkpt lat="43.0487196" lon="11.4899648"><ele>603.0</ele><time>2026-05-02T10:47:57.33Z</time></trkpt><trkpt lat="43.0487855" lon="11.4900178"><ele>603.0</ele><time>2026-05-02T10:47:58.323Z</time></trkpt><trkpt lat="43.048849" lon="11.4900983"><ele>603.0</ele><time>2026-05-02T10:47:59.326Z</time></trkpt><trkpt lat="43.0489037" lon="11.4902043"><ele>603.0</ele><time>2026-05-02T10:48:00.324Z</time></trkpt><trkpt lat="43.0489461" lon="11.4903377"><ele>601.4</ele><time>2026-05-02T10:48:01.319Z</time></trkpt><trkpt lat="43.048984" lon="11.4904783"><ele>599.8</ele><time>2026-05-02T10:48:02.325Z</time></trkpt><trkpt lat="43.049017" lon="11.4906206"><ele>598.2</ele><time>2026-05-02T10:48:03.329Z</time></trkpt><trkpt lat="43.0490512" lon="11.4907502"><ele>596.6</ele><time>2026-05-02T10:48:04.328Z</time></trkpt><trkpt lat="43.0490859" lon="11.4908671"><ele>595.0</ele><time>2026-05-02T10:48:05.335Z</time></trkpt><trkpt lat="43.0491362" lon="11.4909607"><ele>595.0</ele><time>2026-05-02T10:48:06.331Z</time></trkpt><trkpt lat="43.0492008" lon="11.4910244"><ele>595.0</ele><time>2026-05-02T10:48:07.326Z</time></trkpt><trkpt lat="43.0492762" lon="11.491057"><ele>595.0</ele><time>2026-05-02T10:48:08.329Z</time></trkpt><trkpt lat="43.0493665" lon="11.4910641"><ele>595.0</ele><time>2026-05-02T10:48:09.328Z</time></trkpt><trkpt lat="43.0494631" lon="11.4910417"><ele>595.0</ele><time>2026-05-02T10:48:10.33Z</time></trkpt><trkpt lat="43.0495663" lon="11.4910111"><ele>595.0</ele><time>2026-05-02T10:48:11.332Z</time></trkpt><trkpt lat="43.0496733" lon="11.4909862"><ele>595.0</ele><time>2026-05-02T10:48:12.327Z</time></trkpt><trkpt lat="43.0497871" lon="11.4909887"><ele>595.0</ele><time>2026-05-02T10:48:13.33Z</time></trkpt><trkpt lat="43.0499007" lon="11.4910117"><ele>595.0</ele><time>2026-05-02T10:48:14.339Z</time></trkpt><trkpt lat="43.0500015" lon="11.4910267"><ele>595.0</ele><time>2026-05-02T10:48:15.339Z</time></trkpt><trkpt lat="43.0500949" lon="11.4910211"><ele>595.4</ele><time>2026-05-02T10:48:16.329Z</time></trkpt><trkpt lat="43.0501697" lon="11.4909833"><ele>595.8</ele><time>2026-05-02T10:48:17.329Z</time></trkpt><trkpt lat="43.0502354" lon="11.4909112"><ele>596.2</ele><time>2026-05-02T10:48:18.328Z</time></trkpt><trkpt lat="43.0502978" lon="11.4908169"><ele>596.6</ele><time>2026-05-02T10:48:19.326Z</time></trkpt><trkpt lat="43.0503548" lon="11.4906945"><ele>597.0</ele><time>2026-05-02T10:48:20.334Z</time></trkpt><trkpt lat="43.0504161" lon="11.4905652"><ele>597.0</ele><time>2026-05-02T10:48:21.336Z</time></trkpt><trkpt lat="43.0504765" lon="11.4904373"><ele>597.0</ele><time>2026-05-02T10:48:22.321Z</time></trkpt><trkpt lat="43.0505302" lon="11.4903069"><ele>597.0</ele><time>2026-05-02T10:48:23.35Z</time></trkpt><trkpt lat="43.0505831" lon="11.4901846"><ele>597.0</ele><time>2026-05-02T10:48:24.333Z</time></trkpt><trkpt lat="43.0506348" lon="11.4900798"><ele>597.0</ele><time>2026-05-02T10:48:25.327Z</time></trkpt><trkpt lat="43.0506849" lon="11.4899886"><ele>598.0</ele><time>2026-05-02T10:48:26.326Z</time></trkpt><trkpt lat="43.0507268" lon="11.489885"><ele>599.0</ele><time>2026-05-02T10:48:27.324Z</time></trkpt><trkpt lat="43.0507789" lon="11.4897755"><ele>600.0</ele><time>2026-05-02T10:48:28.325Z</time></trkpt><trkpt lat="43.0508329" lon="11.489661"><ele>601.0</ele><time>2026-05-02T10:48:29.327Z</time></trkpt><trkpt lat="43.0509067" lon="11.4895636"><ele>602.0</ele><time>2026-05-02T10:48:30.33Z</time></trkpt><trkpt lat="43.0510076" lon="11.4895255"><ele>602.0</ele><time>2026-05-02T10:48:31.322Z</time></trkpt><trkpt lat="43.051118" lon="11.4895255"><ele>602.0</ele><time>2026-05-02T10:48:32.326Z</time></trkpt><trkpt lat="43.0512115" lon="11.4895742"><ele>602.0</ele><time>2026-05-02T10:48:33.335Z</time></trkpt><trkpt lat="43.05129" lon="11.4896723"><ele>602.0</ele><time>2026-05-02T10:48:34.325Z</time></trkpt><trkpt lat="43.0513403" lon="11.4897993"><ele>602.0</ele><time>2026-05-02T10:48:35.322Z</time></trkpt><trkpt lat="43.0513914" lon="11.4899322"><ele>599.4</ele><time>2026-05-02T10:48:36.323Z</time></trkpt><trkpt lat="43.0514426" lon="11.490058"><ele>596.8000000000001</ele><time>2026-05-02T10:48:37.329Z</time></trkpt><trkpt lat="43.0514928" lon="11.4901679"><ele>594.2</ele><time>2026-05-02T10:48:38.332Z</time></trkpt><trkpt lat="43.0515412" lon="11.4902737"><ele>591.6</ele><time>2026-05-02T10:48:39.344Z</time></trkpt><trkpt lat="43.0515882" lon="11.4903726"><ele>589.0</ele><time>2026-05-02T10:48:40.329Z</time></trkpt><trkpt lat="43.0516404" lon="11.4904799"><ele>585.8</ele><time>2026-05-02T10:48:41.332Z</time></trkpt><trkpt lat="43.0517012" lon="11.490582"><ele>582.5999999999999</ele><time>2026-05-02T10:48:42.316Z</time></trkpt><trkpt lat="43.0517755" lon="11.4906775"><ele>579.4</ele><time>2026-05-02T10:48:43.325Z</time></trkpt><trkpt lat="43.0518562" lon="11.4907615"><ele>576.1999999999999</ele><time>2026-05-02T10:48:44.326Z</time></trkpt><trkpt lat="43.0519429" lon="11.4908443"><ele>573.0</ele><time>2026-05-02T10:48:45.328Z</time></trkpt><trkpt lat="43.0520311" lon="11.4909204"><ele>573.0</ele><time>2026-05-02T10:48:46.341Z</time></trkpt><trkpt lat="43.0521304" lon="11.4909694"><ele>573.0</ele><time>2026-05-02T10:48:47.326Z</time></trkpt><trkpt lat="43.0522289" lon="11.4909933"><ele>573.0</ele><time>2026-05-02T10:48:48.317Z</time></trkpt><trkpt lat="43.052334" lon="11.4909937"><ele>573.0</ele><time>2026-05-02T10:48:49.321Z</time></trkpt><trkpt lat="43.0524314" lon="11.4909748"><ele>573.0</ele><time>2026-05-02T10:48:50.332Z</time></trkpt><trkpt lat="43.0525252" lon="11.4909364"><ele>573.8</ele><time>2026-05-02T10:48:51.325Z</time></trkpt><trkpt lat="43.0526105" lon="11.4908826"><ele>574.5999999999999</ele><time>2026-05-02T10:48:52.34Z</time></trkpt><trkpt lat="43.0526957" lon="11.4908261"><ele>575.4000000000001</ele><time>2026-05-02T10:48:53.336Z</time></trkpt><trkpt lat="43.0527836" lon="11.4907751"><ele>576.2</ele><time>2026-05-02T10:48:54.336Z</time></trkpt><trkpt lat="43.0528719" lon="11.490725"><ele>577.0</ele><time>2026-05-02T10:48:55.315Z</time></trkpt><trkpt lat="43.0529546" lon="11.4906608"><ele>577.0</ele><time>2026-05-02T10:48:56.324Z</time></trkpt><trkpt lat="43.0530305" lon="11.4905783"><ele>577.0</ele><time>2026-05-02T10:48:57.33Z</time></trkpt><trkpt lat="43.0530897" lon="11.4904693"><ele>577.0</ele><time>2026-05-02T10:48:58.324Z</time></trkpt><trkpt lat="43.0531388" lon="11.4903509"><ele>577.0</ele><time>2026-05-02T10:48:59.326Z</time></trkpt><trkpt lat="43.0531784" lon="11.4902222"><ele>577.0</ele><time>2026-05-02T10:49:00.321Z</time></trkpt><trkpt lat="43.0532058" lon="11.4900835"><ele>575.6666666666667</ele><time>2026-05-02T10:49:01.33Z</time></trkpt><trkpt lat="43.0532238" lon="11.4899523"><ele>574.3333333333334</ele><time>2026-05-02T10:49:02.328Z</time></trkpt><trkpt lat="43.0532474" lon="11.4898338"><ele>573.0</ele><time>2026-05-02T10:49:03.331Z</time></trkpt><trkpt lat="43.0532716" lon="11.489725"><ele>571.6666666666666</ele><time>2026-05-02T10:49:04.328Z</time></trkpt><trkpt lat="43.0532933" lon="11.4896264"><ele>570.3333333333333</ele><time>2026-05-02T10:49:05.33Z</time></trkpt><trkpt lat="43.0533123" lon="11.4895278"><ele>569.0</ele><time>2026-05-02T10:49:06.341Z</time></trkpt><trkpt lat="43.0533314" lon="11.4894294"><ele>569.0</ele><time>2026-05-02T10:49:07.329Z</time></trkpt><trkpt lat="43.0533506" lon="11.4893398"><ele>569.0</ele><time>2026-05-02T10:49:08.326Z</time></trkpt><trkpt lat="43.0533713" lon="11.4892571"><ele>569.0</ele><time>2026-05-02T10:49:09.327Z</time></trkpt><trkpt lat="43.0534311" lon="11.4891074"><ele>569.0</ele><time>2026-05-02T10:49:11.32Z</time></trkpt><trkpt lat="43.0534863" lon="11.4890355"><ele>569.0</ele><time>2026-05-02T10:49:12.317Z</time></trkpt><trkpt lat="43.053558" lon="11.4889815"><ele>569.0</ele><time>2026-05-02T10:49:13.321Z</time></trkpt><trkpt lat="43.0536467" lon="11.4889263"><ele>569.0</ele><time>2026-05-02T10:49:14.328Z</time></trkpt><trkpt lat="43.0537411" lon="11.4888709"><ele>569.0</ele><time>2026-05-02T10:49:15.318Z</time></trkpt><trkpt lat="43.0538293" lon="11.4888358"><ele>569.0</ele><time>2026-05-02T10:49:16.32Z</time></trkpt><trkpt lat="43.0539135" lon="11.4888112"><ele>569.0</ele><time>2026-05-02T10:49:17.324Z</time></trkpt><trkpt lat="43.053985" lon="11.4887795"><ele>569.0</ele><time>2026-05-02T10:49:18.321Z</time></trkpt><trkpt lat="43.0540489" lon="11.4887541"><ele>569.0</ele><time>2026-05-02T10:49:19.328Z</time></trkpt><trkpt lat="43.0541678" lon="11.4887213"><ele>568.3333333333333</ele><time>2026-05-02T10:49:21.324Z</time></trkpt><trkpt lat="43.0542523" lon="11.4887031"><ele>567.6666666666666</ele><time>2026-05-02T10:49:23.323Z</time></trkpt><trkpt lat="43.0543258" lon="11.4886936"><ele>567.0</ele><time>2026-05-02T10:49:25.336Z</time></trkpt><trkpt lat="43.054426" lon="11.4886853"><ele>566.3333333333334</ele><time>2026-05-02T10:49:27.331Z</time></trkpt><trkpt lat="43.0545217" lon="11.4886977"><ele>565.6666666666667</ele><time>2026-05-02T10:49:29.327Z</time></trkpt><trkpt lat="43.0546021" lon="11.4887272"><ele>565.0</ele><time>2026-05-02T10:49:32.329Z</time></trkpt><trkpt lat="43.0546683" lon="11.4887535"><ele>563.5714285714286</ele><time>2026-05-02T10:49:34.333Z</time></trkpt><trkpt lat="43.0547395" lon="11.4887775"><ele>562.1428571428571</ele><time>2026-05-02T10:49:38.338Z</time></trkpt><trkpt lat="43.0548072" lon="11.4888276"><ele>560.7142857142858</ele><time>2026-05-02T10:49:42.331Z</time></trkpt><trkpt lat="43.0548713" lon="11.488879"><ele>559.2857142857142</ele><time>2026-05-02T10:49:45.328Z</time></trkpt><trkpt lat="43.0549245" lon="11.4889401"><ele>557.8571428571429</ele><time>2026-05-02T10:49:54.337Z</time></trkpt><trkpt lat="43.0549756" lon="11.4889915"><ele>556.4285714285714</ele><time>2026-05-02T10:49:56.332Z</time></trkpt><trkpt lat="43.055027" lon="11.4890503"><ele>555.0</ele><time>2026-05-02T10:49:58.326Z</time></trkpt><trkpt lat="43.0551221" lon="11.4891282"><ele>554.6666666666666</ele><time>2026-05-02T10:50:00.326Z</time></trkpt><trkpt lat="43.0552108" lon="11.4891298"><ele>554.3333333333334</ele><time>2026-05-02T10:50:02.323Z</time></trkpt><trkpt lat="43.0552731" lon="11.4891032"><ele>554.0</ele><time>2026-05-02T10:50:04.321Z</time></trkpt><trkpt lat="43.0553649" lon="11.4890633"><ele>553.6666666666667</ele><time>2026-05-02T10:50:06.329Z</time></trkpt><trkpt lat="43.055444" lon="11.4890106"><ele>553.3333333333334</ele><time>2026-05-02T10:50:08.332Z</time></trkpt><trkpt lat="43.0555265" lon="11.4889655"><ele>553.0</ele><time>2026-05-02T10:50:10.324Z</time></trkpt><trkpt lat="43.0556152" lon="11.4889365"><ele>553.0</ele><time>2026-05-02T10:50:12.327Z</time></trkpt><trkpt lat="43.055728" lon="11.4889474"><ele>553.0</ele><time>2026-05-02T10:50:14.335Z</time></trkpt><trkpt lat="43.0557895" lon="11.4889698"><ele>553.0</ele><time>2026-05-02T10:50:15.322Z</time></trkpt><trkpt lat="43.0559001" lon="11.4890321"><ele>553.0</ele><time>2026-05-02T10:50:17.324Z</time></trkpt><trkpt lat="43.0560184" lon="11.4890654"><ele>553.0</ele><time>2026-05-02T10:50:19.333Z</time></trkpt><trkpt lat="43.056086" lon="11.4890519"><ele>552.3333333333334</ele><time>2026-05-02T10:50:20.328Z</time></trkpt><trkpt lat="43.0561651" lon="11.4890296"><ele>551.6666666666667</ele><time>2026-05-02T10:50:21.332Z</time></trkpt><trkpt lat="43.0562469" lon="11.4890015"><ele>551.0</ele><time>2026-05-02T10:50:22.323Z</time></trkpt><trkpt lat="43.056323" lon="11.4889717"><ele>550.3333333333334</ele><time>2026-05-02T10:50:23.339Z</time></trkpt><trkpt lat="43.0563856" lon="11.48895"><ele>549.6666666666666</ele><time>2026-05-02T10:50:24.326Z</time></trkpt><trkpt lat="43.0564861" lon="11.4889096"><ele>549.0</ele><time>2026-05-02T10:50:26.328Z</time></trkpt><trkpt lat="43.0565894" lon="11.4888692"><ele>549.1666666666666</ele><time>2026-05-02T10:50:28.331Z</time></trkpt><trkpt lat="43.0566725" lon="11.4888233"><ele>549.3333333333334</ele><time>2026-05-02T10:50:30.335Z</time></trkpt><trkpt lat="43.0567551" lon="11.4887778"><ele>549.5</ele><time>2026-05-02T10:50:33.324Z</time></trkpt><trkpt lat="43.0568181" lon="11.4887051"><ele>549.6666666666667</ele><time>2026-05-02T10:50:35.328Z</time></trkpt><trkpt lat="43.0568952" lon="11.4885931"><ele>549.8333333333334</ele><time>2026-05-02T10:50:37.334Z</time></trkpt><trkpt lat="43.0569344" lon="11.4885203"><ele>550.0</ele><time>2026-05-02T10:50:38.329Z</time></trkpt><trkpt lat="43.0569714" lon="11.4884439"><ele>547.2</ele><time>2026-05-02T10:50:39.324Z</time></trkpt><trkpt lat="43.0570075" lon="11.4883706"><ele>544.4</ele><time>2026-05-02T10:50:40.328Z</time></trkpt><trkpt lat="43.0570654" lon="11.488268"><ele>541.6</ele><time>2026-05-02T10:50:42.336Z</time></trkpt><trkpt lat="43.0571169" lon="11.4881688"><ele>538.8</ele><time>2026-05-02T10:50:44.335Z</time></trkpt><trkpt lat="43.0571835" lon="11.4880497"><ele>536.0</ele><time>2026-05-02T10:50:46.34Z</time></trkpt><trkpt lat="43.0572503" lon="11.4878971"><ele>536.8333333333333</ele><time>2026-05-02T10:50:48.329Z</time></trkpt><trkpt lat="43.057292" lon="11.4878119"><ele>537.6666666666666</ele><time>2026-05-02T10:50:49.336Z</time></trkpt><trkpt lat="43.0573392" lon="11.4877246"><ele>538.5</ele><time>2026-05-02T10:50:50.334Z</time></trkpt><trkpt lat="43.057386" lon="11.4876383"><ele>539.3333333333334</ele><time>2026-05-02T10:50:51.331Z</time></trkpt><trkpt lat="43.0574346" lon="11.4875464"><ele>540.1666666666667</ele><time>2026-05-02T10:50:52.329Z</time></trkpt><trkpt lat="43.0574925" lon="11.487463"><ele>541.0</ele><time>2026-05-02T10:50:53.325Z</time></trkpt><trkpt lat="43.0575528" lon="11.48738"><ele>541.0</ele><time>2026-05-02T10:50:54.324Z</time></trkpt><trkpt lat="43.0576192" lon="11.4872985"><ele>541.0</ele><time>2026-05-02T10:50:55.325Z</time></trkpt><trkpt lat="43.0576941" lon="11.4872142"><ele>541.0</ele><time>2026-05-02T10:50:56.332Z</time></trkpt><trkpt lat="43.0577662" lon="11.4871373"><ele>541.0</ele><time>2026-05-02T10:50:57.34Z</time></trkpt><trkpt lat="43.0578254" lon="11.4870589"><ele>541.0</ele><time>2026-05-02T10:50:58.327Z</time></trkpt><trkpt lat="43.0578854" lon="11.4869795"><ele>541.0</ele><time>2026-05-02T10:50:59.332Z</time></trkpt><trkpt lat="43.0579494" lon="11.4869024"><ele>542.0000000000001</ele><time>2026-05-02T10:51:00.331Z</time></trkpt><trkpt lat="43.0580131" lon="11.4868319"><ele>543.0</ele><time>2026-05-02T10:51:01.322Z</time></trkpt><trkpt lat="43.0580715" lon="11.4867659"><ele>544.0</ele><time>2026-05-02T10:51:02.324Z</time></trkpt><trkpt lat="43.0581301" lon="11.4867003"><ele>545.0</ele><time>2026-05-02T10:51:03.325Z</time></trkpt><trkpt lat="43.0581859" lon="11.4866272"><ele>546.0</ele><time>2026-05-02T10:51:04.327Z</time></trkpt><trkpt lat="43.0582361" lon="11.4865695"><ele>547.0000000000001</ele><time>2026-05-02T10:51:05.331Z</time></trkpt><trkpt lat="43.0582894" lon="11.4865223"><ele>548.0</ele><time>2026-05-02T10:51:07.326Z</time></trkpt><trkpt lat="43.0583473" lon="11.4864748"><ele>548.0</ele><time>2026-05-02T10:51:16.332Z</time></trkpt><trkpt lat="43.0584468" lon="11.4863966"><ele>548.0</ele><time>2026-05-02T10:51:19.341Z</time></trkpt><trkpt lat="43.058552" lon="11.4863027"><ele>548.0</ele><time>2026-05-02T10:51:21.325Z</time></trkpt><trkpt lat="43.0586201" lon="11.4862501"><ele>548.0</ele><time>2026-05-02T10:51:22.32Z</time></trkpt><trkpt lat="43.058685" lon="11.4862095"><ele>548.0</ele><time>2026-05-02T10:51:23.339Z</time></trkpt><trkpt lat="43.0587477" lon="11.4861754"><ele>546.3333333333333</ele><time>2026-05-02T10:51:24.326Z</time></trkpt><trkpt lat="43.0588156" lon="11.4861477"><ele>544.6666666666666</ele><time>2026-05-02T10:51:25.326Z</time></trkpt><trkpt lat="43.0588891" lon="11.4861373"><ele>543.0</ele><time>2026-05-02T10:51:26.323Z</time></trkpt><trkpt lat="43.0589692" lon="11.4861412"><ele>541.3333333333334</ele><time>2026-05-02T10:51:27.333Z</time></trkpt><trkpt lat="43.0590522" lon="11.4861543"><ele>539.6666666666667</ele><time>2026-05-02T10:51:28.34Z</time></trkpt><trkpt lat="43.0591338" lon="11.4861801"><ele>538.0</ele><time>2026-05-02T10:51:29.333Z</time></trkpt><trkpt lat="43.0592247" lon="11.4862156"><ele>541.1999999999999</ele><time>2026-05-02T10:51:30.329Z</time></trkpt><trkpt lat="43.0593256" lon="11.4862629"><ele>544.4</ele><time>2026-05-02T10:51:31.323Z</time></trkpt><trkpt lat="43.0594333" lon="11.4863121"><ele>547.5999999999999</ele><time>2026-05-02T10:51:32.339Z</time></trkpt><trkpt lat="43.0595412" lon="11.4863646"><ele>550.8</ele><time>2026-05-02T10:51:33.331Z</time></trkpt><trkpt lat="43.059647" lon="11.4864086"><ele>554.0</ele><time>2026-05-02T10:51:34.324Z</time></trkpt><trkpt lat="43.0597491" lon="11.4864532"><ele>554.0</ele><time>2026-05-02T10:51:35.328Z</time></trkpt><trkpt lat="43.0598434" lon="11.4864978"><ele>554.0</ele><time>2026-05-02T10:51:36.327Z</time></trkpt><trkpt lat="43.0599338" lon="11.4865394"><ele>554.0</ele><time>2026-05-02T10:51:37.332Z</time></trkpt><trkpt lat="43.0600192" lon="11.4865795"><ele>554.0</ele><time>2026-05-02T10:51:38.317Z</time></trkpt><trkpt lat="43.0600919" lon="11.4866181"><ele>554.0</ele><time>2026-05-02T10:51:39.33Z</time></trkpt><trkpt lat="43.0601671" lon="11.4866459"><ele>554.0</ele><time>2026-05-02T10:51:41.331Z</time></trkpt><trkpt lat="43.0602549" lon="11.486687"><ele>553.8333333333333</ele><time>2026-05-02T10:51:43.323Z</time></trkpt><trkpt lat="43.0603227" lon="11.48672"><ele>553.6666666666666</ele><time>2026-05-02T10:51:44.331Z</time></trkpt><trkpt lat="43.0603978" lon="11.4867691"><ele>553.5</ele><time>2026-05-02T10:51:45.323Z</time></trkpt><trkpt lat="43.0604549" lon="11.4868168"><ele>553.3333333333334</ele><time>2026-05-02T10:51:46.331Z</time></trkpt><trkpt lat="43.0605316" lon="11.4869041"><ele>553.1666666666667</ele><time>2026-05-02T10:51:48.332Z</time></trkpt><trkpt lat="43.0605848" lon="11.4869722"><ele>553.0</ele><time>2026-05-02T10:51:50.337Z</time></trkpt><trkpt lat="43.0606398" lon="11.4870712"><ele>554.6</ele><time>2026-05-02T10:51:53.329Z</time></trkpt><trkpt lat="43.0606685" lon="11.4871757"><ele>556.1999999999999</ele><time>2026-05-02T10:51:55.325Z</time></trkpt><trkpt lat="43.0606744" lon="11.4873184"><ele>557.8</ele><time>2026-05-02T10:51:57.323Z</time></trkpt><trkpt lat="43.0606745" lon="11.4874534"><ele>559.4</ele><time>2026-05-02T10:51:59.329Z</time></trkpt><trkpt lat="43.0606747" lon="11.4875887"><ele>561.0</ele><time>2026-05-02T10:52:01.331Z</time></trkpt><trkpt lat="43.0606749" lon="11.4877249"><ele>561.0</ele><time>2026-05-02T10:52:03.333Z</time></trkpt><trkpt lat="43.0606778" lon="11.4878597"><ele>561.0</ele><time>2026-05-02T10:52:05.322Z</time></trkpt><trkpt lat="43.0606817" lon="11.4879883"><ele>561.0</ele><time>2026-05-02T10:52:07.336Z</time></trkpt><trkpt lat="43.0606844" lon="11.4880954"><ele>561.0</ele><time>2026-05-02T10:52:09.334Z</time></trkpt><trkpt lat="43.0606915" lon="11.4882171"><ele>561.0</ele><time>2026-05-02T10:52:11.331Z</time></trkpt><trkpt lat="43.060696" lon="11.4883548"><ele>560.0</ele><time>2026-05-02T10:52:13.335Z</time></trkpt><trkpt lat="43.0606972" lon="11.488506"><ele>559.0</ele><time>2026-05-02T10:52:15.327Z</time></trkpt><trkpt lat="43.0607046" lon="11.4886662"><ele>558.0</ele><time>2026-05-02T10:52:17.326Z</time></trkpt><trkpt lat="43.0607043" lon="11.4888301"><ele>557.0</ele><time>2026-05-02T10:52:19.319Z</time></trkpt><trkpt lat="43.0607097" lon="11.4889167"><ele>556.0</ele><time>2026-05-02T10:52:20.325Z</time></trkpt><trkpt lat="43.0607163" lon="11.4890908"><ele>554.1666666666667</ele><time>2026-05-02T10:52:22.318Z</time></trkpt><trkpt lat="43.0607191" lon="11.4891909"><ele>552.3333333333334</ele><time>2026-05-02T10:52:23.337Z</time></trkpt><trkpt lat="43.0607228" lon="11.4892816"><ele>550.5</ele><time>2026-05-02T10:52:24.32Z</time></trkpt><trkpt lat="43.0607296" lon="11.4893726"><ele>548.6666666666666</ele><time>2026-05-02T10:52:25.331Z</time></trkpt><trkpt lat="43.0607351" lon="11.4895329"><ele>546.8333333333333</ele><time>2026-05-02T10:52:27.333Z</time></trkpt><trkpt lat="43.0607488" lon="11.489637"><ele>545.0</ele><time>2026-05-02T10:52:29.329Z</time></trkpt><trkpt lat="43.0607309" lon="11.4897355"><ele>543.0</ele><time>2026-05-02T10:52:33.337Z</time></trkpt><trkpt lat="43.0606616" lon="11.489796"><ele>541.0</ele><time>2026-05-02T10:52:37.333Z</time></trkpt><trkpt lat="43.060605" lon="11.4898549"><ele>539.0</ele><time>2026-05-02T10:52:42.328Z</time></trkpt><trkpt lat="43.0605771" lon="11.4899439"><ele>537.0</ele><time>2026-05-02T10:52:47.341Z</time></trkpt><trkpt lat="43.0606163" lon="11.4900462"><ele>535.0</ele><time>2026-05-02T10:52:51.327Z</time></trkpt><trkpt lat="43.060657" lon="11.4901183"><ele>533.0</ele><time>2026-05-02T10:52:54.331Z</time></trkpt><trkpt lat="43.0607086" lon="11.490187"><ele>531.0</ele><time>2026-05-02T10:52:57.333Z</time></trkpt><trkpt lat="43.0607905" lon="11.4901696"><ele>530.7142857142858</ele><time>2026-05-02T10:53:00.326Z</time></trkpt><trkpt lat="43.0608531" lon="11.4901385"><ele>530.4285714285714</ele><time>2026-05-02T10:53:02.328Z</time></trkpt><trkpt lat="43.0609257" lon="11.4901051"><ele>530.1428571428571</ele><time>2026-05-02T10:53:04.335Z</time></trkpt><trkpt lat="43.0609865" lon="11.4900611"><ele>529.8571428571429</ele><time>2026-05-02T10:53:06.336Z</time></trkpt><trkpt lat="43.0610378" lon="11.489956"><ele>529.5714285714286</ele><time>2026-05-02T10:53:08.327Z</time></trkpt><trkpt lat="43.0610733" lon="11.4898614"><ele>529.2857142857143</ele><time>2026-05-02T10:53:11.333Z</time></trkpt><trkpt lat="43.0610915" lon="11.4897767"><ele>529.0</ele><time>2026-05-02T10:53:52.325Z</time></trkpt><trkpt lat="43.0611073" lon="11.4896871"><ele>529.0</ele><time>2026-05-02T10:53:54.33Z</time></trkpt><trkpt lat="43.0611415" lon="11.4896147"><ele>529.0</ele><time>2026-05-02T10:53:56.335Z</time></trkpt><trkpt lat="43.0611694" lon="11.4895065"><ele>529.0</ele><time>2026-05-02T10:54:35.328Z</time></trkpt><trkpt lat="43.0612157" lon="11.4894215"><ele>529.0</ele><time>2026-05-02T10:54:38.333Z</time></trkpt><trkpt lat="43.0612179" lon="11.4893303"><ele>529.0</ele><time>2026-05-02T10:54:45.327Z</time></trkpt><trkpt lat="43.061209" lon="11.4892238"><ele>529.0</ele><time>2026-05-02T10:54:48.33Z</time></trkpt><trkpt lat="43.0612216" lon="11.4893343"><ele>529.0</ele><time>2026-05-02T10:56:10.331Z</time></trkpt><trkpt lat="43.0611964" lon="11.4894148"><ele>529.0</ele><time>2026-05-02T10:56:14.329Z</time></trkpt><trkpt lat="43.0611547" lon="11.4894853"><ele>529.0</ele><time>2026-05-02T10:56:21.32Z</time></trkpt><trkpt lat="43.0610845" lon="11.489556"><ele>529.0</ele><time>2026-05-02T10:56:24.331Z</time></trkpt><trkpt lat="43.0610212" lon="11.4896135"><ele>529.0</ele><time>2026-05-02T10:56:26.321Z</time></trkpt><trkpt lat="43.0609081" lon="11.4896753"><ele>529.0</ele><time>2026-05-02T10:56:28.327Z</time></trkpt><trkpt lat="43.0608445" lon="11.4896933"><ele>529.4</ele><time>2026-05-02T10:56:29.324Z</time></trkpt><trkpt lat="43.0607692" lon="11.4896443"><ele>529.8</ele><time>2026-05-02T10:56:31.332Z</time></trkpt><trkpt lat="43.0607649" lon="11.489541"><ele>530.2</ele><time>2026-05-02T10:56:33.318Z</time></trkpt><trkpt lat="43.0607321" lon="11.4893853"><ele>530.6</ele><time>2026-05-02T10:56:35.331Z</time></trkpt><trkpt lat="43.0607343" lon="11.4892883"><ele>531.0</ele><time>2026-05-02T10:56:36.335Z</time></trkpt><trkpt lat="43.0607375" lon="11.4891023"><ele>533.8</ele><time>2026-05-02T10:56:38.329Z</time></trkpt><trkpt lat="43.0607379" lon="11.4889841"><ele>536.6</ele><time>2026-05-02T10:56:39.321Z</time></trkpt><trkpt lat="43.0607342" lon="11.4888371"><ele>539.4</ele><time>2026-05-02T10:56:40.322Z</time></trkpt><trkpt lat="43.0607285" lon="11.4886895"><ele>542.2</ele><time>2026-05-02T10:56:41.341Z</time></trkpt><trkpt lat="43.0607253" lon="11.4885417"><ele>545.0</ele><time>2026-05-02T10:56:42.327Z</time></trkpt><trkpt lat="43.0607201" lon="11.4884106"><ele>546.8333333333333</ele><time>2026-05-02T10:56:43.318Z</time></trkpt><trkpt lat="43.0607084" lon="11.4882774"><ele>548.6666666666666</ele><time>2026-05-02T10:56:44.338Z</time></trkpt><trkpt lat="43.0607032" lon="11.4881573"><ele>550.5</ele><time>2026-05-02T10:56:45.327Z</time></trkpt><trkpt lat="43.0607019" lon="11.4880404"><ele>552.3333333333334</ele><time>2026-05-02T10:56:46.325Z</time></trkpt><trkpt lat="43.0606978" lon="11.4879313"><ele>554.1666666666667</ele><time>2026-05-02T10:56:47.325Z</time></trkpt><trkpt lat="43.0606954" lon="11.487822"><ele>556.0</ele><time>2026-05-02T10:56:48.343Z</time></trkpt><trkpt lat="43.0606919" lon="11.4877165"><ele>556.7142857142857</ele><time>2026-05-02T10:56:49.331Z</time></trkpt><trkpt lat="43.0606876" lon="11.4876127"><ele>557.4285714285714</ele><time>2026-05-02T10:56:50.334Z</time></trkpt><trkpt lat="43.0606828" lon="11.4875097"><ele>558.1428571428571</ele><time>2026-05-02T10:56:51.327Z</time></trkpt><trkpt lat="43.0606803" lon="11.4874141"><ele>558.8571428571429</ele><time>2026-05-02T10:56:52.326Z</time></trkpt><trkpt lat="43.0606773" lon="11.4872868"><ele>559.5714285714286</ele><time>2026-05-02T10:56:54.33Z</time></trkpt><trkpt lat="43.0606709" lon="11.4871898"><ele>560.2857142857142</ele><time>2026-05-02T10:56:56.333Z</time></trkpt><trkpt lat="43.0606819" lon="11.4871047"><ele>561.0</ele><time>2026-05-02T10:56:58.33Z</time></trkpt><trkpt lat="43.0606587" lon="11.4871974"><ele>561.0</ele><time>2026-05-02T10:57:21.325Z</time></trkpt><trkpt lat="43.0606642" lon="11.4872892"><ele>561.0</ele><time>2026-05-02T10:57:23.323Z</time></trkpt><trkpt lat="43.0607456" lon="11.4870705"><ele>561.0</ele><time>2026-05-02T10:59:21.619Z</time></trkpt><trkpt lat="43.0569036" lon="11.4890217"><ele>557.0</ele><time>2026-05-02T11:02:21.88Z</time></trkpt><trkpt lat="43.0579267" lon="11.4891304"><ele>557.0</ele><time>2026-05-02T11:03:26.449Z</time></trkpt><trkpt lat="43.0577267" lon="11.4891195"><ele>557.0</ele><time>2026-05-02T11:06:17.695Z</time></trkpt><trkpt lat="43.0570213" lon="11.4895131"><ele>557.0</ele><time>2026-05-02T11:06:23.492Z</time></trkpt><trkpt lat="43.0577209" lon="11.4891362"><ele>557.0</ele><time>2026-05-02T11:06:29.208Z</time></trkpt><trkpt lat="43.0578813" lon="11.4889782"><ele>557.0</ele><time>2026-05-02T11:06:34.665Z</time></trkpt><trkpt lat="43.0577462" lon="11.4891126"><ele>557.0</ele><time>2026-05-02T11:07:11.123Z</time></trkpt><trkpt lat="43.0577832" lon="11.4893116"><ele>557.0</ele><time>2026-05-02T11:07:24.723Z</time></trkpt><trkpt lat="43.0577318" lon="11.4891477"><ele>557.0</ele><time>2026-05-02T11:07:33.933Z</time></trkpt><trkpt lat="43.0568626" lon="11.4896163"><ele>557.0</ele><time>2026-05-02T11:07:39.677Z</time></trkpt><trkpt lat="43.0577097" lon="11.489163"><ele>557.0</ele><time>2026-05-02T11:08:29.977Z</time></trkpt><trkpt lat="43.0577793" lon="11.4891162"><ele>557.0</ele><time>2026-05-02T11:08:38.119Z</time></trkpt><trkpt lat="43.0578965" lon="11.4889503"><ele>557.0</ele><time>2026-05-02T11:08:43.874Z</time></trkpt><trkpt lat="43.0577103" lon="11.4891432"><ele>550.0</ele><time>2026-05-02T11:08:49.719Z</time></trkpt><trkpt lat="43.0572561" lon="11.4893899"><ele>557.0</ele><time>2026-05-02T11:09:09.17Z</time></trkpt><trkpt lat="43.0581685" lon="11.488832"><ele>557.0</ele><time>2026-05-02T11:09:54.208Z</time></trkpt><trkpt lat="43.0576816" lon="11.4891383"><ele>550.0</ele><time>2026-05-02T11:10:14.195Z</time></trkpt><trkpt lat="43.0571924" lon="11.4894461"><ele>553.5</ele><time>2026-05-02T11:12:37.237Z</time></trkpt><trkpt lat="43.0574657" lon="11.4892038"><ele>557.0</ele><time>2026-05-02T11:12:48.497Z</time></trkpt><trkpt lat="43.0576586" lon="11.4891656"><ele>557.0</ele><time>2026-05-02T11:12:53.825Z</time></trkpt><trkpt lat="43.0577382" lon="11.4891042"><ele>557.0</ele><time>2026-05-02T11:14:39.261Z</time></trkpt><trkpt lat="43.0576724" lon="11.4892382"><ele>557.0</ele><time>2026-05-02T11:15:03.083Z</time></trkpt><trkpt lat="43.057481" lon="11.489381"><ele>557.0</ele><time>2026-05-02T11:15:08.554Z</time></trkpt><trkpt lat="43.0574755" lon="11.4892192"><ele>557.0</ele><time>2026-05-02T11:15:40.593Z</time></trkpt><trkpt lat="43.0581574" lon="11.4888922"><ele>557.0</ele><time>2026-05-02T11:15:46.558Z</time></trkpt><trkpt lat="43.0577068" lon="11.4891274"><ele>557.0</ele><time>2026-05-02T11:15:53.595Z</time></trkpt><trkpt lat="43.0576206" lon="11.4893186"><ele>557.0</ele><time>2026-05-02T11:15:59.256Z</time></trkpt><trkpt lat="43.0570639" lon="11.4895728"><ele>557.0</ele><time>2026-05-02T11:16:05.006Z</time></trkpt><trkpt lat="43.057674" lon="11.4891722"><ele>557.0</ele><time>2026-05-02T11:16:11.331Z</time></trkpt><trkpt lat="43.057478" lon="11.4891987"><ele>557.0</ele><time>2026-05-02T11:16:36.32Z</time></trkpt><trkpt lat="43.0574035" lon="11.4893174"><ele>557.0</ele><time>2026-05-02T11:17:21.267Z</time></trkpt><trkpt lat="43.0573188" lon="11.4893354"><ele>557.0</ele><time>2026-05-02T11:17:30.271Z</time></trkpt><trkpt lat="43.057262" lon="11.4893838"><ele>556.7142857142858</ele><time>2026-05-02T11:17:38.278Z</time></trkpt><trkpt lat="43.0572107" lon="11.4894404"><ele>556.4285714285714</ele><time>2026-05-02T11:17:48.27Z</time></trkpt><trkpt lat="43.0571462" lon="11.4894757"><ele>556.1428571428571</ele><time>2026-05-02T11:18:01.246Z</time></trkpt><trkpt lat="43.0570789" lon="11.489512"><ele>555.8571428571429</ele><time>2026-05-02T11:18:10.206Z</time></trkpt><trkpt lat="43.0570113" lon="11.4895444"><ele>555.5714285714286</ele><time>2026-05-02T11:18:19.279Z</time></trkpt><trkpt lat="43.0569437" lon="11.489568"><ele>555.2857142857143</ele><time>2026-05-02T11:18:26.263Z</time></trkpt><trkpt lat="43.0568584" lon="11.4896354"><ele>555.0</ele><time>2026-05-02T11:18:37.607Z</time></trkpt><trkpt lat="43.0567214" lon="11.4896394"><ele>555.0000000000001</ele><time>2026-05-02T11:18:54.252Z</time></trkpt><trkpt lat="43.0566588" lon="11.4896245"><ele>555.0</ele><time>2026-05-02T11:18:57.257Z</time></trkpt><trkpt lat="43.0566017" lon="11.489668"><ele>555.0</ele><time>2026-05-02T11:19:27.24Z</time></trkpt><trkpt lat="43.0565313" lon="11.4896952"><ele>555.0</ele><time>2026-05-02T11:19:37.259Z</time></trkpt><trkpt lat="43.0564652" lon="11.4896856"><ele>555.0</ele><time>2026-05-02T11:19:45.28Z</time></trkpt><trkpt lat="43.0563999" lon="11.489659"><ele>555.0000000000001</ele><time>2026-05-02T11:19:52.26Z</time></trkpt><trkpt lat="43.0563354" lon="11.4896343"><ele>555.0</ele><time>2026-05-02T11:20:01.261Z</time></trkpt><trkpt lat="43.0562715" lon="11.4896245"><ele>550.0</ele><time>2026-05-02T11:20:19.25Z</time></trkpt><trkpt lat="43.0572171" lon="11.4893948"><ele>555.0</ele><time>2026-05-02T11:21:35.979Z</time></trkpt><trkpt lat="43.0566536" lon="11.4896656"><ele>554.0</ele><time>2026-05-02T11:21:43.012Z</time></trkpt><trkpt lat="43.0561475" lon="11.4897812"><ele>554.0</ele><time>2026-05-02T11:21:48.232Z</time></trkpt><trkpt lat="43.0559604" lon="11.4899603"><ele>554.0</ele><time>2026-05-02T11:22:00.407Z</time></trkpt><trkpt lat="43.0557089" lon="11.4899345"><ele>554.0</ele><time>2026-05-02T11:22:13.18Z</time></trkpt><trkpt lat="43.0556405" lon="11.4898637"><ele>554.0</ele><time>2026-05-02T11:22:18.328Z</time></trkpt><trkpt lat="43.0557229" lon="11.4899199"><ele>554.0</ele><time>2026-05-02T11:22:37.501Z</time></trkpt><trkpt lat="43.055888" lon="11.4899936"><ele>554.0</ele><time>2026-05-02T11:22:59.116Z</time></trkpt><trkpt lat="43.056342" lon="11.4897682"><ele>553.0</ele><time>2026-05-02T11:23:04.264Z</time></trkpt><trkpt lat="43.055759" lon="11.4895763"><ele>549.0</ele><time>2026-05-02T11:23:14.84Z</time></trkpt><trkpt lat="43.0552835" lon="11.4896368"><ele>549.0</ele><time>2026-05-02T11:23:30.105Z</time></trkpt><trkpt lat="43.0554549" lon="11.4895827"><ele>549.0</ele><time>2026-05-02T11:23:39.234Z</time></trkpt><trkpt lat="43.0558193" lon="11.4894135"><ele>549.0</ele><time>2026-05-02T11:23:41.115Z</time></trkpt><trkpt lat="43.0558902" lon="11.4893871"><ele>549.0</ele><time>2026-05-02T11:23:42.237Z</time></trkpt><trkpt lat="43.0559769" lon="11.4891908"><ele>549.0</ele><time>2026-05-02T11:23:56.237Z</time></trkpt><trkpt lat="43.0553787" lon="11.4894558"><ele>565.0</ele><time>2026-05-02T11:24:29.228Z</time></trkpt><trkpt lat="43.0544308" lon="11.4882686"><ele>553.0</ele><time>2026-05-02T11:25:07.808Z</time></trkpt><trkpt lat="43.0553238" lon="11.4894028"><ele>554.0</ele><time>2026-05-02T11:26:43.165Z</time></trkpt><trkpt lat="43.0558354" lon="11.4898457"><ele>554.0</ele><time>2026-05-02T11:27:56.694Z</time></trkpt><trkpt lat="43.0557495" lon="11.4898053"><ele>554.0</ele><time>2026-05-02T11:28:00.227Z</time></trkpt><trkpt lat="43.0558198" lon="11.4898103"><ele>554.0</ele><time>2026-05-02T11:29:42.037Z</time></trkpt><trkpt lat="43.0558516" lon="11.4897257"><ele>554.0</ele><time>2026-05-02T11:29:51.041Z</time></trkpt><trkpt lat="43.0558905" lon="11.489656"><ele>554.0</ele><time>2026-05-02T11:30:08.05Z</time></trkpt><trkpt lat="43.0559244" lon="11.4895809"><ele>554.0</ele><time>2026-05-02T11:30:15.057Z</time></trkpt><trkpt lat="43.0559441" lon="11.4894849"><ele>554.0</ele><time>2026-05-02T11:30:24.057Z</time></trkpt><trkpt lat="43.0559803" lon="11.4894049"><ele>549.0</ele><time>2026-05-02T11:30:32.07Z</time></trkpt><trkpt lat="43.0560452" lon="11.4893666"><ele>549.0</ele><time>2026-05-02T11:30:41.053Z</time></trkpt><trkpt lat="43.0560658" lon="11.4894663"><ele>549.0</ele><time>2026-05-02T11:30:45.05Z</time></trkpt></trkseg><trkseg><trkpt lat="43.0577687" lon="11.4891094"><ele>557.0</ele><time>2026-05-02T13:22:45.698Z</time></trkpt><trkpt lat="43.0578341" lon="11.4890754"><ele>557.0</ele><time>2026-05-02T13:23:53.709Z</time></trkpt><trkpt lat="43.0578006" lon="11.4889756"><ele>557.0</ele><time>2026-05-02T13:23:57.702Z</time></trkpt><trkpt lat="43.0577822" lon="11.4888811"><ele>557.0</ele><time>2026-05-02T13:24:27.705Z</time></trkpt><trkpt lat="43.0577062" lon="11.4887985"><ele>557.0</ele><time>2026-05-02T13:24:30.717Z</time></trkpt><trkpt lat="43.0576474" lon="11.4887309"><ele>557.0</ele><time>2026-05-02T13:24:32.709Z</time></trkpt><trkpt lat="43.0576024" lon="11.4886704"><ele>556.1666666666666</ele><time>2026-05-02T13:24:34.71Z</time></trkpt><trkpt lat="43.0575485" lon="11.4885834"><ele>555.3333333333333</ele><time>2026-05-02T13:24:37.713Z</time></trkpt><trkpt lat="43.0575125" lon="11.488505"><ele>554.5</ele><time>2026-05-02T13:24:43.708Z</time></trkpt><trkpt lat="43.0574278" lon="11.4885508"><ele>553.6666666666666</ele><time>2026-05-02T13:24:57.703Z</time></trkpt><trkpt lat="43.0573771" lon="11.4886476"><ele>552.8333333333334</ele><time>2026-05-02T13:25:00.707Z</time></trkpt><trkpt lat="43.0573177" lon="11.4887341"><ele>552.0</ele><time>2026-05-02T13:25:03.711Z</time></trkpt><trkpt lat="43.0572525" lon="11.4888366"><ele>551.7142857142858</ele><time>2026-05-02T13:25:06.708Z</time></trkpt><trkpt lat="43.0571953" lon="11.4889111"><ele>551.4285714285714</ele><time>2026-05-02T13:25:08.704Z</time></trkpt><trkpt lat="43.0571525" lon="11.4889893"><ele>551.1428571428571</ele><time>2026-05-02T13:25:10.704Z</time></trkpt><trkpt lat="43.0571028" lon="11.4890694"><ele>550.8571428571429</ele><time>2026-05-02T13:25:13.712Z</time></trkpt><trkpt lat="43.0570397" lon="11.4890574"><ele>550.5714285714286</ele><time>2026-05-02T13:25:17.707Z</time></trkpt><trkpt lat="43.0570027" lon="11.4889763"><ele>550.2857142857143</ele><time>2026-05-02T13:25:19.711Z</time></trkpt><trkpt lat="43.0569609" lon="11.4888765"><ele>550.0</ele><time>2026-05-02T13:25:21.703Z</time></trkpt><trkpt lat="43.0569174" lon="11.4887522"><ele>549.8</ele><time>2026-05-02T13:25:23.708Z</time></trkpt><trkpt lat="43.0568436" lon="11.4887169"><ele>549.6</ele><time>2026-05-02T13:25:26.707Z</time></trkpt><trkpt lat="43.0567295" lon="11.488753"><ele>549.4</ele><time>2026-05-02T13:25:28.713Z</time></trkpt><trkpt lat="43.0566075" lon="11.4888246"><ele>549.2</ele><time>2026-05-02T13:25:30.7Z</time></trkpt><trkpt lat="43.0565346" lon="11.4888491"><ele>549.0</ele><time>2026-05-02T13:25:31.709Z</time></trkpt><trkpt lat="43.0564552" lon="11.4888793"><ele>549.0</ele><time>2026-05-02T13:25:32.706Z</time></trkpt><trkpt lat="43.0563802" lon="11.4889093"><ele>549.0</ele><time>2026-05-02T13:25:33.717Z</time></trkpt><trkpt lat="43.0563035" lon="11.4889435"><ele>549.0</ele><time>2026-05-02T13:25:34.698Z</time></trkpt><trkpt lat="43.0562223" lon="11.488978"><ele>549.0</ele><time>2026-05-02T13:25:35.707Z</time></trkpt><trkpt lat="43.0561387" lon="11.4890071"><ele>549.0</ele><time>2026-05-02T13:25:36.703Z</time></trkpt><trkpt lat="43.0560439" lon="11.4890197"><ele>549.0</ele><time>2026-05-02T13:25:37.708Z</time></trkpt><trkpt lat="43.0559475" lon="11.4890095"><ele>549.0</ele><time>2026-05-02T13:25:38.706Z</time></trkpt><trkpt lat="43.0558552" lon="11.4889785"><ele>549.0</ele><time>2026-05-02T13:25:39.709Z</time></trkpt><trkpt lat="43.0557671" lon="11.4889474"><ele>549.0</ele><time>2026-05-02T13:25:40.704Z</time></trkpt><trkpt lat="43.0556801" lon="11.4889249"><ele>549.0</ele><time>2026-05-02T13:25:41.706Z</time></trkpt><trkpt lat="43.055597" lon="11.4889232"><ele>549.0</ele><time>2026-05-02T13:25:42.705Z</time></trkpt><trkpt lat="43.05549" lon="11.4889555"><ele>549.6666666666666</ele><time>2026-05-02T13:25:44.702Z</time></trkpt><trkpt lat="43.0554174" lon="11.4889844"><ele>550.3333333333334</ele><time>2026-05-02T13:25:53.715Z</time></trkpt><trkpt lat="43.0553462" lon="11.4889881"><ele>551.0</ele><time>2026-05-02T13:25:56.706Z</time></trkpt><trkpt lat="43.0552825" lon="11.488987"><ele>551.6666666666667</ele><time>2026-05-02T13:26:00.709Z</time></trkpt><trkpt lat="43.0551964" lon="11.4889749"><ele>552.3333333333334</ele><time>2026-05-02T13:26:03.704Z</time></trkpt><trkpt lat="43.0551253" lon="11.4889771"><ele>553.0</ele><time>2026-05-02T13:26:05.715Z</time></trkpt><trkpt lat="43.0550603" lon="11.4890567"><ele>553.0</ele><time>2026-05-02T13:26:07.712Z</time></trkpt><trkpt lat="43.0550819" lon="11.4891491"><ele>553.0</ele><time>2026-05-02T13:26:09.703Z</time></trkpt><trkpt lat="43.055035" lon="11.4892135"><ele>553.0</ele><time>2026-05-02T13:26:11.719Z</time></trkpt><trkpt lat="43.0549566" lon="11.4892131"><ele>553.0</ele><time>2026-05-02T13:26:14.705Z</time></trkpt><trkpt lat="43.054868" lon="11.4892269"><ele>553.0</ele><time>2026-05-02T13:26:23.709Z</time></trkpt><trkpt lat="43.0548047" lon="11.4892245"><ele>553.0</ele><time>2026-05-02T13:26:25.708Z</time></trkpt><trkpt lat="43.0547395" lon="11.4892349"><ele>553.0</ele><time>2026-05-02T13:26:27.71Z</time></trkpt><trkpt lat="43.0546573" lon="11.4892532"><ele>553.3333333333334</ele><time>2026-05-02T13:26:30.708Z</time></trkpt><trkpt lat="43.0545919" lon="11.4892648"><ele>553.6666666666667</ele><time>2026-05-02T13:26:32.699Z</time></trkpt><trkpt lat="43.0545231" lon="11.4892768"><ele>554.0</ele><time>2026-05-02T13:26:34.696Z</time></trkpt><trkpt lat="43.05445" lon="11.4892919"><ele>554.3333333333334</ele><time>2026-05-02T13:26:36.708Z</time></trkpt><trkpt lat="43.0543815" lon="11.4892998"><ele>554.6666666666666</ele><time>2026-05-02T13:26:38.709Z</time></trkpt><trkpt lat="43.0542942" lon="11.4893266"><ele>555.0</ele><time>2026-05-02T13:26:40.705Z</time></trkpt><trkpt lat="43.0542216" lon="11.4893949"><ele>555.0</ele><time>2026-05-02T13:26:42.705Z</time></trkpt><trkpt lat="43.0541637" lon="11.4894978"><ele>555.0</ele><time>2026-05-02T13:26:44.714Z</time></trkpt><trkpt lat="43.0541302" lon="11.4896218"><ele>555.0</ele><time>2026-05-02T13:26:46.706Z</time></trkpt><trkpt lat="43.0541309" lon="11.4897435"><ele>555.0</ele><time>2026-05-02T13:26:48.703Z</time></trkpt><trkpt lat="43.0541571" lon="11.4898657"><ele>555.0</ele><time>2026-05-02T13:26:50.709Z</time></trkpt><trkpt lat="43.0541919" lon="11.4899708"><ele>553.5</ele><time>2026-05-02T13:26:52.703Z</time></trkpt><trkpt lat="43.0542553" lon="11.4900562"><ele>552.0</ele><time>2026-05-02T13:26:54.704Z</time></trkpt><trkpt lat="43.0543" lon="11.4901285"><ele>550.5</ele><time>2026-05-02T13:26:58.7Z</time></trkpt><trkpt lat="43.054357" lon="11.4901662"><ele>549.0</ele><time>2026-05-02T13:28:47.713Z</time></trkpt><trkpt lat="43.0544212" lon="11.4902202"><ele>547.5</ele><time>2026-05-02T13:28:51.705Z</time></trkpt><trkpt lat="43.0544874" lon="11.4902698"><ele>546.0</ele><time>2026-05-02T13:28:56.711Z</time></trkpt><trkpt lat="43.0545624" lon="11.4903476"><ele>544.6666666666666</ele><time>2026-05-02T13:28:59.705Z</time></trkpt><trkpt lat="43.0546406" lon="11.4904378"><ele>543.3333333333334</ele><time>2026-05-02T13:29:01.702Z</time></trkpt><trkpt lat="43.0547085" lon="11.4905322"><ele>542.0</ele><time>2026-05-02T13:29:03.707Z</time></trkpt><trkpt lat="43.0547793" lon="11.490624"><ele>540.6666666666667</ele><time>2026-05-02T13:29:05.696Z</time></trkpt><trkpt lat="43.0548369" lon="11.4906936"><ele>539.3333333333334</ele><time>2026-05-02T13:29:07.698Z</time></trkpt><trkpt lat="43.0548864" lon="11.4907655"><ele>538.0</ele><time>2026-05-02T13:29:09.709Z</time></trkpt><trkpt lat="43.0549434" lon="11.4908405"><ele>537.8333333333334</ele><time>2026-05-02T13:29:11.702Z</time></trkpt><trkpt lat="43.0550225" lon="11.4909717"><ele>537.6666666666667</ele><time>2026-05-02T13:29:13.697Z</time></trkpt><trkpt lat="43.0550735" lon="11.491078"><ele>537.5</ele><time>2026-05-02T13:29:14.708Z</time></trkpt><trkpt lat="43.0551179" lon="11.4911739"><ele>537.3333333333334</ele><time>2026-05-02T13:29:15.7Z</time></trkpt><trkpt lat="43.0551565" lon="11.4912565"><ele>537.1666666666666</ele><time>2026-05-02T13:29:16.711Z</time></trkpt><trkpt lat="43.0551887" lon="11.4913313"><ele>537.0</ele><time>2026-05-02T13:29:17.704Z</time></trkpt><trkpt lat="43.055233" lon="11.4914514"><ele>533.6666666666666</ele><time>2026-05-02T13:29:19.707Z</time></trkpt><trkpt lat="43.0552774" lon="11.4915402"><ele>530.3333333333334</ele><time>2026-05-02T13:29:21.702Z</time></trkpt><trkpt lat="43.0553356" lon="11.4916403"><ele>527.0</ele><time>2026-05-02T13:29:24.703Z</time></trkpt><trkpt lat="43.055399" lon="11.4917298"><ele>523.6666666666667</ele><time>2026-05-02T13:29:27.702Z</time></trkpt><trkpt lat="43.055454" lon="11.4918046"><ele>520.3333333333334</ele><time>2026-05-02T13:29:30.707Z</time></trkpt><trkpt lat="43.0554592" lon="11.4919006"><ele>517.0</ele><time>2026-05-02T13:29:33.705Z</time></trkpt><trkpt lat="43.0553737" lon="11.4918998"><ele>517.0</ele><time>2026-05-02T13:29:36.698Z</time></trkpt><trkpt lat="43.0553335" lon="11.4918286"><ele>517.0</ele><time>2026-05-02T13:29:38.7Z</time></trkpt><trkpt lat="43.0552704" lon="11.4917093"><ele>517.0</ele><time>2026-05-02T13:29:40.704Z</time></trkpt><trkpt lat="43.0552222" lon="11.4916451"><ele>517.0</ele><time>2026-05-02T13:29:41.699Z</time></trkpt><trkpt lat="43.0551776" lon="11.4915817"><ele>517.0</ele><time>2026-05-02T13:29:42.688Z</time></trkpt><trkpt lat="43.055131" lon="11.4915129"><ele>517.0</ele><time>2026-05-02T13:29:43.7Z</time></trkpt><trkpt lat="43.0550696" lon="11.4914235"><ele>517.0</ele><time>2026-05-02T13:29:44.697Z</time></trkpt><trkpt lat="43.0549984" lon="11.4913295"><ele>517.0</ele><time>2026-05-02T13:29:45.705Z</time></trkpt><trkpt lat="43.0549306" lon="11.4912415"><ele>517.0</ele><time>2026-05-02T13:29:46.702Z</time></trkpt><trkpt lat="43.0548681" lon="11.4911648"><ele>517.0</ele><time>2026-05-02T13:29:47.702Z</time></trkpt><trkpt lat="43.0548139" lon="11.4910869"><ele>517.0</ele><time>2026-05-02T13:29:48.71Z</time></trkpt><trkpt lat="43.0547567" lon="11.4910147"><ele>517.0</ele><time>2026-05-02T13:29:49.703Z</time></trkpt><trkpt lat="43.0546963" lon="11.4909606"><ele>520.1666666666667</ele><time>2026-05-02T13:29:50.705Z</time></trkpt><trkpt lat="43.054629" lon="11.4909358"><ele>523.3333333333334</ele><time>2026-05-02T13:29:51.706Z</time></trkpt><trkpt lat="43.0545122" lon="11.4909707"><ele>526.5</ele><time>2026-05-02T13:29:53.711Z</time></trkpt><trkpt lat="43.0544525" lon="11.4910239"><ele>529.6666666666666</ele><time>2026-05-02T13:29:54.708Z</time></trkpt><trkpt lat="43.0543994" lon="11.4911002"><ele>532.8333333333333</ele><time>2026-05-02T13:29:55.702Z</time></trkpt><trkpt lat="43.0543586" lon="11.4911975"><ele>536.0</ele><time>2026-05-02T13:29:56.7Z</time></trkpt><trkpt lat="43.0543446" lon="11.4913133"><ele>536.0</ele><time>2026-05-02T13:29:57.704Z</time></trkpt><trkpt lat="43.0543496" lon="11.4914445"><ele>536.0</ele><time>2026-05-02T13:29:58.714Z</time></trkpt><trkpt lat="43.0543711" lon="11.4915874"><ele>536.0</ele><time>2026-05-02T13:29:59.699Z</time></trkpt><trkpt lat="43.0543923" lon="11.49174"><ele>536.0</ele><time>2026-05-02T13:30:00.707Z</time></trkpt><trkpt lat="43.0544069" lon="11.4918963"><ele>536.0</ele><time>2026-05-02T13:30:01.697Z</time></trkpt><trkpt lat="43.0544203" lon="11.4920471"><ele>533.6</ele><time>2026-05-02T13:30:02.705Z</time></trkpt><trkpt lat="43.0544344" lon="11.4921899"><ele>531.2</ele><time>2026-05-02T13:30:03.704Z</time></trkpt><trkpt lat="43.0544406" lon="11.4923152"><ele>528.8</ele><time>2026-05-02T13:30:04.71Z</time></trkpt><trkpt lat="43.0544384" lon="11.4924388"><ele>526.4</ele><time>2026-05-02T13:30:05.702Z</time></trkpt><trkpt lat="43.0544306" lon="11.492559"><ele>524.0</ele><time>2026-05-02T13:30:06.706Z</time></trkpt><trkpt lat="43.0544181" lon="11.4926792"><ele>524.0</ele><time>2026-05-02T13:30:07.7Z</time></trkpt><trkpt lat="43.0544019" lon="11.4927831"><ele>524.0</ele><time>2026-05-02T13:30:08.706Z</time></trkpt><trkpt lat="43.0543803" lon="11.4928861"><ele>524.0</ele><time>2026-05-02T13:30:09.71Z</time></trkpt><trkpt lat="43.0543358" lon="11.4930382"><ele>524.0</ele><time>2026-05-02T13:30:11.709Z</time></trkpt><trkpt lat="43.054284" lon="11.4931676"><ele>524.0</ele><time>2026-05-02T13:30:13.708Z</time></trkpt><trkpt lat="43.0542078" lon="11.493295"><ele>522.3333333333333</ele><time>2026-05-02T13:30:15.696Z</time></trkpt><trkpt lat="43.0541567" lon="11.4933686"><ele>520.6666666666666</ele><time>2026-05-02T13:30:16.711Z</time></trkpt><trkpt lat="43.0540974" lon="11.4934366"><ele>519.0</ele><time>2026-05-02T13:30:17.702Z</time></trkpt><trkpt lat="43.0540263" lon="11.4934976"><ele>517.3333333333334</ele><time>2026-05-02T13:30:18.715Z</time></trkpt><trkpt lat="43.0539478" lon="11.4935618"><ele>515.6666666666667</ele><time>2026-05-02T13:30:19.717Z</time></trkpt><trkpt lat="43.0538675" lon="11.4936359"><ele>514.0</ele><time>2026-05-02T13:30:20.712Z</time></trkpt><trkpt lat="43.0537847" lon="11.4937252"><ele>512.8</ele><time>2026-05-02T13:30:21.712Z</time></trkpt><trkpt lat="43.0537028" lon="11.4938327"><ele>511.59999999999997</ele><time>2026-05-02T13:30:22.714Z</time></trkpt><trkpt lat="43.0536296" lon="11.4939579"><ele>510.4</ele><time>2026-05-02T13:30:23.707Z</time></trkpt><trkpt lat="43.0535767" lon="11.4940845"><ele>509.2</ele><time>2026-05-02T13:30:24.715Z</time></trkpt><trkpt lat="43.0535339" lon="11.4942168"><ele>508.0</ele><time>2026-05-02T13:30:25.703Z</time></trkpt><trkpt lat="43.053511" lon="11.494357"><ele>508.0</ele><time>2026-05-02T13:30:26.7Z</time></trkpt><trkpt lat="43.0535024" lon="11.4944999"><ele>507.99999999999994</ele><time>2026-05-02T13:30:27.715Z</time></trkpt><trkpt lat="43.0535022" lon="11.4946377"><ele>507.99999999999994</ele><time>2026-05-02T13:30:28.708Z</time></trkpt><trkpt lat="43.0535082" lon="11.4947746"><ele>508.0</ele><time>2026-05-02T13:30:29.705Z</time></trkpt><trkpt lat="43.0535117" lon="11.4948916"><ele>508.0</ele><time>2026-05-02T13:30:30.713Z</time></trkpt><trkpt lat="43.0535187" lon="11.4950079"><ele>507.4</ele><time>2026-05-02T13:30:31.714Z</time></trkpt><trkpt lat="43.0535274" lon="11.4951341"><ele>506.79999999999995</ele><time>2026-05-02T13:30:32.724Z</time></trkpt><trkpt lat="43.0535385" lon="11.4952573"><ele>506.2</ele><time>2026-05-02T13:30:33.698Z</time></trkpt><trkpt lat="43.0535471" lon="11.495384"><ele>505.6</ele><time>2026-05-02T13:30:34.706Z</time></trkpt><trkpt lat="43.0535486" lon="11.495514"><ele>505.0</ele><time>2026-05-02T13:30:35.706Z</time></trkpt><trkpt lat="43.0535515" lon="11.4956506"><ele>504.8</ele><time>2026-05-02T13:30:36.701Z</time></trkpt><trkpt lat="43.0535509" lon="11.4957899"><ele>504.6</ele><time>2026-05-02T13:30:37.719Z</time></trkpt><trkpt lat="43.0535507" lon="11.4959208"><ele>504.4</ele><time>2026-05-02T13:30:38.712Z</time></trkpt><trkpt lat="43.0535363" lon="11.4960504"><ele>504.2</ele><time>2026-05-02T13:30:39.72Z</time></trkpt><trkpt lat="43.0535154" lon="11.4962018"><ele>504.0</ele><time>2026-05-02T13:30:40.712Z</time></trkpt><trkpt lat="43.0534956" lon="11.4963633"><ele>502.75</ele><time>2026-05-02T13:30:41.696Z</time></trkpt><trkpt lat="43.0534744" lon="11.4965344"><ele>501.5</ele><time>2026-05-02T13:30:42.706Z</time></trkpt><trkpt lat="43.0534529" lon="11.4967176"><ele>500.25</ele><time>2026-05-02T13:30:43.711Z</time></trkpt><trkpt lat="43.0534329" lon="11.4969003"><ele>499.0</ele><time>2026-05-02T13:30:44.711Z</time></trkpt><trkpt lat="43.053399" lon="11.4970884"><ele>498.25</ele><time>2026-05-02T13:30:45.706Z</time></trkpt><trkpt lat="43.053352" lon="11.4972641"><ele>497.5</ele><time>2026-05-02T13:30:46.728Z</time></trkpt><trkpt lat="43.0532988" lon="11.4974315"><ele>496.75</ele><time>2026-05-02T13:30:47.701Z</time></trkpt><trkpt lat="43.0532326" lon="11.4975913"><ele>496.0</ele><time>2026-05-02T13:30:48.706Z</time></trkpt><trkpt lat="43.0531677" lon="11.4977503"><ele>497.0</ele><time>2026-05-02T13:30:49.704Z</time></trkpt><trkpt lat="43.053097" lon="11.4979043"><ele>498.0</ele><time>2026-05-02T13:30:50.705Z</time></trkpt><trkpt lat="43.0530228" lon="11.4980572"><ele>499.0</ele><time>2026-05-02T13:30:51.696Z</time></trkpt><trkpt lat="43.0529533" lon="11.498217"><ele>500.0</ele><time>2026-05-02T13:30:52.713Z</time></trkpt><trkpt lat="43.0528891" lon="11.4983682"><ele>500.0</ele><time>2026-05-02T13:30:53.719Z</time></trkpt><trkpt lat="43.052832" lon="11.4985036"><ele>500.0</ele><time>2026-05-02T13:30:54.707Z</time></trkpt><trkpt lat="43.0527758" lon="11.4986299"><ele>500.0</ele><time>2026-05-02T13:30:55.719Z</time></trkpt><trkpt lat="43.0527226" lon="11.4987597"><ele>500.0</ele><time>2026-05-02T13:30:56.71Z</time></trkpt><trkpt lat="43.0526706" lon="11.4988878"><ele>500.0</ele><time>2026-05-02T13:30:57.72Z</time></trkpt><trkpt lat="43.0526154" lon="11.4990192"><ele>498.25</ele><time>2026-05-02T13:30:58.703Z</time></trkpt><trkpt lat="43.0525614" lon="11.4991482"><ele>496.5</ele><time>2026-05-02T13:30:59.701Z</time></trkpt><trkpt lat="43.0525054" lon="11.4992853"><ele>494.75</ele><time>2026-05-02T13:31:00.706Z</time></trkpt><trkpt lat="43.0524453" lon="11.499425"><ele>493.0</ele><time>2026-05-02T13:31:01.714Z</time></trkpt><trkpt lat="43.0523807" lon="11.4995676"><ele>489.5</ele><time>2026-05-02T13:31:02.716Z</time></trkpt><trkpt lat="43.0523164" lon="11.4997291"><ele>486.0</ele><time>2026-05-02T13:31:03.701Z</time></trkpt><trkpt lat="43.0522477" lon="11.4999047"><ele>482.5</ele><time>2026-05-02T13:31:04.713Z</time></trkpt><trkpt lat="43.0521758" lon="11.5000788"><ele>479.0</ele><time>2026-05-02T13:31:05.712Z</time></trkpt><trkpt lat="43.0521092" lon="11.5002515"><ele>479.0</ele><time>2026-05-02T13:31:06.703Z</time></trkpt><trkpt lat="43.0520488" lon="11.500414"><ele>479.0</ele><time>2026-05-02T13:31:07.704Z</time></trkpt><trkpt lat="43.0519963" lon="11.5005765"><ele>479.0</ele><time>2026-05-02T13:31:08.703Z</time></trkpt><trkpt lat="43.0519595" lon="11.500743"><ele>479.0</ele><time>2026-05-02T13:31:09.713Z</time></trkpt><trkpt lat="43.0519343" lon="11.5009183"><ele>477.75</ele><time>2026-05-02T13:31:10.705Z</time></trkpt><trkpt lat="43.051922" lon="11.5011035"><ele>476.5</ele><time>2026-05-02T13:31:11.712Z</time></trkpt><trkpt lat="43.051922" lon="11.5012961"><ele>475.25</ele><time>2026-05-02T13:31:12.71Z</time></trkpt><trkpt lat="43.0519284" lon="11.5014961"><ele>474.0</ele><time>2026-05-02T13:31:13.699Z</time></trkpt><trkpt lat="43.0519408" lon="11.501679"><ele>472.75</ele><time>2026-05-02T13:31:14.704Z</time></trkpt><trkpt lat="43.051944" lon="11.5018495"><ele>471.5</ele><time>2026-05-02T13:31:15.703Z</time></trkpt><trkpt lat="43.0519363" lon="11.5020129"><ele>470.25</ele><time>2026-05-02T13:31:16.708Z</time></trkpt><trkpt lat="43.051917" lon="11.5021636"><ele>469.0</ele><time>2026-05-02T13:31:17.708Z</time></trkpt><trkpt lat="43.051891" lon="11.502304"><ele>468.4</ele><time>2026-05-02T13:31:18.718Z</time></trkpt><trkpt lat="43.0518591" lon="11.5024321"><ele>467.79999999999995</ele><time>2026-05-02T13:31:19.71Z</time></trkpt><trkpt lat="43.0518189" lon="11.502555"><ele>467.20000000000005</ele><time>2026-05-02T13:31:20.695Z</time></trkpt><trkpt lat="43.051786" lon="11.5026765"><ele>466.6</ele><time>2026-05-02T13:31:21.707Z</time></trkpt><trkpt lat="43.0517598" lon="11.5028103"><ele>466.0</ele><time>2026-05-02T13:31:22.7Z</time></trkpt><trkpt lat="43.0517486" lon="11.5029458"><ele>465.6</ele><time>2026-05-02T13:31:23.698Z</time></trkpt><trkpt lat="43.0517523" lon="11.5030868"><ele>465.20000000000005</ele><time>2026-05-02T13:31:24.7Z</time></trkpt><trkpt lat="43.051775" lon="11.5032332"><ele>464.79999999999995</ele><time>2026-05-02T13:31:25.721Z</time></trkpt><trkpt lat="43.0518127" lon="11.5033769"><ele>464.4</ele><time>2026-05-02T13:31:26.701Z</time></trkpt><trkpt lat="43.0518597" lon="11.5035177"><ele>464.0</ele><time>2026-05-02T13:31:27.707Z</time></trkpt><trkpt lat="43.0519205" lon="11.5036635"><ele>462.4</ele><time>2026-05-02T13:31:28.721Z</time></trkpt><trkpt lat="43.0519804" lon="11.5038096"><ele>460.79999999999995</ele><time>2026-05-02T13:31:29.712Z</time></trkpt><trkpt lat="43.0520369" lon="11.5039383"><ele>459.20000000000005</ele><time>2026-05-02T13:31:30.707Z</time></trkpt><trkpt lat="43.0520886" lon="11.5040394"><ele>457.6</ele><time>2026-05-02T13:31:31.702Z</time></trkpt><trkpt lat="43.052132" lon="11.5041415"><ele>456.0</ele><time>2026-05-02T13:31:32.708Z</time></trkpt><trkpt lat="43.0521696" lon="11.5042358"><ele>456.0</ele><time>2026-05-02T13:31:33.708Z</time></trkpt><trkpt lat="43.0522091" lon="11.5043302"><ele>456.0</ele><time>2026-05-02T13:31:34.713Z</time></trkpt><trkpt lat="43.0522387" lon="11.5044233"><ele>456.0</ele><time>2026-05-02T13:31:35.706Z</time></trkpt><trkpt lat="43.0522656" lon="11.5045157"><ele>456.0</ele><time>2026-05-02T13:31:36.708Z</time></trkpt><trkpt lat="43.0522907" lon="11.5046158"><ele>456.0</ele><time>2026-05-02T13:31:37.703Z</time></trkpt><trkpt lat="43.0523012" lon="11.5047215"><ele>456.0</ele><time>2026-05-02T13:31:38.703Z</time></trkpt><trkpt lat="43.0523091" lon="11.5048196"><ele>456.5</ele><time>2026-05-02T13:31:39.708Z</time></trkpt><trkpt lat="43.0523057" lon="11.5049673"><ele>457.0</ele><time>2026-05-02T13:31:41.706Z</time></trkpt><trkpt lat="43.0523779" lon="11.5050571"><ele>457.5</ele><time>2026-05-02T13:31:43.713Z</time></trkpt><trkpt lat="43.0525178" lon="11.5050279"><ele>458.0</ele><time>2026-05-02T13:31:45.702Z</time></trkpt><trkpt lat="43.0526231" lon="11.5050275"><ele>458.0</ele><time>2026-05-02T13:31:46.71Z</time></trkpt><trkpt lat="43.0527282" lon="11.5050503"><ele>457.99999999999994</ele><time>2026-05-02T13:31:47.709Z</time></trkpt><trkpt lat="43.0528253" lon="11.505101"><ele>457.99999999999994</ele><time>2026-05-02T13:31:48.708Z</time></trkpt><trkpt lat="43.0529248" lon="11.5051779"><ele>458.0</ele><time>2026-05-02T13:31:49.703Z</time></trkpt><trkpt lat="43.053025" lon="11.5052638"><ele>458.0</ele><time>2026-05-02T13:31:50.698Z</time></trkpt><trkpt lat="43.0531085" lon="11.5053661"><ele>457.59999999999997</ele><time>2026-05-02T13:31:51.705Z</time></trkpt><trkpt lat="43.053176" lon="11.5054808"><ele>457.19999999999993</ele><time>2026-05-02T13:31:52.706Z</time></trkpt><trkpt lat="43.0532255" lon="11.5056096"><ele>456.8</ele><time>2026-05-02T13:31:53.719Z</time></trkpt><trkpt lat="43.0532561" lon="11.5057501"><ele>456.4</ele><time>2026-05-02T13:31:54.712Z</time></trkpt><trkpt lat="43.0532628" lon="11.5058894"><ele>456.0</ele><time>2026-05-02T13:31:55.708Z</time></trkpt><trkpt lat="43.0532533" lon="11.5060194"><ele>456.0</ele><time>2026-05-02T13:31:56.716Z</time></trkpt><trkpt lat="43.0532375" lon="11.5061528"><ele>456.0</ele><time>2026-05-02T13:31:57.707Z</time></trkpt><trkpt lat="43.0532195" lon="11.5062821"><ele>456.0</ele><time>2026-05-02T13:31:58.704Z</time></trkpt><trkpt lat="43.0532041" lon="11.5064124"><ele>456.0</ele><time>2026-05-02T13:31:59.717Z</time></trkpt><trkpt lat="43.0531857" lon="11.5065524"><ele>456.0</ele><time>2026-05-02T13:32:00.708Z</time></trkpt><trkpt lat="43.0531669" lon="11.5066983"><ele>455.25</ele><time>2026-05-02T13:32:01.706Z</time></trkpt><trkpt lat="43.0531499" lon="11.5068446"><ele>454.5</ele><time>2026-05-02T13:32:02.706Z</time></trkpt><trkpt lat="43.0531311" lon="11.5069943"><ele>453.75</ele><time>2026-05-02T13:32:03.704Z</time></trkpt><trkpt lat="43.0531116" lon="11.5071505"><ele>453.0</ele><time>2026-05-02T13:32:04.712Z</time></trkpt><trkpt lat="43.0530931" lon="11.5073107"><ele>451.0</ele><time>2026-05-02T13:32:05.716Z</time></trkpt><trkpt lat="43.053075" lon="11.507481"><ele>449.0</ele><time>2026-05-02T13:32:06.73Z</time></trkpt><trkpt lat="43.053055" lon="11.5076539"><ele>447.0</ele><time>2026-05-02T13:32:07.713Z</time></trkpt><trkpt lat="43.0530343" lon="11.5078345"><ele>445.0</ele><time>2026-05-02T13:32:08.711Z</time></trkpt><trkpt lat="43.0530137" lon="11.5080185"><ele>442.75</ele><time>2026-05-02T13:32:09.719Z</time></trkpt><trkpt lat="43.0529955" lon="11.5081995"><ele>440.5</ele><time>2026-05-02T13:32:10.725Z</time></trkpt><trkpt lat="43.0529867" lon="11.5083932"><ele>438.25</ele><time>2026-05-02T13:32:11.707Z</time></trkpt><trkpt lat="43.0529864" lon="11.508595"><ele>436.0</ele><time>2026-05-02T13:32:12.704Z</time></trkpt><trkpt lat="43.0530018" lon="11.5088033"><ele>433.33333333333337</ele><time>2026-05-02T13:32:13.708Z</time></trkpt><trkpt lat="43.0530278" lon="11.509023"><ele>430.66666666666663</ele><time>2026-05-02T13:32:14.708Z</time></trkpt><trkpt lat="43.0530722" lon="11.5092517"><ele>428.0</ele><time>2026-05-02T13:32:15.698Z</time></trkpt><trkpt lat="43.0531234" lon="11.5094818"><ele>427.0</ele><time>2026-05-02T13:32:16.711Z</time></trkpt><trkpt lat="43.0531807" lon="11.509703"><ele>426.0</ele><time>2026-05-02T13:32:17.714Z</time></trkpt><trkpt lat="43.0532488" lon="11.5099019"><ele>425.0</ele><time>2026-05-02T13:32:18.71Z</time></trkpt><trkpt lat="43.0533363" lon="11.5100759"><ele>425.0</ele><time>2026-05-02T13:32:19.703Z</time></trkpt><trkpt lat="43.0534387" lon="11.5102274"><ele>425.0</ele><time>2026-05-02T13:32:20.713Z</time></trkpt><trkpt lat="43.0535632" lon="11.5103515"><ele>425.0</ele><time>2026-05-02T13:32:21.717Z</time></trkpt><trkpt lat="43.0536898" lon="11.5104607"><ele>423.25</ele><time>2026-05-02T13:32:22.703Z</time></trkpt><trkpt lat="43.0538121" lon="11.5105448"><ele>421.5</ele><time>2026-05-02T13:32:23.705Z</time></trkpt><trkpt lat="43.0539434" lon="11.5105928"><ele>419.75</ele><time>2026-05-02T13:32:24.712Z</time></trkpt><trkpt lat="43.0540732" lon="11.5106398"><ele>418.0</ele><time>2026-05-02T13:32:25.718Z</time></trkpt><trkpt lat="43.0542118" lon="11.5106479"><ele>417.33333333333337</ele><time>2026-05-02T13:32:26.701Z</time></trkpt><trkpt lat="43.0543669" lon="11.5106115"><ele>416.66666666666663</ele><time>2026-05-02T13:32:27.719Z</time></trkpt><trkpt lat="43.0545304" lon="11.5104979"><ele>416.0</ele><time>2026-05-02T13:32:28.702Z</time></trkpt><trkpt lat="43.0546789" lon="11.5103576"><ele>413.66666666666663</ele><time>2026-05-02T13:32:29.714Z</time></trkpt><trkpt lat="43.0548062" lon="11.5101906"><ele>411.33333333333337</ele><time>2026-05-02T13:32:30.706Z</time></trkpt><trkpt lat="43.0549177" lon="11.5100115"><ele>409.0</ele><time>2026-05-02T13:32:31.704Z</time></trkpt><trkpt lat="43.0550016" lon="11.5098254"><ele>409.0</ele><time>2026-05-02T13:32:32.711Z</time></trkpt><trkpt lat="43.055069" lon="11.509643"><ele>409.0</ele><time>2026-05-02T13:32:33.702Z</time></trkpt><trkpt lat="43.0551274" lon="11.5094552"><ele>409.0</ele><time>2026-05-02T13:32:34.717Z</time></trkpt><trkpt lat="43.0551966" lon="11.5092665"><ele>410.6666666666667</ele><time>2026-05-02T13:32:35.715Z</time></trkpt><trkpt lat="43.0552832" lon="11.5090919"><ele>412.33333333333337</ele><time>2026-05-02T13:32:36.704Z</time></trkpt><trkpt lat="43.0553905" lon="11.5089276"><ele>414.0</ele><time>2026-05-02T13:32:37.696Z</time></trkpt><trkpt lat="43.055514" lon="11.5087715"><ele>414.25</ele><time>2026-05-02T13:32:38.712Z</time></trkpt><trkpt lat="43.0556307" lon="11.5086267"><ele>414.5</ele><time>2026-05-02T13:32:39.708Z</time></trkpt><trkpt lat="43.0557399" lon="11.5084859"><ele>414.75</ele><time>2026-05-02T13:32:40.708Z</time></trkpt><trkpt lat="43.0558292" lon="11.5083583"><ele>415.0</ele><time>2026-05-02T13:32:41.702Z</time></trkpt><trkpt lat="43.0558989" lon="11.5082078"><ele>410.75</ele><time>2026-05-02T13:32:42.71Z</time></trkpt><trkpt lat="43.0559305" lon="11.5080486"><ele>406.5</ele><time>2026-05-02T13:32:43.7Z</time></trkpt><trkpt lat="43.055952" lon="11.5078674"><ele>402.25</ele><time>2026-05-02T13:32:44.715Z</time></trkpt><trkpt lat="43.0559511" lon="11.5076715"><ele>398.0</ele><time>2026-05-02T13:32:45.704Z</time></trkpt><trkpt lat="43.0559503" lon="11.507474"><ele>397.5</ele><time>2026-05-02T13:32:46.706Z</time></trkpt><trkpt lat="43.0559312" lon="11.5072808"><ele>397.0</ele><time>2026-05-02T13:32:47.703Z</time></trkpt><trkpt lat="43.0558861" lon="11.5070979"><ele>396.5</ele><time>2026-05-02T13:32:48.706Z</time></trkpt><trkpt lat="43.0558222" lon="11.5069373"><ele>396.0</ele><time>2026-05-02T13:32:49.699Z</time></trkpt><trkpt lat="43.0557262" lon="11.5067965"><ele>397.5</ele><time>2026-05-02T13:32:50.707Z</time></trkpt><trkpt lat="43.0556281" lon="11.5066483"><ele>399.0</ele><time>2026-05-02T13:32:51.712Z</time></trkpt><trkpt lat="43.055547" lon="11.5064924"><ele>400.5</ele><time>2026-05-02T13:32:52.704Z</time></trkpt><trkpt lat="43.0554996" lon="11.5063089"><ele>402.0</ele><time>2026-05-02T13:32:53.706Z</time></trkpt><trkpt lat="43.055498" lon="11.5061004"><ele>402.66666666666663</ele><time>2026-05-02T13:32:54.697Z</time></trkpt><trkpt lat="43.0555239" lon="11.505898"><ele>403.3333333333333</ele><time>2026-05-02T13:32:55.697Z</time></trkpt><trkpt lat="43.0555769" lon="11.5056925"><ele>404.0</ele><time>2026-05-02T13:32:56.719Z</time></trkpt><trkpt lat="43.0556448" lon="11.5054821"><ele>403.3333333333333</ele><time>2026-05-02T13:32:57.71Z</time></trkpt><trkpt lat="43.0557186" lon="11.5052781"><ele>402.66666666666663</ele><time>2026-05-02T13:32:58.714Z</time></trkpt><trkpt lat="43.0557901" lon="11.5050794"><ele>402.0</ele><time>2026-05-02T13:32:59.709Z</time></trkpt><trkpt lat="43.0558665" lon="11.5048877"><ele>398.0</ele><time>2026-05-02T13:33:00.701Z</time></trkpt><trkpt lat="43.0559537" lon="11.5047"><ele>394.0</ele><time>2026-05-02T13:33:01.692Z</time></trkpt><trkpt lat="43.0560466" lon="11.5045188"><ele>390.0</ele><time>2026-05-02T13:33:02.698Z</time></trkpt><trkpt lat="43.0561368" lon="11.5043463"><ele>390.0</ele><time>2026-05-02T13:33:03.705Z</time></trkpt><trkpt lat="43.0562388" lon="11.5041879"><ele>390.0</ele><time>2026-05-02T13:33:04.7Z</time></trkpt><trkpt lat="43.0563597" lon="11.5040458"><ele>390.0</ele><time>2026-05-02T13:33:05.711Z</time></trkpt><trkpt lat="43.0564968" lon="11.5039332"><ele>388.0</ele><time>2026-05-02T13:33:06.707Z</time></trkpt><trkpt lat="43.0566409" lon="11.5038407"><ele>386.0</ele><time>2026-05-02T13:33:07.707Z</time></trkpt><trkpt lat="43.0567837" lon="11.5037528"><ele>384.0</ele><time>2026-05-02T13:33:08.701Z</time></trkpt><trkpt lat="43.0569228" lon="11.5036638"><ele>384.0</ele><time>2026-05-02T13:33:09.706Z</time></trkpt><trkpt lat="43.0570713" lon="11.5035848"><ele>384.0</ele><time>2026-05-02T13:33:10.707Z</time></trkpt><trkpt lat="43.0572223" lon="11.5035216"><ele>384.0</ele><time>2026-05-02T13:33:11.707Z</time></trkpt><trkpt lat="43.0573684" lon="11.5034737"><ele>381.0</ele><time>2026-05-02T13:33:12.709Z</time></trkpt><trkpt lat="43.0575035" lon="11.5034214"><ele>378.0</ele><time>2026-05-02T13:33:13.701Z</time></trkpt><trkpt lat="43.0576196" lon="11.5033342"><ele>375.0</ele><time>2026-05-02T13:33:14.705Z</time></trkpt><trkpt lat="43.0577064" lon="11.5032069"><ele>372.0</ele><time>2026-05-02T13:33:15.706Z</time></trkpt><trkpt lat="43.057765" lon="11.5030452"><ele>372.75</ele><time>2026-05-02T13:33:16.704Z</time></trkpt><trkpt lat="43.0577806" lon="11.5028742"><ele>373.5</ele><time>2026-05-02T13:33:17.695Z</time></trkpt><trkpt lat="43.0577765" lon="11.5027066"><ele>374.25</ele><time>2026-05-02T13:33:18.706Z</time></trkpt><trkpt lat="43.0577796" lon="11.5025572"><ele>375.0</ele><time>2026-05-02T13:33:19.696Z</time></trkpt><trkpt lat="43.0578055" lon="11.5024131"><ele>375.0</ele><time>2026-05-02T13:33:20.704Z</time></trkpt><trkpt lat="43.0578614" lon="11.5022861"><ele>375.0</ele><time>2026-05-02T13:33:21.704Z</time></trkpt><trkpt lat="43.0579388" lon="11.5021868"><ele>375.0</ele><time>2026-05-02T13:33:22.702Z</time></trkpt><trkpt lat="43.0580348" lon="11.5020975"><ele>375.0</ele><time>2026-05-02T13:33:23.709Z</time></trkpt><trkpt lat="43.0581565" lon="11.5020502"><ele>374.5</ele><time>2026-05-02T13:33:24.709Z</time></trkpt><trkpt lat="43.0582694" lon="11.5020308"><ele>374.0</ele><time>2026-05-02T13:33:25.703Z</time></trkpt><trkpt lat="43.0583792" lon="11.502045"><ele>373.5</ele><time>2026-05-02T13:33:26.708Z</time></trkpt><trkpt lat="43.0584899" lon="11.5020738"><ele>373.0</ele><time>2026-05-02T13:33:27.702Z</time></trkpt><trkpt lat="43.0586005" lon="11.5021426"><ele>370.0</ele><time>2026-05-02T13:33:28.712Z</time></trkpt><trkpt lat="43.0587053" lon="11.5022692"><ele>367.0</ele><time>2026-05-02T13:33:29.701Z</time></trkpt><trkpt lat="43.0588169" lon="11.5024017"><ele>364.0</ele><time>2026-05-02T13:33:30.707Z</time></trkpt><trkpt lat="43.0589289" lon="11.5025476"><ele>361.0</ele><time>2026-05-02T13:33:31.7Z</time></trkpt><trkpt lat="43.0590418" lon="11.5026865"><ele>361.25</ele><time>2026-05-02T13:33:32.707Z</time></trkpt><trkpt lat="43.0591518" lon="11.5028053"><ele>361.5</ele><time>2026-05-02T13:33:33.703Z</time></trkpt><trkpt lat="43.0592735" lon="11.5029054"><ele>361.75</ele><time>2026-05-02T13:33:34.696Z</time></trkpt><trkpt lat="43.0594082" lon="11.5029639"><ele>362.0</ele><time>2026-05-02T13:33:35.706Z</time></trkpt><trkpt lat="43.059558" lon="11.5030046"><ele>357.0</ele><time>2026-05-02T13:33:36.708Z</time></trkpt><trkpt lat="43.0597112" lon="11.5030346"><ele>352.0</ele><time>2026-05-02T13:33:37.701Z</time></trkpt><trkpt lat="43.0598558" lon="11.5030516"><ele>347.0</ele><time>2026-05-02T13:33:38.708Z</time></trkpt><trkpt lat="43.0599888" lon="11.5030576"><ele>342.0</ele><time>2026-05-02T13:33:39.704Z</time></trkpt><trkpt lat="43.0601211" lon="11.5030575"><ele>341.0</ele><time>2026-05-02T13:33:40.701Z</time></trkpt><trkpt lat="43.0602409" lon="11.503018"><ele>340.0</ele><time>2026-05-02T13:33:41.706Z</time></trkpt><trkpt lat="43.0603615" lon="11.5029322"><ele>339.0</ele><time>2026-05-02T13:33:42.708Z</time></trkpt><trkpt lat="43.0604694" lon="11.5028138"><ele>338.0</ele><time>2026-05-02T13:33:43.698Z</time></trkpt><trkpt lat="43.0605638" lon="11.5026817"><ele>339.0</ele><time>2026-05-02T13:33:44.704Z</time></trkpt><trkpt lat="43.060641" lon="11.5025384"><ele>340.0</ele><time>2026-05-02T13:33:45.711Z</time></trkpt><trkpt lat="43.060719" lon="11.5023989"><ele>341.0</ele><time>2026-05-02T13:33:46.721Z</time></trkpt><trkpt lat="43.0608178" lon="11.5022756"><ele>342.0</ele><time>2026-05-02T13:33:47.713Z</time></trkpt><trkpt lat="43.0609368" lon="11.502181"><ele>342.0</ele><time>2026-05-02T13:33:48.697Z</time></trkpt><trkpt lat="43.0610662" lon="11.5021237"><ele>342.0</ele><time>2026-05-02T13:33:49.704Z</time></trkpt><trkpt lat="43.0612112" lon="11.5020979"><ele>342.0</ele><time>2026-05-02T13:33:50.703Z</time></trkpt><trkpt lat="43.0613645" lon="11.5020677"><ele>342.0</ele><time>2026-05-02T13:33:51.701Z</time></trkpt><trkpt lat="43.0615154" lon="11.5020146"><ele>342.0</ele><time>2026-05-02T13:33:52.715Z</time></trkpt><trkpt lat="43.0616685" lon="11.5019172"><ele>342.0</ele><time>2026-05-02T13:33:53.712Z</time></trkpt><trkpt lat="43.0618061" lon="11.5018054"><ele>342.0</ele><time>2026-05-02T13:33:54.711Z</time></trkpt><trkpt lat="43.0619449" lon="11.5016783"><ele>342.0</ele><time>2026-05-02T13:33:55.701Z</time></trkpt><trkpt lat="43.0620837" lon="11.5015489"><ele>342.0</ele><time>2026-05-02T13:33:56.706Z</time></trkpt><trkpt lat="43.0622272" lon="11.5014154"><ele>342.0</ele><time>2026-05-02T13:33:57.707Z</time></trkpt><trkpt lat="43.0623697" lon="11.5012795"><ele>340.3333333333333</ele><time>2026-05-02T13:33:58.707Z</time></trkpt><trkpt lat="43.0625111" lon="11.5011681"><ele>338.66666666666663</ele><time>2026-05-02T13:33:59.715Z</time></trkpt><trkpt lat="43.0626511" lon="11.5010747"><ele>337.0</ele><time>2026-05-02T13:34:00.698Z</time></trkpt><trkpt lat="43.0627981" lon="11.501015"><ele>337.0</ele><time>2026-05-02T13:34:01.706Z</time></trkpt><trkpt lat="43.0629422" lon="11.5010043"><ele>337.0</ele><time>2026-05-02T13:34:02.7Z</time></trkpt><trkpt lat="43.0630971" lon="11.5010238"><ele>337.0</ele><time>2026-05-02T13:34:03.702Z</time></trkpt><trkpt lat="43.0632503" lon="11.5010834"><ele>335.0</ele><time>2026-05-02T13:34:04.716Z</time></trkpt><trkpt lat="43.0634063" lon="11.5011662"><ele>333.0</ele><time>2026-05-02T13:34:05.709Z</time></trkpt><trkpt lat="43.06356" lon="11.5012505"><ele>331.0</ele><time>2026-05-02T13:34:06.719Z</time></trkpt><trkpt lat="43.0637213" lon="11.5013386"><ele>328.3333333333333</ele><time>2026-05-02T13:34:07.714Z</time></trkpt><trkpt lat="43.0638865" lon="11.5014268"><ele>325.6666666666667</ele><time>2026-05-02T13:34:08.704Z</time></trkpt><trkpt lat="43.0640561" lon="11.5015193"><ele>323.0</ele><time>2026-05-02T13:34:09.699Z</time></trkpt><trkpt lat="43.0642154" lon="11.5015991"><ele>322.75</ele><time>2026-05-02T13:34:10.702Z</time></trkpt><trkpt lat="43.0643676" lon="11.5016712"><ele>322.5</ele><time>2026-05-02T13:34:11.706Z</time></trkpt><trkpt lat="43.0645063" lon="11.5017214"><ele>322.25</ele><time>2026-05-02T13:34:12.711Z</time></trkpt><trkpt lat="43.0646389" lon="11.5017436"><ele>322.0</ele><time>2026-05-02T13:34:13.711Z</time></trkpt><trkpt lat="43.0647607" lon="11.5017403"><ele>322.0</ele><time>2026-05-02T13:34:14.705Z</time></trkpt><trkpt lat="43.0648745" lon="11.5017139"><ele>322.0</ele><time>2026-05-02T13:34:15.703Z</time></trkpt><trkpt lat="43.064986" lon="11.5016656"><ele>322.0</ele><time>2026-05-02T13:34:16.704Z</time></trkpt><trkpt lat="43.0651" lon="11.5015906"><ele>322.0</ele><time>2026-05-02T13:34:17.719Z</time></trkpt><trkpt lat="43.0652098" lon="11.5014728"><ele>321.75</ele><time>2026-05-02T13:34:18.707Z</time></trkpt><trkpt lat="43.0653041" lon="11.5013418"><ele>321.5</ele><time>2026-05-02T13:34:19.71Z</time></trkpt><trkpt lat="43.0653875" lon="11.501195"><ele>321.25</ele><time>2026-05-02T13:34:20.704Z</time></trkpt><trkpt lat="43.0654674" lon="11.5010413"><ele>321.0</ele><time>2026-05-02T13:34:21.708Z</time></trkpt><trkpt lat="43.0655424" lon="11.5008834"><ele>321.0</ele><time>2026-05-02T13:34:22.705Z</time></trkpt><trkpt lat="43.0656163" lon="11.5007244"><ele>321.0</ele><time>2026-05-02T13:34:23.714Z</time></trkpt><trkpt lat="43.065694" lon="11.5005637"><ele>321.0</ele><time>2026-05-02T13:34:24.715Z</time></trkpt><trkpt lat="43.065782" lon="11.5004137"><ele>321.0</ele><time>2026-05-02T13:34:25.709Z</time></trkpt><trkpt lat="43.0659001" lon="11.5002928"><ele>318.6666666666667</ele><time>2026-05-02T13:34:26.706Z</time></trkpt><trkpt lat="43.0660483" lon="11.5001941"><ele>316.33333333333337</ele><time>2026-05-02T13:34:27.71Z</time></trkpt><trkpt lat="43.0662209" lon="11.5001174"><ele>314.0</ele><time>2026-05-02T13:34:28.709Z</time></trkpt><trkpt lat="43.0664063" lon="11.5000545"><ele>314.0</ele><time>2026-05-02T13:34:29.71Z</time></trkpt><trkpt lat="43.0665765" lon="11.4999965"><ele>314.0</ele><time>2026-05-02T13:34:30.702Z</time></trkpt><trkpt lat="43.066731" lon="11.4999229"><ele>314.0</ele><time>2026-05-02T13:34:31.714Z</time></trkpt><trkpt lat="43.0668813" lon="11.4998391"><ele>313.6666666666667</ele><time>2026-05-02T13:34:32.72Z</time></trkpt><trkpt lat="43.0670275" lon="11.4997435"><ele>313.3333333333333</ele><time>2026-05-02T13:34:33.693Z</time></trkpt><trkpt lat="43.0671717" lon="11.4996373"><ele>313.0</ele><time>2026-05-02T13:34:34.719Z</time></trkpt><trkpt lat="43.0673143" lon="11.4995365"><ele>310.0</ele><time>2026-05-02T13:34:35.707Z</time></trkpt><trkpt lat="43.0674597" lon="11.4994419"><ele>307.0</ele><time>2026-05-02T13:34:36.711Z</time></trkpt><trkpt lat="43.067606" lon="11.4993488"><ele>304.0</ele><time>2026-05-02T13:34:37.697Z</time></trkpt><trkpt lat="43.0677475" lon="11.4992733"><ele>304.0</ele><time>2026-05-02T13:34:38.703Z</time></trkpt><trkpt lat="43.067901" lon="11.499217"><ele>304.0</ele><time>2026-05-02T13:34:39.706Z</time></trkpt><trkpt lat="43.0680698" lon="11.4991688"><ele>304.0</ele><time>2026-05-02T13:34:40.701Z</time></trkpt><trkpt lat="43.0682429" lon="11.4991156"><ele>300.66666666666663</ele><time>2026-05-02T13:34:41.708Z</time></trkpt><trkpt lat="43.068419" lon="11.49906"><ele>297.3333333333333</ele><time>2026-05-02T13:34:42.708Z</time></trkpt><trkpt lat="43.0685713" lon="11.4990147"><ele>294.0</ele><time>2026-05-02T13:34:43.703Z</time></trkpt><trkpt lat="43.0686999" lon="11.4989738"><ele>294.0</ele><time>2026-05-02T13:34:44.714Z</time></trkpt><trkpt lat="43.0688215" lon="11.498932"><ele>294.0</ele><time>2026-05-02T13:34:45.705Z</time></trkpt><trkpt lat="43.0689515" lon="11.4988911"><ele>294.0</ele><time>2026-05-02T13:34:46.714Z</time></trkpt><trkpt lat="43.0690973" lon="11.4988524"><ele>294.0</ele><time>2026-05-02T13:34:47.702Z</time></trkpt><trkpt lat="43.0692597" lon="11.4987994"><ele>292.3333333333333</ele><time>2026-05-02T13:34:48.708Z</time></trkpt><trkpt lat="43.0694366" lon="11.4987418"><ele>290.66666666666663</ele><time>2026-05-02T13:34:49.704Z</time></trkpt><trkpt lat="43.0696082" lon="11.4986974"><ele>289.0</ele><time>2026-05-02T13:34:50.709Z</time></trkpt><trkpt lat="43.0697782" lon="11.4986434"><ele>289.0</ele><time>2026-05-02T13:34:51.699Z</time></trkpt><trkpt lat="43.0699399" lon="11.498579"><ele>289.0</ele><time>2026-05-02T13:34:52.711Z</time></trkpt><trkpt lat="43.0700958" lon="11.4985082"><ele>289.0</ele><time>2026-05-02T13:34:53.71Z</time></trkpt><trkpt lat="43.0702595" lon="11.4984152"><ele>287.66666666666663</ele><time>2026-05-02T13:34:54.704Z</time></trkpt><trkpt lat="43.0704115" lon="11.4983265"><ele>286.3333333333333</ele><time>2026-05-02T13:34:55.713Z</time></trkpt><trkpt lat="43.0705422" lon="11.4982285"><ele>285.0</ele><time>2026-05-02T13:34:56.705Z</time></trkpt><trkpt lat="43.0706735" lon="11.4981312"><ele>284.3333333333333</ele><time>2026-05-02T13:34:57.703Z</time></trkpt><trkpt lat="43.0708186" lon="11.4980144"><ele>283.66666666666663</ele><time>2026-05-02T13:34:58.715Z</time></trkpt><trkpt lat="43.0709758" lon="11.4978929"><ele>283.0</ele><time>2026-05-02T13:34:59.712Z</time></trkpt><trkpt lat="43.0711418" lon="11.4977598"><ele>281.0</ele><time>2026-05-02T13:35:00.689Z</time></trkpt><trkpt lat="43.0712872" lon="11.497653"><ele>279.0</ele><time>2026-05-02T13:35:01.705Z</time></trkpt><trkpt lat="43.0714216" lon="11.4975478"><ele>277.0</ele><time>2026-05-02T13:35:02.703Z</time></trkpt><trkpt lat="43.0715698" lon="11.4974419"><ele>278.0</ele><time>2026-05-02T13:35:03.718Z</time></trkpt><trkpt lat="43.071715" lon="11.4973303"><ele>279.0</ele><time>2026-05-02T13:35:04.703Z</time></trkpt><trkpt lat="43.0718485" lon="11.4972328"><ele>280.0</ele><time>2026-05-02T13:35:05.706Z</time></trkpt><trkpt lat="43.0719766" lon="11.4971332"><ele>277.66666666666663</ele><time>2026-05-02T13:35:06.705Z</time></trkpt><trkpt lat="43.0721095" lon="11.497034"><ele>275.3333333333333</ele><time>2026-05-02T13:35:07.705Z</time></trkpt><trkpt lat="43.0722405" lon="11.4969258"><ele>273.0</ele><time>2026-05-02T13:35:08.703Z</time></trkpt><trkpt lat="43.0723845" lon="11.4968165"><ele>274.0</ele><time>2026-05-02T13:35:09.706Z</time></trkpt><trkpt lat="43.0725294" lon="11.4967096"><ele>275.0</ele><time>2026-05-02T13:35:10.712Z</time></trkpt><trkpt lat="43.0726847" lon="11.4966074"><ele>276.0</ele><time>2026-05-02T13:35:11.711Z</time></trkpt><trkpt lat="43.0728394" lon="11.4965268"><ele>276.0</ele><time>2026-05-02T13:35:12.711Z</time></trkpt><trkpt lat="43.0730039" lon="11.4964519"><ele>276.0</ele><time>2026-05-02T13:35:13.701Z</time></trkpt><trkpt lat="43.0731703" lon="11.4963764"><ele>276.0</ele><time>2026-05-02T13:35:14.706Z</time></trkpt><trkpt lat="43.0733303" lon="11.4963007"><ele>272.3333333333333</ele><time>2026-05-02T13:35:15.712Z</time></trkpt><trkpt lat="43.0734853" lon="11.4962305"><ele>268.66666666666663</ele><time>2026-05-02T13:35:16.709Z</time></trkpt><trkpt lat="43.073635" lon="11.4961592"><ele>265.0</ele><time>2026-05-02T13:35:17.706Z</time></trkpt><trkpt lat="43.0737838" lon="11.4960771"><ele>265.0</ele><time>2026-05-02T13:35:18.706Z</time></trkpt><trkpt lat="43.0739385" lon="11.4959825"><ele>265.0</ele><time>2026-05-02T13:35:19.71Z</time></trkpt><trkpt lat="43.0740907" lon="11.49588"><ele>265.0</ele><time>2026-05-02T13:35:20.708Z</time></trkpt><trkpt lat="43.0742471" lon="11.4957495"><ele>264.66666666666663</ele><time>2026-05-02T13:35:21.713Z</time></trkpt><trkpt lat="43.0744026" lon="11.4956079"><ele>264.3333333333333</ele><time>2026-05-02T13:35:22.717Z</time></trkpt><trkpt lat="43.0745693" lon="11.495471"><ele>264.0</ele><time>2026-05-02T13:35:23.709Z</time></trkpt><trkpt lat="43.074745" lon="11.4953326"><ele>262.6666666666667</ele><time>2026-05-02T13:35:24.71Z</time></trkpt><trkpt lat="43.0749132" lon="11.495198"><ele>261.33333333333337</ele><time>2026-05-02T13:35:25.711Z</time></trkpt><trkpt lat="43.0750693" lon="11.4950689"><ele>260.0</ele><time>2026-05-02T13:35:26.709Z</time></trkpt><trkpt lat="43.0752175" lon="11.4949446"><ele>259.33333333333337</ele><time>2026-05-02T13:35:27.714Z</time></trkpt><trkpt lat="43.0753613" lon="11.4948211"><ele>258.6666666666667</ele><time>2026-05-02T13:35:28.716Z</time></trkpt><trkpt lat="43.0755065" lon="11.4946949"><ele>258.0</ele><time>2026-05-02T13:35:29.708Z</time></trkpt><trkpt lat="43.0756538" lon="11.4945644"><ele>256.3333333333333</ele><time>2026-05-02T13:35:30.708Z</time></trkpt><trkpt lat="43.0757982" lon="11.4944232"><ele>254.66666666666666</ele><time>2026-05-02T13:35:31.712Z</time></trkpt><trkpt lat="43.0759418" lon="11.4942734"><ele>253.0</ele><time>2026-05-02T13:35:32.699Z</time></trkpt><trkpt lat="43.0760888" lon="11.4941157"><ele>253.0</ele><time>2026-05-02T13:35:33.715Z</time></trkpt><trkpt lat="43.076237" lon="11.4939661"><ele>253.0</ele><time>2026-05-02T13:35:34.71Z</time></trkpt><trkpt lat="43.0763864" lon="11.4938146"><ele>253.0</ele><time>2026-05-02T13:35:35.711Z</time></trkpt><trkpt lat="43.0765299" lon="11.4936645"><ele>252.33333333333331</ele><time>2026-05-02T13:35:36.705Z</time></trkpt><trkpt lat="43.0766576" lon="11.4935237"><ele>251.66666666666669</ele><time>2026-05-02T13:35:37.704Z</time></trkpt><trkpt lat="43.0767827" lon="11.4933913"><ele>251.0</ele><time>2026-05-02T13:35:38.71Z</time></trkpt><trkpt lat="43.0769122" lon="11.4932663"><ele>251.0</ele><time>2026-05-02T13:35:39.7Z</time></trkpt><trkpt lat="43.0770418" lon="11.4931526"><ele>251.0</ele><time>2026-05-02T13:35:40.711Z</time></trkpt><trkpt lat="43.0771682" lon="11.4930728"><ele>251.0</ele><time>2026-05-02T13:35:41.723Z</time></trkpt><trkpt lat="43.0772864" lon="11.4930047"><ele>251.0</ele><time>2026-05-02T13:35:42.702Z</time></trkpt><trkpt lat="43.0773905" lon="11.4929525"><ele>250.8</ele><time>2026-05-02T13:35:43.701Z</time></trkpt><trkpt lat="43.0774703" lon="11.4929043"><ele>250.60000000000002</ele><time>2026-05-02T13:35:44.709Z</time></trkpt><trkpt lat="43.0775385" lon="11.492872"><ele>250.4</ele><time>2026-05-02T13:35:45.702Z</time></trkpt><trkpt lat="43.0776029" lon="11.4928547"><ele>250.2</ele><time>2026-05-02T13:35:46.708Z</time></trkpt><trkpt lat="43.0777179" lon="11.4929024"><ele>250.0</ele><time>2026-05-02T13:35:48.699Z</time></trkpt><trkpt lat="43.0778197" lon="11.4930138"><ele>250.0</ele><time>2026-05-02T13:35:50.708Z</time></trkpt><trkpt lat="43.077872" lon="11.4930702"><ele>250.0</ele><time>2026-05-02T13:35:51.696Z</time></trkpt><trkpt lat="43.0779284" lon="11.493128"><ele>250.0</ele><time>2026-05-02T13:35:52.703Z</time></trkpt><trkpt lat="43.0779868" lon="11.4931912"><ele>250.0</ele><time>2026-05-02T13:35:53.704Z</time></trkpt><trkpt lat="43.0780452" lon="11.493254"><ele>250.0</ele><time>2026-05-02T13:35:54.703Z</time></trkpt><trkpt lat="43.0781024" lon="11.4933204"><ele>250.0</ele><time>2026-05-02T13:35:55.706Z</time></trkpt><trkpt lat="43.0781603" lon="11.4933904"><ele>250.0</ele><time>2026-05-02T13:35:56.71Z</time></trkpt><trkpt lat="43.0782135" lon="11.4934644"><ele>249.99999999999997</ele><time>2026-05-02T13:35:57.704Z</time></trkpt><trkpt lat="43.0782664" lon="11.4935424"><ele>250.0</ele><time>2026-05-02T13:35:58.698Z</time></trkpt><trkpt lat="43.0783226" lon="11.4936156"><ele>250.0</ele><time>2026-05-02T13:35:59.705Z</time></trkpt><trkpt lat="43.0783811" lon="11.4936981"><ele>250.0</ele><time>2026-05-02T13:36:00.706Z</time></trkpt><trkpt lat="43.0784389" lon="11.4937858"><ele>249.99999999999997</ele><time>2026-05-02T13:36:01.7Z</time></trkpt><trkpt lat="43.0784982" lon="11.4938797"><ele>250.0</ele><time>2026-05-02T13:36:02.708Z</time></trkpt><trkpt lat="43.0785583" lon="11.4939731"><ele>250.8</ele><time>2026-05-02T13:36:03.703Z</time></trkpt><trkpt lat="43.0786126" lon="11.49407"><ele>251.6</ele><time>2026-05-02T13:36:04.715Z</time></trkpt><trkpt lat="43.0786664" lon="11.4941788"><ele>252.39999999999998</ele><time>2026-05-02T13:36:05.709Z</time></trkpt><trkpt lat="43.0787201" lon="11.4943026"><ele>253.2</ele><time>2026-05-02T13:36:06.705Z</time></trkpt><trkpt lat="43.0787702" lon="11.4944369"><ele>254.0</ele><time>2026-05-02T13:36:07.703Z</time></trkpt><trkpt lat="43.0788166" lon="11.4945815"><ele>254.0</ele><time>2026-05-02T13:36:08.705Z</time></trkpt><trkpt lat="43.0788665" lon="11.4947232"><ele>254.0</ele><time>2026-05-02T13:36:09.707Z</time></trkpt><trkpt lat="43.0789166" lon="11.4948698"><ele>254.0</ele><time>2026-05-02T13:36:10.712Z</time></trkpt><trkpt lat="43.0789676" lon="11.4950182"><ele>254.0</ele><time>2026-05-02T13:36:11.71Z</time></trkpt><trkpt lat="43.0790176" lon="11.4951676"><ele>254.0</ele><time>2026-05-02T13:36:12.704Z</time></trkpt><trkpt lat="43.0790638" lon="11.4953158"><ele>254.0</ele><time>2026-05-02T13:36:13.708Z</time></trkpt><trkpt lat="43.0791101" lon="11.4954643"><ele>254.0</ele><time>2026-05-02T13:36:14.71Z</time></trkpt><trkpt lat="43.0791624" lon="11.4956134"><ele>254.0</ele><time>2026-05-02T13:36:15.709Z</time></trkpt><trkpt lat="43.0792207" lon="11.4957718"><ele>256.0</ele><time>2026-05-02T13:36:16.692Z</time></trkpt><trkpt lat="43.0792761" lon="11.495935"><ele>258.0</ele><time>2026-05-02T13:36:17.709Z</time></trkpt><trkpt lat="43.0793327" lon="11.4960939"><ele>260.0</ele><time>2026-05-02T13:36:18.697Z</time></trkpt><trkpt lat="43.0793945" lon="11.4962644"><ele>262.0</ele><time>2026-05-02T13:36:19.708Z</time></trkpt><trkpt lat="43.0794522" lon="11.4964386"><ele>262.75</ele><time>2026-05-02T13:36:20.709Z</time></trkpt><trkpt lat="43.0794898" lon="11.4966054"><ele>263.5</ele><time>2026-05-02T13:36:21.713Z</time></trkpt><trkpt lat="43.0795158" lon="11.4967628"><ele>264.25</ele><time>2026-05-02T13:36:22.701Z</time></trkpt><trkpt lat="43.0795316" lon="11.4969076"><ele>265.0</ele><time>2026-05-02T13:36:23.705Z</time></trkpt><trkpt lat="43.0795503" lon="11.4970568"><ele>264.5</ele><time>2026-05-02T13:36:24.707Z</time></trkpt><trkpt lat="43.0795769" lon="11.4972159"><ele>264.0</ele><time>2026-05-02T13:36:25.71Z</time></trkpt><trkpt lat="43.0796073" lon="11.4973721"><ele>263.5</ele><time>2026-05-02T13:36:26.704Z</time></trkpt><trkpt lat="43.0796476" lon="11.4975239"><ele>263.0</ele><time>2026-05-02T13:36:27.7Z</time></trkpt><trkpt lat="43.0797006" lon="11.4976789"><ele>263.0</ele><time>2026-05-02T13:36:28.704Z</time></trkpt><trkpt lat="43.0797485" lon="11.4978344"><ele>263.0</ele><time>2026-05-02T13:36:29.71Z</time></trkpt><trkpt lat="43.0797919" lon="11.4979868"><ele>263.0</ele><time>2026-05-02T13:36:30.704Z</time></trkpt><trkpt lat="43.0798313" lon="11.4981349"><ele>263.0</ele><time>2026-05-02T13:36:31.709Z</time></trkpt><trkpt lat="43.0798796" lon="11.4982819"><ele>262.25</ele><time>2026-05-02T13:36:32.712Z</time></trkpt><trkpt lat="43.0799279" lon="11.4984246"><ele>261.5</ele><time>2026-05-02T13:36:33.71Z</time></trkpt><trkpt lat="43.079989" lon="11.4985591"><ele>260.75</ele><time>2026-05-02T13:36:34.723Z</time></trkpt><trkpt lat="43.0800594" lon="11.4986781"><ele>260.0</ele><time>2026-05-02T13:36:35.708Z</time></trkpt><trkpt lat="43.0801414" lon="11.4987906"><ele>262.0</ele><time>2026-05-02T13:36:36.707Z</time></trkpt><trkpt lat="43.080226" lon="11.4989095"><ele>264.0</ele><time>2026-05-02T13:36:37.708Z</time></trkpt><trkpt lat="43.0803133" lon="11.4990294"><ele>266.0</ele><time>2026-05-02T13:36:38.697Z</time></trkpt><trkpt lat="43.0804009" lon="11.4991439"><ele>268.0</ele><time>2026-05-02T13:36:39.704Z</time></trkpt><trkpt lat="43.0804842" lon="11.4992588"><ele>268.0</ele><time>2026-05-02T13:36:40.709Z</time></trkpt><trkpt lat="43.0805541" lon="11.4993691"><ele>268.0</ele><time>2026-05-02T13:36:41.709Z</time></trkpt><trkpt lat="43.0806165" lon="11.4994715"><ele>268.0</ele><time>2026-05-02T13:36:42.697Z</time></trkpt><trkpt lat="43.080674" lon="11.4995759"><ele>268.0</ele><time>2026-05-02T13:36:43.714Z</time></trkpt><trkpt lat="43.0807419" lon="11.4996777"><ele>268.0</ele><time>2026-05-02T13:36:44.693Z</time></trkpt><trkpt lat="43.0808157" lon="11.4997844"><ele>268.0</ele><time>2026-05-02T13:36:45.703Z</time></trkpt><trkpt lat="43.0808921" lon="11.4998847"><ele>268.0</ele><time>2026-05-02T13:36:46.697Z</time></trkpt><trkpt lat="43.0809761" lon="11.4999951"><ele>268.0</ele><time>2026-05-02T13:36:47.706Z</time></trkpt><trkpt lat="43.0810666" lon="11.5001102"><ele>268.0</ele><time>2026-05-02T13:36:48.711Z</time></trkpt><trkpt lat="43.0811662" lon="11.5002004"><ele>268.0</ele><time>2026-05-02T13:36:49.708Z</time></trkpt><trkpt lat="43.0812692" lon="11.5002618"><ele>268.0</ele><time>2026-05-02T13:36:50.709Z</time></trkpt><trkpt lat="43.0813854" lon="11.5003023"><ele>268.0</ele><time>2026-05-02T13:36:51.706Z</time></trkpt><trkpt lat="43.0815039" lon="11.5003286"><ele>268.0</ele><time>2026-05-02T13:36:52.705Z</time></trkpt><trkpt lat="43.0816243" lon="11.5003473"><ele>267.75</ele><time>2026-05-02T13:36:53.701Z</time></trkpt><trkpt lat="43.0817479" lon="11.5003737"><ele>267.5</ele><time>2026-05-02T13:36:54.703Z</time></trkpt><trkpt lat="43.0818752" lon="11.500406"><ele>267.25</ele><time>2026-05-02T13:36:55.708Z</time></trkpt><trkpt lat="43.0820055" lon="11.5004483"><ele>267.0</ele><time>2026-05-02T13:36:56.723Z</time></trkpt><trkpt lat="43.082141" lon="11.5005"><ele>267.0</ele><time>2026-05-02T13:36:57.712Z</time></trkpt><trkpt lat="43.0822788" lon="11.5005529"><ele>267.0</ele><time>2026-05-02T13:36:58.711Z</time></trkpt><trkpt lat="43.0824163" lon="11.5006073"><ele>267.0</ele><time>2026-05-02T13:36:59.704Z</time></trkpt><trkpt lat="43.0825561" lon="11.5006685"><ele>267.0</ele><time>2026-05-02T13:37:00.701Z</time></trkpt><trkpt lat="43.0826985" lon="11.5007408"><ele>268.0</ele><time>2026-05-02T13:37:01.7Z</time></trkpt><trkpt lat="43.08285" lon="11.5008264"><ele>269.0</ele><time>2026-05-02T13:37:02.712Z</time></trkpt><trkpt lat="43.0830118" lon="11.5009207"><ele>270.0</ele><time>2026-05-02T13:37:03.706Z</time></trkpt><trkpt lat="43.0831715" lon="11.5010237"><ele>269.25</ele><time>2026-05-02T13:37:04.706Z</time></trkpt><trkpt lat="43.0833176" lon="11.5011138"><ele>268.5</ele><time>2026-05-02T13:37:05.707Z</time></trkpt><trkpt lat="43.0834506" lon="11.5011961"><ele>267.75</ele><time>2026-05-02T13:37:06.696Z</time></trkpt><trkpt lat="43.0835786" lon="11.5012624"><ele>267.0</ele><time>2026-05-02T13:37:07.712Z</time></trkpt><trkpt lat="43.0837001" lon="11.5013344"><ele>267.0</ele><time>2026-05-02T13:37:08.702Z</time></trkpt><trkpt lat="43.0838106" lon="11.5014021"><ele>267.0</ele><time>2026-05-02T13:37:09.702Z</time></trkpt><trkpt lat="43.0839129" lon="11.5014656"><ele>267.0</ele><time>2026-05-02T13:37:10.702Z</time></trkpt><trkpt lat="43.083999" lon="11.5015183"><ele>267.0</ele><time>2026-05-02T13:37:11.713Z</time></trkpt><trkpt lat="43.0840757" lon="11.5015692"><ele>267.0</ele><time>2026-05-02T13:37:12.704Z</time></trkpt><trkpt lat="43.0841454" lon="11.5016153"><ele>267.2</ele><time>2026-05-02T13:37:13.715Z</time></trkpt><trkpt lat="43.0842253" lon="11.5017369"><ele>267.4</ele><time>2026-05-02T13:37:15.709Z</time></trkpt><trkpt lat="43.0842269" lon="11.5018974"><ele>267.6</ele><time>2026-05-02T13:37:17.698Z</time></trkpt><trkpt lat="43.0841817" lon="11.5020389"><ele>267.8</ele><time>2026-05-02T13:37:19.706Z</time></trkpt><trkpt lat="43.0841502" lon="11.5021188"><ele>268.0</ele><time>2026-05-02T13:37:40.712Z</time></trkpt><trkpt lat="43.0841305" lon="11.5022279"><ele>268.0</ele><time>2026-05-02T13:37:43.705Z</time></trkpt><trkpt lat="43.0840957" lon="11.502339"><ele>268.0</ele><time>2026-05-02T13:37:46.703Z</time></trkpt><trkpt lat="43.0840641" lon="11.5024567"><ele>268.0</ele><time>2026-05-02T13:37:49.693Z</time></trkpt><trkpt lat="43.0840412" lon="11.5025396"><ele>268.0</ele><time>2026-05-02T13:37:51.703Z</time></trkpt><trkpt lat="43.084024" lon="11.502655"><ele>268.0</ele><time>2026-05-02T13:37:54.703Z</time></trkpt><trkpt lat="43.0840149" lon="11.5027767"><ele>268.0</ele><time>2026-05-02T13:40:22.71Z</time></trkpt><trkpt lat="43.0840218" lon="11.5029216"><ele>269.0</ele><time>2026-05-02T13:40:24.71Z</time></trkpt><trkpt lat="43.0840399" lon="11.5030817"><ele>270.0</ele><time>2026-05-02T13:40:26.703Z</time></trkpt><trkpt lat="43.0840451" lon="11.5031678"><ele>271.0</ele><time>2026-05-02T13:40:27.71Z</time></trkpt><trkpt lat="43.0840525" lon="11.5032556"><ele>272.0</ele><time>2026-05-02T13:40:28.702Z</time></trkpt><trkpt lat="43.084063" lon="11.5033533"><ele>273.0</ele><time>2026-05-02T13:40:29.699Z</time></trkpt><trkpt lat="43.0840642" lon="11.5034546"><ele>274.0</ele><time>2026-05-02T13:40:30.705Z</time></trkpt><trkpt lat="43.0840495" lon="11.5035628"><ele>274.0</ele><time>2026-05-02T13:40:31.718Z</time></trkpt><trkpt lat="43.0840263" lon="11.5036791"><ele>274.0</ele><time>2026-05-02T13:40:32.716Z</time></trkpt><trkpt lat="43.0839933" lon="11.5037897"><ele>274.0</ele><time>2026-05-02T13:40:33.704Z</time></trkpt><trkpt lat="43.0839486" lon="11.5038932"><ele>274.0</ele><time>2026-05-02T13:40:34.694Z</time></trkpt><trkpt lat="43.0839051" lon="11.5039936"><ele>274.0</ele><time>2026-05-02T13:40:35.703Z</time></trkpt><trkpt lat="43.0838597" lon="11.5040893"><ele>274.0</ele><time>2026-05-02T13:40:36.705Z</time></trkpt><trkpt lat="43.0838113" lon="11.5041722"><ele>274.8333333333333</ele><time>2026-05-02T13:40:37.721Z</time></trkpt><trkpt lat="43.0837541" lon="11.5042395"><ele>275.66666666666663</ele><time>2026-05-02T13:40:38.714Z</time></trkpt><trkpt lat="43.0836943" lon="11.5042893"><ele>276.5</ele><time>2026-05-02T13:40:39.704Z</time></trkpt><trkpt lat="43.0836343" lon="11.5043195"><ele>277.3333333333333</ele><time>2026-05-02T13:40:40.71Z</time></trkpt><trkpt lat="43.0835642" lon="11.5043194"><ele>278.1666666666667</ele><time>2026-05-02T13:40:41.706Z</time></trkpt><trkpt lat="43.0834745" lon="11.5043112"><ele>279.0</ele><time>2026-05-02T13:40:42.7Z</time></trkpt><trkpt lat="43.0833774" lon="11.5042815"><ele>279.0</ele><time>2026-05-02T13:40:43.709Z</time></trkpt><trkpt lat="43.0832707" lon="11.5042536"><ele>279.0</ele><time>2026-05-02T13:40:44.699Z</time></trkpt><trkpt lat="43.0831645" lon="11.5042396"><ele>279.0</ele><time>2026-05-02T13:40:45.718Z</time></trkpt><trkpt lat="43.0830696" lon="11.5042732"><ele>279.0</ele><time>2026-05-02T13:40:46.701Z</time></trkpt><trkpt lat="43.0829922" lon="11.5043226"><ele>279.0</ele><time>2026-05-02T13:40:47.706Z</time></trkpt><trkpt lat="43.0829219" lon="11.5044168"><ele>280.8</ele><time>2026-05-02T13:40:48.71Z</time></trkpt><trkpt lat="43.0828554" lon="11.5045283"><ele>282.59999999999997</ele><time>2026-05-02T13:40:49.696Z</time></trkpt><trkpt lat="43.0827914" lon="11.504647"><ele>284.4</ele><time>2026-05-02T13:40:50.706Z</time></trkpt><trkpt lat="43.0827276" lon="11.5047677"><ele>286.2</ele><time>2026-05-02T13:40:51.71Z</time></trkpt><trkpt lat="43.0826675" lon="11.5048708"><ele>288.0</ele><time>2026-05-02T13:40:52.707Z</time></trkpt><trkpt lat="43.0826201" lon="11.5049548"><ele>288.7142857142857</ele><time>2026-05-02T13:40:53.698Z</time></trkpt><trkpt lat="43.0825759" lon="11.505029"><ele>289.42857142857144</ele><time>2026-05-02T13:40:54.707Z</time></trkpt><trkpt lat="43.0825315" lon="11.5051047"><ele>290.1428571428571</ele><time>2026-05-02T13:40:55.709Z</time></trkpt><trkpt lat="43.0824884" lon="11.505182"><ele>290.8571428571429</ele><time>2026-05-02T13:40:56.709Z</time></trkpt><trkpt lat="43.0824404" lon="11.5052539"><ele>291.57142857142856</ele><time>2026-05-02T13:40:57.714Z</time></trkpt><trkpt lat="43.0823939" lon="11.505332"><ele>292.2857142857143</ele><time>2026-05-02T13:40:58.687Z</time></trkpt><trkpt lat="43.0823442" lon="11.5054206"><ele>293.0</ele><time>2026-05-02T13:40:59.698Z</time></trkpt><trkpt lat="43.0822863" lon="11.5055075"><ele>294.4</ele><time>2026-05-02T13:41:00.707Z</time></trkpt><trkpt lat="43.0822299" lon="11.5056026"><ele>295.8</ele><time>2026-05-02T13:41:01.726Z</time></trkpt><trkpt lat="43.0821699" lon="11.5057102"><ele>297.2</ele><time>2026-05-02T13:41:02.709Z</time></trkpt><trkpt lat="43.0821025" lon="11.5058234"><ele>298.6</ele><time>2026-05-02T13:41:03.703Z</time></trkpt><trkpt lat="43.0820387" lon="11.5059381"><ele>300.0</ele><time>2026-05-02T13:41:04.719Z</time></trkpt><trkpt lat="43.0819737" lon="11.5060439"><ele>300.0</ele><time>2026-05-02T13:41:05.704Z</time></trkpt><trkpt lat="43.0819128" lon="11.5061505"><ele>300.0</ele><time>2026-05-02T13:41:06.714Z</time></trkpt><trkpt lat="43.0818603" lon="11.5062531"><ele>300.0</ele><time>2026-05-02T13:41:07.696Z</time></trkpt><trkpt lat="43.0818061" lon="11.506348"><ele>300.0</ele><time>2026-05-02T13:41:08.703Z</time></trkpt><trkpt lat="43.081758" lon="11.5064304"><ele>300.0</ele><time>2026-05-02T13:41:09.699Z</time></trkpt><trkpt lat="43.0816865" lon="11.5065478"><ele>300.0</ele><time>2026-05-02T13:41:11.703Z</time></trkpt><trkpt lat="43.0816296" lon="11.5066623"><ele>300.0</ele><time>2026-05-02T13:41:13.708Z</time></trkpt><trkpt lat="43.0815504" lon="11.5067919"><ele>300.0</ele><time>2026-05-02T13:41:15.702Z</time></trkpt><trkpt lat="43.0814606" lon="11.5069331"><ele>300.0</ele><time>2026-05-02T13:41:17.712Z</time></trkpt><trkpt lat="43.0814148" lon="11.50701"><ele>300.0</ele><time>2026-05-02T13:41:18.702Z</time></trkpt><trkpt lat="43.0813682" lon="11.5070888"><ele>301.75</ele><time>2026-05-02T13:41:19.71Z</time></trkpt><trkpt lat="43.0813156" lon="11.5071799"><ele>303.5</ele><time>2026-05-02T13:41:20.707Z</time></trkpt><trkpt lat="43.0812445" lon="11.5073041"><ele>305.25</ele><time>2026-05-02T13:41:21.706Z</time></trkpt><trkpt lat="43.0811511" lon="11.5074611"><ele>307.0</ele><time>2026-05-02T13:41:22.706Z</time></trkpt><trkpt lat="43.0810483" lon="11.5076305"><ele>307.0</ele><time>2026-05-02T13:41:23.709Z</time></trkpt><trkpt lat="43.0809422" lon="11.5078088"><ele>307.0</ele><time>2026-05-02T13:41:24.707Z</time></trkpt><trkpt lat="43.0808356" lon="11.5079925"><ele>307.0</ele><time>2026-05-02T13:41:25.696Z</time></trkpt><trkpt lat="43.0807244" lon="11.5081879"><ele>307.0</ele><time>2026-05-02T13:41:26.702Z</time></trkpt><trkpt lat="43.0806153" lon="11.5083646"><ele>307.0</ele><time>2026-05-02T13:41:27.708Z</time></trkpt><trkpt lat="43.0805295" lon="11.5085129"><ele>307.0</ele><time>2026-05-02T13:41:28.698Z</time></trkpt><trkpt lat="43.0804576" lon="11.5086495"><ele>307.0</ele><time>2026-05-02T13:41:29.703Z</time></trkpt><trkpt lat="43.0803875" lon="11.5087799"><ele>306.5</ele><time>2026-05-02T13:41:30.704Z</time></trkpt><trkpt lat="43.080321" lon="11.5089318"><ele>306.0</ele><time>2026-05-02T13:41:31.707Z</time></trkpt><trkpt lat="43.0802502" lon="11.5090932"><ele>305.5</ele><time>2026-05-02T13:41:32.71Z</time></trkpt><trkpt lat="43.0801794" lon="11.5092531"><ele>305.0</ele><time>2026-05-02T13:41:33.713Z</time></trkpt><trkpt lat="43.0801154" lon="11.5093958"><ele>305.0</ele><time>2026-05-02T13:41:34.697Z</time></trkpt><trkpt lat="43.0800658" lon="11.5095276"><ele>305.0</ele><time>2026-05-02T13:41:35.717Z</time></trkpt><trkpt lat="43.0800177" lon="11.5096563"><ele>305.0</ele><time>2026-05-02T13:41:36.713Z</time></trkpt><trkpt lat="43.0799757" lon="11.5097797"><ele>305.0</ele><time>2026-05-02T13:41:37.699Z</time></trkpt><trkpt lat="43.0799411" lon="11.509898"><ele>305.0</ele><time>2026-05-02T13:41:38.697Z</time></trkpt><trkpt lat="43.0799203" lon="11.5100198"><ele>306.2</ele><time>2026-05-02T13:41:39.703Z</time></trkpt><trkpt lat="43.0799079" lon="11.5101523"><ele>307.4</ele><time>2026-05-02T13:41:40.72Z</time></trkpt><trkpt lat="43.0799067" lon="11.5102856"><ele>308.6</ele><time>2026-05-02T13:41:41.719Z</time></trkpt><trkpt lat="43.0799176" lon="11.5104118"><ele>309.8</ele><time>2026-05-02T13:41:42.701Z</time></trkpt><trkpt lat="43.0799328" lon="11.5105432"><ele>311.0</ele><time>2026-05-02T13:41:43.701Z</time></trkpt><trkpt lat="43.0799421" lon="11.5106739"><ele>311.0</ele><time>2026-05-02T13:41:44.698Z</time></trkpt><trkpt lat="43.0799484" lon="11.5108128"><ele>311.0</ele><time>2026-05-02T13:41:45.713Z</time></trkpt><trkpt lat="43.0799603" lon="11.5109622"><ele>311.0</ele><time>2026-05-02T13:41:46.697Z</time></trkpt><trkpt lat="43.0799736" lon="11.5111193"><ele>311.0</ele><time>2026-05-02T13:41:47.699Z</time></trkpt><trkpt lat="43.0799946" lon="11.5112794"><ele>311.0</ele><time>2026-05-02T13:41:48.686Z</time></trkpt><trkpt lat="43.0800396" lon="11.511439"><ele>310.75</ele><time>2026-05-02T13:41:49.695Z</time></trkpt><trkpt lat="43.0800951" lon="11.5115972"><ele>310.5</ele><time>2026-05-02T13:41:50.706Z</time></trkpt><trkpt lat="43.0801667" lon="11.5117548"><ele>310.25</ele><time>2026-05-02T13:41:51.696Z</time></trkpt><trkpt lat="43.0802356" lon="11.5119004"><ele>310.0</ele><time>2026-05-02T13:41:52.701Z</time></trkpt><trkpt lat="43.0803043" lon="11.5120102"><ele>310.4</ele><time>2026-05-02T13:41:53.702Z</time></trkpt><trkpt lat="43.0803702" lon="11.5121198"><ele>310.8</ele><time>2026-05-02T13:41:54.707Z</time></trkpt><trkpt lat="43.0804301" lon="11.5122279"><ele>311.2</ele><time>2026-05-02T13:41:55.71Z</time></trkpt><trkpt lat="43.0804918" lon="11.5123374"><ele>311.6</ele><time>2026-05-02T13:41:56.703Z</time></trkpt><trkpt lat="43.080555" lon="11.5124511"><ele>312.0</ele><time>2026-05-02T13:41:57.724Z</time></trkpt><trkpt lat="43.080622" lon="11.5125724"><ele>312.0</ele><time>2026-05-02T13:41:58.709Z</time></trkpt><trkpt lat="43.0806844" lon="11.5126904"><ele>312.0</ele><time>2026-05-02T13:41:59.698Z</time></trkpt><trkpt lat="43.0807499" lon="11.5128113"><ele>312.0</ele><time>2026-05-02T13:42:00.704Z</time></trkpt><trkpt lat="43.0808171" lon="11.512926"><ele>312.0</ele><time>2026-05-02T13:42:01.708Z</time></trkpt><trkpt lat="43.0808973" lon="11.5130293"><ele>312.0</ele><time>2026-05-02T13:42:02.707Z</time></trkpt><trkpt lat="43.0809912" lon="11.5131199"><ele>314.4</ele><time>2026-05-02T13:42:03.695Z</time></trkpt><trkpt lat="43.0810963" lon="11.5131796"><ele>316.79999999999995</ele><time>2026-05-02T13:42:04.709Z</time></trkpt><trkpt lat="43.0812071" lon="11.5131997"><ele>319.2</ele><time>2026-05-02T13:42:05.711Z</time></trkpt><trkpt lat="43.0813184" lon="11.5131926"><ele>321.59999999999997</ele><time>2026-05-02T13:42:06.707Z</time></trkpt><trkpt lat="43.081412" lon="11.5131916"><ele>324.0</ele><time>2026-05-02T13:42:07.706Z</time></trkpt><trkpt lat="43.0814946" lon="11.5131986"><ele>324.0</ele><time>2026-05-02T13:42:08.707Z</time></trkpt><trkpt lat="43.0815751" lon="11.5132386"><ele>324.0</ele><time>2026-05-02T13:42:09.698Z</time></trkpt><trkpt lat="43.0816571" lon="11.5133038"><ele>324.0</ele><time>2026-05-02T13:42:10.705Z</time></trkpt><trkpt lat="43.0817368" lon="11.5133894"><ele>324.0</ele><time>2026-05-02T13:42:11.701Z</time></trkpt><trkpt lat="43.081817" lon="11.5134834"><ele>324.0</ele><time>2026-05-02T13:42:12.707Z</time></trkpt><trkpt lat="43.0818984" lon="11.5135939"><ele>324.75</ele><time>2026-05-02T13:42:13.699Z</time></trkpt><trkpt lat="43.0819807" lon="11.5137145"><ele>325.5</ele><time>2026-05-02T13:42:14.705Z</time></trkpt><trkpt lat="43.0820693" lon="11.5138433"><ele>326.25</ele><time>2026-05-02T13:42:15.697Z</time></trkpt><trkpt lat="43.0821584" lon="11.5139656"><ele>327.0</ele><time>2026-05-02T13:42:16.703Z</time></trkpt><trkpt lat="43.082255" lon="11.5140941"><ele>327.0</ele><time>2026-05-02T13:42:17.708Z</time></trkpt><trkpt lat="43.082357" lon="11.5142169"><ele>327.0</ele><time>2026-05-02T13:42:18.71Z</time></trkpt><trkpt lat="43.0824658" lon="11.5143408"><ele>327.0</ele><time>2026-05-02T13:42:19.693Z</time></trkpt><trkpt lat="43.0825922" lon="11.5144547"><ele>327.0</ele><time>2026-05-02T13:42:20.697Z</time></trkpt><trkpt lat="43.082723" lon="11.5145749"><ele>327.0</ele><time>2026-05-02T13:42:21.696Z</time></trkpt><trkpt lat="43.0828559" lon="11.514694"><ele>327.0</ele><time>2026-05-02T13:42:22.71Z</time></trkpt><trkpt lat="43.0829888" lon="11.5148039"><ele>327.0</ele><time>2026-05-02T13:42:23.713Z</time></trkpt><trkpt lat="43.0831171" lon="11.5148914"><ele>327.0</ele><time>2026-05-02T13:42:24.712Z</time></trkpt><trkpt lat="43.0832363" lon="11.5149503"><ele>327.0</ele><time>2026-05-02T13:42:25.701Z</time></trkpt><trkpt lat="43.0833641" lon="11.5149918"><ele>327.0</ele><time>2026-05-02T13:42:26.702Z</time></trkpt><trkpt lat="43.0834982" lon="11.5150245"><ele>327.0</ele><time>2026-05-02T13:42:27.702Z</time></trkpt><trkpt lat="43.0836293" lon="11.5150566"><ele>326.40000000000003</ele><time>2026-05-02T13:42:28.698Z</time></trkpt><trkpt lat="43.083745" lon="11.5150789"><ele>325.8</ele><time>2026-05-02T13:42:29.696Z</time></trkpt><trkpt lat="43.0838502" lon="11.5150769"><ele>325.2</ele><time>2026-05-02T13:42:30.704Z</time></trkpt><trkpt lat="43.0839515" lon="11.5150505"><ele>324.6</ele><time>2026-05-02T13:42:31.703Z</time></trkpt><trkpt lat="43.0840626" lon="11.5149969"><ele>324.0</ele><time>2026-05-02T13:42:32.695Z</time></trkpt><trkpt lat="43.0841783" lon="11.5149189"><ele>323.25</ele><time>2026-05-02T13:42:33.708Z</time></trkpt><trkpt lat="43.084303" lon="11.5148638"><ele>322.5</ele><time>2026-05-02T13:42:34.693Z</time></trkpt><trkpt lat="43.0844234" lon="11.5148349"><ele>321.75</ele><time>2026-05-02T13:42:35.703Z</time></trkpt><trkpt lat="43.0845645" lon="11.5148254"><ele>321.0</ele><time>2026-05-02T13:42:36.701Z</time></trkpt><trkpt lat="43.0847288" lon="11.5148435"><ele>321.0</ele><time>2026-05-02T13:42:37.698Z</time></trkpt><trkpt lat="43.0848901" lon="11.5148567"><ele>321.0</ele><time>2026-05-02T13:42:38.706Z</time></trkpt><trkpt lat="43.0850344" lon="11.5148557"><ele>321.0</ele><time>2026-05-02T13:42:39.705Z</time></trkpt><trkpt lat="43.0851655" lon="11.5148639"><ele>321.0</ele><time>2026-05-02T13:42:40.693Z</time></trkpt><trkpt lat="43.0852797" lon="11.5148789"><ele>320.2</ele><time>2026-05-02T13:42:41.699Z</time></trkpt><trkpt lat="43.0853872" lon="11.514918"><ele>319.40000000000003</ele><time>2026-05-02T13:42:42.71Z</time></trkpt><trkpt lat="43.0854928" lon="11.5149832"><ele>318.6</ele><time>2026-05-02T13:42:43.71Z</time></trkpt><trkpt lat="43.0855897" lon="11.515064"><ele>317.8</ele><time>2026-05-02T13:42:44.702Z</time></trkpt><trkpt lat="43.0856716" lon="11.5151552"><ele>317.0</ele><time>2026-05-02T13:42:45.707Z</time></trkpt><trkpt lat="43.0857345" lon="11.5152486"><ele>317.2</ele><time>2026-05-02T13:42:46.698Z</time></trkpt><trkpt lat="43.0857944" lon="11.5153472"><ele>317.4</ele><time>2026-05-02T13:42:47.707Z</time></trkpt><trkpt lat="43.0858605" lon="11.5154385"><ele>317.6</ele><time>2026-05-02T13:42:48.708Z</time></trkpt><trkpt lat="43.0859319" lon="11.5155281"><ele>317.8</ele><time>2026-05-02T13:42:49.706Z</time></trkpt><trkpt lat="43.086017" lon="11.515598"><ele>318.0</ele><time>2026-05-02T13:42:50.709Z</time></trkpt><trkpt lat="43.086107" lon="11.5156695"><ele>316.8</ele><time>2026-05-02T13:42:51.709Z</time></trkpt><trkpt lat="43.086192" lon="11.5157478"><ele>315.6</ele><time>2026-05-02T13:42:52.712Z</time></trkpt><trkpt lat="43.086258" lon="11.5158374"><ele>314.4</ele><time>2026-05-02T13:42:53.709Z</time></trkpt><trkpt lat="43.0863215" lon="11.5159332"><ele>313.2</ele><time>2026-05-02T13:42:54.708Z</time></trkpt><trkpt lat="43.0863828" lon="11.5160401"><ele>312.0</ele><time>2026-05-02T13:42:55.714Z</time></trkpt><trkpt lat="43.0864503" lon="11.5161621"><ele>310.4</ele><time>2026-05-02T13:42:56.713Z</time></trkpt><trkpt lat="43.0864996" lon="11.5162963"><ele>308.79999999999995</ele><time>2026-05-02T13:42:57.715Z</time></trkpt><trkpt lat="43.0865387" lon="11.5164315"><ele>307.2</ele><time>2026-05-02T13:42:58.701Z</time></trkpt><trkpt lat="43.0865582" lon="11.5165843"><ele>305.59999999999997</ele><time>2026-05-02T13:42:59.694Z</time></trkpt><trkpt lat="43.0865605" lon="11.5167318"><ele>304.0</ele><time>2026-05-02T13:43:00.701Z</time></trkpt><trkpt lat="43.0865537" lon="11.5168806"><ele>304.0</ele><time>2026-05-02T13:43:01.702Z</time></trkpt><trkpt lat="43.0865383" lon="11.5170449"><ele>304.0</ele><time>2026-05-02T13:43:02.708Z</time></trkpt><trkpt lat="43.0865155" lon="11.517221"><ele>304.0</ele><time>2026-05-02T13:43:03.706Z</time></trkpt><trkpt lat="43.0864987" lon="11.5174359"><ele>304.0</ele><time>2026-05-02T13:43:04.694Z</time></trkpt><trkpt lat="43.086474" lon="11.5176889"><ele>300.0</ele><time>2026-05-02T13:43:05.701Z</time></trkpt><trkpt lat="43.0864483" lon="11.5179843"><ele>296.0</ele><time>2026-05-02T13:43:06.711Z</time></trkpt><trkpt lat="43.0864227" lon="11.5183072"><ele>296.0</ele><time>2026-05-02T13:43:07.709Z</time></trkpt><trkpt lat="43.0863882" lon="11.5186526"><ele>296.0</ele><time>2026-05-02T13:43:08.702Z</time></trkpt><trkpt lat="43.0863572" lon="11.5190024"><ele>296.0</ele><time>2026-05-02T13:43:09.706Z</time></trkpt><trkpt lat="43.0863236" lon="11.5193288"><ele>296.0</ele><time>2026-05-02T13:43:10.709Z</time></trkpt><trkpt lat="43.0862948" lon="11.5196147"><ele>296.0</ele><time>2026-05-02T13:43:11.695Z</time></trkpt><trkpt lat="43.0862633" lon="11.5198685"><ele>296.0</ele><time>2026-05-02T13:43:12.698Z</time></trkpt><trkpt lat="43.086234" lon="11.5201109"><ele>296.0</ele><time>2026-05-02T13:43:13.7Z</time></trkpt><trkpt lat="43.086196" lon="11.5203336"><ele>297.0</ele><time>2026-05-02T13:43:14.702Z</time></trkpt><trkpt lat="43.086137" lon="11.5205357"><ele>298.0</ele><time>2026-05-02T13:43:15.704Z</time></trkpt><trkpt lat="43.0860527" lon="11.520739"><ele>299.0</ele><time>2026-05-02T13:43:16.707Z</time></trkpt><trkpt lat="43.0859529" lon="11.5209153"><ele>299.0</ele><time>2026-05-02T13:43:17.707Z</time></trkpt><trkpt lat="43.0858341" lon="11.5210718"><ele>299.0</ele><time>2026-05-02T13:43:18.706Z</time></trkpt><trkpt lat="43.0857051" lon="11.5212088"><ele>299.0</ele><time>2026-05-02T13:43:19.709Z</time></trkpt><trkpt lat="43.0855446" lon="11.5213371"><ele>298.6666666666667</ele><time>2026-05-02T13:43:20.707Z</time></trkpt><trkpt lat="43.0853706" lon="11.5214459"><ele>298.3333333333333</ele><time>2026-05-02T13:43:21.708Z</time></trkpt><trkpt lat="43.0851711" lon="11.5215362"><ele>298.0</ele><time>2026-05-02T13:43:22.706Z</time></trkpt><trkpt lat="43.0849523" lon="11.5216298"><ele>297.0</ele><time>2026-05-02T13:43:23.711Z</time></trkpt><trkpt lat="43.0847277" lon="11.521722"><ele>296.0</ele><time>2026-05-02T13:43:24.701Z</time></trkpt><trkpt lat="43.0845343" lon="11.5218187"><ele>295.0</ele><time>2026-05-02T13:43:25.708Z</time></trkpt><trkpt lat="43.084363" lon="11.5219004"><ele>295.0</ele><time>2026-05-02T13:43:26.708Z</time></trkpt><trkpt lat="43.0842014" lon="11.5219733"><ele>295.0</ele><time>2026-05-02T13:43:27.7Z</time></trkpt><trkpt lat="43.0840502" lon="11.5220474"><ele>295.0</ele><time>2026-05-02T13:43:28.699Z</time></trkpt><trkpt lat="43.0839052" lon="11.5221318"><ele>296.0</ele><time>2026-05-02T13:43:29.709Z</time></trkpt><trkpt lat="43.0837747" lon="11.5222342"><ele>297.0</ele><time>2026-05-02T13:43:30.701Z</time></trkpt><trkpt lat="43.08366" lon="11.522352"><ele>298.0</ele><time>2026-05-02T13:43:31.708Z</time></trkpt><trkpt lat="43.0835663" lon="11.5224992"><ele>299.0</ele><time>2026-05-02T13:43:32.706Z</time></trkpt><trkpt lat="43.0834823" lon="11.5226847"><ele>299.0</ele><time>2026-05-02T13:43:33.713Z</time></trkpt><trkpt lat="43.0834167" lon="11.5228812"><ele>299.0</ele><time>2026-05-02T13:43:34.699Z</time></trkpt><trkpt lat="43.0833589" lon="11.523116"><ele>299.0</ele><time>2026-05-02T13:43:35.704Z</time></trkpt><trkpt lat="43.0833092" lon="11.5233479"><ele>299.0</ele><time>2026-05-02T13:43:36.703Z</time></trkpt><trkpt lat="43.083277" lon="11.5235518"><ele>299.0</ele><time>2026-05-02T13:43:37.709Z</time></trkpt><trkpt lat="43.0832271" lon="11.5237031"><ele>299.0</ele><time>2026-05-02T13:43:38.707Z</time></trkpt><trkpt lat="43.0831786" lon="11.5238294"><ele>299.0</ele><time>2026-05-02T13:43:39.708Z</time></trkpt><trkpt lat="43.0831236" lon="11.5239395"><ele>298.5</ele><time>2026-05-02T13:43:40.706Z</time></trkpt><trkpt lat="43.0830533" lon="11.5240349"><ele>298.0</ele><time>2026-05-02T13:43:41.703Z</time></trkpt><trkpt lat="43.0829545" lon="11.5241131"><ele>297.5</ele><time>2026-05-02T13:43:42.731Z</time></trkpt><trkpt lat="43.0828209" lon="11.5241859"><ele>297.0</ele><time>2026-05-02T13:43:43.706Z</time></trkpt><trkpt lat="43.0826811" lon="11.5242639"><ele>297.0</ele><time>2026-05-02T13:43:44.709Z</time></trkpt><trkpt lat="43.082542" lon="11.5243649"><ele>297.0</ele><time>2026-05-02T13:43:45.706Z</time></trkpt><trkpt lat="43.0823965" lon="11.5244868"><ele>297.0</ele><time>2026-05-02T13:43:46.706Z</time></trkpt><trkpt lat="43.0822658" lon="11.5246184"><ele>295.75</ele><time>2026-05-02T13:43:47.711Z</time></trkpt><trkpt lat="43.0821585" lon="11.524748"><ele>294.5</ele><time>2026-05-02T13:43:48.705Z</time></trkpt><trkpt lat="43.0820615" lon="11.5248759"><ele>293.25</ele><time>2026-05-02T13:43:49.706Z</time></trkpt><trkpt lat="43.0819706" lon="11.5249914"><ele>292.0</ele><time>2026-05-02T13:43:50.705Z</time></trkpt><trkpt lat="43.0818897" lon="11.5250945"><ele>292.0</ele><time>2026-05-02T13:43:51.704Z</time></trkpt><trkpt lat="43.0818146" lon="11.525203"><ele>292.0</ele><time>2026-05-02T13:43:52.708Z</time></trkpt><trkpt lat="43.0817393" lon="11.5253122"><ele>292.0</ele><time>2026-05-02T13:43:53.71Z</time></trkpt><trkpt lat="43.0816599" lon="11.5254122"><ele>292.0</ele><time>2026-05-02T13:43:54.71Z</time></trkpt><trkpt lat="43.0815889" lon="11.5255205"><ele>292.0</ele><time>2026-05-02T13:43:55.705Z</time></trkpt><trkpt lat="43.081524" lon="11.5256255"><ele>292.2</ele><time>2026-05-02T13:43:56.695Z</time></trkpt><trkpt lat="43.0814656" lon="11.525731"><ele>292.4</ele><time>2026-05-02T13:43:57.704Z</time></trkpt><trkpt lat="43.0814123" lon="11.5258351"><ele>292.6</ele><time>2026-05-02T13:43:58.697Z</time></trkpt><trkpt lat="43.0813661" lon="11.5259413"><ele>292.8</ele><time>2026-05-02T13:43:59.711Z</time></trkpt><trkpt lat="43.0813198" lon="11.5260571"><ele>293.0</ele><time>2026-05-02T13:44:00.704Z</time></trkpt><trkpt lat="43.0812714" lon="11.5261762"><ele>293.6</ele><time>2026-05-02T13:44:01.705Z</time></trkpt><trkpt lat="43.0812189" lon="11.5262956"><ele>294.20000000000005</ele><time>2026-05-02T13:44:02.701Z</time></trkpt><trkpt lat="43.0811642" lon="11.5264259"><ele>294.8</ele><time>2026-05-02T13:44:03.709Z</time></trkpt><trkpt lat="43.0811127" lon="11.5265549"><ele>295.40000000000003</ele><time>2026-05-02T13:44:04.691Z</time></trkpt><trkpt lat="43.0810621" lon="11.5266955"><ele>296.0</ele><time>2026-05-02T13:44:05.702Z</time></trkpt><trkpt lat="43.0810069" lon="11.5268353"><ele>296.0</ele><time>2026-05-02T13:44:06.708Z</time></trkpt><trkpt lat="43.0809527" lon="11.5269759"><ele>296.0</ele><time>2026-05-02T13:44:07.708Z</time></trkpt><trkpt lat="43.0808987" lon="11.5271162"><ele>296.0</ele><time>2026-05-02T13:44:08.701Z</time></trkpt><trkpt lat="43.0808448" lon="11.5272522"><ele>296.0</ele><time>2026-05-02T13:44:09.703Z</time></trkpt><trkpt lat="43.0807873" lon="11.527388"><ele>298.40000000000003</ele><time>2026-05-02T13:44:10.706Z</time></trkpt><trkpt lat="43.0807346" lon="11.527521"><ele>300.8</ele><time>2026-05-02T13:44:11.694Z</time></trkpt><trkpt lat="43.0806839" lon="11.527653"><ele>303.20000000000005</ele><time>2026-05-02T13:44:12.719Z</time></trkpt><trkpt lat="43.0806351" lon="11.5277784"><ele>305.6</ele><time>2026-05-02T13:44:13.707Z</time></trkpt><trkpt lat="43.0805876" lon="11.5279117"><ele>308.0</ele><time>2026-05-02T13:44:14.698Z</time></trkpt><trkpt lat="43.0805368" lon="11.5280402"><ele>309.2</ele><time>2026-05-02T13:44:15.705Z</time></trkpt><trkpt lat="43.0804845" lon="11.528168"><ele>310.4</ele><time>2026-05-02T13:44:16.704Z</time></trkpt><trkpt lat="43.0804342" lon="11.5282908"><ele>311.59999999999997</ele><time>2026-05-02T13:44:17.711Z</time></trkpt><trkpt lat="43.0803889" lon="11.5284142"><ele>312.8</ele><time>2026-05-02T13:44:18.708Z</time></trkpt><trkpt lat="43.0803438" lon="11.5285316"><ele>314.0</ele><time>2026-05-02T13:44:19.702Z</time></trkpt><trkpt lat="43.0802995" lon="11.5286555"><ele>313.0</ele><time>2026-05-02T13:44:20.698Z</time></trkpt><trkpt lat="43.0802551" lon="11.5287808"><ele>312.0</ele><time>2026-05-02T13:44:21.701Z</time></trkpt><trkpt lat="43.0802091" lon="11.5289119"><ele>311.0</ele><time>2026-05-02T13:44:22.697Z</time></trkpt><trkpt lat="43.0801675" lon="11.5290471"><ele>310.0</ele><time>2026-05-02T13:44:23.705Z</time></trkpt><trkpt lat="43.0801269" lon="11.529185"><ele>309.0</ele><time>2026-05-02T13:44:24.704Z</time></trkpt><trkpt lat="43.0800938" lon="11.529322"><ele>309.0</ele><time>2026-05-02T13:44:25.714Z</time></trkpt><trkpt lat="43.0800668" lon="11.5294685"><ele>309.0</ele><time>2026-05-02T13:44:26.708Z</time></trkpt><trkpt lat="43.0800403" lon="11.5296337"><ele>309.0</ele><time>2026-05-02T13:44:27.708Z</time></trkpt><trkpt lat="43.0800171" lon="11.5298098"><ele>309.0</ele><time>2026-05-02T13:44:28.705Z</time></trkpt><trkpt lat="43.0800058" lon="11.5300088"><ele>308.0</ele><time>2026-05-02T13:44:29.703Z</time></trkpt><trkpt lat="43.0800074" lon="11.530238"><ele>307.0</ele><time>2026-05-02T13:44:30.702Z</time></trkpt><trkpt lat="43.0800034" lon="11.5304895"><ele>306.0</ele><time>2026-05-02T13:44:31.706Z</time></trkpt><trkpt lat="43.080008" lon="11.5307215"><ele>304.0</ele><time>2026-05-02T13:44:32.702Z</time></trkpt><trkpt lat="43.0799952" lon="11.530959"><ele>302.0</ele><time>2026-05-02T13:44:33.703Z</time></trkpt><trkpt lat="43.0799667" lon="11.5311922"><ele>300.0</ele><time>2026-05-02T13:44:34.704Z</time></trkpt><trkpt lat="43.0799175" lon="11.5314141"><ele>299.0</ele><time>2026-05-02T13:44:35.696Z</time></trkpt><trkpt lat="43.0798526" lon="11.5316328"><ele>298.0</ele><time>2026-05-02T13:44:36.709Z</time></trkpt><trkpt lat="43.0797818" lon="11.5318191"><ele>297.0</ele><time>2026-05-02T13:44:37.693Z</time></trkpt><trkpt lat="43.0797177" lon="11.5319833"><ele>298.4</ele><time>2026-05-02T13:44:38.708Z</time></trkpt><trkpt lat="43.0796639" lon="11.532135"><ele>299.79999999999995</ele><time>2026-05-02T13:44:39.71Z</time></trkpt><trkpt lat="43.0796334" lon="11.5322793"><ele>301.2</ele><time>2026-05-02T13:44:40.715Z</time></trkpt><trkpt lat="43.0796223" lon="11.5324209"><ele>302.59999999999997</ele><time>2026-05-02T13:44:41.705Z</time></trkpt><trkpt lat="43.0796378" lon="11.5325462"><ele>304.0</ele><time>2026-05-02T13:44:42.708Z</time></trkpt><trkpt lat="43.0796724" lon="11.5326759"><ele>304.0</ele><time>2026-05-02T13:44:43.706Z</time></trkpt><trkpt lat="43.0797132" lon="11.5327978"><ele>304.0</ele><time>2026-05-02T13:44:44.707Z</time></trkpt><trkpt lat="43.0797551" lon="11.5329143"><ele>304.0</ele><time>2026-05-02T13:44:45.714Z</time></trkpt><trkpt lat="43.0797863" lon="11.5330402"><ele>304.0</ele><time>2026-05-02T13:44:46.706Z</time></trkpt><trkpt lat="43.0798027" lon="11.5331608"><ele>304.0</ele><time>2026-05-02T13:44:47.705Z</time></trkpt><trkpt lat="43.0797995" lon="11.5332961"><ele>305.59999999999997</ele><time>2026-05-02T13:44:48.707Z</time></trkpt><trkpt lat="43.0797881" lon="11.5334232"><ele>307.2</ele><time>2026-05-02T13:44:49.716Z</time></trkpt><trkpt lat="43.0797621" lon="11.5335486"><ele>308.79999999999995</ele><time>2026-05-02T13:44:50.705Z</time></trkpt><trkpt lat="43.0797429" lon="11.5336842"><ele>310.4</ele><time>2026-05-02T13:44:51.708Z</time></trkpt><trkpt lat="43.0797377" lon="11.5338242"><ele>312.0</ele><time>2026-05-02T13:44:52.705Z</time></trkpt><trkpt lat="43.0797463" lon="11.5339713"><ele>313.25</ele><time>2026-05-02T13:44:53.707Z</time></trkpt><trkpt lat="43.0797638" lon="11.5341214"><ele>314.5</ele><time>2026-05-02T13:44:54.705Z</time></trkpt><trkpt lat="43.0797896" lon="11.534281"><ele>315.75</ele><time>2026-05-02T13:44:55.709Z</time></trkpt><trkpt lat="43.0798227" lon="11.5344442"><ele>317.0</ele><time>2026-05-02T13:44:56.695Z</time></trkpt><trkpt lat="43.0798621" lon="11.5345993"><ele>317.4</ele><time>2026-05-02T13:44:57.704Z</time></trkpt><trkpt lat="43.0799098" lon="11.5347353"><ele>317.79999999999995</ele><time>2026-05-02T13:44:58.697Z</time></trkpt><trkpt lat="43.0799645" lon="11.5348595"><ele>318.2</ele><time>2026-05-02T13:44:59.702Z</time></trkpt><trkpt lat="43.0800297" lon="11.5349815"><ele>318.59999999999997</ele><time>2026-05-02T13:45:00.695Z</time></trkpt><trkpt lat="43.0801037" lon="11.5350986"><ele>319.0</ele><time>2026-05-02T13:45:01.708Z</time></trkpt><trkpt lat="43.0801666" lon="11.5352128"><ele>317.4</ele><time>2026-05-02T13:45:02.704Z</time></trkpt><trkpt lat="43.0802149" lon="11.5353313"><ele>315.79999999999995</ele><time>2026-05-02T13:45:03.708Z</time></trkpt><trkpt lat="43.0802422" lon="11.5354548"><ele>314.20000000000005</ele><time>2026-05-02T13:45:04.708Z</time></trkpt><trkpt lat="43.0802475" lon="11.5355918"><ele>312.6</ele><time>2026-05-02T13:45:05.702Z</time></trkpt><trkpt lat="43.08024" lon="11.5357381"><ele>311.0</ele><time>2026-05-02T13:45:06.706Z</time></trkpt><trkpt lat="43.0802263" lon="11.5358835"><ele>310.0</ele><time>2026-05-02T13:45:07.701Z</time></trkpt><trkpt lat="43.0802194" lon="11.5360492"><ele>309.0</ele><time>2026-05-02T13:45:08.705Z</time></trkpt><trkpt lat="43.0802247" lon="11.5362097"><ele>308.0</ele><time>2026-05-02T13:45:09.714Z</time></trkpt><trkpt lat="43.0802371" lon="11.5363609"><ele>307.0</ele><time>2026-05-02T13:45:10.705Z</time></trkpt><trkpt lat="43.0802515" lon="11.5365032"><ele>305.2</ele><time>2026-05-02T13:45:11.703Z</time></trkpt><trkpt lat="43.0802566" lon="11.5366421"><ele>303.4</ele><time>2026-05-02T13:45:12.703Z</time></trkpt><trkpt lat="43.0802508" lon="11.5367745"><ele>301.6</ele><time>2026-05-02T13:45:13.694Z</time></trkpt><trkpt lat="43.0802366" lon="11.5369009"><ele>299.8</ele><time>2026-05-02T13:45:14.706Z</time></trkpt><trkpt lat="43.0802337" lon="11.5370292"><ele>298.0</ele><time>2026-05-02T13:45:15.711Z</time></trkpt><trkpt lat="43.0802546" lon="11.5371411"><ele>296.6</ele><time>2026-05-02T13:45:16.704Z</time></trkpt><trkpt lat="43.0803027" lon="11.537245"><ele>295.20000000000005</ele><time>2026-05-02T13:45:17.703Z</time></trkpt><trkpt lat="43.0803721" lon="11.5373353"><ele>293.8</ele><time>2026-05-02T13:45:18.704Z</time></trkpt><trkpt lat="43.0804515" lon="11.5374125"><ele>292.40000000000003</ele><time>2026-05-02T13:45:19.708Z</time></trkpt><trkpt lat="43.0805397" lon="11.537489"><ele>291.0</ele><time>2026-05-02T13:45:20.708Z</time></trkpt><trkpt lat="43.0806129" lon="11.5375783"><ele>291.0</ele><time>2026-05-02T13:45:21.715Z</time></trkpt><trkpt lat="43.0806686" lon="11.5377004"><ele>291.0</ele><time>2026-05-02T13:45:22.708Z</time></trkpt><trkpt lat="43.0807215" lon="11.5378583"><ele>291.0</ele><time>2026-05-02T13:45:23.707Z</time></trkpt><trkpt lat="43.0807691" lon="11.5380677"><ele>291.0</ele><time>2026-05-02T13:45:24.702Z</time></trkpt><trkpt lat="43.0808089" lon="11.5383011"><ele>289.6666666666667</ele><time>2026-05-02T13:45:25.695Z</time></trkpt><trkpt lat="43.0808388" lon="11.5385638"><ele>288.33333333333337</ele><time>2026-05-02T13:45:26.698Z</time></trkpt><trkpt lat="43.080882" lon="11.5388098"><ele>287.0</ele><time>2026-05-02T13:45:27.721Z</time></trkpt><trkpt lat="43.0809188" lon="11.5390291"><ele>286.75</ele><time>2026-05-02T13:45:28.708Z</time></trkpt><trkpt lat="43.0809559" lon="11.5392121"><ele>286.5</ele><time>2026-05-02T13:45:29.7Z</time></trkpt><trkpt lat="43.0810051" lon="11.5393887"><ele>286.25</ele><time>2026-05-02T13:45:30.718Z</time></trkpt><trkpt lat="43.0810649" lon="11.5395488"><ele>286.0</ele><time>2026-05-02T13:45:31.705Z</time></trkpt><trkpt lat="43.0811586" lon="11.5396944"><ele>287.0</ele><time>2026-05-02T13:45:32.715Z</time></trkpt><trkpt lat="43.0812849" lon="11.5398511"><ele>288.0</ele><time>2026-05-02T13:45:33.698Z</time></trkpt><trkpt lat="43.0814056" lon="11.5399942"><ele>289.0</ele><time>2026-05-02T13:45:34.707Z</time></trkpt><trkpt lat="43.0814992" lon="11.5401149"><ele>289.0</ele><time>2026-05-02T13:45:35.701Z</time></trkpt><trkpt lat="43.0815706" lon="11.5402413"><ele>289.0</ele><time>2026-05-02T13:45:36.703Z</time></trkpt><trkpt lat="43.0816294" lon="11.5403933"><ele>289.0</ele><time>2026-05-02T13:45:37.705Z</time></trkpt><trkpt lat="43.081667" lon="11.5405692"><ele>289.0</ele><time>2026-05-02T13:45:38.701Z</time></trkpt><trkpt lat="43.0816969" lon="11.5407736"><ele>290.0</ele><time>2026-05-02T13:45:39.704Z</time></trkpt><trkpt lat="43.0817182" lon="11.5409774"><ele>291.0</ele><time>2026-05-02T13:45:40.701Z</time></trkpt><trkpt lat="43.0817303" lon="11.5411412"><ele>292.0</ele><time>2026-05-02T13:45:41.694Z</time></trkpt><trkpt lat="43.0817486" lon="11.5412726"><ele>293.0</ele><time>2026-05-02T13:45:42.705Z</time></trkpt><trkpt lat="43.0817708" lon="11.5413982"><ele>293.5</ele><time>2026-05-02T13:45:43.703Z</time></trkpt><trkpt lat="43.0817893" lon="11.5414992"><ele>294.0</ele><time>2026-05-02T13:45:44.705Z</time></trkpt><trkpt lat="43.081811" lon="11.5416028"><ele>294.5</ele><time>2026-05-02T13:45:45.7Z</time></trkpt><trkpt lat="43.0818366" lon="11.5417117"><ele>295.0</ele><time>2026-05-02T13:45:46.7Z</time></trkpt><trkpt lat="43.0818614" lon="11.541817"><ele>295.5</ele><time>2026-05-02T13:45:47.703Z</time></trkpt><trkpt lat="43.0818854" lon="11.5419278"><ele>296.0</ele><time>2026-05-02T13:45:48.711Z</time></trkpt><trkpt lat="43.0819028" lon="11.5420489"><ele>296.0</ele><time>2026-05-02T13:45:49.7Z</time></trkpt><trkpt lat="43.0819112" lon="11.5421745"><ele>296.0</ele><time>2026-05-02T13:45:50.701Z</time></trkpt><trkpt lat="43.0819118" lon="11.5423006"><ele>296.0</ele><time>2026-05-02T13:45:51.707Z</time></trkpt><trkpt lat="43.0819097" lon="11.5424305"><ele>296.0</ele><time>2026-05-02T13:45:52.705Z</time></trkpt><trkpt lat="43.0819128" lon="11.5425611"><ele>296.0</ele><time>2026-05-02T13:45:53.702Z</time></trkpt><trkpt lat="43.081934" lon="11.5426847"><ele>296.0</ele><time>2026-05-02T13:45:54.711Z</time></trkpt><trkpt lat="43.0819739" lon="11.542802"><ele>296.0</ele><time>2026-05-02T13:45:55.708Z</time></trkpt><trkpt lat="43.0820295" lon="11.5428982"><ele>296.0</ele><time>2026-05-02T13:45:56.705Z</time></trkpt><trkpt lat="43.0821025" lon="11.5429708"><ele>296.0</ele><time>2026-05-02T13:45:57.705Z</time></trkpt><trkpt lat="43.0821814" lon="11.5430048"><ele>296.0</ele><time>2026-05-02T13:45:58.718Z</time></trkpt><trkpt lat="43.0822605" lon="11.5430215"><ele>296.0</ele><time>2026-05-02T13:45:59.701Z</time></trkpt><trkpt lat="43.0823432" lon="11.5430429"><ele>294.8</ele><time>2026-05-02T13:46:00.705Z</time></trkpt><trkpt lat="43.0824375" lon="11.5430753"><ele>293.6</ele><time>2026-05-02T13:46:01.701Z</time></trkpt><trkpt lat="43.0825352" lon="11.5431092"><ele>292.4</ele><time>2026-05-02T13:46:02.697Z</time></trkpt><trkpt lat="43.0826386" lon="11.5431504"><ele>291.2</ele><time>2026-05-02T13:46:03.707Z</time></trkpt><trkpt lat="43.0827447" lon="11.5431871"><ele>290.0</ele><time>2026-05-02T13:46:04.702Z</time></trkpt><trkpt lat="43.0828585" lon="11.5432091"><ele>290.0</ele><time>2026-05-02T13:46:05.705Z</time></trkpt><trkpt lat="43.0829745" lon="11.5432246"><ele>290.0</ele><time>2026-05-02T13:46:06.697Z</time></trkpt><trkpt lat="43.0830907" lon="11.543246"><ele>290.0</ele><time>2026-05-02T13:46:07.697Z</time></trkpt><trkpt lat="43.0831963" lon="11.5432686"><ele>290.0</ele><time>2026-05-02T13:46:08.703Z</time></trkpt><trkpt lat="43.0832994" lon="11.5432995"><ele>290.0</ele><time>2026-05-02T13:46:09.709Z</time></trkpt><trkpt lat="43.0833908" lon="11.5433277"><ele>289.1666666666667</ele><time>2026-05-02T13:46:10.712Z</time></trkpt><trkpt lat="43.0834858" lon="11.5433478"><ele>288.33333333333337</ele><time>2026-05-02T13:46:11.707Z</time></trkpt><trkpt lat="43.0835738" lon="11.5433485"><ele>287.5</ele><time>2026-05-02T13:46:12.703Z</time></trkpt><trkpt lat="43.0836563" lon="11.5433089"><ele>286.6666666666667</ele><time>2026-05-02T13:46:13.705Z</time></trkpt><trkpt lat="43.0837376" lon="11.5432618"><ele>285.8333333333333</ele><time>2026-05-02T13:46:14.705Z</time></trkpt><trkpt lat="43.0838181" lon="11.5432122"><ele>285.0</ele><time>2026-05-02T13:46:15.71Z</time></trkpt><trkpt lat="43.0839159" lon="11.5431825"><ele>285.0</ele><time>2026-05-02T13:46:16.707Z</time></trkpt><trkpt lat="43.084016" lon="11.5431868"><ele>285.0</ele><time>2026-05-02T13:46:17.711Z</time></trkpt><trkpt lat="43.0841257" lon="11.5432156"><ele>285.0</ele><time>2026-05-02T13:46:18.707Z</time></trkpt><trkpt lat="43.0842475" lon="11.5432692"><ele>285.0</ele><time>2026-05-02T13:46:19.706Z</time></trkpt><trkpt lat="43.0843656" lon="11.5433371"><ele>282.3333333333333</ele><time>2026-05-02T13:46:20.713Z</time></trkpt><trkpt lat="43.0845043" lon="11.5434071"><ele>279.66666666666663</ele><time>2026-05-02T13:46:21.717Z</time></trkpt><trkpt lat="43.0846607" lon="11.5434757"><ele>277.0</ele><time>2026-05-02T13:46:22.699Z</time></trkpt><trkpt lat="43.0848227" lon="11.5435463"><ele>274.66666666666663</ele><time>2026-05-02T13:46:23.702Z</time></trkpt><trkpt lat="43.084999" lon="11.5436379"><ele>272.3333333333333</ele><time>2026-05-02T13:46:24.707Z</time></trkpt><trkpt lat="43.0851614" lon="11.5437409"><ele>270.0</ele><time>2026-05-02T13:46:25.709Z</time></trkpt><trkpt lat="43.085318" lon="11.5438311"><ele>270.0</ele><time>2026-05-02T13:46:26.707Z</time></trkpt><trkpt lat="43.0854716" lon="11.5438998"><ele>270.0</ele><time>2026-05-02T13:46:27.708Z</time></trkpt><trkpt lat="43.0856134" lon="11.543957"><ele>270.0</ele><time>2026-05-02T13:46:28.702Z</time></trkpt><trkpt lat="43.0857557" lon="11.5439971"><ele>270.0</ele><time>2026-05-02T13:46:29.702Z</time></trkpt><trkpt lat="43.0859062" lon="11.5440196"><ele>270.0</ele><time>2026-05-02T13:46:30.706Z</time></trkpt><trkpt lat="43.0860618" lon="11.5440454"><ele>270.0</ele><time>2026-05-02T13:46:31.697Z</time></trkpt><trkpt lat="43.0862092" lon="11.5440826"><ele>270.0</ele><time>2026-05-02T13:46:32.702Z</time></trkpt><trkpt lat="43.0863432" lon="11.5441305"><ele>270.0</ele><time>2026-05-02T13:46:33.702Z</time></trkpt><trkpt lat="43.0864615" lon="11.5441896"><ele>270.0</ele><time>2026-05-02T13:46:34.703Z</time></trkpt><trkpt lat="43.0865657" lon="11.5442555"><ele>270.0</ele><time>2026-05-02T13:46:35.706Z</time></trkpt><trkpt lat="43.0866636" lon="11.5443288"><ele>270.2</ele><time>2026-05-02T13:46:36.698Z</time></trkpt><trkpt lat="43.0867547" lon="11.5443984"><ele>270.4</ele><time>2026-05-02T13:46:37.714Z</time></trkpt><trkpt lat="43.0868376" lon="11.5444671"><ele>270.6</ele><time>2026-05-02T13:46:38.702Z</time></trkpt><trkpt lat="43.0869065" lon="11.5445273"><ele>270.8</ele><time>2026-05-02T13:46:39.699Z</time></trkpt><trkpt lat="43.0869844" lon="11.5446271"><ele>271.0</ele><time>2026-05-02T13:46:41.713Z</time></trkpt><trkpt lat="43.0870359" lon="11.5446976"><ele>271.0</ele><time>2026-05-02T13:47:10.702Z</time></trkpt><trkpt lat="43.0870824" lon="11.5447627"><ele>271.0</ele><time>2026-05-02T13:47:13.698Z</time></trkpt><trkpt lat="43.0870852" lon="11.5448821"><ele>271.0</ele><time>2026-05-02T13:47:17.71Z</time></trkpt><trkpt lat="43.0870442" lon="11.5450236"><ele>271.0</ele><time>2026-05-02T13:47:19.701Z</time></trkpt><trkpt lat="43.0869896" lon="11.5451691"><ele>271.0</ele><time>2026-05-02T13:47:21.702Z</time></trkpt><trkpt lat="43.0869629" lon="11.5452546"><ele>271.0</ele><time>2026-05-02T13:47:22.711Z</time></trkpt><trkpt lat="43.0869346" lon="11.5453369"><ele>271.0</ele><time>2026-05-02T13:47:23.702Z</time></trkpt><trkpt lat="43.0869093" lon="11.5454256"><ele>271.0</ele><time>2026-05-02T13:47:24.719Z</time></trkpt><trkpt lat="43.0868811" lon="11.5455137"><ele>271.0</ele><time>2026-05-02T13:47:25.705Z</time></trkpt><trkpt lat="43.0868496" lon="11.545616"><ele>271.0</ele><time>2026-05-02T13:47:26.704Z</time></trkpt><trkpt lat="43.0868231" lon="11.5457137"><ele>271.0</ele><time>2026-05-02T13:47:27.712Z</time></trkpt><trkpt lat="43.0868013" lon="11.5457983"><ele>271.0</ele><time>2026-05-02T13:47:28.706Z</time></trkpt><trkpt lat="43.0867784" lon="11.5458819"><ele>270.3333333333333</ele><time>2026-05-02T13:47:29.702Z</time></trkpt><trkpt lat="43.0867501" lon="11.5460026"><ele>269.66666666666663</ele><time>2026-05-02T13:47:31.704Z</time></trkpt><trkpt lat="43.0867223" lon="11.5461132"><ele>269.0</ele><time>2026-05-02T13:47:36.712Z</time></trkpt><trkpt lat="43.086695" lon="11.5462266"><ele>268.3333333333333</ele><time>2026-05-02T13:47:38.707Z</time></trkpt><trkpt lat="43.086667" lon="11.5463651"><ele>267.6666666666667</ele><time>2026-05-02T13:47:40.713Z</time></trkpt><trkpt lat="43.0866482" lon="11.5464531"><ele>267.0</ele><time>2026-05-02T13:47:41.694Z</time></trkpt><trkpt lat="43.0866273" lon="11.546576"><ele>265.0</ele><time>2026-05-02T13:47:42.7Z</time></trkpt><trkpt lat="43.086591" lon="11.5467025"><ele>263.0</ele><time>2026-05-02T13:47:43.716Z</time></trkpt><trkpt lat="43.0865519" lon="11.5468655"><ele>261.0</ele><time>2026-05-02T13:47:44.697Z</time></trkpt><trkpt lat="43.086515" lon="11.5470475"><ele>259.0</ele><time>2026-05-02T13:47:45.705Z</time></trkpt><trkpt lat="43.0864782" lon="11.5472214"><ele>258.8</ele><time>2026-05-02T13:47:46.704Z</time></trkpt><trkpt lat="43.0864493" lon="11.5473735"><ele>258.59999999999997</ele><time>2026-05-02T13:47:47.709Z</time></trkpt><trkpt lat="43.0864203" lon="11.5475192"><ele>258.4</ele><time>2026-05-02T13:47:48.727Z</time></trkpt><trkpt lat="43.0864024" lon="11.5476638"><ele>258.2</ele><time>2026-05-02T13:47:49.704Z</time></trkpt><trkpt lat="43.0863803" lon="11.5478104"><ele>258.0</ele><time>2026-05-02T13:47:50.7Z</time></trkpt><trkpt lat="43.0863515" lon="11.5479494"><ele>257.6</ele><time>2026-05-02T13:47:51.709Z</time></trkpt><trkpt lat="43.0863243" lon="11.5480718"><ele>257.20000000000005</ele><time>2026-05-02T13:47:52.697Z</time></trkpt><trkpt lat="43.0863024" lon="11.5481736"><ele>256.8</ele><time>2026-05-02T13:47:53.707Z</time></trkpt><trkpt lat="43.0862972" lon="11.548295"><ele>256.40000000000003</ele><time>2026-05-02T13:47:55.699Z</time></trkpt><trkpt lat="43.0862877" lon="11.5484083"><ele>256.0</ele><time>2026-05-02T13:47:57.707Z</time></trkpt><trkpt lat="43.0863483" lon="11.5485358"><ele>255.99999999999997</ele><time>2026-05-02T13:47:59.699Z</time></trkpt><trkpt lat="43.0863976" lon="11.5486624"><ele>256.0</ele><time>2026-05-02T13:48:01.709Z</time></trkpt><trkpt lat="43.0863991" lon="11.5487717"><ele>256.0</ele><time>2026-05-02T13:48:20.701Z</time></trkpt><trkpt lat="43.0863978" lon="11.5489305"><ele>256.0</ele><time>2026-05-02T13:48:22.7Z</time></trkpt><trkpt lat="43.0863975" lon="11.5490355"><ele>255.99999999999997</ele><time>2026-05-02T13:48:23.692Z</time></trkpt><trkpt lat="43.0863899" lon="11.5491317"><ele>256.0</ele><time>2026-05-02T13:48:24.704Z</time></trkpt><trkpt lat="43.0863773" lon="11.5492311"><ele>256.3333333333333</ele><time>2026-05-02T13:48:25.703Z</time></trkpt><trkpt lat="43.0863461" lon="11.5493482"><ele>256.66666666666663</ele><time>2026-05-02T13:48:27.713Z</time></trkpt><trkpt lat="43.0862754" lon="11.5493833"><ele>257.0</ele><time>2026-05-02T13:48:29.691Z</time></trkpt><trkpt lat="43.0862061" lon="11.5493997"><ele>257.3333333333333</ele><time>2026-05-02T13:48:30.699Z</time></trkpt><trkpt lat="43.0861308" lon="11.5493944"><ele>257.6666666666667</ele><time>2026-05-02T13:48:31.695Z</time></trkpt><trkpt lat="43.0860658" lon="11.5493812"><ele>258.0</ele><time>2026-05-02T13:48:32.705Z</time></trkpt><trkpt lat="43.0859814" lon="11.54936"><ele>258.0</ele><time>2026-05-02T13:48:34.7Z</time></trkpt><trkpt lat="43.0859703" lon="11.5492543"><ele>258.0</ele><time>2026-05-02T13:48:37.717Z</time></trkpt><trkpt lat="43.0860024" lon="11.5491698"><ele>258.0</ele><time>2026-05-02T13:48:38.708Z</time></trkpt><trkpt lat="43.086031" lon="11.549074"><ele>258.0</ele><time>2026-05-02T13:48:39.699Z</time></trkpt><trkpt lat="43.0860672" lon="11.5489501"><ele>258.0</ele><time>2026-05-02T13:48:40.7Z</time></trkpt><trkpt lat="43.0861011" lon="11.5488362"><ele>258.0</ele><time>2026-05-02T13:48:41.707Z</time></trkpt><trkpt lat="43.0861274" lon="11.548735"><ele>257.6666666666667</ele><time>2026-05-02T13:48:42.701Z</time></trkpt><trkpt lat="43.0861522" lon="11.5486469"><ele>257.3333333333333</ele><time>2026-05-02T13:48:43.698Z</time></trkpt><trkpt lat="43.0861808" lon="11.5485535"><ele>257.0</ele><time>2026-05-02T13:48:44.703Z</time></trkpt><trkpt lat="43.0862028" lon="11.5484587"><ele>256.66666666666663</ele><time>2026-05-02T13:48:45.689Z</time></trkpt><trkpt lat="43.0862534" lon="11.5483542"><ele>256.3333333333333</ele><time>2026-05-02T13:48:47.716Z</time></trkpt><trkpt lat="43.0862929" lon="11.5482222"><ele>256.0</ele><time>2026-05-02T13:48:58.697Z</time></trkpt><trkpt lat="43.0863043" lon="11.5481331"><ele>256.0</ele><time>2026-05-02T13:49:00.705Z</time></trkpt><trkpt lat="43.086338" lon="11.5479912"><ele>256.0</ele><time>2026-05-02T13:49:02.702Z</time></trkpt><trkpt lat="43.0863615" lon="11.5478941"><ele>256.0</ele><time>2026-05-02T13:49:03.705Z</time></trkpt><trkpt lat="43.0863839" lon="11.5477705"><ele>256.0</ele><time>2026-05-02T13:49:04.698Z</time></trkpt><trkpt lat="43.0864034" lon="11.5476296"><ele>256.0</ele><time>2026-05-02T13:49:05.706Z</time></trkpt><trkpt lat="43.086427" lon="11.5474919"><ele>256.40000000000003</ele><time>2026-05-02T13:49:06.698Z</time></trkpt><trkpt lat="43.086457" lon="11.5473527"><ele>256.8</ele><time>2026-05-02T13:49:07.695Z</time></trkpt><trkpt lat="43.0864759" lon="11.547207"><ele>257.20000000000005</ele><time>2026-05-02T13:49:08.704Z</time></trkpt><trkpt lat="43.0865055" lon="11.5470586"><ele>257.6</ele><time>2026-05-02T13:49:09.696Z</time></trkpt><trkpt lat="43.0865391" lon="11.5469036"><ele>258.0</ele><time>2026-05-02T13:49:10.704Z</time></trkpt><trkpt lat="43.0865812" lon="11.5467554"><ele>259.6</ele><time>2026-05-02T13:49:11.697Z</time></trkpt><trkpt lat="43.0866232" lon="11.5466162"><ele>261.20000000000005</ele><time>2026-05-02T13:49:12.704Z</time></trkpt><trkpt lat="43.086655" lon="11.5464947"><ele>262.8</ele><time>2026-05-02T13:49:13.709Z</time></trkpt><trkpt lat="43.0866783" lon="11.5463915"><ele>264.40000000000003</ele><time>2026-05-02T13:49:14.699Z</time></trkpt><trkpt lat="43.0867052" lon="11.5462568"><ele>266.0</ele><time>2026-05-02T13:49:16.721Z</time></trkpt><trkpt lat="43.0867184" lon="11.5461585"><ele>266.1666666666667</ele><time>2026-05-02T13:49:19.697Z</time></trkpt><trkpt lat="43.0866719" lon="11.5460599"><ele>266.33333333333337</ele><time>2026-05-02T13:49:39.705Z</time></trkpt><trkpt lat="43.0865484" lon="11.5460568"><ele>266.5</ele><time>2026-05-02T13:49:41.706Z</time></trkpt><trkpt lat="43.0864814" lon="11.5460341"><ele>266.6666666666667</ele><time>2026-05-02T13:49:42.694Z</time></trkpt><trkpt lat="43.0864103" lon="11.5460061"><ele>266.8333333333333</ele><time>2026-05-02T13:49:43.702Z</time></trkpt><trkpt lat="43.0863332" lon="11.5459885"><ele>267.0</ele><time>2026-05-02T13:49:44.709Z</time></trkpt><trkpt lat="43.0862567" lon="11.5459516"><ele>266.1666666666667</ele><time>2026-05-02T13:49:45.706Z</time></trkpt><trkpt lat="43.0861808" lon="11.5459176"><ele>265.3333333333333</ele><time>2026-05-02T13:49:46.7Z</time></trkpt><trkpt lat="43.0860947" lon="11.5458854"><ele>264.5</ele><time>2026-05-02T13:49:47.705Z</time></trkpt><trkpt lat="43.0860098" lon="11.5458555"><ele>263.66666666666663</ele><time>2026-05-02T13:49:48.702Z</time></trkpt><trkpt lat="43.0859285" lon="11.5458207"><ele>262.8333333333333</ele><time>2026-05-02T13:49:49.702Z</time></trkpt><trkpt lat="43.0858587" lon="11.545796"><ele>262.0</ele><time>2026-05-02T13:49:50.706Z</time></trkpt><trkpt lat="43.0857494" lon="11.5458485"><ele>261.8333333333333</ele><time>2026-05-02T13:49:52.703Z</time></trkpt><trkpt lat="43.0856982" lon="11.5459014"><ele>261.66666666666663</ele><time>2026-05-02T13:49:53.707Z</time></trkpt><trkpt lat="43.0856564" lon="11.5459765"><ele>261.5</ele><time>2026-05-02T13:49:54.708Z</time></trkpt><trkpt lat="43.0856073" lon="11.5460894"><ele>261.3333333333333</ele><time>2026-05-02T13:49:55.702Z</time></trkpt><trkpt lat="43.0855549" lon="11.5462124"><ele>261.1666666666667</ele><time>2026-05-02T13:49:56.71Z</time></trkpt><trkpt lat="43.0855026" lon="11.5463275"><ele>261.0</ele><time>2026-05-02T13:49:57.703Z</time></trkpt><trkpt lat="43.0854426" lon="11.5464434"><ele>260.6</ele><time>2026-05-02T13:49:58.708Z</time></trkpt><trkpt lat="43.0853942" lon="11.54654"><ele>260.20000000000005</ele><time>2026-05-02T13:49:59.709Z</time></trkpt><trkpt lat="43.0853406" lon="11.5466386"><ele>259.79999999999995</ele><time>2026-05-02T13:50:00.706Z</time></trkpt><trkpt lat="43.0852795" lon="11.5467437"><ele>259.4</ele><time>2026-05-02T13:50:01.705Z</time></trkpt><trkpt lat="43.0852263" lon="11.5468562"><ele>259.0</ele><time>2026-05-02T13:50:02.693Z</time></trkpt><trkpt lat="43.0851695" lon="11.5469691"><ele>258.4</ele><time>2026-05-02T13:50:03.704Z</time></trkpt><trkpt lat="43.0851177" lon="11.5470899"><ele>257.79999999999995</ele><time>2026-05-02T13:50:04.702Z</time></trkpt><trkpt lat="43.0850606" lon="11.5472152"><ele>257.20000000000005</ele><time>2026-05-02T13:50:05.705Z</time></trkpt><trkpt lat="43.0850021" lon="11.5473421"><ele>256.6</ele><time>2026-05-02T13:50:06.707Z</time></trkpt><trkpt lat="43.0849336" lon="11.5474745"><ele>256.0</ele><time>2026-05-02T13:50:07.694Z</time></trkpt><trkpt lat="43.0848758" lon="11.5476006"><ele>255.4</ele><time>2026-05-02T13:50:08.702Z</time></trkpt><trkpt lat="43.0848219" lon="11.5477234"><ele>254.8</ele><time>2026-05-02T13:50:09.707Z</time></trkpt><trkpt lat="43.0847782" lon="11.5478342"><ele>254.20000000000002</ele><time>2026-05-02T13:50:10.709Z</time></trkpt><trkpt lat="43.0847321" lon="11.5479192"><ele>253.60000000000002</ele><time>2026-05-02T13:50:11.697Z</time></trkpt><trkpt lat="43.0846899" lon="11.5479895"><ele>253.0</ele><time>2026-05-02T13:50:12.702Z</time></trkpt><trkpt lat="43.0846248" lon="11.5481214"><ele>252.2</ele><time>2026-05-02T13:50:14.699Z</time></trkpt><trkpt lat="43.0845912" lon="11.5482086"><ele>251.4</ele><time>2026-05-02T13:50:16.695Z</time></trkpt><trkpt lat="43.0845102" lon="11.5482775"><ele>250.59999999999997</ele><time>2026-05-02T13:50:27.709Z</time></trkpt><trkpt lat="43.0843797" lon="11.5482946"><ele>249.79999999999998</ele><time>2026-05-02T13:50:29.704Z</time></trkpt><trkpt lat="43.0842942" lon="11.5483098"><ele>249.0</ele><time>2026-05-02T13:50:30.706Z</time></trkpt><trkpt lat="43.084197" lon="11.5483156"><ele>248.75</ele><time>2026-05-02T13:50:31.7Z</time></trkpt><trkpt lat="43.0840861" lon="11.5483163"><ele>248.5</ele><time>2026-05-02T13:50:32.707Z</time></trkpt><trkpt lat="43.0839643" lon="11.5483258"><ele>248.25</ele><time>2026-05-02T13:50:33.688Z</time></trkpt><trkpt lat="43.0838403" lon="11.5483319"><ele>248.0</ele><time>2026-05-02T13:50:34.69Z</time></trkpt><trkpt lat="43.0837078" lon="11.5483312"><ele>248.0</ele><time>2026-05-02T13:50:35.699Z</time></trkpt><trkpt lat="43.0835616" lon="11.548335"><ele>248.0</ele><time>2026-05-02T13:50:36.693Z</time></trkpt><trkpt lat="43.0834073" lon="11.5483403"><ele>248.0</ele><time>2026-05-02T13:50:37.691Z</time></trkpt><trkpt lat="43.0832482" lon="11.5483466"><ele>248.66666666666669</ele><time>2026-05-02T13:50:38.686Z</time></trkpt><trkpt lat="43.0830796" lon="11.5483585"><ele>249.33333333333331</ele><time>2026-05-02T13:50:39.703Z</time></trkpt><trkpt lat="43.08291" lon="11.5483637"><ele>250.0</ele><time>2026-05-02T13:50:40.692Z</time></trkpt><trkpt lat="43.0827438" lon="11.548369"><ele>250.0</ele><time>2026-05-02T13:50:41.713Z</time></trkpt><trkpt lat="43.0825809" lon="11.5483686"><ele>250.0</ele><time>2026-05-02T13:50:42.712Z</time></trkpt><trkpt lat="43.082428" lon="11.5483554"><ele>250.0</ele><time>2026-05-02T13:50:43.707Z</time></trkpt><trkpt lat="43.0822908" lon="11.5483104"><ele>250.25</ele><time>2026-05-02T13:50:44.71Z</time></trkpt><trkpt lat="43.0821711" lon="11.5482309"><ele>250.5</ele><time>2026-05-02T13:50:45.698Z</time></trkpt><trkpt lat="43.0820668" lon="11.5481294"><ele>250.75</ele><time>2026-05-02T13:50:46.701Z</time></trkpt><trkpt lat="43.0819888" lon="11.5480078"><ele>251.0</ele><time>2026-05-02T13:50:47.712Z</time></trkpt><trkpt lat="43.0819183" lon="11.5478647"><ele>251.0</ele><time>2026-05-02T13:50:48.703Z</time></trkpt><trkpt lat="43.0818511" lon="11.547708"><ele>251.0</ele><time>2026-05-02T13:50:49.697Z</time></trkpt><trkpt lat="43.0817798" lon="11.5475442"><ele>251.0</ele><time>2026-05-02T13:50:50.697Z</time></trkpt><trkpt lat="43.0816948" lon="11.5473823"><ele>251.0</ele><time>2026-05-02T13:50:51.701Z</time></trkpt><trkpt lat="43.0815983" lon="11.5472325"><ele>250.5</ele><time>2026-05-02T13:50:52.695Z</time></trkpt><trkpt lat="43.0814905" lon="11.5471064"><ele>250.0</ele><time>2026-05-02T13:50:53.702Z</time></trkpt><trkpt lat="43.0813575" lon="11.5470256"><ele>249.5</ele><time>2026-05-02T13:50:54.708Z</time></trkpt><trkpt lat="43.0812011" lon="11.5469831"><ele>249.0</ele><time>2026-05-02T13:50:55.703Z</time></trkpt><trkpt lat="43.0810328" lon="11.5469562"><ele>249.0</ele><time>2026-05-02T13:50:56.707Z</time></trkpt><trkpt lat="43.0808569" lon="11.5469313"><ele>249.0</ele><time>2026-05-02T13:50:57.701Z</time></trkpt><trkpt lat="43.0806865" lon="11.546904"><ele>249.0</ele><time>2026-05-02T13:50:58.702Z</time></trkpt><trkpt lat="43.0805094" lon="11.5468801"><ele>249.0</ele><time>2026-05-02T13:50:59.703Z</time></trkpt><trkpt lat="43.0803342" lon="11.5468476"><ele>249.0</ele><time>2026-05-02T13:51:00.703Z</time></trkpt><trkpt lat="43.0801537" lon="11.5468098"><ele>249.0</ele><time>2026-05-02T13:51:01.705Z</time></trkpt><trkpt lat="43.0799736" lon="11.5467493"><ele>247.33333333333331</ele><time>2026-05-02T13:51:02.715Z</time></trkpt><trkpt lat="43.0797991" lon="11.5466682"><ele>245.66666666666666</ele><time>2026-05-02T13:51:03.706Z</time></trkpt><trkpt lat="43.0796378" lon="11.546577"><ele>244.0</ele><time>2026-05-02T13:51:04.706Z</time></trkpt><trkpt lat="43.0794689" lon="11.5464729"><ele>244.0</ele><time>2026-05-02T13:51:05.704Z</time></trkpt><trkpt lat="43.0792985" lon="11.5463783"><ele>244.0</ele><time>2026-05-02T13:51:06.704Z</time></trkpt><trkpt lat="43.0791343" lon="11.5462838"><ele>244.0</ele><time>2026-05-02T13:51:07.707Z</time></trkpt><trkpt lat="43.0789782" lon="11.5461896"><ele>244.5</ele><time>2026-05-02T13:51:08.709Z</time></trkpt><trkpt lat="43.0788334" lon="11.5461065"><ele>245.0</ele><time>2026-05-02T13:51:09.703Z</time></trkpt><trkpt lat="43.0787198" lon="11.5460308"><ele>245.5</ele><time>2026-05-02T13:51:10.703Z</time></trkpt><trkpt lat="43.0786147" lon="11.5459886"><ele>246.0</ele><time>2026-05-02T13:51:11.708Z</time></trkpt><trkpt lat="43.0785256" lon="11.5459705"><ele>246.0</ele><time>2026-05-02T13:51:12.705Z</time></trkpt><trkpt lat="43.0784465" lon="11.5459819"><ele>246.00000000000003</ele><time>2026-05-02T13:51:13.699Z</time></trkpt><trkpt lat="43.0783886" lon="11.5460209"><ele>246.00000000000003</ele><time>2026-05-02T13:51:14.709Z</time></trkpt><trkpt lat="43.0783207" lon="11.5461549"><ele>246.0</ele><time>2026-05-02T13:51:16.702Z</time></trkpt><trkpt lat="43.0782568" lon="11.5463123"><ele>246.0</ele><time>2026-05-02T13:51:18.704Z</time></trkpt><trkpt lat="43.0782127" lon="11.5463861"><ele>245.4</ele><time>2026-05-02T13:51:19.71Z</time></trkpt><trkpt lat="43.078122" lon="11.5464508"><ele>244.8</ele><time>2026-05-02T13:51:21.7Z</time></trkpt><trkpt lat="43.0780405" lon="11.5464718"><ele>244.20000000000002</ele><time>2026-05-02T13:51:24.703Z</time></trkpt><trkpt lat="43.07795" lon="11.5465128"><ele>243.60000000000002</ele><time>2026-05-02T13:51:26.713Z</time></trkpt><trkpt lat="43.077867" lon="11.5465287"><ele>243.0</ele><time>2026-05-02T13:51:27.699Z</time></trkpt><trkpt lat="43.0777762" lon="11.546526"><ele>243.0</ele><time>2026-05-02T13:51:28.708Z</time></trkpt><trkpt lat="43.0776678" lon="11.5465273"><ele>243.0</ele><time>2026-05-02T13:51:29.703Z</time></trkpt><trkpt lat="43.0775547" lon="11.5465439"><ele>243.0</ele><time>2026-05-02T13:51:30.706Z</time></trkpt><trkpt lat="43.0774489" lon="11.5465581"><ele>243.0</ele><time>2026-05-02T13:51:31.703Z</time></trkpt><trkpt lat="43.0773598" lon="11.5465761"><ele>243.0</ele><time>2026-05-02T13:51:32.706Z</time></trkpt><trkpt lat="43.0772826" lon="11.5465874"><ele>243.42857142857142</ele><time>2026-05-02T13:51:33.71Z</time></trkpt><trkpt lat="43.0772062" lon="11.5465968"><ele>243.8571428571429</ele><time>2026-05-02T13:51:34.693Z</time></trkpt><trkpt lat="43.0771297" lon="11.5466"><ele>244.2857142857143</ele><time>2026-05-02T13:51:35.701Z</time></trkpt><trkpt lat="43.0770571" lon="11.5465915"><ele>244.71428571428572</ele><time>2026-05-02T13:51:36.703Z</time></trkpt><trkpt lat="43.0769847" lon="11.5465758"><ele>245.14285714285717</ele><time>2026-05-02T13:51:37.692Z</time></trkpt><trkpt lat="43.0769194" lon="11.5465734"><ele>245.5714285714286</ele><time>2026-05-02T13:51:38.705Z</time></trkpt><trkpt lat="43.076851" lon="11.546588"><ele>246.00000000000003</ele><time>2026-05-02T13:51:41.706Z</time></trkpt><trkpt lat="43.0767965" lon="11.5466735"><ele>246.0</ele><time>2026-05-02T13:52:13.704Z</time></trkpt><trkpt lat="43.0767302" lon="11.5466698"><ele>246.0</ele><time>2026-05-02T13:52:15.712Z</time></trkpt><trkpt lat="43.0767399" lon="11.5467596"><ele>246.0</ele><time>2026-05-02T13:52:52.703Z</time></trkpt><trkpt lat="43.0768556" lon="11.5467466"><ele>246.0</ele><time>2026-05-02T13:52:54.706Z</time></trkpt><trkpt lat="43.0769203" lon="11.5467258"><ele>246.0</ele><time>2026-05-02T13:52:55.699Z</time></trkpt><trkpt lat="43.0769847" lon="11.5467133"><ele>246.0</ele><time>2026-05-02T13:52:56.698Z</time></trkpt><trkpt lat="43.0770541" lon="11.5466959"><ele>246.0</ele><time>2026-05-02T13:52:57.703Z</time></trkpt><trkpt lat="43.0771331" lon="11.5466743"><ele>246.0</ele><time>2026-05-02T13:52:58.702Z</time></trkpt><trkpt lat="43.077216" lon="11.5466557"><ele>246.0</ele><time>2026-05-02T13:52:59.7Z</time></trkpt><trkpt lat="43.0773058" lon="11.5466387"><ele>246.0</ele><time>2026-05-02T13:53:00.701Z</time></trkpt><trkpt lat="43.0773944" lon="11.5466271"><ele>246.0</ele><time>2026-05-02T13:53:01.698Z</time></trkpt><trkpt lat="43.0774892" lon="11.5466149"><ele>246.0</ele><time>2026-05-02T13:53:02.707Z</time></trkpt><trkpt lat="43.0775878" lon="11.5466056"><ele>245.25</ele><time>2026-05-02T13:53:03.7Z</time></trkpt><trkpt lat="43.0776927" lon="11.5466014"><ele>244.5</ele><time>2026-05-02T13:53:04.712Z</time></trkpt><trkpt lat="43.0778037" lon="11.5465974"><ele>243.75</ele><time>2026-05-02T13:53:05.702Z</time></trkpt><trkpt lat="43.0779237" lon="11.5466003"><ele>243.0</ele><time>2026-05-02T13:53:06.709Z</time></trkpt><trkpt lat="43.0780426" lon="11.5466123"><ele>243.0</ele><time>2026-05-02T13:53:07.701Z</time></trkpt><trkpt lat="43.0781631" lon="11.5466233"><ele>243.0</ele><time>2026-05-02T13:53:08.703Z</time></trkpt><trkpt lat="43.0782744" lon="11.5466413"><ele>243.0</ele><time>2026-05-02T13:53:09.698Z</time></trkpt><trkpt lat="43.0783648" lon="11.5466725"><ele>243.0</ele><time>2026-05-02T13:53:10.704Z</time></trkpt><trkpt lat="43.0784307" lon="11.5466918"><ele>243.0</ele><time>2026-05-02T13:53:11.693Z</time></trkpt><trkpt lat="43.0785203" lon="11.5467062"><ele>243.0</ele><time>2026-05-02T13:53:13.704Z</time></trkpt><trkpt lat="43.0786186" lon="11.5467268"><ele>243.0</ele><time>2026-05-02T13:54:17.703Z</time></trkpt><trkpt lat="43.0786843" lon="11.5467455"><ele>243.0</ele><time>2026-05-02T13:54:18.689Z</time></trkpt><trkpt lat="43.0787548" lon="11.546755"><ele>243.0</ele><time>2026-05-02T13:54:19.693Z</time></trkpt><trkpt lat="43.0788352" lon="11.5467727"><ele>243.0</ele><time>2026-05-02T13:54:20.707Z</time></trkpt><trkpt lat="43.0789318" lon="11.5467889"><ele>243.0</ele><time>2026-05-02T13:54:21.697Z</time></trkpt><trkpt lat="43.0790383" lon="11.5468205"><ele>243.25</ele><time>2026-05-02T13:54:22.698Z</time></trkpt><trkpt lat="43.0791503" lon="11.5468616"><ele>243.5</ele><time>2026-05-02T13:54:23.693Z</time></trkpt><trkpt lat="43.079276" lon="11.546903"><ele>243.75</ele><time>2026-05-02T13:54:24.713Z</time></trkpt><trkpt lat="43.0794026" lon="11.5469464"><ele>244.0</ele><time>2026-05-02T13:54:25.707Z</time></trkpt><trkpt lat="43.0795254" lon="11.546991"><ele>244.0</ele><time>2026-05-02T13:54:26.699Z</time></trkpt><trkpt lat="43.0796445" lon="11.5470379"><ele>244.0</ele><time>2026-05-02T13:54:27.706Z</time></trkpt><trkpt lat="43.0797674" lon="11.5470883"><ele>244.0</ele><time>2026-05-02T13:54:28.695Z</time></trkpt><trkpt lat="43.0798913" lon="11.5471551"><ele>244.0</ele><time>2026-05-02T13:54:29.702Z</time></trkpt><trkpt lat="43.0800113" lon="11.5472447"><ele>244.0</ele><time>2026-05-02T13:54:30.703Z</time></trkpt><trkpt lat="43.080127" lon="11.5473623"><ele>244.0</ele><time>2026-05-02T13:54:31.696Z</time></trkpt><trkpt lat="43.0802321" lon="11.547493"><ele>244.0</ele><time>2026-05-02T13:54:32.698Z</time></trkpt><trkpt lat="43.0803439" lon="11.5476297"><ele>244.0</ele><time>2026-05-02T13:54:33.698Z</time></trkpt><trkpt lat="43.0804734" lon="11.5477517"><ele>244.0</ele><time>2026-05-02T13:54:34.696Z</time></trkpt><trkpt lat="43.0806191" lon="11.547846"><ele>244.0</ele><time>2026-05-02T13:54:35.713Z</time></trkpt><trkpt lat="43.0807714" lon="11.5479392"><ele>244.0</ele><time>2026-05-02T13:54:36.697Z</time></trkpt><trkpt lat="43.0809171" lon="11.5480269"><ele>243.66666666666666</ele><time>2026-05-02T13:54:37.695Z</time></trkpt><trkpt lat="43.0810639" lon="11.5481009"><ele>243.33333333333331</ele><time>2026-05-02T13:54:38.712Z</time></trkpt><trkpt lat="43.081212" lon="11.5481679"><ele>243.0</ele><time>2026-05-02T13:54:39.71Z</time></trkpt><trkpt lat="43.081363" lon="11.5482067"><ele>243.0</ele><time>2026-05-02T13:54:40.702Z</time></trkpt><trkpt lat="43.0815089" lon="11.5482394"><ele>243.0</ele><time>2026-05-02T13:54:41.702Z</time></trkpt><trkpt lat="43.0816477" lon="11.5482611"><ele>243.0</ele><time>2026-05-02T13:54:42.705Z</time></trkpt><trkpt lat="43.0817799" lon="11.5482872"><ele>243.0</ele><time>2026-05-02T13:54:43.695Z</time></trkpt><trkpt lat="43.0819053" lon="11.5483136"><ele>243.8</ele><time>2026-05-02T13:54:44.699Z</time></trkpt><trkpt lat="43.0820233" lon="11.5483407"><ele>244.60000000000002</ele><time>2026-05-02T13:54:45.7Z</time></trkpt><trkpt lat="43.0821216" lon="11.5483699"><ele>245.39999999999998</ele><time>2026-05-02T13:54:46.712Z</time></trkpt><trkpt lat="43.0822268" lon="11.5483854"><ele>246.2</ele><time>2026-05-02T13:54:47.702Z</time></trkpt><trkpt lat="43.0823325" lon="11.5484024"><ele>247.0</ele><time>2026-05-02T13:54:48.705Z</time></trkpt><trkpt lat="43.0824431" lon="11.548415"><ele>247.75</ele><time>2026-05-02T13:54:49.713Z</time></trkpt><trkpt lat="43.0825569" lon="11.5484211"><ele>248.5</ele><time>2026-05-02T13:54:50.704Z</time></trkpt><trkpt lat="43.082677" lon="11.5484141"><ele>249.25</ele><time>2026-05-02T13:54:51.694Z</time></trkpt><trkpt lat="43.0828083" lon="11.5484063"><ele>250.0</ele><time>2026-05-02T13:54:52.697Z</time></trkpt><trkpt lat="43.0829427" lon="11.5483999"><ele>250.0</ele><time>2026-05-02T13:54:53.706Z</time></trkpt><trkpt lat="43.0830824" lon="11.5483922"><ele>250.0</ele><time>2026-05-02T13:54:54.711Z</time></trkpt><trkpt lat="43.0832219" lon="11.5483843"><ele>250.0</ele><time>2026-05-02T13:54:55.703Z</time></trkpt><trkpt lat="43.0833608" lon="11.5483818"><ele>250.0</ele><time>2026-05-02T13:54:56.706Z</time></trkpt><trkpt lat="43.083503" lon="11.5483701"><ele>249.5</ele><time>2026-05-02T13:54:57.706Z</time></trkpt><trkpt lat="43.0836357" lon="11.5483588"><ele>249.0</ele><time>2026-05-02T13:54:58.698Z</time></trkpt><trkpt lat="43.0837666" lon="11.5483529"><ele>248.5</ele><time>2026-05-02T13:54:59.71Z</time></trkpt><trkpt lat="43.083889" lon="11.5483456"><ele>248.0</ele><time>2026-05-02T13:55:00.705Z</time></trkpt><trkpt lat="43.0840171" lon="11.5483378"><ele>248.25</ele><time>2026-05-02T13:55:01.698Z</time></trkpt><trkpt lat="43.0841449" lon="11.5483336"><ele>248.5</ele><time>2026-05-02T13:55:02.698Z</time></trkpt><trkpt lat="43.084276" lon="11.5483269"><ele>248.75</ele><time>2026-05-02T13:55:03.707Z</time></trkpt><trkpt lat="43.0844009" lon="11.5483234"><ele>249.0</ele><time>2026-05-02T13:55:04.694Z</time></trkpt><trkpt lat="43.084518" lon="11.5483346"><ele>249.0</ele><time>2026-05-02T13:55:05.712Z</time></trkpt><trkpt lat="43.0846292" lon="11.5483587"><ele>249.0</ele><time>2026-05-02T13:55:06.713Z</time></trkpt><trkpt lat="43.0847383" lon="11.5484046"><ele>249.0</ele><time>2026-05-02T13:55:07.701Z</time></trkpt><trkpt lat="43.0848427" lon="11.5484812"><ele>249.0</ele><time>2026-05-02T13:55:08.7Z</time></trkpt><trkpt lat="43.0849422" lon="11.5485644"><ele>249.5</ele><time>2026-05-02T13:55:09.703Z</time></trkpt><trkpt lat="43.0850416" lon="11.5486559"><ele>250.0</ele><time>2026-05-02T13:55:10.705Z</time></trkpt><trkpt lat="43.0851383" lon="11.5487485"><ele>250.5</ele><time>2026-05-02T13:55:11.702Z</time></trkpt><trkpt lat="43.0852305" lon="11.5488403"><ele>251.0</ele><time>2026-05-02T13:55:12.713Z</time></trkpt><trkpt lat="43.0853286" lon="11.5489343"><ele>251.0</ele><time>2026-05-02T13:55:13.709Z</time></trkpt><trkpt lat="43.0854299" lon="11.5490273"><ele>251.0</ele><time>2026-05-02T13:55:14.695Z</time></trkpt><trkpt lat="43.0855303" lon="11.5491197"><ele>251.0</ele><time>2026-05-02T13:55:15.701Z</time></trkpt><trkpt lat="43.0856308" lon="11.5492051"><ele>251.0</ele><time>2026-05-02T13:55:16.712Z</time></trkpt><trkpt lat="43.0857178" lon="11.5492549"><ele>251.50000000000003</ele><time>2026-05-02T13:55:17.71Z</time></trkpt><trkpt lat="43.0857854" lon="11.5492917"><ele>252.0</ele><time>2026-05-02T13:55:18.697Z</time></trkpt><trkpt lat="43.0858703" lon="11.5493283"><ele>252.5</ele><time>2026-05-02T13:55:20.705Z</time></trkpt><trkpt lat="43.0859249" lon="11.5493749"><ele>253.0</ele><time>2026-05-02T13:55:26.705Z</time></trkpt><trkpt lat="43.0858817" lon="11.5495173"><ele>253.50000000000003</ele><time>2026-05-02T13:55:28.693Z</time></trkpt><trkpt lat="43.0858302" lon="11.5496101"><ele>254.0</ele><time>2026-05-02T13:55:29.699Z</time></trkpt><trkpt lat="43.0857629" lon="11.5497057"><ele>253.2</ele><time>2026-05-02T13:55:30.701Z</time></trkpt><trkpt lat="43.0856969" lon="11.5498141"><ele>252.39999999999998</ele><time>2026-05-02T13:55:31.699Z</time></trkpt><trkpt lat="43.0856237" lon="11.5499349"><ele>251.6</ele><time>2026-05-02T13:55:32.708Z</time></trkpt><trkpt lat="43.0855539" lon="11.5500617"><ele>250.8</ele><time>2026-05-02T13:55:33.712Z</time></trkpt><trkpt lat="43.0854849" lon="11.5501821"><ele>250.0</ele><time>2026-05-02T13:55:34.697Z</time></trkpt><trkpt lat="43.0854217" lon="11.5502958"><ele>249.66666666666666</ele><time>2026-05-02T13:55:35.713Z</time></trkpt><trkpt lat="43.0853591" lon="11.5504023"><ele>249.33333333333331</ele><time>2026-05-02T13:55:36.703Z</time></trkpt><trkpt lat="43.0852963" lon="11.5505035"><ele>249.0</ele><time>2026-05-02T13:55:37.706Z</time></trkpt><trkpt lat="43.0852486" lon="11.5505909"><ele>248.66666666666669</ele><time>2026-05-02T13:55:38.699Z</time></trkpt><trkpt lat="43.0851951" lon="11.5506707"><ele>248.33333333333334</ele><time>2026-05-02T13:55:39.695Z</time></trkpt><trkpt lat="43.0851425" lon="11.5507466"><ele>248.0</ele><time>2026-05-02T13:55:40.697Z</time></trkpt><trkpt lat="43.0850889" lon="11.5508159"><ele>248.00000000000003</ele><time>2026-05-02T13:55:41.701Z</time></trkpt><trkpt lat="43.085034" lon="11.5508864"><ele>248.0</ele><time>2026-05-02T13:55:42.702Z</time></trkpt><trkpt lat="43.0849791" lon="11.5509665"><ele>248.0</ele><time>2026-05-02T13:55:43.711Z</time></trkpt><trkpt lat="43.0849238" lon="11.5510509"><ele>248.0</ele><time>2026-05-02T13:55:44.697Z</time></trkpt><trkpt lat="43.0848579" lon="11.5511379"><ele>248.00000000000003</ele><time>2026-05-02T13:55:45.705Z</time></trkpt><trkpt lat="43.0847905" lon="11.5512404"><ele>248.0</ele><time>2026-05-02T13:55:46.7Z</time></trkpt><trkpt lat="43.0847151" lon="11.5513491"><ele>247.60000000000002</ele><time>2026-05-02T13:55:47.7Z</time></trkpt><trkpt lat="43.0846386" lon="11.5514619"><ele>247.20000000000002</ele><time>2026-05-02T13:55:48.703Z</time></trkpt><trkpt lat="43.0845631" lon="11.5515663"><ele>246.8</ele><time>2026-05-02T13:55:49.69Z</time></trkpt><trkpt lat="43.0844869" lon="11.5516737"><ele>246.4</ele><time>2026-05-02T13:55:50.698Z</time></trkpt><trkpt lat="43.0844095" lon="11.5517767"><ele>246.0</ele><time>2026-05-02T13:55:51.697Z</time></trkpt><trkpt lat="43.0843367" lon="11.551885"><ele>246.0</ele><time>2026-05-02T13:55:52.698Z</time></trkpt><trkpt lat="43.0842658" lon="11.5520058"><ele>246.0</ele><time>2026-05-02T13:55:53.701Z</time></trkpt><trkpt lat="43.084195" lon="11.5521359"><ele>246.0</ele><time>2026-05-02T13:55:54.698Z</time></trkpt><trkpt lat="43.0841301" lon="11.5522784"><ele>246.0</ele><time>2026-05-02T13:55:55.702Z</time></trkpt><trkpt lat="43.0840634" lon="11.5524232"><ele>245.25</ele><time>2026-05-02T13:55:56.7Z</time></trkpt><trkpt lat="43.0839979" lon="11.5525782"><ele>244.5</ele><time>2026-05-02T13:55:57.7Z</time></trkpt><trkpt lat="43.0839397" lon="11.5527433"><ele>243.75</ele><time>2026-05-02T13:55:58.7Z</time></trkpt><trkpt lat="43.08389" lon="11.5529244"><ele>243.0</ele><time>2026-05-02T13:55:59.705Z</time></trkpt><trkpt lat="43.0838429" lon="11.5531131"><ele>243.0</ele><time>2026-05-02T13:56:00.702Z</time></trkpt><trkpt lat="43.0838054" lon="11.5533135"><ele>243.0</ele><time>2026-05-02T13:56:01.699Z</time></trkpt><trkpt lat="43.083769" lon="11.5535163"><ele>243.0</ele><time>2026-05-02T13:56:02.694Z</time></trkpt><trkpt lat="43.0837356" lon="11.5537267"><ele>244.0</ele><time>2026-05-02T13:56:03.702Z</time></trkpt><trkpt lat="43.0837026" lon="11.5539364"><ele>245.0</ele><time>2026-05-02T13:56:04.702Z</time></trkpt><trkpt lat="43.0836669" lon="11.5541471"><ele>246.0</ele><time>2026-05-02T13:56:05.704Z</time></trkpt><trkpt lat="43.0836313" lon="11.5543631"><ele>247.66666666666669</ele><time>2026-05-02T13:56:06.695Z</time></trkpt><trkpt lat="43.0836002" lon="11.5545715"><ele>249.33333333333334</ele><time>2026-05-02T13:56:07.695Z</time></trkpt><trkpt lat="43.0835635" lon="11.5547895"><ele>251.0</ele><time>2026-05-02T13:56:08.701Z</time></trkpt><trkpt lat="43.08353" lon="11.5550058"><ele>251.0</ele><time>2026-05-02T13:56:09.702Z</time></trkpt><trkpt lat="43.0834991" lon="11.5552216"><ele>251.0</ele><time>2026-05-02T13:56:10.7Z</time></trkpt><trkpt lat="43.0834696" lon="11.5554409"><ele>251.0</ele><time>2026-05-02T13:56:11.703Z</time></trkpt><trkpt lat="43.0834622" lon="11.555641"><ele>252.0</ele><time>2026-05-02T13:56:12.705Z</time></trkpt><trkpt lat="43.083465" lon="11.5558292"><ele>253.0</ele><time>2026-05-02T13:56:13.706Z</time></trkpt><trkpt lat="43.0834973" lon="11.5560022"><ele>254.0</ele><time>2026-05-02T13:56:14.702Z</time></trkpt><trkpt lat="43.0835766" lon="11.5561634"><ele>255.0</ele><time>2026-05-02T13:56:15.698Z</time></trkpt><trkpt lat="43.0836908" lon="11.5562541"><ele>255.0</ele><time>2026-05-02T13:56:16.709Z</time></trkpt><trkpt lat="43.0838272" lon="11.5562923"><ele>255.0</ele><time>2026-05-02T13:56:17.699Z</time></trkpt><trkpt lat="43.0839682" lon="11.5563453"><ele>255.0</ele><time>2026-05-02T13:56:18.707Z</time></trkpt><trkpt lat="43.0841128" lon="11.5564052"><ele>255.0</ele><time>2026-05-02T13:56:19.71Z</time></trkpt><trkpt lat="43.0842485" lon="11.5565103"><ele>257.5</ele><time>2026-05-02T13:56:20.708Z</time></trkpt><trkpt lat="43.0843579" lon="11.5566509"><ele>260.0</ele><time>2026-05-02T13:56:21.7Z</time></trkpt><trkpt lat="43.0844529" lon="11.5568139"><ele>262.5</ele><time>2026-05-02T13:56:22.699Z</time></trkpt><trkpt lat="43.0845186" lon="11.5569839"><ele>265.0</ele><time>2026-05-02T13:56:23.708Z</time></trkpt><trkpt lat="43.0845599" lon="11.5571755"><ele>267.0</ele><time>2026-05-02T13:56:24.698Z</time></trkpt><trkpt lat="43.0845812" lon="11.5573806"><ele>269.0</ele><time>2026-05-02T13:56:25.713Z</time></trkpt><trkpt lat="43.0845944" lon="11.557579"><ele>271.0</ele><time>2026-05-02T13:56:26.702Z</time></trkpt><trkpt lat="43.0845861" lon="11.5577686"><ele>273.0</ele><time>2026-05-02T13:56:27.706Z</time></trkpt><trkpt lat="43.0845377" lon="11.5579575"><ele>274.6666666666667</ele><time>2026-05-02T13:56:28.699Z</time></trkpt><trkpt lat="43.0844721" lon="11.5581601"><ele>276.33333333333337</ele><time>2026-05-02T13:56:29.709Z</time></trkpt><trkpt lat="43.084407" lon="11.5583607"><ele>278.0</ele><time>2026-05-02T13:56:30.693Z</time></trkpt><trkpt lat="43.0843508" lon="11.5585494"><ele>278.75</ele><time>2026-05-02T13:56:31.697Z</time></trkpt><trkpt lat="43.0843214" lon="11.5587329"><ele>279.5</ele><time>2026-05-02T13:56:32.701Z</time></trkpt><trkpt lat="43.08434" lon="11.5588989"><ele>280.25</ele><time>2026-05-02T13:56:33.705Z</time></trkpt><trkpt lat="43.0843818" lon="11.5590508"><ele>281.0</ele><time>2026-05-02T13:56:34.709Z</time></trkpt><trkpt lat="43.0844397" lon="11.559171"><ele>281.0</ele><time>2026-05-02T13:56:35.698Z</time></trkpt><trkpt lat="43.0845268" lon="11.5592294"><ele>281.0</ele><time>2026-05-02T13:56:36.699Z</time></trkpt><trkpt lat="43.0846367" lon="11.5592564"><ele>281.0</ele><time>2026-05-02T13:56:37.701Z</time></trkpt><trkpt lat="43.0847316" lon="11.5593024"><ele>281.0</ele><time>2026-05-02T13:56:38.691Z</time></trkpt><trkpt lat="43.0847935" lon="11.5594051"><ele>281.0</ele><time>2026-05-02T13:56:39.697Z</time></trkpt><trkpt lat="43.0848171" lon="11.5595382"><ele>282.40000000000003</ele><time>2026-05-02T13:56:40.698Z</time></trkpt><trkpt lat="43.0847984" lon="11.559677"><ele>283.8</ele><time>2026-05-02T13:56:41.707Z</time></trkpt><trkpt lat="43.0847697" lon="11.5597956"><ele>285.20000000000005</ele><time>2026-05-02T13:56:42.701Z</time></trkpt><trkpt lat="43.0847642" lon="11.5599372"><ele>286.6</ele><time>2026-05-02T13:56:43.704Z</time></trkpt><trkpt lat="43.0848128" lon="11.5600644"><ele>288.0</ele><time>2026-05-02T13:56:44.694Z</time></trkpt><trkpt lat="43.0848955" lon="11.5601604"><ele>288.6</ele><time>2026-05-02T13:56:45.706Z</time></trkpt><trkpt lat="43.0849859" lon="11.560259"><ele>289.20000000000005</ele><time>2026-05-02T13:56:46.711Z</time></trkpt><trkpt lat="43.0850575" lon="11.5603751"><ele>289.8</ele><time>2026-05-02T13:56:47.698Z</time></trkpt><trkpt lat="43.0850882" lon="11.5605095"><ele>290.40000000000003</ele><time>2026-05-02T13:56:48.691Z</time></trkpt><trkpt lat="43.085085" lon="11.5606504"><ele>291.0</ele><time>2026-05-02T13:56:49.708Z</time></trkpt><trkpt lat="43.085043" lon="11.5607882"><ele>291.0</ele><time>2026-05-02T13:56:50.698Z</time></trkpt><trkpt lat="43.0849625" lon="11.5608767"><ele>291.0</ele><time>2026-05-02T13:56:51.707Z</time></trkpt><trkpt lat="43.0848682" lon="11.5609557"><ele>291.0</ele><time>2026-05-02T13:56:52.708Z</time></trkpt><trkpt lat="43.0847921" lon="11.5610465"><ele>291.0</ele><time>2026-05-02T13:56:53.716Z</time></trkpt><trkpt lat="43.0847586" lon="11.5611645"><ele>291.0</ele><time>2026-05-02T13:56:54.705Z</time></trkpt><trkpt lat="43.0847832" lon="11.5613112"><ele>292.75</ele><time>2026-05-02T13:56:55.703Z</time></trkpt><trkpt lat="43.0848352" lon="11.5614409"><ele>294.5</ele><time>2026-05-02T13:56:56.701Z</time></trkpt><trkpt lat="43.0848972" lon="11.5615758"><ele>296.25</ele><time>2026-05-02T13:56:57.702Z</time></trkpt><trkpt lat="43.0849552" lon="11.5617286"><ele>298.0</ele><time>2026-05-02T13:56:58.706Z</time></trkpt><trkpt lat="43.0850145" lon="11.5618796"><ele>298.75</ele><time>2026-05-02T13:56:59.697Z</time></trkpt><trkpt lat="43.0850684" lon="11.5620376"><ele>299.5</ele><time>2026-05-02T13:57:00.696Z</time></trkpt><trkpt lat="43.0850981" lon="11.5622027"><ele>300.25</ele><time>2026-05-02T13:57:01.704Z</time></trkpt><trkpt lat="43.0850917" lon="11.5623604"><ele>301.0</ele><time>2026-05-02T13:57:02.704Z</time></trkpt><trkpt lat="43.0850628" lon="11.5625188"><ele>301.0</ele><time>2026-05-02T13:57:03.698Z</time></trkpt><trkpt lat="43.0849965" lon="11.5626543"><ele>301.0</ele><time>2026-05-02T13:57:04.706Z</time></trkpt><trkpt lat="43.0849108" lon="11.5627534"><ele>301.0</ele><time>2026-05-02T13:57:05.697Z</time></trkpt><trkpt lat="43.0848099" lon="11.5628246"><ele>301.0</ele><time>2026-05-02T13:57:06.693Z</time></trkpt><trkpt lat="43.084696" lon="11.5628573"><ele>300.75</ele><time>2026-05-02T13:57:07.698Z</time></trkpt><trkpt lat="43.0845764" lon="11.5628619"><ele>300.5</ele><time>2026-05-02T13:57:08.712Z</time></trkpt><trkpt lat="43.0844478" lon="11.5628648"><ele>300.25</ele><time>2026-05-02T13:57:09.699Z</time></trkpt><trkpt lat="43.0843165" lon="11.5628755"><ele>300.0</ele><time>2026-05-02T13:57:10.71Z</time></trkpt><trkpt lat="43.0841873" lon="11.5628916"><ele>300.25</ele><time>2026-05-02T13:57:11.697Z</time></trkpt><trkpt lat="43.0840599" lon="11.5629265"><ele>300.5</ele><time>2026-05-02T13:57:12.701Z</time></trkpt><trkpt lat="43.0839336" lon="11.5629806"><ele>300.75</ele><time>2026-05-02T13:57:13.717Z</time></trkpt><trkpt lat="43.0838092" lon="11.5630581"><ele>301.0</ele><time>2026-05-02T13:57:14.704Z</time></trkpt><trkpt lat="43.0836924" lon="11.5631585"><ele>301.0</ele><time>2026-05-02T13:57:15.71Z</time></trkpt><trkpt lat="43.083578" lon="11.5632873"><ele>301.0</ele><time>2026-05-02T13:57:16.698Z</time></trkpt><trkpt lat="43.0834713" lon="11.5634485"><ele>301.0</ele><time>2026-05-02T13:57:17.705Z</time></trkpt><trkpt lat="43.0833764" lon="11.5636207"><ele>301.0</ele><time>2026-05-02T13:57:18.701Z</time></trkpt><trkpt lat="43.0832826" lon="11.5638102"><ele>301.0</ele><time>2026-05-02T13:57:19.699Z</time></trkpt><trkpt lat="43.0831882" lon="11.5640105"><ele>301.0</ele><time>2026-05-02T13:57:20.696Z</time></trkpt><trkpt lat="43.0831024" lon="11.5642251"><ele>301.0</ele><time>2026-05-02T13:57:21.702Z</time></trkpt><trkpt lat="43.0830238" lon="11.5644468"><ele>301.0</ele><time>2026-05-02T13:57:22.698Z</time></trkpt><trkpt lat="43.082944" lon="11.5646729"><ele>301.0</ele><time>2026-05-02T13:57:23.708Z</time></trkpt><trkpt lat="43.0828613" lon="11.5648985"><ele>303.0</ele><time>2026-05-02T13:57:24.692Z</time></trkpt><trkpt lat="43.0827675" lon="11.5651125"><ele>305.0</ele><time>2026-05-02T13:57:25.72Z</time></trkpt><trkpt lat="43.0826584" lon="11.5653254"><ele>307.0</ele><time>2026-05-02T13:57:26.701Z</time></trkpt><trkpt lat="43.0825353" lon="11.5655269"><ele>307.3333333333333</ele><time>2026-05-02T13:57:27.704Z</time></trkpt><trkpt lat="43.0824037" lon="11.5657274"><ele>307.6666666666667</ele><time>2026-05-02T13:57:28.707Z</time></trkpt><trkpt lat="43.0822712" lon="11.5659306"><ele>308.0</ele><time>2026-05-02T13:57:29.706Z</time></trkpt><trkpt lat="43.08214" lon="11.5661295"><ele>311.6666666666667</ele><time>2026-05-02T13:57:30.709Z</time></trkpt><trkpt lat="43.0820116" lon="11.5663232"><ele>315.3333333333333</ele><time>2026-05-02T13:57:31.706Z</time></trkpt><trkpt lat="43.081892" lon="11.5665153"><ele>319.0</ele><time>2026-05-02T13:57:32.723Z</time></trkpt><trkpt lat="43.0817927" lon="11.5667101"><ele>319.0</ele><time>2026-05-02T13:57:33.694Z</time></trkpt><trkpt lat="43.08171" lon="11.5669134"><ele>319.0</ele><time>2026-05-02T13:57:34.693Z</time></trkpt><trkpt lat="43.0816529" lon="11.5671278"><ele>319.0</ele><time>2026-05-02T13:57:35.706Z</time></trkpt><trkpt lat="43.0816117" lon="11.5673469"><ele>316.0</ele><time>2026-05-02T13:57:36.702Z</time></trkpt><trkpt lat="43.0815816" lon="11.5675689"><ele>313.0</ele><time>2026-05-02T13:57:37.694Z</time></trkpt><trkpt lat="43.0815641" lon="11.5677837"><ele>310.0</ele><time>2026-05-02T13:57:38.706Z</time></trkpt><trkpt lat="43.0815473" lon="11.5679916"><ele>310.0</ele><time>2026-05-02T13:57:39.697Z</time></trkpt><trkpt lat="43.0815283" lon="11.5682008"><ele>310.0</ele><time>2026-05-02T13:57:40.694Z</time></trkpt><trkpt lat="43.0815029" lon="11.5684135"><ele>310.0</ele><time>2026-05-02T13:57:41.701Z</time></trkpt><trkpt lat="43.0814669" lon="11.5686195"><ele>313.66666666666663</ele><time>2026-05-02T13:57:42.694Z</time></trkpt><trkpt lat="43.08142" lon="11.5688234"><ele>317.3333333333333</ele><time>2026-05-02T13:57:43.69Z</time></trkpt><trkpt lat="43.0813604" lon="11.5690135"><ele>321.0</ele><time>2026-05-02T13:57:44.7Z</time></trkpt><trkpt lat="43.0812971" lon="11.5691933"><ele>321.0</ele><time>2026-05-02T13:57:45.697Z</time></trkpt><trkpt lat="43.0812308" lon="11.5693787"><ele>321.0</ele><time>2026-05-02T13:57:46.686Z</time></trkpt><trkpt lat="43.0811623" lon="11.56956"><ele>321.0</ele><time>2026-05-02T13:57:47.696Z</time></trkpt><trkpt lat="43.0810921" lon="11.5697374"><ele>321.0</ele><time>2026-05-02T13:57:48.702Z</time></trkpt><trkpt lat="43.0810148" lon="11.5698998"><ele>322.75</ele><time>2026-05-02T13:57:49.69Z</time></trkpt><trkpt lat="43.0809224" lon="11.5700509"><ele>324.5</ele><time>2026-05-02T13:57:50.698Z</time></trkpt><trkpt lat="43.0808212" lon="11.5701703"><ele>326.25</ele><time>2026-05-02T13:57:51.703Z</time></trkpt><trkpt lat="43.0807255" lon="11.5702354"><ele>328.0</ele><time>2026-05-02T13:57:52.691Z</time></trkpt><trkpt lat="43.0806394" lon="11.5702801"><ele>328.0</ele><time>2026-05-02T13:57:53.699Z</time></trkpt><trkpt lat="43.0805675" lon="11.5703008"><ele>328.0</ele><time>2026-05-02T13:57:54.695Z</time></trkpt><trkpt lat="43.08046" lon="11.5703459"><ele>328.0</ele><time>2026-05-02T13:57:56.691Z</time></trkpt><trkpt lat="43.0804046" lon="11.5703927"><ele>328.0</ele><time>2026-05-02T13:57:57.691Z</time></trkpt><trkpt lat="43.0803445" lon="11.5704412"><ele>328.0</ele><time>2026-05-02T13:57:58.7Z</time></trkpt><trkpt lat="43.0802819" lon="11.5704758"><ele>328.0</ele><time>2026-05-02T13:57:59.699Z</time></trkpt><trkpt lat="43.080214" lon="11.5704967"><ele>329.8333333333333</ele><time>2026-05-02T13:58:00.703Z</time></trkpt><trkpt lat="43.080151" lon="11.5705072"><ele>331.66666666666663</ele><time>2026-05-02T13:58:01.702Z</time></trkpt><trkpt lat="43.0800299" lon="11.5705495"><ele>333.5</ele><time>2026-05-02T13:58:03.694Z</time></trkpt><trkpt lat="43.0799637" lon="11.5705631"><ele>335.3333333333333</ele><time>2026-05-02T13:58:04.698Z</time></trkpt><trkpt lat="43.0798982" lon="11.5705797"><ele>337.1666666666667</ele><time>2026-05-02T13:58:05.704Z</time></trkpt><trkpt lat="43.0798281" lon="11.570598"><ele>339.0</ele><time>2026-05-02T13:58:06.702Z</time></trkpt><trkpt lat="43.0797654" lon="11.5706201"><ele>339.0</ele><time>2026-05-02T13:58:07.696Z</time></trkpt><trkpt lat="43.0797046" lon="11.5706992"><ele>339.0</ele><time>2026-05-02T13:58:09.691Z</time></trkpt><trkpt lat="43.0797419" lon="11.5707923"><ele>339.0</ele><time>2026-05-02T13:58:11.69Z</time></trkpt><trkpt lat="43.079837" lon="11.5708272"><ele>339.0</ele><time>2026-05-02T13:58:13.691Z</time></trkpt><trkpt lat="43.0799025" lon="11.5708383"><ele>339.0</ele><time>2026-05-02T13:58:14.708Z</time></trkpt><trkpt lat="43.0799737" lon="11.5708542"><ele>339.0</ele><time>2026-05-02T13:58:15.698Z</time></trkpt><trkpt lat="43.0800542" lon="11.570879"><ele>339.5</ele><time>2026-05-02T13:58:16.69Z</time></trkpt><trkpt lat="43.0801332" lon="11.5709219"><ele>340.0</ele><time>2026-05-02T13:58:17.707Z</time></trkpt><trkpt lat="43.0802103" lon="11.5709662"><ele>340.5</ele><time>2026-05-02T13:58:18.701Z</time></trkpt><trkpt lat="43.0802824" lon="11.5710086"><ele>341.0</ele><time>2026-05-02T13:58:19.697Z</time></trkpt><trkpt lat="43.0803497" lon="11.5710488"><ele>341.5</ele><time>2026-05-02T13:58:20.701Z</time></trkpt><trkpt lat="43.0804215" lon="11.5710963"><ele>342.0</ele><time>2026-05-02T13:58:21.698Z</time></trkpt><trkpt lat="43.080501" lon="11.5711435"><ele>342.6</ele><time>2026-05-02T13:58:22.708Z</time></trkpt><trkpt lat="43.0805817" lon="11.5711996"><ele>343.20000000000005</ele><time>2026-05-02T13:58:23.698Z</time></trkpt><trkpt lat="43.0806623" lon="11.571251"><ele>343.8</ele><time>2026-05-02T13:58:24.71Z</time></trkpt><trkpt lat="43.0807422" lon="11.571316"><ele>344.4</ele><time>2026-05-02T13:58:25.699Z</time></trkpt><trkpt lat="43.0808294" lon="11.5713749"><ele>345.0</ele><time>2026-05-02T13:58:26.693Z</time></trkpt><trkpt lat="43.080918" lon="11.5714482"><ele>345.0</ele><time>2026-05-02T13:58:27.71Z</time></trkpt><trkpt lat="43.0810074" lon="11.5715182"><ele>345.0</ele><time>2026-05-02T13:58:28.714Z</time></trkpt><trkpt lat="43.0810999" lon="11.5715975"><ele>345.0</ele><time>2026-05-02T13:58:29.695Z</time></trkpt><trkpt lat="43.0811959" lon="11.5716827"><ele>345.0</ele><time>2026-05-02T13:58:30.699Z</time></trkpt><trkpt lat="43.0812932" lon="11.571766"><ele>345.0</ele><time>2026-05-02T13:58:31.705Z</time></trkpt><trkpt lat="43.0813884" lon="11.5718409"><ele>345.0</ele><time>2026-05-02T13:58:32.706Z</time></trkpt><trkpt lat="43.0814795" lon="11.5719135"><ele>345.0</ele><time>2026-05-02T13:58:33.702Z</time></trkpt><trkpt lat="43.0815741" lon="11.5719861"><ele>345.0</ele><time>2026-05-02T13:58:34.699Z</time></trkpt><trkpt lat="43.0816624" lon="11.5720753"><ele>345.0</ele><time>2026-05-02T13:58:35.702Z</time></trkpt><trkpt lat="43.0817448" lon="11.5721828"><ele>345.0</ele><time>2026-05-02T13:58:36.701Z</time></trkpt><trkpt lat="43.0818145" lon="11.5723142"><ele>346.3333333333333</ele><time>2026-05-02T13:58:37.695Z</time></trkpt><trkpt lat="43.0818873" lon="11.572461"><ele>347.66666666666663</ele><time>2026-05-02T13:58:38.714Z</time></trkpt><trkpt lat="43.0819699" lon="11.5726416"><ele>349.0</ele><time>2026-05-02T13:58:39.699Z</time></trkpt><trkpt lat="43.0820706" lon="11.5728754"><ele>343.5</ele><time>2026-05-02T13:58:40.7Z</time></trkpt><trkpt lat="43.0821936" lon="11.573156"><ele>338.0</ele><time>2026-05-02T13:58:41.699Z</time></trkpt><trkpt lat="43.0823243" lon="11.5734696"><ele>345.0</ele><time>2026-05-02T13:58:42.697Z</time></trkpt><trkpt lat="43.0824627" lon="11.5738111"><ele>352.0</ele><time>2026-05-02T13:58:43.702Z</time></trkpt><trkpt lat="43.0825963" lon="11.5741272"><ele>352.0</ele><time>2026-05-02T13:58:44.697Z</time></trkpt><trkpt lat="43.082719" lon="11.5744108"><ele>352.0</ele><time>2026-05-02T13:58:45.716Z</time></trkpt><trkpt lat="43.0828328" lon="11.5746821"><ele>350.3333333333333</ele><time>2026-05-02T13:58:46.682Z</time></trkpt><trkpt lat="43.082937" lon="11.5749269"><ele>348.6666666666667</ele><time>2026-05-02T13:58:47.694Z</time></trkpt><trkpt lat="43.0830313" lon="11.5751606"><ele>347.0</ele><time>2026-05-02T13:58:48.707Z</time></trkpt><trkpt lat="43.0831247" lon="11.5753815"><ele>349.33333333333337</ele><time>2026-05-02T13:58:49.699Z</time></trkpt><trkpt lat="43.0832198" lon="11.5755939"><ele>351.6666666666667</ele><time>2026-05-02T13:58:50.708Z</time></trkpt><trkpt lat="43.0833147" lon="11.5757984"><ele>354.0</ele><time>2026-05-02T13:58:51.7Z</time></trkpt><trkpt lat="43.0834037" lon="11.5760025"><ele>352.6666666666667</ele><time>2026-05-02T13:58:52.694Z</time></trkpt><trkpt lat="43.0834913" lon="11.5762129"><ele>351.33333333333337</ele><time>2026-05-02T13:58:53.708Z</time></trkpt><trkpt lat="43.0835692" lon="11.5764132"><ele>350.0</ele><time>2026-05-02T13:58:54.703Z</time></trkpt><trkpt lat="43.0836389" lon="11.5766087"><ele>350.0</ele><time>2026-05-02T13:58:55.699Z</time></trkpt><trkpt lat="43.0836959" lon="11.5768045"><ele>350.0</ele><time>2026-05-02T13:58:56.694Z</time></trkpt><trkpt lat="43.0837507" lon="11.5770106"><ele>350.0</ele><time>2026-05-02T13:58:57.703Z</time></trkpt><trkpt lat="43.0837983" lon="11.5772206"><ele>350.0</ele><time>2026-05-02T13:58:58.695Z</time></trkpt><trkpt lat="43.0838449" lon="11.5774324"><ele>350.0</ele><time>2026-05-02T13:58:59.694Z</time></trkpt><trkpt lat="43.0838889" lon="11.577639"><ele>350.0</ele><time>2026-05-02T13:59:00.7Z</time></trkpt><trkpt lat="43.0839306" lon="11.5778317"><ele>350.0</ele><time>2026-05-02T13:59:01.712Z</time></trkpt><trkpt lat="43.0839741" lon="11.5780247"><ele>350.0</ele><time>2026-05-02T13:59:02.713Z</time></trkpt><trkpt lat="43.0840168" lon="11.5782152"><ele>350.0</ele><time>2026-05-02T13:59:03.699Z</time></trkpt><trkpt lat="43.0840547" lon="11.5783913"><ele>350.0</ele><time>2026-05-02T13:59:04.698Z</time></trkpt><trkpt lat="43.0840834" lon="11.5785346"><ele>351.1666666666667</ele><time>2026-05-02T13:59:05.701Z</time></trkpt><trkpt lat="43.084102" lon="11.5786521"><ele>352.33333333333337</ele><time>2026-05-02T13:59:06.697Z</time></trkpt><trkpt lat="43.084127" lon="11.5787596"><ele>353.5</ele><time>2026-05-02T13:59:07.718Z</time></trkpt><trkpt lat="43.0841531" lon="11.578861"><ele>354.6666666666667</ele><time>2026-05-02T13:59:08.697Z</time></trkpt><trkpt lat="43.0841832" lon="11.5789645"><ele>355.8333333333333</ele><time>2026-05-02T13:59:09.696Z</time></trkpt><trkpt lat="43.0842277" lon="11.5790815"><ele>357.0</ele><time>2026-05-02T13:59:10.677Z</time></trkpt><trkpt lat="43.084295" lon="11.5792121"><ele>358.25</ele><time>2026-05-02T13:59:11.691Z</time></trkpt><trkpt lat="43.0843736" lon="11.5793609"><ele>359.5</ele><time>2026-05-02T13:59:12.698Z</time></trkpt><trkpt lat="43.0844628" lon="11.579514"><ele>360.75</ele><time>2026-05-02T13:59:13.695Z</time></trkpt><trkpt lat="43.0845527" lon="11.5796826"><ele>362.0</ele><time>2026-05-02T13:59:14.695Z</time></trkpt><trkpt lat="43.0846451" lon="11.5798493"><ele>364.0</ele><time>2026-05-02T13:59:15.695Z</time></trkpt><trkpt lat="43.0847317" lon="11.5800096"><ele>366.0</ele><time>2026-05-02T13:59:16.693Z</time></trkpt><trkpt lat="43.0848034" lon="11.5801496"><ele>368.0</ele><time>2026-05-02T13:59:17.694Z</time></trkpt><trkpt lat="43.0848598" lon="11.5802682"><ele>370.0</ele><time>2026-05-02T13:59:18.698Z</time></trkpt><trkpt lat="43.0849055" lon="11.5803922"><ele>371.25</ele><time>2026-05-02T13:59:19.698Z</time></trkpt><trkpt lat="43.0849472" lon="11.5805255"><ele>372.5</ele><time>2026-05-02T13:59:20.703Z</time></trkpt><trkpt lat="43.0849888" lon="11.5806713"><ele>373.75</ele><time>2026-05-02T13:59:21.697Z</time></trkpt><trkpt lat="43.0850334" lon="11.5808232"><ele>375.0</ele><time>2026-05-02T13:59:22.694Z</time></trkpt><trkpt lat="43.0850764" lon="11.5809864"><ele>375.0</ele><time>2026-05-02T13:59:23.694Z</time></trkpt><trkpt lat="43.0851174" lon="11.5811541"><ele>375.0</ele><time>2026-05-02T13:59:24.702Z</time></trkpt><trkpt lat="43.0851609" lon="11.5813132"><ele>375.0</ele><time>2026-05-02T13:59:25.702Z</time></trkpt><trkpt lat="43.0852074" lon="11.5814676"><ele>375.0</ele><time>2026-05-02T13:59:26.709Z</time></trkpt><trkpt lat="43.0852631" lon="11.5816171"><ele>374.0</ele><time>2026-05-02T13:59:27.697Z</time></trkpt><trkpt lat="43.0853369" lon="11.5817521"><ele>373.0</ele><time>2026-05-02T13:59:28.698Z</time></trkpt><trkpt lat="43.0854198" lon="11.5818795"><ele>372.0</ele><time>2026-05-02T13:59:29.697Z</time></trkpt><trkpt lat="43.0855126" lon="11.5820032"><ele>371.0</ele><time>2026-05-02T13:59:30.696Z</time></trkpt><trkpt lat="43.0856001" lon="11.582125"><ele>371.8</ele><time>2026-05-02T13:59:31.691Z</time></trkpt><trkpt lat="43.085678" lon="11.5822466"><ele>372.6</ele><time>2026-05-02T13:59:32.701Z</time></trkpt><trkpt lat="43.0857454" lon="11.5823589"><ele>373.4</ele><time>2026-05-02T13:59:33.698Z</time></trkpt><trkpt lat="43.0857913" lon="11.582467"><ele>374.2</ele><time>2026-05-02T13:59:34.7Z</time></trkpt><trkpt lat="43.0858414" lon="11.5825547"><ele>375.0</ele><time>2026-05-02T13:59:35.7Z</time></trkpt><trkpt lat="43.0858958" lon="11.5826317"><ele>375.0</ele><time>2026-05-02T13:59:36.696Z</time></trkpt><trkpt lat="43.0859594" lon="11.5827005"><ele>375.0</ele><time>2026-05-02T13:59:37.698Z</time></trkpt><trkpt lat="43.0860249" lon="11.5827595"><ele>375.0</ele><time>2026-05-02T13:59:38.697Z</time></trkpt><trkpt lat="43.0860933" lon="11.5828231"><ele>375.0</ele><time>2026-05-02T13:59:39.69Z</time></trkpt><trkpt lat="43.086167" lon="11.5828858"><ele>375.0</ele><time>2026-05-02T13:59:40.699Z</time></trkpt><trkpt lat="43.0862374" lon="11.5829536"><ele>375.0</ele><time>2026-05-02T13:59:41.701Z</time></trkpt><trkpt lat="43.0863028" lon="11.5830241"><ele>374.0</ele><time>2026-05-02T13:59:42.696Z</time></trkpt><trkpt lat="43.0863721" lon="11.5830937"><ele>373.0</ele><time>2026-05-02T13:59:43.702Z</time></trkpt><trkpt lat="43.0864405" lon="11.5831574"><ele>372.0</ele><time>2026-05-02T13:59:44.691Z</time></trkpt><trkpt lat="43.0865082" lon="11.5832239"><ele>371.0</ele><time>2026-05-02T13:59:45.7Z</time></trkpt><trkpt lat="43.0865809" lon="11.58329"><ele>370.0</ele><time>2026-05-02T13:59:46.695Z</time></trkpt><trkpt lat="43.0866589" lon="11.5833482"><ele>369.0</ele><time>2026-05-02T13:59:47.693Z</time></trkpt><trkpt lat="43.0867392" lon="11.5834023"><ele>369.0</ele><time>2026-05-02T13:59:48.696Z</time></trkpt><trkpt lat="43.0868329" lon="11.5834663"><ele>369.0</ele><time>2026-05-02T13:59:49.693Z</time></trkpt><trkpt lat="43.0869295" lon="11.5835414"><ele>369.0</ele><time>2026-05-02T13:59:50.701Z</time></trkpt><trkpt lat="43.0870268" lon="11.5836261"><ele>369.0</ele><time>2026-05-02T13:59:51.694Z</time></trkpt><trkpt lat="43.0871323" lon="11.5837134"><ele>365.5</ele><time>2026-05-02T13:59:52.703Z</time></trkpt><trkpt lat="43.0872404" lon="11.5838006"><ele>362.0</ele><time>2026-05-02T13:59:53.701Z</time></trkpt><trkpt lat="43.0873456" lon="11.5838831"><ele>358.5</ele><time>2026-05-02T13:59:54.699Z</time></trkpt><trkpt lat="43.0874511" lon="11.5839691"><ele>355.0</ele><time>2026-05-02T13:59:55.703Z</time></trkpt><trkpt lat="43.0875496" lon="11.5840552"><ele>355.0</ele><time>2026-05-02T13:59:56.702Z</time></trkpt><trkpt lat="43.087647" lon="11.5841419"><ele>355.0</ele><time>2026-05-02T13:59:57.695Z</time></trkpt><trkpt lat="43.0877442" lon="11.584225"><ele>355.0</ele><time>2026-05-02T13:59:58.703Z</time></trkpt><trkpt lat="43.0878457" lon="11.5843172"><ele>355.0</ele><time>2026-05-02T13:59:59.704Z</time></trkpt><trkpt lat="43.0879474" lon="11.584399"><ele>355.0</ele><time>2026-05-02T14:00:00.7Z</time></trkpt><trkpt lat="43.0880464" lon="11.584479"><ele>355.0</ele><time>2026-05-02T14:00:01.708Z</time></trkpt><trkpt lat="43.0881502" lon="11.5845538"><ele>355.0</ele><time>2026-05-02T14:00:02.7Z</time></trkpt><trkpt lat="43.0882508" lon="11.5846207"><ele>355.0</ele><time>2026-05-02T14:00:03.695Z</time></trkpt><trkpt lat="43.0883569" lon="11.584683"><ele>356.25</ele><time>2026-05-02T14:00:04.706Z</time></trkpt><trkpt lat="43.0884631" lon="11.5847449"><ele>357.5</ele><time>2026-05-02T14:00:05.695Z</time></trkpt><trkpt lat="43.0885745" lon="11.5848129"><ele>358.75</ele><time>2026-05-02T14:00:06.698Z</time></trkpt><trkpt lat="43.0886745" lon="11.5848961"><ele>360.0</ele><time>2026-05-02T14:00:07.703Z</time></trkpt><trkpt lat="43.0887783" lon="11.5849816"><ele>360.0</ele><time>2026-05-02T14:00:08.699Z</time></trkpt><trkpt lat="43.0888826" lon="11.5850659"><ele>360.0</ele><time>2026-05-02T14:00:09.702Z</time></trkpt><trkpt lat="43.0889903" lon="11.585155"><ele>360.0</ele><time>2026-05-02T14:00:10.69Z</time></trkpt><trkpt lat="43.0890999" lon="11.5852549"><ele>360.0</ele><time>2026-05-02T14:00:11.713Z</time></trkpt><trkpt lat="43.0892052" lon="11.5853545"><ele>363.3333333333333</ele><time>2026-05-02T14:00:12.703Z</time></trkpt><trkpt lat="43.0893095" lon="11.5854481"><ele>366.66666666666663</ele><time>2026-05-02T14:00:13.702Z</time></trkpt><trkpt lat="43.0894136" lon="11.5855362"><ele>370.0</ele><time>2026-05-02T14:00:14.701Z</time></trkpt><trkpt lat="43.0896162" lon="11.5857204"><ele>370.0</ele><time>2026-05-02T14:00:16.699Z</time></trkpt><trkpt lat="43.0897117" lon="11.5858113"><ele>370.0</ele><time>2026-05-02T14:00:17.705Z</time></trkpt><trkpt lat="43.0898029" lon="11.5858924"><ele>370.0</ele><time>2026-05-02T14:00:18.703Z</time></trkpt><trkpt lat="43.0898933" lon="11.5859724"><ele>370.0</ele><time>2026-05-02T14:00:19.693Z</time></trkpt><trkpt lat="43.0899782" lon="11.5860543"><ele>370.0</ele><time>2026-05-02T14:00:20.702Z</time></trkpt><trkpt lat="43.0900563" lon="11.586139"><ele>371.6</ele><time>2026-05-02T14:00:21.693Z</time></trkpt><trkpt lat="43.090126" lon="11.586227"><ele>373.2</ele><time>2026-05-02T14:00:22.7Z</time></trkpt><trkpt lat="43.0901962" lon="11.5863415"><ele>374.79999999999995</ele><time>2026-05-02T14:00:23.7Z</time></trkpt><trkpt lat="43.090254" lon="11.5864614"><ele>376.4</ele><time>2026-05-02T14:00:24.699Z</time></trkpt><trkpt lat="43.090316" lon="11.5865867"><ele>378.0</ele><time>2026-05-02T14:00:25.699Z</time></trkpt><trkpt lat="43.0903848" lon="11.5867184"><ele>378.0</ele><time>2026-05-02T14:00:26.707Z</time></trkpt><trkpt lat="43.0904525" lon="11.5868454"><ele>378.0</ele><time>2026-05-02T14:00:27.699Z</time></trkpt><trkpt lat="43.0905209" lon="11.5869732"><ele>378.0</ele><time>2026-05-02T14:00:28.698Z</time></trkpt><trkpt lat="43.0905839" lon="11.5871077"><ele>378.0</ele><time>2026-05-02T14:00:29.694Z</time></trkpt><trkpt lat="43.0906494" lon="11.5872463"><ele>379.5</ele><time>2026-05-02T14:00:30.703Z</time></trkpt><trkpt lat="43.0907251" lon="11.5873805"><ele>381.0</ele><time>2026-05-02T14:00:31.698Z</time></trkpt><trkpt lat="43.0907999" lon="11.5875071"><ele>382.5</ele><time>2026-05-02T14:00:32.704Z</time></trkpt><trkpt lat="43.0908758" lon="11.5876179"><ele>384.0</ele><time>2026-05-02T14:00:33.697Z</time></trkpt><trkpt lat="43.0909565" lon="11.587708"><ele>381.2</ele><time>2026-05-02T14:00:34.705Z</time></trkpt><trkpt lat="43.0910464" lon="11.5877859"><ele>378.4</ele><time>2026-05-02T14:00:35.693Z</time></trkpt><trkpt lat="43.091141" lon="11.5878555"><ele>375.6</ele><time>2026-05-02T14:00:36.701Z</time></trkpt><trkpt lat="43.0912415" lon="11.5879191"><ele>372.8</ele><time>2026-05-02T14:00:37.695Z</time></trkpt><trkpt lat="43.0913497" lon="11.5879813"><ele>370.0</ele><time>2026-05-02T14:00:38.708Z</time></trkpt><trkpt lat="43.0914605" lon="11.5880518"><ele>370.0</ele><time>2026-05-02T14:00:39.696Z</time></trkpt><trkpt lat="43.0915765" lon="11.5881257"><ele>370.0</ele><time>2026-05-02T14:00:40.698Z</time></trkpt><trkpt lat="43.0916967" lon="11.5882052"><ele>370.0</ele><time>2026-05-02T14:00:41.703Z</time></trkpt><trkpt lat="43.0918144" lon="11.5882838"><ele>370.0</ele><time>2026-05-02T14:00:42.698Z</time></trkpt><trkpt lat="43.0919273" lon="11.5883617"><ele>369.0</ele><time>2026-05-02T14:00:43.698Z</time></trkpt><trkpt lat="43.0920385" lon="11.5884374"><ele>368.0</ele><time>2026-05-02T14:00:44.695Z</time></trkpt><trkpt lat="43.0921461" lon="11.5885066"><ele>367.0</ele><time>2026-05-02T14:00:45.702Z</time></trkpt><trkpt lat="43.0922508" lon="11.5885647"><ele>366.0</ele><time>2026-05-02T14:00:46.697Z</time></trkpt><trkpt lat="43.0923435" lon="11.58861"><ele>364.6</ele><time>2026-05-02T14:00:47.699Z</time></trkpt><trkpt lat="43.0924297" lon="11.5886513"><ele>363.20000000000005</ele><time>2026-05-02T14:00:48.693Z</time></trkpt><trkpt lat="43.0925036" lon="11.5887036"><ele>361.79999999999995</ele><time>2026-05-02T14:00:49.687Z</time></trkpt><trkpt lat="43.092581" lon="11.5887612"><ele>360.4</ele><time>2026-05-02T14:00:50.708Z</time></trkpt><trkpt lat="43.0926567" lon="11.5888279"><ele>359.0</ele><time>2026-05-02T14:00:51.706Z</time></trkpt><trkpt lat="43.0927374" lon="11.5889105"><ele>358.79999999999995</ele><time>2026-05-02T14:00:52.694Z</time></trkpt><trkpt lat="43.0928172" lon="11.5890029"><ele>358.59999999999997</ele><time>2026-05-02T14:00:53.696Z</time></trkpt><trkpt lat="43.0928986" lon="11.589097"><ele>358.4</ele><time>2026-05-02T14:00:54.696Z</time></trkpt><trkpt lat="43.0929763" lon="11.5891962"><ele>358.2</ele><time>2026-05-02T14:00:55.697Z</time></trkpt><trkpt lat="43.0930495" lon="11.5893015"><ele>358.0</ele><time>2026-05-02T14:00:56.699Z</time></trkpt><trkpt lat="43.0931211" lon="11.589419"><ele>355.75</ele><time>2026-05-02T14:00:57.707Z</time></trkpt><trkpt lat="43.0931893" lon="11.5895475"><ele>353.5</ele><time>2026-05-02T14:00:58.694Z</time></trkpt><trkpt lat="43.0932549" lon="11.5896961"><ele>351.25</ele><time>2026-05-02T14:00:59.694Z</time></trkpt><trkpt lat="43.0933189" lon="11.5898523"><ele>349.0</ele><time>2026-05-02T14:01:00.693Z</time></trkpt><trkpt lat="43.0933917" lon="11.5900039"><ele>348.75</ele><time>2026-05-02T14:01:01.698Z</time></trkpt><trkpt lat="43.0934706" lon="11.5901465"><ele>348.5</ele><time>2026-05-02T14:01:02.71Z</time></trkpt><trkpt lat="43.0935522" lon="11.5902805"><ele>348.25</ele><time>2026-05-02T14:01:03.693Z</time></trkpt><trkpt lat="43.0936398" lon="11.5903846"><ele>348.0</ele><time>2026-05-02T14:01:04.702Z</time></trkpt><trkpt lat="43.0937283" lon="11.5904746"><ele>348.75</ele><time>2026-05-02T14:01:05.704Z</time></trkpt><trkpt lat="43.0938311" lon="11.5905671"><ele>349.5</ele><time>2026-05-02T14:01:06.701Z</time></trkpt><trkpt lat="43.0939368" lon="11.5906643"><ele>350.25</ele><time>2026-05-02T14:01:07.703Z</time></trkpt><trkpt lat="43.0940489" lon="11.590772"><ele>351.0</ele><time>2026-05-02T14:01:08.697Z</time></trkpt><trkpt lat="43.0941616" lon="11.5908825"><ele>351.0</ele><time>2026-05-02T14:01:09.693Z</time></trkpt><trkpt lat="43.0942759" lon="11.5910052"><ele>351.0</ele><time>2026-05-02T14:01:10.697Z</time></trkpt><trkpt lat="43.0943691" lon="11.591136"><ele>351.0</ele><time>2026-05-02T14:01:11.693Z</time></trkpt><trkpt lat="43.0944396" lon="11.5912857"><ele>351.0</ele><time>2026-05-02T14:01:12.697Z</time></trkpt><trkpt lat="43.0944966" lon="11.591475"><ele>346.3333333333333</ele><time>2026-05-02T14:01:13.699Z</time></trkpt><trkpt lat="43.0945728" lon="11.591691"><ele>341.66666666666663</ele><time>2026-05-02T14:01:14.695Z</time></trkpt><trkpt lat="43.0946569" lon="11.5919018"><ele>337.0</ele><time>2026-05-02T14:01:15.695Z</time></trkpt><trkpt lat="43.0947478" lon="11.5921332"><ele>335.0</ele><time>2026-05-02T14:01:16.696Z</time></trkpt><trkpt lat="43.0948444" lon="11.5923712"><ele>333.0</ele><time>2026-05-02T14:01:17.715Z</time></trkpt><trkpt lat="43.0949474" lon="11.5926207"><ele>331.0</ele><time>2026-05-02T14:01:18.696Z</time></trkpt><trkpt lat="43.0950608" lon="11.5928834"><ele>332.0</ele><time>2026-05-02T14:01:19.69Z</time></trkpt><trkpt lat="43.0951749" lon="11.5931447"><ele>333.0</ele><time>2026-05-02T14:01:20.699Z</time></trkpt><trkpt lat="43.0952879" lon="11.5934143"><ele>334.0</ele><time>2026-05-02T14:01:21.697Z</time></trkpt><trkpt lat="43.0954003" lon="11.5936859"><ele>334.0</ele><time>2026-05-02T14:01:22.698Z</time></trkpt><trkpt lat="43.095499" lon="11.5939387"><ele>334.0</ele><time>2026-05-02T14:01:23.711Z</time></trkpt><trkpt lat="43.0955911" lon="11.5941596"><ele>334.0</ele><time>2026-05-02T14:01:24.706Z</time></trkpt><trkpt lat="43.0956771" lon="11.5943658"><ele>337.25</ele><time>2026-05-02T14:01:25.703Z</time></trkpt><trkpt lat="43.0957575" lon="11.5945405"><ele>340.5</ele><time>2026-05-02T14:01:26.7Z</time></trkpt><trkpt lat="43.0958395" lon="11.5946901"><ele>343.75</ele><time>2026-05-02T14:01:27.7Z</time></trkpt><trkpt lat="43.0959299" lon="11.5948093"><ele>347.0</ele><time>2026-05-02T14:01:28.699Z</time></trkpt><trkpt lat="43.0960237" lon="11.5949055"><ele>347.0</ele><time>2026-05-02T14:01:29.69Z</time></trkpt><trkpt lat="43.0961202" lon="11.5949944"><ele>347.0</ele><time>2026-05-02T14:01:30.685Z</time></trkpt><trkpt lat="43.0962294" lon="11.5951023"><ele>347.0</ele><time>2026-05-02T14:01:31.691Z</time></trkpt><trkpt lat="43.0963235" lon="11.5952404"><ele>347.0</ele><time>2026-05-02T14:01:32.691Z</time></trkpt><trkpt lat="43.0963914" lon="11.59539"><ele>346.75</ele><time>2026-05-02T14:01:33.707Z</time></trkpt><trkpt lat="43.0964476" lon="11.5955575"><ele>346.5</ele><time>2026-05-02T14:01:34.703Z</time></trkpt><trkpt lat="43.0965065" lon="11.5957293"><ele>346.25</ele><time>2026-05-02T14:01:35.704Z</time></trkpt><trkpt lat="43.0965581" lon="11.5959237"><ele>346.0</ele><time>2026-05-02T14:01:36.711Z</time></trkpt><trkpt lat="43.0966085" lon="11.5961296"><ele>349.66666666666663</ele><time>2026-05-02T14:01:37.705Z</time></trkpt><trkpt lat="43.0966662" lon="11.5963654"><ele>353.3333333333333</ele><time>2026-05-02T14:01:38.699Z</time></trkpt><trkpt lat="43.0967241" lon="11.5965965"><ele>357.0</ele><time>2026-05-02T14:01:39.731Z</time></trkpt><trkpt lat="43.0967722" lon="11.5967917"><ele>357.0</ele><time>2026-05-02T14:01:40.697Z</time></trkpt><trkpt lat="43.0968176" lon="11.5969642"><ele>357.0</ele><time>2026-05-02T14:01:41.703Z</time></trkpt><trkpt lat="43.0968608" lon="11.5970983"><ele>357.0</ele><time>2026-05-02T14:01:42.696Z</time></trkpt><trkpt lat="43.0969119" lon="11.5972064"><ele>357.0</ele><time>2026-05-02T14:01:43.696Z</time></trkpt><trkpt lat="43.0969787" lon="11.5972606"><ele>357.0</ele><time>2026-05-02T14:01:44.695Z</time></trkpt><trkpt lat="43.0970608" lon="11.5973134"><ele>357.5</ele><time>2026-05-02T14:01:45.694Z</time></trkpt><trkpt lat="43.0971702" lon="11.5973837"><ele>358.0</ele><time>2026-05-02T14:01:46.691Z</time></trkpt><trkpt lat="43.0972622" lon="11.597485"><ele>358.5</ele><time>2026-05-02T14:01:47.707Z</time></trkpt><trkpt lat="43.0973643" lon="11.5976148"><ele>359.0</ele><time>2026-05-02T14:01:48.703Z</time></trkpt><trkpt lat="43.0974593" lon="11.5977504"><ele>362.33333333333337</ele><time>2026-05-02T14:01:49.698Z</time></trkpt><trkpt lat="43.097569" lon="11.5979055"><ele>365.6666666666667</ele><time>2026-05-02T14:01:50.699Z</time></trkpt><trkpt lat="43.0976902" lon="11.5980832"><ele>369.0</ele><time>2026-05-02T14:01:51.687Z</time></trkpt><trkpt lat="43.0977961" lon="11.598248"><ele>369.0</ele><time>2026-05-02T14:01:52.695Z</time></trkpt><trkpt lat="43.0978758" lon="11.5983813"><ele>369.0</ele><time>2026-05-02T14:01:53.7Z</time></trkpt><trkpt lat="43.0979463" lon="11.5984722"><ele>369.0</ele><time>2026-05-02T14:01:54.703Z</time></trkpt><trkpt lat="43.0980217" lon="11.5985385"><ele>369.0</ele><time>2026-05-02T14:01:55.698Z</time></trkpt><trkpt lat="43.0981055" lon="11.598579"><ele>369.0</ele><time>2026-05-02T14:01:56.713Z</time></trkpt><trkpt lat="43.0981983" lon="11.5985743"><ele>368.6</ele><time>2026-05-02T14:01:57.701Z</time></trkpt><trkpt lat="43.0982969" lon="11.5985244"><ele>368.2</ele><time>2026-05-02T14:01:58.716Z</time></trkpt><trkpt lat="43.0983788" lon="11.5984624"><ele>367.8</ele><time>2026-05-02T14:01:59.687Z</time></trkpt><trkpt lat="43.0984285" lon="11.598374"><ele>367.40000000000003</ele><time>2026-05-02T14:02:00.708Z</time></trkpt><trkpt lat="43.0984674" lon="11.598271"><ele>367.0</ele><time>2026-05-02T14:02:01.705Z</time></trkpt><trkpt lat="43.0985018" lon="11.5981191"><ele>367.0</ele><time>2026-05-02T14:02:02.699Z</time></trkpt><trkpt lat="43.0985464" lon="11.5979512"><ele>367.0</ele><time>2026-05-02T14:02:03.692Z</time></trkpt><trkpt lat="43.0985857" lon="11.5977994"><ele>367.0</ele><time>2026-05-02T14:02:04.709Z</time></trkpt><trkpt lat="43.0986309" lon="11.5976756"><ele>367.0</ele><time>2026-05-02T14:02:05.686Z</time></trkpt><trkpt lat="43.0986716" lon="11.5975642"><ele>367.0</ele><time>2026-05-02T14:02:06.696Z</time></trkpt><trkpt lat="43.0987322" lon="11.5974762"><ele>366.0</ele><time>2026-05-02T14:02:07.708Z</time></trkpt><trkpt lat="43.0988078" lon="11.5974115"><ele>365.0</ele><time>2026-05-02T14:02:08.702Z</time></trkpt><trkpt lat="43.0988803" lon="11.5973998"><ele>364.0</ele><time>2026-05-02T14:02:09.7Z</time></trkpt><trkpt lat="43.0989605" lon="11.5974388"><ele>363.0</ele><time>2026-05-02T14:02:10.699Z</time></trkpt><trkpt lat="43.099048" lon="11.5975066"><ele>362.0</ele><time>2026-05-02T14:02:11.7Z</time></trkpt><trkpt lat="43.0991394" lon="11.5976003"><ele>360.6666666666667</ele><time>2026-05-02T14:02:12.71Z</time></trkpt><trkpt lat="43.0992499" lon="11.5977416"><ele>359.3333333333333</ele><time>2026-05-02T14:02:13.704Z</time></trkpt><trkpt lat="43.0993725" lon="11.5979013"><ele>358.0</ele><time>2026-05-02T14:02:14.704Z</time></trkpt><trkpt lat="43.0994957" lon="11.5980778"><ele>360.66666666666663</ele><time>2026-05-02T14:02:15.694Z</time></trkpt><trkpt lat="43.0996192" lon="11.5982819"><ele>363.3333333333333</ele><time>2026-05-02T14:02:16.701Z</time></trkpt><trkpt lat="43.0997396" lon="11.598473"><ele>366.0</ele><time>2026-05-02T14:02:17.71Z</time></trkpt><trkpt lat="43.0998453" lon="11.5986476"><ele>363.0</ele><time>2026-05-02T14:02:18.703Z</time></trkpt><trkpt lat="43.0999431" lon="11.5988018"><ele>360.0</ele><time>2026-05-02T14:02:19.696Z</time></trkpt><trkpt lat="43.1000366" lon="11.598949"><ele>357.0</ele><time>2026-05-02T14:02:20.713Z</time></trkpt><trkpt lat="43.100134" lon="11.5990675"><ele>354.0</ele><time>2026-05-02T14:02:21.702Z</time></trkpt><trkpt lat="43.1002362" lon="11.5991416"><ele>354.0</ele><time>2026-05-02T14:02:22.701Z</time></trkpt><trkpt lat="43.1003502" lon="11.5992053"><ele>354.0</ele><time>2026-05-02T14:02:23.689Z</time></trkpt><trkpt lat="43.1004795" lon="11.5992444"><ele>354.0</ele><time>2026-05-02T14:02:24.692Z</time></trkpt><trkpt lat="43.1006291" lon="11.5992539"><ele>354.0</ele><time>2026-05-02T14:02:25.706Z</time></trkpt><trkpt lat="43.100765" lon="11.5992556"><ele>352.75</ele><time>2026-05-02T14:02:26.697Z</time></trkpt><trkpt lat="43.1009174" lon="11.5992349"><ele>351.5</ele><time>2026-05-02T14:02:27.697Z</time></trkpt><trkpt lat="43.1010682" lon="11.5992165"><ele>350.25</ele><time>2026-05-02T14:02:28.693Z</time></trkpt><trkpt lat="43.1012097" lon="11.59922"><ele>349.0</ele><time>2026-05-02T14:02:29.704Z</time></trkpt><trkpt lat="43.1013399" lon="11.5992456"><ele>349.0</ele><time>2026-05-02T14:02:30.696Z</time></trkpt><trkpt lat="43.1014561" lon="11.599307"><ele>349.0</ele><time>2026-05-02T14:02:31.711Z</time></trkpt><trkpt lat="43.1015809" lon="11.5993885"><ele>349.0</ele><time>2026-05-02T14:02:32.695Z</time></trkpt><trkpt lat="43.1017024" lon="11.5994986"><ele>349.0</ele><time>2026-05-02T14:02:33.697Z</time></trkpt><trkpt lat="43.1018032" lon="11.5996081"><ele>349.75</ele><time>2026-05-02T14:02:34.703Z</time></trkpt><trkpt lat="43.1018924" lon="11.5997346"><ele>350.5</ele><time>2026-05-02T14:02:35.705Z</time></trkpt><trkpt lat="43.101973" lon="11.599902"><ele>351.25</ele><time>2026-05-02T14:02:36.706Z</time></trkpt><trkpt lat="43.1020564" lon="11.6000887"><ele>352.0</ele><time>2026-05-02T14:02:37.696Z</time></trkpt><trkpt lat="43.1021477" lon="11.6002905"><ele>349.75</ele><time>2026-05-02T14:02:38.696Z</time></trkpt><trkpt lat="43.1022289" lon="11.6004654"><ele>347.5</ele><time>2026-05-02T14:02:39.702Z</time></trkpt><trkpt lat="43.1023004" lon="11.600612"><ele>345.25</ele><time>2026-05-02T14:02:40.698Z</time></trkpt><trkpt lat="43.1023619" lon="11.6007448"><ele>343.0</ele><time>2026-05-02T14:02:41.702Z</time></trkpt><trkpt lat="43.1024163" lon="11.6008598"><ele>346.16666666666663</ele><time>2026-05-02T14:02:42.693Z</time></trkpt><trkpt lat="43.1024846" lon="11.6009623"><ele>349.3333333333333</ele><time>2026-05-02T14:02:43.703Z</time></trkpt><trkpt lat="43.1025633" lon="11.6010304"><ele>352.5</ele><time>2026-05-02T14:02:44.699Z</time></trkpt><trkpt lat="43.1026419" lon="11.6010758"><ele>355.6666666666667</ele><time>2026-05-02T14:02:45.703Z</time></trkpt><trkpt lat="43.1027211" lon="11.6010795"><ele>358.83333333333337</ele><time>2026-05-02T14:02:46.698Z</time></trkpt><trkpt lat="43.1027902" lon="11.6010509"><ele>362.0</ele><time>2026-05-02T14:02:47.69Z</time></trkpt><trkpt lat="43.1028523" lon="11.6010064"><ele>362.0</ele><time>2026-05-02T14:02:48.697Z</time></trkpt><trkpt lat="43.1029059" lon="11.6009375"><ele>362.0</ele><time>2026-05-02T14:02:49.693Z</time></trkpt><trkpt lat="43.1029568" lon="11.6008664"><ele>362.0</ele><time>2026-05-02T14:02:50.701Z</time></trkpt><trkpt lat="43.1030103" lon="11.6007971"><ele>362.0</ele><time>2026-05-02T14:02:51.701Z</time></trkpt><trkpt lat="43.1030632" lon="11.6007353"><ele>362.0</ele><time>2026-05-02T14:02:52.714Z</time></trkpt><trkpt lat="43.103125" lon="11.6006711"><ele>362.0</ele><time>2026-05-02T14:02:53.705Z</time></trkpt><trkpt lat="43.1031803" lon="11.6006065"><ele>362.0</ele><time>2026-05-02T14:02:54.699Z</time></trkpt><trkpt lat="43.1032376" lon="11.6005573"><ele>362.1666666666667</ele><time>2026-05-02T14:02:55.705Z</time></trkpt><trkpt lat="43.1033407" lon="11.600493"><ele>362.33333333333337</ele><time>2026-05-02T14:02:57.699Z</time></trkpt><trkpt lat="43.1034358" lon="11.6004696"><ele>362.5</ele><time>2026-05-02T14:02:59.692Z</time></trkpt><trkpt lat="43.1035204" lon="11.6004812"><ele>362.6666666666667</ele><time>2026-05-02T14:03:01.698Z</time></trkpt><trkpt lat="43.1036013" lon="11.6005023"><ele>362.8333333333333</ele><time>2026-05-02T14:03:03.694Z</time></trkpt><trkpt lat="43.1036667" lon="11.6005382"><ele>363.0</ele><time>2026-05-02T14:03:05.711Z</time></trkpt><trkpt lat="43.1037804" lon="11.6005355"><ele>363.0</ele><time>2026-05-02T14:03:18.699Z</time></trkpt><trkpt lat="43.1038477" lon="11.6005476"><ele>363.0</ele><time>2026-05-02T14:03:19.697Z</time></trkpt><trkpt lat="43.1039258" lon="11.6005575"><ele>363.0</ele><time>2026-05-02T14:03:20.702Z</time></trkpt><trkpt lat="43.1040089" lon="11.6005687"><ele>363.0</ele><time>2026-05-02T14:03:21.7Z</time></trkpt><trkpt lat="43.1041017" lon="11.6005717"><ele>363.0</ele><time>2026-05-02T14:03:22.702Z</time></trkpt><trkpt lat="43.1041907" lon="11.6005805"><ele>363.0</ele><time>2026-05-02T14:03:23.695Z</time></trkpt><trkpt lat="43.1042834" lon="11.600586"><ele>363.4</ele><time>2026-05-02T14:03:24.708Z</time></trkpt><trkpt lat="43.1043824" lon="11.6006068"><ele>363.79999999999995</ele><time>2026-05-02T14:03:25.701Z</time></trkpt><trkpt lat="43.1044881" lon="11.6006309"><ele>364.2</ele><time>2026-05-02T14:03:26.701Z</time></trkpt><trkpt lat="43.104597" lon="11.6006603"><ele>364.6</ele><time>2026-05-02T14:03:27.702Z</time></trkpt><trkpt lat="43.1047237" lon="11.6006853"><ele>365.0</ele><time>2026-05-02T14:03:28.711Z</time></trkpt><trkpt lat="43.1048743" lon="11.600709"><ele>365.6666666666667</ele><time>2026-05-02T14:03:29.703Z</time></trkpt><trkpt lat="43.1050335" lon="11.600735"><ele>366.3333333333333</ele><time>2026-05-02T14:03:30.696Z</time></trkpt><trkpt lat="43.1051798" lon="11.6007547"><ele>367.0</ele><time>2026-05-02T14:03:31.705Z</time></trkpt><trkpt lat="43.1053344" lon="11.6007491"><ele>367.0</ele><time>2026-05-02T14:03:32.705Z</time></trkpt><trkpt lat="43.105484" lon="11.6007146"><ele>367.0</ele><time>2026-05-02T14:03:33.71Z</time></trkpt><trkpt lat="43.1056258" lon="11.6006535"><ele>367.0</ele><time>2026-05-02T14:03:34.696Z</time></trkpt><trkpt lat="43.1057646" lon="11.6005749"><ele>368.5</ele><time>2026-05-02T14:03:35.693Z</time></trkpt><trkpt lat="43.1058984" lon="11.6004874"><ele>370.0</ele><time>2026-05-02T14:03:36.702Z</time></trkpt><trkpt lat="43.1060227" lon="11.60041"><ele>371.5</ele><time>2026-05-02T14:03:37.7Z</time></trkpt><trkpt lat="43.1061286" lon="11.600358"><ele>373.0</ele><time>2026-05-02T14:03:38.705Z</time></trkpt><trkpt lat="43.1062228" lon="11.6003389"><ele>373.0</ele><time>2026-05-02T14:03:39.705Z</time></trkpt><trkpt lat="43.1063248" lon="11.60034"><ele>373.0</ele><time>2026-05-02T14:03:40.705Z</time></trkpt><trkpt lat="43.1064362" lon="11.6003681"><ele>373.0</ele><time>2026-05-02T14:03:41.703Z</time></trkpt><trkpt lat="43.1065511" lon="11.6004297"><ele>373.0</ele><time>2026-05-02T14:03:42.689Z</time></trkpt><trkpt lat="43.1066618" lon="11.6004982"><ele>375.2</ele><time>2026-05-02T14:03:43.698Z</time></trkpt><trkpt lat="43.1067653" lon="11.6005693"><ele>377.4</ele><time>2026-05-02T14:03:44.695Z</time></trkpt><trkpt lat="43.1068681" lon="11.6006367"><ele>379.59999999999997</ele><time>2026-05-02T14:03:45.719Z</time></trkpt><trkpt lat="43.1069696" lon="11.6007015"><ele>381.79999999999995</ele><time>2026-05-02T14:03:46.695Z</time></trkpt><trkpt lat="43.1070605" lon="11.6007712"><ele>384.0</ele><time>2026-05-02T14:03:47.69Z</time></trkpt><trkpt lat="43.1071538" lon="11.6008325"><ele>384.0</ele><time>2026-05-02T14:03:48.708Z</time></trkpt><trkpt lat="43.1072441" lon="11.600893"><ele>384.0</ele><time>2026-05-02T14:03:49.699Z</time></trkpt><trkpt lat="43.1073359" lon="11.6009544"><ele>384.0</ele><time>2026-05-02T14:03:50.708Z</time></trkpt><trkpt lat="43.107424" lon="11.60102"><ele>384.0</ele><time>2026-05-02T14:03:51.699Z</time></trkpt><trkpt lat="43.1075094" lon="11.6010845"><ele>384.0</ele><time>2026-05-02T14:03:52.694Z</time></trkpt><trkpt lat="43.1075888" lon="11.6011418"><ele>385.5</ele><time>2026-05-02T14:03:53.707Z</time></trkpt><trkpt lat="43.1076642" lon="11.6011924"><ele>387.0</ele><time>2026-05-02T14:03:54.699Z</time></trkpt><trkpt lat="43.1077318" lon="11.6012507"><ele>388.5</ele><time>2026-05-02T14:03:55.705Z</time></trkpt><trkpt lat="43.1078018" lon="11.6013104"><ele>390.0</ele><time>2026-05-02T14:03:56.696Z</time></trkpt><trkpt lat="43.1078617" lon="11.6013769"><ele>391.5</ele><time>2026-05-02T14:03:57.703Z</time></trkpt><trkpt lat="43.1079159" lon="11.6014643"><ele>393.0</ele><time>2026-05-02T14:03:58.689Z</time></trkpt><trkpt lat="43.1079677" lon="11.6015547"><ele>393.0</ele><time>2026-05-02T14:03:59.708Z</time></trkpt><trkpt lat="43.1080104" lon="11.6016627"><ele>393.0</ele><time>2026-05-02T14:04:00.692Z</time></trkpt><trkpt lat="43.1080352" lon="11.6017746"><ele>393.0</ele><time>2026-05-02T14:04:01.695Z</time></trkpt><trkpt lat="43.1080522" lon="11.6019038"><ele>393.0</ele><time>2026-05-02T14:04:02.71Z</time></trkpt><trkpt lat="43.1080566" lon="11.6020487"><ele>393.0</ele><time>2026-05-02T14:04:03.699Z</time></trkpt><trkpt lat="43.1080563" lon="11.6021911"><ele>392.2</ele><time>2026-05-02T14:04:04.699Z</time></trkpt><trkpt lat="43.1080402" lon="11.6023455"><ele>391.4</ele><time>2026-05-02T14:04:05.688Z</time></trkpt><trkpt lat="43.1080109" lon="11.6025022"><ele>390.59999999999997</ele><time>2026-05-02T14:04:06.706Z</time></trkpt><trkpt lat="43.1079804" lon="11.6026447"><ele>389.79999999999995</ele><time>2026-05-02T14:04:07.704Z</time></trkpt><trkpt lat="43.1079493" lon="11.6027811"><ele>389.0</ele><time>2026-05-02T14:04:08.711Z</time></trkpt><trkpt lat="43.1079146" lon="11.6029155"><ele>386.79999999999995</ele><time>2026-05-02T14:04:09.697Z</time></trkpt><trkpt lat="43.1078817" lon="11.6030443"><ele>384.59999999999997</ele><time>2026-05-02T14:04:10.709Z</time></trkpt><trkpt lat="43.10786" lon="11.603163"><ele>382.4</ele><time>2026-05-02T14:04:11.705Z</time></trkpt><trkpt lat="43.1078489" lon="11.6032874"><ele>380.2</ele><time>2026-05-02T14:04:12.694Z</time></trkpt><trkpt lat="43.10785" lon="11.6034255"><ele>378.0</ele><time>2026-05-02T14:04:13.702Z</time></trkpt><trkpt lat="43.1078746" lon="11.6035855"><ele>376.25</ele><time>2026-05-02T14:04:14.692Z</time></trkpt><trkpt lat="43.1079166" lon="11.6037546"><ele>374.5</ele><time>2026-05-02T14:04:15.695Z</time></trkpt><trkpt lat="43.1079644" lon="11.6039178"><ele>372.75</ele><time>2026-05-02T14:04:16.693Z</time></trkpt><trkpt lat="43.1080063" lon="11.6040626"><ele>371.0</ele><time>2026-05-02T14:04:17.698Z</time></trkpt><trkpt lat="43.108049" lon="11.604184"><ele>371.0</ele><time>2026-05-02T14:04:18.692Z</time></trkpt><trkpt lat="43.108089" lon="11.6042957"><ele>371.0</ele><time>2026-05-02T14:04:19.684Z</time></trkpt><trkpt lat="43.1081357" lon="11.6043951"><ele>371.0</ele><time>2026-05-02T14:04:20.7Z</time></trkpt><trkpt lat="43.1081942" lon="11.6044874"><ele>371.0</ele><time>2026-05-02T14:04:21.697Z</time></trkpt><trkpt lat="43.1082837" lon="11.6045907"><ele>371.0</ele><time>2026-05-02T14:04:22.691Z</time></trkpt><trkpt lat="43.1083889" lon="11.6047029"><ele>372.6666666666667</ele><time>2026-05-02T14:04:23.704Z</time></trkpt><trkpt lat="43.1085245" lon="11.6048263"><ele>374.3333333333333</ele><time>2026-05-02T14:04:24.703Z</time></trkpt><trkpt lat="43.1086656" lon="11.6049619"><ele>376.0</ele><time>2026-05-02T14:04:25.71Z</time></trkpt><trkpt lat="43.10882" lon="11.6051031"><ele>376.0</ele><time>2026-05-02T14:04:26.696Z</time></trkpt><trkpt lat="43.1089876" lon="11.6052517"><ele>376.0</ele><time>2026-05-02T14:04:27.701Z</time></trkpt><trkpt lat="43.1091636" lon="11.6054083"><ele>376.0</ele><time>2026-05-02T14:04:28.709Z</time></trkpt><trkpt lat="43.1093466" lon="11.6055803"><ele>375.5</ele><time>2026-05-02T14:04:29.689Z</time></trkpt><trkpt lat="43.1095321" lon="11.6057611"><ele>375.0</ele><time>2026-05-02T14:04:30.706Z</time></trkpt><trkpt lat="43.1097187" lon="11.6059519"><ele>375.0</ele><time>2026-05-02T14:04:31.699Z</time></trkpt><trkpt lat="43.1098841" lon="11.6061135"><ele>375.0</ele><time>2026-05-02T14:04:32.709Z</time></trkpt><trkpt lat="43.1100273" lon="11.6062487"><ele>375.0</ele><time>2026-05-02T14:04:33.691Z</time></trkpt><trkpt lat="43.1101545" lon="11.606369"><ele>374.25</ele><time>2026-05-02T14:04:34.698Z</time></trkpt><trkpt lat="43.1102716" lon="11.6064746"><ele>373.5</ele><time>2026-05-02T14:04:35.703Z</time></trkpt><trkpt lat="43.1103705" lon="11.6065753"><ele>372.75</ele><time>2026-05-02T14:04:36.698Z</time></trkpt><trkpt lat="43.1104687" lon="11.6066626"><ele>372.0</ele><time>2026-05-02T14:04:37.701Z</time></trkpt><trkpt lat="43.110579" lon="11.6067335"><ele>372.0</ele><time>2026-05-02T14:04:38.697Z</time></trkpt><trkpt lat="43.1107026" lon="11.6067987"><ele>372.0</ele><time>2026-05-02T14:04:39.697Z</time></trkpt><trkpt lat="43.1108383" lon="11.6068614"><ele>372.0</ele><time>2026-05-02T14:04:40.706Z</time></trkpt><trkpt lat="43.1109661" lon="11.6069405"><ele>372.0</ele><time>2026-05-02T14:04:41.717Z</time></trkpt><trkpt lat="43.1110876" lon="11.607039"><ele>370.25</ele><time>2026-05-02T14:04:42.699Z</time></trkpt><trkpt lat="43.1111949" lon="11.6071452"><ele>368.5</ele><time>2026-05-02T14:04:43.704Z</time></trkpt><trkpt lat="43.1112998" lon="11.6072399"><ele>366.75</ele><time>2026-05-02T14:04:44.709Z</time></trkpt><trkpt lat="43.1114032" lon="11.6073346"><ele>365.0</ele><time>2026-05-02T14:04:45.7Z</time></trkpt><trkpt lat="43.1115076" lon="11.6074289"><ele>367.25</ele><time>2026-05-02T14:04:46.697Z</time></trkpt><trkpt lat="43.1116155" lon="11.6075238"><ele>369.5</ele><time>2026-05-02T14:04:47.718Z</time></trkpt><trkpt lat="43.1117272" lon="11.6076234"><ele>371.75</ele><time>2026-05-02T14:04:48.703Z</time></trkpt><trkpt lat="43.1118401" lon="11.6077201"><ele>374.0</ele><time>2026-05-02T14:04:49.697Z</time></trkpt><trkpt lat="43.1119589" lon="11.6078236"><ele>371.75</ele><time>2026-05-02T14:04:50.7Z</time></trkpt><trkpt lat="43.1120795" lon="11.6079286"><ele>369.5</ele><time>2026-05-02T14:04:51.699Z</time></trkpt><trkpt lat="43.1121975" lon="11.6080369"><ele>367.25</ele><time>2026-05-02T14:04:52.719Z</time></trkpt><trkpt lat="43.1123149" lon="11.6081477"><ele>365.0</ele><time>2026-05-02T14:04:53.699Z</time></trkpt><trkpt lat="43.1124256" lon="11.6082661"><ele>365.0</ele><time>2026-05-02T14:04:54.7Z</time></trkpt><trkpt lat="43.1125317" lon="11.6083782"><ele>365.0</ele><time>2026-05-02T14:04:55.703Z</time></trkpt><trkpt lat="43.1126255" lon="11.6084964"><ele>365.0</ele><time>2026-05-02T14:04:56.694Z</time></trkpt><trkpt lat="43.1127179" lon="11.6086056"><ele>365.0</ele><time>2026-05-02T14:04:57.702Z</time></trkpt><trkpt lat="43.1128105" lon="11.6087299"><ele>363.75</ele><time>2026-05-02T14:04:58.704Z</time></trkpt><trkpt lat="43.1128961" lon="11.6088671"><ele>362.5</ele><time>2026-05-02T14:04:59.694Z</time></trkpt><trkpt lat="43.1129762" lon="11.6090125"><ele>361.25</ele><time>2026-05-02T14:05:00.706Z</time></trkpt><trkpt lat="43.1130527" lon="11.6091723"><ele>360.0</ele><time>2026-05-02T14:05:01.705Z</time></trkpt><trkpt lat="43.1131256" lon="11.6093319"><ele>360.0</ele><time>2026-05-02T14:05:02.709Z</time></trkpt><trkpt lat="43.1131886" lon="11.60949"><ele>360.0</ele><time>2026-05-02T14:05:03.707Z</time></trkpt><trkpt lat="43.1132443" lon="11.6096487"><ele>360.0</ele><time>2026-05-02T14:05:04.71Z</time></trkpt><trkpt lat="43.1133041" lon="11.6098116"><ele>360.0</ele><time>2026-05-02T14:05:05.69Z</time></trkpt><trkpt lat="43.1133669" lon="11.6099716"><ele>360.5</ele><time>2026-05-02T14:05:06.707Z</time></trkpt><trkpt lat="43.1134412" lon="11.6101312"><ele>361.0</ele><time>2026-05-02T14:05:07.687Z</time></trkpt><trkpt lat="43.1135235" lon="11.6102976"><ele>361.5</ele><time>2026-05-02T14:05:08.696Z</time></trkpt><trkpt lat="43.1136056" lon="11.6104569"><ele>362.0</ele><time>2026-05-02T14:05:09.695Z</time></trkpt><trkpt lat="43.1136836" lon="11.6106123"><ele>362.0</ele><time>2026-05-02T14:05:10.71Z</time></trkpt><trkpt lat="43.1137582" lon="11.6107554"><ele>362.0</ele><time>2026-05-02T14:05:11.702Z</time></trkpt><trkpt lat="43.1138237" lon="11.6108853"><ele>362.0</ele><time>2026-05-02T14:05:12.712Z</time></trkpt><trkpt lat="43.1138948" lon="11.611001"><ele>362.0</ele><time>2026-05-02T14:05:13.703Z</time></trkpt><trkpt lat="43.1139755" lon="11.6111051"><ele>363.5</ele><time>2026-05-02T14:05:14.705Z</time></trkpt><trkpt lat="43.1140604" lon="11.6111979"><ele>365.0</ele><time>2026-05-02T14:05:15.709Z</time></trkpt><trkpt lat="43.1141466" lon="11.6112874"><ele>366.5</ele><time>2026-05-02T14:05:16.711Z</time></trkpt><trkpt lat="43.1142343" lon="11.6113877"><ele>368.0</ele><time>2026-05-02T14:05:17.704Z</time></trkpt><trkpt lat="43.1143213" lon="11.611503"><ele>368.0</ele><time>2026-05-02T14:05:18.69Z</time></trkpt><trkpt lat="43.1143975" lon="11.611629"><ele>368.0</ele><time>2026-05-02T14:05:19.701Z</time></trkpt><trkpt lat="43.1144712" lon="11.6117647"><ele>368.0</ele><time>2026-05-02T14:05:20.699Z</time></trkpt><trkpt lat="43.1145433" lon="11.6118988"><ele>368.0</ele><time>2026-05-02T14:05:21.709Z</time></trkpt><trkpt lat="43.1146074" lon="11.6120493"><ele>366.0</ele><time>2026-05-02T14:05:22.703Z</time></trkpt><trkpt lat="43.1146518" lon="11.6122076"><ele>364.0</ele><time>2026-05-02T14:05:23.697Z</time></trkpt><trkpt lat="43.114683" lon="11.6123786"><ele>362.0</ele><time>2026-05-02T14:05:24.693Z</time></trkpt><trkpt lat="43.114716" lon="11.6125403"><ele>360.0</ele><time>2026-05-02T14:05:25.701Z</time></trkpt><trkpt lat="43.1147581" lon="11.6126827"><ele>360.0</ele><time>2026-05-02T14:05:26.705Z</time></trkpt><trkpt lat="43.1148086" lon="11.6128099"><ele>360.0</ele><time>2026-05-02T14:05:27.707Z</time></trkpt><trkpt lat="43.1148784" lon="11.6129229"><ele>360.0</ele><time>2026-05-02T14:05:28.705Z</time></trkpt><trkpt lat="43.1149586" lon="11.6130441"><ele>360.0</ele><time>2026-05-02T14:05:29.703Z</time></trkpt><trkpt lat="43.1150428" lon="11.6131691"><ele>361.25</ele><time>2026-05-02T14:05:30.694Z</time></trkpt><trkpt lat="43.1151245" lon="11.613298"><ele>362.5</ele><time>2026-05-02T14:05:31.699Z</time></trkpt><trkpt lat="43.1152111" lon="11.6134292"><ele>363.75</ele><time>2026-05-02T14:05:32.698Z</time></trkpt><trkpt lat="43.1152972" lon="11.6135779"><ele>365.0</ele><time>2026-05-02T14:05:33.712Z</time></trkpt><trkpt lat="43.1153843" lon="11.6137123"><ele>365.0</ele><time>2026-05-02T14:05:34.696Z</time></trkpt><trkpt lat="43.1154749" lon="11.6138282"><ele>365.0</ele><time>2026-05-02T14:05:35.714Z</time></trkpt><trkpt lat="43.1155663" lon="11.6139351"><ele>365.0</ele><time>2026-05-02T14:05:36.707Z</time></trkpt><trkpt lat="43.1156619" lon="11.6140318"><ele>365.0</ele><time>2026-05-02T14:05:37.704Z</time></trkpt><trkpt lat="43.1157553" lon="11.6141236"><ele>367.2</ele><time>2026-05-02T14:05:38.706Z</time></trkpt><trkpt lat="43.115832" lon="11.6142122"><ele>369.4</ele><time>2026-05-02T14:05:39.701Z</time></trkpt><trkpt lat="43.1158976" lon="11.6143083"><ele>371.6</ele><time>2026-05-02T14:05:40.703Z</time></trkpt><trkpt lat="43.115953" lon="11.6144115"><ele>373.8</ele><time>2026-05-02T14:05:41.707Z</time></trkpt><trkpt lat="43.1159987" lon="11.614527"><ele>376.0</ele><time>2026-05-02T14:05:42.701Z</time></trkpt><trkpt lat="43.1160389" lon="11.61465"><ele>376.20000000000005</ele><time>2026-05-02T14:05:43.703Z</time></trkpt><trkpt lat="43.1160627" lon="11.6147842"><ele>376.40000000000003</ele><time>2026-05-02T14:05:44.697Z</time></trkpt><trkpt lat="43.1160785" lon="11.6149253"><ele>376.6</ele><time>2026-05-02T14:05:45.707Z</time></trkpt><trkpt lat="43.1160818" lon="11.615073"><ele>376.8</ele><time>2026-05-02T14:05:46.704Z</time></trkpt><trkpt lat="43.1160837" lon="11.6152249"><ele>377.0</ele><time>2026-05-02T14:05:47.707Z</time></trkpt><trkpt lat="43.11608" lon="11.6153786"><ele>377.5</ele><time>2026-05-02T14:05:48.688Z</time></trkpt><trkpt lat="43.1160752" lon="11.6155438"><ele>378.0</ele><time>2026-05-02T14:05:49.699Z</time></trkpt><trkpt lat="43.1160661" lon="11.6157167"><ele>378.5</ele><time>2026-05-02T14:05:50.703Z</time></trkpt><trkpt lat="43.1160512" lon="11.6158856"><ele>379.0</ele><time>2026-05-02T14:05:51.711Z</time></trkpt><trkpt lat="43.1160246" lon="11.6160431"><ele>379.5</ele><time>2026-05-02T14:05:52.698Z</time></trkpt><trkpt lat="43.1159844" lon="11.616201"><ele>380.0</ele><time>2026-05-02T14:05:53.704Z</time></trkpt><trkpt lat="43.1159322" lon="11.6163525"><ele>380.5</ele><time>2026-05-02T14:05:54.703Z</time></trkpt><trkpt lat="43.1158722" lon="11.6165033"><ele>381.0</ele><time>2026-05-02T14:05:55.699Z</time></trkpt><trkpt lat="43.1158048" lon="11.6166625"><ele>381.25</ele><time>2026-05-02T14:05:56.696Z</time></trkpt><trkpt lat="43.1157345" lon="11.6168158"><ele>381.5</ele><time>2026-05-02T14:05:57.706Z</time></trkpt><trkpt lat="43.1156669" lon="11.6169679"><ele>381.75</ele><time>2026-05-02T14:05:58.698Z</time></trkpt><trkpt lat="43.1156015" lon="11.6171276"><ele>382.0</ele><time>2026-05-02T14:05:59.705Z</time></trkpt><trkpt lat="43.1155318" lon="11.6172892"><ele>382.0</ele><time>2026-05-02T14:06:00.713Z</time></trkpt><trkpt lat="43.1154611" lon="11.6174429"><ele>382.0</ele><time>2026-05-02T14:06:01.697Z</time></trkpt><trkpt lat="43.1153939" lon="11.6175993"><ele>382.0</ele><time>2026-05-02T14:06:02.702Z</time></trkpt><trkpt lat="43.1153357" lon="11.6177391"><ele>382.0</ele><time>2026-05-02T14:06:03.694Z</time></trkpt><trkpt lat="43.1152916" lon="11.6178596"><ele>383.16666666666663</ele><time>2026-05-02T14:06:04.701Z</time></trkpt><trkpt lat="43.115256" lon="11.6179689"><ele>384.3333333333333</ele><time>2026-05-02T14:06:05.713Z</time></trkpt><trkpt lat="43.1152201" lon="11.6180725"><ele>385.5</ele><time>2026-05-02T14:06:06.701Z</time></trkpt><trkpt lat="43.115191" lon="11.6181593"><ele>386.66666666666663</ele><time>2026-05-02T14:06:07.7Z</time></trkpt><trkpt lat="43.1151564" lon="11.6183193"><ele>387.8333333333333</ele><time>2026-05-02T14:06:09.696Z</time></trkpt><trkpt lat="43.1151465" lon="11.6184336"><ele>389.0</ele><time>2026-05-02T14:06:11.704Z</time></trkpt><trkpt lat="43.115201" lon="11.618526"><ele>388.99999999999994</ele><time>2026-05-02T14:06:14.699Z</time></trkpt><trkpt lat="43.1153085" lon="11.6185546"><ele>389.0</ele><time>2026-05-02T14:06:17.702Z</time></trkpt><trkpt lat="43.1153734" lon="11.6185818"><ele>389.0</ele><time>2026-05-02T14:06:18.696Z</time></trkpt><trkpt lat="43.1154473" lon="11.6185944"><ele>389.0</ele><time>2026-05-02T14:06:19.693Z</time></trkpt><trkpt lat="43.1155154" lon="11.6186081"><ele>388.99999999999994</ele><time>2026-05-02T14:06:20.7Z</time></trkpt><trkpt lat="43.1155809" lon="11.6186188"><ele>389.0</ele><time>2026-05-02T14:06:21.709Z</time></trkpt><trkpt lat="43.115653" lon="11.61863"><ele>388.99999999999994</ele><time>2026-05-02T14:06:22.698Z</time></trkpt><trkpt lat="43.1157306" lon="11.6186392"><ele>389.0</ele><time>2026-05-02T14:06:23.695Z</time></trkpt><trkpt lat="43.1158118" lon="11.6186509"><ele>389.0</ele><time>2026-05-02T14:06:24.692Z</time></trkpt><trkpt lat="43.1158962" lon="11.6186608"><ele>389.0</ele><time>2026-05-02T14:06:25.702Z</time></trkpt><trkpt lat="43.1159794" lon="11.6186546"><ele>388.99999999999994</ele><time>2026-05-02T14:06:26.695Z</time></trkpt><trkpt lat="43.1160589" lon="11.6186367"><ele>389.0</ele><time>2026-05-02T14:06:27.703Z</time></trkpt><trkpt lat="43.1161498" lon="11.6186076"><ele>388.25</ele><time>2026-05-02T14:06:28.699Z</time></trkpt><trkpt lat="43.1162553" lon="11.618569"><ele>387.5</ele><time>2026-05-02T14:06:29.692Z</time></trkpt><trkpt lat="43.1163784" lon="11.6185276"><ele>386.75</ele><time>2026-05-02T14:06:30.698Z</time></trkpt><trkpt lat="43.1165043" lon="11.6184895"><ele>386.0</ele><time>2026-05-02T14:06:31.7Z</time></trkpt><trkpt lat="43.1166404" lon="11.6184725"><ele>383.3333333333333</ele><time>2026-05-02T14:06:32.707Z</time></trkpt><trkpt lat="43.1167933" lon="11.6184812"><ele>380.66666666666663</ele><time>2026-05-02T14:06:33.707Z</time></trkpt><trkpt lat="43.116961" lon="11.6184965"><ele>378.0</ele><time>2026-05-02T14:06:34.702Z</time></trkpt><trkpt lat="43.1171495" lon="11.6185096"><ele>378.0</ele><time>2026-05-02T14:06:35.701Z</time></trkpt><trkpt lat="43.1173554" lon="11.6185282"><ele>378.0</ele><time>2026-05-02T14:06:36.702Z</time></trkpt><trkpt lat="43.1175881" lon="11.6185522"><ele>378.0</ele><time>2026-05-02T14:06:37.693Z</time></trkpt><trkpt lat="43.1178415" lon="11.6185635"><ele>375.5</ele><time>2026-05-02T14:06:38.702Z</time></trkpt><trkpt lat="43.1181067" lon="11.6185676"><ele>373.0</ele><time>2026-05-02T14:06:39.705Z</time></trkpt><trkpt lat="43.1183853" lon="11.6185786"><ele>372.0</ele><time>2026-05-02T14:06:40.702Z</time></trkpt><trkpt lat="43.1186367" lon="11.6185945"><ele>371.0</ele><time>2026-05-02T14:06:41.704Z</time></trkpt><trkpt lat="43.1188777" lon="11.6186104"><ele>370.0</ele><time>2026-05-02T14:06:42.716Z</time></trkpt><trkpt lat="43.1191031" lon="11.6186395"><ele>369.0</ele><time>2026-05-02T14:06:43.704Z</time></trkpt><trkpt lat="43.1193252" lon="11.618669"><ele>369.0</ele><time>2026-05-02T14:06:44.695Z</time></trkpt><trkpt lat="43.1195339" lon="11.6186932"><ele>369.0</ele><time>2026-05-02T14:06:45.709Z</time></trkpt><trkpt lat="43.1197255" lon="11.6187104"><ele>369.0</ele><time>2026-05-02T14:06:46.702Z</time></trkpt><trkpt lat="43.119906" lon="11.6187196"><ele>370.5</ele><time>2026-05-02T14:06:47.702Z</time></trkpt><trkpt lat="43.1200626" lon="11.6187277"><ele>372.0</ele><time>2026-05-02T14:06:48.701Z</time></trkpt><trkpt lat="43.1202085" lon="11.6187391"><ele>373.5</ele><time>2026-05-02T14:06:49.711Z</time></trkpt><trkpt lat="43.1203397" lon="11.6187509"><ele>375.0</ele><time>2026-05-02T14:06:50.701Z</time></trkpt><trkpt lat="43.1204595" lon="11.6187588"><ele>375.0</ele><time>2026-05-02T14:06:51.709Z</time></trkpt><trkpt lat="43.1205707" lon="11.6187459"><ele>375.0</ele><time>2026-05-02T14:06:52.7Z</time></trkpt><trkpt lat="43.1206758" lon="11.6187238"><ele>375.0</ele><time>2026-05-02T14:06:53.698Z</time></trkpt><trkpt lat="43.1207763" lon="11.6186767"><ele>375.0</ele><time>2026-05-02T14:06:54.703Z</time></trkpt><trkpt lat="43.1208832" lon="11.6186082"><ele>375.0</ele><time>2026-05-02T14:06:55.702Z</time></trkpt><trkpt lat="43.1209769" lon="11.6185157"><ele>376.25</ele><time>2026-05-02T14:06:56.697Z</time></trkpt><trkpt lat="43.1210705" lon="11.6184208"><ele>377.5</ele><time>2026-05-02T14:06:57.704Z</time></trkpt><trkpt lat="43.1211648" lon="11.6183253"><ele>378.75</ele><time>2026-05-02T14:06:58.697Z</time></trkpt><trkpt lat="43.1212604" lon="11.6182251"><ele>380.0</ele><time>2026-05-02T14:06:59.698Z</time></trkpt><trkpt lat="43.1213546" lon="11.6181282"><ele>380.0</ele><time>2026-05-02T14:07:00.707Z</time></trkpt><trkpt lat="43.1214446" lon="11.618041"><ele>380.0</ele><time>2026-05-02T14:07:01.706Z</time></trkpt><trkpt lat="43.1215362" lon="11.6179556"><ele>380.0</ele><time>2026-05-02T14:07:02.704Z</time></trkpt><trkpt lat="43.1216318" lon="11.6178604"><ele>380.0</ele><time>2026-05-02T14:07:03.704Z</time></trkpt><trkpt lat="43.1217301" lon="11.6177599"><ele>380.75</ele><time>2026-05-02T14:07:04.696Z</time></trkpt><trkpt lat="43.1218351" lon="11.6176512"><ele>381.5</ele><time>2026-05-02T14:07:05.703Z</time></trkpt><trkpt lat="43.1219438" lon="11.6175365"><ele>382.25</ele><time>2026-05-02T14:07:06.696Z</time></trkpt><trkpt lat="43.1220602" lon="11.6174222"><ele>383.0</ele><time>2026-05-02T14:07:07.692Z</time></trkpt><trkpt lat="43.1221749" lon="11.6173047"><ele>383.0</ele><time>2026-05-02T14:07:08.703Z</time></trkpt><trkpt lat="43.1222863" lon="11.6171837"><ele>383.0</ele><time>2026-05-02T14:07:09.706Z</time></trkpt><trkpt lat="43.1223967" lon="11.6170626"><ele>383.0</ele><time>2026-05-02T14:07:10.701Z</time></trkpt><trkpt lat="43.1225063" lon="11.6169169"><ele>383.0</ele><time>2026-05-02T14:07:11.702Z</time></trkpt><trkpt lat="43.1226293" lon="11.6167372"><ele>380.0</ele><time>2026-05-02T14:07:12.705Z</time></trkpt><trkpt lat="43.1227507" lon="11.6165327"><ele>377.0</ele><time>2026-05-02T14:07:13.697Z</time></trkpt><trkpt lat="43.1228617" lon="11.6163136"><ele>374.0</ele><time>2026-05-02T14:07:14.708Z</time></trkpt><trkpt lat="43.1229716" lon="11.6160791"><ele>374.33333333333337</ele><time>2026-05-02T14:07:15.701Z</time></trkpt><trkpt lat="43.1230846" lon="11.6158376"><ele>374.6666666666667</ele><time>2026-05-02T14:07:16.702Z</time></trkpt><trkpt lat="43.1232068" lon="11.6155962"><ele>375.0</ele><time>2026-05-02T14:07:17.702Z</time></trkpt><trkpt lat="43.1233345" lon="11.6153517"><ele>377.3333333333333</ele><time>2026-05-02T14:07:18.701Z</time></trkpt><trkpt lat="43.1234629" lon="11.615143"><ele>379.66666666666663</ele><time>2026-05-02T14:07:19.697Z</time></trkpt><trkpt lat="43.1235738" lon="11.6149746"><ele>382.0</ele><time>2026-05-02T14:07:20.697Z</time></trkpt><trkpt lat="43.1236765" lon="11.6148109"><ele>382.0</ele><time>2026-05-02T14:07:21.703Z</time></trkpt><trkpt lat="43.1237862" lon="11.6146755"><ele>382.0</ele><time>2026-05-02T14:07:22.698Z</time></trkpt><trkpt lat="43.1239184" lon="11.6145578"><ele>382.0</ele><time>2026-05-02T14:07:23.702Z</time></trkpt><trkpt lat="43.124051" lon="11.6144674"><ele>383.75</ele><time>2026-05-02T14:07:24.704Z</time></trkpt><trkpt lat="43.1241806" lon="11.6144012"><ele>385.5</ele><time>2026-05-02T14:07:25.694Z</time></trkpt><trkpt lat="43.1243175" lon="11.6143477"><ele>387.25</ele><time>2026-05-02T14:07:26.699Z</time></trkpt><trkpt lat="43.1244645" lon="11.6143116"><ele>389.0</ele><time>2026-05-02T14:07:27.7Z</time></trkpt><trkpt lat="43.1246139" lon="11.614269"><ele>389.0</ele><time>2026-05-02T14:07:28.703Z</time></trkpt><trkpt lat="43.1247539" lon="11.6142436"><ele>389.0</ele><time>2026-05-02T14:07:29.69Z</time></trkpt><trkpt lat="43.1248925" lon="11.6142427"><ele>389.0</ele><time>2026-05-02T14:07:30.697Z</time></trkpt><trkpt lat="43.1250279" lon="11.6142794"><ele>389.0</ele><time>2026-05-02T14:07:31.711Z</time></trkpt><trkpt lat="43.1251653" lon="11.6143414"><ele>387.25</ele><time>2026-05-02T14:07:32.703Z</time></trkpt><trkpt lat="43.1253032" lon="11.6144081"><ele>385.5</ele><time>2026-05-02T14:07:33.714Z</time></trkpt><trkpt lat="43.1254268" lon="11.6144674"><ele>383.75</ele><time>2026-05-02T14:07:34.708Z</time></trkpt><trkpt lat="43.1255534" lon="11.6145162"><ele>382.0</ele><time>2026-05-02T14:07:35.702Z</time></trkpt><trkpt lat="43.1256899" lon="11.6145407"><ele>381.25</ele><time>2026-05-02T14:07:36.695Z</time></trkpt><trkpt lat="43.1258327" lon="11.6145386"><ele>380.5</ele><time>2026-05-02T14:07:37.701Z</time></trkpt><trkpt lat="43.125972" lon="11.6145228"><ele>379.75</ele><time>2026-05-02T14:07:38.703Z</time></trkpt><trkpt lat="43.1261151" lon="11.6144976"><ele>379.0</ele><time>2026-05-02T14:07:39.696Z</time></trkpt><trkpt lat="43.1262468" lon="11.6144824"><ele>379.0</ele><time>2026-05-02T14:07:40.709Z</time></trkpt><trkpt lat="43.1263813" lon="11.6144693"><ele>379.0</ele><time>2026-05-02T14:07:41.708Z</time></trkpt><trkpt lat="43.1265151" lon="11.6144567"><ele>379.0</ele><time>2026-05-02T14:07:42.712Z</time></trkpt><trkpt lat="43.1266393" lon="11.6144486"><ele>379.0</ele><time>2026-05-02T14:07:43.704Z</time></trkpt><trkpt lat="43.126751" lon="11.6144389"><ele>378.79999999999995</ele><time>2026-05-02T14:07:44.706Z</time></trkpt><trkpt lat="43.1268531" lon="11.6144342"><ele>378.59999999999997</ele><time>2026-05-02T14:07:45.699Z</time></trkpt><trkpt lat="43.1269486" lon="11.6144225"><ele>378.4</ele><time>2026-05-02T14:07:46.71Z</time></trkpt><trkpt lat="43.1270399" lon="11.6144148"><ele>378.2</ele><time>2026-05-02T14:07:47.703Z</time></trkpt><trkpt lat="43.1271323" lon="11.6143975"><ele>378.0</ele><time>2026-05-02T14:07:48.703Z</time></trkpt><trkpt lat="43.1272121" lon="11.6143644"><ele>378.0</ele><time>2026-05-02T14:07:49.7Z</time></trkpt><trkpt lat="43.1272895" lon="11.6143196"><ele>378.0</ele><time>2026-05-02T14:07:50.697Z</time></trkpt><trkpt lat="43.1273582" lon="11.6142623"><ele>378.0</ele><time>2026-05-02T14:07:51.708Z</time></trkpt><trkpt lat="43.1274211" lon="11.6141973"><ele>378.0</ele><time>2026-05-02T14:07:52.71Z</time></trkpt><trkpt lat="43.1274759" lon="11.6141263"><ele>378.0</ele><time>2026-05-02T14:07:53.711Z</time></trkpt><trkpt lat="43.1275362" lon="11.6140493"><ele>378.0</ele><time>2026-05-02T14:07:54.703Z</time></trkpt><trkpt lat="43.127598" lon="11.6139611"><ele>377.5</ele><time>2026-05-02T14:07:55.704Z</time></trkpt><trkpt lat="43.127662" lon="11.6138698"><ele>377.0</ele><time>2026-05-02T14:07:56.698Z</time></trkpt><trkpt lat="43.1277241" lon="11.6137815"><ele>376.5</ele><time>2026-05-02T14:07:57.699Z</time></trkpt><trkpt lat="43.1277837" lon="11.6137014"><ele>376.0</ele><time>2026-05-02T14:07:58.697Z</time></trkpt><trkpt lat="43.1278437" lon="11.6136183"><ele>375.5</ele><time>2026-05-02T14:07:59.702Z</time></trkpt><trkpt lat="43.1279062" lon="11.613542"><ele>375.0</ele><time>2026-05-02T14:08:00.697Z</time></trkpt><trkpt lat="43.1279777" lon="11.6134696"><ele>374.1666666666667</ele><time>2026-05-02T14:08:01.706Z</time></trkpt><trkpt lat="43.1280515" lon="11.6134091"><ele>373.3333333333333</ele><time>2026-05-02T14:08:02.7Z</time></trkpt><trkpt lat="43.1281312" lon="11.6133469"><ele>372.5</ele><time>2026-05-02T14:08:03.704Z</time></trkpt><trkpt lat="43.1282107" lon="11.6132894"><ele>371.66666666666663</ele><time>2026-05-02T14:08:04.707Z</time></trkpt><trkpt lat="43.1282898" lon="11.6132327"><ele>370.8333333333333</ele><time>2026-05-02T14:08:05.697Z</time></trkpt><trkpt lat="43.1283675" lon="11.6131781"><ele>370.0</ele><time>2026-05-02T14:08:06.698Z</time></trkpt><trkpt lat="43.1284447" lon="11.6131266"><ele>369.66666666666663</ele><time>2026-05-02T14:08:07.697Z</time></trkpt><trkpt lat="43.1285174" lon="11.6130802"><ele>369.3333333333333</ele><time>2026-05-02T14:08:08.694Z</time></trkpt><trkpt lat="43.1285853" lon="11.6130373"><ele>369.0</ele><time>2026-05-02T14:08:09.703Z</time></trkpt><trkpt lat="43.1286507" lon="11.6129817"><ele>368.6666666666667</ele><time>2026-05-02T14:08:10.707Z</time></trkpt><trkpt lat="43.1287071" lon="11.6129233"><ele>368.33333333333337</ele><time>2026-05-02T14:08:11.699Z</time></trkpt><trkpt lat="43.1287535" lon="11.6128616"><ele>368.0</ele><time>2026-05-02T14:08:12.693Z</time></trkpt><trkpt lat="43.1288018" lon="11.612715"><ele>366.83333333333337</ele><time>2026-05-02T14:08:14.699Z</time></trkpt><trkpt lat="43.1288166" lon="11.6125394"><ele>365.6666666666667</ele><time>2026-05-02T14:08:16.701Z</time></trkpt><trkpt lat="43.1288181" lon="11.6124468"><ele>364.5</ele><time>2026-05-02T14:08:17.704Z</time></trkpt><trkpt lat="43.1288197" lon="11.6123455"><ele>363.3333333333333</ele><time>2026-05-02T14:08:18.699Z</time></trkpt><trkpt lat="43.128825" lon="11.6122326"><ele>362.16666666666663</ele><time>2026-05-02T14:08:19.693Z</time></trkpt><trkpt lat="43.1288285" lon="11.6121099"><ele>361.0</ele><time>2026-05-02T14:08:20.691Z</time></trkpt><trkpt lat="43.1288307" lon="11.6119772"><ele>359.6</ele><time>2026-05-02T14:08:21.699Z</time></trkpt><trkpt lat="43.1288362" lon="11.6118344"><ele>358.20000000000005</ele><time>2026-05-02T14:08:22.705Z</time></trkpt><trkpt lat="43.1288425" lon="11.6116976"><ele>356.79999999999995</ele><time>2026-05-02T14:08:23.703Z</time></trkpt><trkpt lat="43.1288517" lon="11.6115479"><ele>355.4</ele><time>2026-05-02T14:08:24.707Z</time></trkpt><trkpt lat="43.1288587" lon="11.6113895"><ele>354.0</ele><time>2026-05-02T14:08:25.703Z</time></trkpt><trkpt lat="43.1288665" lon="11.611222"><ele>353.5</ele><time>2026-05-02T14:08:26.708Z</time></trkpt><trkpt lat="43.1288788" lon="11.6110579"><ele>353.0</ele><time>2026-05-02T14:08:27.72Z</time></trkpt><trkpt lat="43.128883" lon="11.6108911"><ele>352.5</ele><time>2026-05-02T14:08:28.704Z</time></trkpt><trkpt lat="43.1288853" lon="11.6107234"><ele>352.0</ele><time>2026-05-02T14:08:29.711Z</time></trkpt><trkpt lat="43.1288797" lon="11.6105547"><ele>352.0</ele><time>2026-05-02T14:08:30.703Z</time></trkpt><trkpt lat="43.1288628" lon="11.6103803"><ele>352.0</ele><time>2026-05-02T14:08:31.71Z</time></trkpt><trkpt lat="43.1288287" lon="11.6102008"><ele>352.0</ele><time>2026-05-02T14:08:32.701Z</time></trkpt><trkpt lat="43.1287877" lon="11.6100228"><ele>352.0</ele><time>2026-05-02T14:08:33.703Z</time></trkpt><trkpt lat="43.1287367" lon="11.6098457"><ele>353.75</ele><time>2026-05-02T14:08:34.707Z</time></trkpt><trkpt lat="43.1286778" lon="11.609666"><ele>355.5</ele><time>2026-05-02T14:08:35.701Z</time></trkpt><trkpt lat="43.1286115" lon="11.6094985"><ele>357.25</ele><time>2026-05-02T14:08:36.704Z</time></trkpt><trkpt lat="43.1285336" lon="11.6093404"><ele>359.0</ele><time>2026-05-02T14:08:37.703Z</time></trkpt><trkpt lat="43.1284624" lon="11.6091739"><ele>361.5</ele><time>2026-05-02T14:08:38.695Z</time></trkpt><trkpt lat="43.1283973" lon="11.6089984"><ele>364.0</ele><time>2026-05-02T14:08:39.696Z</time></trkpt><trkpt lat="43.1283437" lon="11.6088497"><ele>366.5</ele><time>2026-05-02T14:08:40.702Z</time></trkpt><trkpt lat="43.1282988" lon="11.6087137"><ele>369.0</ele><time>2026-05-02T14:08:41.7Z</time></trkpt><trkpt lat="43.1282459" lon="11.6085849"><ele>367.6666666666667</ele><time>2026-05-02T14:08:42.698Z</time></trkpt><trkpt lat="43.1281886" lon="11.6084746"><ele>366.3333333333333</ele><time>2026-05-02T14:08:43.703Z</time></trkpt><trkpt lat="43.1281272" lon="11.6083702"><ele>365.0</ele><time>2026-05-02T14:08:44.698Z</time></trkpt><trkpt lat="43.1280694" lon="11.6082764"><ele>363.66666666666663</ele><time>2026-05-02T14:08:45.703Z</time></trkpt><trkpt lat="43.128017" lon="11.6081876"><ele>362.3333333333333</ele><time>2026-05-02T14:08:46.703Z</time></trkpt><trkpt lat="43.1279679" lon="11.6081082"><ele>361.0</ele><time>2026-05-02T14:08:47.701Z</time></trkpt><trkpt lat="43.1278878" lon="11.6079859"><ele>361.0</ele><time>2026-05-02T14:08:49.701Z</time></trkpt><trkpt lat="43.1278078" lon="11.6078669"><ele>361.0</ele><time>2026-05-02T14:08:51.71Z</time></trkpt><trkpt lat="43.1277433" lon="11.6077551"><ele>361.0</ele><time>2026-05-02T14:08:53.699Z</time></trkpt><trkpt lat="43.1276903" lon="11.6076388"><ele>361.0</ele><time>2026-05-02T14:08:55.705Z</time></trkpt><trkpt lat="43.1276429" lon="11.6075297"><ele>361.0</ele><time>2026-05-02T14:08:57.697Z</time></trkpt><trkpt lat="43.1276068" lon="11.6074195"><ele>362.5</ele><time>2026-05-02T14:08:59.708Z</time></trkpt><trkpt lat="43.1275642" lon="11.6072904"><ele>364.0</ele><time>2026-05-02T14:09:01.714Z</time></trkpt><trkpt lat="43.1275397" lon="11.6072043"><ele>365.5</ele><time>2026-05-02T14:09:02.711Z</time></trkpt><trkpt lat="43.1275132" lon="11.6070858"><ele>367.0</ele><time>2026-05-02T14:09:03.705Z</time></trkpt><trkpt lat="43.1274852" lon="11.6069726"><ele>368.5</ele><time>2026-05-02T14:09:04.698Z</time></trkpt><trkpt lat="43.1274528" lon="11.6068529"><ele>370.0</ele><time>2026-05-02T14:09:05.705Z</time></trkpt><trkpt lat="43.12742" lon="11.6067189"><ele>370.4</ele><time>2026-05-02T14:09:06.691Z</time></trkpt><trkpt lat="43.1273947" lon="11.6065963"><ele>370.8</ele><time>2026-05-02T14:09:07.701Z</time></trkpt><trkpt lat="43.1273703" lon="11.606472"><ele>371.20000000000005</ele><time>2026-05-02T14:09:08.697Z</time></trkpt><trkpt lat="43.1273449" lon="11.606353"><ele>371.6</ele><time>2026-05-02T14:09:09.698Z</time></trkpt><trkpt lat="43.127319" lon="11.6062397"><ele>372.0</ele><time>2026-05-02T14:09:10.714Z</time></trkpt><trkpt lat="43.1272864" lon="11.6061189"><ele>370.0</ele><time>2026-05-02T14:09:11.695Z</time></trkpt><trkpt lat="43.1272489" lon="11.6059897"><ele>368.0</ele><time>2026-05-02T14:09:12.697Z</time></trkpt><trkpt lat="43.1271989" lon="11.6058793"><ele>366.0</ele><time>2026-05-02T14:09:13.698Z</time></trkpt><trkpt lat="43.127131" lon="11.6057635"><ele>364.0</ele><time>2026-05-02T14:09:14.698Z</time></trkpt><trkpt lat="43.12705" lon="11.6056467"><ele>362.0</ele><time>2026-05-02T14:09:15.702Z</time></trkpt><trkpt lat="43.1269633" lon="11.6055438"><ele>362.0</ele><time>2026-05-02T14:09:16.704Z</time></trkpt><trkpt lat="43.1268648" lon="11.6054443"><ele>362.0</ele><time>2026-05-02T14:09:17.688Z</time></trkpt><trkpt lat="43.1267649" lon="11.6053485"><ele>362.0</ele><time>2026-05-02T14:09:18.701Z</time></trkpt><trkpt lat="43.1266598" lon="11.6052554"><ele>362.0</ele><time>2026-05-02T14:09:19.697Z</time></trkpt><trkpt lat="43.1265671" lon="11.6051608"><ele>361.8</ele><time>2026-05-02T14:09:20.711Z</time></trkpt><trkpt lat="43.1264858" lon="11.6050634"><ele>361.6</ele><time>2026-05-02T14:09:21.708Z</time></trkpt><trkpt lat="43.1264197" lon="11.6049626"><ele>361.40000000000003</ele><time>2026-05-02T14:09:22.696Z</time></trkpt><trkpt lat="43.1263586" lon="11.6048584"><ele>361.20000000000005</ele><time>2026-05-02T14:09:23.708Z</time></trkpt><trkpt lat="43.1263064" lon="11.6047446"><ele>361.0</ele><time>2026-05-02T14:09:24.701Z</time></trkpt><trkpt lat="43.1262552" lon="11.6046237"><ele>362.25</ele><time>2026-05-02T14:09:25.706Z</time></trkpt><trkpt lat="43.126201" lon="11.6044919"><ele>363.5</ele><time>2026-05-02T14:09:26.697Z</time></trkpt><trkpt lat="43.1261403" lon="11.6043294"><ele>364.75</ele><time>2026-05-02T14:09:27.711Z</time></trkpt><trkpt lat="43.1260675" lon="11.6041513"><ele>366.0</ele><time>2026-05-02T14:09:28.706Z</time></trkpt><trkpt lat="43.1259783" lon="11.6039343"><ele>365.5</ele><time>2026-05-02T14:09:29.699Z</time></trkpt><trkpt lat="43.125865" lon="11.6036597"><ele>365.0</ele><time>2026-05-02T14:09:30.704Z</time></trkpt><trkpt lat="43.125736" lon="11.6033514"><ele>363.5</ele><time>2026-05-02T14:09:31.694Z</time></trkpt><trkpt lat="43.1256124" lon="11.6030557"><ele>362.0</ele><time>2026-05-02T14:09:32.718Z</time></trkpt><trkpt lat="43.1255037" lon="11.6027806"><ele>362.0</ele><time>2026-05-02T14:09:33.706Z</time></trkpt><trkpt lat="43.125399" lon="11.6025231"><ele>362.0</ele><time>2026-05-02T14:09:34.703Z</time></trkpt><trkpt lat="43.1252959" lon="11.60226"><ele>362.0</ele><time>2026-05-02T14:09:35.718Z</time></trkpt><trkpt lat="43.1251867" lon="11.6019866"><ele>363.6666666666667</ele><time>2026-05-02T14:09:36.701Z</time></trkpt><trkpt lat="43.1250907" lon="11.60172"><ele>365.3333333333333</ele><time>2026-05-02T14:09:37.71Z</time></trkpt><trkpt lat="43.1250058" lon="11.6014716"><ele>367.0</ele><time>2026-05-02T14:09:38.685Z</time></trkpt><trkpt lat="43.1249231" lon="11.601234"><ele>365.66666666666663</ele><time>2026-05-02T14:09:39.699Z</time></trkpt><trkpt lat="43.1248446" lon="11.601008"><ele>364.3333333333333</ele><time>2026-05-02T14:09:40.7Z</time></trkpt><trkpt lat="43.1247624" lon="11.60079"><ele>363.0</ele><time>2026-05-02T14:09:41.703Z</time></trkpt><trkpt lat="43.1246826" lon="11.6006013"><ele>363.0</ele><time>2026-05-02T14:09:42.696Z</time></trkpt><trkpt lat="43.124609" lon="11.6004375"><ele>363.0</ele><time>2026-05-02T14:09:43.699Z</time></trkpt><trkpt lat="43.1245423" lon="11.6002976"><ele>363.0</ele><time>2026-05-02T14:09:44.699Z</time></trkpt><trkpt lat="43.1244707" lon="11.6001645"><ele>363.0</ele><time>2026-05-02T14:09:45.702Z</time></trkpt><trkpt lat="43.1244055" lon="11.600035"><ele>365.0</ele><time>2026-05-02T14:09:46.708Z</time></trkpt><trkpt lat="43.1243364" lon="11.599907"><ele>367.0</ele><time>2026-05-02T14:09:47.7Z</time></trkpt><trkpt lat="43.1242678" lon="11.5997858"><ele>369.0</ele><time>2026-05-02T14:09:48.702Z</time></trkpt><trkpt lat="43.1241962" lon="11.5996609"><ele>371.0</ele><time>2026-05-02T14:09:49.699Z</time></trkpt><trkpt lat="43.1241345" lon="11.5995398"><ele>370.8</ele><time>2026-05-02T14:09:50.695Z</time></trkpt><trkpt lat="43.1240828" lon="11.5994224"><ele>370.6</ele><time>2026-05-02T14:09:51.7Z</time></trkpt><trkpt lat="43.1240463" lon="11.5993011"><ele>370.4</ele><time>2026-05-02T14:09:52.689Z</time></trkpt><trkpt lat="43.124028" lon="11.5991625"><ele>370.2</ele><time>2026-05-02T14:09:53.708Z</time></trkpt><trkpt lat="43.1240411" lon="11.5990193"><ele>370.0</ele><time>2026-05-02T14:09:54.698Z</time></trkpt><trkpt lat="43.124085" lon="11.5988721"><ele>369.5</ele><time>2026-05-02T14:09:55.693Z</time></trkpt><trkpt lat="43.124146" lon="11.5987072"><ele>369.0</ele><time>2026-05-02T14:09:56.703Z</time></trkpt><trkpt lat="43.1242105" lon="11.5985396"><ele>368.5</ele><time>2026-05-02T14:09:57.691Z</time></trkpt><trkpt lat="43.1242606" lon="11.5983741"><ele>368.0</ele><time>2026-05-02T14:09:58.708Z</time></trkpt><trkpt lat="43.1242952" lon="11.5982266"><ele>368.0</ele><time>2026-05-02T14:09:59.699Z</time></trkpt><trkpt lat="43.124321" lon="11.5980817"><ele>368.0</ele><time>2026-05-02T14:10:00.698Z</time></trkpt><trkpt lat="43.1243368" lon="11.5979481"><ele>368.0</ele><time>2026-05-02T14:10:01.702Z</time></trkpt><trkpt lat="43.12434" lon="11.5977978"><ele>368.0</ele><time>2026-05-02T14:10:02.699Z</time></trkpt><trkpt lat="43.1243473" lon="11.5976442"><ele>368.0</ele><time>2026-05-02T14:10:03.701Z</time></trkpt><trkpt lat="43.1243541" lon="11.5974829"><ele>367.5</ele><time>2026-05-02T14:10:04.708Z</time></trkpt><trkpt lat="43.1243628" lon="11.5973175"><ele>367.0</ele><time>2026-05-02T14:10:05.707Z</time></trkpt><trkpt lat="43.1243711" lon="11.5971436"><ele>366.5</ele><time>2026-05-02T14:10:06.704Z</time></trkpt><trkpt lat="43.124382" lon="11.5969619"><ele>366.0</ele><time>2026-05-02T14:10:07.7Z</time></trkpt><trkpt lat="43.1243928" lon="11.5967675"><ele>364.25</ele><time>2026-05-02T14:10:08.699Z</time></trkpt><trkpt lat="43.1244108" lon="11.5965676"><ele>362.5</ele><time>2026-05-02T14:10:09.714Z</time></trkpt><trkpt lat="43.1244314" lon="11.5963651"><ele>360.75</ele><time>2026-05-02T14:10:10.701Z</time></trkpt><trkpt lat="43.1244545" lon="11.5961785"><ele>359.0</ele><time>2026-05-02T14:10:11.716Z</time></trkpt><trkpt lat="43.1244786" lon="11.595997"><ele>359.0</ele><time>2026-05-02T14:10:12.699Z</time></trkpt><trkpt lat="43.1244838" lon="11.5958305"><ele>359.0</ele><time>2026-05-02T14:10:13.695Z</time></trkpt><trkpt lat="43.1244764" lon="11.595654"><ele>359.0</ele><time>2026-05-02T14:10:14.71Z</time></trkpt><trkpt lat="43.124456" lon="11.5954693"><ele>359.0</ele><time>2026-05-02T14:10:15.704Z</time></trkpt><trkpt lat="43.1244239" lon="11.5952911"><ele>360.0</ele><time>2026-05-02T14:10:16.713Z</time></trkpt><trkpt lat="43.1243936" lon="11.5951425"><ele>361.0</ele><time>2026-05-02T14:10:17.703Z</time></trkpt><trkpt lat="43.1243643" lon="11.5950138"><ele>362.0</ele><time>2026-05-02T14:10:18.695Z</time></trkpt><trkpt lat="43.1243395" lon="11.5949282"><ele>363.0</ele><time>2026-05-02T14:10:19.695Z</time></trkpt><trkpt lat="43.1242926" lon="11.5947918"><ele>364.0</ele><time>2026-05-02T14:10:21.709Z</time></trkpt><trkpt lat="43.124258" lon="11.5946836"><ele>364.0</ele><time>2026-05-02T14:10:23.697Z</time></trkpt><trkpt lat="43.1242195" lon="11.5945844"><ele>364.0</ele><time>2026-05-02T14:10:25.709Z</time></trkpt><trkpt lat="43.1241655" lon="11.5944388"><ele>364.0</ele><time>2026-05-02T14:10:27.688Z</time></trkpt><trkpt lat="43.124139" lon="11.5943414"><ele>364.0</ele><time>2026-05-02T14:10:28.7Z</time></trkpt><trkpt lat="43.1241157" lon="11.5942292"><ele>364.0</ele><time>2026-05-02T14:10:29.723Z</time></trkpt><trkpt lat="43.1241006" lon="11.5941155"><ele>364.0</ele><time>2026-05-02T14:10:30.699Z</time></trkpt><trkpt lat="43.1241001" lon="11.5940025"><ele>364.4</ele><time>2026-05-02T14:10:31.702Z</time></trkpt><trkpt lat="43.1241041" lon="11.5938835"><ele>364.79999999999995</ele><time>2026-05-02T14:10:32.702Z</time></trkpt><trkpt lat="43.1241074" lon="11.5937566"><ele>365.20000000000005</ele><time>2026-05-02T14:10:33.698Z</time></trkpt><trkpt lat="43.1241119" lon="11.5936362"><ele>365.6</ele><time>2026-05-02T14:10:34.704Z</time></trkpt><trkpt lat="43.1241172" lon="11.5935258"><ele>366.0</ele><time>2026-05-02T14:10:35.699Z</time></trkpt><trkpt lat="43.1241247" lon="11.5933641"><ele>366.5</ele><time>2026-05-02T14:10:37.7Z</time></trkpt><trkpt lat="43.1241662" lon="11.5932524"><ele>367.0</ele><time>2026-05-02T14:10:39.707Z</time></trkpt><trkpt lat="43.1242636" lon="11.5931986"><ele>367.5</ele><time>2026-05-02T14:10:41.699Z</time></trkpt><trkpt lat="43.1243314" lon="11.5931791"><ele>368.0</ele><time>2026-05-02T14:10:42.689Z</time></trkpt><trkpt lat="43.1244127" lon="11.5931531"><ele>368.5</ele><time>2026-05-02T14:10:43.698Z</time></trkpt><trkpt lat="43.1244995" lon="11.593113"><ele>369.0</ele><time>2026-05-02T14:10:44.696Z</time></trkpt><trkpt lat="43.1245883" lon="11.5930626"><ele>369.0</ele><time>2026-05-02T14:10:45.701Z</time></trkpt><trkpt lat="43.124679" lon="11.5930079"><ele>369.0</ele><time>2026-05-02T14:10:46.695Z</time></trkpt><trkpt lat="43.1247713" lon="11.5929566"><ele>369.0</ele><time>2026-05-02T14:10:47.694Z</time></trkpt><trkpt lat="43.124866" lon="11.5929072"><ele>369.0</ele><time>2026-05-02T14:10:48.689Z</time></trkpt><trkpt lat="43.1249672" lon="11.5928535"><ele>369.0</ele><time>2026-05-02T14:10:49.7Z</time></trkpt><trkpt lat="43.125076" lon="11.5927927"><ele>370.25</ele><time>2026-05-02T14:10:50.702Z</time></trkpt><trkpt lat="43.125188" lon="11.592737"><ele>371.5</ele><time>2026-05-02T14:10:51.724Z</time></trkpt><trkpt lat="43.1253005" lon="11.5926903"><ele>372.75</ele><time>2026-05-02T14:10:52.701Z</time></trkpt><trkpt lat="43.125412" lon="11.5926541"><ele>374.0</ele><time>2026-05-02T14:10:53.693Z</time></trkpt><trkpt lat="43.1255136" lon="11.5926295"><ele>374.0</ele><time>2026-05-02T14:10:54.695Z</time></trkpt><trkpt lat="43.1256146" lon="11.5926112"><ele>374.0</ele><time>2026-05-02T14:10:55.69Z</time></trkpt><trkpt lat="43.1257104" lon="11.5925884"><ele>374.0</ele><time>2026-05-02T14:10:56.697Z</time></trkpt><trkpt lat="43.1258029" lon="11.5925545"><ele>374.0</ele><time>2026-05-02T14:10:57.69Z</time></trkpt><trkpt lat="43.1258895" lon="11.5925179"><ele>374.0</ele><time>2026-05-02T14:10:58.697Z</time></trkpt><trkpt lat="43.1259747" lon="11.5924554"><ele>371.0</ele><time>2026-05-02T14:10:59.705Z</time></trkpt><trkpt lat="43.1260548" lon="11.5923569"><ele>368.0</ele><time>2026-05-02T14:11:00.705Z</time></trkpt><trkpt lat="43.1261297" lon="11.592238"><ele>365.0</ele><time>2026-05-02T14:11:01.704Z</time></trkpt><trkpt lat="43.126206" lon="11.592092"><ele>362.0</ele><time>2026-05-02T14:11:02.698Z</time></trkpt><trkpt lat="43.1262778" lon="11.5919265"><ele>362.0</ele><time>2026-05-02T14:11:03.698Z</time></trkpt><trkpt lat="43.1263394" lon="11.5917694"><ele>362.0</ele><time>2026-05-02T14:11:04.7Z</time></trkpt><trkpt lat="43.1263858" lon="11.5916268"><ele>362.0</ele><time>2026-05-02T14:11:05.697Z</time></trkpt><trkpt lat="43.1264193" lon="11.5914968"><ele>362.0</ele><time>2026-05-02T14:11:06.702Z</time></trkpt><trkpt lat="43.1264387" lon="11.5913759"><ele>362.0</ele><time>2026-05-02T14:11:07.696Z</time></trkpt><trkpt lat="43.1264516" lon="11.5912651"><ele>359.8</ele><time>2026-05-02T14:11:08.691Z</time></trkpt><trkpt lat="43.1264555" lon="11.5911414"><ele>357.6</ele><time>2026-05-02T14:11:09.715Z</time></trkpt><trkpt lat="43.1264335" lon="11.5910254"><ele>355.40000000000003</ele><time>2026-05-02T14:11:10.697Z</time></trkpt><trkpt lat="43.1264009" lon="11.5908964"><ele>353.20000000000005</ele><time>2026-05-02T14:11:11.697Z</time></trkpt><trkpt lat="43.1263557" lon="11.590785"><ele>351.0</ele><time>2026-05-02T14:11:12.7Z</time></trkpt><trkpt lat="43.1263208" lon="11.5906653"><ele>351.0</ele><time>2026-05-02T14:11:13.704Z</time></trkpt><trkpt lat="43.1262848" lon="11.5905535"><ele>351.0</ele><time>2026-05-02T14:11:14.699Z</time></trkpt><trkpt lat="43.1262596" lon="11.5904355"><ele>351.0</ele><time>2026-05-02T14:11:15.704Z</time></trkpt><trkpt lat="43.1262621" lon="11.5903028"><ele>351.0</ele><time>2026-05-02T14:11:16.701Z</time></trkpt><trkpt lat="43.1263032" lon="11.5901707"><ele>351.0</ele><time>2026-05-02T14:11:17.718Z</time></trkpt><trkpt lat="43.1263607" lon="11.590063"><ele>349.8</ele><time>2026-05-02T14:11:18.688Z</time></trkpt><trkpt lat="43.1264219" lon="11.5899557"><ele>348.6</ele><time>2026-05-02T14:11:19.693Z</time></trkpt><trkpt lat="43.1264939" lon="11.5898433"><ele>347.4</ele><time>2026-05-02T14:11:20.694Z</time></trkpt><trkpt lat="43.1265637" lon="11.589734"><ele>346.2</ele><time>2026-05-02T14:11:21.701Z</time></trkpt><trkpt lat="43.1266406" lon="11.5896165"><ele>345.0</ele><time>2026-05-02T14:11:22.693Z</time></trkpt><trkpt lat="43.1267175" lon="11.5895195"><ele>343.6</ele><time>2026-05-02T14:11:23.696Z</time></trkpt><trkpt lat="43.1267875" lon="11.5894273"><ele>342.2</ele><time>2026-05-02T14:11:24.698Z</time></trkpt><trkpt lat="43.1268639" lon="11.5893336"><ele>340.79999999999995</ele><time>2026-05-02T14:11:25.703Z</time></trkpt><trkpt lat="43.1269456" lon="11.589239"><ele>339.4</ele><time>2026-05-02T14:11:26.706Z</time></trkpt><trkpt lat="43.1270226" lon="11.5891372"><ele>338.0</ele><time>2026-05-02T14:11:27.691Z</time></trkpt><trkpt lat="43.1271052" lon="11.5890252"><ele>338.0</ele><time>2026-05-02T14:11:28.701Z</time></trkpt><trkpt lat="43.1271862" lon="11.5889118"><ele>338.0</ele><time>2026-05-02T14:11:29.702Z</time></trkpt><trkpt lat="43.1272683" lon="11.5887978"><ele>338.0</ele><time>2026-05-02T14:11:30.7Z</time></trkpt><trkpt lat="43.1273519" lon="11.5886826"><ele>338.0</ele><time>2026-05-02T14:11:31.695Z</time></trkpt><trkpt lat="43.1274333" lon="11.5885707"><ele>337.59999999999997</ele><time>2026-05-02T14:11:32.702Z</time></trkpt><trkpt lat="43.1275123" lon="11.5884571"><ele>337.2</ele><time>2026-05-02T14:11:33.698Z</time></trkpt><trkpt lat="43.1275923" lon="11.5883445"><ele>336.8</ele><time>2026-05-02T14:11:34.702Z</time></trkpt><trkpt lat="43.1276626" lon="11.5882455"><ele>336.4</ele><time>2026-05-02T14:11:35.693Z</time></trkpt><trkpt lat="43.1277231" lon="11.5881453"><ele>336.0</ele><time>2026-05-02T14:11:36.702Z</time></trkpt><trkpt lat="43.1277806" lon="11.5880353"><ele>336.0</ele><time>2026-05-02T14:11:37.7Z</time></trkpt><trkpt lat="43.1278279" lon="11.5879163"><ele>336.0</ele><time>2026-05-02T14:11:38.701Z</time></trkpt><trkpt lat="43.1278719" lon="11.5877826"><ele>336.0</ele><time>2026-05-02T14:11:39.703Z</time></trkpt><trkpt lat="43.1279077" lon="11.5876297"><ele>336.0</ele><time>2026-05-02T14:11:40.702Z</time></trkpt><trkpt lat="43.1279369" lon="11.5874641"><ele>336.0</ele><time>2026-05-02T14:11:41.703Z</time></trkpt><trkpt lat="43.1279656" lon="11.5872947"><ele>335.5</ele><time>2026-05-02T14:11:42.706Z</time></trkpt><trkpt lat="43.1279966" lon="11.5871223"><ele>335.0</ele><time>2026-05-02T14:11:43.697Z</time></trkpt><trkpt lat="43.1280243" lon="11.5869559"><ele>334.5</ele><time>2026-05-02T14:11:44.695Z</time></trkpt><trkpt lat="43.1280511" lon="11.586786"><ele>334.0</ele><time>2026-05-02T14:11:45.697Z</time></trkpt><trkpt lat="43.1280891" lon="11.5866224"><ele>333.25</ele><time>2026-05-02T14:11:46.694Z</time></trkpt><trkpt lat="43.1281292" lon="11.5864664"><ele>332.5</ele><time>2026-05-02T14:11:47.702Z</time></trkpt><trkpt lat="43.1281689" lon="11.5863104"><ele>331.75</ele><time>2026-05-02T14:11:48.702Z</time></trkpt><trkpt lat="43.1281994" lon="11.5861495"><ele>331.0</ele><time>2026-05-02T14:11:49.694Z</time></trkpt><trkpt lat="43.128221" lon="11.5859767"><ele>329.25</ele><time>2026-05-02T14:11:50.715Z</time></trkpt><trkpt lat="43.128236" lon="11.5858044"><ele>327.5</ele><time>2026-05-02T14:11:51.708Z</time></trkpt><trkpt lat="43.1282517" lon="11.5856427"><ele>325.75</ele><time>2026-05-02T14:11:52.7Z</time></trkpt><trkpt lat="43.1282637" lon="11.585478"><ele>324.0</ele><time>2026-05-02T14:11:53.71Z</time></trkpt><trkpt lat="43.128271" lon="11.5853247"><ele>323.0</ele><time>2026-05-02T14:11:54.693Z</time></trkpt><trkpt lat="43.1282833" lon="11.5851725"><ele>322.0</ele><time>2026-05-02T14:11:55.695Z</time></trkpt><trkpt lat="43.1282941" lon="11.5850149"><ele>321.0</ele><time>2026-05-02T14:11:56.7Z</time></trkpt><trkpt lat="43.1283069" lon="11.5848576"><ele>320.0</ele><time>2026-05-02T14:11:57.703Z</time></trkpt><trkpt lat="43.1283183" lon="11.5847015"><ele>320.0</ele><time>2026-05-02T14:11:58.7Z</time></trkpt><trkpt lat="43.1283443" lon="11.5845532"><ele>320.0</ele><time>2026-05-02T14:11:59.691Z</time></trkpt><trkpt lat="43.1283752" lon="11.5844072"><ele>320.0</ele><time>2026-05-02T14:12:00.695Z</time></trkpt><trkpt lat="43.1284181" lon="11.5842759"><ele>320.0</ele><time>2026-05-02T14:12:01.696Z</time></trkpt><trkpt lat="43.1284837" lon="11.5841425"><ele>320.0</ele><time>2026-05-02T14:12:02.701Z</time></trkpt><trkpt lat="43.1285561" lon="11.5840132"><ele>318.0</ele><time>2026-05-02T14:12:03.705Z</time></trkpt><trkpt lat="43.1286463" lon="11.583899"><ele>316.0</ele><time>2026-05-02T14:12:04.702Z</time></trkpt><trkpt lat="43.1287494" lon="11.5838168"><ele>314.0</ele><time>2026-05-02T14:12:05.693Z</time></trkpt><trkpt lat="43.1288557" lon="11.5837712"><ele>312.0</ele><time>2026-05-02T14:12:06.697Z</time></trkpt><trkpt lat="43.1289634" lon="11.5837249"><ele>310.2</ele><time>2026-05-02T14:12:07.698Z</time></trkpt><trkpt lat="43.1290429" lon="11.5836366"><ele>308.4</ele><time>2026-05-02T14:12:08.7Z</time></trkpt><trkpt lat="43.1291061" lon="11.5835288"><ele>306.6</ele><time>2026-05-02T14:12:09.703Z</time></trkpt><trkpt lat="43.1291522" lon="11.5834003"><ele>304.8</ele><time>2026-05-02T14:12:10.695Z</time></trkpt><trkpt lat="43.1291982" lon="11.5832597"><ele>303.0</ele><time>2026-05-02T14:12:11.697Z</time></trkpt><trkpt lat="43.1292411" lon="11.5831089"><ele>300.75</ele><time>2026-05-02T14:12:12.702Z</time></trkpt><trkpt lat="43.1292809" lon="11.5829537"><ele>298.5</ele><time>2026-05-02T14:12:13.711Z</time></trkpt><trkpt lat="43.1293072" lon="11.5827938"><ele>296.25</ele><time>2026-05-02T14:12:14.693Z</time></trkpt><trkpt lat="43.1293312" lon="11.5826245"><ele>294.0</ele><time>2026-05-02T14:12:15.7Z</time></trkpt><trkpt lat="43.1293529" lon="11.5824431"><ele>291.25</ele><time>2026-05-02T14:12:16.708Z</time></trkpt><trkpt lat="43.1293746" lon="11.582256"><ele>288.5</ele><time>2026-05-02T14:12:17.697Z</time></trkpt><trkpt lat="43.1294023" lon="11.582062"><ele>285.75</ele><time>2026-05-02T14:12:18.716Z</time></trkpt><trkpt lat="43.1294297" lon="11.5818691"><ele>283.0</ele><time>2026-05-02T14:12:19.711Z</time></trkpt><trkpt lat="43.129454" lon="11.5816701"><ele>280.0</ele><time>2026-05-02T14:12:20.698Z</time></trkpt><trkpt lat="43.1294773" lon="11.5814816"><ele>277.0</ele><time>2026-05-02T14:12:21.699Z</time></trkpt><trkpt lat="43.1295037" lon="11.5812948"><ele>274.0</ele><time>2026-05-02T14:12:22.7Z</time></trkpt><trkpt lat="43.1295297" lon="11.5811171"><ele>271.0</ele><time>2026-05-02T14:12:23.698Z</time></trkpt><trkpt lat="43.1295533" lon="11.5809361"><ele>269.6</ele><time>2026-05-02T14:12:24.696Z</time></trkpt><trkpt lat="43.1295806" lon="11.5807702"><ele>268.20000000000005</ele><time>2026-05-02T14:12:25.701Z</time></trkpt><trkpt lat="43.129607" lon="11.5806149"><ele>266.79999999999995</ele><time>2026-05-02T14:12:26.7Z</time></trkpt><trkpt lat="43.1296281" lon="11.5804737"><ele>265.4</ele><time>2026-05-02T14:12:27.696Z</time></trkpt><trkpt lat="43.1296437" lon="11.5803449"><ele>264.0</ele><time>2026-05-02T14:12:28.7Z</time></trkpt><trkpt lat="43.1296611" lon="11.5802203"><ele>263.5</ele><time>2026-05-02T14:12:29.709Z</time></trkpt><trkpt lat="43.1296819" lon="11.5800925"><ele>263.0</ele><time>2026-05-02T14:12:30.702Z</time></trkpt><trkpt lat="43.1297233" lon="11.5799454"><ele>262.5</ele><time>2026-05-02T14:12:31.699Z</time></trkpt><trkpt lat="43.1297856" lon="11.579766"><ele>262.0</ele><time>2026-05-02T14:12:32.71Z</time></trkpt><trkpt lat="43.1298599" lon="11.5795909"><ele>262.0</ele><time>2026-05-02T14:12:33.702Z</time></trkpt><trkpt lat="43.1299364" lon="11.5794227"><ele>262.0</ele><time>2026-05-02T14:12:34.711Z</time></trkpt><trkpt lat="43.1300137" lon="11.5792498"><ele>262.0</ele><time>2026-05-02T14:12:35.709Z</time></trkpt><trkpt lat="43.1300765" lon="11.5790977"><ele>262.0</ele><time>2026-05-02T14:12:36.697Z</time></trkpt><trkpt lat="43.1301329" lon="11.5789504"><ele>262.0</ele><time>2026-05-02T14:12:37.708Z</time></trkpt><trkpt lat="43.1301826" lon="11.5787881"><ele>262.0</ele><time>2026-05-02T14:12:38.69Z</time></trkpt><trkpt lat="43.1302219" lon="11.5786261"><ele>262.0</ele><time>2026-05-02T14:12:39.705Z</time></trkpt><trkpt lat="43.1302375" lon="11.5784775"><ele>262.0</ele><time>2026-05-02T14:12:40.704Z</time></trkpt><trkpt lat="43.1302368" lon="11.5783454"><ele>261.6</ele><time>2026-05-02T14:12:41.707Z</time></trkpt><trkpt lat="43.1302283" lon="11.5782019"><ele>261.2</ele><time>2026-05-02T14:12:42.705Z</time></trkpt><trkpt lat="43.1302032" lon="11.5780609"><ele>260.8</ele><time>2026-05-02T14:12:43.706Z</time></trkpt><trkpt lat="43.1301546" lon="11.5779345"><ele>260.4</ele><time>2026-05-02T14:12:44.7Z</time></trkpt><trkpt lat="43.1300893" lon="11.5778088"><ele>260.0</ele><time>2026-05-02T14:12:45.699Z</time></trkpt><trkpt lat="43.1300214" lon="11.5776832"><ele>259.0</ele><time>2026-05-02T14:12:46.7Z</time></trkpt><trkpt lat="43.1299436" lon="11.5775566"><ele>258.0</ele><time>2026-05-02T14:12:47.701Z</time></trkpt><trkpt lat="43.1298591" lon="11.577452"><ele>257.0</ele><time>2026-05-02T14:12:48.704Z</time></trkpt><trkpt lat="43.1297655" lon="11.5773771"><ele>256.0</ele><time>2026-05-02T14:12:49.704Z</time></trkpt><trkpt lat="43.1296709" lon="11.5773323"><ele>255.0</ele><time>2026-05-02T14:12:50.694Z</time></trkpt><trkpt lat="43.1295785" lon="11.5773218"><ele>254.6</ele><time>2026-05-02T14:12:51.696Z</time></trkpt><trkpt lat="43.1294853" lon="11.5773163"><ele>254.2</ele><time>2026-05-02T14:12:52.698Z</time></trkpt><trkpt lat="43.1293828" lon="11.5772955"><ele>253.8</ele><time>2026-05-02T14:12:53.714Z</time></trkpt><trkpt lat="43.1292857" lon="11.5772557"><ele>253.4</ele><time>2026-05-02T14:12:54.695Z</time></trkpt><trkpt lat="43.1292028" lon="11.57718"><ele>253.0</ele><time>2026-05-02T14:12:55.706Z</time></trkpt><trkpt lat="43.1291366" lon="11.5770822"><ele>253.4</ele><time>2026-05-02T14:12:56.692Z</time></trkpt><trkpt lat="43.1290994" lon="11.5769701"><ele>253.8</ele><time>2026-05-02T14:12:57.705Z</time></trkpt><trkpt lat="43.1290953" lon="11.576857"><ele>254.2</ele><time>2026-05-02T14:12:58.673Z</time></trkpt><trkpt lat="43.1291016" lon="11.5767268"><ele>254.6</ele><time>2026-05-02T14:12:59.692Z</time></trkpt><trkpt lat="43.1291146" lon="11.5765902"><ele>255.0</ele><time>2026-05-02T14:13:00.694Z</time></trkpt><trkpt lat="43.1291147" lon="11.5764422"><ele>255.0</ele><time>2026-05-02T14:13:01.698Z</time></trkpt><trkpt lat="43.1291108" lon="11.5762798"><ele>255.0</ele><time>2026-05-02T14:13:02.703Z</time></trkpt><trkpt lat="43.1291181" lon="11.5761145"><ele>255.0</ele><time>2026-05-02T14:13:03.686Z</time></trkpt><trkpt lat="43.1291301" lon="11.5759499"><ele>255.0</ele><time>2026-05-02T14:13:04.694Z</time></trkpt><trkpt lat="43.1291409" lon="11.5757942"><ele>255.6</ele><time>2026-05-02T14:13:05.708Z</time></trkpt><trkpt lat="43.1291523" lon="11.5756633"><ele>256.2</ele><time>2026-05-02T14:13:06.706Z</time></trkpt><trkpt lat="43.1291652" lon="11.5755376"><ele>256.8</ele><time>2026-05-02T14:13:07.686Z</time></trkpt><trkpt lat="43.1291736" lon="11.5754149"><ele>257.4</ele><time>2026-05-02T14:13:08.701Z</time></trkpt><trkpt lat="43.129183" lon="11.5752902"><ele>258.0</ele><time>2026-05-02T14:13:09.701Z</time></trkpt><trkpt lat="43.1292018" lon="11.5751726"><ele>258.4</ele><time>2026-05-02T14:13:10.696Z</time></trkpt><trkpt lat="43.129234" lon="11.5750675"><ele>258.8</ele><time>2026-05-02T14:13:11.697Z</time></trkpt><trkpt lat="43.1293009" lon="11.5749743"><ele>259.2</ele><time>2026-05-02T14:13:12.695Z</time></trkpt><trkpt lat="43.1293805" lon="11.5749179"><ele>259.6</ele><time>2026-05-02T14:13:13.694Z</time></trkpt><trkpt lat="43.1294504" lon="11.5748971"><ele>260.0</ele><time>2026-05-02T14:13:14.69Z</time></trkpt><trkpt lat="43.1295614" lon="11.5748629"><ele>260.0</ele><time>2026-05-02T14:13:16.702Z</time></trkpt><trkpt lat="43.1296343" lon="11.5748603"><ele>260.0</ele><time>2026-05-02T14:13:17.697Z</time></trkpt><trkpt lat="43.1297265" lon="11.5748667"><ele>260.0</ele><time>2026-05-02T14:13:18.707Z</time></trkpt><trkpt lat="43.1298358" lon="11.5748915"><ele>260.0</ele><time>2026-05-02T14:13:19.709Z</time></trkpt><trkpt lat="43.1299544" lon="11.5749249"><ele>260.0</ele><time>2026-05-02T14:13:20.708Z</time></trkpt><trkpt lat="43.1300816" lon="11.5749658"><ele>260.0</ele><time>2026-05-02T14:13:21.692Z</time></trkpt><trkpt lat="43.1302154" lon="11.5750028"><ele>260.0</ele><time>2026-05-02T14:13:22.698Z</time></trkpt><trkpt lat="43.1303602" lon="11.5750344"><ele>260.0</ele><time>2026-05-02T14:13:23.704Z</time></trkpt><trkpt lat="43.130514" lon="11.5750724"><ele>260.0</ele><time>2026-05-02T14:13:24.693Z</time></trkpt><trkpt lat="43.1306677" lon="11.5751114"><ele>260.33333333333337</ele><time>2026-05-02T14:13:25.699Z</time></trkpt><trkpt lat="43.1308136" lon="11.5751496"><ele>260.6666666666667</ele><time>2026-05-02T14:13:26.703Z</time></trkpt><trkpt lat="43.1309654" lon="11.5751802"><ele>261.0</ele><time>2026-05-02T14:13:27.698Z</time></trkpt><trkpt lat="43.1311261" lon="11.5752277"><ele>261.0</ele><time>2026-05-02T14:13:28.687Z</time></trkpt><trkpt lat="43.1313003" lon="11.5752826"><ele>261.0</ele><time>2026-05-02T14:13:29.693Z</time></trkpt><trkpt lat="43.1314829" lon="11.57534"><ele>261.0</ele><time>2026-05-02T14:13:30.698Z</time></trkpt><trkpt lat="43.1316755" lon="11.575393"><ele>261.6666666666667</ele><time>2026-05-02T14:13:31.699Z</time></trkpt><trkpt lat="43.1318706" lon="11.575448"><ele>262.33333333333337</ele><time>2026-05-02T14:13:32.699Z</time></trkpt><trkpt lat="43.1320721" lon="11.5754969"><ele>263.0</ele><time>2026-05-02T14:13:33.694Z</time></trkpt><trkpt lat="43.1322698" lon="11.5755516"><ele>263.6666666666667</ele><time>2026-05-02T14:13:34.707Z</time></trkpt><trkpt lat="43.1324739" lon="11.5756141"><ele>264.3333333333333</ele><time>2026-05-02T14:13:35.696Z</time></trkpt><trkpt lat="43.132673" lon="11.5756813"><ele>265.0</ele><time>2026-05-02T14:13:36.702Z</time></trkpt><trkpt lat="43.1328758" lon="11.5757481"><ele>265.0</ele><time>2026-05-02T14:13:37.696Z</time></trkpt><trkpt lat="43.1330866" lon="11.5758123"><ele>265.0</ele><time>2026-05-02T14:13:38.705Z</time></trkpt><trkpt lat="43.1332984" lon="11.5758803"><ele>265.0</ele><time>2026-05-02T14:13:39.693Z</time></trkpt><trkpt lat="43.1335096" lon="11.5759425"><ele>265.0</ele><time>2026-05-02T14:13:40.72Z</time></trkpt><trkpt lat="43.1337231" lon="11.5760109"><ele>265.0</ele><time>2026-05-02T14:13:41.712Z</time></trkpt><trkpt lat="43.1339316" lon="11.5760825"><ele>265.0</ele><time>2026-05-02T14:13:42.694Z</time></trkpt><trkpt lat="43.134134" lon="11.5761524"><ele>263.66666666666663</ele><time>2026-05-02T14:13:43.711Z</time></trkpt><trkpt lat="43.1343343" lon="11.5762243"><ele>262.3333333333333</ele><time>2026-05-02T14:13:44.689Z</time></trkpt><trkpt lat="43.1345353" lon="11.5762885"><ele>261.0</ele><time>2026-05-02T14:13:45.707Z</time></trkpt><trkpt lat="43.1347359" lon="11.576366"><ele>261.6666666666667</ele><time>2026-05-02T14:13:46.698Z</time></trkpt><trkpt lat="43.1349345" lon="11.5764636"><ele>262.33333333333337</ele><time>2026-05-02T14:13:47.683Z</time></trkpt><trkpt lat="43.13512" lon="11.5765905"><ele>263.0</ele><time>2026-05-02T14:13:48.699Z</time></trkpt><trkpt lat="43.1353019" lon="11.5767399"><ele>263.0</ele><time>2026-05-02T14:13:49.691Z</time></trkpt><trkpt lat="43.1354797" lon="11.5769046"><ele>263.0</ele><time>2026-05-02T14:13:50.703Z</time></trkpt><trkpt lat="43.1356568" lon="11.5770686"><ele>263.0</ele><time>2026-05-02T14:13:51.693Z</time></trkpt><trkpt lat="43.1358353" lon="11.577232"><ele>262.6666666666667</ele><time>2026-05-02T14:13:52.689Z</time></trkpt><trkpt lat="43.1360177" lon="11.5773959"><ele>262.3333333333333</ele><time>2026-05-02T14:13:53.709Z</time></trkpt><trkpt lat="43.1362049" lon="11.5775608"><ele>262.0</ele><time>2026-05-02T14:13:54.691Z</time></trkpt><trkpt lat="43.1363878" lon="11.5777271"><ele>262.66666666666663</ele><time>2026-05-02T14:13:55.697Z</time></trkpt><trkpt lat="43.1365653" lon="11.5778823"><ele>263.3333333333333</ele><time>2026-05-02T14:13:56.702Z</time></trkpt><trkpt lat="43.136731" lon="11.5780262"><ele>264.0</ele><time>2026-05-02T14:13:57.699Z</time></trkpt><trkpt lat="43.1368846" lon="11.578158"><ele>264.0</ele><time>2026-05-02T14:13:58.688Z</time></trkpt><trkpt lat="43.137024" lon="11.5782809"><ele>264.0</ele><time>2026-05-02T14:13:59.708Z</time></trkpt><trkpt lat="43.1371565" lon="11.5783986"><ele>264.0</ele><time>2026-05-02T14:14:00.697Z</time></trkpt><trkpt lat="43.1372751" lon="11.5785018"><ele>264.0</ele><time>2026-05-02T14:14:01.704Z</time></trkpt><trkpt lat="43.1373844" lon="11.5785919"><ele>264.0</ele><time>2026-05-02T14:14:02.694Z</time></trkpt><trkpt lat="43.1374764" lon="11.5786675"><ele>264.0</ele><time>2026-05-02T14:14:03.716Z</time></trkpt><trkpt lat="43.1375536" lon="11.5787171"><ele>264.0</ele><time>2026-05-02T14:14:04.701Z</time></trkpt><trkpt lat="43.1376248" lon="11.5787062"><ele>264.0</ele><time>2026-05-02T14:14:05.706Z</time></trkpt><trkpt lat="43.1376882" lon="11.5786507"><ele>264.8</ele><time>2026-05-02T14:14:06.69Z</time></trkpt><trkpt lat="43.1377385" lon="11.5785705"><ele>265.59999999999997</ele><time>2026-05-02T14:14:07.691Z</time></trkpt><trkpt lat="43.1377804" lon="11.5784754"><ele>266.4</ele><time>2026-05-02T14:14:08.695Z</time></trkpt><trkpt lat="43.1378332" lon="11.5783792"><ele>267.2</ele><time>2026-05-02T14:14:09.701Z</time></trkpt><trkpt lat="43.1378948" lon="11.5782715"><ele>268.0</ele><time>2026-05-02T14:14:10.709Z</time></trkpt><trkpt lat="43.137966" lon="11.5781544"><ele>268.0</ele><time>2026-05-02T14:14:11.692Z</time></trkpt><trkpt lat="43.1380346" lon="11.5780312"><ele>268.0</ele><time>2026-05-02T14:14:12.698Z</time></trkpt><trkpt lat="43.1381077" lon="11.5779027"><ele>268.0</ele><time>2026-05-02T14:14:13.702Z</time></trkpt><trkpt lat="43.1381808" lon="11.5777732"><ele>268.0</ele><time>2026-05-02T14:14:14.707Z</time></trkpt><trkpt lat="43.1382551" lon="11.5776423"><ele>269.75</ele><time>2026-05-02T14:14:15.703Z</time></trkpt><trkpt lat="43.1383347" lon="11.5775043"><ele>271.5</ele><time>2026-05-02T14:14:16.695Z</time></trkpt><trkpt lat="43.1384213" lon="11.5773662"><ele>273.25</ele><time>2026-05-02T14:14:17.702Z</time></trkpt><trkpt lat="43.138504" lon="11.5772265"><ele>275.0</ele><time>2026-05-02T14:14:18.708Z</time></trkpt><trkpt lat="43.1385788" lon="11.5771004"><ele>275.6</ele><time>2026-05-02T14:14:19.706Z</time></trkpt><trkpt lat="43.1386381" lon="11.5769863"><ele>276.2</ele><time>2026-05-02T14:14:20.697Z</time></trkpt><trkpt lat="43.1386831" lon="11.5768678"><ele>276.8</ele><time>2026-05-02T14:14:21.699Z</time></trkpt><trkpt lat="43.1387197" lon="11.5767291"><ele>277.4</ele><time>2026-05-02T14:14:22.704Z</time></trkpt><trkpt lat="43.138743" lon="11.576567"><ele>278.0</ele><time>2026-05-02T14:14:23.692Z</time></trkpt><trkpt lat="43.1387618" lon="11.5763919"><ele>278.0</ele><time>2026-05-02T14:14:24.702Z</time></trkpt><trkpt lat="43.1387691" lon="11.5762063"><ele>278.0</ele><time>2026-05-02T14:14:25.691Z</time></trkpt><trkpt lat="43.1387708" lon="11.5760275"><ele>278.0</ele><time>2026-05-02T14:14:26.687Z</time></trkpt><trkpt lat="43.1387672" lon="11.57587"><ele>278.0</ele><time>2026-05-02T14:14:27.686Z</time></trkpt><trkpt lat="43.138749" lon="11.5757244"><ele>279.4</ele><time>2026-05-02T14:14:28.695Z</time></trkpt><trkpt lat="43.1387225" lon="11.5755857"><ele>280.8</ele><time>2026-05-02T14:14:29.694Z</time></trkpt><trkpt lat="43.1386749" lon="11.5754587"><ele>282.2</ele><time>2026-05-02T14:14:30.691Z</time></trkpt><trkpt lat="43.1386076" lon="11.5753405"><ele>283.6</ele><time>2026-05-02T14:14:31.693Z</time></trkpt><trkpt lat="43.1385272" lon="11.5752307"><ele>285.0</ele><time>2026-05-02T14:14:32.687Z</time></trkpt><trkpt lat="43.1384401" lon="11.5751282"><ele>288.25</ele><time>2026-05-02T14:14:33.7Z</time></trkpt><trkpt lat="43.1383446" lon="11.575029"><ele>291.5</ele><time>2026-05-02T14:14:34.696Z</time></trkpt><trkpt lat="43.1382493" lon="11.5749104"><ele>294.75</ele><time>2026-05-02T14:14:35.698Z</time></trkpt><trkpt lat="43.13816" lon="11.5747887"><ele>298.0</ele><time>2026-05-02T14:14:36.704Z</time></trkpt><trkpt lat="43.1380831" lon="11.5746558"><ele>298.75</ele><time>2026-05-02T14:14:37.692Z</time></trkpt><trkpt lat="43.138024" lon="11.5745171"><ele>299.5</ele><time>2026-05-02T14:14:38.703Z</time></trkpt><trkpt lat="43.1379933" lon="11.5743661"><ele>300.25</ele><time>2026-05-02T14:14:39.705Z</time></trkpt><trkpt lat="43.1379815" lon="11.5742172"><ele>301.0</ele><time>2026-05-02T14:14:40.697Z</time></trkpt><trkpt lat="43.1379794" lon="11.5740527"><ele>301.0</ele><time>2026-05-02T14:14:41.704Z</time></trkpt><trkpt lat="43.1379814" lon="11.5738785"><ele>301.0</ele><time>2026-05-02T14:14:42.704Z</time></trkpt><trkpt lat="43.1379799" lon="11.573689"><ele>301.0</ele><time>2026-05-02T14:14:43.702Z</time></trkpt><trkpt lat="43.137972" lon="11.5734669"><ele>301.0</ele><time>2026-05-02T14:14:44.694Z</time></trkpt><trkpt lat="43.1379595" lon="11.5732222"><ele>300.0</ele><time>2026-05-02T14:14:45.701Z</time></trkpt><trkpt lat="43.1379496" lon="11.5729599"><ele>299.0</ele><time>2026-05-02T14:14:46.696Z</time></trkpt><trkpt lat="43.1379455" lon="11.5727125"><ele>298.0</ele><time>2026-05-02T14:14:47.693Z</time></trkpt><trkpt lat="43.1379467" lon="11.5725087"><ele>297.2</ele><time>2026-05-02T14:14:48.679Z</time></trkpt><trkpt lat="43.1379479" lon="11.5723611"><ele>296.4</ele><time>2026-05-02T14:14:49.698Z</time></trkpt><trkpt lat="43.1379594" lon="11.5722284"><ele>295.59999999999997</ele><time>2026-05-02T14:14:50.704Z</time></trkpt><trkpt lat="43.1379976" lon="11.5721077"><ele>294.8</ele><time>2026-05-02T14:14:51.696Z</time></trkpt><trkpt lat="43.1380653" lon="11.5720105"><ele>294.0</ele><time>2026-05-02T14:14:52.696Z</time></trkpt><trkpt lat="43.1381536" lon="11.5719415"><ele>296.0</ele><time>2026-05-02T14:14:53.698Z</time></trkpt><trkpt lat="43.1382816" lon="11.5718669"><ele>298.0</ele><time>2026-05-02T14:14:54.702Z</time></trkpt><trkpt lat="43.1384047" lon="11.5717863"><ele>300.0</ele><time>2026-05-02T14:14:55.708Z</time></trkpt><trkpt lat="43.1385032" lon="11.5717037"><ele>302.0</ele><time>2026-05-02T14:14:56.699Z</time></trkpt><trkpt lat="43.1385871" lon="11.5716009"><ele>302.0</ele><time>2026-05-02T14:14:57.703Z</time></trkpt><trkpt lat="43.1386548" lon="11.5714663"><ele>302.0</ele><time>2026-05-02T14:14:58.7Z</time></trkpt><trkpt lat="43.138697" lon="11.5713125"><ele>302.0</ele><time>2026-05-02T14:14:59.703Z</time></trkpt><trkpt lat="43.1387133" lon="11.5711642"><ele>302.0</ele><time>2026-05-02T14:15:00.69Z</time></trkpt><trkpt lat="43.1386995" lon="11.5710185"><ele>301.6</ele><time>2026-05-02T14:15:01.688Z</time></trkpt><trkpt lat="43.1386626" lon="11.5708871"><ele>301.2</ele><time>2026-05-02T14:15:02.696Z</time></trkpt><trkpt lat="43.1385963" lon="11.5707407"><ele>300.8</ele><time>2026-05-02T14:15:03.694Z</time></trkpt><trkpt lat="43.1385267" lon="11.5706216"><ele>300.4</ele><time>2026-05-02T14:15:04.712Z</time></trkpt><trkpt lat="43.138484" lon="11.5705035"><ele>300.0</ele><time>2026-05-02T14:15:05.707Z</time></trkpt><trkpt lat="43.1384596" lon="11.5703638"><ele>301.25</ele><time>2026-05-02T14:15:06.698Z</time></trkpt><trkpt lat="43.1384558" lon="11.5702137"><ele>302.5</ele><time>2026-05-02T14:15:07.686Z</time></trkpt><trkpt lat="43.1384796" lon="11.5700587"><ele>303.75</ele><time>2026-05-02T14:15:08.694Z</time></trkpt><trkpt lat="43.1385063" lon="11.5698695"><ele>305.0</ele><time>2026-05-02T14:15:09.694Z</time></trkpt><trkpt lat="43.1385241" lon="11.5696792"><ele>305.25</ele><time>2026-05-02T14:15:10.695Z</time></trkpt><trkpt lat="43.1385286" lon="11.5694972"><ele>305.5</ele><time>2026-05-02T14:15:11.695Z</time></trkpt><trkpt lat="43.1385231" lon="11.5693285"><ele>305.75</ele><time>2026-05-02T14:15:12.692Z</time></trkpt><trkpt lat="43.1385084" lon="11.5691613"><ele>306.0</ele><time>2026-05-02T14:15:13.696Z</time></trkpt><trkpt lat="43.1384828" lon="11.5690077"><ele>306.0</ele><time>2026-05-02T14:15:14.696Z</time></trkpt><trkpt lat="43.138439" lon="11.5688618"><ele>306.0</ele><time>2026-05-02T14:15:15.695Z</time></trkpt><trkpt lat="43.1383826" lon="11.5687194"><ele>306.0</ele><time>2026-05-02T14:15:16.686Z</time></trkpt><trkpt lat="43.138301" lon="11.5685873"><ele>306.0</ele><time>2026-05-02T14:15:17.7Z</time></trkpt><trkpt lat="43.1382098" lon="11.5684598"><ele>300.0</ele><time>2026-05-02T14:15:18.702Z</time></trkpt><trkpt lat="43.1381177" lon="11.5683428"><ele>294.0</ele><time>2026-05-02T14:15:19.697Z</time></trkpt><trkpt lat="43.1380331" lon="11.5682307"><ele>288.0</ele><time>2026-05-02T14:15:20.702Z</time></trkpt><trkpt lat="43.137959" lon="11.5681156"><ele>282.0</ele><time>2026-05-02T14:15:21.691Z</time></trkpt><trkpt lat="43.1379014" lon="11.5679807"><ele>283.4</ele><time>2026-05-02T14:15:22.704Z</time></trkpt><trkpt lat="43.1378667" lon="11.5678443"><ele>284.79999999999995</ele><time>2026-05-02T14:15:23.693Z</time></trkpt><trkpt lat="43.1378598" lon="11.5677135"><ele>286.2</ele><time>2026-05-02T14:15:24.697Z</time></trkpt><trkpt lat="43.1378647" lon="11.5675819"><ele>287.59999999999997</ele><time>2026-05-02T14:15:25.698Z</time></trkpt><trkpt lat="43.1378828" lon="11.5674326"><ele>289.0</ele><time>2026-05-02T14:15:26.704Z</time></trkpt><trkpt lat="43.1379088" lon="11.5672788"><ele>289.0</ele><time>2026-05-02T14:15:27.699Z</time></trkpt><trkpt lat="43.1379279" lon="11.5671251"><ele>289.0</ele><time>2026-05-02T14:15:28.698Z</time></trkpt><trkpt lat="43.1379303" lon="11.5669793"><ele>289.0</ele><time>2026-05-02T14:15:29.707Z</time></trkpt><trkpt lat="43.1379251" lon="11.5668425"><ele>289.0</ele><time>2026-05-02T14:15:30.693Z</time></trkpt><trkpt lat="43.1379136" lon="11.5667007"><ele>289.0</ele><time>2026-05-02T14:15:31.698Z</time></trkpt><trkpt lat="43.1379008" lon="11.5665456"><ele>288.75</ele><time>2026-05-02T14:15:32.704Z</time></trkpt><trkpt lat="43.1378944" lon="11.5663839"><ele>288.5</ele><time>2026-05-02T14:15:33.705Z</time></trkpt><trkpt lat="43.137882" lon="11.5662153"><ele>288.25</ele><time>2026-05-02T14:15:34.702Z</time></trkpt><trkpt lat="43.1378713" lon="11.5660422"><ele>288.0</ele><time>2026-05-02T14:15:35.703Z</time></trkpt><trkpt lat="43.1378637" lon="11.5658714"><ele>288.0</ele><time>2026-05-02T14:15:36.699Z</time></trkpt><trkpt lat="43.1378546" lon="11.5657051"><ele>288.0</ele><time>2026-05-02T14:15:37.702Z</time></trkpt><trkpt lat="43.1378452" lon="11.565545"><ele>288.0</ele><time>2026-05-02T14:15:38.689Z</time></trkpt><trkpt lat="43.1378324" lon="11.5653966"><ele>288.0</ele><time>2026-05-02T14:15:39.722Z</time></trkpt><trkpt lat="43.1378105" lon="11.5652577"><ele>288.0</ele><time>2026-05-02T14:15:40.697Z</time></trkpt><trkpt lat="43.1377695" lon="11.5651149"><ele>288.0</ele><time>2026-05-02T14:15:41.694Z</time></trkpt><trkpt lat="43.1377155" lon="11.5649683"><ele>288.0</ele><time>2026-05-02T14:15:42.693Z</time></trkpt><trkpt lat="43.1376535" lon="11.5648423"><ele>288.0</ele><time>2026-05-02T14:15:43.711Z</time></trkpt><trkpt lat="43.1375986" lon="11.5647203"><ele>288.0</ele><time>2026-05-02T14:15:44.711Z</time></trkpt><trkpt lat="43.1375515" lon="11.5646133"><ele>288.6666666666667</ele><time>2026-05-02T14:15:45.706Z</time></trkpt><trkpt lat="43.1375023" lon="11.5645241"><ele>289.3333333333333</ele><time>2026-05-02T14:15:46.686Z</time></trkpt><trkpt lat="43.1374549" lon="11.5644472"><ele>290.0</ele><time>2026-05-02T14:15:47.695Z</time></trkpt><trkpt lat="43.1374036" lon="11.5643875"><ele>290.66666666666663</ele><time>2026-05-02T14:15:48.693Z</time></trkpt><trkpt lat="43.1373258" lon="11.564348"><ele>291.3333333333333</ele><time>2026-05-02T14:15:49.691Z</time></trkpt><trkpt lat="43.137237" lon="11.56435"><ele>292.0</ele><time>2026-05-02T14:15:50.699Z</time></trkpt><trkpt lat="43.1371485" lon="11.5643895"><ele>287.4</ele><time>2026-05-02T14:15:51.708Z</time></trkpt><trkpt lat="43.1370731" lon="11.5644625"><ele>282.79999999999995</ele><time>2026-05-02T14:15:52.721Z</time></trkpt><trkpt lat="43.1370117" lon="11.5645577"><ele>278.2</ele><time>2026-05-02T14:15:53.696Z</time></trkpt><trkpt lat="43.1369734" lon="11.5646654"><ele>273.59999999999997</ele><time>2026-05-02T14:15:54.701Z</time></trkpt><trkpt lat="43.136955" lon="11.564787"><ele>269.0</ele><time>2026-05-02T14:15:55.703Z</time></trkpt><trkpt lat="43.136968" lon="11.5649103"><ele>269.0</ele><time>2026-05-02T14:15:56.7Z</time></trkpt><trkpt lat="43.1370056" lon="11.5650354"><ele>269.0</ele><time>2026-05-02T14:15:57.699Z</time></trkpt><trkpt lat="43.1370604" lon="11.565165"><ele>269.0</ele><time>2026-05-02T14:15:58.701Z</time></trkpt><trkpt lat="43.1371263" lon="11.5652908"><ele>269.0</ele><time>2026-05-02T14:15:59.698Z</time></trkpt><trkpt lat="43.1371767" lon="11.5654165"><ele>269.0</ele><time>2026-05-02T14:16:00.7Z</time></trkpt><trkpt lat="43.1372158" lon="11.5655315"><ele>268.59999999999997</ele><time>2026-05-02T14:16:01.698Z</time></trkpt><trkpt lat="43.1372353" lon="11.5656629"><ele>268.2</ele><time>2026-05-02T14:16:02.717Z</time></trkpt><trkpt lat="43.1372297" lon="11.5658039"><ele>267.79999999999995</ele><time>2026-05-02T14:16:03.714Z</time></trkpt><trkpt lat="43.1372062" lon="11.5659497"><ele>267.4</ele><time>2026-05-02T14:16:04.691Z</time></trkpt><trkpt lat="43.1371493" lon="11.5660759"><ele>267.0</ele><time>2026-05-02T14:16:05.703Z</time></trkpt><trkpt lat="43.1370858" lon="11.5661759"><ele>268.0</ele><time>2026-05-02T14:16:06.694Z</time></trkpt><trkpt lat="43.1369974" lon="11.5662621"><ele>269.0</ele><time>2026-05-02T14:16:07.702Z</time></trkpt><trkpt lat="43.1368944" lon="11.5663337"><ele>270.0</ele><time>2026-05-02T14:16:08.71Z</time></trkpt><trkpt lat="43.1367754" lon="11.5663966"><ele>271.0</ele><time>2026-05-02T14:16:09.697Z</time></trkpt><trkpt lat="43.1366338" lon="11.5664475"><ele>266.40000000000003</ele><time>2026-05-02T14:16:10.704Z</time></trkpt><trkpt lat="43.1365073" lon="11.5664977"><ele>261.8</ele><time>2026-05-02T14:16:11.706Z</time></trkpt><trkpt lat="43.1364125" lon="11.5665422"><ele>257.20000000000005</ele><time>2026-05-02T14:16:12.691Z</time></trkpt><trkpt lat="43.1363342" lon="11.5665784"><ele>252.60000000000002</ele><time>2026-05-02T14:16:13.702Z</time></trkpt><trkpt lat="43.1362653" lon="11.5665924"><ele>248.0</ele><time>2026-05-02T14:16:14.702Z</time></trkpt><trkpt lat="43.1361853" lon="11.5665619"><ele>248.00000000000003</ele><time>2026-05-02T14:16:15.699Z</time></trkpt><trkpt lat="43.1361164" lon="11.5664873"><ele>248.0</ele><time>2026-05-02T14:16:16.705Z</time></trkpt><trkpt lat="43.1361048" lon="11.5663792"><ele>248.0</ele><time>2026-05-02T14:16:17.701Z</time></trkpt><trkpt lat="43.1361216" lon="11.5662755"><ele>248.0</ele><time>2026-05-02T14:16:18.704Z</time></trkpt><trkpt lat="43.1361739" lon="11.5661658"><ele>248.00000000000003</ele><time>2026-05-02T14:16:19.701Z</time></trkpt><trkpt lat="43.136241" lon="11.5660723"><ele>248.0</ele><time>2026-05-02T14:16:20.69Z</time></trkpt><trkpt lat="43.1363024" lon="11.565974"><ele>248.00000000000003</ele><time>2026-05-02T14:16:21.697Z</time></trkpt><trkpt lat="43.1363458" lon="11.5658736"><ele>248.0</ele><time>2026-05-02T14:16:22.698Z</time></trkpt><trkpt lat="43.1363705" lon="11.56575"><ele>248.0</ele><time>2026-05-02T14:16:23.703Z</time></trkpt><trkpt lat="43.1363691" lon="11.5656383"><ele>248.0</ele><time>2026-05-02T14:16:24.701Z</time></trkpt><trkpt lat="43.1363366" lon="11.5655257"><ele>248.00000000000003</ele><time>2026-05-02T14:16:25.696Z</time></trkpt><trkpt lat="43.1362805" lon="11.5654218"><ele>248.0</ele><time>2026-05-02T14:16:26.697Z</time></trkpt><trkpt lat="43.136207" lon="11.5653249"><ele>247.4</ele><time>2026-05-02T14:16:27.706Z</time></trkpt><trkpt lat="43.136131" lon="11.5652452"><ele>246.8</ele><time>2026-05-02T14:16:28.7Z</time></trkpt><trkpt lat="43.1360713" lon="11.5651598"><ele>246.2</ele><time>2026-05-02T14:16:29.717Z</time></trkpt><trkpt lat="43.1360372" lon="11.5650533"><ele>245.6</ele><time>2026-05-02T14:16:30.707Z</time></trkpt><trkpt lat="43.1360221" lon="11.5649312"><ele>245.0</ele><time>2026-05-02T14:16:31.699Z</time></trkpt><trkpt lat="43.1360305" lon="11.564797"><ele>245.0</ele><time>2026-05-02T14:16:32.705Z</time></trkpt><trkpt lat="43.1360633" lon="11.5646656"><ele>245.0</ele><time>2026-05-02T14:16:33.702Z</time></trkpt><trkpt lat="43.1361135" lon="11.5645413"><ele>245.0</ele><time>2026-05-02T14:16:34.7Z</time></trkpt><trkpt lat="43.1361715" lon="11.5644126"><ele>245.0</ele><time>2026-05-02T14:16:35.691Z</time></trkpt><trkpt lat="43.1362326" lon="11.5642811"><ele>245.0</ele><time>2026-05-02T14:16:36.699Z</time></trkpt><trkpt lat="43.1362835" lon="11.5641489"><ele>244.2</ele><time>2026-05-02T14:16:37.7Z</time></trkpt><trkpt lat="43.1363232" lon="11.5640079"><ele>243.4</ele><time>2026-05-02T14:16:38.7Z</time></trkpt><trkpt lat="43.1363493" lon="11.5638587"><ele>242.60000000000002</ele><time>2026-05-02T14:16:39.695Z</time></trkpt><trkpt lat="43.1363561" lon="11.5637012"><ele>241.8</ele><time>2026-05-02T14:16:40.693Z</time></trkpt><trkpt lat="43.1363382" lon="11.5635506"><ele>241.0</ele><time>2026-05-02T14:16:41.69Z</time></trkpt><trkpt lat="43.1362964" lon="11.5634031"><ele>241.0</ele><time>2026-05-02T14:16:42.685Z</time></trkpt><trkpt lat="43.1362362" lon="11.5632628"><ele>241.0</ele><time>2026-05-02T14:16:43.684Z</time></trkpt><trkpt lat="43.136159" lon="11.5631432"><ele>241.0</ele><time>2026-05-02T14:16:44.694Z</time></trkpt><trkpt lat="43.1360753" lon="11.5630309"><ele>241.0</ele><time>2026-05-02T14:16:45.695Z</time></trkpt><trkpt lat="43.1359928" lon="11.5629301"><ele>243.0</ele><time>2026-05-02T14:16:46.685Z</time></trkpt><trkpt lat="43.1359039" lon="11.5628202"><ele>245.0</ele><time>2026-05-02T14:16:47.69Z</time></trkpt><trkpt lat="43.1358136" lon="11.5626998"><ele>247.0</ele><time>2026-05-02T14:16:48.689Z</time></trkpt><trkpt lat="43.1357238" lon="11.5625863"><ele>249.0</ele><time>2026-05-02T14:16:49.703Z</time></trkpt><trkpt lat="43.135638" lon="11.5624779"><ele>245.0</ele><time>2026-05-02T14:16:50.694Z</time></trkpt><trkpt lat="43.1355489" lon="11.5623626"><ele>241.0</ele><time>2026-05-02T14:16:51.698Z</time></trkpt><trkpt lat="43.1354642" lon="11.5622443"><ele>237.0</ele><time>2026-05-02T14:16:52.684Z</time></trkpt><trkpt lat="43.1353905" lon="11.562124"><ele>233.0</ele><time>2026-05-02T14:16:53.7Z</time></trkpt><trkpt lat="43.1353238" lon="11.5620124"><ele>233.0</ele><time>2026-05-02T14:16:54.7Z</time></trkpt><trkpt lat="43.1352568" lon="11.5618999"><ele>233.0</ele><time>2026-05-02T14:16:55.702Z</time></trkpt><trkpt lat="43.1351916" lon="11.5617853"><ele>233.0</ele><time>2026-05-02T14:16:56.695Z</time></trkpt><trkpt lat="43.1351209" lon="11.5616712"><ele>233.0</ele><time>2026-05-02T14:16:57.702Z</time></trkpt><trkpt lat="43.1350555" lon="11.5615418"><ele>233.0</ele><time>2026-05-02T14:16:58.69Z</time></trkpt><trkpt lat="43.1349956" lon="11.5614069"><ele>233.0</ele><time>2026-05-02T14:16:59.7Z</time></trkpt><trkpt lat="43.1349342" lon="11.5612651"><ele>233.0</ele><time>2026-05-02T14:17:00.697Z</time></trkpt><trkpt lat="43.134871" lon="11.5611418"><ele>233.0</ele><time>2026-05-02T14:17:01.7Z</time></trkpt><trkpt lat="43.1348092" lon="11.5610259"><ele>233.0</ele><time>2026-05-02T14:17:02.7Z</time></trkpt><trkpt lat="43.1347531" lon="11.56092"><ele>233.0</ele><time>2026-05-02T14:17:03.696Z</time></trkpt><trkpt lat="43.1346925" lon="11.5608104"><ele>229.60000000000002</ele><time>2026-05-02T14:17:04.702Z</time></trkpt><trkpt lat="43.1346297" lon="11.5606924"><ele>226.20000000000002</ele><time>2026-05-02T14:17:05.698Z</time></trkpt><trkpt lat="43.1345656" lon="11.5605731"><ele>222.8</ele><time>2026-05-02T14:17:06.707Z</time></trkpt><trkpt lat="43.1344992" lon="11.5604539"><ele>219.4</ele><time>2026-05-02T14:17:07.7Z</time></trkpt><trkpt lat="43.1344301" lon="11.5603324"><ele>216.0</ele><time>2026-05-02T14:17:08.691Z</time></trkpt><trkpt lat="43.1343627" lon="11.5602107"><ele>216.0</ele><time>2026-05-02T14:17:09.701Z</time></trkpt><trkpt lat="43.1342918" lon="11.5600888"><ele>216.0</ele><time>2026-05-02T14:17:10.699Z</time></trkpt><trkpt lat="43.1342072" lon="11.5599449"><ele>216.0</ele><time>2026-05-02T14:17:11.696Z</time></trkpt><trkpt lat="43.1341341" lon="11.5597965"><ele>216.0</ele><time>2026-05-02T14:17:12.7Z</time></trkpt><trkpt lat="43.1340768" lon="11.5596581"><ele>212.0</ele><time>2026-05-02T14:17:13.703Z</time></trkpt><trkpt lat="43.1340328" lon="11.5595248"><ele>208.0</ele><time>2026-05-02T14:17:14.69Z</time></trkpt><trkpt lat="43.1340081" lon="11.5593724"><ele>204.0</ele><time>2026-05-02T14:17:15.695Z</time></trkpt><trkpt lat="43.1339991" lon="11.5592005"><ele>200.0</ele><time>2026-05-02T14:17:16.699Z</time></trkpt><trkpt lat="43.1340005" lon="11.5590048"><ele>200.0</ele><time>2026-05-02T14:17:17.699Z</time></trkpt><trkpt lat="43.1340015" lon="11.558783"><ele>200.0</ele><time>2026-05-02T14:17:18.705Z</time></trkpt><trkpt lat="43.1340109" lon="11.5585678"><ele>200.0</ele><time>2026-05-02T14:17:19.698Z</time></trkpt><trkpt lat="43.1340166" lon="11.5583752"><ele>200.0</ele><time>2026-05-02T14:17:20.697Z</time></trkpt><trkpt lat="43.1340187" lon="11.5581862"><ele>200.0</ele><time>2026-05-02T14:17:21.701Z</time></trkpt><trkpt lat="43.1340098" lon="11.5579826"><ele>200.0</ele><time>2026-05-02T14:17:22.694Z</time></trkpt><trkpt lat="43.133994" lon="11.5577754"><ele>200.0</ele><time>2026-05-02T14:17:23.7Z</time></trkpt><trkpt lat="43.1339646" lon="11.557567"><ele>200.0</ele><time>2026-05-02T14:17:24.695Z</time></trkpt><trkpt lat="43.1339351" lon="11.5573526"><ele>200.0</ele><time>2026-05-02T14:17:25.702Z</time></trkpt><trkpt lat="43.1339002" lon="11.5571281"><ele>200.0</ele><time>2026-05-02T14:17:26.693Z</time></trkpt><trkpt lat="43.1338627" lon="11.5569055"><ele>201.25</ele><time>2026-05-02T14:17:27.685Z</time></trkpt><trkpt lat="43.1338322" lon="11.5567019"><ele>202.5</ele><time>2026-05-02T14:17:28.695Z</time></trkpt><trkpt lat="43.1338033" lon="11.556525"><ele>203.75</ele><time>2026-05-02T14:17:29.705Z</time></trkpt><trkpt lat="43.1337673" lon="11.556365"><ele>205.0</ele><time>2026-05-02T14:17:30.692Z</time></trkpt><trkpt lat="43.1337345" lon="11.5562283"><ele>207.0</ele><time>2026-05-02T14:17:31.695Z</time></trkpt><trkpt lat="43.1336843" lon="11.556106"><ele>209.0</ele><time>2026-05-02T14:17:32.702Z</time></trkpt><trkpt lat="43.1336206" lon="11.556006"><ele>211.0</ele><time>2026-05-02T14:17:33.694Z</time></trkpt><trkpt lat="43.1335344" lon="11.5559194"><ele>213.0</ele><time>2026-05-02T14:17:34.695Z</time></trkpt><trkpt lat="43.1334381" lon="11.5558745"><ele>215.0</ele><time>2026-05-02T14:17:35.702Z</time></trkpt><trkpt lat="43.133336" lon="11.5558553"><ele>215.0</ele><time>2026-05-02T14:17:36.698Z</time></trkpt><trkpt lat="43.1332299" lon="11.5558675"><ele>215.0</ele><time>2026-05-02T14:17:37.696Z</time></trkpt><trkpt lat="43.1331388" lon="11.5558938"><ele>215.0</ele><time>2026-05-02T14:17:38.705Z</time></trkpt><trkpt lat="43.1330454" lon="11.5559442"><ele>215.0</ele><time>2026-05-02T14:17:39.699Z</time></trkpt><trkpt lat="43.1329585" lon="11.5560199"><ele>215.0</ele><time>2026-05-02T14:17:40.703Z</time></trkpt><trkpt lat="43.1328675" lon="11.5561329"><ele>215.75</ele><time>2026-05-02T14:17:41.706Z</time></trkpt><trkpt lat="43.1327686" lon="11.5562652"><ele>216.5</ele><time>2026-05-02T14:17:42.695Z</time></trkpt><trkpt lat="43.1326587" lon="11.5564063"><ele>217.25</ele><time>2026-05-02T14:17:43.696Z</time></trkpt><trkpt lat="43.1325535" lon="11.5565603"><ele>218.0</ele><time>2026-05-02T14:17:44.703Z</time></trkpt><trkpt lat="43.1324586" lon="11.556709"><ele>217.0</ele><time>2026-05-02T14:17:45.695Z</time></trkpt><trkpt lat="43.132358" lon="11.5568372"><ele>216.0</ele><time>2026-05-02T14:17:46.696Z</time></trkpt><trkpt lat="43.1322493" lon="11.5569493"><ele>215.0</ele><time>2026-05-02T14:17:47.707Z</time></trkpt><trkpt lat="43.1321354" lon="11.5570443"><ele>214.0</ele><time>2026-05-02T14:17:48.703Z</time></trkpt><trkpt lat="43.1320002" lon="11.5571144"><ele>214.0</ele><time>2026-05-02T14:17:49.694Z</time></trkpt><trkpt lat="43.1318617" lon="11.5571797"><ele>214.0</ele><time>2026-05-02T14:17:50.695Z</time></trkpt><trkpt lat="43.1317275" lon="11.5572483"><ele>214.0</ele><time>2026-05-02T14:17:51.704Z</time></trkpt><trkpt lat="43.1316192" lon="11.5573048"><ele>214.0</ele><time>2026-05-02T14:17:52.704Z</time></trkpt><trkpt lat="43.1315144" lon="11.5573436"><ele>213.6</ele><time>2026-05-02T14:17:53.696Z</time></trkpt><trkpt lat="43.1314228" lon="11.5573643"><ele>213.2</ele><time>2026-05-02T14:17:54.693Z</time></trkpt><trkpt lat="43.1313328" lon="11.5573416"><ele>212.79999999999998</ele><time>2026-05-02T14:17:55.708Z</time></trkpt><trkpt lat="43.1312401" lon="11.5573048"><ele>212.39999999999998</ele><time>2026-05-02T14:17:56.697Z</time></trkpt><trkpt lat="43.1311539" lon="11.5572301"><ele>212.0</ele><time>2026-05-02T14:17:57.699Z</time></trkpt><trkpt lat="43.1310898" lon="11.5571318"><ele>215.6</ele><time>2026-05-02T14:17:58.708Z</time></trkpt><trkpt lat="43.1310547" lon="11.557002"><ele>219.2</ele><time>2026-05-02T14:17:59.706Z</time></trkpt><trkpt lat="43.1310512" lon="11.5568667"><ele>222.8</ele><time>2026-05-02T14:18:00.689Z</time></trkpt><trkpt lat="43.1310828" lon="11.5567442"><ele>226.4</ele><time>2026-05-02T14:18:01.697Z</time></trkpt><trkpt lat="43.1311426" lon="11.5566409"><ele>230.0</ele><time>2026-05-02T14:18:02.698Z</time></trkpt><trkpt lat="43.1312231" lon="11.5565595"><ele>230.0</ele><time>2026-05-02T14:18:03.697Z</time></trkpt><trkpt lat="43.1313269" lon="11.5564794"><ele>230.0</ele><time>2026-05-02T14:18:04.699Z</time></trkpt><trkpt lat="43.1314587" lon="11.5563927"><ele>230.0</ele><time>2026-05-02T14:18:05.7Z</time></trkpt><trkpt lat="43.1316025" lon="11.5562839"><ele>230.0</ele><time>2026-05-02T14:18:06.688Z</time></trkpt><trkpt lat="43.131754" lon="11.5561583"><ele>234.33333333333334</ele><time>2026-05-02T14:18:07.708Z</time></trkpt><trkpt lat="43.1319109" lon="11.5560188"><ele>238.66666666666669</ele><time>2026-05-02T14:18:08.692Z</time></trkpt><trkpt lat="43.1320636" lon="11.5558691"><ele>243.0</ele><time>2026-05-02T14:18:09.702Z</time></trkpt><trkpt lat="43.1322267" lon="11.555705"><ele>243.0</ele><time>2026-05-02T14:18:10.701Z</time></trkpt><trkpt lat="43.132376" lon="11.5555516"><ele>243.0</ele><time>2026-05-02T14:18:11.698Z</time></trkpt><trkpt lat="43.1325043" lon="11.5554203"><ele>243.0</ele><time>2026-05-02T14:18:12.695Z</time></trkpt><trkpt lat="43.1326103" lon="11.5553091"><ele>243.60000000000002</ele><time>2026-05-02T14:18:13.698Z</time></trkpt><trkpt lat="43.1326937" lon="11.5552138"><ele>244.20000000000002</ele><time>2026-05-02T14:18:14.693Z</time></trkpt><trkpt lat="43.1327604" lon="11.5550976"><ele>244.8</ele><time>2026-05-02T14:18:15.69Z</time></trkpt><trkpt lat="43.1328193" lon="11.5549791"><ele>245.4</ele><time>2026-05-02T14:18:16.703Z</time></trkpt><trkpt lat="43.1328522" lon="11.5548494"><ele>246.0</ele><time>2026-05-02T14:18:17.696Z</time></trkpt><trkpt lat="43.1328648" lon="11.5547144"><ele>246.0</ele><time>2026-05-02T14:18:18.7Z</time></trkpt><trkpt lat="43.1328403" lon="11.5545929"><ele>246.00000000000003</ele><time>2026-05-02T14:18:19.727Z</time></trkpt><trkpt lat="43.1327882" lon="11.5544756"><ele>246.00000000000003</ele><time>2026-05-02T14:18:20.692Z</time></trkpt><trkpt lat="43.1327177" lon="11.5543617"><ele>246.0</ele><time>2026-05-02T14:18:21.695Z</time></trkpt><trkpt lat="43.1326335" lon="11.5542508"><ele>246.0</ele><time>2026-05-02T14:18:22.697Z</time></trkpt><trkpt lat="43.1325531" lon="11.5541581"><ele>246.8</ele><time>2026-05-02T14:18:23.704Z</time></trkpt><trkpt lat="43.1324712" lon="11.5540887"><ele>247.60000000000002</ele><time>2026-05-02T14:18:24.7Z</time></trkpt><trkpt lat="43.1323879" lon="11.5540639"><ele>248.4</ele><time>2026-05-02T14:18:25.69Z</time></trkpt><trkpt lat="43.1322996" lon="11.5540601"><ele>249.2</ele><time>2026-05-02T14:18:26.7Z</time></trkpt><trkpt lat="43.1322089" lon="11.5540925"><ele>250.0</ele><time>2026-05-02T14:18:27.694Z</time></trkpt><trkpt lat="43.1321289" lon="11.5541589"><ele>251.2</ele><time>2026-05-02T14:18:28.682Z</time></trkpt><trkpt lat="43.1320625" lon="11.5542431"><ele>252.4</ele><time>2026-05-02T14:18:29.7Z</time></trkpt><trkpt lat="43.1320013" lon="11.5543383"><ele>253.60000000000002</ele><time>2026-05-02T14:18:30.689Z</time></trkpt><trkpt lat="43.1319404" lon="11.5544369"><ele>254.8</ele><time>2026-05-02T14:18:31.686Z</time></trkpt><trkpt lat="43.1318796" lon="11.5545368"><ele>256.0</ele><time>2026-05-02T14:18:32.693Z</time></trkpt><trkpt lat="43.1318175" lon="11.5546342"><ele>256.0</ele><time>2026-05-02T14:18:33.696Z</time></trkpt><trkpt lat="43.131748" lon="11.5547263"><ele>256.0</ele><time>2026-05-02T14:18:34.696Z</time></trkpt><trkpt lat="43.1316782" lon="11.5548151"><ele>256.0</ele><time>2026-05-02T14:18:35.686Z</time></trkpt><trkpt lat="43.1316034" lon="11.5549067"><ele>256.0</ele><time>2026-05-02T14:18:36.703Z</time></trkpt><trkpt lat="43.1315278" lon="11.5549906"><ele>256.0</ele><time>2026-05-02T14:18:37.691Z</time></trkpt><trkpt lat="43.1314532" lon="11.5550573"><ele>257.0</ele><time>2026-05-02T14:18:38.701Z</time></trkpt><trkpt lat="43.1313827" lon="11.555105"><ele>258.0</ele><time>2026-05-02T14:18:39.702Z</time></trkpt><trkpt lat="43.131309" lon="11.5551397"><ele>259.0</ele><time>2026-05-02T14:18:40.707Z</time></trkpt><trkpt lat="43.1312305" lon="11.5551557"><ele>260.0</ele><time>2026-05-02T14:18:41.687Z</time></trkpt><trkpt lat="43.1311463" lon="11.5551569"><ele>261.0</ele><time>2026-05-02T14:18:42.697Z</time></trkpt><trkpt lat="43.1310614" lon="11.5551377"><ele>262.0</ele><time>2026-05-02T14:18:43.709Z</time></trkpt><trkpt lat="43.1309845" lon="11.5551005"><ele>262.0</ele><time>2026-05-02T14:18:44.695Z</time></trkpt><trkpt lat="43.1309172" lon="11.555017"><ele>262.0</ele><time>2026-05-02T14:18:45.705Z</time></trkpt><trkpt lat="43.1308578" lon="11.5549444"><ele>262.0</ele><time>2026-05-02T14:18:46.695Z</time></trkpt><trkpt lat="43.1308006" lon="11.5548537"><ele>262.0</ele><time>2026-05-02T14:18:47.693Z</time></trkpt><trkpt lat="43.130753" lon="11.5547628"><ele>262.0</ele><time>2026-05-02T14:18:48.702Z</time></trkpt><trkpt lat="43.1307003" lon="11.5546724"><ele>262.0</ele><time>2026-05-02T14:18:49.703Z</time></trkpt><trkpt lat="43.1306299" lon="11.5545927"><ele>262.8</ele><time>2026-05-02T14:18:50.69Z</time></trkpt><trkpt lat="43.1305518" lon="11.5545269"><ele>263.6</ele><time>2026-05-02T14:18:51.696Z</time></trkpt><trkpt lat="43.1304746" lon="11.5544663"><ele>264.40000000000003</ele><time>2026-05-02T14:18:52.694Z</time></trkpt><trkpt lat="43.1303892" lon="11.5544002"><ele>265.2</ele><time>2026-05-02T14:18:53.696Z</time></trkpt><trkpt lat="43.1302999" lon="11.5543137"><ele>266.0</ele><time>2026-05-02T14:18:54.699Z</time></trkpt><trkpt lat="43.130195" lon="11.5541855"><ele>266.0</ele><time>2026-05-02T14:18:55.7Z</time></trkpt><trkpt lat="43.1300808" lon="11.5540555"><ele>266.0</ele><time>2026-05-02T14:18:56.7Z</time></trkpt><trkpt lat="43.1299627" lon="11.5539474"><ele>266.0</ele><time>2026-05-02T14:18:57.698Z</time></trkpt><trkpt lat="43.1298586" lon="11.5538718"><ele>266.0</ele><time>2026-05-02T14:18:58.693Z</time></trkpt><trkpt lat="43.1297431" lon="11.5538385"><ele>266.1666666666667</ele><time>2026-05-02T14:18:59.7Z</time></trkpt><trkpt lat="43.1296364" lon="11.553823"><ele>266.33333333333337</ele><time>2026-05-02T14:19:00.69Z</time></trkpt><trkpt lat="43.1295418" lon="11.5538104"><ele>266.5</ele><time>2026-05-02T14:19:01.692Z</time></trkpt><trkpt lat="43.129458" lon="11.5537908"><ele>266.6666666666667</ele><time>2026-05-02T14:19:02.69Z</time></trkpt><trkpt lat="43.1293877" lon="11.5537544"><ele>266.8333333333333</ele><time>2026-05-02T14:19:03.697Z</time></trkpt><trkpt lat="43.1293386" lon="11.5536837"><ele>267.0</ele><time>2026-05-02T14:19:04.692Z</time></trkpt><trkpt lat="43.1293147" lon="11.5535821"><ele>269.2</ele><time>2026-05-02T14:19:05.694Z</time></trkpt><trkpt lat="43.1293203" lon="11.5534536"><ele>271.4</ele><time>2026-05-02T14:19:06.697Z</time></trkpt><trkpt lat="43.1293522" lon="11.5533386"><ele>273.6</ele><time>2026-05-02T14:19:07.7Z</time></trkpt><trkpt lat="43.1294105" lon="11.5532399"><ele>275.8</ele><time>2026-05-02T14:19:08.702Z</time></trkpt><trkpt lat="43.129488" lon="11.5531741"><ele>278.0</ele><time>2026-05-02T14:19:09.695Z</time></trkpt><trkpt lat="43.1296098" lon="11.5531361"><ele>278.0</ele><time>2026-05-02T14:19:10.694Z</time></trkpt><trkpt lat="43.1297269" lon="11.5531327"><ele>278.0</ele><time>2026-05-02T14:19:11.7Z</time></trkpt><trkpt lat="43.1298679" lon="11.5531614"><ele>278.0</ele><time>2026-05-02T14:19:12.686Z</time></trkpt><trkpt lat="43.1300291" lon="11.5532174"><ele>278.0</ele><time>2026-05-02T14:19:13.702Z</time></trkpt><trkpt lat="43.1301726" lon="11.553285"><ele>278.0</ele><time>2026-05-02T14:19:14.696Z</time></trkpt><trkpt lat="43.1303063" lon="11.5533404"><ele>278.0</ele><time>2026-05-02T14:19:15.688Z</time></trkpt><trkpt lat="43.1304315" lon="11.5533878"><ele>278.0</ele><time>2026-05-02T14:19:16.7Z</time></trkpt><trkpt lat="43.1305507" lon="11.5534251"><ele>278.0</ele><time>2026-05-02T14:19:17.705Z</time></trkpt><trkpt lat="43.130661" lon="11.5534288"><ele>279.0</ele><time>2026-05-02T14:19:18.7Z</time></trkpt><trkpt lat="43.1307707" lon="11.5533996"><ele>280.0</ele><time>2026-05-02T14:19:19.703Z</time></trkpt><trkpt lat="43.13088" lon="11.553336"><ele>281.0</ele><time>2026-05-02T14:19:20.697Z</time></trkpt><trkpt lat="43.1309677" lon="11.5532582"><ele>282.0</ele><time>2026-05-02T14:19:21.699Z</time></trkpt><trkpt lat="43.1310366" lon="11.5531583"><ele>283.0</ele><time>2026-05-02T14:19:22.698Z</time></trkpt><trkpt lat="43.1310905" lon="11.5530369"><ele>283.0</ele><time>2026-05-02T14:19:23.699Z</time></trkpt><trkpt lat="43.1311132" lon="11.5529089"><ele>283.0</ele><time>2026-05-02T14:19:24.696Z</time></trkpt><trkpt lat="43.1311181" lon="11.5527616"><ele>283.0</ele><time>2026-05-02T14:19:25.696Z</time></trkpt><trkpt lat="43.131107" lon="11.5526014"><ele>283.0</ele><time>2026-05-02T14:19:26.699Z</time></trkpt><trkpt lat="43.1310931" lon="11.55242"><ele>284.8</ele><time>2026-05-02T14:19:27.702Z</time></trkpt><trkpt lat="43.1310856" lon="11.5522516"><ele>286.6</ele><time>2026-05-02T14:19:28.697Z</time></trkpt><trkpt lat="43.1310818" lon="11.55211"><ele>288.4</ele><time>2026-05-02T14:19:29.685Z</time></trkpt><trkpt lat="43.1310941" lon="11.5519809"><ele>290.2</ele><time>2026-05-02T14:19:30.709Z</time></trkpt><trkpt lat="43.1311186" lon="11.5518539"><ele>292.0</ele><time>2026-05-02T14:19:31.693Z</time></trkpt><trkpt lat="43.131157" lon="11.5517318"><ele>294.25</ele><time>2026-05-02T14:19:32.703Z</time></trkpt><trkpt lat="43.1312178" lon="11.5516118"><ele>296.5</ele><time>2026-05-02T14:19:33.711Z</time></trkpt><trkpt lat="43.1312873" lon="11.5514923"><ele>298.75</ele><time>2026-05-02T14:19:34.694Z</time></trkpt><trkpt lat="43.1313626" lon="11.5513696"><ele>301.0</ele><time>2026-05-02T14:19:35.702Z</time></trkpt><trkpt lat="43.1314393" lon="11.5512288"><ele>300.0</ele><time>2026-05-02T14:19:36.693Z</time></trkpt><trkpt lat="43.1315389" lon="11.5510457"><ele>299.0</ele><time>2026-05-02T14:19:37.702Z</time></trkpt><trkpt lat="43.1316502" lon="11.5508497"><ele>298.0</ele><time>2026-05-02T14:19:38.702Z</time></trkpt><trkpt lat="43.1317703" lon="11.5506268"><ele>298.0</ele><time>2026-05-02T14:19:39.702Z</time></trkpt><trkpt lat="43.1318999" lon="11.5503834"><ele>298.0</ele><time>2026-05-02T14:19:40.698Z</time></trkpt><trkpt lat="43.1320306" lon="11.5501497"><ele>298.0</ele><time>2026-05-02T14:19:41.704Z</time></trkpt><trkpt lat="43.1321299" lon="11.5499415"><ele>301.0</ele><time>2026-05-02T14:19:42.683Z</time></trkpt><trkpt lat="43.1322302" lon="11.5497497"><ele>304.0</ele><time>2026-05-02T14:19:43.69Z</time></trkpt><trkpt lat="43.1323324" lon="11.5495787"><ele>307.0</ele><time>2026-05-02T14:19:44.694Z</time></trkpt><trkpt lat="43.1324425" lon="11.5494178"><ele>307.66666666666663</ele><time>2026-05-02T14:19:45.696Z</time></trkpt><trkpt lat="43.1325596" lon="11.5492865"><ele>308.3333333333333</ele><time>2026-05-02T14:19:46.69Z</time></trkpt><trkpt lat="43.1326869" lon="11.5491727"><ele>309.0</ele><time>2026-05-02T14:19:47.703Z</time></trkpt><trkpt lat="43.1328177" lon="11.5490792"><ele>309.0</ele><time>2026-05-02T14:19:48.706Z</time></trkpt><trkpt lat="43.13295" lon="11.5489944"><ele>309.0</ele><time>2026-05-02T14:19:49.71Z</time></trkpt><trkpt lat="43.1330794" lon="11.5489038"><ele>309.0</ele><time>2026-05-02T14:19:50.696Z</time></trkpt><trkpt lat="43.1331879" lon="11.5488108"><ele>309.0</ele><time>2026-05-02T14:19:51.705Z</time></trkpt><trkpt lat="43.1332792" lon="11.5487294"><ele>309.4</ele><time>2026-05-02T14:19:52.702Z</time></trkpt><trkpt lat="43.13335" lon="11.5486363"><ele>309.79999999999995</ele><time>2026-05-02T14:19:53.702Z</time></trkpt><trkpt lat="43.1334048" lon="11.5485088"><ele>310.20000000000005</ele><time>2026-05-02T14:19:54.703Z</time></trkpt><trkpt lat="43.133444" lon="11.5483614"><ele>310.6</ele><time>2026-05-02T14:19:55.696Z</time></trkpt><trkpt lat="43.1334686" lon="11.5482164"><ele>311.0</ele><time>2026-05-02T14:19:56.698Z</time></trkpt><trkpt lat="43.1334711" lon="11.5480618"><ele>311.0</ele><time>2026-05-02T14:19:57.691Z</time></trkpt><trkpt lat="43.1334597" lon="11.5479011"><ele>311.0</ele><time>2026-05-02T14:19:58.703Z</time></trkpt><trkpt lat="43.1334331" lon="11.5477317"><ele>311.0</ele><time>2026-05-02T14:19:59.706Z</time></trkpt><trkpt lat="43.1333935" lon="11.547555"><ele>311.0</ele><time>2026-05-02T14:20:00.699Z</time></trkpt><trkpt lat="43.1333443" lon="11.5473568"><ele>311.0</ele><time>2026-05-02T14:20:01.7Z</time></trkpt><trkpt lat="43.1332961" lon="11.547153"><ele>311.0</ele><time>2026-05-02T14:20:02.696Z</time></trkpt><trkpt lat="43.1332495" lon="11.5469571"><ele>311.0</ele><time>2026-05-02T14:20:03.698Z</time></trkpt><trkpt lat="43.1331965" lon="11.5467506"><ele>305.6666666666667</ele><time>2026-05-02T14:20:04.692Z</time></trkpt><trkpt lat="43.133142" lon="11.5465434"><ele>300.3333333333333</ele><time>2026-05-02T14:20:05.69Z</time></trkpt><trkpt lat="43.1330886" lon="11.5463227"><ele>295.0</ele><time>2026-05-02T14:20:06.696Z</time></trkpt><trkpt lat="43.1330388" lon="11.546104"><ele>295.0</ele><time>2026-05-02T14:20:07.699Z</time></trkpt><trkpt lat="43.1329874" lon="11.5458801"><ele>295.0</ele><time>2026-05-02T14:20:08.693Z</time></trkpt><trkpt lat="43.1329368" lon="11.5456535"><ele>295.0</ele><time>2026-05-02T14:20:09.688Z</time></trkpt><trkpt lat="43.1328896" lon="11.545435"><ele>296.0</ele><time>2026-05-02T14:20:10.7Z</time></trkpt><trkpt lat="43.132845" lon="11.5452314"><ele>297.0</ele><time>2026-05-02T14:20:11.696Z</time></trkpt><trkpt lat="43.1327987" lon="11.5450321"><ele>298.0</ele><time>2026-05-02T14:20:12.69Z</time></trkpt><trkpt lat="43.1327549" lon="11.5448347"><ele>298.0</ele><time>2026-05-02T14:20:13.702Z</time></trkpt><trkpt lat="43.1327083" lon="11.5446359"><ele>298.0</ele><time>2026-05-02T14:20:14.703Z</time></trkpt><trkpt lat="43.1326576" lon="11.5444371"><ele>298.0</ele><time>2026-05-02T14:20:15.706Z</time></trkpt><trkpt lat="43.1326002" lon="11.5442304"><ele>299.0</ele><time>2026-05-02T14:20:16.701Z</time></trkpt><trkpt lat="43.1325392" lon="11.5440274"><ele>300.0</ele><time>2026-05-02T14:20:17.697Z</time></trkpt><trkpt lat="43.1324821" lon="11.5438494"><ele>301.0</ele><time>2026-05-02T14:20:18.713Z</time></trkpt><trkpt lat="43.1324228" lon="11.5436781"><ele>302.0</ele><time>2026-05-02T14:20:19.711Z</time></trkpt><trkpt lat="43.1323598" lon="11.5435192"><ele>302.0</ele><time>2026-05-02T14:20:20.694Z</time></trkpt><trkpt lat="43.1323016" lon="11.5433736"><ele>302.0</ele><time>2026-05-02T14:20:21.693Z</time></trkpt><trkpt lat="43.1322421" lon="11.5432357"><ele>302.0</ele><time>2026-05-02T14:20:22.702Z</time></trkpt><trkpt lat="43.1321879" lon="11.5431052"><ele>302.0</ele><time>2026-05-02T14:20:23.7Z</time></trkpt><trkpt lat="43.132137" lon="11.5429805"><ele>302.4</ele><time>2026-05-02T14:20:24.693Z</time></trkpt><trkpt lat="43.1320829" lon="11.5428624"><ele>302.79999999999995</ele><time>2026-05-02T14:20:25.709Z</time></trkpt><trkpt lat="43.1320316" lon="11.542752"><ele>303.2</ele><time>2026-05-02T14:20:26.707Z</time></trkpt><trkpt lat="43.1319813" lon="11.5426286"><ele>303.59999999999997</ele><time>2026-05-02T14:20:27.699Z</time></trkpt><trkpt lat="43.1319332" lon="11.5424973"><ele>304.0</ele><time>2026-05-02T14:20:28.7Z</time></trkpt><trkpt lat="43.1318839" lon="11.5423578"><ele>304.0</ele><time>2026-05-02T14:20:29.697Z</time></trkpt><trkpt lat="43.1318401" lon="11.5422064"><ele>304.0</ele><time>2026-05-02T14:20:30.695Z</time></trkpt><trkpt lat="43.1318168" lon="11.5420546"><ele>304.0</ele><time>2026-05-02T14:20:31.689Z</time></trkpt><trkpt lat="43.1318117" lon="11.5418812"><ele>304.0</ele><time>2026-05-02T14:20:32.692Z</time></trkpt><trkpt lat="43.1318308" lon="11.5417131"><ele>304.25</ele><time>2026-05-02T14:20:33.707Z</time></trkpt><trkpt lat="43.131859" lon="11.5415503"><ele>304.5</ele><time>2026-05-02T14:20:34.7Z</time></trkpt><trkpt lat="43.131891" lon="11.5413861"><ele>304.75</ele><time>2026-05-02T14:20:35.701Z</time></trkpt><trkpt lat="43.1319175" lon="11.5412207"><ele>305.0</ele><time>2026-05-02T14:20:36.695Z</time></trkpt><trkpt lat="43.1319351" lon="11.5410567"><ele>305.25</ele><time>2026-05-02T14:20:37.701Z</time></trkpt><trkpt lat="43.1319541" lon="11.5408955"><ele>305.5</ele><time>2026-05-02T14:20:38.678Z</time></trkpt><trkpt lat="43.1319788" lon="11.5407264"><ele>305.75</ele><time>2026-05-02T14:20:39.711Z</time></trkpt><trkpt lat="43.1320124" lon="11.5405603"><ele>306.0</ele><time>2026-05-02T14:20:40.689Z</time></trkpt><trkpt lat="43.1320553" lon="11.5403938"><ele>306.0</ele><time>2026-05-02T14:20:41.692Z</time></trkpt><trkpt lat="43.132101" lon="11.5402244"><ele>306.0</ele><time>2026-05-02T14:20:42.7Z</time></trkpt><trkpt lat="43.1321431" lon="11.5400426"><ele>306.0</ele><time>2026-05-02T14:20:43.7Z</time></trkpt><trkpt lat="43.1321738" lon="11.5398678"><ele>306.0</ele><time>2026-05-02T14:20:44.701Z</time></trkpt><trkpt lat="43.1321824" lon="11.5396936"><ele>304.75</ele><time>2026-05-02T14:20:45.696Z</time></trkpt><trkpt lat="43.1321868" lon="11.5394916"><ele>303.5</ele><time>2026-05-02T14:20:46.696Z</time></trkpt><trkpt lat="43.1321866" lon="11.5392938"><ele>302.25</ele><time>2026-05-02T14:20:47.696Z</time></trkpt><trkpt lat="43.1321924" lon="11.5390917"><ele>301.0</ele><time>2026-05-02T14:20:48.694Z</time></trkpt><trkpt lat="43.1322069" lon="11.5389079"><ele>301.0</ele><time>2026-05-02T14:20:49.701Z</time></trkpt><trkpt lat="43.1322273" lon="11.5387363"><ele>301.0</ele><time>2026-05-02T14:20:50.699Z</time></trkpt><trkpt lat="43.1322511" lon="11.5385544"><ele>301.0</ele><time>2026-05-02T14:20:51.698Z</time></trkpt><trkpt lat="43.1322859" lon="11.5383681"><ele>301.0</ele><time>2026-05-02T14:20:52.693Z</time></trkpt><trkpt lat="43.132333" lon="11.5381818"><ele>295.66666666666663</ele><time>2026-05-02T14:20:53.71Z</time></trkpt><trkpt lat="43.1323948" lon="11.5379804"><ele>290.3333333333333</ele><time>2026-05-02T14:20:54.693Z</time></trkpt><trkpt lat="43.1324598" lon="11.5377692"><ele>285.0</ele><time>2026-05-02T14:20:55.704Z</time></trkpt><trkpt lat="43.1325233" lon="11.5375722"><ele>284.5</ele><time>2026-05-02T14:20:56.702Z</time></trkpt><trkpt lat="43.1325876" lon="11.5373971"><ele>284.0</ele><time>2026-05-02T14:20:57.705Z</time></trkpt><trkpt lat="43.1326605" lon="11.5372318"><ele>283.5</ele><time>2026-05-02T14:20:58.687Z</time></trkpt><trkpt lat="43.1327406" lon="11.5370824"><ele>283.0</ele><time>2026-05-02T14:20:59.706Z</time></trkpt><trkpt lat="43.1328335" lon="11.5369427"><ele>281.25</ele><time>2026-05-02T14:21:00.691Z</time></trkpt><trkpt lat="43.1329294" lon="11.5368063"><ele>279.5</ele><time>2026-05-02T14:21:01.692Z</time></trkpt><trkpt lat="43.1330283" lon="11.5366711"><ele>277.75</ele><time>2026-05-02T14:21:02.691Z</time></trkpt><trkpt lat="43.1331327" lon="11.5365356"><ele>276.0</ele><time>2026-05-02T14:21:03.708Z</time></trkpt><trkpt lat="43.1332354" lon="11.5363876"><ele>276.0</ele><time>2026-05-02T14:21:04.695Z</time></trkpt><trkpt lat="43.1333365" lon="11.5362359"><ele>276.0</ele><time>2026-05-02T14:21:05.698Z</time></trkpt><trkpt lat="43.133431" lon="11.5360759"><ele>276.0</ele><time>2026-05-02T14:21:06.685Z</time></trkpt><trkpt lat="43.1335176" lon="11.5359061"><ele>275.0</ele><time>2026-05-02T14:21:07.708Z</time></trkpt><trkpt lat="43.1335993" lon="11.5357308"><ele>274.0</ele><time>2026-05-02T14:21:08.687Z</time></trkpt><trkpt lat="43.1336787" lon="11.5355478"><ele>273.0</ele><time>2026-05-02T14:21:09.701Z</time></trkpt><trkpt lat="43.1337609" lon="11.5353638"><ele>270.0</ele><time>2026-05-02T14:21:10.701Z</time></trkpt><trkpt lat="43.1338401" lon="11.5351767"><ele>267.0</ele><time>2026-05-02T14:21:11.701Z</time></trkpt><trkpt lat="43.1339206" lon="11.5349942"><ele>264.0</ele><time>2026-05-02T14:21:12.707Z</time></trkpt><trkpt lat="43.1340001" lon="11.5348221"><ele>265.3333333333333</ele><time>2026-05-02T14:21:13.687Z</time></trkpt><trkpt lat="43.1340766" lon="11.534647"><ele>266.66666666666663</ele><time>2026-05-02T14:21:14.699Z</time></trkpt><trkpt lat="43.1341543" lon="11.5344686"><ele>268.0</ele><time>2026-05-02T14:21:15.706Z</time></trkpt><trkpt lat="43.1342321" lon="11.5342893"><ele>268.0</ele><time>2026-05-02T14:21:16.701Z</time></trkpt><trkpt lat="43.1343065" lon="11.5341027"><ele>268.0</ele><time>2026-05-02T14:21:17.696Z</time></trkpt><trkpt lat="43.1343801" lon="11.533901"><ele>268.0</ele><time>2026-05-02T14:21:18.7Z</time></trkpt><trkpt lat="43.1344513" lon="11.5337008"><ele>266.66666666666663</ele><time>2026-05-02T14:21:19.705Z</time></trkpt><trkpt lat="43.1345181" lon="11.5334913"><ele>265.3333333333333</ele><time>2026-05-02T14:21:20.704Z</time></trkpt><trkpt lat="43.1345826" lon="11.5332817"><ele>264.0</ele><time>2026-05-02T14:21:21.7Z</time></trkpt><trkpt lat="43.134646" lon="11.5330667"><ele>263.6666666666667</ele><time>2026-05-02T14:21:22.709Z</time></trkpt><trkpt lat="43.1347078" lon="11.5328477"><ele>263.33333333333337</ele><time>2026-05-02T14:21:23.701Z</time></trkpt><trkpt lat="43.1347668" lon="11.5326319"><ele>263.0</ele><time>2026-05-02T14:21:24.693Z</time></trkpt><trkpt lat="43.1348186" lon="11.5324212"><ele>263.0</ele><time>2026-05-02T14:21:25.693Z</time></trkpt><trkpt lat="43.1348618" lon="11.5322051"><ele>263.0</ele><time>2026-05-02T14:21:26.702Z</time></trkpt><trkpt lat="43.1349086" lon="11.5319845"><ele>263.0</ele><time>2026-05-02T14:21:27.696Z</time></trkpt><trkpt lat="43.134951" lon="11.5317601"><ele>265.0</ele><time>2026-05-02T14:21:28.711Z</time></trkpt><trkpt lat="43.1349879" lon="11.5315532"><ele>267.0</ele><time>2026-05-02T14:21:29.706Z</time></trkpt><trkpt lat="43.1350164" lon="11.5313662"><ele>269.0</ele><time>2026-05-02T14:21:30.707Z</time></trkpt><trkpt lat="43.1350337" lon="11.5311766"><ele>271.0</ele><time>2026-05-02T14:21:31.703Z</time></trkpt><trkpt lat="43.1350426" lon="11.5309909"><ele>272.0</ele><time>2026-05-02T14:21:32.707Z</time></trkpt><trkpt lat="43.1350527" lon="11.5308188"><ele>273.0</ele><time>2026-05-02T14:21:33.71Z</time></trkpt><trkpt lat="43.1350483" lon="11.5306566"><ele>274.0</ele><time>2026-05-02T14:21:34.686Z</time></trkpt><trkpt lat="43.1350121" lon="11.5304975"><ele>275.0</ele><time>2026-05-02T14:21:35.701Z</time></trkpt><trkpt lat="43.1349602" lon="11.5303292"><ele>275.0</ele><time>2026-05-02T14:21:36.7Z</time></trkpt><trkpt lat="43.1348981" lon="11.5301393"><ele>275.0</ele><time>2026-05-02T14:21:37.687Z</time></trkpt><trkpt lat="43.134838" lon="11.5299404"><ele>275.0</ele><time>2026-05-02T14:21:38.685Z</time></trkpt><trkpt lat="43.1347738" lon="11.5297495"><ele>271.75</ele><time>2026-05-02T14:21:39.697Z</time></trkpt><trkpt lat="43.1347147" lon="11.5295785"><ele>268.5</ele><time>2026-05-02T14:21:40.706Z</time></trkpt><trkpt lat="43.1346583" lon="11.5294161"><ele>265.25</ele><time>2026-05-02T14:21:41.692Z</time></trkpt><trkpt lat="43.134606" lon="11.5292568"><ele>262.0</ele><time>2026-05-02T14:21:42.694Z</time></trkpt><trkpt lat="43.1345536" lon="11.5291063"><ele>262.0</ele><time>2026-05-02T14:21:43.692Z</time></trkpt><trkpt lat="43.1344972" lon="11.5289593"><ele>262.0</ele><time>2026-05-02T14:21:44.699Z</time></trkpt><trkpt lat="43.1344492" lon="11.5288155"><ele>262.0</ele><time>2026-05-02T14:21:45.693Z</time></trkpt><trkpt lat="43.1344095" lon="11.5286748"><ele>262.0</ele><time>2026-05-02T14:21:46.701Z</time></trkpt><trkpt lat="43.1343779" lon="11.5285283"><ele>262.2</ele><time>2026-05-02T14:21:47.697Z</time></trkpt><trkpt lat="43.1343648" lon="11.5283846"><ele>262.4</ele><time>2026-05-02T14:21:48.689Z</time></trkpt><trkpt lat="43.1343638" lon="11.528239"><ele>262.6</ele><time>2026-05-02T14:21:49.714Z</time></trkpt><trkpt lat="43.1343734" lon="11.5281017"><ele>262.8</ele><time>2026-05-02T14:21:50.702Z</time></trkpt><trkpt lat="43.134386" lon="11.5279644"><ele>263.0</ele><time>2026-05-02T14:21:51.69Z</time></trkpt><trkpt lat="43.1343944" lon="11.5278183"><ele>262.4</ele><time>2026-05-02T14:21:52.704Z</time></trkpt><trkpt lat="43.1344021" lon="11.5276851"><ele>261.8</ele><time>2026-05-02T14:21:53.702Z</time></trkpt><trkpt lat="43.1344117" lon="11.5275617"><ele>261.2</ele><time>2026-05-02T14:21:54.699Z</time></trkpt><trkpt lat="43.13442" lon="11.527439"><ele>260.6</ele><time>2026-05-02T14:21:55.702Z</time></trkpt><trkpt lat="43.1344311" lon="11.5273053"><ele>260.0</ele><time>2026-05-02T14:21:56.7Z</time></trkpt><trkpt lat="43.1344407" lon="11.5271694"><ele>258.8</ele><time>2026-05-02T14:21:57.699Z</time></trkpt><trkpt lat="43.1344488" lon="11.5270237"><ele>257.6</ele><time>2026-05-02T14:21:58.703Z</time></trkpt><trkpt lat="43.1344605" lon="11.5268729"><ele>256.4</ele><time>2026-05-02T14:21:59.697Z</time></trkpt><trkpt lat="43.1344763" lon="11.5267202"><ele>255.2</ele><time>2026-05-02T14:22:00.695Z</time></trkpt><trkpt lat="43.1344936" lon="11.5265589"><ele>254.0</ele><time>2026-05-02T14:22:01.699Z</time></trkpt><trkpt lat="43.1345076" lon="11.526405"><ele>254.0</ele><time>2026-05-02T14:22:02.708Z</time></trkpt><trkpt lat="43.1345182" lon="11.5262535"><ele>253.99999999999997</ele><time>2026-05-02T14:22:03.691Z</time></trkpt><trkpt lat="43.1345353" lon="11.5261168"><ele>253.99999999999997</ele><time>2026-05-02T14:22:04.703Z</time></trkpt><trkpt lat="43.1345582" lon="11.5259866"><ele>254.0</ele><time>2026-05-02T14:22:05.701Z</time></trkpt><trkpt lat="43.1345929" lon="11.5258643"><ele>254.0</ele><time>2026-05-02T14:22:06.693Z</time></trkpt><trkpt lat="43.1346287" lon="11.5257556"><ele>253.2</ele><time>2026-05-02T14:22:07.688Z</time></trkpt><trkpt lat="43.1346717" lon="11.5256554"><ele>252.39999999999998</ele><time>2026-05-02T14:22:08.695Z</time></trkpt><trkpt lat="43.134713" lon="11.5255545"><ele>251.6</ele><time>2026-05-02T14:22:09.703Z</time></trkpt><trkpt lat="43.1347591" lon="11.5254464"><ele>250.8</ele><time>2026-05-02T14:22:10.715Z</time></trkpt><trkpt lat="43.1348028" lon="11.5253252"><ele>250.0</ele><time>2026-05-02T14:22:11.707Z</time></trkpt><trkpt lat="43.1348495" lon="11.5251952"><ele>250.5</ele><time>2026-05-02T14:22:12.697Z</time></trkpt><trkpt lat="43.1348991" lon="11.5250439"><ele>251.0</ele><time>2026-05-02T14:22:13.702Z</time></trkpt><trkpt lat="43.1349435" lon="11.5248741"><ele>251.5</ele><time>2026-05-02T14:22:14.709Z</time></trkpt><trkpt lat="43.1349891" lon="11.5246968"><ele>252.0</ele><time>2026-05-02T14:22:15.69Z</time></trkpt><trkpt lat="43.1350285" lon="11.5245236"><ele>252.0</ele><time>2026-05-02T14:22:16.701Z</time></trkpt><trkpt lat="43.1350529" lon="11.5243626"><ele>252.0</ele><time>2026-05-02T14:22:17.7Z</time></trkpt><trkpt lat="43.1350558" lon="11.5241971"><ele>252.0</ele><time>2026-05-02T14:22:18.696Z</time></trkpt><trkpt lat="43.1350522" lon="11.5240203"><ele>252.0</ele><time>2026-05-02T14:22:19.694Z</time></trkpt><trkpt lat="43.1350444" lon="11.5238373"><ele>250.75</ele><time>2026-05-02T14:22:20.697Z</time></trkpt><trkpt lat="43.1350359" lon="11.5236421"><ele>249.5</ele><time>2026-05-02T14:22:21.693Z</time></trkpt><trkpt lat="43.1350241" lon="11.5234353"><ele>248.25</ele><time>2026-05-02T14:22:22.701Z</time></trkpt><trkpt lat="43.1350141" lon="11.5232267"><ele>247.0</ele><time>2026-05-02T14:22:23.696Z</time></trkpt><trkpt lat="43.1350019" lon="11.5230102"><ele>245.0</ele><time>2026-05-02T14:22:24.707Z</time></trkpt><trkpt lat="43.1349893" lon="11.5227807"><ele>243.0</ele><time>2026-05-02T14:22:25.704Z</time></trkpt><trkpt lat="43.1349776" lon="11.5225492"><ele>241.0</ele><time>2026-05-02T14:22:26.698Z</time></trkpt><trkpt lat="43.1349768" lon="11.5223069"><ele>239.66666666666666</ele><time>2026-05-02T14:22:27.701Z</time></trkpt><trkpt lat="43.1349859" lon="11.5220534"><ele>238.33333333333331</ele><time>2026-05-02T14:22:28.702Z</time></trkpt><trkpt lat="43.1349964" lon="11.5217986"><ele>237.0</ele><time>2026-05-02T14:22:29.701Z</time></trkpt><trkpt lat="43.1350079" lon="11.5215618"><ele>237.0</ele><time>2026-05-02T14:22:30.703Z</time></trkpt><trkpt lat="43.135013" lon="11.521329"><ele>237.0</ele><time>2026-05-02T14:22:31.694Z</time></trkpt><trkpt lat="43.1350111" lon="11.5211164"><ele>237.0</ele><time>2026-05-02T14:22:32.702Z</time></trkpt><trkpt lat="43.1350044" lon="11.5209107"><ele>236.66666666666669</ele><time>2026-05-02T14:22:33.705Z</time></trkpt><trkpt lat="43.1349923" lon="11.5207078"><ele>236.33333333333334</ele><time>2026-05-02T14:22:34.698Z</time></trkpt><trkpt lat="43.134966" lon="11.5205054"><ele>236.0</ele><time>2026-05-02T14:22:35.7Z</time></trkpt><trkpt lat="43.1349312" lon="11.5202965"><ele>238.0</ele><time>2026-05-02T14:22:36.701Z</time></trkpt><trkpt lat="43.1348906" lon="11.520086"><ele>240.0</ele><time>2026-05-02T14:22:37.698Z</time></trkpt><trkpt lat="43.1348465" lon="11.5198758"><ele>242.0</ele><time>2026-05-02T14:22:38.696Z</time></trkpt><trkpt lat="43.1347995" lon="11.5196766"><ele>238.0</ele><time>2026-05-02T14:22:39.698Z</time></trkpt><trkpt lat="43.1347476" lon="11.5194803"><ele>234.0</ele><time>2026-05-02T14:22:40.706Z</time></trkpt><trkpt lat="43.1347048" lon="11.51928"><ele>230.0</ele><time>2026-05-02T14:22:41.701Z</time></trkpt><trkpt lat="43.1346782" lon="11.519084"><ele>230.0</ele><time>2026-05-02T14:22:42.699Z</time></trkpt><trkpt lat="43.1346573" lon="11.5188656"><ele>230.0</ele><time>2026-05-02T14:22:43.705Z</time></trkpt><trkpt lat="43.1346494" lon="11.5186492"><ele>230.0</ele><time>2026-05-02T14:22:44.692Z</time></trkpt><trkpt lat="43.1346492" lon="11.5184346"><ele>233.25</ele><time>2026-05-02T14:22:45.71Z</time></trkpt><trkpt lat="43.1346602" lon="11.5182289"><ele>236.5</ele><time>2026-05-02T14:22:46.705Z</time></trkpt><trkpt lat="43.1346836" lon="11.5180406"><ele>239.75</ele><time>2026-05-02T14:22:47.697Z</time></trkpt><trkpt lat="43.1347197" lon="11.517871"><ele>243.0</ele><time>2026-05-02T14:22:48.687Z</time></trkpt><trkpt lat="43.1347717" lon="11.5177281"><ele>244.25</ele><time>2026-05-02T14:22:49.697Z</time></trkpt><trkpt lat="43.1348479" lon="11.5175935"><ele>245.5</ele><time>2026-05-02T14:22:50.701Z</time></trkpt><trkpt lat="43.1349354" lon="11.5174607"><ele>246.75</ele><time>2026-05-02T14:22:51.7Z</time></trkpt><trkpt lat="43.1350296" lon="11.5173202"><ele>248.0</ele><time>2026-05-02T14:22:52.698Z</time></trkpt><trkpt lat="43.1351282" lon="11.5171614"><ele>245.33333333333334</ele><time>2026-05-02T14:22:53.699Z</time></trkpt><trkpt lat="43.1352276" lon="11.5169901"><ele>242.66666666666669</ele><time>2026-05-02T14:22:54.695Z</time></trkpt><trkpt lat="43.1353283" lon="11.516822"><ele>240.0</ele><time>2026-05-02T14:22:55.7Z</time></trkpt><trkpt lat="43.1354272" lon="11.5166416"><ele>240.0</ele><time>2026-05-02T14:22:56.696Z</time></trkpt><trkpt lat="43.1355283" lon="11.5164583"><ele>240.0</ele><time>2026-05-02T14:22:57.696Z</time></trkpt><trkpt lat="43.1356316" lon="11.516288"><ele>240.0</ele><time>2026-05-02T14:22:58.691Z</time></trkpt><trkpt lat="43.1357373" lon="11.5161362"><ele>237.25</ele><time>2026-05-02T14:22:59.691Z</time></trkpt><trkpt lat="43.1358481" lon="11.5160076"><ele>234.5</ele><time>2026-05-02T14:23:00.699Z</time></trkpt><trkpt lat="43.1359553" lon="11.5159002"><ele>231.75</ele><time>2026-05-02T14:23:01.693Z</time></trkpt><trkpt lat="43.1360524" lon="11.5157996"><ele>229.0</ele><time>2026-05-02T14:23:02.693Z</time></trkpt><trkpt lat="43.1361391" lon="11.5156913"><ele>229.0</ele><time>2026-05-02T14:23:03.701Z</time></trkpt><trkpt lat="43.1362133" lon="11.5155522"><ele>229.0</ele><time>2026-05-02T14:23:04.691Z</time></trkpt><trkpt lat="43.1362721" lon="11.5154044"><ele>229.0</ele><time>2026-05-02T14:23:05.706Z</time></trkpt><trkpt lat="43.1363033" lon="11.5152506"><ele>229.0</ele><time>2026-05-02T14:23:06.693Z</time></trkpt><trkpt lat="43.1363174" lon="11.5150826"><ele>229.0</ele><time>2026-05-02T14:23:07.69Z</time></trkpt><trkpt lat="43.1363197" lon="11.5149111"><ele>229.0</ele><time>2026-05-02T14:23:08.692Z</time></trkpt><trkpt lat="43.136306" lon="11.5147391"><ele>229.0</ele><time>2026-05-02T14:23:09.702Z</time></trkpt><trkpt lat="43.1362726" lon="11.5145718"><ele>229.0</ele><time>2026-05-02T14:23:10.698Z</time></trkpt><trkpt lat="43.136222" lon="11.5144018"><ele>229.0</ele><time>2026-05-02T14:23:11.701Z</time></trkpt><trkpt lat="43.1361531" lon="11.5142452"><ele>229.0</ele><time>2026-05-02T14:23:12.69Z</time></trkpt><trkpt lat="43.1360685" lon="11.514096"><ele>229.0</ele><time>2026-05-02T14:23:13.705Z</time></trkpt><trkpt lat="43.1359876" lon="11.513939"><ele>229.0</ele><time>2026-05-02T14:23:14.696Z</time></trkpt><trkpt lat="43.1359083" lon="11.5137752"><ele>227.25</ele><time>2026-05-02T14:23:15.702Z</time></trkpt><trkpt lat="43.135831" lon="11.5136106"><ele>225.5</ele><time>2026-05-02T14:23:16.696Z</time></trkpt><trkpt lat="43.1357505" lon="11.5134399"><ele>223.75</ele><time>2026-05-02T14:23:17.683Z</time></trkpt><trkpt lat="43.135673" lon="11.5132571"><ele>222.0</ele><time>2026-05-02T14:23:18.698Z</time></trkpt><trkpt lat="43.1356036" lon="11.5130569"><ele>223.66666666666669</ele><time>2026-05-02T14:23:19.705Z</time></trkpt><trkpt lat="43.1355378" lon="11.5128446"><ele>225.33333333333334</ele><time>2026-05-02T14:23:20.693Z</time></trkpt><trkpt lat="43.1354727" lon="11.5126278"><ele>227.0</ele><time>2026-05-02T14:23:21.702Z</time></trkpt><trkpt lat="43.1353972" lon="11.512416"><ele>227.0</ele><time>2026-05-02T14:23:22.694Z</time></trkpt><trkpt lat="43.1353112" lon="11.5122168"><ele>227.0</ele><time>2026-05-02T14:23:23.682Z</time></trkpt><trkpt lat="43.1351984" lon="11.5120206"><ele>227.0</ele><time>2026-05-02T14:23:24.697Z</time></trkpt><trkpt lat="43.1350714" lon="11.5118257"><ele>228.33333333333334</ele><time>2026-05-02T14:23:25.69Z</time></trkpt><trkpt lat="43.1349554" lon="11.5116118"><ele>229.66666666666669</ele><time>2026-05-02T14:23:26.689Z</time></trkpt><trkpt lat="43.1348556" lon="11.51141"><ele>231.0</ele><time>2026-05-02T14:23:27.696Z</time></trkpt><trkpt lat="43.1347719" lon="11.5112289"><ele>233.0</ele><time>2026-05-02T14:23:28.695Z</time></trkpt><trkpt lat="43.1346999" lon="11.511067"><ele>235.0</ele><time>2026-05-02T14:23:29.682Z</time></trkpt><trkpt lat="43.1346349" lon="11.5109095"><ele>237.0</ele><time>2026-05-02T14:23:30.704Z</time></trkpt><trkpt lat="43.1345614" lon="11.510739"><ele>239.0</ele><time>2026-05-02T14:23:31.698Z</time></trkpt><trkpt lat="43.1344766" lon="11.5105621"><ele>237.0</ele><time>2026-05-02T14:23:32.686Z</time></trkpt><trkpt lat="43.1343935" lon="11.5103847"><ele>235.0</ele><time>2026-05-02T14:23:33.699Z</time></trkpt><trkpt lat="43.1343057" lon="11.5102027"><ele>233.0</ele><time>2026-05-02T14:23:34.694Z</time></trkpt><trkpt lat="43.1342252" lon="11.5100169"><ele>233.0</ele><time>2026-05-02T14:23:35.717Z</time></trkpt><trkpt lat="43.1341491" lon="11.5098382"><ele>233.0</ele><time>2026-05-02T14:23:36.691Z</time></trkpt><trkpt lat="43.1340746" lon="11.5096766"><ele>233.0</ele><time>2026-05-02T14:23:37.704Z</time></trkpt><trkpt lat="43.1340008" lon="11.5095202"><ele>233.0</ele><time>2026-05-02T14:23:38.694Z</time></trkpt><trkpt lat="43.1339328" lon="11.5093645"><ele>231.25</ele><time>2026-05-02T14:23:39.694Z</time></trkpt><trkpt lat="43.1338758" lon="11.5092058"><ele>229.5</ele><time>2026-05-02T14:23:40.696Z</time></trkpt><trkpt lat="43.1338174" lon="11.5090232"><ele>227.75</ele><time>2026-05-02T14:23:41.684Z</time></trkpt><trkpt lat="43.1337665" lon="11.5088322"><ele>226.0</ele><time>2026-05-02T14:23:42.704Z</time></trkpt><trkpt lat="43.1337174" lon="11.5086355"><ele>224.0</ele><time>2026-05-02T14:23:43.702Z</time></trkpt><trkpt lat="43.1336704" lon="11.5084363"><ele>222.0</ele><time>2026-05-02T14:23:44.693Z</time></trkpt><trkpt lat="43.133625" lon="11.5082412"><ele>220.0</ele><time>2026-05-02T14:23:45.709Z</time></trkpt><trkpt lat="43.133588" lon="11.5080427"><ele>218.5</ele><time>2026-05-02T14:23:46.699Z</time></trkpt><trkpt lat="43.1335621" lon="11.5078582"><ele>217.0</ele><time>2026-05-02T14:23:47.692Z</time></trkpt><trkpt lat="43.1335485" lon="11.5076484"><ele>215.5</ele><time>2026-05-02T14:23:48.693Z</time></trkpt><trkpt lat="43.1335536" lon="11.5074372"><ele>214.0</ele><time>2026-05-02T14:23:49.693Z</time></trkpt><trkpt lat="43.1335722" lon="11.5072217"><ele>213.33333333333331</ele><time>2026-05-02T14:23:50.687Z</time></trkpt><trkpt lat="43.1335993" lon="11.5070016"><ele>212.66666666666669</ele><time>2026-05-02T14:23:51.692Z</time></trkpt><trkpt lat="43.1336281" lon="11.5067778"><ele>212.0</ele><time>2026-05-02T14:23:52.694Z</time></trkpt><trkpt lat="43.1336555" lon="11.5065511"><ele>212.0</ele><time>2026-05-02T14:23:53.686Z</time></trkpt><trkpt lat="43.1336911" lon="11.5063178"><ele>212.0</ele><time>2026-05-02T14:23:54.7Z</time></trkpt><trkpt lat="43.1337229" lon="11.5060872"><ele>212.0</ele><time>2026-05-02T14:23:55.701Z</time></trkpt><trkpt lat="43.1337553" lon="11.5058501"><ele>211.66666666666669</ele><time>2026-05-02T14:23:56.693Z</time></trkpt><trkpt lat="43.1337808" lon="11.505624"><ele>211.33333333333331</ele><time>2026-05-02T14:23:57.699Z</time></trkpt><trkpt lat="43.1338058" lon="11.5054032"><ele>211.0</ele><time>2026-05-02T14:23:58.7Z</time></trkpt><trkpt lat="43.1338366" lon="11.5051858"><ele>211.0</ele><time>2026-05-02T14:23:59.705Z</time></trkpt><trkpt lat="43.1338628" lon="11.5049804"><ele>211.0</ele><time>2026-05-02T14:24:00.702Z</time></trkpt><trkpt lat="43.1338848" lon="11.504783"><ele>211.0</ele><time>2026-05-02T14:24:01.696Z</time></trkpt><trkpt lat="43.133908" lon="11.5045969"><ele>211.0</ele><time>2026-05-02T14:24:02.7Z</time></trkpt><trkpt lat="43.1339339" lon="11.5044114"><ele>211.5</ele><time>2026-05-02T14:24:03.694Z</time></trkpt><trkpt lat="43.1339534" lon="11.5042393"><ele>212.0</ele><time>2026-05-02T14:24:04.701Z</time></trkpt><trkpt lat="43.1339761" lon="11.504066"><ele>212.5</ele><time>2026-05-02T14:24:05.702Z</time></trkpt><trkpt lat="43.1340055" lon="11.5038963"><ele>213.0</ele><time>2026-05-02T14:24:06.698Z</time></trkpt><trkpt lat="43.1340353" lon="11.5037204"><ele>212.0</ele><time>2026-05-02T14:24:07.693Z</time></trkpt><trkpt lat="43.13407" lon="11.5035414"><ele>211.0</ele><time>2026-05-02T14:24:08.699Z</time></trkpt><trkpt lat="43.1341082" lon="11.5033639"><ele>210.0</ele><time>2026-05-02T14:24:09.692Z</time></trkpt><trkpt lat="43.1341418" lon="11.5031901"><ele>209.0</ele><time>2026-05-02T14:24:10.693Z</time></trkpt><trkpt lat="43.1341765" lon="11.5030196"><ele>207.25</ele><time>2026-05-02T14:24:11.695Z</time></trkpt><trkpt lat="43.1342099" lon="11.5028483"><ele>205.5</ele><time>2026-05-02T14:24:12.698Z</time></trkpt><trkpt lat="43.1342443" lon="11.5026787"><ele>203.75</ele><time>2026-05-02T14:24:13.695Z</time></trkpt><trkpt lat="43.1342767" lon="11.502507"><ele>202.0</ele><time>2026-05-02T14:24:14.697Z</time></trkpt><trkpt lat="43.1343158" lon="11.5023221"><ele>202.0</ele><time>2026-05-02T14:24:15.692Z</time></trkpt><trkpt lat="43.1343531" lon="11.5021356"><ele>202.0</ele><time>2026-05-02T14:24:16.7Z</time></trkpt><trkpt lat="43.1343918" lon="11.5019455"><ele>202.0</ele><time>2026-05-02T14:24:17.694Z</time></trkpt><trkpt lat="43.1344282" lon="11.5017549"><ele>202.0</ele><time>2026-05-02T14:24:18.705Z</time></trkpt><trkpt lat="43.1344621" lon="11.501577"><ele>200.0</ele><time>2026-05-02T14:24:19.714Z</time></trkpt><trkpt lat="43.1344955" lon="11.5014037"><ele>198.0</ele><time>2026-05-02T14:24:20.698Z</time></trkpt><trkpt lat="43.1345287" lon="11.5012289"><ele>196.0</ele><time>2026-05-02T14:24:21.697Z</time></trkpt><trkpt lat="43.1345619" lon="11.5010626"><ele>194.0</ele><time>2026-05-02T14:24:22.706Z</time></trkpt><trkpt lat="43.1345936" lon="11.5008854"><ele>191.75</ele><time>2026-05-02T14:24:23.694Z</time></trkpt><trkpt lat="43.1346268" lon="11.5006999"><ele>189.5</ele><time>2026-05-02T14:24:24.702Z</time></trkpt><trkpt lat="43.1346668" lon="11.500509"><ele>187.25</ele><time>2026-05-02T14:24:25.7Z</time></trkpt><trkpt lat="43.1347066" lon="11.5003085"><ele>185.0</ele><time>2026-05-02T14:24:26.7Z</time></trkpt><trkpt lat="43.1347492" lon="11.5001025"><ele>182.0</ele><time>2026-05-02T14:24:27.689Z</time></trkpt><trkpt lat="43.1348017" lon="11.4998977"><ele>179.0</ele><time>2026-05-02T14:24:28.703Z</time></trkpt><trkpt lat="43.1348579" lon="11.499682"><ele>176.0</ele><time>2026-05-02T14:24:29.691Z</time></trkpt><trkpt lat="43.1349143" lon="11.499464"><ele>173.66666666666666</ele><time>2026-05-02T14:24:30.698Z</time></trkpt><trkpt lat="43.1349765" lon="11.4992361"><ele>171.33333333333334</ele><time>2026-05-02T14:24:31.697Z</time></trkpt><trkpt lat="43.1350446" lon="11.4990026"><ele>169.0</ele><time>2026-05-02T14:24:32.696Z</time></trkpt><trkpt lat="43.135113" lon="11.4987655"><ele>166.66666666666669</ele><time>2026-05-02T14:24:33.694Z</time></trkpt><trkpt lat="43.1351849" lon="11.4985299"><ele>164.33333333333334</ele><time>2026-05-02T14:24:34.695Z</time></trkpt><trkpt lat="43.1352578" lon="11.4982921"><ele>162.0</ele><time>2026-05-02T14:24:35.7Z</time></trkpt><trkpt lat="43.1353316" lon="11.4980593"><ele>161.66666666666666</ele><time>2026-05-02T14:24:36.695Z</time></trkpt><trkpt lat="43.1354112" lon="11.4978171"><ele>161.33333333333331</ele><time>2026-05-02T14:24:37.71Z</time></trkpt><trkpt lat="43.1354897" lon="11.4975741"><ele>161.0</ele><time>2026-05-02T14:24:38.705Z</time></trkpt><trkpt lat="43.1355827" lon="11.497353"><ele>161.0</ele><time>2026-05-02T14:24:39.696Z</time></trkpt><trkpt lat="43.1356835" lon="11.4971369"><ele>161.0</ele><time>2026-05-02T14:24:40.698Z</time></trkpt><trkpt lat="43.1357942" lon="11.4969439"><ele>161.0</ele><time>2026-05-02T14:24:41.708Z</time></trkpt><trkpt lat="43.1359128" lon="11.4967466"><ele>161.33333333333331</ele><time>2026-05-02T14:24:42.693Z</time></trkpt><trkpt lat="43.1360373" lon="11.4965521"><ele>161.66666666666666</ele><time>2026-05-02T14:24:43.699Z</time></trkpt><trkpt lat="43.1361565" lon="11.4963521"><ele>162.0</ele><time>2026-05-02T14:24:44.697Z</time></trkpt><trkpt lat="43.1362715" lon="11.4961447"><ele>162.33333333333334</ele><time>2026-05-02T14:24:45.696Z</time></trkpt><trkpt lat="43.1363805" lon="11.4959593"><ele>162.66666666666669</ele><time>2026-05-02T14:24:46.702Z</time></trkpt><trkpt lat="43.1364849" lon="11.4957785"><ele>163.0</ele><time>2026-05-02T14:24:47.701Z</time></trkpt><trkpt lat="43.1365916" lon="11.4956015"><ele>162.33333333333334</ele><time>2026-05-02T14:24:48.694Z</time></trkpt><trkpt lat="43.1366945" lon="11.4954282"><ele>161.66666666666666</ele><time>2026-05-02T14:24:49.704Z</time></trkpt><trkpt lat="43.1367927" lon="11.4952588"><ele>161.0</ele><time>2026-05-02T14:24:50.689Z</time></trkpt><trkpt lat="43.1368894" lon="11.4950954"><ele>163.0</ele><time>2026-05-02T14:24:51.695Z</time></trkpt><trkpt lat="43.1369929" lon="11.4949263"><ele>165.0</ele><time>2026-05-02T14:24:52.703Z</time></trkpt><trkpt lat="43.1370875" lon="11.4947598"><ele>167.0</ele><time>2026-05-02T14:24:53.714Z</time></trkpt><trkpt lat="43.1371742" lon="11.4945977"><ele>166.5</ele><time>2026-05-02T14:24:54.698Z</time></trkpt><trkpt lat="43.1372575" lon="11.49444"><ele>166.0</ele><time>2026-05-02T14:24:55.699Z</time></trkpt><trkpt lat="43.1373324" lon="11.4942836"><ele>165.5</ele><time>2026-05-02T14:24:56.691Z</time></trkpt><trkpt lat="43.1373902" lon="11.494115"><ele>165.0</ele><time>2026-05-02T14:24:57.7Z</time></trkpt><trkpt lat="43.1374249" lon="11.4939272"><ele>166.0</ele><time>2026-05-02T14:24:58.704Z</time></trkpt><trkpt lat="43.1374392" lon="11.4937364"><ele>167.0</ele><time>2026-05-02T14:24:59.73Z</time></trkpt><trkpt lat="43.1374592" lon="11.4935331"><ele>168.0</ele><time>2026-05-02T14:25:00.713Z</time></trkpt><trkpt lat="43.1374885" lon="11.4933223"><ele>169.0</ele><time>2026-05-02T14:25:01.702Z</time></trkpt><trkpt lat="43.1375179" lon="11.4931042"><ele>169.66666666666669</ele><time>2026-05-02T14:25:02.706Z</time></trkpt><trkpt lat="43.1375482" lon="11.4928827"><ele>170.33333333333334</ele><time>2026-05-02T14:25:03.703Z</time></trkpt><trkpt lat="43.1375768" lon="11.4926564"><ele>171.0</ele><time>2026-05-02T14:25:04.692Z</time></trkpt><trkpt lat="43.1376072" lon="11.4924424"><ele>171.0</ele><time>2026-05-02T14:25:05.7Z</time></trkpt><trkpt lat="43.1376329" lon="11.4922352"><ele>171.0</ele><time>2026-05-02T14:25:06.69Z</time></trkpt><trkpt lat="43.1376555" lon="11.4920358"><ele>171.0</ele><time>2026-05-02T14:25:07.701Z</time></trkpt><trkpt lat="43.1376808" lon="11.4918339"><ele>172.75</ele><time>2026-05-02T14:25:08.699Z</time></trkpt><trkpt lat="43.1377103" lon="11.4916353"><ele>174.5</ele><time>2026-05-02T14:25:09.707Z</time></trkpt><trkpt lat="43.1377377" lon="11.49143"><ele>176.25</ele><time>2026-05-02T14:25:10.7Z</time></trkpt><trkpt lat="43.1377572" lon="11.4912345"><ele>178.0</ele><time>2026-05-02T14:25:11.692Z</time></trkpt><trkpt lat="43.1377799" lon="11.4910439"><ele>177.75</ele><time>2026-05-02T14:25:12.701Z</time></trkpt><trkpt lat="43.1377931" lon="11.4908652"><ele>177.5</ele><time>2026-05-02T14:25:13.695Z</time></trkpt><trkpt lat="43.1378035" lon="11.4907017"><ele>177.25</ele><time>2026-05-02T14:25:14.694Z</time></trkpt><trkpt lat="43.1377988" lon="11.4905298"><ele>177.0</ele><time>2026-05-02T14:25:15.697Z</time></trkpt><trkpt lat="43.1377857" lon="11.490361"><ele>177.0</ele><time>2026-05-02T14:25:16.704Z</time></trkpt><trkpt lat="43.137765" lon="11.4901985"><ele>177.0</ele><time>2026-05-02T14:25:17.702Z</time></trkpt><trkpt lat="43.1377539" lon="11.4900279"><ele>177.0</ele><time>2026-05-02T14:25:18.697Z</time></trkpt><trkpt lat="43.1377442" lon="11.4898495"><ele>177.0</ele><time>2026-05-02T14:25:19.697Z</time></trkpt><trkpt lat="43.1377355" lon="11.4896635"><ele>174.0</ele><time>2026-05-02T14:25:20.702Z</time></trkpt><trkpt lat="43.1377269" lon="11.4894758"><ele>171.0</ele><time>2026-05-02T14:25:21.698Z</time></trkpt><trkpt lat="43.1377195" lon="11.4892892"><ele>168.0</ele><time>2026-05-02T14:25:22.692Z</time></trkpt><trkpt lat="43.1377159" lon="11.4891123"><ele>165.0</ele><time>2026-05-02T14:25:23.695Z</time></trkpt><trkpt lat="43.1377051" lon="11.4889533"><ele>165.0</ele><time>2026-05-02T14:25:24.697Z</time></trkpt><trkpt lat="43.1377011" lon="11.4888294"><ele>165.0</ele><time>2026-05-02T14:25:25.69Z</time></trkpt><trkpt lat="43.1377044" lon="11.4887361"><ele>165.0</ele><time>2026-05-02T14:25:26.691Z</time></trkpt><trkpt lat="43.1377015" lon="11.4886397"><ele>165.0</ele><time>2026-05-02T14:25:28.691Z</time></trkpt><trkpt lat="43.1377179" lon="11.4885536"><ele>165.0</ele><time>2026-05-02T14:25:34.689Z</time></trkpt><trkpt lat="43.1377022" lon="11.4884146"><ele>165.0</ele><time>2026-05-02T14:25:38.705Z</time></trkpt><trkpt lat="43.1376807" lon="11.4882533"><ele>163.33333333333334</ele><time>2026-05-02T14:25:40.694Z</time></trkpt><trkpt lat="43.137679" lon="11.4881478"><ele>161.66666666666666</ele><time>2026-05-02T14:25:41.685Z</time></trkpt><trkpt lat="43.1376783" lon="11.4880452"><ele>160.0</ele><time>2026-05-02T14:25:42.689Z</time></trkpt><trkpt lat="43.1376807" lon="11.4879435"><ele>158.33333333333331</ele><time>2026-05-02T14:25:43.695Z</time></trkpt><trkpt lat="43.1376796" lon="11.4878488"><ele>156.66666666666666</ele><time>2026-05-02T14:25:44.695Z</time></trkpt><trkpt lat="43.1376749" lon="11.487695"><ele>155.0</ele><time>2026-05-02T14:25:46.696Z</time></trkpt><trkpt lat="43.1376732" lon="11.4875494"><ele>154.33333333333331</ele><time>2026-05-02T14:25:48.692Z</time></trkpt><trkpt lat="43.1376882" lon="11.4874348"><ele>153.66666666666666</ele><time>2026-05-02T14:25:50.694Z</time></trkpt><trkpt lat="43.1377026" lon="11.4873223"><ele>153.0</ele><time>2026-05-02T14:25:52.703Z</time></trkpt><trkpt lat="43.1376981" lon="11.4872304"><ele>152.33333333333334</ele><time>2026-05-02T14:25:54.701Z</time></trkpt><trkpt lat="43.1376489" lon="11.4872959"><ele>151.66666666666669</ele><time>2026-05-02T14:25:59.697Z</time></trkpt><trkpt lat="43.1376411" lon="11.4874421"><ele>151.0</ele><time>2026-05-02T14:26:01.688Z</time></trkpt><trkpt lat="43.1376405" lon="11.4875424"><ele>151.0</ele><time>2026-05-02T14:26:02.7Z</time></trkpt><trkpt lat="43.1376481" lon="11.4876572"><ele>151.0</ele><time>2026-05-02T14:26:03.695Z</time></trkpt><trkpt lat="43.137653" lon="11.4877807"><ele>151.0</ele><time>2026-05-02T14:26:04.7Z</time></trkpt><trkpt lat="43.1376531" lon="11.4879031"><ele>151.0</ele><time>2026-05-02T14:26:05.685Z</time></trkpt><trkpt lat="43.1376515" lon="11.4880192"><ele>151.0</ele><time>2026-05-02T14:26:06.696Z</time></trkpt><trkpt lat="43.1376552" lon="11.4881354"><ele>151.0</ele><time>2026-05-02T14:26:07.69Z</time></trkpt><trkpt lat="43.137657" lon="11.4882511"><ele>151.8</ele><time>2026-05-02T14:26:08.708Z</time></trkpt><trkpt lat="43.1376747" lon="11.4883429"><ele>152.6</ele><time>2026-05-02T14:26:09.684Z</time></trkpt><trkpt lat="43.1377394" lon="11.4884428"><ele>153.4</ele><time>2026-05-02T14:26:11.693Z</time></trkpt><trkpt lat="43.137842" lon="11.4884759"><ele>154.2</ele><time>2026-05-02T14:26:13.681Z</time></trkpt><trkpt lat="43.137939" lon="11.4884817"><ele>155.0</ele><time>2026-05-02T14:26:15.693Z</time></trkpt><trkpt lat="43.1380227" lon="11.4884811"><ele>155.0</ele><time>2026-05-02T14:26:17.691Z</time></trkpt><trkpt lat="43.1381041" lon="11.488483"><ele>155.0</ele><time>2026-05-02T14:26:19.698Z</time></trkpt><trkpt lat="43.1382228" lon="11.4884926"><ele>155.0</ele><time>2026-05-02T14:26:21.691Z</time></trkpt><trkpt lat="43.1382934" lon="11.4884982"><ele>155.0</ele><time>2026-05-02T14:26:22.691Z</time></trkpt><trkpt lat="43.1383724" lon="11.4884987"><ele>155.0</ele><time>2026-05-02T14:26:23.686Z</time></trkpt><trkpt lat="43.1386955" lon="11.4884966"><ele>154.5</ele><time>2026-05-02T14:26:27.692Z</time></trkpt><trkpt lat="43.1389725" lon="11.4884573"><ele>154.0</ele><time>2026-05-02T14:26:32.694Z</time></trkpt><trkpt lat="43.1390192" lon="11.4883524"><ele>153.5</ele><time>2026-05-02T14:26:34.692Z</time></trkpt><trkpt lat="43.1389962" lon="11.4882717"><ele>153.0</ele><time>2026-05-02T14:26:35.698Z</time></trkpt><trkpt lat="43.1389556" lon="11.4881124"><ele>153.0</ele><time>2026-05-02T14:26:37.7Z</time></trkpt><trkpt lat="43.1389476" lon="11.4880093"><ele>153.0</ele><time>2026-05-02T14:26:38.693Z</time></trkpt><trkpt lat="43.1389399" lon="11.4878997"><ele>153.0</ele><time>2026-05-02T14:26:39.698Z</time></trkpt><trkpt lat="43.1389299" lon="11.4877958"><ele>153.0</ele><time>2026-05-02T14:26:40.703Z</time></trkpt><trkpt lat="43.1389209" lon="11.4876751"><ele>153.0</ele><time>2026-05-02T14:26:41.678Z</time></trkpt><trkpt lat="43.1389111" lon="11.4875484"><ele>153.0</ele><time>2026-05-02T14:26:42.696Z</time></trkpt><trkpt lat="43.1389028" lon="11.4874201"><ele>152.6</ele><time>2026-05-02T14:26:43.69Z</time></trkpt><trkpt lat="43.1388959" lon="11.4872779"><ele>152.20000000000002</ele><time>2026-05-02T14:26:44.695Z</time></trkpt><trkpt lat="43.1388901" lon="11.4871357"><ele>151.8</ele><time>2026-05-02T14:26:45.692Z</time></trkpt><trkpt lat="43.1388882" lon="11.4869828"><ele>151.4</ele><time>2026-05-02T14:26:46.693Z</time></trkpt><trkpt lat="43.1388853" lon="11.4868285"><ele>151.0</ele><time>2026-05-02T14:26:47.695Z</time></trkpt><trkpt lat="43.1388892" lon="11.4866681"><ele>150.25</ele><time>2026-05-02T14:26:48.698Z</time></trkpt><trkpt lat="43.1388967" lon="11.4865107"><ele>149.5</ele><time>2026-05-02T14:26:49.715Z</time></trkpt><trkpt lat="43.1389036" lon="11.4863573"><ele>148.75</ele><time>2026-05-02T14:26:50.687Z</time></trkpt><trkpt lat="43.1389069" lon="11.4862051"><ele>148.0</ele><time>2026-05-02T14:26:51.703Z</time></trkpt><trkpt lat="43.1389106" lon="11.4860461"><ele>147.6</ele><time>2026-05-02T14:26:52.689Z</time></trkpt><trkpt lat="43.1389071" lon="11.4858872"><ele>147.20000000000002</ele><time>2026-05-02T14:26:53.696Z</time></trkpt><trkpt lat="43.1388994" lon="11.4857389"><ele>146.8</ele><time>2026-05-02T14:26:54.699Z</time></trkpt><trkpt lat="43.1388881" lon="11.4856213"><ele>146.4</ele><time>2026-05-02T14:26:55.692Z</time></trkpt><trkpt lat="43.138876" lon="11.4855153"><ele>146.0</ele><time>2026-05-02T14:26:56.693Z</time></trkpt><trkpt lat="43.1388799" lon="11.4854169"><ele>146.0</ele><time>2026-05-02T14:26:57.693Z</time></trkpt><trkpt lat="43.1389422" lon="11.4852957"><ele>146.0</ele><time>2026-05-02T14:26:59.701Z</time></trkpt><trkpt lat="43.1390564" lon="11.4852804"><ele>146.0</ele><time>2026-05-02T14:27:01.685Z</time></trkpt><trkpt lat="43.1391713" lon="11.485254"><ele>146.0</ele><time>2026-05-02T14:27:03.694Z</time></trkpt><trkpt lat="43.1392357" lon="11.4852286"><ele>146.0</ele><time>2026-05-02T14:27:04.683Z</time></trkpt><trkpt lat="43.1393026" lon="11.4852049"><ele>145.85714285714286</ele><time>2026-05-02T14:27:05.686Z</time></trkpt><trkpt lat="43.1393664" lon="11.4851808"><ele>145.71428571428572</ele><time>2026-05-02T14:27:06.684Z</time></trkpt><trkpt lat="43.1394282" lon="11.4851486"><ele>145.57142857142858</ele><time>2026-05-02T14:27:08.693Z</time></trkpt><trkpt lat="43.1395013" lon="11.4851121"><ele>145.42857142857144</ele><time>2026-05-02T14:27:16.7Z</time></trkpt><trkpt lat="43.1395798" lon="11.4850633"><ele>145.2857142857143</ele><time>2026-05-02T14:27:19.706Z</time></trkpt><trkpt lat="43.1396523" lon="11.4850406"><ele>145.14285714285714</ele><time>2026-05-02T14:27:22.692Z</time></trkpt><trkpt lat="43.139664" lon="11.4849447"><ele>145.0</ele><time>2026-05-02T14:27:27.687Z</time></trkpt><trkpt lat="43.1396434" lon="11.4847835"><ele>145.0</ele><time>2026-05-02T14:27:29.682Z</time></trkpt><trkpt lat="43.1396112" lon="11.4846455"><ele>145.0</ele><time>2026-05-02T14:27:31.705Z</time></trkpt><trkpt lat="43.1395948" lon="11.4845196"><ele>145.0</ele><time>2026-05-02T14:27:33.697Z</time></trkpt><trkpt lat="43.1395761" lon="11.4844312"><ele>145.0</ele><time>2026-05-02T14:27:35.703Z</time></trkpt><trkpt lat="43.1395831" lon="11.4843238"><ele>145.0</ele><time>2026-05-02T14:27:38.702Z</time></trkpt><trkpt lat="43.1395496" lon="11.4842014"><ele>145.0</ele><time>2026-05-02T14:28:52.699Z</time></trkpt><trkpt lat="43.1395077" lon="11.4840253"><ele>145.0</ele><time>2026-05-02T14:28:54.698Z</time></trkpt><trkpt lat="43.1394795" lon="11.4839286"><ele>145.0</ele><time>2026-05-02T14:28:55.693Z</time></trkpt><trkpt lat="43.1394531" lon="11.4838341"><ele>145.0</ele><time>2026-05-02T14:28:56.689Z</time></trkpt><trkpt lat="43.1394241" lon="11.4837386"><ele>145.0</ele><time>2026-05-02T14:28:57.692Z</time></trkpt><trkpt lat="43.1393928" lon="11.4836363"><ele>145.0</ele><time>2026-05-02T14:28:58.681Z</time></trkpt><trkpt lat="43.1393617" lon="11.4835362"><ele>145.0</ele><time>2026-05-02T14:28:59.714Z</time></trkpt><trkpt lat="43.1393339" lon="11.4834315"><ele>145.0</ele><time>2026-05-02T14:29:00.703Z</time></trkpt><trkpt lat="43.1393012" lon="11.4833191"><ele>145.0</ele><time>2026-05-02T14:29:01.698Z</time></trkpt><trkpt lat="43.139275" lon="11.4832087"><ele>145.0</ele><time>2026-05-02T14:29:02.7Z</time></trkpt><trkpt lat="43.1392529" lon="11.4831198"><ele>145.0</ele><time>2026-05-02T14:29:03.714Z</time></trkpt><trkpt lat="43.1392583" lon="11.4830237"><ele>145.0</ele><time>2026-05-02T14:29:05.707Z</time></trkpt><trkpt lat="43.1393015" lon="11.4829533"><ele>145.0</ele><time>2026-05-02T14:29:10.708Z</time></trkpt><trkpt lat="43.1393586" lon="11.4828992"><ele>145.0</ele><time>2026-05-02T14:29:11.695Z</time></trkpt><trkpt lat="43.1394273" lon="11.4828402"><ele>145.4</ele><time>2026-05-02T14:29:12.7Z</time></trkpt><trkpt lat="43.1394924" lon="11.482798"><ele>145.8</ele><time>2026-05-02T14:29:13.68Z</time></trkpt><trkpt lat="43.1395766" lon="11.4827494"><ele>146.2</ele><time>2026-05-02T14:29:14.69Z</time></trkpt><trkpt lat="43.1396741" lon="11.4826746"><ele>146.6</ele><time>2026-05-02T14:29:15.693Z</time></trkpt><trkpt lat="43.1397678" lon="11.4826094"><ele>147.0</ele><time>2026-05-02T14:29:16.685Z</time></trkpt><trkpt lat="43.1398429" lon="11.4825574"><ele>147.0</ele><time>2026-05-02T14:29:17.699Z</time></trkpt><trkpt lat="43.1399308" lon="11.4824667"><ele>147.0</ele><time>2026-05-02T14:29:19.702Z</time></trkpt><trkpt lat="43.1399207" lon="11.4823562"><ele>147.0</ele><time>2026-05-02T14:29:21.711Z</time></trkpt><trkpt lat="43.1398544" lon="11.4822008"><ele>147.0</ele><time>2026-05-02T14:29:23.686Z</time></trkpt><trkpt lat="43.1398239" lon="11.4821055"><ele>147.0</ele><time>2026-05-02T14:29:24.706Z</time></trkpt><trkpt lat="43.1397887" lon="11.4819927"><ele>147.16666666666666</ele><time>2026-05-02T14:29:25.701Z</time></trkpt><trkpt lat="43.1397495" lon="11.4818865"><ele>147.33333333333334</ele><time>2026-05-02T14:29:26.696Z</time></trkpt><trkpt lat="43.1397113" lon="11.4817721"><ele>147.5</ele><time>2026-05-02T14:29:27.692Z</time></trkpt><trkpt lat="43.139671" lon="11.4816548"><ele>147.66666666666669</ele><time>2026-05-02T14:29:28.682Z</time></trkpt><trkpt lat="43.1396319" lon="11.4815473"><ele>147.83333333333334</ele><time>2026-05-02T14:29:29.689Z</time></trkpt><trkpt lat="43.1395982" lon="11.4814534"><ele>148.0</ele><time>2026-05-02T14:29:30.699Z</time></trkpt><trkpt lat="43.1395655" lon="11.4813696"><ele>148.0</ele><time>2026-05-02T14:29:31.695Z</time></trkpt><trkpt lat="43.1395378" lon="11.4812917"><ele>148.0</ele><time>2026-05-02T14:29:32.705Z</time></trkpt><trkpt lat="43.1395086" lon="11.4812145"><ele>148.0</ele><time>2026-05-02T14:29:33.687Z</time></trkpt><trkpt lat="43.1394514" lon="11.4810725"><ele>148.0</ele><time>2026-05-02T14:29:35.698Z</time></trkpt><trkpt lat="43.139379" lon="11.4809566"><ele>148.0</ele><time>2026-05-02T14:29:37.688Z</time></trkpt><trkpt lat="43.1392973" lon="11.4809153"><ele>148.0</ele><time>2026-05-02T14:29:39.698Z</time></trkpt><trkpt lat="43.1391681" lon="11.480943"><ele>147.57142857142858</ele><time>2026-05-02T14:29:41.703Z</time></trkpt><trkpt lat="43.1391034" lon="11.4809599"><ele>147.14285714285714</ele><time>2026-05-02T14:29:42.697Z</time></trkpt><trkpt lat="43.1390364" lon="11.4809788"><ele>146.71428571428572</ele><time>2026-05-02T14:29:43.693Z</time></trkpt><trkpt lat="43.1389715" lon="11.4809959"><ele>146.28571428571428</ele><time>2026-05-02T14:29:44.696Z</time></trkpt><trkpt lat="43.1389056" lon="11.481014"><ele>145.85714285714286</ele><time>2026-05-02T14:29:45.687Z</time></trkpt><trkpt lat="43.1388389" lon="11.4810317"><ele>145.42857142857144</ele><time>2026-05-02T14:29:46.687Z</time></trkpt><trkpt lat="43.1387754" lon="11.4810454"><ele>145.0</ele><time>2026-05-02T14:29:47.705Z</time></trkpt><trkpt lat="43.1387103" lon="11.4810685"><ele>145.0</ele><time>2026-05-02T14:29:48.696Z</time></trkpt><trkpt lat="43.138588" lon="11.481098"><ele>145.0</ele><time>2026-05-02T14:29:50.697Z</time></trkpt><trkpt lat="43.1384935" lon="11.4810992"><ele>145.0</ele><time>2026-05-02T14:29:52.696Z</time></trkpt><trkpt lat="43.1384149" lon="11.4810541"><ele>145.0</ele><time>2026-05-02T14:29:54.693Z</time></trkpt><trkpt lat="43.1383956" lon="11.4809511"><ele>145.0</ele><time>2026-05-02T14:29:56.697Z</time></trkpt><trkpt lat="43.1383871" lon="11.4808356"><ele>145.0</ele><time>2026-05-02T14:29:58.692Z</time></trkpt><trkpt lat="43.1383905" lon="11.480738"><ele>145.0</ele><time>2026-05-02T14:30:00.699Z</time></trkpt><trkpt lat="43.1384646" lon="11.4806635"><ele>145.0</ele><time>2026-05-02T14:30:03.685Z</time></trkpt><trkpt lat="43.1385511" lon="11.4806594"><ele>145.0</ele><time>2026-05-02T14:30:05.687Z</time></trkpt><trkpt lat="43.1386522" lon="11.4806511"><ele>145.0</ele><time>2026-05-02T14:30:07.698Z</time></trkpt><trkpt lat="43.1387491" lon="11.4806333"><ele>145.0</ele><time>2026-05-02T14:30:09.701Z</time></trkpt><trkpt lat="43.1388526" lon="11.4806173"><ele>145.0</ele><time>2026-05-02T14:30:11.692Z</time></trkpt><trkpt lat="43.1389512" lon="11.4806836"><ele>145.0</ele><time>2026-05-02T14:30:13.694Z</time></trkpt><trkpt lat="43.1390373" lon="11.4807665"><ele>145.0</ele><time>2026-05-02T14:30:15.694Z</time></trkpt><trkpt lat="43.1391221" lon="11.4808015"><ele>145.0</ele><time>2026-05-02T14:30:17.695Z</time></trkpt><trkpt lat="43.1392092" lon="11.4808002"><ele>145.0</ele><time>2026-05-02T14:30:19.694Z</time></trkpt><trkpt lat="43.1393003" lon="11.4808344"><ele>144.6</ele><time>2026-05-02T14:30:21.698Z</time></trkpt><trkpt lat="43.1393682" lon="11.4809389"><ele>144.2</ele><time>2026-05-02T14:30:23.691Z</time></trkpt><trkpt lat="43.139435" lon="11.4810879"><ele>143.8</ele><time>2026-05-02T14:30:25.694Z</time></trkpt><trkpt lat="43.1394769" lon="11.4811726"><ele>143.4</ele><time>2026-05-02T14:30:26.687Z</time></trkpt><trkpt lat="43.1395171" lon="11.4812653"><ele>143.0</ele><time>2026-05-02T14:30:27.69Z</time></trkpt><trkpt lat="43.1395516" lon="11.4813665"><ele>143.83333333333331</ele><time>2026-05-02T14:30:28.693Z</time></trkpt><trkpt lat="43.1395893" lon="11.4814715"><ele>144.66666666666666</ele><time>2026-05-02T14:30:29.7Z</time></trkpt><trkpt lat="43.1396187" lon="11.4815708"><ele>145.5</ele><time>2026-05-02T14:30:30.705Z</time></trkpt><trkpt lat="43.1396513" lon="11.4816661"><ele>146.33333333333334</ele><time>2026-05-02T14:30:31.693Z</time></trkpt><trkpt lat="43.1396747" lon="11.4817598"><ele>147.16666666666669</ele><time>2026-05-02T14:30:32.701Z</time></trkpt><trkpt lat="43.1397019" lon="11.4818522"><ele>148.0</ele><time>2026-05-02T14:30:33.701Z</time></trkpt><trkpt lat="43.1397278" lon="11.4819397"><ele>148.0</ele><time>2026-05-02T14:30:34.696Z</time></trkpt><trkpt lat="43.1397629" lon="11.4820883"><ele>148.0</ele><time>2026-05-02T14:30:36.701Z</time></trkpt><trkpt lat="43.1397808" lon="11.4821721"><ele>148.0</ele><time>2026-05-02T14:30:39.718Z</time></trkpt><trkpt lat="43.1397173" lon="11.4821701"><ele>148.0</ele><time>2026-05-02T14:31:05.68Z</time></trkpt><trkpt lat="43.1398046" lon="11.4821221"><ele>148.0</ele><time>2026-05-02T14:33:43.675Z</time></trkpt><trkpt lat="43.139734" lon="11.4821174"><ele>148.0</ele><time>2026-05-02T14:34:02.716Z</time></trkpt><trkpt lat="43.1407758" lon="11.4822932"><ele>147.0</ele><time>2026-05-02T14:35:43.314Z</time></trkpt><trkpt lat="43.1395908" lon="11.4823436"><ele>147.0</ele><time>2026-05-02T14:35:49.465Z</time></trkpt><trkpt lat="43.1396974" lon="11.4821608"><ele>147.0</ele><time>2026-05-02T14:36:05.683Z</time></trkpt><trkpt lat="43.1394843" lon="11.4821098"><ele>147.0</ele><time>2026-05-02T14:42:57.846Z</time></trkpt><trkpt lat="43.1397385" lon="11.4821521"><ele>147.0</ele><time>2026-05-02T14:43:41.687Z</time></trkpt><trkpt lat="43.1397917" lon="11.482224"><ele>147.0</ele><time>2026-05-02T14:49:13.694Z</time></trkpt><trkpt lat="43.13984" lon="11.4822935"><ele>147.0</ele><time>2026-05-02T14:49:15.688Z</time></trkpt><trkpt lat="43.1398773" lon="11.4823923"><ele>147.0</ele><time>2026-05-02T14:49:18.686Z</time></trkpt><trkpt lat="43.1399334" lon="11.4824383"><ele>147.0</ele><time>2026-05-02T14:49:31.68Z</time></trkpt><trkpt lat="43.1400492" lon="11.4824261"><ele>147.0</ele><time>2026-05-02T14:49:33.681Z</time></trkpt><trkpt lat="43.1401195" lon="11.482384"><ele>146.2</ele><time>2026-05-02T14:49:34.692Z</time></trkpt><trkpt lat="43.1401926" lon="11.4823161"><ele>145.39999999999998</ele><time>2026-05-02T14:49:35.689Z</time></trkpt><trkpt lat="43.1402866" lon="11.4822484"><ele>144.60000000000002</ele><time>2026-05-02T14:49:36.695Z</time></trkpt><trkpt lat="43.1403931" lon="11.4821697"><ele>143.8</ele><time>2026-05-02T14:49:37.693Z</time></trkpt><trkpt lat="43.1404921" lon="11.4821"><ele>143.0</ele><time>2026-05-02T14:49:38.683Z</time></trkpt><trkpt lat="43.1405981" lon="11.4820249"><ele>142.75</ele><time>2026-05-02T14:49:39.69Z</time></trkpt><trkpt lat="43.1407099" lon="11.4819462"><ele>142.5</ele><time>2026-05-02T14:49:40.69Z</time></trkpt><trkpt lat="43.1408169" lon="11.4818706"><ele>142.25</ele><time>2026-05-02T14:49:41.69Z</time></trkpt><trkpt lat="43.140918" lon="11.4818024"><ele>142.0</ele><time>2026-05-02T14:49:42.697Z</time></trkpt><trkpt lat="43.1410127" lon="11.4817429"><ele>141.79999999999998</ele><time>2026-05-02T14:49:43.685Z</time></trkpt><trkpt lat="43.1411031" lon="11.4816782"><ele>141.6</ele><time>2026-05-02T14:49:44.688Z</time></trkpt><trkpt lat="43.1411979" lon="11.4816118"><ele>141.39999999999998</ele><time>2026-05-02T14:49:45.69Z</time></trkpt><trkpt lat="43.1412903" lon="11.4815352"><ele>141.2</ele><time>2026-05-02T14:49:46.69Z</time></trkpt><trkpt lat="43.1413929" lon="11.4814528"><ele>141.0</ele><time>2026-05-02T14:49:47.685Z</time></trkpt><trkpt lat="43.1414926" lon="11.481365"><ele>141.25</ele><time>2026-05-02T14:49:48.69Z</time></trkpt><trkpt lat="43.141589" lon="11.4812637"><ele>141.5</ele><time>2026-05-02T14:49:49.681Z</time></trkpt><trkpt lat="43.1416815" lon="11.4811531"><ele>141.75</ele><time>2026-05-02T14:49:50.693Z</time></trkpt><trkpt lat="43.1417772" lon="11.4810397"><ele>142.0</ele><time>2026-05-02T14:49:51.691Z</time></trkpt><trkpt lat="43.1418651" lon="11.4809145"><ele>142.0</ele><time>2026-05-02T14:49:52.709Z</time></trkpt><trkpt lat="43.1419514" lon="11.4808012"><ele>142.0</ele><time>2026-05-02T14:49:53.691Z</time></trkpt><trkpt lat="43.1420441" lon="11.4806937"><ele>142.0</ele><time>2026-05-02T14:49:54.682Z</time></trkpt><trkpt lat="43.1421373" lon="11.4805907"><ele>142.0</ele><time>2026-05-02T14:49:55.693Z</time></trkpt><trkpt lat="43.1422269" lon="11.4804836"><ele>141.75</ele><time>2026-05-02T14:49:56.7Z</time></trkpt><trkpt lat="43.1423167" lon="11.480369"><ele>141.5</ele><time>2026-05-02T14:49:57.692Z</time></trkpt><trkpt lat="43.1424045" lon="11.4802597"><ele>141.25</ele><time>2026-05-02T14:49:58.696Z</time></trkpt><trkpt lat="43.1424917" lon="11.4801434"><ele>141.0</ele><time>2026-05-02T14:49:59.697Z</time></trkpt><trkpt lat="43.1425726" lon="11.4800231"><ele>141.5</ele><time>2026-05-02T14:50:00.685Z</time></trkpt><trkpt lat="43.1426449" lon="11.4798928"><ele>142.0</ele><time>2026-05-02T14:50:01.698Z</time></trkpt><trkpt lat="43.1427095" lon="11.4797518"><ele>142.5</ele><time>2026-05-02T14:50:02.688Z</time></trkpt><trkpt lat="43.1427618" lon="11.4796038"><ele>143.0</ele><time>2026-05-02T14:50:03.695Z</time></trkpt><trkpt lat="43.1428026" lon="11.4794414"><ele>143.0</ele><time>2026-05-02T14:50:04.699Z</time></trkpt><trkpt lat="43.142837" lon="11.4792816"><ele>143.0</ele><time>2026-05-02T14:50:05.682Z</time></trkpt><trkpt lat="43.1428643" lon="11.4791221"><ele>143.0</ele><time>2026-05-02T14:50:06.699Z</time></trkpt><trkpt lat="43.1428869" lon="11.47895"><ele>143.0</ele><time>2026-05-02T14:50:07.698Z</time></trkpt><trkpt lat="43.1429124" lon="11.4787838"><ele>143.0</ele><time>2026-05-02T14:50:08.696Z</time></trkpt><trkpt lat="43.1429424" lon="11.4786185"><ele>143.0</ele><time>2026-05-02T14:50:09.691Z</time></trkpt><trkpt lat="43.1429659" lon="11.4784486"><ele>143.0</ele><time>2026-05-02T14:50:10.694Z</time></trkpt><trkpt lat="43.1429919" lon="11.4782798"><ele>143.0</ele><time>2026-05-02T14:50:11.699Z</time></trkpt><trkpt lat="43.1430219" lon="11.4781086"><ele>143.0</ele><time>2026-05-02T14:50:12.689Z</time></trkpt><trkpt lat="43.1430584" lon="11.4779403"><ele>143.0</ele><time>2026-05-02T14:50:13.697Z</time></trkpt><trkpt lat="43.1430999" lon="11.477778"><ele>143.0</ele><time>2026-05-02T14:50:14.684Z</time></trkpt><trkpt lat="43.143152" lon="11.4776216"><ele>143.0</ele><time>2026-05-02T14:50:15.693Z</time></trkpt><trkpt lat="43.1432171" lon="11.4774686"><ele>143.0</ele><time>2026-05-02T14:50:16.686Z</time></trkpt><trkpt lat="43.1432885" lon="11.4773259"><ele>143.0</ele><time>2026-05-02T14:50:17.701Z</time></trkpt><trkpt lat="43.1433688" lon="11.4771917"><ele>143.0</ele><time>2026-05-02T14:50:18.689Z</time></trkpt><trkpt lat="43.1434633" lon="11.477072"><ele>143.0</ele><time>2026-05-02T14:50:19.688Z</time></trkpt><trkpt lat="43.1435621" lon="11.4769592"><ele>143.0</ele><time>2026-05-02T14:50:20.693Z</time></trkpt><trkpt lat="43.1436613" lon="11.4768509"><ele>143.0</ele><time>2026-05-02T14:50:21.688Z</time></trkpt><trkpt lat="43.143763" lon="11.4767515"><ele>143.0</ele><time>2026-05-02T14:50:22.69Z</time></trkpt><trkpt lat="43.1438655" lon="11.4766493"><ele>143.0</ele><time>2026-05-02T14:50:23.694Z</time></trkpt><trkpt lat="43.1439646" lon="11.4765432"><ele>142.75</ele><time>2026-05-02T14:50:24.687Z</time></trkpt><trkpt lat="43.1440624" lon="11.4764403"><ele>142.5</ele><time>2026-05-02T14:50:25.682Z</time></trkpt><trkpt lat="43.1441638" lon="11.4763417"><ele>142.25</ele><time>2026-05-02T14:50:26.685Z</time></trkpt><trkpt lat="43.1442719" lon="11.476266"><ele>142.0</ele><time>2026-05-02T14:50:27.683Z</time></trkpt><trkpt lat="43.144381" lon="11.4762222"><ele>142.0</ele><time>2026-05-02T14:50:28.69Z</time></trkpt><trkpt lat="43.1444965" lon="11.4762027"><ele>142.0</ele><time>2026-05-02T14:50:29.689Z</time></trkpt><trkpt lat="43.1446117" lon="11.4762138"><ele>142.0</ele><time>2026-05-02T14:50:30.681Z</time></trkpt><trkpt lat="43.1447311" lon="11.4762331"><ele>142.0</ele><time>2026-05-02T14:50:31.678Z</time></trkpt><trkpt lat="43.1448495" lon="11.4762442"><ele>142.0</ele><time>2026-05-02T14:50:32.695Z</time></trkpt><trkpt lat="43.1449724" lon="11.476262"><ele>142.0</ele><time>2026-05-02T14:50:33.688Z</time></trkpt><trkpt lat="43.1450968" lon="11.4762655"><ele>142.0</ele><time>2026-05-02T14:50:34.689Z</time></trkpt><trkpt lat="43.1452295" lon="11.4762574"><ele>142.0</ele><time>2026-05-02T14:50:35.686Z</time></trkpt><trkpt lat="43.1453676" lon="11.476226"><ele>142.0</ele><time>2026-05-02T14:50:36.689Z</time></trkpt><trkpt lat="43.1455103" lon="11.4761919"><ele>142.0</ele><time>2026-05-02T14:50:37.692Z</time></trkpt><trkpt lat="43.1456682" lon="11.4761452"><ele>142.0</ele><time>2026-05-02T14:50:38.676Z</time></trkpt><trkpt lat="43.145839" lon="11.4760935"><ele>143.0</ele><time>2026-05-02T14:50:39.681Z</time></trkpt><trkpt lat="43.1460122" lon="11.4760324"><ele>144.0</ele><time>2026-05-02T14:50:40.697Z</time></trkpt><trkpt lat="43.1461964" lon="11.4759744"><ele>145.0</ele><time>2026-05-02T14:50:41.691Z</time></trkpt><trkpt lat="43.1463852" lon="11.4758992"><ele>146.0</ele><time>2026-05-02T14:50:42.681Z</time></trkpt><trkpt lat="43.1465805" lon="11.475814"><ele>147.0</ele><time>2026-05-02T14:50:43.694Z</time></trkpt><trkpt lat="43.1467822" lon="11.4757313"><ele>148.0</ele><time>2026-05-02T14:50:44.693Z</time></trkpt><trkpt lat="43.1469913" lon="11.4756398"><ele>148.0</ele><time>2026-05-02T14:50:45.682Z</time></trkpt><trkpt lat="43.1472076" lon="11.4755584"><ele>148.0</ele><time>2026-05-02T14:50:46.68Z</time></trkpt><trkpt lat="43.1474274" lon="11.4754746"><ele>146.66666666666669</ele><time>2026-05-02T14:50:47.684Z</time></trkpt><trkpt lat="43.1476446" lon="11.4753936"><ele>145.33333333333334</ele><time>2026-05-02T14:50:48.679Z</time></trkpt><trkpt lat="43.147846" lon="11.4753211"><ele>144.0</ele><time>2026-05-02T14:50:49.685Z</time></trkpt><trkpt lat="43.1480303" lon="11.4752595"><ele>144.0</ele><time>2026-05-02T14:50:50.693Z</time></trkpt><trkpt lat="43.1482071" lon="11.4752094"><ele>144.0</ele><time>2026-05-02T14:50:51.684Z</time></trkpt><trkpt lat="43.1483716" lon="11.475153"><ele>144.0</ele><time>2026-05-02T14:50:52.692Z</time></trkpt><trkpt lat="43.1485331" lon="11.4750954"><ele>144.66666666666666</ele><time>2026-05-02T14:50:53.684Z</time></trkpt><trkpt lat="43.1486873" lon="11.4750384"><ele>145.33333333333331</ele><time>2026-05-02T14:50:54.691Z</time></trkpt><trkpt lat="43.1488377" lon="11.4749808"><ele>146.0</ele><time>2026-05-02T14:50:55.691Z</time></trkpt><trkpt lat="43.1489868" lon="11.4749274"><ele>146.66666666666666</ele><time>2026-05-02T14:50:56.695Z</time></trkpt><trkpt lat="43.1491349" lon="11.4748705"><ele>147.33333333333334</ele><time>2026-05-02T14:50:57.708Z</time></trkpt><trkpt lat="43.1492764" lon="11.4748028"><ele>148.0</ele><time>2026-05-02T14:50:58.691Z</time></trkpt><trkpt lat="43.1494129" lon="11.4747202"><ele>148.0</ele><time>2026-05-02T14:50:59.687Z</time></trkpt><trkpt lat="43.149553" lon="11.4746342"><ele>148.0</ele><time>2026-05-02T14:51:00.685Z</time></trkpt><trkpt lat="43.1497042" lon="11.4745457"><ele>148.0</ele><time>2026-05-02T14:51:01.682Z</time></trkpt><trkpt lat="43.1498548" lon="11.4744549"><ele>147.66666666666669</ele><time>2026-05-02T14:51:02.697Z</time></trkpt><trkpt lat="43.1500052" lon="11.4743614"><ele>147.33333333333334</ele><time>2026-05-02T14:51:03.682Z</time></trkpt><trkpt lat="43.1501556" lon="11.4742617"><ele>147.0</ele><time>2026-05-02T14:51:04.688Z</time></trkpt><trkpt lat="43.1503095" lon="11.4741604"><ele>147.0</ele><time>2026-05-02T14:51:05.707Z</time></trkpt><trkpt lat="43.150457" lon="11.4740468"><ele>147.0</ele><time>2026-05-02T14:51:06.705Z</time></trkpt><trkpt lat="43.1505983" lon="11.4739202"><ele>147.0</ele><time>2026-05-02T14:51:07.68Z</time></trkpt><trkpt lat="43.1507396" lon="11.4737824"><ele>147.33333333333334</ele><time>2026-05-02T14:51:08.698Z</time></trkpt><trkpt lat="43.1508796" lon="11.4736438"><ele>147.66666666666669</ele><time>2026-05-02T14:51:09.685Z</time></trkpt><trkpt lat="43.1510228" lon="11.473503"><ele>148.0</ele><time>2026-05-02T14:51:10.703Z</time></trkpt><trkpt lat="43.1511716" lon="11.4733538"><ele>148.0</ele><time>2026-05-02T14:51:11.689Z</time></trkpt><trkpt lat="43.1513265" lon="11.4732058"><ele>148.0</ele><time>2026-05-02T14:51:12.688Z</time></trkpt><trkpt lat="43.1514884" lon="11.4730668"><ele>148.0</ele><time>2026-05-02T14:51:13.694Z</time></trkpt><trkpt lat="43.1516525" lon="11.4729385"><ele>146.33333333333334</ele><time>2026-05-02T14:51:14.683Z</time></trkpt><trkpt lat="43.1518158" lon="11.4728247"><ele>144.66666666666666</ele><time>2026-05-02T14:51:15.694Z</time></trkpt><trkpt lat="43.1519888" lon="11.4727217"><ele>143.0</ele><time>2026-05-02T14:51:16.687Z</time></trkpt><trkpt lat="43.1521655" lon="11.4726342"><ele>143.0</ele><time>2026-05-02T14:51:17.684Z</time></trkpt><trkpt lat="43.1523476" lon="11.4725595"><ele>143.0</ele><time>2026-05-02T14:51:18.69Z</time></trkpt><trkpt lat="43.1525293" lon="11.4725008"><ele>143.0</ele><time>2026-05-02T14:51:19.701Z</time></trkpt><trkpt lat="43.152708" lon="11.4724561"><ele>143.0</ele><time>2026-05-02T14:51:20.686Z</time></trkpt><trkpt lat="43.1528844" lon="11.4724095"><ele>143.0</ele><time>2026-05-02T14:51:21.693Z</time></trkpt><trkpt lat="43.1530669" lon="11.4723665"><ele>143.0</ele><time>2026-05-02T14:51:22.683Z</time></trkpt><trkpt lat="43.1532482" lon="11.4723245"><ele>143.0</ele><time>2026-05-02T14:51:23.697Z</time></trkpt><trkpt lat="43.1534312" lon="11.4722831"><ele>143.0</ele><time>2026-05-02T14:51:24.696Z</time></trkpt><trkpt lat="43.1536152" lon="11.4722395"><ele>143.0</ele><time>2026-05-02T14:51:25.688Z</time></trkpt><trkpt lat="43.1537925" lon="11.4722018"><ele>143.0</ele><time>2026-05-02T14:51:26.701Z</time></trkpt><trkpt lat="43.1539659" lon="11.4721604"><ele>143.0</ele><time>2026-05-02T14:51:27.681Z</time></trkpt><trkpt lat="43.1541382" lon="11.4721224"><ele>143.0</ele><time>2026-05-02T14:51:28.7Z</time></trkpt><trkpt lat="43.154305" lon="11.4720886"><ele>143.33333333333331</ele><time>2026-05-02T14:51:29.691Z</time></trkpt><trkpt lat="43.154471" lon="11.4720529"><ele>143.66666666666666</ele><time>2026-05-02T14:51:30.678Z</time></trkpt><trkpt lat="43.1546371" lon="11.4720173"><ele>144.0</ele><time>2026-05-02T14:51:31.709Z</time></trkpt><trkpt lat="43.1548041" lon="11.4719745"><ele>144.33333333333334</ele><time>2026-05-02T14:51:32.686Z</time></trkpt><trkpt lat="43.1549721" lon="11.471935"><ele>144.66666666666669</ele><time>2026-05-02T14:51:33.69Z</time></trkpt><trkpt lat="43.1551396" lon="11.4718959"><ele>145.0</ele><time>2026-05-02T14:51:34.696Z</time></trkpt><trkpt lat="43.1553038" lon="11.4718574"><ele>145.0</ele><time>2026-05-02T14:51:35.702Z</time></trkpt><trkpt lat="43.155469" lon="11.4718199"><ele>145.0</ele><time>2026-05-02T14:51:36.695Z</time></trkpt><trkpt lat="43.1556315" lon="11.4717809"><ele>145.0</ele><time>2026-05-02T14:51:37.691Z</time></trkpt><trkpt lat="43.1557969" lon="11.4717438"><ele>146.0</ele><time>2026-05-02T14:51:38.695Z</time></trkpt><trkpt lat="43.1559655" lon="11.4717059"><ele>147.0</ele><time>2026-05-02T14:51:39.688Z</time></trkpt><trkpt lat="43.1561336" lon="11.4716628"><ele>148.0</ele><time>2026-05-02T14:51:40.689Z</time></trkpt><trkpt lat="43.1563051" lon="11.4716251"><ele>148.0</ele><time>2026-05-02T14:51:41.712Z</time></trkpt><trkpt lat="43.1564768" lon="11.4715866"><ele>148.0</ele><time>2026-05-02T14:51:42.692Z</time></trkpt><trkpt lat="43.1566502" lon="11.4715478"><ele>148.0</ele><time>2026-05-02T14:51:43.707Z</time></trkpt><trkpt lat="43.1568238" lon="11.4715097"><ele>148.33333333333334</ele><time>2026-05-02T14:51:44.698Z</time></trkpt><trkpt lat="43.157001" lon="11.4714719"><ele>148.66666666666666</ele><time>2026-05-02T14:51:45.7Z</time></trkpt><trkpt lat="43.1571758" lon="11.4714308"><ele>149.0</ele><time>2026-05-02T14:51:46.688Z</time></trkpt><trkpt lat="43.1573463" lon="11.4713887"><ele>149.0</ele><time>2026-05-02T14:51:47.689Z</time></trkpt><trkpt lat="43.157511" lon="11.4713485"><ele>149.0</ele><time>2026-05-02T14:51:48.703Z</time></trkpt><trkpt lat="43.1576709" lon="11.471303"><ele>149.0</ele><time>2026-05-02T14:51:49.696Z</time></trkpt><trkpt lat="43.1578203" lon="11.4712469"><ele>148.33333333333331</ele><time>2026-05-02T14:51:50.7Z</time></trkpt><trkpt lat="43.1579656" lon="11.4711782"><ele>147.66666666666666</ele><time>2026-05-02T14:51:51.69Z</time></trkpt><trkpt lat="43.1581015" lon="11.4710884"><ele>147.0</ele><time>2026-05-02T14:51:52.682Z</time></trkpt><trkpt lat="43.1582358" lon="11.4709919"><ele>147.0</ele><time>2026-05-02T14:51:53.7Z</time></trkpt><trkpt lat="43.1583657" lon="11.4708973"><ele>147.0</ele><time>2026-05-02T14:51:54.686Z</time></trkpt><trkpt lat="43.158497" lon="11.470795"><ele>147.0</ele><time>2026-05-02T14:51:55.684Z</time></trkpt><trkpt lat="43.1586321" lon="11.4706927"><ele>147.0</ele><time>2026-05-02T14:51:56.685Z</time></trkpt><trkpt lat="43.158769" lon="11.4705865"><ele>147.0</ele><time>2026-05-02T14:51:57.691Z</time></trkpt><trkpt lat="43.1589059" lon="11.4704846"><ele>147.0</ele><time>2026-05-02T14:51:58.682Z</time></trkpt><trkpt lat="43.1590406" lon="11.470369"><ele>147.0</ele><time>2026-05-02T14:51:59.697Z</time></trkpt><trkpt lat="43.159178" lon="11.4702452"><ele>147.0</ele><time>2026-05-02T14:52:00.689Z</time></trkpt><trkpt lat="43.1593206" lon="11.4701214"><ele>147.0</ele><time>2026-05-02T14:52:01.681Z</time></trkpt><trkpt lat="43.1594555" lon="11.4699931"><ele>147.0</ele><time>2026-05-02T14:52:02.692Z</time></trkpt><trkpt lat="43.1595965" lon="11.4698541"><ele>147.0</ele><time>2026-05-02T14:52:03.692Z</time></trkpt><trkpt lat="43.1597313" lon="11.4697183"><ele>147.0</ele><time>2026-05-02T14:52:04.684Z</time></trkpt><trkpt lat="43.1598693" lon="11.4695849"><ele>146.66666666666666</ele><time>2026-05-02T14:52:05.685Z</time></trkpt><trkpt lat="43.1600107" lon="11.4694545"><ele>146.33333333333331</ele><time>2026-05-02T14:52:06.694Z</time></trkpt><trkpt lat="43.1601518" lon="11.4693256"><ele>146.0</ele><time>2026-05-02T14:52:07.685Z</time></trkpt><trkpt lat="43.1602935" lon="11.4691903"><ele>146.0</ele><time>2026-05-02T14:52:08.682Z</time></trkpt><trkpt lat="43.1604341" lon="11.4690605"><ele>146.0</ele><time>2026-05-02T14:52:09.694Z</time></trkpt><trkpt lat="43.1605781" lon="11.4689342"><ele>146.0</ele><time>2026-05-02T14:52:10.691Z</time></trkpt><trkpt lat="43.1607222" lon="11.468831"><ele>147.0</ele><time>2026-05-02T14:52:11.686Z</time></trkpt><trkpt lat="43.1608728" lon="11.4687578"><ele>148.0</ele><time>2026-05-02T14:52:12.685Z</time></trkpt><trkpt lat="43.1610245" lon="11.4687029"><ele>149.0</ele><time>2026-05-02T14:52:13.695Z</time></trkpt><trkpt lat="43.1611707" lon="11.4686732"><ele>149.0</ele><time>2026-05-02T14:52:14.681Z</time></trkpt><trkpt lat="43.1613137" lon="11.4686483"><ele>149.0</ele><time>2026-05-02T14:52:15.687Z</time></trkpt><trkpt lat="43.1614556" lon="11.4686248"><ele>149.0</ele><time>2026-05-02T14:52:16.683Z</time></trkpt><trkpt lat="43.161599" lon="11.468599"><ele>149.0</ele><time>2026-05-02T14:52:17.688Z</time></trkpt><trkpt lat="43.1617408" lon="11.4685712"><ele>149.5</ele><time>2026-05-02T14:52:18.689Z</time></trkpt><trkpt lat="43.1618806" lon="11.4685439"><ele>150.0</ele><time>2026-05-02T14:52:19.685Z</time></trkpt><trkpt lat="43.1620212" lon="11.4685156"><ele>150.5</ele><time>2026-05-02T14:52:20.684Z</time></trkpt><trkpt lat="43.1621609" lon="11.4684815"><ele>151.0</ele><time>2026-05-02T14:52:21.689Z</time></trkpt><trkpt lat="43.1622975" lon="11.4684561"><ele>150.25</ele><time>2026-05-02T14:52:22.684Z</time></trkpt><trkpt lat="43.1624301" lon="11.4684289"><ele>149.5</ele><time>2026-05-02T14:52:23.688Z</time></trkpt><trkpt lat="43.1625629" lon="11.4684041"><ele>148.75</ele><time>2026-05-02T14:52:24.687Z</time></trkpt><trkpt lat="43.1626943" lon="11.468374"><ele>148.0</ele><time>2026-05-02T14:52:25.694Z</time></trkpt><trkpt lat="43.1628232" lon="11.4683361"><ele>148.0</ele><time>2026-05-02T14:52:26.685Z</time></trkpt><trkpt lat="43.1629501" lon="11.4682794"><ele>148.0</ele><time>2026-05-02T14:52:27.687Z</time></trkpt><trkpt lat="43.1630695" lon="11.4682104"><ele>148.0</ele><time>2026-05-02T14:52:28.681Z</time></trkpt><trkpt lat="43.1631861" lon="11.4681291"><ele>148.0</ele><time>2026-05-02T14:52:29.698Z</time></trkpt><trkpt lat="43.1632999" lon="11.4680495"><ele>147.6</ele><time>2026-05-02T14:52:30.685Z</time></trkpt><trkpt lat="43.1634104" lon="11.4679758"><ele>147.20000000000002</ele><time>2026-05-02T14:52:31.688Z</time></trkpt><trkpt lat="43.1635208" lon="11.4679097"><ele>146.8</ele><time>2026-05-02T14:52:32.684Z</time></trkpt><trkpt lat="43.1636167" lon="11.4678499"><ele>146.4</ele><time>2026-05-02T14:52:33.684Z</time></trkpt><trkpt lat="43.1636984" lon="11.4678104"><ele>146.0</ele><time>2026-05-02T14:52:34.686Z</time></trkpt><trkpt lat="43.163764" lon="11.4678082"><ele>146.0</ele><time>2026-05-02T14:52:35.694Z</time></trkpt><trkpt lat="43.163869" lon="11.467881"><ele>146.0</ele><time>2026-05-02T14:52:37.684Z</time></trkpt><trkpt lat="43.1639307" lon="11.4679868"><ele>146.0</ele><time>2026-05-02T14:52:39.687Z</time></trkpt><trkpt lat="43.163955" lon="11.4680768"><ele>146.0</ele><time>2026-05-02T14:52:55.69Z</time></trkpt><trkpt lat="43.1640003" lon="11.4681778"><ele>146.0</ele><time>2026-05-02T14:54:14.694Z</time></trkpt><trkpt lat="43.1640412" lon="11.4683"><ele>146.6</ele><time>2026-05-02T14:54:16.68Z</time></trkpt><trkpt lat="43.1640767" lon="11.4684151"><ele>147.2</ele><time>2026-05-02T14:54:18.69Z</time></trkpt><trkpt lat="43.1641086" lon="11.4685506"><ele>147.8</ele><time>2026-05-02T14:54:30.684Z</time></trkpt><trkpt lat="43.164113" lon="11.4687019"><ele>148.4</ele><time>2026-05-02T14:54:32.687Z</time></trkpt><trkpt lat="43.1640685" lon="11.4688461"><ele>149.0</ele><time>2026-05-02T14:54:34.683Z</time></trkpt><trkpt lat="43.1640231" lon="11.468921"><ele>149.8</ele><time>2026-05-02T14:54:35.686Z</time></trkpt><trkpt lat="43.1639648" lon="11.4689812"><ele>150.60000000000002</ele><time>2026-05-02T14:54:36.68Z</time></trkpt><trkpt lat="43.1638868" lon="11.4690252"><ele>151.4</ele><time>2026-05-02T14:54:37.689Z</time></trkpt><trkpt lat="43.163787" lon="11.469064"><ele>152.20000000000002</ele><time>2026-05-02T14:54:38.685Z</time></trkpt><trkpt lat="43.1636702" lon="11.4690934"><ele>153.0</ele><time>2026-05-02T14:54:39.694Z</time></trkpt><trkpt lat="43.1635583" lon="11.4691273"><ele>153.0</ele><time>2026-05-02T14:54:40.693Z</time></trkpt><trkpt lat="43.1634513" lon="11.4691593"><ele>153.0</ele><time>2026-05-02T14:54:41.692Z</time></trkpt><trkpt lat="43.1633466" lon="11.4692013"><ele>153.0</ele><time>2026-05-02T14:54:42.693Z</time></trkpt><trkpt lat="43.1632374" lon="11.4692525"><ele>153.0</ele><time>2026-05-02T14:54:43.679Z</time></trkpt><trkpt lat="43.1631296" lon="11.4693277"><ele>152.75</ele><time>2026-05-02T14:54:44.691Z</time></trkpt><trkpt lat="43.1630293" lon="11.4694222"><ele>152.5</ele><time>2026-05-02T14:54:45.69Z</time></trkpt><trkpt lat="43.1629376" lon="11.4695191"><ele>152.25</ele><time>2026-05-02T14:54:46.685Z</time></trkpt><trkpt lat="43.1628582" lon="11.469629"><ele>152.0</ele><time>2026-05-02T14:54:47.688Z</time></trkpt><trkpt lat="43.1627875" lon="11.4697433"><ele>153.0</ele><time>2026-05-02T14:54:48.692Z</time></trkpt><trkpt lat="43.1627329" lon="11.4698612"><ele>154.0</ele><time>2026-05-02T14:54:49.687Z</time></trkpt><trkpt lat="43.16269" lon="11.4700064"><ele>155.0</ele><time>2026-05-02T14:54:50.7Z</time></trkpt><trkpt lat="43.1626682" lon="11.470151"><ele>156.0</ele><time>2026-05-02T14:54:51.696Z</time></trkpt><trkpt lat="43.1626532" lon="11.4703068"><ele>157.0</ele><time>2026-05-02T14:54:52.682Z</time></trkpt><trkpt lat="43.1626463" lon="11.470453"><ele>158.25</ele><time>2026-05-02T14:54:53.698Z</time></trkpt><trkpt lat="43.162639" lon="11.4706079"><ele>159.5</ele><time>2026-05-02T14:54:54.684Z</time></trkpt><trkpt lat="43.1626315" lon="11.4707838"><ele>160.75</ele><time>2026-05-02T14:54:55.684Z</time></trkpt><trkpt lat="43.1626263" lon="11.4709839"><ele>162.0</ele><time>2026-05-02T14:54:56.692Z</time></trkpt><trkpt lat="43.1626176" lon="11.4711992"><ele>163.25</ele><time>2026-05-02T14:54:57.687Z</time></trkpt><trkpt lat="43.1626008" lon="11.4714128"><ele>164.5</ele><time>2026-05-02T14:54:58.696Z</time></trkpt><trkpt lat="43.1625639" lon="11.4716035"><ele>165.75</ele><time>2026-05-02T14:54:59.695Z</time></trkpt><trkpt lat="43.1625051" lon="11.4717657"><ele>167.0</ele><time>2026-05-02T14:55:00.693Z</time></trkpt><trkpt lat="43.1624409" lon="11.4719183"><ele>167.0</ele><time>2026-05-02T14:55:01.68Z</time></trkpt><trkpt lat="43.1623789" lon="11.4720488"><ele>167.0</ele><time>2026-05-02T14:55:02.681Z</time></trkpt><trkpt lat="43.1623238" lon="11.4721602"><ele>167.0</ele><time>2026-05-02T14:55:03.709Z</time></trkpt><trkpt lat="43.1622691" lon="11.4722669"><ele>167.0</ele><time>2026-05-02T14:55:04.686Z</time></trkpt><trkpt lat="43.1622163" lon="11.4723771"><ele>167.0</ele><time>2026-05-02T14:55:05.678Z</time></trkpt><trkpt lat="43.1621578" lon="11.4724928"><ele>168.0</ele><time>2026-05-02T14:55:06.691Z</time></trkpt><trkpt lat="43.1620937" lon="11.472606"><ele>169.0</ele><time>2026-05-02T14:55:07.695Z</time></trkpt><trkpt lat="43.1620317" lon="11.4727254"><ele>170.0</ele><time>2026-05-02T14:55:08.68Z</time></trkpt><trkpt lat="43.1619689" lon="11.4728405"><ele>171.0</ele><time>2026-05-02T14:55:09.692Z</time></trkpt><trkpt lat="43.1619106" lon="11.4729502"><ele>172.0</ele><time>2026-05-02T14:55:10.689Z</time></trkpt><trkpt lat="43.1618699" lon="11.4730468"><ele>173.0</ele><time>2026-05-02T14:55:11.683Z</time></trkpt><trkpt lat="43.1618371" lon="11.4731506"><ele>174.0</ele><time>2026-05-02T14:55:12.686Z</time></trkpt><trkpt lat="43.1618119" lon="11.4732636"><ele>175.0</ele><time>2026-05-02T14:55:13.692Z</time></trkpt><trkpt lat="43.1618012" lon="11.473381"><ele>176.0</ele><time>2026-05-02T14:55:14.691Z</time></trkpt><trkpt lat="43.1618034" lon="11.473498"><ele>177.0</ele><time>2026-05-02T14:55:15.684Z</time></trkpt><trkpt lat="43.1618232" lon="11.4736179"><ele>178.0</ele><time>2026-05-02T14:55:16.691Z</time></trkpt><trkpt lat="43.1618606" lon="11.4737462"><ele>179.0</ele><time>2026-05-02T14:55:17.697Z</time></trkpt><trkpt lat="43.1618954" lon="11.4738862"><ele>180.0</ele><time>2026-05-02T14:55:18.704Z</time></trkpt><trkpt lat="43.1619188" lon="11.4740171"><ele>181.0</ele><time>2026-05-02T14:55:19.671Z</time></trkpt><trkpt lat="43.1619184" lon="11.474126"><ele>182.0</ele><time>2026-05-02T14:55:20.692Z</time></trkpt><trkpt lat="43.1619117" lon="11.4742557"><ele>183.0</ele><time>2026-05-02T14:55:21.689Z</time></trkpt><trkpt lat="43.1619173" lon="11.4743959"><ele>183.0</ele><time>2026-05-02T14:55:22.679Z</time></trkpt><trkpt lat="43.161945" lon="11.4745312"><ele>183.0</ele><time>2026-05-02T14:55:23.701Z</time></trkpt><trkpt lat="43.1619962" lon="11.4746562"><ele>183.0</ele><time>2026-05-02T14:55:24.703Z</time></trkpt><trkpt lat="43.162064" lon="11.4747692"><ele>183.0</ele><time>2026-05-02T14:55:25.697Z</time></trkpt><trkpt lat="43.1621542" lon="11.4748645"><ele>183.0</ele><time>2026-05-02T14:55:26.689Z</time></trkpt><trkpt lat="43.1622568" lon="11.4749301"><ele>184.75</ele><time>2026-05-02T14:55:27.696Z</time></trkpt><trkpt lat="43.1623702" lon="11.4749744"><ele>186.5</ele><time>2026-05-02T14:55:28.691Z</time></trkpt><trkpt lat="43.1624807" lon="11.4749928"><ele>188.25</ele><time>2026-05-02T14:55:29.688Z</time></trkpt><trkpt lat="43.162592" lon="11.4750145"><ele>190.0</ele><time>2026-05-02T14:55:30.691Z</time></trkpt><trkpt lat="43.1626959" lon="11.4750642"><ele>190.0</ele><time>2026-05-02T14:55:31.681Z</time></trkpt><trkpt lat="43.1628102" lon="11.4751338"><ele>190.0</ele><time>2026-05-02T14:55:32.693Z</time></trkpt><trkpt lat="43.1629237" lon="11.4751995"><ele>190.0</ele><time>2026-05-02T14:55:33.698Z</time></trkpt><trkpt lat="43.1630353" lon="11.4752608"><ele>190.0</ele><time>2026-05-02T14:55:34.696Z</time></trkpt><trkpt lat="43.1631513" lon="11.4753288"><ele>190.25</ele><time>2026-05-02T14:55:35.697Z</time></trkpt><trkpt lat="43.1632704" lon="11.4754046"><ele>190.5</ele><time>2026-05-02T14:55:36.699Z</time></trkpt><trkpt lat="43.1633966" lon="11.4754692"><ele>190.75</ele><time>2026-05-02T14:55:37.696Z</time></trkpt><trkpt lat="43.1635252" lon="11.4755273"><ele>191.0</ele><time>2026-05-02T14:55:38.689Z</time></trkpt><trkpt lat="43.1636514" lon="11.475591"><ele>190.0</ele><time>2026-05-02T14:55:39.698Z</time></trkpt><trkpt lat="43.1637757" lon="11.4756448"><ele>189.0</ele><time>2026-05-02T14:55:40.7Z</time></trkpt><trkpt lat="43.1638957" lon="11.4757105"><ele>188.0</ele><time>2026-05-02T14:55:41.689Z</time></trkpt><trkpt lat="43.1640092" lon="11.4757692"><ele>187.0</ele><time>2026-05-02T14:55:42.68Z</time></trkpt><trkpt lat="43.1641309" lon="11.4758341"><ele>187.0</ele><time>2026-05-02T14:55:43.688Z</time></trkpt><trkpt lat="43.1642428" lon="11.4759013"><ele>187.0</ele><time>2026-05-02T14:55:44.685Z</time></trkpt><trkpt lat="43.1643512" lon="11.4759619"><ele>187.0</ele><time>2026-05-02T14:55:45.693Z</time></trkpt><trkpt lat="43.1644637" lon="11.4760129"><ele>187.0</ele><time>2026-05-02T14:55:46.691Z</time></trkpt><trkpt lat="43.1645804" lon="11.476064"><ele>187.0</ele><time>2026-05-02T14:55:47.702Z</time></trkpt><trkpt lat="43.1647067" lon="11.4761017"><ele>187.0</ele><time>2026-05-02T14:55:48.692Z</time></trkpt><trkpt lat="43.1648387" lon="11.4761428"><ele>187.0</ele><time>2026-05-02T14:55:49.674Z</time></trkpt><trkpt lat="43.1649805" lon="11.4761943"><ele>187.0</ele><time>2026-05-02T14:55:50.692Z</time></trkpt><trkpt lat="43.1651147" lon="11.4762426"><ele>186.25</ele><time>2026-05-02T14:55:51.688Z</time></trkpt><trkpt lat="43.1652418" lon="11.4762889"><ele>185.5</ele><time>2026-05-02T14:55:52.691Z</time></trkpt><trkpt lat="43.1653617" lon="11.4763338"><ele>184.75</ele><time>2026-05-02T14:55:53.687Z</time></trkpt><trkpt lat="43.165472" lon="11.4764027"><ele>184.0</ele><time>2026-05-02T14:55:54.692Z</time></trkpt><trkpt lat="43.1655907" lon="11.4764773"><ele>185.75</ele><time>2026-05-02T14:55:55.676Z</time></trkpt><trkpt lat="43.1657132" lon="11.476558"><ele>187.5</ele><time>2026-05-02T14:55:56.69Z</time></trkpt><trkpt lat="43.1658416" lon="11.4766396"><ele>189.25</ele><time>2026-05-02T14:55:57.695Z</time></trkpt><trkpt lat="43.1659655" lon="11.476729"><ele>191.0</ele><time>2026-05-02T14:55:58.69Z</time></trkpt><trkpt lat="43.1660884" lon="11.476819"><ele>191.0</ele><time>2026-05-02T14:55:59.694Z</time></trkpt><trkpt lat="43.1662153" lon="11.476903"><ele>191.0</ele><time>2026-05-02T14:56:00.689Z</time></trkpt><trkpt lat="43.1663457" lon="11.4769978"><ele>191.0</ele><time>2026-05-02T14:56:01.685Z</time></trkpt><trkpt lat="43.1664637" lon="11.4770838"><ele>191.0</ele><time>2026-05-02T14:56:02.689Z</time></trkpt><trkpt lat="43.1665749" lon="11.4771799"><ele>191.5</ele><time>2026-05-02T14:56:03.688Z</time></trkpt><trkpt lat="43.1666805" lon="11.4772875"><ele>192.0</ele><time>2026-05-02T14:56:04.694Z</time></trkpt><trkpt lat="43.1667848" lon="11.4774028"><ele>192.5</ele><time>2026-05-02T14:56:05.687Z</time></trkpt><trkpt lat="43.1668865" lon="11.4775047"><ele>193.0</ele><time>2026-05-02T14:56:06.679Z</time></trkpt><trkpt lat="43.1669826" lon="11.4775936"><ele>193.0</ele><time>2026-05-02T14:56:07.684Z</time></trkpt><trkpt lat="43.1670802" lon="11.4776738"><ele>193.0</ele><time>2026-05-02T14:56:08.686Z</time></trkpt><trkpt lat="43.1671665" lon="11.4777326"><ele>193.0</ele><time>2026-05-02T14:56:09.681Z</time></trkpt><trkpt lat="43.1672647" lon="11.4777713"><ele>193.0</ele><time>2026-05-02T14:56:10.712Z</time></trkpt><trkpt lat="43.1673734" lon="11.4777976"><ele>193.0</ele><time>2026-05-02T14:56:11.692Z</time></trkpt><trkpt lat="43.1674921" lon="11.4778109"><ele>193.25</ele><time>2026-05-02T14:56:12.688Z</time></trkpt><trkpt lat="43.167619" lon="11.4778114"><ele>193.5</ele><time>2026-05-02T14:56:13.706Z</time></trkpt><trkpt lat="43.1677488" lon="11.4778052"><ele>193.75</ele><time>2026-05-02T14:56:14.68Z</time></trkpt><trkpt lat="43.1678712" lon="11.4778084"><ele>194.0</ele><time>2026-05-02T14:56:15.688Z</time></trkpt><trkpt lat="43.1679761" lon="11.4778097"><ele>194.0</ele><time>2026-05-02T14:56:16.686Z</time></trkpt><trkpt lat="43.1680856" lon="11.4778076"><ele>194.0</ele><time>2026-05-02T14:56:17.682Z</time></trkpt><trkpt lat="43.1682035" lon="11.4778168"><ele>194.0</ele><time>2026-05-02T14:56:18.694Z</time></trkpt><trkpt lat="43.1683257" lon="11.4778402"><ele>194.0</ele><time>2026-05-02T14:56:19.692Z</time></trkpt><trkpt lat="43.1684545" lon="11.4778749"><ele>194.5</ele><time>2026-05-02T14:56:20.691Z</time></trkpt><trkpt lat="43.1685856" lon="11.4779184"><ele>195.0</ele><time>2026-05-02T14:56:21.696Z</time></trkpt><trkpt lat="43.1687233" lon="11.4779542"><ele>195.5</ele><time>2026-05-02T14:56:22.687Z</time></trkpt><trkpt lat="43.1688566" lon="11.4779825"><ele>196.0</ele><time>2026-05-02T14:56:23.688Z</time></trkpt><trkpt lat="43.1689884" lon="11.4780199"><ele>196.0</ele><time>2026-05-02T14:56:24.687Z</time></trkpt><trkpt lat="43.1691124" lon="11.4780656"><ele>196.0</ele><time>2026-05-02T14:56:25.689Z</time></trkpt><trkpt lat="43.169224" lon="11.4781293"><ele>196.0</ele><time>2026-05-02T14:56:26.687Z</time></trkpt><trkpt lat="43.1693146" lon="11.4782209"><ele>196.0</ele><time>2026-05-02T14:56:27.683Z</time></trkpt><trkpt lat="43.1693944" lon="11.4783263"><ele>196.0</ele><time>2026-05-02T14:56:28.692Z</time></trkpt><trkpt lat="43.1694683" lon="11.478441"><ele>196.0</ele><time>2026-05-02T14:56:29.69Z</time></trkpt><trkpt lat="43.1695323" lon="11.4785785"><ele>196.0</ele><time>2026-05-02T14:56:30.692Z</time></trkpt><trkpt lat="43.1695957" lon="11.4787278"><ele>196.0</ele><time>2026-05-02T14:56:31.704Z</time></trkpt><trkpt lat="43.1696577" lon="11.4788763"><ele>197.0</ele><time>2026-05-02T14:56:32.685Z</time></trkpt><trkpt lat="43.1697224" lon="11.4790132"><ele>198.0</ele><time>2026-05-02T14:56:33.699Z</time></trkpt><trkpt lat="43.1697938" lon="11.479119"><ele>199.0</ele><time>2026-05-02T14:56:34.679Z</time></trkpt><trkpt lat="43.1698615" lon="11.4792005"><ele>200.0</ele><time>2026-05-02T14:56:35.683Z</time></trkpt><trkpt lat="43.1699363" lon="11.4792752"><ele>201.0</ele><time>2026-05-02T14:56:36.688Z</time></trkpt><trkpt lat="43.1700164" lon="11.4793349"><ele>201.0</ele><time>2026-05-02T14:56:37.684Z</time></trkpt><trkpt lat="43.1701101" lon="11.4793899"><ele>201.0</ele><time>2026-05-02T14:56:38.696Z</time></trkpt><trkpt lat="43.1702074" lon="11.47943"><ele>201.0</ele><time>2026-05-02T14:56:39.697Z</time></trkpt><trkpt lat="43.170307" lon="11.4794683"><ele>201.0</ele><time>2026-05-02T14:56:40.689Z</time></trkpt><trkpt lat="43.1704007" lon="11.4795041"><ele>201.0</ele><time>2026-05-02T14:56:41.683Z</time></trkpt><trkpt lat="43.1704908" lon="11.4795474"><ele>201.0</ele><time>2026-05-02T14:56:42.689Z</time></trkpt><trkpt lat="43.1705688" lon="11.479588"><ele>201.0</ele><time>2026-05-02T14:56:43.702Z</time></trkpt><trkpt lat="43.1706415" lon="11.4796463"><ele>201.0</ele><time>2026-05-02T14:56:44.691Z</time></trkpt><trkpt lat="43.1707161" lon="11.4797075"><ele>201.0</ele><time>2026-05-02T14:56:45.698Z</time></trkpt><trkpt lat="43.1707834" lon="11.4797797"><ele>201.0</ele><time>2026-05-02T14:56:46.699Z</time></trkpt><trkpt lat="43.1708385" lon="11.4798641"><ele>201.0</ele><time>2026-05-02T14:56:47.686Z</time></trkpt><trkpt lat="43.1708784" lon="11.4799571"><ele>201.33333333333334</ele><time>2026-05-02T14:56:48.684Z</time></trkpt><trkpt lat="43.1709207" lon="11.4800545"><ele>201.66666666666669</ele><time>2026-05-02T14:56:49.692Z</time></trkpt><trkpt lat="43.1709658" lon="11.4801595"><ele>202.0</ele><time>2026-05-02T14:56:50.688Z</time></trkpt><trkpt lat="43.171001" lon="11.4802777"><ele>202.33333333333334</ele><time>2026-05-02T14:56:51.693Z</time></trkpt><trkpt lat="43.1710355" lon="11.4803892"><ele>202.66666666666669</ele><time>2026-05-02T14:56:52.693Z</time></trkpt><trkpt lat="43.171066" lon="11.4805132"><ele>203.0</ele><time>2026-05-02T14:56:53.694Z</time></trkpt><trkpt lat="43.1710955" lon="11.4806362"><ele>203.0</ele><time>2026-05-02T14:56:54.683Z</time></trkpt><trkpt lat="43.1711173" lon="11.4807712"><ele>203.0</ele><time>2026-05-02T14:56:55.689Z</time></trkpt><trkpt lat="43.171139" lon="11.4809048"><ele>203.0</ele><time>2026-05-02T14:56:56.686Z</time></trkpt><trkpt lat="43.1711634" lon="11.4810446"><ele>203.0</ele><time>2026-05-02T14:56:57.687Z</time></trkpt><trkpt lat="43.1711872" lon="11.4811854"><ele>203.0</ele><time>2026-05-02T14:56:58.698Z</time></trkpt><trkpt lat="43.1712137" lon="11.4813252"><ele>203.0</ele><time>2026-05-02T14:56:59.691Z</time></trkpt><trkpt lat="43.1712461" lon="11.4814673"><ele>203.0</ele><time>2026-05-02T14:57:00.688Z</time></trkpt><trkpt lat="43.1712705" lon="11.4816167"><ele>203.0</ele><time>2026-05-02T14:57:01.692Z</time></trkpt><trkpt lat="43.1712885" lon="11.4817616"><ele>203.0</ele><time>2026-05-02T14:57:02.689Z</time></trkpt><trkpt lat="43.1713121" lon="11.4819056"><ele>203.0</ele><time>2026-05-02T14:57:03.692Z</time></trkpt><trkpt lat="43.1713354" lon="11.4820462"><ele>201.8</ele><time>2026-05-02T14:57:04.69Z</time></trkpt><trkpt lat="43.1713644" lon="11.4821806"><ele>200.60000000000002</ele><time>2026-05-02T14:57:05.682Z</time></trkpt><trkpt lat="43.1714055" lon="11.4823022"><ele>199.39999999999998</ele><time>2026-05-02T14:57:06.689Z</time></trkpt><trkpt lat="43.1714558" lon="11.4824293"><ele>198.2</ele><time>2026-05-02T14:57:07.694Z</time></trkpt><trkpt lat="43.1715128" lon="11.4825615"><ele>197.0</ele><time>2026-05-02T14:57:08.69Z</time></trkpt><trkpt lat="43.1715757" lon="11.4827086"><ele>200.5</ele><time>2026-05-02T14:57:09.685Z</time></trkpt><trkpt lat="43.1716411" lon="11.4828559"><ele>204.0</ele><time>2026-05-02T14:57:10.686Z</time></trkpt><trkpt lat="43.1717097" lon="11.4829986"><ele>207.5</ele><time>2026-05-02T14:57:11.7Z</time></trkpt><trkpt lat="43.1717837" lon="11.4831234"><ele>211.0</ele><time>2026-05-02T14:57:12.701Z</time></trkpt><trkpt lat="43.1718693" lon="11.4832237"><ele>211.0</ele><time>2026-05-02T14:57:13.686Z</time></trkpt><trkpt lat="43.1719646" lon="11.4833222"><ele>211.0</ele><time>2026-05-02T14:57:14.692Z</time></trkpt><trkpt lat="43.1720583" lon="11.4834194"><ele>211.0</ele><time>2026-05-02T14:57:15.692Z</time></trkpt><trkpt lat="43.1721602" lon="11.4835278"><ele>211.0</ele><time>2026-05-02T14:57:16.687Z</time></trkpt><trkpt lat="43.1722565" lon="11.483627"><ele>211.0</ele><time>2026-05-02T14:57:17.696Z</time></trkpt><trkpt lat="43.1723509" lon="11.4837156"><ele>211.0</ele><time>2026-05-02T14:57:18.681Z</time></trkpt><trkpt lat="43.1724527" lon="11.483788"><ele>211.0</ele><time>2026-05-02T14:57:19.687Z</time></trkpt><trkpt lat="43.1725583" lon="11.4838426"><ele>211.0</ele><time>2026-05-02T14:57:20.686Z</time></trkpt><trkpt lat="43.1726716" lon="11.4838852"><ele>214.5</ele><time>2026-05-02T14:57:21.697Z</time></trkpt><trkpt lat="43.1727858" lon="11.4839298"><ele>218.0</ele><time>2026-05-02T14:57:22.689Z</time></trkpt><trkpt lat="43.1729067" lon="11.4839852"><ele>221.5</ele><time>2026-05-02T14:57:23.696Z</time></trkpt><trkpt lat="43.1730267" lon="11.4840341"><ele>225.0</ele><time>2026-05-02T14:57:24.692Z</time></trkpt><trkpt lat="43.1731471" lon="11.4840719"><ele>226.0</ele><time>2026-05-02T14:57:25.693Z</time></trkpt><trkpt lat="43.1732628" lon="11.4841076"><ele>227.0</ele><time>2026-05-02T14:57:26.692Z</time></trkpt><trkpt lat="43.1733775" lon="11.4841391"><ele>228.0</ele><time>2026-05-02T14:57:27.684Z</time></trkpt><trkpt lat="43.1734889" lon="11.4841709"><ele>229.0</ele><time>2026-05-02T14:57:28.686Z</time></trkpt><trkpt lat="43.1736002" lon="11.4842014"><ele>229.0</ele><time>2026-05-02T14:57:29.688Z</time></trkpt><trkpt lat="43.1737134" lon="11.484244"><ele>229.0</ele><time>2026-05-02T14:57:30.673Z</time></trkpt><trkpt lat="43.1738278" lon="11.4842818"><ele>229.0</ele><time>2026-05-02T14:57:31.687Z</time></trkpt><trkpt lat="43.1739405" lon="11.4843144"><ele>229.0</ele><time>2026-05-02T14:57:32.692Z</time></trkpt><trkpt lat="43.1740585" lon="11.4843542"><ele>229.0</ele><time>2026-05-02T14:57:33.681Z</time></trkpt><trkpt lat="43.1741752" lon="11.4843865"><ele>229.0</ele><time>2026-05-02T14:57:34.677Z</time></trkpt><trkpt lat="43.1742929" lon="11.484423"><ele>229.0</ele><time>2026-05-02T14:57:35.678Z</time></trkpt><trkpt lat="43.1744245" lon="11.4844763"><ele>229.0</ele><time>2026-05-02T14:57:36.687Z</time></trkpt><trkpt lat="43.1745642" lon="11.4845458"><ele>229.0</ele><time>2026-05-02T14:57:37.687Z</time></trkpt><trkpt lat="43.1747003" lon="11.4846103"><ele>229.0</ele><time>2026-05-02T14:57:38.688Z</time></trkpt><trkpt lat="43.1748089" lon="11.4846843"><ele>229.0</ele><time>2026-05-02T14:57:39.678Z</time></trkpt><trkpt lat="43.1749017" lon="11.4847403"><ele>229.0</ele><time>2026-05-02T14:57:40.673Z</time></trkpt><trkpt lat="43.1749864" lon="11.4847947"><ele>228.99999999999997</ele><time>2026-05-02T14:57:41.684Z</time></trkpt><trkpt lat="43.1750567" lon="11.4848423"><ele>229.0</ele><time>2026-05-02T14:57:42.691Z</time></trkpt><trkpt lat="43.1751187" lon="11.4848802"><ele>229.0</ele><time>2026-05-02T14:57:43.69Z</time></trkpt><trkpt lat="43.1751782" lon="11.4849162"><ele>229.0</ele><time>2026-05-02T14:57:44.692Z</time></trkpt><trkpt lat="43.1752702" lon="11.484966"><ele>228.99999999999997</ele><time>2026-05-02T14:57:46.677Z</time></trkpt><trkpt lat="43.1753515" lon="11.4849834"><ele>229.0</ele><time>2026-05-02T14:57:48.673Z</time></trkpt><trkpt lat="43.1754376" lon="11.4849577"><ele>228.99999999999997</ele><time>2026-05-02T14:57:50.683Z</time></trkpt><trkpt lat="43.1755146" lon="11.484857"><ele>229.0</ele><time>2026-05-02T14:57:52.688Z</time></trkpt><trkpt lat="43.1755896" lon="11.4847334"><ele>229.0</ele><time>2026-05-02T14:57:54.694Z</time></trkpt><trkpt lat="43.1756283" lon="11.4846636"><ele>229.0</ele><time>2026-05-02T14:57:55.69Z</time></trkpt><trkpt lat="43.175669" lon="11.4845939"><ele>228.99999999999997</ele><time>2026-05-02T14:57:56.693Z</time></trkpt><trkpt lat="43.1757104" lon="11.4845149"><ele>229.0</ele><time>2026-05-02T14:57:57.69Z</time></trkpt><trkpt lat="43.1757517" lon="11.4844294"><ele>228.99999999999997</ele><time>2026-05-02T14:57:58.696Z</time></trkpt><trkpt lat="43.1757885" lon="11.4843385"><ele>229.0</ele><time>2026-05-02T14:57:59.694Z</time></trkpt><trkpt lat="43.1758146" lon="11.4842421"><ele>229.0</ele><time>2026-05-02T14:58:00.691Z</time></trkpt><trkpt lat="43.1758306" lon="11.4841411"><ele>229.0</ele><time>2026-05-02T14:58:01.692Z</time></trkpt><trkpt lat="43.1758397" lon="11.4840137"><ele>228.99999999999997</ele><time>2026-05-02T14:58:02.671Z</time></trkpt><trkpt lat="43.175834" lon="11.4838864"><ele>229.0</ele><time>2026-05-02T14:58:03.688Z</time></trkpt><trkpt lat="43.175825" lon="11.4837512"><ele>227.39999999999998</ele><time>2026-05-02T14:58:04.689Z</time></trkpt><trkpt lat="43.1758143" lon="11.4836122"><ele>225.79999999999998</ele><time>2026-05-02T14:58:05.681Z</time></trkpt><trkpt lat="43.1758012" lon="11.4834726"><ele>224.20000000000002</ele><time>2026-05-02T14:58:06.679Z</time></trkpt><trkpt lat="43.1757935" lon="11.483343"><ele>222.60000000000002</ele><time>2026-05-02T14:58:07.704Z</time></trkpt><trkpt lat="43.1757838" lon="11.4832236"><ele>221.0</ele><time>2026-05-02T14:58:08.682Z</time></trkpt><trkpt lat="43.175777" lon="11.4831173"><ele>221.00000000000003</ele><time>2026-05-02T14:58:09.683Z</time></trkpt><trkpt lat="43.1757702" lon="11.48301"><ele>221.0</ele><time>2026-05-02T14:58:10.675Z</time></trkpt><trkpt lat="43.1757649" lon="11.4829125"><ele>221.0</ele><time>2026-05-02T14:58:11.675Z</time></trkpt><trkpt lat="43.1757444" lon="11.4828281"><ele>221.0</ele><time>2026-05-02T14:58:12.683Z</time></trkpt><trkpt lat="43.1757146" lon="11.4827514"><ele>221.0</ele><time>2026-05-02T14:58:13.699Z</time></trkpt><trkpt lat="43.1756775" lon="11.4826733"><ele>221.00000000000003</ele><time>2026-05-02T14:58:14.69Z</time></trkpt><trkpt lat="43.1756449" lon="11.4825868"><ele>221.0</ele><time>2026-05-02T14:58:15.68Z</time></trkpt><trkpt lat="43.1756287" lon="11.4824889"><ele>218.20000000000002</ele><time>2026-05-02T14:58:16.676Z</time></trkpt><trkpt lat="43.1756355" lon="11.4823749"><ele>215.40000000000003</ele><time>2026-05-02T14:58:17.687Z</time></trkpt><trkpt lat="43.175648" lon="11.482242"><ele>212.6</ele><time>2026-05-02T14:58:18.681Z</time></trkpt><trkpt lat="43.1756727" lon="11.4821114"><ele>209.8</ele><time>2026-05-02T14:58:19.68Z</time></trkpt><trkpt lat="43.1756951" lon="11.4819897"><ele>207.0</ele><time>2026-05-02T14:58:20.689Z</time></trkpt><trkpt lat="43.1757245" lon="11.4818806"><ele>207.0</ele><time>2026-05-02T14:58:21.695Z</time></trkpt><trkpt lat="43.1757647" lon="11.4817719"><ele>207.0</ele><time>2026-05-02T14:58:22.693Z</time></trkpt><trkpt lat="43.175817" lon="11.4816787"><ele>207.0</ele><time>2026-05-02T14:58:23.68Z</time></trkpt><trkpt lat="43.1758786" lon="11.4816118"><ele>207.0</ele><time>2026-05-02T14:58:24.684Z</time></trkpt><trkpt lat="43.1759407" lon="11.4815479"><ele>207.0</ele><time>2026-05-02T14:58:25.674Z</time></trkpt><trkpt lat="43.1760006" lon="11.481471"><ele>207.0</ele><time>2026-05-02T14:58:26.687Z</time></trkpt><trkpt lat="43.176045" lon="11.4813726"><ele>205.2</ele><time>2026-05-02T14:58:27.683Z</time></trkpt><trkpt lat="43.1760749" lon="11.4812562"><ele>203.39999999999998</ele><time>2026-05-02T14:58:28.708Z</time></trkpt><trkpt lat="43.1760968" lon="11.4811368"><ele>201.60000000000002</ele><time>2026-05-02T14:58:29.68Z</time></trkpt><trkpt lat="43.1761156" lon="11.4810173"><ele>199.8</ele><time>2026-05-02T14:58:30.691Z</time></trkpt><trkpt lat="43.1761347" lon="11.4808851"><ele>198.0</ele><time>2026-05-02T14:58:31.679Z</time></trkpt><trkpt lat="43.1761502" lon="11.4807499"><ele>198.0</ele><time>2026-05-02T14:58:32.688Z</time></trkpt><trkpt lat="43.1761654" lon="11.4806111"><ele>198.0</ele><time>2026-05-02T14:58:33.692Z</time></trkpt><trkpt lat="43.1761861" lon="11.4804769"><ele>198.0</ele><time>2026-05-02T14:58:34.695Z</time></trkpt><trkpt lat="43.1762119" lon="11.4803394"><ele>198.0</ele><time>2026-05-02T14:58:35.7Z</time></trkpt><trkpt lat="43.1762435" lon="11.4802259"><ele>198.0</ele><time>2026-05-02T14:58:36.687Z</time></trkpt><trkpt lat="43.176294" lon="11.4801246"><ele>197.4</ele><time>2026-05-02T14:58:37.693Z</time></trkpt><trkpt lat="43.1763614" lon="11.4800392"><ele>196.8</ele><time>2026-05-02T14:58:38.687Z</time></trkpt><trkpt lat="43.1764331" lon="11.4799499"><ele>196.2</ele><time>2026-05-02T14:58:39.709Z</time></trkpt><trkpt lat="43.1764984" lon="11.4798541"><ele>195.6</ele><time>2026-05-02T14:58:40.685Z</time></trkpt><trkpt lat="43.1765616" lon="11.4797506"><ele>195.0</ele><time>2026-05-02T14:58:41.69Z</time></trkpt><trkpt lat="43.1766187" lon="11.4796393"><ele>193.4</ele><time>2026-05-02T14:58:42.694Z</time></trkpt><trkpt lat="43.1766659" lon="11.479531"><ele>191.8</ele><time>2026-05-02T14:58:43.684Z</time></trkpt><trkpt lat="43.1766894" lon="11.4794148"><ele>190.2</ele><time>2026-05-02T14:58:44.681Z</time></trkpt><trkpt lat="43.1767038" lon="11.4792958"><ele>188.6</ele><time>2026-05-02T14:58:45.688Z</time></trkpt><trkpt lat="43.1767053" lon="11.4791643"><ele>187.0</ele><time>2026-05-02T14:58:46.693Z</time></trkpt><trkpt lat="43.1766974" lon="11.4790256"><ele>187.0</ele><time>2026-05-02T14:58:47.692Z</time></trkpt><trkpt lat="43.1766825" lon="11.4788846"><ele>187.0</ele><time>2026-05-02T14:58:48.69Z</time></trkpt><trkpt lat="43.1766705" lon="11.478749"><ele>187.0</ele><time>2026-05-02T14:58:49.69Z</time></trkpt><trkpt lat="43.1766642" lon="11.4786105"><ele>187.0</ele><time>2026-05-02T14:58:50.681Z</time></trkpt><trkpt lat="43.1766631" lon="11.4784646"><ele>187.0</ele><time>2026-05-02T14:58:51.695Z</time></trkpt><trkpt lat="43.1766749" lon="11.4783183"><ele>185.39999999999998</ele><time>2026-05-02T14:58:52.691Z</time></trkpt><trkpt lat="43.1766885" lon="11.4781818"><ele>183.79999999999998</ele><time>2026-05-02T14:58:53.691Z</time></trkpt><trkpt lat="43.1767042" lon="11.4780482"><ele>182.2</ele><time>2026-05-02T14:58:54.686Z</time></trkpt><trkpt lat="43.1767255" lon="11.4779345"><ele>180.6</ele><time>2026-05-02T14:58:55.696Z</time></trkpt><trkpt lat="43.1767528" lon="11.4778231"><ele>179.0</ele><time>2026-05-02T14:58:56.695Z</time></trkpt><trkpt lat="43.1767916" lon="11.4777233"><ele>177.0</ele><time>2026-05-02T14:58:57.692Z</time></trkpt><trkpt lat="43.1768489" lon="11.4776292"><ele>175.0</ele><time>2026-05-02T14:58:58.691Z</time></trkpt><trkpt lat="43.176925" lon="11.4775685"><ele>173.0</ele><time>2026-05-02T14:58:59.691Z</time></trkpt><trkpt lat="43.1770201" lon="11.4775196"><ele>171.0</ele><time>2026-05-02T14:59:00.686Z</time></trkpt><trkpt lat="43.1771291" lon="11.4774916"><ele>169.0</ele><time>2026-05-02T14:59:01.694Z</time></trkpt><trkpt lat="43.1772394" lon="11.4774708"><ele>169.0</ele><time>2026-05-02T14:59:02.682Z</time></trkpt><trkpt lat="43.1773454" lon="11.477459"><ele>169.0</ele><time>2026-05-02T14:59:03.692Z</time></trkpt><trkpt lat="43.1774637" lon="11.4774431"><ele>169.0</ele><time>2026-05-02T14:59:04.694Z</time></trkpt><trkpt lat="43.1775837" lon="11.4774267"><ele>169.0</ele><time>2026-05-02T14:59:05.711Z</time></trkpt><trkpt lat="43.1777079" lon="11.477417"><ele>167.0</ele><time>2026-05-02T14:59:06.693Z</time></trkpt><trkpt lat="43.1778364" lon="11.4773952"><ele>165.0</ele><time>2026-05-02T14:59:07.694Z</time></trkpt><trkpt lat="43.1779696" lon="11.4773725"><ele>163.0</ele><time>2026-05-02T14:59:08.691Z</time></trkpt><trkpt lat="43.1781033" lon="11.4773536"><ele>161.0</ele><time>2026-05-02T14:59:09.686Z</time></trkpt><trkpt lat="43.1782367" lon="11.4773294"><ele>160.0</ele><time>2026-05-02T14:59:10.685Z</time></trkpt><trkpt lat="43.178375" lon="11.4772982"><ele>159.0</ele><time>2026-05-02T14:59:11.691Z</time></trkpt><trkpt lat="43.1785135" lon="11.4772683"><ele>158.0</ele><time>2026-05-02T14:59:12.689Z</time></trkpt><trkpt lat="43.1786528" lon="11.4772295"><ele>157.0</ele><time>2026-05-02T14:59:13.686Z</time></trkpt><trkpt lat="43.1787906" lon="11.4771908"><ele>157.0</ele><time>2026-05-02T14:59:14.692Z</time></trkpt><trkpt lat="43.178928" lon="11.4771498"><ele>157.0</ele><time>2026-05-02T14:59:15.696Z</time></trkpt><trkpt lat="43.1790634" lon="11.4771128"><ele>157.0</ele><time>2026-05-02T14:59:16.68Z</time></trkpt><trkpt lat="43.1792042" lon="11.4770788"><ele>157.0</ele><time>2026-05-02T14:59:17.685Z</time></trkpt><trkpt lat="43.1793539" lon="11.4770779"><ele>156.33333333333334</ele><time>2026-05-02T14:59:18.688Z</time></trkpt><trkpt lat="43.1795135" lon="11.4770994"><ele>155.66666666666666</ele><time>2026-05-02T14:59:19.691Z</time></trkpt><trkpt lat="43.1796793" lon="11.4771394"><ele>155.0</ele><time>2026-05-02T14:59:20.69Z</time></trkpt><trkpt lat="43.1798311" lon="11.4771823"><ele>155.0</ele><time>2026-05-02T14:59:21.688Z</time></trkpt><trkpt lat="43.1799659" lon="11.4772273"><ele>155.0</ele><time>2026-05-02T14:59:22.688Z</time></trkpt><trkpt lat="43.1800978" lon="11.4772706"><ele>155.0</ele><time>2026-05-02T14:59:23.693Z</time></trkpt><trkpt lat="43.1802288" lon="11.4773098"><ele>155.0</ele><time>2026-05-02T14:59:24.689Z</time></trkpt><trkpt lat="43.1803602" lon="11.4773414"><ele>155.0</ele><time>2026-05-02T14:59:25.69Z</time></trkpt><trkpt lat="43.180496" lon="11.4773694"><ele>155.0</ele><time>2026-05-02T14:59:26.694Z</time></trkpt><trkpt lat="43.1806321" lon="11.4773977"><ele>155.0</ele><time>2026-05-02T14:59:27.678Z</time></trkpt><trkpt lat="43.1807688" lon="11.4774221"><ele>155.0</ele><time>2026-05-02T14:59:28.687Z</time></trkpt><trkpt lat="43.1809061" lon="11.4774528"><ele>155.25</ele><time>2026-05-02T14:59:29.673Z</time></trkpt><trkpt lat="43.1810476" lon="11.4774885"><ele>155.5</ele><time>2026-05-02T14:59:30.679Z</time></trkpt><trkpt lat="43.1811869" lon="11.4775226"><ele>155.75</ele><time>2026-05-02T14:59:31.698Z</time></trkpt><trkpt lat="43.1813239" lon="11.4775574"><ele>156.0</ele><time>2026-05-02T14:59:32.692Z</time></trkpt><trkpt lat="43.1814619" lon="11.4775923"><ele>156.0</ele><time>2026-05-02T14:59:33.692Z</time></trkpt><trkpt lat="43.1815997" lon="11.4776331"><ele>156.0</ele><time>2026-05-02T14:59:34.682Z</time></trkpt><trkpt lat="43.1817383" lon="11.4776755"><ele>156.0</ele><time>2026-05-02T14:59:35.684Z</time></trkpt><trkpt lat="43.1818643" lon="11.4777154"><ele>156.0</ele><time>2026-05-02T14:59:36.688Z</time></trkpt><trkpt lat="43.1819822" lon="11.4777546"><ele>156.0</ele><time>2026-05-02T14:59:37.689Z</time></trkpt><trkpt lat="43.1820904" lon="11.4777925"><ele>156.0</ele><time>2026-05-02T14:59:38.694Z</time></trkpt><trkpt lat="43.1822001" lon="11.4778143"><ele>156.0</ele><time>2026-05-02T14:59:39.684Z</time></trkpt><trkpt lat="43.1823056" lon="11.4778167"><ele>156.0</ele><time>2026-05-02T14:59:40.676Z</time></trkpt><trkpt lat="43.1824075" lon="11.4777823"><ele>156.0</ele><time>2026-05-02T14:59:41.685Z</time></trkpt><trkpt lat="43.1825191" lon="11.4777301"><ele>155.75</ele><time>2026-05-02T14:59:42.701Z</time></trkpt><trkpt lat="43.1826421" lon="11.4776335"><ele>155.5</ele><time>2026-05-02T14:59:43.688Z</time></trkpt><trkpt lat="43.1827723" lon="11.47753"><ele>155.25</ele><time>2026-05-02T14:59:44.691Z</time></trkpt><trkpt lat="43.1828993" lon="11.4774208"><ele>155.0</ele><time>2026-05-02T14:59:45.686Z</time></trkpt><trkpt lat="43.1830264" lon="11.4773152"><ele>155.0</ele><time>2026-05-02T14:59:46.69Z</time></trkpt><trkpt lat="43.1831476" lon="11.4772208"><ele>155.0</ele><time>2026-05-02T14:59:47.689Z</time></trkpt><trkpt lat="43.1832675" lon="11.4771232"><ele>155.0</ele><time>2026-05-02T14:59:48.681Z</time></trkpt><trkpt lat="43.1833949" lon="11.4770207"><ele>155.0</ele><time>2026-05-02T14:59:49.695Z</time></trkpt><trkpt lat="43.1835245" lon="11.4769093"><ele>154.33333333333331</ele><time>2026-05-02T14:59:50.685Z</time></trkpt><trkpt lat="43.18366" lon="11.4768016"><ele>153.66666666666666</ele><time>2026-05-02T14:59:51.689Z</time></trkpt><trkpt lat="43.1838042" lon="11.4766886"><ele>153.0</ele><time>2026-05-02T14:59:52.68Z</time></trkpt><trkpt lat="43.183952" lon="11.4765721"><ele>153.33333333333334</ele><time>2026-05-02T14:59:53.69Z</time></trkpt><trkpt lat="43.1841007" lon="11.4764537"><ele>153.66666666666669</ele><time>2026-05-02T14:59:54.688Z</time></trkpt><trkpt lat="43.1842531" lon="11.4763262"><ele>154.0</ele><time>2026-05-02T14:59:55.687Z</time></trkpt><trkpt lat="43.1844139" lon="11.4761992"><ele>154.0</ele><time>2026-05-02T14:59:56.687Z</time></trkpt><trkpt lat="43.1845785" lon="11.4760607"><ele>154.0</ele><time>2026-05-02T14:59:57.69Z</time></trkpt><trkpt lat="43.18474" lon="11.4759246"><ele>154.0</ele><time>2026-05-02T14:59:58.702Z</time></trkpt><trkpt lat="43.1848883" lon="11.4758008"><ele>154.33333333333334</ele><time>2026-05-02T14:59:59.689Z</time></trkpt><trkpt lat="43.1850411" lon="11.475688"><ele>154.66666666666666</ele><time>2026-05-02T15:00:00.686Z</time></trkpt><trkpt lat="43.1851911" lon="11.4755658"><ele>155.0</ele><time>2026-05-02T15:00:01.69Z</time></trkpt><trkpt lat="43.1853336" lon="11.4754455"><ele>154.66666666666666</ele><time>2026-05-02T15:00:02.684Z</time></trkpt><trkpt lat="43.1854677" lon="11.4753319"><ele>154.33333333333334</ele><time>2026-05-02T15:00:03.692Z</time></trkpt><trkpt lat="43.1856027" lon="11.4752161"><ele>154.0</ele><time>2026-05-02T15:00:04.69Z</time></trkpt><trkpt lat="43.1857364" lon="11.4751113"><ele>154.0</ele><time>2026-05-02T15:00:05.693Z</time></trkpt><trkpt lat="43.1858678" lon="11.4750106"><ele>154.0</ele><time>2026-05-02T15:00:06.692Z</time></trkpt><trkpt lat="43.1860035" lon="11.474914"><ele>154.0</ele><time>2026-05-02T15:00:07.701Z</time></trkpt><trkpt lat="43.1861371" lon="11.4748511"><ele>154.0</ele><time>2026-05-02T15:00:08.698Z</time></trkpt><trkpt lat="43.1862621" lon="11.47483"><ele>154.0</ele><time>2026-05-02T15:00:09.689Z</time></trkpt><trkpt lat="43.1863729" lon="11.4748252"><ele>154.0</ele><time>2026-05-02T15:00:10.697Z</time></trkpt><trkpt lat="43.1864858" lon="11.4748314"><ele>154.0</ele><time>2026-05-02T15:00:11.694Z</time></trkpt><trkpt lat="43.186601" lon="11.4748246"><ele>154.0</ele><time>2026-05-02T15:00:12.687Z</time></trkpt><trkpt lat="43.1867242" lon="11.4748089"><ele>154.25</ele><time>2026-05-02T15:00:13.693Z</time></trkpt><trkpt lat="43.1868524" lon="11.4747833"><ele>154.5</ele><time>2026-05-02T15:00:14.686Z</time></trkpt><trkpt lat="43.1869858" lon="11.4747664"><ele>154.75</ele><time>2026-05-02T15:00:15.692Z</time></trkpt><trkpt lat="43.1871108" lon="11.4747518"><ele>155.0</ele><time>2026-05-02T15:00:16.697Z</time></trkpt><trkpt lat="43.1872213" lon="11.4747533"><ele>155.0</ele><time>2026-05-02T15:00:17.681Z</time></trkpt><trkpt lat="43.1873181" lon="11.4747685"><ele>155.0</ele><time>2026-05-02T15:00:18.699Z</time></trkpt><trkpt lat="43.1873923" lon="11.4748095"><ele>155.0</ele><time>2026-05-02T15:00:19.692Z</time></trkpt><trkpt lat="43.1874645" lon="11.4748468"><ele>155.0</ele><time>2026-05-02T15:00:20.689Z</time></trkpt><trkpt lat="43.1875311" lon="11.4748903"><ele>155.0</ele><time>2026-05-02T15:00:21.695Z</time></trkpt><trkpt lat="43.1875959" lon="11.4749371"><ele>155.0</ele><time>2026-05-02T15:00:22.688Z</time></trkpt><trkpt lat="43.1876661" lon="11.4749695"><ele>155.8</ele><time>2026-05-02T15:00:23.685Z</time></trkpt><trkpt lat="43.1877893" lon="11.4749276"><ele>156.6</ele><time>2026-05-02T15:00:25.685Z</time></trkpt><trkpt lat="43.1878428" lon="11.4748803"><ele>157.4</ele><time>2026-05-02T15:00:26.681Z</time></trkpt><trkpt lat="43.187908" lon="11.4747371"><ele>158.2</ele><time>2026-05-02T15:00:28.69Z</time></trkpt><trkpt lat="43.1879353" lon="11.4746415"><ele>159.0</ele><time>2026-05-02T15:00:29.687Z</time></trkpt><trkpt lat="43.1879709" lon="11.4745297"><ele>159.0</ele><time>2026-05-02T15:00:30.684Z</time></trkpt><trkpt lat="43.1880228" lon="11.4744184"><ele>159.0</ele><time>2026-05-02T15:00:31.694Z</time></trkpt><trkpt lat="43.1880902" lon="11.4743315"><ele>159.0</ele><time>2026-05-02T15:00:32.688Z</time></trkpt><trkpt lat="43.1881794" lon="11.4742594"><ele>159.0</ele><time>2026-05-02T15:00:33.692Z</time></trkpt><trkpt lat="43.1882606" lon="11.4741981"><ele>159.0</ele><time>2026-05-02T15:00:34.675Z</time></trkpt><trkpt lat="43.1883328" lon="11.4741404"><ele>160.0</ele><time>2026-05-02T15:00:35.687Z</time></trkpt><trkpt lat="43.1883926" lon="11.474067"><ele>161.0</ele><time>2026-05-02T15:00:36.685Z</time></trkpt><trkpt lat="43.1884447" lon="11.4739814"><ele>162.0</ele><time>2026-05-02T15:00:37.693Z</time></trkpt><trkpt lat="43.1884939" lon="11.4738918"><ele>163.0</ele><time>2026-05-02T15:00:38.685Z</time></trkpt><trkpt lat="43.1885428" lon="11.4737855"><ele>164.0</ele><time>2026-05-02T15:00:39.682Z</time></trkpt><trkpt lat="43.1885865" lon="11.4736667"><ele>165.0</ele><time>2026-05-02T15:00:40.685Z</time></trkpt><trkpt lat="43.1886285" lon="11.473543"><ele>165.0</ele><time>2026-05-02T15:00:41.695Z</time></trkpt><trkpt lat="43.188673" lon="11.4734029"><ele>165.0</ele><time>2026-05-02T15:00:42.688Z</time></trkpt><trkpt lat="43.1887285" lon="11.4732529"><ele>165.0</ele><time>2026-05-02T15:00:43.687Z</time></trkpt><trkpt lat="43.1887957" lon="11.4730876"><ele>165.0</ele><time>2026-05-02T15:00:44.694Z</time></trkpt><trkpt lat="43.1888637" lon="11.4729244"><ele>164.0</ele><time>2026-05-02T15:00:45.681Z</time></trkpt><trkpt lat="43.1889221" lon="11.4727734"><ele>163.0</ele><time>2026-05-02T15:00:46.715Z</time></trkpt><trkpt lat="43.1889675" lon="11.4726306"><ele>162.0</ele><time>2026-05-02T15:00:47.685Z</time></trkpt><trkpt lat="43.1890071" lon="11.4724804"><ele>161.0</ele><time>2026-05-02T15:00:48.69Z</time></trkpt><trkpt lat="43.189051" lon="11.4723323"><ele>162.20000000000002</ele><time>2026-05-02T15:00:49.686Z</time></trkpt><trkpt lat="43.1890982" lon="11.472181"><ele>163.4</ele><time>2026-05-02T15:00:50.687Z</time></trkpt><trkpt lat="43.1891373" lon="11.4720345"><ele>164.6</ele><time>2026-05-02T15:00:51.703Z</time></trkpt><trkpt lat="43.18918" lon="11.4718978"><ele>165.8</ele><time>2026-05-02T15:00:52.683Z</time></trkpt><trkpt lat="43.1892302" lon="11.4717698"><ele>167.0</ele><time>2026-05-02T15:00:53.686Z</time></trkpt><trkpt lat="43.1892974" lon="11.4716408"><ele>167.0</ele><time>2026-05-02T15:00:54.683Z</time></trkpt><trkpt lat="43.1893733" lon="11.4715233"><ele>167.0</ele><time>2026-05-02T15:00:55.686Z</time></trkpt><trkpt lat="43.1894592" lon="11.4714221"><ele>167.0</ele><time>2026-05-02T15:00:56.689Z</time></trkpt><trkpt lat="43.1895561" lon="11.4713339"><ele>167.0</ele><time>2026-05-02T15:00:57.689Z</time></trkpt><trkpt lat="43.189666" lon="11.4712656"><ele>166.5</ele><time>2026-05-02T15:00:58.69Z</time></trkpt><trkpt lat="43.1897828" lon="11.4711938"><ele>166.0</ele><time>2026-05-02T15:00:59.678Z</time></trkpt><trkpt lat="43.1899054" lon="11.471125"><ele>165.5</ele><time>2026-05-02T15:01:00.692Z</time></trkpt><trkpt lat="43.1900267" lon="11.4710508"><ele>165.0</ele><time>2026-05-02T15:01:01.682Z</time></trkpt><trkpt lat="43.1901352" lon="11.4709768"><ele>165.0</ele><time>2026-05-02T15:01:02.689Z</time></trkpt><trkpt lat="43.1902354" lon="11.4708934"><ele>165.0</ele><time>2026-05-02T15:01:03.694Z</time></trkpt><trkpt lat="43.1903399" lon="11.4707744"><ele>165.0</ele><time>2026-05-02T15:01:04.683Z</time></trkpt><trkpt lat="43.1904461" lon="11.4706471"><ele>165.0</ele><time>2026-05-02T15:01:05.696Z</time></trkpt><trkpt lat="43.1905411" lon="11.4705333"><ele>164.25</ele><time>2026-05-02T15:01:06.693Z</time></trkpt><trkpt lat="43.19063" lon="11.4704408"><ele>163.5</ele><time>2026-05-02T15:01:07.685Z</time></trkpt><trkpt lat="43.190707" lon="11.4703361"><ele>162.75</ele><time>2026-05-02T15:01:08.683Z</time></trkpt><trkpt lat="43.1907823" lon="11.4702082"><ele>162.0</ele><time>2026-05-02T15:01:09.695Z</time></trkpt><trkpt lat="43.1908587" lon="11.4700652"><ele>162.0</ele><time>2026-05-02T15:01:10.69Z</time></trkpt><trkpt lat="43.1909362" lon="11.4698825"><ele>162.0</ele><time>2026-05-02T15:01:11.682Z</time></trkpt><trkpt lat="43.1910141" lon="11.4696988"><ele>162.0</ele><time>2026-05-02T15:01:12.687Z</time></trkpt><trkpt lat="43.1910808" lon="11.4695217"><ele>160.75</ele><time>2026-05-02T15:01:13.687Z</time></trkpt><trkpt lat="43.1911425" lon="11.4693738"><ele>159.5</ele><time>2026-05-02T15:01:14.69Z</time></trkpt><trkpt lat="43.1912091" lon="11.469222"><ele>158.25</ele><time>2026-05-02T15:01:15.687Z</time></trkpt><trkpt lat="43.1912974" lon="11.4690726"><ele>157.0</ele><time>2026-05-02T15:01:16.695Z</time></trkpt><trkpt lat="43.1914127" lon="11.4689419"><ele>157.66666666666669</ele><time>2026-05-02T15:01:17.683Z</time></trkpt><trkpt lat="43.1915446" lon="11.4688091"><ele>158.33333333333334</ele><time>2026-05-02T15:01:18.687Z</time></trkpt><trkpt lat="43.1916888" lon="11.4686763"><ele>159.0</ele><time>2026-05-02T15:01:19.698Z</time></trkpt><trkpt lat="43.1918254" lon="11.4685467"><ele>159.0</ele><time>2026-05-02T15:01:20.696Z</time></trkpt><trkpt lat="43.1919603" lon="11.4684175"><ele>159.0</ele><time>2026-05-02T15:01:21.682Z</time></trkpt><trkpt lat="43.1921063" lon="11.4682857"><ele>159.0</ele><time>2026-05-02T15:01:22.685Z</time></trkpt><trkpt lat="43.1922485" lon="11.4681406"><ele>159.33333333333334</ele><time>2026-05-02T15:01:23.684Z</time></trkpt><trkpt lat="43.1923825" lon="11.4680063"><ele>159.66666666666669</ele><time>2026-05-02T15:01:24.694Z</time></trkpt><trkpt lat="43.1925212" lon="11.4678662"><ele>160.0</ele><time>2026-05-02T15:01:25.685Z</time></trkpt><trkpt lat="43.1926616" lon="11.4677286"><ele>158.66666666666669</ele><time>2026-05-02T15:01:26.708Z</time></trkpt><trkpt lat="43.1928035" lon="11.4675879"><ele>157.33333333333334</ele><time>2026-05-02T15:01:27.69Z</time></trkpt><trkpt lat="43.1929494" lon="11.4674505"><ele>156.0</ele><time>2026-05-02T15:01:28.684Z</time></trkpt><trkpt lat="43.1930828" lon="11.467319"><ele>156.0</ele><time>2026-05-02T15:01:29.696Z</time></trkpt><trkpt lat="43.1932088" lon="11.4671965"><ele>156.0</ele><time>2026-05-02T15:01:30.688Z</time></trkpt><trkpt lat="43.1933331" lon="11.4670733"><ele>156.0</ele><time>2026-05-02T15:01:31.683Z</time></trkpt><trkpt lat="43.1934648" lon="11.4669482"><ele>156.0</ele><time>2026-05-02T15:01:32.688Z</time></trkpt><trkpt lat="43.1936037" lon="11.4668221"><ele>156.0</ele><time>2026-05-02T15:01:33.696Z</time></trkpt><trkpt lat="43.1937434" lon="11.4666984"><ele>156.0</ele><time>2026-05-02T15:01:34.689Z</time></trkpt><trkpt lat="43.1938852" lon="11.4665719"><ele>156.33333333333334</ele><time>2026-05-02T15:01:35.691Z</time></trkpt><trkpt lat="43.1940253" lon="11.4664403"><ele>156.66666666666669</ele><time>2026-05-02T15:01:36.681Z</time></trkpt><trkpt lat="43.1941603" lon="11.4663061"><ele>157.0</ele><time>2026-05-02T15:01:37.695Z</time></trkpt><trkpt lat="43.1942939" lon="11.4661701"><ele>156.5</ele><time>2026-05-02T15:01:38.689Z</time></trkpt><trkpt lat="43.1944252" lon="11.4660368"><ele>156.0</ele><time>2026-05-02T15:01:39.682Z</time></trkpt><trkpt lat="43.194535" lon="11.4659314"><ele>155.5</ele><time>2026-05-02T15:01:40.685Z</time></trkpt><trkpt lat="43.1946303" lon="11.465855"><ele>155.0</ele><time>2026-05-02T15:01:41.686Z</time></trkpt><trkpt lat="43.1947114" lon="11.4657923"><ele>155.0</ele><time>2026-05-02T15:01:42.69Z</time></trkpt><trkpt lat="43.1947728" lon="11.4657521"><ele>155.0</ele><time>2026-05-02T15:01:43.695Z</time></trkpt><trkpt lat="43.1948693" lon="11.4657161"><ele>155.0</ele><time>2026-05-02T15:01:45.692Z</time></trkpt><trkpt lat="43.1949234" lon="11.4657764"><ele>155.0</ele><time>2026-05-02T15:01:47.697Z</time></trkpt><trkpt lat="43.1949814" lon="11.4658931"><ele>155.0</ele><time>2026-05-02T15:01:50.688Z</time></trkpt><trkpt lat="43.1950663" lon="11.4659975"><ele>155.0</ele><time>2026-05-02T15:01:52.697Z</time></trkpt><trkpt lat="43.1951656" lon="11.4661164"><ele>155.0</ele><time>2026-05-02T15:01:54.688Z</time></trkpt><trkpt lat="43.1952165" lon="11.4661811"><ele>155.0</ele><time>2026-05-02T15:01:55.689Z</time></trkpt><trkpt lat="43.1952637" lon="11.4662462"><ele>155.0</ele><time>2026-05-02T15:01:56.691Z</time></trkpt><trkpt lat="43.1953095" lon="11.4663212"><ele>155.0</ele><time>2026-05-02T15:01:57.685Z</time></trkpt><trkpt lat="43.1953529" lon="11.4664105"><ele>155.0</ele><time>2026-05-02T15:01:58.683Z</time></trkpt><trkpt lat="43.1953817" lon="11.4665144"><ele>155.5</ele><time>2026-05-02T15:01:59.679Z</time></trkpt><trkpt lat="43.1954013" lon="11.4666215"><ele>156.0</ele><time>2026-05-02T15:02:00.685Z</time></trkpt><trkpt lat="43.1954218" lon="11.4667352"><ele>156.5</ele><time>2026-05-02T15:02:01.686Z</time></trkpt><trkpt lat="43.1954375" lon="11.4668542"><ele>157.0</ele><time>2026-05-02T15:02:02.695Z</time></trkpt><trkpt lat="43.1954473" lon="11.4669725"><ele>157.5</ele><time>2026-05-02T15:02:03.685Z</time></trkpt><trkpt lat="43.1954617" lon="11.4670847"><ele>158.0</ele><time>2026-05-02T15:02:04.684Z</time></trkpt><trkpt lat="43.1954765" lon="11.4672035"><ele>158.33333333333331</ele><time>2026-05-02T15:02:05.685Z</time></trkpt><trkpt lat="43.1954987" lon="11.4673213"><ele>158.66666666666666</ele><time>2026-05-02T15:02:06.686Z</time></trkpt><trkpt lat="43.1955294" lon="11.4674274"><ele>159.0</ele><time>2026-05-02T15:02:07.688Z</time></trkpt><trkpt lat="43.1955776" lon="11.4675173"><ele>159.33333333333334</ele><time>2026-05-02T15:02:08.686Z</time></trkpt><trkpt lat="43.1956365" lon="11.4675882"><ele>159.66666666666669</ele><time>2026-05-02T15:02:09.689Z</time></trkpt><trkpt lat="43.1957083" lon="11.4676339"><ele>160.0</ele><time>2026-05-02T15:02:10.693Z</time></trkpt><trkpt lat="43.1957842" lon="11.4676708"><ele>160.83333333333334</ele><time>2026-05-02T15:02:11.681Z</time></trkpt><trkpt lat="43.1958637" lon="11.4676991"><ele>161.66666666666669</ele><time>2026-05-02T15:02:12.69Z</time></trkpt><trkpt lat="43.1959341" lon="11.4677215"><ele>162.5</ele><time>2026-05-02T15:02:13.684Z</time></trkpt><trkpt lat="43.1960066" lon="11.4677595"><ele>163.33333333333334</ele><time>2026-05-02T15:02:14.689Z</time></trkpt><trkpt lat="43.1960816" lon="11.467807"><ele>164.16666666666666</ele><time>2026-05-02T15:02:15.691Z</time></trkpt><trkpt lat="43.1961572" lon="11.4678686"><ele>165.0</ele><time>2026-05-02T15:02:16.689Z</time></trkpt><trkpt lat="43.196228" lon="11.4679378"><ele>165.33333333333334</ele><time>2026-05-02T15:02:17.689Z</time></trkpt><trkpt lat="43.1962908" lon="11.4680043"><ele>165.66666666666666</ele><time>2026-05-02T15:02:18.685Z</time></trkpt><trkpt lat="43.1963511" lon="11.4680755"><ele>166.0</ele><time>2026-05-02T15:02:19.685Z</time></trkpt><trkpt lat="43.1964035" lon="11.4681549"><ele>166.33333333333331</ele><time>2026-05-02T15:02:20.688Z</time></trkpt><trkpt lat="43.1964521" lon="11.4682491"><ele>166.66666666666666</ele><time>2026-05-02T15:02:21.718Z</time></trkpt><trkpt lat="43.1965015" lon="11.4683394"><ele>167.0</ele><time>2026-05-02T15:02:22.689Z</time></trkpt><trkpt lat="43.1965449" lon="11.4684368"><ele>168.33333333333331</ele><time>2026-05-02T15:02:23.689Z</time></trkpt><trkpt lat="43.1965814" lon="11.4685496"><ele>169.66666666666666</ele><time>2026-05-02T15:02:24.694Z</time></trkpt><trkpt lat="43.1966012" lon="11.468676"><ele>171.0</ele><time>2026-05-02T15:02:25.688Z</time></trkpt><trkpt lat="43.1966106" lon="11.468794"><ele>172.33333333333334</ele><time>2026-05-02T15:02:26.692Z</time></trkpt><trkpt lat="43.1966363" lon="11.468899"><ele>173.66666666666669</ele><time>2026-05-02T15:02:27.683Z</time></trkpt><trkpt lat="43.1966849" lon="11.4690014"><ele>175.0</ele><time>2026-05-02T15:02:28.693Z</time></trkpt><trkpt lat="43.1967364" lon="11.4690934"><ele>176.0</ele><time>2026-05-02T15:02:29.699Z</time></trkpt><trkpt lat="43.1967932" lon="11.469184"><ele>177.0</ele><time>2026-05-02T15:02:30.693Z</time></trkpt><trkpt lat="43.1968469" lon="11.4692636"><ele>178.0</ele><time>2026-05-02T15:02:31.694Z</time></trkpt><trkpt lat="43.1968948" lon="11.4693444"><ele>179.0</ele><time>2026-05-02T15:02:32.692Z</time></trkpt><trkpt lat="43.1969395" lon="11.4694272"><ele>180.0</ele><time>2026-05-02T15:02:33.689Z</time></trkpt><trkpt lat="43.1969831" lon="11.4695257"><ele>181.0</ele><time>2026-05-02T15:02:34.694Z</time></trkpt><trkpt lat="43.1970224" lon="11.4696127"><ele>181.20000000000002</ele><time>2026-05-02T15:02:35.693Z</time></trkpt><trkpt lat="43.1970635" lon="11.4696988"><ele>181.4</ele><time>2026-05-02T15:02:36.694Z</time></trkpt><trkpt lat="43.1971052" lon="11.4697998"><ele>181.6</ele><time>2026-05-02T15:02:37.685Z</time></trkpt><trkpt lat="43.1971882" lon="11.4700212"><ele>181.8</ele><time>2026-05-02T15:02:39.678Z</time></trkpt><trkpt lat="43.197221" lon="11.4701359"><ele>182.0</ele><time>2026-05-02T15:02:40.692Z</time></trkpt><trkpt lat="43.1972555" lon="11.4702291"><ele>182.0</ele><time>2026-05-02T15:02:41.686Z</time></trkpt><trkpt lat="43.1972878" lon="11.4703148"><ele>182.0</ele><time>2026-05-02T15:02:42.687Z</time></trkpt><trkpt lat="43.1973474" lon="11.4704373"><ele>182.0</ele><time>2026-05-02T15:02:44.685Z</time></trkpt><trkpt lat="43.1974002" lon="11.4704871"><ele>182.0</ele><time>2026-05-02T15:02:51.69Z</time></trkpt><trkpt lat="43.1974887" lon="11.4705394"><ele>182.0</ele><time>2026-05-02T15:03:04.681Z</time></trkpt><trkpt lat="43.1975925" lon="11.4705748"><ele>182.0</ele><time>2026-05-02T15:03:06.681Z</time></trkpt><trkpt lat="43.1977317" lon="11.4705969"><ele>185.0</ele><time>2026-05-02T15:03:08.684Z</time></trkpt><trkpt lat="43.1978103" lon="11.4706166"><ele>188.0</ele><time>2026-05-02T15:03:09.691Z</time></trkpt><trkpt lat="43.1978853" lon="11.4706419"><ele>191.0</ele><time>2026-05-02T15:03:10.686Z</time></trkpt><trkpt lat="43.1979623" lon="11.4706866"><ele>194.0</ele><time>2026-05-02T15:03:11.689Z</time></trkpt><trkpt lat="43.1980321" lon="11.4707559"><ele>197.00000000000003</ele><time>2026-05-02T15:03:12.689Z</time></trkpt><trkpt lat="43.1981074" lon="11.4708342"><ele>200.0</ele><time>2026-05-02T15:03:13.694Z</time></trkpt><trkpt lat="43.1981832" lon="11.4709212"><ele>200.8</ele><time>2026-05-02T15:03:14.697Z</time></trkpt><trkpt lat="43.1982507" lon="11.4710172"><ele>201.6</ele><time>2026-05-02T15:03:15.687Z</time></trkpt><trkpt lat="43.1983126" lon="11.4711174"><ele>202.39999999999998</ele><time>2026-05-02T15:03:16.697Z</time></trkpt><trkpt lat="43.1983656" lon="11.4712259"><ele>203.2</ele><time>2026-05-02T15:03:17.689Z</time></trkpt><trkpt lat="43.1984143" lon="11.4713475"><ele>204.0</ele><time>2026-05-02T15:03:18.688Z</time></trkpt><trkpt lat="43.1984532" lon="11.4714821"><ele>205.2</ele><time>2026-05-02T15:03:19.697Z</time></trkpt><trkpt lat="43.1984882" lon="11.4716138"><ele>206.39999999999998</ele><time>2026-05-02T15:03:20.681Z</time></trkpt><trkpt lat="43.1985104" lon="11.4717415"><ele>207.6</ele><time>2026-05-02T15:03:21.684Z</time></trkpt><trkpt lat="43.1985225" lon="11.4718746"><ele>208.8</ele><time>2026-05-02T15:03:22.687Z</time></trkpt><trkpt lat="43.1985221" lon="11.472013"><ele>210.0</ele><time>2026-05-02T15:03:23.695Z</time></trkpt><trkpt lat="43.1985111" lon="11.4721511"><ele>210.75</ele><time>2026-05-02T15:03:24.686Z</time></trkpt><trkpt lat="43.1985011" lon="11.4723105"><ele>211.5</ele><time>2026-05-02T15:03:25.676Z</time></trkpt><trkpt lat="43.1984863" lon="11.4724706"><ele>212.25</ele><time>2026-05-02T15:03:26.686Z</time></trkpt><trkpt lat="43.1984751" lon="11.472629"><ele>213.0</ele><time>2026-05-02T15:03:27.68Z</time></trkpt><trkpt lat="43.1984846" lon="11.4727766"><ele>213.0</ele><time>2026-05-02T15:03:28.681Z</time></trkpt><trkpt lat="43.1985201" lon="11.472902"><ele>213.0</ele><time>2026-05-02T15:03:29.676Z</time></trkpt><trkpt lat="43.1985679" lon="11.4730484"><ele>213.0</ele><time>2026-05-02T15:03:30.681Z</time></trkpt><trkpt lat="43.1986389" lon="11.473186"><ele>213.0</ele><time>2026-05-02T15:03:31.691Z</time></trkpt><trkpt lat="43.198713" lon="11.4733304"><ele>213.2</ele><time>2026-05-02T15:03:32.698Z</time></trkpt><trkpt lat="43.1987691" lon="11.4734536"><ele>213.4</ele><time>2026-05-02T15:03:33.693Z</time></trkpt><trkpt lat="43.198813" lon="11.4735615"><ele>213.59999999999997</ele><time>2026-05-02T15:03:34.685Z</time></trkpt><trkpt lat="43.1988441" lon="11.4736858"><ele>213.79999999999998</ele><time>2026-05-02T15:03:35.69Z</time></trkpt><trkpt lat="43.1988518" lon="11.4738279"><ele>214.0</ele><time>2026-05-02T15:03:36.684Z</time></trkpt><trkpt lat="43.1988559" lon="11.473982"><ele>212.2</ele><time>2026-05-02T15:03:37.697Z</time></trkpt><trkpt lat="43.1988538" lon="11.4741364"><ele>210.39999999999998</ele><time>2026-05-02T15:03:38.685Z</time></trkpt><trkpt lat="43.1988733" lon="11.4742816"><ele>208.6</ele><time>2026-05-02T15:03:39.696Z</time></trkpt><trkpt lat="43.1989073" lon="11.4744144"><ele>206.8</ele><time>2026-05-02T15:03:40.698Z</time></trkpt><trkpt lat="43.198962" lon="11.4745348"><ele>205.0</ele><time>2026-05-02T15:03:41.683Z</time></trkpt><trkpt lat="43.1990269" lon="11.4746524"><ele>203.5</ele><time>2026-05-02T15:03:42.679Z</time></trkpt><trkpt lat="43.1990923" lon="11.4747729"><ele>202.0</ele><time>2026-05-02T15:03:43.688Z</time></trkpt><trkpt lat="43.1991641" lon="11.4749043"><ele>200.5</ele><time>2026-05-02T15:03:44.682Z</time></trkpt><trkpt lat="43.199241" lon="11.4750539"><ele>199.0</ele><time>2026-05-02T15:03:45.685Z</time></trkpt><trkpt lat="43.1993205" lon="11.4752046"><ele>199.0</ele><time>2026-05-02T15:03:46.687Z</time></trkpt><trkpt lat="43.1993952" lon="11.4753301"><ele>199.0</ele><time>2026-05-02T15:03:47.681Z</time></trkpt><trkpt lat="43.199472" lon="11.4754413"><ele>199.0</ele><time>2026-05-02T15:03:48.68Z</time></trkpt><trkpt lat="43.1995525" lon="11.4755464"><ele>199.0</ele><time>2026-05-02T15:03:49.69Z</time></trkpt><trkpt lat="43.1996357" lon="11.4756338"><ele>199.0</ele><time>2026-05-02T15:03:50.679Z</time></trkpt><trkpt lat="43.199723" lon="11.4757081"><ele>200.39999999999998</ele><time>2026-05-02T15:03:51.686Z</time></trkpt><trkpt lat="43.1998101" lon="11.4757663"><ele>201.8</ele><time>2026-05-02T15:03:52.687Z</time></trkpt><trkpt lat="43.1998936" lon="11.4758169"><ele>203.2</ele><time>2026-05-02T15:03:53.695Z</time></trkpt><trkpt lat="43.1999749" lon="11.4758764"><ele>204.60000000000002</ele><time>2026-05-02T15:03:54.696Z</time></trkpt><trkpt lat="43.2000451" lon="11.4759555"><ele>206.0</ele><time>2026-05-02T15:03:55.697Z</time></trkpt><trkpt lat="43.2001156" lon="11.4760432"><ele>206.0</ele><time>2026-05-02T15:03:56.677Z</time></trkpt><trkpt lat="43.2001866" lon="11.4761308"><ele>206.0</ele><time>2026-05-02T15:03:57.686Z</time></trkpt><trkpt lat="43.200259" lon="11.4762137"><ele>206.0</ele><time>2026-05-02T15:03:58.683Z</time></trkpt><trkpt lat="43.2003406" lon="11.4762952"><ele>206.0</ele><time>2026-05-02T15:03:59.683Z</time></trkpt><trkpt lat="43.2004247" lon="11.4763803"><ele>206.0</ele><time>2026-05-02T15:04:00.679Z</time></trkpt><trkpt lat="43.2005094" lon="11.4764696"><ele>206.8</ele><time>2026-05-02T15:04:01.7Z</time></trkpt><trkpt lat="43.2005916" lon="11.4765691"><ele>207.60000000000002</ele><time>2026-05-02T15:04:02.684Z</time></trkpt><trkpt lat="43.2006697" lon="11.4766768"><ele>208.4</ele><time>2026-05-02T15:04:03.688Z</time></trkpt><trkpt lat="43.2007382" lon="11.476795"><ele>209.2</ele><time>2026-05-02T15:04:04.689Z</time></trkpt><trkpt lat="43.2008027" lon="11.4769281"><ele>210.0</ele><time>2026-05-02T15:04:05.688Z</time></trkpt><trkpt lat="43.2008663" lon="11.47706"><ele>209.0</ele><time>2026-05-02T15:04:06.681Z</time></trkpt><trkpt lat="43.2009288" lon="11.4771953"><ele>208.0</ele><time>2026-05-02T15:04:07.693Z</time></trkpt><trkpt lat="43.2009903" lon="11.4773395"><ele>207.0</ele><time>2026-05-02T15:04:08.692Z</time></trkpt><trkpt lat="43.2010486" lon="11.4774854"><ele>206.0</ele><time>2026-05-02T15:04:09.688Z</time></trkpt><trkpt lat="43.2011052" lon="11.477634"><ele>206.0</ele><time>2026-05-02T15:04:10.691Z</time></trkpt><trkpt lat="43.2011582" lon="11.4777887"><ele>206.0</ele><time>2026-05-02T15:04:11.683Z</time></trkpt><trkpt lat="43.2012123" lon="11.4779422"><ele>206.0</ele><time>2026-05-02T15:04:12.68Z</time></trkpt><trkpt lat="43.2012694" lon="11.4780871"><ele>206.0</ele><time>2026-05-02T15:04:13.687Z</time></trkpt><trkpt lat="43.2013298" lon="11.4782282"><ele>206.75</ele><time>2026-05-02T15:04:14.691Z</time></trkpt><trkpt lat="43.2013888" lon="11.4783585"><ele>207.5</ele><time>2026-05-02T15:04:15.692Z</time></trkpt><trkpt lat="43.2014496" lon="11.4784944"><ele>208.25</ele><time>2026-05-02T15:04:16.699Z</time></trkpt><trkpt lat="43.2015075" lon="11.4786343"><ele>209.0</ele><time>2026-05-02T15:04:17.693Z</time></trkpt><trkpt lat="43.2015665" lon="11.4787818"><ele>210.0</ele><time>2026-05-02T15:04:18.708Z</time></trkpt><trkpt lat="43.2016179" lon="11.4789286"><ele>211.0</ele><time>2026-05-02T15:04:19.69Z</time></trkpt><trkpt lat="43.201665" lon="11.4790852"><ele>212.0</ele><time>2026-05-02T15:04:20.68Z</time></trkpt><trkpt lat="43.2017114" lon="11.4792496"><ele>213.0</ele><time>2026-05-02T15:04:21.68Z</time></trkpt><trkpt lat="43.2017558" lon="11.4794168"><ele>213.0</ele><time>2026-05-02T15:04:22.682Z</time></trkpt><trkpt lat="43.201799" lon="11.4795877"><ele>213.0</ele><time>2026-05-02T15:04:23.684Z</time></trkpt><trkpt lat="43.2018398" lon="11.4797605"><ele>213.0</ele><time>2026-05-02T15:04:24.692Z</time></trkpt><trkpt lat="43.2018919" lon="11.4799304"><ele>213.0</ele><time>2026-05-02T15:04:25.699Z</time></trkpt><trkpt lat="43.2019508" lon="11.4800981"><ele>212.75</ele><time>2026-05-02T15:04:26.68Z</time></trkpt><trkpt lat="43.2020125" lon="11.4802661"><ele>212.5</ele><time>2026-05-02T15:04:27.683Z</time></trkpt><trkpt lat="43.2020795" lon="11.4804309"><ele>212.25</ele><time>2026-05-02T15:04:28.684Z</time></trkpt><trkpt lat="43.2021401" lon="11.4805919"><ele>212.0</ele><time>2026-05-02T15:04:29.679Z</time></trkpt><trkpt lat="43.2021853" lon="11.4807543"><ele>212.5</ele><time>2026-05-02T15:04:30.685Z</time></trkpt><trkpt lat="43.2022201" lon="11.4809275"><ele>213.0</ele><time>2026-05-02T15:04:31.686Z</time></trkpt><trkpt lat="43.2022467" lon="11.4811063"><ele>213.5</ele><time>2026-05-02T15:04:32.692Z</time></trkpt><trkpt lat="43.2022696" lon="11.4812738"><ele>214.0</ele><time>2026-05-02T15:04:33.688Z</time></trkpt><trkpt lat="43.2022906" lon="11.4814302"><ele>214.0</ele><time>2026-05-02T15:04:34.739Z</time></trkpt><trkpt lat="43.2023072" lon="11.4815981"><ele>214.0</ele><time>2026-05-02T15:04:35.682Z</time></trkpt><trkpt lat="43.2023124" lon="11.4817737"><ele>214.0</ele><time>2026-05-02T15:04:36.676Z</time></trkpt><trkpt lat="43.2023014" lon="11.4819386"><ele>214.0</ele><time>2026-05-02T15:04:37.684Z</time></trkpt><trkpt lat="43.2022849" lon="11.4820965"><ele>215.79999999999998</ele><time>2026-05-02T15:04:38.695Z</time></trkpt><trkpt lat="43.2022569" lon="11.4822533"><ele>217.59999999999997</ele><time>2026-05-02T15:04:39.679Z</time></trkpt><trkpt lat="43.2022303" lon="11.4824109"><ele>219.4</ele><time>2026-05-02T15:04:40.697Z</time></trkpt><trkpt lat="43.2022114" lon="11.4825498"><ele>221.2</ele><time>2026-05-02T15:04:41.689Z</time></trkpt><trkpt lat="43.2022039" lon="11.4826961"><ele>223.0</ele><time>2026-05-02T15:04:42.687Z</time></trkpt><trkpt lat="43.2022054" lon="11.482839"><ele>225.8</ele><time>2026-05-02T15:04:43.693Z</time></trkpt><trkpt lat="43.2022133" lon="11.4829713"><ele>228.60000000000002</ele><time>2026-05-02T15:04:44.683Z</time></trkpt><trkpt lat="43.2022014" lon="11.4831104"><ele>231.39999999999998</ele><time>2026-05-02T15:04:45.693Z</time></trkpt><trkpt lat="43.2021695" lon="11.4832337"><ele>234.2</ele><time>2026-05-02T15:04:46.687Z</time></trkpt><trkpt lat="43.202122" lon="11.4833564"><ele>237.0</ele><time>2026-05-02T15:04:47.68Z</time></trkpt><trkpt lat="43.2020631" lon="11.4834662"><ele>237.0</ele><time>2026-05-02T15:04:48.683Z</time></trkpt><trkpt lat="43.2019946" lon="11.4835792"><ele>237.0</ele><time>2026-05-02T15:04:49.668Z</time></trkpt><trkpt lat="43.2019181" lon="11.483698"><ele>237.0</ele><time>2026-05-02T15:04:50.669Z</time></trkpt><trkpt lat="43.2018527" lon="11.4838123"><ele>237.0</ele><time>2026-05-02T15:04:51.67Z</time></trkpt><trkpt lat="43.201811" lon="11.4839158"><ele>237.0</ele><time>2026-05-02T15:04:52.674Z</time></trkpt><trkpt lat="43.2017875" lon="11.4840119"><ele>240.2</ele><time>2026-05-02T15:04:53.699Z</time></trkpt><trkpt lat="43.2017735" lon="11.4841155"><ele>243.39999999999998</ele><time>2026-05-02T15:04:54.683Z</time></trkpt><trkpt lat="43.2017884" lon="11.4842409"><ele>246.60000000000002</ele><time>2026-05-02T15:04:55.7Z</time></trkpt><trkpt lat="43.2018465" lon="11.4843636"><ele>249.8</ele><time>2026-05-02T15:04:56.683Z</time></trkpt><trkpt lat="43.2019037" lon="11.4844895"><ele>253.0</ele><time>2026-05-02T15:04:57.689Z</time></trkpt><trkpt lat="43.2019595" lon="11.4846163"><ele>254.8</ele><time>2026-05-02T15:04:58.685Z</time></trkpt><trkpt lat="43.2020008" lon="11.4847414"><ele>256.6</ele><time>2026-05-02T15:04:59.692Z</time></trkpt><trkpt lat="43.2020383" lon="11.4848779"><ele>258.4</ele><time>2026-05-02T15:05:00.679Z</time></trkpt><trkpt lat="43.2020719" lon="11.4850224"><ele>260.2</ele><time>2026-05-02T15:05:01.677Z</time></trkpt><trkpt lat="43.2021019" lon="11.4851695"><ele>262.0</ele><time>2026-05-02T15:05:02.686Z</time></trkpt><trkpt lat="43.2021336" lon="11.4853241"><ele>260.4</ele><time>2026-05-02T15:05:03.676Z</time></trkpt><trkpt lat="43.2021663" lon="11.4854544"><ele>258.79999999999995</ele><time>2026-05-02T15:05:04.677Z</time></trkpt><trkpt lat="43.2021943" lon="11.4855856"><ele>257.2</ele><time>2026-05-02T15:05:05.685Z</time></trkpt><trkpt lat="43.2022238" lon="11.4857256"><ele>255.6</ele><time>2026-05-02T15:05:06.681Z</time></trkpt><trkpt lat="43.202255" lon="11.4858622"><ele>254.0</ele><time>2026-05-02T15:05:07.692Z</time></trkpt><trkpt lat="43.2023063" lon="11.4860016"><ele>254.5</ele><time>2026-05-02T15:05:08.703Z</time></trkpt><trkpt lat="43.202367" lon="11.4861382"><ele>255.0</ele><time>2026-05-02T15:05:09.695Z</time></trkpt><trkpt lat="43.2024432" lon="11.4862641"><ele>255.5</ele><time>2026-05-02T15:05:10.689Z</time></trkpt><trkpt lat="43.202527" lon="11.4863869"><ele>256.0</ele><time>2026-05-02T15:05:11.681Z</time></trkpt><trkpt lat="43.2026184" lon="11.4864991"><ele>254.0</ele><time>2026-05-02T15:05:12.691Z</time></trkpt><trkpt lat="43.2027097" lon="11.4866082"><ele>252.0</ele><time>2026-05-02T15:05:13.693Z</time></trkpt><trkpt lat="43.2028033" lon="11.4867211"><ele>250.0</ele><time>2026-05-02T15:05:14.688Z</time></trkpt><trkpt lat="43.2028999" lon="11.4868308"><ele>248.0</ele><time>2026-05-02T15:05:15.694Z</time></trkpt><trkpt lat="43.2030029" lon="11.4869448"><ele>248.0</ele><time>2026-05-02T15:05:16.696Z</time></trkpt><trkpt lat="43.2030948" lon="11.4870592"><ele>248.0</ele><time>2026-05-02T15:05:17.686Z</time></trkpt><trkpt lat="43.2031904" lon="11.4871785"><ele>248.0</ele><time>2026-05-02T15:05:18.687Z</time></trkpt><trkpt lat="43.2032777" lon="11.4873007"><ele>248.0</ele><time>2026-05-02T15:05:19.685Z</time></trkpt><trkpt lat="43.2033719" lon="11.4874258"><ele>248.25</ele><time>2026-05-02T15:05:20.684Z</time></trkpt><trkpt lat="43.2034671" lon="11.4875515"><ele>248.5</ele><time>2026-05-02T15:05:21.693Z</time></trkpt><trkpt lat="43.2035557" lon="11.4876678"><ele>248.75</ele><time>2026-05-02T15:05:22.689Z</time></trkpt><trkpt lat="43.203646" lon="11.4878123"><ele>249.0</ele><time>2026-05-02T15:05:23.701Z</time></trkpt><trkpt lat="43.2037295" lon="11.4879613"><ele>245.75</ele><time>2026-05-02T15:05:24.69Z</time></trkpt><trkpt lat="43.2038164" lon="11.488117"><ele>242.5</ele><time>2026-05-02T15:05:25.696Z</time></trkpt><trkpt lat="43.2039012" lon="11.4882627"><ele>239.25</ele><time>2026-05-02T15:05:26.693Z</time></trkpt><trkpt lat="43.2039904" lon="11.4884117"><ele>236.0</ele><time>2026-05-02T15:05:27.69Z</time></trkpt><trkpt lat="43.204077" lon="11.4885635"><ele>239.0</ele><time>2026-05-02T15:05:28.673Z</time></trkpt><trkpt lat="43.2041661" lon="11.4887035"><ele>242.0</ele><time>2026-05-02T15:05:29.682Z</time></trkpt><trkpt lat="43.2042604" lon="11.4888319"><ele>245.0</ele><time>2026-05-02T15:05:30.68Z</time></trkpt><trkpt lat="43.2043589" lon="11.488962"><ele>248.0</ele><time>2026-05-02T15:05:31.701Z</time></trkpt><trkpt lat="43.2044435" lon="11.4890992"><ele>248.0</ele><time>2026-05-02T15:05:32.669Z</time></trkpt><trkpt lat="43.2045046" lon="11.4892333"><ele>248.0</ele><time>2026-05-02T15:05:33.69Z</time></trkpt><trkpt lat="43.204555" lon="11.4893803"><ele>248.0</ele><time>2026-05-02T15:05:34.688Z</time></trkpt><trkpt lat="43.204604" lon="11.4895348"><ele>248.0</ele><time>2026-05-02T15:05:35.696Z</time></trkpt><trkpt lat="43.2046531" lon="11.4896913"><ele>251.0</ele><time>2026-05-02T15:05:36.698Z</time></trkpt><trkpt lat="43.2047056" lon="11.4898465"><ele>254.0</ele><time>2026-05-02T15:05:37.692Z</time></trkpt><trkpt lat="43.2047515" lon="11.489993"><ele>257.0</ele><time>2026-05-02T15:05:38.68Z</time></trkpt><trkpt lat="43.2047999" lon="11.4901283"><ele>260.0</ele><time>2026-05-02T15:05:39.685Z</time></trkpt><trkpt lat="43.2048525" lon="11.4902626"><ele>260.0</ele><time>2026-05-02T15:05:40.686Z</time></trkpt><trkpt lat="43.204914" lon="11.4903771"><ele>260.0</ele><time>2026-05-02T15:05:41.689Z</time></trkpt><trkpt lat="43.2049915" lon="11.4904831"><ele>260.0</ele><time>2026-05-02T15:05:42.688Z</time></trkpt><trkpt lat="43.2050734" lon="11.4905867"><ele>260.0</ele><time>2026-05-02T15:05:43.673Z</time></trkpt><trkpt lat="43.2051613" lon="11.4906938"><ele>260.0</ele><time>2026-05-02T15:05:44.689Z</time></trkpt><trkpt lat="43.2052528" lon="11.4907847"><ele>259.5</ele><time>2026-05-02T15:05:45.686Z</time></trkpt><trkpt lat="43.2053555" lon="11.490852"><ele>259.0</ele><time>2026-05-02T15:05:46.691Z</time></trkpt><trkpt lat="43.2054587" lon="11.490885"><ele>258.5</ele><time>2026-05-02T15:05:47.7Z</time></trkpt><trkpt lat="43.2055709" lon="11.4909038"><ele>258.0</ele><time>2026-05-02T15:05:48.683Z</time></trkpt><trkpt lat="43.2056923" lon="11.4909116"><ele>258.0</ele><time>2026-05-02T15:05:49.675Z</time></trkpt><trkpt lat="43.2058076" lon="11.4909044"><ele>258.0</ele><time>2026-05-02T15:05:50.685Z</time></trkpt><trkpt lat="43.2059245" lon="11.4908947"><ele>258.0</ele><time>2026-05-02T15:05:51.675Z</time></trkpt><trkpt lat="43.2060482" lon="11.4908822"><ele>258.0</ele><time>2026-05-02T15:05:52.688Z</time></trkpt><trkpt lat="43.2061642" lon="11.4908861"><ele>258.0</ele><time>2026-05-02T15:05:53.694Z</time></trkpt><trkpt lat="43.2062722" lon="11.4908988"><ele>258.0</ele><time>2026-05-02T15:05:54.688Z</time></trkpt><trkpt lat="43.2063697" lon="11.4909319"><ele>258.0</ele><time>2026-05-02T15:05:55.678Z</time></trkpt><trkpt lat="43.2064582" lon="11.4909844"><ele>258.0</ele><time>2026-05-02T15:05:56.698Z</time></trkpt><trkpt lat="43.2065475" lon="11.4910578"><ele>258.0</ele><time>2026-05-02T15:05:57.69Z</time></trkpt><trkpt lat="43.2066321" lon="11.4911619"><ele>256.75</ele><time>2026-05-02T15:05:58.681Z</time></trkpt><trkpt lat="43.2067089" lon="11.4912867"><ele>255.5</ele><time>2026-05-02T15:05:59.681Z</time></trkpt><trkpt lat="43.2067776" lon="11.4914305"><ele>254.25</ele><time>2026-05-02T15:06:00.679Z</time></trkpt><trkpt lat="43.2068386" lon="11.4915837"><ele>253.0</ele><time>2026-05-02T15:06:01.687Z</time></trkpt><trkpt lat="43.2069058" lon="11.4917293"><ele>253.0</ele><time>2026-05-02T15:06:02.683Z</time></trkpt><trkpt lat="43.2069835" lon="11.4918684"><ele>253.0</ele><time>2026-05-02T15:06:03.681Z</time></trkpt><trkpt lat="43.2070725" lon="11.4919951"><ele>253.0</ele><time>2026-05-02T15:06:04.692Z</time></trkpt><trkpt lat="43.20717" lon="11.4921136"><ele>253.0</ele><time>2026-05-02T15:06:05.68Z</time></trkpt><trkpt lat="43.2072863" lon="11.4922346"><ele>251.33333333333331</ele><time>2026-05-02T15:06:06.682Z</time></trkpt><trkpt lat="43.2074202" lon="11.4923642"><ele>249.66666666666669</ele><time>2026-05-02T15:06:07.683Z</time></trkpt><trkpt lat="43.2075529" lon="11.4924961"><ele>248.0</ele><time>2026-05-02T15:06:08.683Z</time></trkpt><trkpt lat="43.2076867" lon="11.4926342"><ele>248.0</ele><time>2026-05-02T15:06:09.686Z</time></trkpt><trkpt lat="43.2078195" lon="11.492776"><ele>248.0</ele><time>2026-05-02T15:06:10.684Z</time></trkpt><trkpt lat="43.2079532" lon="11.4929193"><ele>248.0</ele><time>2026-05-02T15:06:11.682Z</time></trkpt><trkpt lat="43.2080879" lon="11.4930578"><ele>248.66666666666669</ele><time>2026-05-02T15:06:12.687Z</time></trkpt><trkpt lat="43.2082291" lon="11.4931904"><ele>249.33333333333331</ele><time>2026-05-02T15:06:13.687Z</time></trkpt><trkpt lat="43.2083646" lon="11.4933079"><ele>250.0</ele><time>2026-05-02T15:06:14.68Z</time></trkpt><trkpt lat="43.2084846" lon="11.493407"><ele>250.0</ele><time>2026-05-02T15:06:15.678Z</time></trkpt><trkpt lat="43.2085902" lon="11.4934988"><ele>250.0</ele><time>2026-05-02T15:06:16.68Z</time></trkpt><trkpt lat="43.208692" lon="11.493602"><ele>250.0</ele><time>2026-05-02T15:06:17.695Z</time></trkpt><trkpt lat="43.2087856" lon="11.4937202"><ele>250.0</ele><time>2026-05-02T15:06:18.682Z</time></trkpt><trkpt lat="43.208871" lon="11.4938706"><ele>253.0</ele><time>2026-05-02T15:06:19.686Z</time></trkpt><trkpt lat="43.2089518" lon="11.4940301"><ele>256.0</ele><time>2026-05-02T15:06:20.674Z</time></trkpt><trkpt lat="43.2090203" lon="11.4942218"><ele>259.0</ele><time>2026-05-02T15:06:21.688Z</time></trkpt><trkpt lat="43.2090811" lon="11.4944466"><ele>259.66666666666663</ele><time>2026-05-02T15:06:22.681Z</time></trkpt><trkpt lat="43.2091402" lon="11.4946667"><ele>260.3333333333333</ele><time>2026-05-02T15:06:23.689Z</time></trkpt><trkpt lat="43.2091889" lon="11.4948558"><ele>261.0</ele><time>2026-05-02T15:06:24.682Z</time></trkpt><trkpt lat="43.2092175" lon="11.4950361"><ele>261.0</ele><time>2026-05-02T15:06:25.69Z</time></trkpt><trkpt lat="43.2092277" lon="11.495196"><ele>261.0</ele><time>2026-05-02T15:06:26.695Z</time></trkpt><trkpt lat="43.209241" lon="11.4953235"><ele>261.0</ele><time>2026-05-02T15:06:27.672Z</time></trkpt><trkpt lat="43.2092654" lon="11.4954345"><ele>261.0</ele><time>2026-05-02T15:06:28.69Z</time></trkpt><trkpt lat="43.2093148" lon="11.4955596"><ele>261.0</ele><time>2026-05-02T15:06:29.684Z</time></trkpt><trkpt lat="43.2093722" lon="11.4956929"><ele>261.40000000000003</ele><time>2026-05-02T15:06:30.682Z</time></trkpt><trkpt lat="43.2094275" lon="11.4958152"><ele>261.8</ele><time>2026-05-02T15:06:31.686Z</time></trkpt><trkpt lat="43.2094634" lon="11.4959384"><ele>262.20000000000005</ele><time>2026-05-02T15:06:32.676Z</time></trkpt><trkpt lat="43.2094978" lon="11.496055"><ele>262.6</ele><time>2026-05-02T15:06:33.681Z</time></trkpt><trkpt lat="43.2095327" lon="11.4961647"><ele>263.0</ele><time>2026-05-02T15:06:34.685Z</time></trkpt><trkpt lat="43.2095641" lon="11.4962674"><ele>263.33333333333337</ele><time>2026-05-02T15:06:35.682Z</time></trkpt><trkpt lat="43.209608" lon="11.4963689"><ele>263.6666666666667</ele><time>2026-05-02T15:06:36.685Z</time></trkpt><trkpt lat="43.209658" lon="11.4964693"><ele>264.0</ele><time>2026-05-02T15:06:37.684Z</time></trkpt><trkpt lat="43.209718" lon="11.4965632"><ele>264.3333333333333</ele><time>2026-05-02T15:06:38.695Z</time></trkpt><trkpt lat="43.209783" lon="11.4966524"><ele>264.66666666666663</ele><time>2026-05-02T15:06:39.695Z</time></trkpt><trkpt lat="43.2098568" lon="11.4967272"><ele>265.0</ele><time>2026-05-02T15:06:40.691Z</time></trkpt><trkpt lat="43.2099346" lon="11.4967986"><ele>265.0</ele><time>2026-05-02T15:06:41.696Z</time></trkpt><trkpt lat="43.2100162" lon="11.4968579"><ele>265.0</ele><time>2026-05-02T15:06:42.679Z</time></trkpt><trkpt lat="43.2101008" lon="11.4969188"><ele>265.0</ele><time>2026-05-02T15:06:43.7Z</time></trkpt><trkpt lat="43.210188" lon="11.4969833"><ele>265.0</ele><time>2026-05-02T15:06:44.686Z</time></trkpt><trkpt lat="43.2102755" lon="11.4970512"><ele>265.0</ele><time>2026-05-02T15:06:45.687Z</time></trkpt><trkpt lat="43.2103684" lon="11.4971215"><ele>264.8</ele><time>2026-05-02T15:06:46.688Z</time></trkpt><trkpt lat="43.2104578" lon="11.4971934"><ele>264.6</ele><time>2026-05-02T15:06:47.69Z</time></trkpt><trkpt lat="43.2105465" lon="11.4972622"><ele>264.4</ele><time>2026-05-02T15:06:48.685Z</time></trkpt><trkpt lat="43.210632" lon="11.4973368"><ele>264.2</ele><time>2026-05-02T15:06:49.685Z</time></trkpt><trkpt lat="43.2107081" lon="11.497422"><ele>264.0</ele><time>2026-05-02T15:06:50.688Z</time></trkpt><trkpt lat="43.2107725" lon="11.4975209"><ele>264.0</ele><time>2026-05-02T15:06:51.692Z</time></trkpt><trkpt lat="43.210814" lon="11.4976244"><ele>264.0</ele><time>2026-05-02T15:06:52.693Z</time></trkpt><trkpt lat="43.2108459" lon="11.4977412"><ele>264.0</ele><time>2026-05-02T15:06:53.684Z</time></trkpt><trkpt lat="43.2108689" lon="11.4978696"><ele>264.0</ele><time>2026-05-02T15:06:54.683Z</time></trkpt><trkpt lat="43.210891" lon="11.4979987"><ele>264.0</ele><time>2026-05-02T15:06:55.685Z</time></trkpt><trkpt lat="43.2109101" lon="11.4981277"><ele>263.0</ele><time>2026-05-02T15:06:56.685Z</time></trkpt><trkpt lat="43.2109301" lon="11.4982532"><ele>262.0</ele><time>2026-05-02T15:06:57.687Z</time></trkpt><trkpt lat="43.210969" lon="11.4983683"><ele>261.0</ele><time>2026-05-02T15:06:58.681Z</time></trkpt><trkpt lat="43.2110265" lon="11.4984609"><ele>260.0</ele><time>2026-05-02T15:06:59.679Z</time></trkpt><trkpt lat="43.2110914" lon="11.4985504"><ele>259.0</ele><time>2026-05-02T15:07:00.683Z</time></trkpt><trkpt lat="43.2111642" lon="11.49862"><ele>259.0</ele><time>2026-05-02T15:07:01.684Z</time></trkpt><trkpt lat="43.2112422" lon="11.4986612"><ele>259.0</ele><time>2026-05-02T15:07:02.667Z</time></trkpt><trkpt lat="43.2113257" lon="11.4986781"><ele>259.0</ele><time>2026-05-02T15:07:03.687Z</time></trkpt><trkpt lat="43.2114184" lon="11.4986694"><ele>259.0</ele><time>2026-05-02T15:07:04.686Z</time></trkpt><trkpt lat="43.2115145" lon="11.4986687"><ele>259.0</ele><time>2026-05-02T15:07:05.682Z</time></trkpt><trkpt lat="43.2116152" lon="11.4986459"><ele>257.5</ele><time>2026-05-02T15:07:06.685Z</time></trkpt><trkpt lat="43.2117083" lon="11.4986165"><ele>256.0</ele><time>2026-05-02T15:07:07.685Z</time></trkpt><trkpt lat="43.2117903" lon="11.4985941"><ele>254.5</ele><time>2026-05-02T15:07:08.674Z</time></trkpt><trkpt lat="43.2118618" lon="11.4985814"><ele>253.0</ele><time>2026-05-02T15:07:09.68Z</time></trkpt><trkpt lat="43.211936" lon="11.4985976"><ele>251.49999999999997</ele><time>2026-05-02T15:07:10.683Z</time></trkpt><trkpt lat="43.2120068" lon="11.4986456"><ele>250.0</ele><time>2026-05-02T15:07:11.687Z</time></trkpt><trkpt lat="43.2120705" lon="11.4987237"><ele>248.99999999999997</ele><time>2026-05-02T15:07:12.681Z</time></trkpt><trkpt lat="43.2121288" lon="11.4988186"><ele>248.0</ele><time>2026-05-02T15:07:13.675Z</time></trkpt><trkpt lat="43.212174" lon="11.4989266"><ele>247.0</ele><time>2026-05-02T15:07:14.684Z</time></trkpt><trkpt lat="43.2122038" lon="11.4990479"><ele>246.0</ele><time>2026-05-02T15:07:15.681Z</time></trkpt><trkpt lat="43.2122169" lon="11.4991684"><ele>244.99999999999997</ele><time>2026-05-02T15:07:16.682Z</time></trkpt><trkpt lat="43.2122126" lon="11.4992782"><ele>244.0</ele><time>2026-05-02T15:07:17.688Z</time></trkpt><trkpt lat="43.2121923" lon="11.4993822"><ele>243.99999999999997</ele><time>2026-05-02T15:07:18.684Z</time></trkpt><trkpt lat="43.2121593" lon="11.4994659"><ele>244.0</ele><time>2026-05-02T15:07:19.672Z</time></trkpt><trkpt lat="43.2121046" lon="11.49954"><ele>244.0</ele><time>2026-05-02T15:07:20.695Z</time></trkpt><trkpt lat="43.2120367" lon="11.4995959"><ele>244.0</ele><time>2026-05-02T15:07:21.682Z</time></trkpt><trkpt lat="43.2119396" lon="11.4996347"><ele>243.99999999999997</ele><time>2026-05-02T15:07:22.687Z</time></trkpt><trkpt lat="43.2118404" lon="11.4996674"><ele>244.0</ele><time>2026-05-02T15:07:23.684Z</time></trkpt><trkpt lat="43.211745" lon="11.499704"><ele>241.39999999999998</ele><time>2026-05-02T15:07:24.692Z</time></trkpt><trkpt lat="43.2116728" lon="11.4997681"><ele>238.79999999999998</ele><time>2026-05-02T15:07:25.685Z</time></trkpt><trkpt lat="43.211617" lon="11.4998598"><ele>236.20000000000002</ele><time>2026-05-02T15:07:26.686Z</time></trkpt><trkpt lat="43.2115672" lon="11.4999624"><ele>233.60000000000002</ele><time>2026-05-02T15:07:27.689Z</time></trkpt><trkpt lat="43.2115362" lon="11.5000864"><ele>231.0</ele><time>2026-05-02T15:07:28.705Z</time></trkpt><trkpt lat="43.2115098" lon="11.500244"><ele>228.5</ele><time>2026-05-02T15:07:29.691Z</time></trkpt><trkpt lat="43.2114812" lon="11.5004084"><ele>226.0</ele><time>2026-05-02T15:07:30.677Z</time></trkpt><trkpt lat="43.2114512" lon="11.5005777"><ele>223.5</ele><time>2026-05-02T15:07:31.696Z</time></trkpt><trkpt lat="43.2114168" lon="11.500729"><ele>221.0</ele><time>2026-05-02T15:07:32.684Z</time></trkpt><trkpt lat="43.2113729" lon="11.5008489"><ele>220.60000000000002</ele><time>2026-05-02T15:07:33.675Z</time></trkpt><trkpt lat="43.2113154" lon="11.5009526"><ele>220.20000000000002</ele><time>2026-05-02T15:07:34.693Z</time></trkpt><trkpt lat="43.2112402" lon="11.501033"><ele>219.79999999999998</ele><time>2026-05-02T15:07:35.677Z</time></trkpt><trkpt lat="43.2111449" lon="11.5010884"><ele>219.39999999999998</ele><time>2026-05-02T15:07:36.691Z</time></trkpt><trkpt lat="43.2110474" lon="11.5011354"><ele>219.0</ele><time>2026-05-02T15:07:37.685Z</time></trkpt><trkpt lat="43.2109474" lon="11.5011854"><ele>219.2</ele><time>2026-05-02T15:07:38.686Z</time></trkpt><trkpt lat="43.2108552" lon="11.5012534"><ele>219.39999999999998</ele><time>2026-05-02T15:07:39.681Z</time></trkpt><trkpt lat="43.2107699" lon="11.5013419"><ele>219.6</ele><time>2026-05-02T15:07:40.688Z</time></trkpt><trkpt lat="43.2106871" lon="11.5014428"><ele>219.8</ele><time>2026-05-02T15:07:41.693Z</time></trkpt><trkpt lat="43.2106126" lon="11.5015636"><ele>220.0</ele><time>2026-05-02T15:07:42.683Z</time></trkpt><trkpt lat="43.2105584" lon="11.5017093"><ele>220.0</ele><time>2026-05-02T15:07:43.69Z</time></trkpt><trkpt lat="43.2105117" lon="11.5018737"><ele>220.0</ele><time>2026-05-02T15:07:44.69Z</time></trkpt><trkpt lat="43.2104667" lon="11.5020275"><ele>220.0</ele><time>2026-05-02T15:07:45.687Z</time></trkpt><trkpt lat="43.2104194" lon="11.502165"><ele>220.0</ele><time>2026-05-02T15:07:46.695Z</time></trkpt><trkpt lat="43.2103665" lon="11.502281"><ele>222.0</ele><time>2026-05-02T15:07:47.691Z</time></trkpt><trkpt lat="43.2102982" lon="11.5023742"><ele>224.0</ele><time>2026-05-02T15:07:48.694Z</time></trkpt><trkpt lat="43.210218" lon="11.5024511"><ele>226.0</ele><time>2026-05-02T15:07:49.69Z</time></trkpt><trkpt lat="43.2101385" lon="11.502526"><ele>228.0</ele><time>2026-05-02T15:07:50.686Z</time></trkpt><trkpt lat="43.2100564" lon="11.5026111"><ele>230.0</ele><time>2026-05-02T15:07:51.687Z</time></trkpt><trkpt lat="43.2099679" lon="11.5027073"><ele>230.0</ele><time>2026-05-02T15:07:52.684Z</time></trkpt><trkpt lat="43.2098709" lon="11.5028062"><ele>230.0</ele><time>2026-05-02T15:07:53.691Z</time></trkpt><trkpt lat="43.2097727" lon="11.502908"><ele>230.0</ele><time>2026-05-02T15:07:54.697Z</time></trkpt><trkpt lat="43.2096756" lon="11.5030136"><ele>230.0</ele><time>2026-05-02T15:07:55.693Z</time></trkpt><trkpt lat="43.2095747" lon="11.5031201"><ele>227.8</ele><time>2026-05-02T15:07:56.686Z</time></trkpt><trkpt lat="43.2094794" lon="11.503221"><ele>225.6</ele><time>2026-05-02T15:07:57.677Z</time></trkpt><trkpt lat="43.20939" lon="11.5033198"><ele>223.39999999999998</ele><time>2026-05-02T15:07:58.695Z</time></trkpt><trkpt lat="43.2093118" lon="11.5034241"><ele>221.2</ele><time>2026-05-02T15:07:59.691Z</time></trkpt><trkpt lat="43.2092454" lon="11.5035333"><ele>219.0</ele><time>2026-05-02T15:08:00.689Z</time></trkpt><trkpt lat="43.2091791" lon="11.5036541"><ele>216.25</ele><time>2026-05-02T15:08:01.68Z</time></trkpt><trkpt lat="43.2091107" lon="11.5037833"><ele>213.5</ele><time>2026-05-02T15:08:02.682Z</time></trkpt><trkpt lat="43.2090302" lon="11.5039255"><ele>210.75</ele><time>2026-05-02T15:08:03.686Z</time></trkpt><trkpt lat="43.2089492" lon="11.5040619"><ele>208.0</ele><time>2026-05-02T15:08:04.684Z</time></trkpt><trkpt lat="43.2088729" lon="11.5041884"><ele>208.0</ele><time>2026-05-02T15:08:05.684Z</time></trkpt><trkpt lat="43.2088014" lon="11.5043033"><ele>208.0</ele><time>2026-05-02T15:08:06.682Z</time></trkpt><trkpt lat="43.2087304" lon="11.5044046"><ele>208.0</ele><time>2026-05-02T15:08:07.702Z</time></trkpt><trkpt lat="43.2086513" lon="11.5044783"><ele>208.0</ele><time>2026-05-02T15:08:08.694Z</time></trkpt><trkpt lat="43.208567" lon="11.5045276"><ele>208.0</ele><time>2026-05-02T15:08:09.687Z</time></trkpt><trkpt lat="43.2084721" lon="11.5045597"><ele>204.8</ele><time>2026-05-02T15:08:10.681Z</time></trkpt><trkpt lat="43.2083745" lon="11.5045823"><ele>201.60000000000002</ele><time>2026-05-02T15:08:11.692Z</time></trkpt><trkpt lat="43.2082767" lon="11.5045869"><ele>198.39999999999998</ele><time>2026-05-02T15:08:12.696Z</time></trkpt><trkpt lat="43.2081799" lon="11.5045953"><ele>195.2</ele><time>2026-05-02T15:08:13.681Z</time></trkpt><trkpt lat="43.2080921" lon="11.5045977"><ele>192.0</ele><time>2026-05-02T15:08:14.677Z</time></trkpt><trkpt lat="43.2080152" lon="11.504586"><ele>192.0</ele><time>2026-05-02T15:08:15.687Z</time></trkpt><trkpt lat="43.2079444" lon="11.5045601"><ele>192.0</ele><time>2026-05-02T15:08:16.695Z</time></trkpt><trkpt lat="43.2078403" lon="11.5045502"><ele>192.0</ele><time>2026-05-02T15:08:18.687Z</time></trkpt><trkpt lat="43.2077832" lon="11.5046486"><ele>192.0</ele><time>2026-05-02T15:08:20.689Z</time></trkpt><trkpt lat="43.2078083" lon="11.5047508"><ele>192.0</ele><time>2026-05-02T15:08:22.691Z</time></trkpt><trkpt lat="43.2079003" lon="11.504798"><ele>192.0</ele><time>2026-05-02T15:08:24.685Z</time></trkpt><trkpt lat="43.2080021" lon="11.5048401"><ele>192.0</ele><time>2026-05-02T15:08:26.681Z</time></trkpt><trkpt lat="43.2081054" lon="11.5048809"><ele>192.0</ele><time>2026-05-02T15:08:28.688Z</time></trkpt><trkpt lat="43.2081804" lon="11.504915"><ele>192.0</ele><time>2026-05-02T15:08:29.689Z</time></trkpt><trkpt lat="43.2082558" lon="11.5049674"><ele>192.0</ele><time>2026-05-02T15:08:30.684Z</time></trkpt><trkpt lat="43.2083274" lon="11.5050116"><ele>192.0</ele><time>2026-05-02T15:08:31.694Z</time></trkpt><trkpt lat="43.2084038" lon="11.5050524"><ele>192.0</ele><time>2026-05-02T15:08:32.684Z</time></trkpt><trkpt lat="43.2084874" lon="11.5050855"><ele>192.0</ele><time>2026-05-02T15:08:33.677Z</time></trkpt><trkpt lat="43.2085764" lon="11.5051059"><ele>192.0</ele><time>2026-05-02T15:08:34.686Z</time></trkpt><trkpt lat="43.208669" lon="11.5051128"><ele>192.0</ele><time>2026-05-02T15:08:35.678Z</time></trkpt><trkpt lat="43.2087562" lon="11.5051172"><ele>192.0</ele><time>2026-05-02T15:08:36.687Z</time></trkpt><trkpt lat="43.2088313" lon="11.5051389"><ele>192.0</ele><time>2026-05-02T15:08:37.679Z</time></trkpt><trkpt lat="43.2089041" lon="11.5051582"><ele>192.0</ele><time>2026-05-02T15:08:38.689Z</time></trkpt><trkpt lat="43.2089763" lon="11.5051668"><ele>190.83333333333334</ele><time>2026-05-02T15:08:39.69Z</time></trkpt><trkpt lat="43.2090495" lon="11.5051488"><ele>189.66666666666666</ele><time>2026-05-02T15:08:40.692Z</time></trkpt><trkpt lat="43.2091234" lon="11.5051119"><ele>188.5</ele><time>2026-05-02T15:08:41.697Z</time></trkpt><trkpt lat="43.2091935" lon="11.5050658"><ele>187.33333333333331</ele><time>2026-05-02T15:08:42.687Z</time></trkpt><trkpt lat="43.2092667" lon="11.5050188"><ele>186.16666666666666</ele><time>2026-05-02T15:08:43.679Z</time></trkpt><trkpt lat="43.2093431" lon="11.5049783"><ele>185.0</ele><time>2026-05-02T15:08:44.687Z</time></trkpt><trkpt lat="43.209426" lon="11.5049415"><ele>185.0</ele><time>2026-05-02T15:08:45.682Z</time></trkpt><trkpt lat="43.2095114" lon="11.5049161"><ele>185.0</ele><time>2026-05-02T15:08:46.695Z</time></trkpt><trkpt lat="43.2096031" lon="11.5049154"><ele>185.0</ele><time>2026-05-02T15:08:47.682Z</time></trkpt><trkpt lat="43.2096923" lon="11.5049417"><ele>185.0</ele><time>2026-05-02T15:08:48.687Z</time></trkpt><trkpt lat="43.2097738" lon="11.5049896"><ele>185.0</ele><time>2026-05-02T15:08:49.687Z</time></trkpt><trkpt lat="43.2098564" lon="11.5050601"><ele>183.4</ele><time>2026-05-02T15:08:50.688Z</time></trkpt><trkpt lat="43.2099416" lon="11.5051416"><ele>181.8</ele><time>2026-05-02T15:08:51.684Z</time></trkpt><trkpt lat="43.2100286" lon="11.5052287"><ele>180.2</ele><time>2026-05-02T15:08:52.683Z</time></trkpt><trkpt lat="43.2101163" lon="11.505302"><ele>178.6</ele><time>2026-05-02T15:08:53.679Z</time></trkpt><trkpt lat="43.210202" lon="11.5053592"><ele>177.0</ele><time>2026-05-02T15:08:54.69Z</time></trkpt><trkpt lat="43.2102889" lon="11.5053992"><ele>174.8</ele><time>2026-05-02T15:08:55.688Z</time></trkpt><trkpt lat="43.2103711" lon="11.505425"><ele>172.6</ele><time>2026-05-02T15:08:56.69Z</time></trkpt><trkpt lat="43.2104591" lon="11.5054488"><ele>170.4</ele><time>2026-05-02T15:08:57.697Z</time></trkpt><trkpt lat="43.2105562" lon="11.5054623"><ele>168.20000000000002</ele><time>2026-05-02T15:08:58.679Z</time></trkpt><trkpt lat="43.2106586" lon="11.5054627"><ele>166.0</ele><time>2026-05-02T15:08:59.688Z</time></trkpt><trkpt lat="43.2107612" lon="11.5054434"><ele>167.60000000000002</ele><time>2026-05-02T15:09:00.682Z</time></trkpt><trkpt lat="43.2108644" lon="11.5054066"><ele>169.2</ele><time>2026-05-02T15:09:01.685Z</time></trkpt><trkpt lat="43.2109636" lon="11.5053687"><ele>170.8</ele><time>2026-05-02T15:09:02.691Z</time></trkpt><trkpt lat="43.2110571" lon="11.5053449"><ele>172.39999999999998</ele><time>2026-05-02T15:09:03.689Z</time></trkpt><trkpt lat="43.2111401" lon="11.5053429"><ele>174.0</ele><time>2026-05-02T15:09:04.675Z</time></trkpt><trkpt lat="43.211211" lon="11.5053616"><ele>174.0</ele><time>2026-05-02T15:09:05.678Z</time></trkpt><trkpt lat="43.211282" lon="11.5054095"><ele>174.0</ele><time>2026-05-02T15:09:06.68Z</time></trkpt><trkpt lat="43.211349" lon="11.5054967"><ele>174.0</ele><time>2026-05-02T15:09:07.688Z</time></trkpt><trkpt lat="43.2114037" lon="11.5056206"><ele>174.0</ele><time>2026-05-02T15:09:08.689Z</time></trkpt><trkpt lat="43.2114528" lon="11.50577"><ele>174.0</ele><time>2026-05-02T15:09:09.692Z</time></trkpt><trkpt lat="43.2114945" lon="11.5059534"><ele>171.0</ele><time>2026-05-02T15:09:10.697Z</time></trkpt><trkpt lat="43.2115466" lon="11.5061574"><ele>168.0</ele><time>2026-05-02T15:09:11.687Z</time></trkpt><trkpt lat="43.2116055" lon="11.5063635"><ele>165.0</ele><time>2026-05-02T15:09:12.681Z</time></trkpt><trkpt lat="43.2116669" lon="11.5065759"><ele>165.0</ele><time>2026-05-02T15:09:13.689Z</time></trkpt><trkpt lat="43.2117308" lon="11.5067899"><ele>165.0</ele><time>2026-05-02T15:09:14.686Z</time></trkpt><trkpt lat="43.2117897" lon="11.5070037"><ele>165.0</ele><time>2026-05-02T15:09:15.687Z</time></trkpt><trkpt lat="43.2118508" lon="11.5071851"><ele>164.8</ele><time>2026-05-02T15:09:16.69Z</time></trkpt><trkpt lat="43.2119022" lon="11.5073404"><ele>164.6</ele><time>2026-05-02T15:09:17.686Z</time></trkpt><trkpt lat="43.2119458" lon="11.5074648"><ele>164.39999999999998</ele><time>2026-05-02T15:09:18.697Z</time></trkpt><trkpt lat="43.212007" lon="11.5075767"><ele>164.2</ele><time>2026-05-02T15:09:19.686Z</time></trkpt><trkpt lat="43.2120813" lon="11.507671"><ele>164.0</ele><time>2026-05-02T15:09:20.709Z</time></trkpt><trkpt lat="43.2121734" lon="11.5077465"><ele>164.0</ele><time>2026-05-02T15:09:21.686Z</time></trkpt><trkpt lat="43.2122712" lon="11.5078126"><ele>164.0</ele><time>2026-05-02T15:09:22.672Z</time></trkpt><trkpt lat="43.212375" lon="11.5078737"><ele>164.0</ele><time>2026-05-02T15:09:23.686Z</time></trkpt><trkpt lat="43.2124749" lon="11.5079496"><ele>164.0</ele><time>2026-05-02T15:09:24.687Z</time></trkpt><trkpt lat="43.2125682" lon="11.5080674"><ele>163.33333333333331</ele><time>2026-05-02T15:09:25.688Z</time></trkpt><trkpt lat="43.2126554" lon="11.5082273"><ele>162.66666666666666</ele><time>2026-05-02T15:09:26.686Z</time></trkpt><trkpt lat="43.212736" lon="11.5084295"><ele>162.0</ele><time>2026-05-02T15:09:27.67Z</time></trkpt><trkpt lat="43.2128182" lon="11.5086049"><ele>161.75</ele><time>2026-05-02T15:09:28.687Z</time></trkpt><trkpt lat="43.2128911" lon="11.5087591"><ele>161.5</ele><time>2026-05-02T15:09:29.684Z</time></trkpt><trkpt lat="43.2129621" lon="11.5089074"><ele>161.25</ele><time>2026-05-02T15:09:30.679Z</time></trkpt><trkpt lat="43.2130285" lon="11.5090609"><ele>161.0</ele><time>2026-05-02T15:09:31.689Z</time></trkpt><trkpt lat="43.2131067" lon="11.509229"><ele>161.5</ele><time>2026-05-02T15:09:32.674Z</time></trkpt><trkpt lat="43.213181" lon="11.5093716"><ele>162.0</ele><time>2026-05-02T15:09:33.696Z</time></trkpt><trkpt lat="43.2132523" lon="11.5095013"><ele>162.5</ele><time>2026-05-02T15:09:34.685Z</time></trkpt><trkpt lat="43.2133346" lon="11.5096139"><ele>163.0</ele><time>2026-05-02T15:09:35.679Z</time></trkpt><trkpt lat="43.2134156" lon="11.5097094"><ele>163.0</ele><time>2026-05-02T15:09:36.691Z</time></trkpt><trkpt lat="43.2135007" lon="11.509803"><ele>163.0</ele><time>2026-05-02T15:09:37.693Z</time></trkpt><trkpt lat="43.2135775" lon="11.509889"><ele>163.0</ele><time>2026-05-02T15:09:38.698Z</time></trkpt><trkpt lat="43.213662" lon="11.50999"><ele>163.0</ele><time>2026-05-02T15:09:39.692Z</time></trkpt><trkpt lat="43.213754" lon="11.5101179"><ele>163.0</ele><time>2026-05-02T15:09:40.696Z</time></trkpt><trkpt lat="43.2138424" lon="11.5102589"><ele>163.0</ele><time>2026-05-02T15:09:41.695Z</time></trkpt><trkpt lat="43.2139293" lon="11.5103938"><ele>163.0</ele><time>2026-05-02T15:09:42.694Z</time></trkpt><trkpt lat="43.2140143" lon="11.5105333"><ele>163.0</ele><time>2026-05-02T15:09:43.691Z</time></trkpt><trkpt lat="43.2140873" lon="11.5106715"><ele>163.2</ele><time>2026-05-02T15:09:44.684Z</time></trkpt><trkpt lat="43.2141572" lon="11.5108022"><ele>163.4</ele><time>2026-05-02T15:09:45.686Z</time></trkpt><trkpt lat="43.2142095" lon="11.5109359"><ele>163.6</ele><time>2026-05-02T15:09:46.691Z</time></trkpt><trkpt lat="43.2142433" lon="11.5110747"><ele>163.79999999999998</ele><time>2026-05-02T15:09:47.673Z</time></trkpt><trkpt lat="43.2142636" lon="11.5112263"><ele>164.0</ele><time>2026-05-02T15:09:48.668Z</time></trkpt><trkpt lat="43.2142548" lon="11.5113697"><ele>164.39999999999998</ele><time>2026-05-02T15:09:49.677Z</time></trkpt><trkpt lat="43.2142293" lon="11.5115204"><ele>164.8</ele><time>2026-05-02T15:09:50.695Z</time></trkpt><trkpt lat="43.2142095" lon="11.5116495"><ele>165.2</ele><time>2026-05-02T15:09:51.687Z</time></trkpt><trkpt lat="43.2142008" lon="11.5117631"><ele>165.60000000000002</ele><time>2026-05-02T15:09:52.691Z</time></trkpt><trkpt lat="43.2142173" lon="11.5118832"><ele>166.0</ele><time>2026-05-02T15:09:53.687Z</time></trkpt><trkpt lat="43.2142464" lon="11.5120033"><ele>166.4</ele><time>2026-05-02T15:09:54.69Z</time></trkpt><trkpt lat="43.2142888" lon="11.5121203"><ele>166.8</ele><time>2026-05-02T15:09:55.697Z</time></trkpt><trkpt lat="43.2143528" lon="11.5122376"><ele>167.20000000000002</ele><time>2026-05-02T15:09:56.676Z</time></trkpt><trkpt lat="43.2144331" lon="11.5123371"><ele>167.60000000000002</ele><time>2026-05-02T15:09:57.674Z</time></trkpt><trkpt lat="43.2145313" lon="11.5124358"><ele>168.0</ele><time>2026-05-02T15:09:58.704Z</time></trkpt><trkpt lat="43.2146424" lon="11.5125455"><ele>168.0</ele><time>2026-05-02T15:09:59.694Z</time></trkpt><trkpt lat="43.2147773" lon="11.5126713"><ele>168.0</ele><time>2026-05-02T15:10:00.687Z</time></trkpt><trkpt lat="43.2149145" lon="11.5128059"><ele>168.0</ele><time>2026-05-02T15:10:01.689Z</time></trkpt><trkpt lat="43.2150359" lon="11.5129258"><ele>171.0</ele><time>2026-05-02T15:10:02.687Z</time></trkpt><trkpt lat="43.2151448" lon="11.5130438"><ele>174.0</ele><time>2026-05-02T15:10:03.691Z</time></trkpt><trkpt lat="43.2152388" lon="11.5131626"><ele>177.0</ele><time>2026-05-02T15:10:04.672Z</time></trkpt><trkpt lat="43.215312" lon="11.5132758"><ele>180.0</ele><time>2026-05-02T15:10:05.683Z</time></trkpt><trkpt lat="43.215381" lon="11.5133994"><ele>180.0</ele><time>2026-05-02T15:10:06.688Z</time></trkpt><trkpt lat="43.215439" lon="11.5135486"><ele>180.0</ele><time>2026-05-02T15:10:07.689Z</time></trkpt><trkpt lat="43.2154832" lon="11.5137046"><ele>180.0</ele><time>2026-05-02T15:10:08.686Z</time></trkpt><trkpt lat="43.2155082" lon="11.5138604"><ele>180.0</ele><time>2026-05-02T15:10:09.686Z</time></trkpt><trkpt lat="43.2155342" lon="11.514017"><ele>180.5</ele><time>2026-05-02T15:10:10.682Z</time></trkpt><trkpt lat="43.2155718" lon="11.5141758"><ele>181.0</ele><time>2026-05-02T15:10:11.681Z</time></trkpt><trkpt lat="43.2156237" lon="11.5143439"><ele>181.5</ele><time>2026-05-02T15:10:12.681Z</time></trkpt><trkpt lat="43.2156838" lon="11.5145253"><ele>182.0</ele><time>2026-05-02T15:10:13.697Z</time></trkpt><trkpt lat="43.2157529" lon="11.5147143"><ele>179.33333333333331</ele><time>2026-05-02T15:10:14.674Z</time></trkpt><trkpt lat="43.2158211" lon="11.5149128"><ele>176.66666666666666</ele><time>2026-05-02T15:10:15.682Z</time></trkpt><trkpt lat="43.2158886" lon="11.5151109"><ele>174.0</ele><time>2026-05-02T15:10:16.692Z</time></trkpt><trkpt lat="43.2159565" lon="11.5153069"><ele>172.0</ele><time>2026-05-02T15:10:17.683Z</time></trkpt><trkpt lat="43.2160332" lon="11.515509"><ele>170.0</ele><time>2026-05-02T15:10:18.694Z</time></trkpt><trkpt lat="43.2161189" lon="11.5157068"><ele>168.0</ele><time>2026-05-02T15:10:19.686Z</time></trkpt><trkpt lat="43.2162126" lon="11.5158937"><ele>168.0</ele><time>2026-05-02T15:10:20.695Z</time></trkpt><trkpt lat="43.216308" lon="11.5160796"><ele>168.0</ele><time>2026-05-02T15:10:21.693Z</time></trkpt><trkpt lat="43.2164038" lon="11.5162741"><ele>168.0</ele><time>2026-05-02T15:10:22.681Z</time></trkpt><trkpt lat="43.216499" lon="11.5164671"><ele>168.33333333333334</ele><time>2026-05-02T15:10:23.689Z</time></trkpt><trkpt lat="43.2165944" lon="11.5166571"><ele>168.66666666666669</ele><time>2026-05-02T15:10:24.681Z</time></trkpt><trkpt lat="43.2166873" lon="11.5168508"><ele>169.0</ele><time>2026-05-02T15:10:25.697Z</time></trkpt><trkpt lat="43.2167778" lon="11.5170493"><ele>169.33333333333334</ele><time>2026-05-02T15:10:26.69Z</time></trkpt><trkpt lat="43.2168661" lon="11.5172509"><ele>169.66666666666666</ele><time>2026-05-02T15:10:27.684Z</time></trkpt><trkpt lat="43.216951" lon="11.5174561"><ele>170.0</ele><time>2026-05-02T15:10:28.692Z</time></trkpt><trkpt lat="43.2170329" lon="11.5176617"><ele>170.0</ele><time>2026-05-02T15:10:29.694Z</time></trkpt><trkpt lat="43.2171078" lon="11.5178415"><ele>170.0</ele><time>2026-05-02T15:10:30.687Z</time></trkpt><trkpt lat="43.2171731" lon="11.5180038"><ele>170.0</ele><time>2026-05-02T15:10:31.687Z</time></trkpt><trkpt lat="43.2172283" lon="11.5181346"><ele>170.0</ele><time>2026-05-02T15:10:32.684Z</time></trkpt><trkpt lat="43.2172785" lon="11.5182599"><ele>170.8</ele><time>2026-05-02T15:10:33.681Z</time></trkpt><trkpt lat="43.2173272" lon="11.5183701"><ele>171.6</ele><time>2026-05-02T15:10:34.686Z</time></trkpt><trkpt lat="43.2173698" lon="11.5184868"><ele>172.39999999999998</ele><time>2026-05-02T15:10:35.684Z</time></trkpt><trkpt lat="43.2174097" lon="11.5186084"><ele>173.2</ele><time>2026-05-02T15:10:36.688Z</time></trkpt><trkpt lat="43.2174439" lon="11.5187368"><ele>174.0</ele><time>2026-05-02T15:10:37.679Z</time></trkpt><trkpt lat="43.217471" lon="11.5188808"><ele>174.0</ele><time>2026-05-02T15:10:38.694Z</time></trkpt><trkpt lat="43.2174905" lon="11.5190334"><ele>174.0</ele><time>2026-05-02T15:10:39.694Z</time></trkpt><trkpt lat="43.2174972" lon="11.5191965"><ele>174.0</ele><time>2026-05-02T15:10:40.689Z</time></trkpt><trkpt lat="43.2174892" lon="11.5193614"><ele>174.0</ele><time>2026-05-02T15:10:41.688Z</time></trkpt><trkpt lat="43.2174769" lon="11.5195214"><ele>175.5</ele><time>2026-05-02T15:10:42.694Z</time></trkpt><trkpt lat="43.2174668" lon="11.5196873"><ele>177.0</ele><time>2026-05-02T15:10:43.682Z</time></trkpt><trkpt lat="43.2174577" lon="11.519847"><ele>178.5</ele><time>2026-05-02T15:10:44.678Z</time></trkpt><trkpt lat="43.2174479" lon="11.5200028"><ele>180.0</ele><time>2026-05-02T15:10:45.689Z</time></trkpt><trkpt lat="43.2174376" lon="11.5201584"><ele>180.0</ele><time>2026-05-02T15:10:46.686Z</time></trkpt><trkpt lat="43.217424" lon="11.5203147"><ele>180.0</ele><time>2026-05-02T15:10:47.688Z</time></trkpt><trkpt lat="43.2174065" lon="11.5204648"><ele>180.0</ele><time>2026-05-02T15:10:48.693Z</time></trkpt><trkpt lat="43.2174044" lon="11.5206082"><ele>180.0</ele><time>2026-05-02T15:10:49.679Z</time></trkpt><trkpt lat="43.21741" lon="11.5207379"><ele>180.0</ele><time>2026-05-02T15:10:50.682Z</time></trkpt><trkpt lat="43.2174337" lon="11.5208653"><ele>179.8</ele><time>2026-05-02T15:10:51.687Z</time></trkpt><trkpt lat="43.2174646" lon="11.5209813"><ele>179.6</ele><time>2026-05-02T15:10:52.698Z</time></trkpt><trkpt lat="43.2175124" lon="11.5211025"><ele>179.39999999999998</ele><time>2026-05-02T15:10:53.673Z</time></trkpt><trkpt lat="43.2175818" lon="11.5212173"><ele>179.2</ele><time>2026-05-02T15:10:54.687Z</time></trkpt><trkpt lat="43.2176605" lon="11.5213209"><ele>179.0</ele><time>2026-05-02T15:10:55.687Z</time></trkpt><trkpt lat="43.2177534" lon="11.5213959"><ele>179.0</ele><time>2026-05-02T15:10:56.692Z</time></trkpt><trkpt lat="43.2178633" lon="11.5214588"><ele>179.0</ele><time>2026-05-02T15:10:57.693Z</time></trkpt><trkpt lat="43.2179637" lon="11.5215183"><ele>179.0</ele><time>2026-05-02T15:10:58.687Z</time></trkpt><trkpt lat="43.2180503" lon="11.521581"><ele>179.0</ele><time>2026-05-02T15:10:59.695Z</time></trkpt><trkpt lat="43.2181169" lon="11.5216668"><ele>179.0</ele><time>2026-05-02T15:11:00.688Z</time></trkpt><trkpt lat="43.2181572" lon="11.5217757"><ele>179.2</ele><time>2026-05-02T15:11:01.687Z</time></trkpt><trkpt lat="43.2181688" lon="11.5218964"><ele>179.39999999999998</ele><time>2026-05-02T15:11:02.677Z</time></trkpt><trkpt lat="43.2181744" lon="11.5220316"><ele>179.6</ele><time>2026-05-02T15:11:03.679Z</time></trkpt><trkpt lat="43.2181849" lon="11.5221762"><ele>179.8</ele><time>2026-05-02T15:11:04.687Z</time></trkpt><trkpt lat="43.2182085" lon="11.5223097"><ele>180.0</ele><time>2026-05-02T15:11:05.682Z</time></trkpt><trkpt lat="43.2182426" lon="11.5224343"><ele>180.0</ele><time>2026-05-02T15:11:06.681Z</time></trkpt><trkpt lat="43.2182803" lon="11.5225496"><ele>180.0</ele><time>2026-05-02T15:11:07.682Z</time></trkpt><trkpt lat="43.2183186" lon="11.5226746"><ele>180.0</ele><time>2026-05-02T15:11:08.69Z</time></trkpt><trkpt lat="43.218358" lon="11.5228034"><ele>180.0</ele><time>2026-05-02T15:11:09.678Z</time></trkpt><trkpt lat="43.2183992" lon="11.5229296"><ele>180.0</ele><time>2026-05-02T15:11:10.69Z</time></trkpt><trkpt lat="43.21845" lon="11.5230611"><ele>178.0</ele><time>2026-05-02T15:11:11.696Z</time></trkpt><trkpt lat="43.2185112" lon="11.5231859"><ele>176.0</ele><time>2026-05-02T15:11:12.679Z</time></trkpt><trkpt lat="43.2185769" lon="11.5233132"><ele>174.0</ele><time>2026-05-02T15:11:13.686Z</time></trkpt><trkpt lat="43.218652" lon="11.5234455"><ele>172.0</ele><time>2026-05-02T15:11:14.687Z</time></trkpt><trkpt lat="43.2187287" lon="11.5235874"><ele>172.0</ele><time>2026-05-02T15:11:15.695Z</time></trkpt><trkpt lat="43.2188071" lon="11.5237294"><ele>172.0</ele><time>2026-05-02T15:11:16.692Z</time></trkpt><trkpt lat="43.2188886" lon="11.5238751"><ele>172.0</ele><time>2026-05-02T15:11:17.693Z</time></trkpt><trkpt lat="43.2189763" lon="11.5240214"><ele>172.0</ele><time>2026-05-02T15:11:18.693Z</time></trkpt><trkpt lat="43.2190612" lon="11.5241718"><ele>172.0</ele><time>2026-05-02T15:11:19.684Z</time></trkpt><trkpt lat="43.2191457" lon="11.5243177"><ele>172.0</ele><time>2026-05-02T15:11:20.695Z</time></trkpt><trkpt lat="43.219228" lon="11.5244652"><ele>172.0</ele><time>2026-05-02T15:11:21.677Z</time></trkpt><trkpt lat="43.2193129" lon="11.5246085"><ele>172.0</ele><time>2026-05-02T15:11:22.689Z</time></trkpt><trkpt lat="43.2193986" lon="11.5247338"><ele>172.2</ele><time>2026-05-02T15:11:23.683Z</time></trkpt><trkpt lat="43.2194792" lon="11.5248351"><ele>172.39999999999998</ele><time>2026-05-02T15:11:24.691Z</time></trkpt><trkpt lat="43.2195619" lon="11.5249276"><ele>172.60000000000002</ele><time>2026-05-02T15:11:25.687Z</time></trkpt><trkpt lat="43.2196468" lon="11.5249873"><ele>172.8</ele><time>2026-05-02T15:11:26.678Z</time></trkpt><trkpt lat="43.2197333" lon="11.5250231"><ele>173.0</ele><time>2026-05-02T15:11:27.696Z</time></trkpt><trkpt lat="43.2198262" lon="11.5250303"><ele>173.0</ele><time>2026-05-02T15:11:28.692Z</time></trkpt><trkpt lat="43.2199244" lon="11.5250032"><ele>173.0</ele><time>2026-05-02T15:11:29.697Z</time></trkpt><trkpt lat="43.220012" lon="11.5249626"><ele>173.0</ele><time>2026-05-02T15:11:30.693Z</time></trkpt><trkpt lat="43.2201134" lon="11.5249153"><ele>173.0</ele><time>2026-05-02T15:11:31.693Z</time></trkpt><trkpt lat="43.2202209" lon="11.5248802"><ele>173.0</ele><time>2026-05-02T15:11:32.686Z</time></trkpt><trkpt lat="43.2203287" lon="11.5248555"><ele>173.0</ele><time>2026-05-02T15:11:33.696Z</time></trkpt><trkpt lat="43.2204415" lon="11.5248579"><ele>173.0</ele><time>2026-05-02T15:11:34.68Z</time></trkpt><trkpt lat="43.2205575" lon="11.5249024"><ele>173.0</ele><time>2026-05-02T15:11:35.699Z</time></trkpt><trkpt lat="43.2206723" lon="11.5249748"><ele>173.0</ele><time>2026-05-02T15:11:36.686Z</time></trkpt><trkpt lat="43.2207711" lon="11.5250637"><ele>174.25</ele><time>2026-05-02T15:11:37.686Z</time></trkpt><trkpt lat="43.2208743" lon="11.52514"><ele>175.5</ele><time>2026-05-02T15:11:38.686Z</time></trkpt><trkpt lat="43.2209838" lon="11.5252022"><ele>176.75</ele><time>2026-05-02T15:11:39.677Z</time></trkpt><trkpt lat="43.221098" lon="11.5252456"><ele>178.0</ele><time>2026-05-02T15:11:40.684Z</time></trkpt><trkpt lat="43.2212175" lon="11.5252706"><ele>178.0</ele><time>2026-05-02T15:11:41.697Z</time></trkpt><trkpt lat="43.2213384" lon="11.5252863"><ele>178.0</ele><time>2026-05-02T15:11:42.707Z</time></trkpt><trkpt lat="43.2214653" lon="11.5253034"><ele>178.0</ele><time>2026-05-02T15:11:43.685Z</time></trkpt><trkpt lat="43.2216" lon="11.5253271"><ele>178.0</ele><time>2026-05-02T15:11:44.68Z</time></trkpt><trkpt lat="43.2217384" lon="11.525348"><ele>179.5</ele><time>2026-05-02T15:11:45.686Z</time></trkpt><trkpt lat="43.2218825" lon="11.5253775"><ele>181.0</ele><time>2026-05-02T15:11:46.693Z</time></trkpt><trkpt lat="43.2220238" lon="11.5254085"><ele>182.5</ele><time>2026-05-02T15:11:47.69Z</time></trkpt><trkpt lat="43.2221643" lon="11.5254329"><ele>184.0</ele><time>2026-05-02T15:11:48.693Z</time></trkpt><trkpt lat="43.2223023" lon="11.5254563"><ele>180.25</ele><time>2026-05-02T15:11:49.689Z</time></trkpt><trkpt lat="43.2224286" lon="11.5254617"><ele>176.5</ele><time>2026-05-02T15:11:50.69Z</time></trkpt><trkpt lat="43.2225433" lon="11.5254722"><ele>172.75</ele><time>2026-05-02T15:11:51.694Z</time></trkpt><trkpt lat="43.2226592" lon="11.5255001"><ele>169.0</ele><time>2026-05-02T15:11:52.69Z</time></trkpt><trkpt lat="43.22277" lon="11.5255712"><ele>169.0</ele><time>2026-05-02T15:11:53.681Z</time></trkpt><trkpt lat="43.222875" lon="11.5256657"><ele>169.0</ele><time>2026-05-02T15:11:54.681Z</time></trkpt><trkpt lat="43.2229773" lon="11.5257763"><ele>169.0</ele><time>2026-05-02T15:11:55.678Z</time></trkpt><trkpt lat="43.2230714" lon="11.5258671"><ele>169.0</ele><time>2026-05-02T15:11:56.692Z</time></trkpt><trkpt lat="43.2231634" lon="11.5259147"><ele>170.39999999999998</ele><time>2026-05-02T15:11:57.695Z</time></trkpt><trkpt lat="43.2232539" lon="11.5259475"><ele>171.8</ele><time>2026-05-02T15:11:58.682Z</time></trkpt><trkpt lat="43.2233503" lon="11.5259645"><ele>173.2</ele><time>2026-05-02T15:11:59.69Z</time></trkpt><trkpt lat="43.2234374" lon="11.5259642"><ele>174.60000000000002</ele><time>2026-05-02T15:12:00.686Z</time></trkpt><trkpt lat="43.2235275" lon="11.5259573"><ele>176.0</ele><time>2026-05-02T15:12:01.69Z</time></trkpt><trkpt lat="43.2236249" lon="11.5259624"><ele>176.0</ele><time>2026-05-02T15:12:02.688Z</time></trkpt><trkpt lat="43.2237267" lon="11.5259701"><ele>176.0</ele><time>2026-05-02T15:12:03.677Z</time></trkpt><trkpt lat="43.223828" lon="11.5259653"><ele>176.0</ele><time>2026-05-02T15:12:04.727Z</time></trkpt><trkpt lat="43.2239363" lon="11.5259541"><ele>176.0</ele><time>2026-05-02T15:12:05.69Z</time></trkpt><trkpt lat="43.2240477" lon="11.5259354"><ele>176.0</ele><time>2026-05-02T15:12:06.683Z</time></trkpt><trkpt lat="43.2241657" lon="11.5259188"><ele>176.25</ele><time>2026-05-02T15:12:07.678Z</time></trkpt><trkpt lat="43.2242929" lon="11.5259165"><ele>176.5</ele><time>2026-05-02T15:12:08.694Z</time></trkpt><trkpt lat="43.2244257" lon="11.5259332"><ele>176.75</ele><time>2026-05-02T15:12:09.694Z</time></trkpt><trkpt lat="43.2245605" lon="11.5259709"><ele>177.0</ele><time>2026-05-02T15:12:10.685Z</time></trkpt><trkpt lat="43.224695" lon="11.5260146"><ele>177.75</ele><time>2026-05-02T15:12:11.677Z</time></trkpt><trkpt lat="43.2248377" lon="11.5260495"><ele>178.5</ele><time>2026-05-02T15:12:12.694Z</time></trkpt><trkpt lat="43.2249832" lon="11.5260808"><ele>179.25</ele><time>2026-05-02T15:12:13.686Z</time></trkpt><trkpt lat="43.2251203" lon="11.5261146"><ele>180.0</ele><time>2026-05-02T15:12:14.705Z</time></trkpt><trkpt lat="43.2252449" lon="11.5261446"><ele>180.0</ele><time>2026-05-02T15:12:15.688Z</time></trkpt><trkpt lat="43.2253536" lon="11.5261685"><ele>180.0</ele><time>2026-05-02T15:12:16.688Z</time></trkpt><trkpt lat="43.2254577" lon="11.5261961"><ele>180.0</ele><time>2026-05-02T15:12:17.687Z</time></trkpt><trkpt lat="43.2255603" lon="11.52623"><ele>180.0</ele><time>2026-05-02T15:12:18.688Z</time></trkpt><trkpt lat="43.2256653" lon="11.5262653"><ele>180.0</ele><time>2026-05-02T15:12:19.693Z</time></trkpt><trkpt lat="43.2257657" lon="11.5263173"><ele>179.0</ele><time>2026-05-02T15:12:20.685Z</time></trkpt><trkpt lat="43.2258618" lon="11.5263637"><ele>178.0</ele><time>2026-05-02T15:12:21.679Z</time></trkpt><trkpt lat="43.2259548" lon="11.5263969"><ele>177.0</ele><time>2026-05-02T15:12:22.695Z</time></trkpt><trkpt lat="43.2260549" lon="11.526413"><ele>176.0</ele><time>2026-05-02T15:12:23.687Z</time></trkpt><trkpt lat="43.2261655" lon="11.5264159"><ele>175.0</ele><time>2026-05-02T15:12:24.711Z</time></trkpt><trkpt lat="43.2262907" lon="11.5264148"><ele>175.0</ele><time>2026-05-02T15:12:25.696Z</time></trkpt><trkpt lat="43.2264272" lon="11.5264062"><ele>175.0</ele><time>2026-05-02T15:12:26.689Z</time></trkpt><trkpt lat="43.2265588" lon="11.5263937"><ele>175.0</ele><time>2026-05-02T15:12:27.68Z</time></trkpt><trkpt lat="43.226681" lon="11.5263798"><ele>175.0</ele><time>2026-05-02T15:12:28.685Z</time></trkpt><trkpt lat="43.2267953" lon="11.5263716"><ele>175.4</ele><time>2026-05-02T15:12:29.684Z</time></trkpt><trkpt lat="43.2268984" lon="11.5263709"><ele>175.8</ele><time>2026-05-02T15:12:30.69Z</time></trkpt><trkpt lat="43.2270003" lon="11.5263743"><ele>176.2</ele><time>2026-05-02T15:12:31.696Z</time></trkpt><trkpt lat="43.227101" lon="11.5263918"><ele>176.6</ele><time>2026-05-02T15:12:32.678Z</time></trkpt><trkpt lat="43.2271958" lon="11.5264218"><ele>177.0</ele><time>2026-05-02T15:12:33.693Z</time></trkpt><trkpt lat="43.2272899" lon="11.5264696"><ele>176.0</ele><time>2026-05-02T15:12:34.678Z</time></trkpt><trkpt lat="43.2273773" lon="11.5265528"><ele>175.0</ele><time>2026-05-02T15:12:35.685Z</time></trkpt><trkpt lat="43.2274685" lon="11.5266436"><ele>174.0</ele><time>2026-05-02T15:12:36.683Z</time></trkpt><trkpt lat="43.2275648" lon="11.5267569"><ele>173.0</ele><time>2026-05-02T15:12:37.689Z</time></trkpt><trkpt lat="43.2276648" lon="11.5268634"><ele>173.0</ele><time>2026-05-02T15:12:38.694Z</time></trkpt><trkpt lat="43.2277691" lon="11.5269709"><ele>173.0</ele><time>2026-05-02T15:12:39.689Z</time></trkpt><trkpt lat="43.2278774" lon="11.527072"><ele>173.0</ele><time>2026-05-02T15:12:40.692Z</time></trkpt><trkpt lat="43.2279931" lon="11.5271583"><ele>173.0</ele><time>2026-05-02T15:12:41.686Z</time></trkpt><trkpt lat="43.2281219" lon="11.5272265"><ele>171.75</ele><time>2026-05-02T15:12:42.685Z</time></trkpt><trkpt lat="43.2282607" lon="11.5272926"><ele>170.5</ele><time>2026-05-02T15:12:43.682Z</time></trkpt><trkpt lat="43.2283947" lon="11.5273529"><ele>169.25</ele><time>2026-05-02T15:12:44.685Z</time></trkpt><trkpt lat="43.2285231" lon="11.527416"><ele>168.0</ele><time>2026-05-02T15:12:45.687Z</time></trkpt><trkpt lat="43.2286372" lon="11.5274831"><ele>168.0</ele><time>2026-05-02T15:12:46.688Z</time></trkpt><trkpt lat="43.2287485" lon="11.5275656"><ele>168.0</ele><time>2026-05-02T15:12:47.687Z</time></trkpt><trkpt lat="43.228854" lon="11.5276841"><ele>168.0</ele><time>2026-05-02T15:12:48.69Z</time></trkpt><trkpt lat="43.2289671" lon="11.5278115"><ele>168.0</ele><time>2026-05-02T15:12:49.681Z</time></trkpt><trkpt lat="43.2290766" lon="11.5279522"><ele>170.0</ele><time>2026-05-02T15:12:50.684Z</time></trkpt><trkpt lat="43.2291908" lon="11.5280994"><ele>172.0</ele><time>2026-05-02T15:12:51.685Z</time></trkpt><trkpt lat="43.2293126" lon="11.528241"><ele>174.0</ele><time>2026-05-02T15:12:52.683Z</time></trkpt><trkpt lat="43.2294258" lon="11.5283724"><ele>174.0</ele><time>2026-05-02T15:12:53.679Z</time></trkpt><trkpt lat="43.22952" lon="11.5284789"><ele>174.0</ele><time>2026-05-02T15:12:54.687Z</time></trkpt><trkpt lat="43.2296013" lon="11.5285729"><ele>174.0</ele><time>2026-05-02T15:12:55.692Z</time></trkpt><trkpt lat="43.2296782" lon="11.528643"><ele>174.0</ele><time>2026-05-02T15:12:56.679Z</time></trkpt><trkpt lat="43.2297387" lon="11.5286985"><ele>174.0</ele><time>2026-05-02T15:12:57.689Z</time></trkpt><trkpt lat="43.2298175" lon="11.5287468"><ele>174.39999999999998</ele><time>2026-05-02T15:12:59.68Z</time></trkpt><trkpt lat="43.2298798" lon="11.5287825"><ele>174.8</ele><time>2026-05-02T15:13:12.689Z</time></trkpt><trkpt lat="43.2299769" lon="11.5288729"><ele>175.2</ele><time>2026-05-02T15:13:14.685Z</time></trkpt><trkpt lat="43.2300304" lon="11.5289468"><ele>175.60000000000002</ele><time>2026-05-02T15:13:15.677Z</time></trkpt><trkpt lat="43.2301008" lon="11.5290398"><ele>176.0</ele><time>2026-05-02T15:13:16.688Z</time></trkpt><trkpt lat="43.2301744" lon="11.5291485"><ele>176.0</ele><time>2026-05-02T15:13:17.686Z</time></trkpt><trkpt lat="43.2302586" lon="11.5292657"><ele>176.0</ele><time>2026-05-02T15:13:18.684Z</time></trkpt><trkpt lat="43.2303497" lon="11.5293972"><ele>176.0</ele><time>2026-05-02T15:13:19.692Z</time></trkpt><trkpt lat="43.2304468" lon="11.5295275"><ele>176.0</ele><time>2026-05-02T15:13:20.691Z</time></trkpt><trkpt lat="43.2305453" lon="11.5296574"><ele>174.66666666666666</ele><time>2026-05-02T15:13:21.686Z</time></trkpt><trkpt lat="43.2306527" lon="11.5297977"><ele>173.33333333333334</ele><time>2026-05-02T15:13:22.682Z</time></trkpt><trkpt lat="43.2307655" lon="11.5299442"><ele>172.0</ele><time>2026-05-02T15:13:23.687Z</time></trkpt><trkpt lat="43.2308803" lon="11.5300901"><ele>172.0</ele><time>2026-05-02T15:13:24.684Z</time></trkpt><trkpt lat="43.2309811" lon="11.5302276"><ele>172.0</ele><time>2026-05-02T15:13:25.701Z</time></trkpt><trkpt lat="43.2310759" lon="11.5303622"><ele>172.0</ele><time>2026-05-02T15:13:26.682Z</time></trkpt><trkpt lat="43.2311657" lon="11.5304942"><ele>172.0</ele><time>2026-05-02T15:13:27.682Z</time></trkpt><trkpt lat="43.2312499" lon="11.5306467"><ele>171.0</ele><time>2026-05-02T15:13:28.689Z</time></trkpt><trkpt lat="43.2313261" lon="11.5308213"><ele>170.0</ele><time>2026-05-02T15:13:29.687Z</time></trkpt><trkpt lat="43.2313954" lon="11.531015"><ele>169.0</ele><time>2026-05-02T15:13:30.683Z</time></trkpt><trkpt lat="43.2314489" lon="11.5312193"><ele>169.33333333333334</ele><time>2026-05-02T15:13:31.692Z</time></trkpt><trkpt lat="43.2314954" lon="11.5314331"><ele>169.66666666666666</ele><time>2026-05-02T15:13:32.687Z</time></trkpt><trkpt lat="43.2315403" lon="11.5316581"><ele>170.0</ele><time>2026-05-02T15:13:33.688Z</time></trkpt><trkpt lat="43.2315887" lon="11.5318888"><ele>170.0</ele><time>2026-05-02T15:13:34.682Z</time></trkpt><trkpt lat="43.2316333" lon="11.5321086"><ele>170.0</ele><time>2026-05-02T15:13:35.689Z</time></trkpt><trkpt lat="43.2316793" lon="11.5323475"><ele>170.0</ele><time>2026-05-02T15:13:36.676Z</time></trkpt><trkpt lat="43.231726" lon="11.5325897"><ele>170.0</ele><time>2026-05-02T15:13:37.69Z</time></trkpt><trkpt lat="43.2317712" lon="11.5328362"><ele>170.0</ele><time>2026-05-02T15:13:38.684Z</time></trkpt><trkpt lat="43.2318201" lon="11.5330816"><ele>170.0</ele><time>2026-05-02T15:13:39.683Z</time></trkpt><trkpt lat="43.2318686" lon="11.5333269"><ele>170.0</ele><time>2026-05-02T15:13:40.692Z</time></trkpt><trkpt lat="43.2319156" lon="11.5335641"><ele>170.0</ele><time>2026-05-02T15:13:41.684Z</time></trkpt><trkpt lat="43.2319752" lon="11.5337898"><ele>170.0</ele><time>2026-05-02T15:13:42.683Z</time></trkpt><trkpt lat="43.2320526" lon="11.533993"><ele>169.33333333333331</ele><time>2026-05-02T15:13:43.682Z</time></trkpt><trkpt lat="43.2321522" lon="11.5341547"><ele>168.66666666666666</ele><time>2026-05-02T15:13:44.677Z</time></trkpt><trkpt lat="43.232276" lon="11.5343051"><ele>168.0</ele><time>2026-05-02T15:13:45.68Z</time></trkpt><trkpt lat="43.2324192" lon="11.5344407"><ele>168.66666666666666</ele><time>2026-05-02T15:13:46.684Z</time></trkpt><trkpt lat="43.232574" lon="11.5345606"><ele>169.33333333333331</ele><time>2026-05-02T15:13:47.699Z</time></trkpt><trkpt lat="43.232729" lon="11.5346813"><ele>170.0</ele><time>2026-05-02T15:13:48.682Z</time></trkpt><trkpt lat="43.2328914" lon="11.5348067"><ele>170.0</ele><time>2026-05-02T15:13:49.68Z</time></trkpt><trkpt lat="43.2330635" lon="11.5349314"><ele>170.0</ele><time>2026-05-02T15:13:50.684Z</time></trkpt><trkpt lat="43.2332391" lon="11.5350729"><ele>170.0</ele><time>2026-05-02T15:13:51.693Z</time></trkpt><trkpt lat="43.2334101" lon="11.5352189"><ele>169.66666666666666</ele><time>2026-05-02T15:13:52.681Z</time></trkpt><trkpt lat="43.2335525" lon="11.5353769"><ele>169.33333333333334</ele><time>2026-05-02T15:13:53.683Z</time></trkpt><trkpt lat="43.2336781" lon="11.5355592"><ele>169.0</ele><time>2026-05-02T15:13:54.691Z</time></trkpt><trkpt lat="43.2337884" lon="11.535756"><ele>169.0</ele><time>2026-05-02T15:13:55.686Z</time></trkpt><trkpt lat="43.2338998" lon="11.5359727"><ele>169.0</ele><time>2026-05-02T15:13:56.683Z</time></trkpt><trkpt lat="43.234018" lon="11.5361993"><ele>169.0</ele><time>2026-05-02T15:13:57.681Z</time></trkpt><trkpt lat="43.2341481" lon="11.5364303"><ele>170.5</ele><time>2026-05-02T15:13:58.682Z</time></trkpt><trkpt lat="43.2342848" lon="11.5366913"><ele>172.0</ele><time>2026-05-02T15:13:59.681Z</time></trkpt><trkpt lat="43.2344343" lon="11.5369678"><ele>172.0</ele><time>2026-05-02T15:14:00.68Z</time></trkpt><trkpt lat="43.2345932" lon="11.5372622"><ele>172.0</ele><time>2026-05-02T15:14:01.69Z</time></trkpt><trkpt lat="43.2347596" lon="11.5375728"><ele>173.0</ele><time>2026-05-02T15:14:02.69Z</time></trkpt><trkpt lat="43.2349347" lon="11.5378901"><ele>174.0</ele><time>2026-05-02T15:14:03.682Z</time></trkpt><trkpt lat="43.2351006" lon="11.538193"><ele>174.0</ele><time>2026-05-02T15:14:04.695Z</time></trkpt><trkpt lat="43.2352507" lon="11.5384755"><ele>174.0</ele><time>2026-05-02T15:14:05.69Z</time></trkpt><trkpt lat="43.2353941" lon="11.5387354"><ele>173.66666666666666</ele><time>2026-05-02T15:14:06.693Z</time></trkpt><trkpt lat="43.2355274" lon="11.5389789"><ele>173.33333333333331</ele><time>2026-05-02T15:14:07.694Z</time></trkpt><trkpt lat="43.2356497" lon="11.5392034"><ele>173.0</ele><time>2026-05-02T15:14:08.689Z</time></trkpt><trkpt lat="43.2357561" lon="11.5394096"><ele>173.66666666666666</ele><time>2026-05-02T15:14:09.683Z</time></trkpt><trkpt lat="43.2358362" lon="11.5396167"><ele>174.33333333333334</ele><time>2026-05-02T15:14:10.677Z</time></trkpt><trkpt lat="43.2358898" lon="11.5398504"><ele>175.0</ele><time>2026-05-02T15:14:11.687Z</time></trkpt><trkpt lat="43.2359027" lon="11.5400983"><ele>175.0</ele><time>2026-05-02T15:14:12.692Z</time></trkpt><trkpt lat="43.2358991" lon="11.5403333"><ele>175.0</ele><time>2026-05-02T15:14:13.696Z</time></trkpt><trkpt lat="43.2358815" lon="11.5405355"><ele>175.0</ele><time>2026-05-02T15:14:14.688Z</time></trkpt><trkpt lat="43.2358646" lon="11.5407245"><ele>175.0</ele><time>2026-05-02T15:14:15.688Z</time></trkpt><trkpt lat="43.2358582" lon="11.5409097"><ele>175.0</ele><time>2026-05-02T15:14:16.682Z</time></trkpt><trkpt lat="43.235854" lon="11.5411016"><ele>175.0</ele><time>2026-05-02T15:14:17.684Z</time></trkpt><trkpt lat="43.235845" lon="11.5412953"><ele>175.0</ele><time>2026-05-02T15:14:18.678Z</time></trkpt><trkpt lat="43.2358363" lon="11.5415062"><ele>176.33333333333334</ele><time>2026-05-02T15:14:19.681Z</time></trkpt><trkpt lat="43.2358263" lon="11.5417268"><ele>177.66666666666666</ele><time>2026-05-02T15:14:20.682Z</time></trkpt><trkpt lat="43.2358137" lon="11.541953"><ele>179.0</ele><time>2026-05-02T15:14:21.687Z</time></trkpt><trkpt lat="43.2358029" lon="11.542167"><ele>179.0</ele><time>2026-05-02T15:14:22.682Z</time></trkpt><trkpt lat="43.2357924" lon="11.5423738"><ele>179.0</ele><time>2026-05-02T15:14:23.681Z</time></trkpt><trkpt lat="43.235788" lon="11.5425749"><ele>179.0</ele><time>2026-05-02T15:14:24.685Z</time></trkpt><trkpt lat="43.2357851" lon="11.5427754"><ele>179.0</ele><time>2026-05-02T15:14:25.688Z</time></trkpt><trkpt lat="43.2357808" lon="11.5429769"><ele>178.66666666666666</ele><time>2026-05-02T15:14:26.688Z</time></trkpt><trkpt lat="43.2357763" lon="11.543184"><ele>178.33333333333334</ele><time>2026-05-02T15:14:27.688Z</time></trkpt><trkpt lat="43.2357681" lon="11.5433979"><ele>178.0</ele><time>2026-05-02T15:14:28.687Z</time></trkpt><trkpt lat="43.2357511" lon="11.5436229"><ele>177.66666666666669</ele><time>2026-05-02T15:14:29.68Z</time></trkpt><trkpt lat="43.2357366" lon="11.5438489"><ele>177.33333333333334</ele><time>2026-05-02T15:14:30.695Z</time></trkpt><trkpt lat="43.2357231" lon="11.5440778"><ele>177.0</ele><time>2026-05-02T15:14:31.685Z</time></trkpt><trkpt lat="43.2357129" lon="11.5443117"><ele>177.0</ele><time>2026-05-02T15:14:32.682Z</time></trkpt><trkpt lat="43.2357121" lon="11.5445455"><ele>177.0</ele><time>2026-05-02T15:14:33.695Z</time></trkpt><trkpt lat="43.2357169" lon="11.5447931"><ele>177.0</ele><time>2026-05-02T15:14:34.684Z</time></trkpt><trkpt lat="43.2357407" lon="11.5450324"><ele>176.66666666666666</ele><time>2026-05-02T15:14:35.676Z</time></trkpt><trkpt lat="43.2357919" lon="11.5452708"><ele>176.33333333333331</ele><time>2026-05-02T15:14:36.691Z</time></trkpt><trkpt lat="43.2358518" lon="11.5454994"><ele>176.0</ele><time>2026-05-02T15:14:37.695Z</time></trkpt><trkpt lat="43.2359259" lon="11.5457161"><ele>176.0</ele><time>2026-05-02T15:14:38.692Z</time></trkpt><trkpt lat="43.2360059" lon="11.5459236"><ele>176.0</ele><time>2026-05-02T15:14:39.687Z</time></trkpt><trkpt lat="43.2360939" lon="11.5461284"><ele>176.0</ele><time>2026-05-02T15:14:40.686Z</time></trkpt><trkpt lat="43.2361937" lon="11.5463217"><ele>176.66666666666666</ele><time>2026-05-02T15:14:41.689Z</time></trkpt><trkpt lat="43.2363029" lon="11.546507"><ele>177.33333333333334</ele><time>2026-05-02T15:14:42.687Z</time></trkpt><trkpt lat="43.2364226" lon="11.5466881"><ele>178.0</ele><time>2026-05-02T15:14:43.683Z</time></trkpt><trkpt lat="43.2365463" lon="11.5468718"><ele>176.66666666666669</ele><time>2026-05-02T15:14:44.692Z</time></trkpt><trkpt lat="43.2366754" lon="11.5470598"><ele>175.33333333333334</ele><time>2026-05-02T15:14:45.68Z</time></trkpt><trkpt lat="43.2368195" lon="11.5472424"><ele>174.0</ele><time>2026-05-02T15:14:46.68Z</time></trkpt><trkpt lat="43.2369663" lon="11.5474148"><ele>174.0</ele><time>2026-05-02T15:14:47.682Z</time></trkpt><trkpt lat="43.2371205" lon="11.5475857"><ele>174.0</ele><time>2026-05-02T15:14:48.681Z</time></trkpt><trkpt lat="43.2372818" lon="11.5477722"><ele>174.0</ele><time>2026-05-02T15:14:49.688Z</time></trkpt><trkpt lat="43.2374474" lon="11.5479555"><ele>174.66666666666666</ele><time>2026-05-02T15:14:50.679Z</time></trkpt><trkpt lat="43.237614" lon="11.5481496"><ele>175.33333333333331</ele><time>2026-05-02T15:14:51.689Z</time></trkpt><trkpt lat="43.2377779" lon="11.548334"><ele>176.0</ele><time>2026-05-02T15:14:52.686Z</time></trkpt><trkpt lat="43.2379504" lon="11.5485189"><ele>176.0</ele><time>2026-05-02T15:14:53.682Z</time></trkpt><trkpt lat="43.2381314" lon="11.5486917"><ele>176.0</ele><time>2026-05-02T15:14:54.685Z</time></trkpt><trkpt lat="43.2383213" lon="11.5488603"><ele>176.0</ele><time>2026-05-02T15:14:55.693Z</time></trkpt><trkpt lat="43.2385164" lon="11.5490215"><ele>176.0</ele><time>2026-05-02T15:14:56.703Z</time></trkpt><trkpt lat="43.2387205" lon="11.5491755"><ele>176.0</ele><time>2026-05-02T15:14:57.679Z</time></trkpt><trkpt lat="43.2389273" lon="11.5493261"><ele>175.66666666666666</ele><time>2026-05-02T15:14:58.686Z</time></trkpt><trkpt lat="43.2391178" lon="11.5494772"><ele>175.33333333333334</ele><time>2026-05-02T15:14:59.684Z</time></trkpt><trkpt lat="43.2392837" lon="11.5496357"><ele>175.0</ele><time>2026-05-02T15:15:00.691Z</time></trkpt><trkpt lat="43.2394334" lon="11.549798"><ele>175.0</ele><time>2026-05-02T15:15:01.69Z</time></trkpt><trkpt lat="43.2395655" lon="11.5499656"><ele>175.0</ele><time>2026-05-02T15:15:02.683Z</time></trkpt><trkpt lat="43.23969" lon="11.5501394"><ele>175.0</ele><time>2026-05-02T15:15:03.696Z</time></trkpt><trkpt lat="43.2398111" lon="11.5503077"><ele>174.33333333333334</ele><time>2026-05-02T15:15:04.683Z</time></trkpt><trkpt lat="43.2399387" lon="11.5504837"><ele>173.66666666666666</ele><time>2026-05-02T15:15:05.678Z</time></trkpt><trkpt lat="43.2400656" lon="11.5506555"><ele>173.0</ele><time>2026-05-02T15:15:06.674Z</time></trkpt><trkpt lat="43.2401855" lon="11.5508222"><ele>173.0</ele><time>2026-05-02T15:15:07.685Z</time></trkpt><trkpt lat="43.2402983" lon="11.5509802"><ele>173.0</ele><time>2026-05-02T15:15:08.675Z</time></trkpt><trkpt lat="43.2404042" lon="11.5511264"><ele>173.0</ele><time>2026-05-02T15:15:09.682Z</time></trkpt><trkpt lat="43.2405033" lon="11.5512668"><ele>172.5</ele><time>2026-05-02T15:15:10.686Z</time></trkpt><trkpt lat="43.2405961" lon="11.5513942"><ele>172.0</ele><time>2026-05-02T15:15:11.68Z</time></trkpt><trkpt lat="43.2406886" lon="11.5515157"><ele>171.5</ele><time>2026-05-02T15:15:12.683Z</time></trkpt><trkpt lat="43.2407665" lon="11.5516353"><ele>171.0</ele><time>2026-05-02T15:15:13.689Z</time></trkpt><trkpt lat="43.2408181" lon="11.551764"><ele>172.60000000000002</ele><time>2026-05-02T15:15:14.681Z</time></trkpt><trkpt lat="43.2408364" lon="11.5518937"><ele>174.2</ele><time>2026-05-02T15:15:15.692Z</time></trkpt><trkpt lat="43.2408117" lon="11.5520141"><ele>175.8</ele><time>2026-05-02T15:15:16.691Z</time></trkpt><trkpt lat="43.2407606" lon="11.5521392"><ele>177.39999999999998</ele><time>2026-05-02T15:15:17.686Z</time></trkpt><trkpt lat="43.2407" lon="11.5522514"><ele>179.0</ele><time>2026-05-02T15:15:18.683Z</time></trkpt><trkpt lat="43.2406565" lon="11.5523419"><ele>178.0</ele><time>2026-05-02T15:15:19.683Z</time></trkpt><trkpt lat="43.2406255" lon="11.5524191"><ele>177.0</ele><time>2026-05-02T15:15:20.673Z</time></trkpt><trkpt lat="43.2405676" lon="11.5525649"><ele>176.0</ele><time>2026-05-02T15:15:22.684Z</time></trkpt><trkpt lat="43.2405278" lon="11.5526589"><ele>175.0</ele><time>2026-05-02T15:15:23.684Z</time></trkpt><trkpt lat="43.2404743" lon="11.5527619"><ele>174.0</ele><time>2026-05-02T15:15:24.669Z</time></trkpt><trkpt lat="43.2404258" lon="11.5528462"><ele>173.0</ele><time>2026-05-02T15:15:25.681Z</time></trkpt><trkpt lat="43.2403583" lon="11.5529685"><ele>173.0</ele><time>2026-05-02T15:15:27.675Z</time></trkpt><trkpt lat="43.2403678" lon="11.5530746"><ele>173.0</ele><time>2026-05-02T15:15:29.689Z</time></trkpt><trkpt lat="43.2404599" lon="11.5531351"><ele>173.0</ele><time>2026-05-02T15:15:31.69Z</time></trkpt><trkpt lat="43.2405287" lon="11.5531827"><ele>173.0</ele><time>2026-05-02T15:15:32.687Z</time></trkpt><trkpt lat="43.2406039" lon="11.5532388"><ele>173.0</ele><time>2026-05-02T15:15:33.693Z</time></trkpt><trkpt lat="43.240682" lon="11.553285"><ele>173.0</ele><time>2026-05-02T15:15:34.688Z</time></trkpt><trkpt lat="43.2407629" lon="11.5533402"><ele>173.4</ele><time>2026-05-02T15:15:35.684Z</time></trkpt><trkpt lat="43.2408459" lon="11.5533972"><ele>173.8</ele><time>2026-05-02T15:15:36.677Z</time></trkpt><trkpt lat="43.2409202" lon="11.5534514"><ele>174.2</ele><time>2026-05-02T15:15:37.685Z</time></trkpt><trkpt lat="43.2410028" lon="11.5535166"><ele>174.6</ele><time>2026-05-02T15:15:38.689Z</time></trkpt><trkpt lat="43.2410833" lon="11.5535867"><ele>175.0</ele><time>2026-05-02T15:15:39.688Z</time></trkpt><trkpt lat="43.2411576" lon="11.5536503"><ele>175.0</ele><time>2026-05-02T15:15:40.679Z</time></trkpt><trkpt lat="43.2412344" lon="11.5537041"><ele>175.0</ele><time>2026-05-02T15:15:41.689Z</time></trkpt><trkpt lat="43.2413114" lon="11.553766"><ele>175.0</ele><time>2026-05-02T15:15:42.705Z</time></trkpt><trkpt lat="43.2413913" lon="11.5538085"><ele>175.0</ele><time>2026-05-02T15:15:43.679Z</time></trkpt><trkpt lat="43.2414812" lon="11.5538195"><ele>175.0</ele><time>2026-05-02T15:15:44.678Z</time></trkpt><trkpt lat="43.241573" lon="11.553824"><ele>175.0</ele><time>2026-05-02T15:15:45.693Z</time></trkpt><trkpt lat="43.241667" lon="11.5538365"><ele>175.6</ele><time>2026-05-02T15:15:46.69Z</time></trkpt><trkpt lat="43.2417672" lon="11.5538354"><ele>176.2</ele><time>2026-05-02T15:15:47.679Z</time></trkpt><trkpt lat="43.241868" lon="11.5538489"><ele>176.8</ele><time>2026-05-02T15:15:48.682Z</time></trkpt><trkpt lat="43.2419682" lon="11.5538825"><ele>177.4</ele><time>2026-05-02T15:15:49.684Z</time></trkpt><trkpt lat="43.242069" lon="11.5539337"><ele>178.0</ele><time>2026-05-02T15:15:50.674Z</time></trkpt><trkpt lat="43.2421672" lon="11.5540091"><ele>178.0</ele><time>2026-05-02T15:15:51.697Z</time></trkpt><trkpt lat="43.2422567" lon="11.5540903"><ele>178.0</ele><time>2026-05-02T15:15:52.686Z</time></trkpt><trkpt lat="43.2423494" lon="11.5541674"><ele>178.0</ele><time>2026-05-02T15:15:53.69Z</time></trkpt><trkpt lat="43.2424424" lon="11.5542371"><ele>178.0</ele><time>2026-05-02T15:15:54.684Z</time></trkpt><trkpt lat="43.2425331" lon="11.5543099"><ele>178.0</ele><time>2026-05-02T15:15:55.691Z</time></trkpt><trkpt lat="43.2426259" lon="11.5543776"><ele>181.2</ele><time>2026-05-02T15:15:56.697Z</time></trkpt><trkpt lat="43.2427218" lon="11.5544421"><ele>184.4</ele><time>2026-05-02T15:15:57.682Z</time></trkpt><trkpt lat="43.2428221" lon="11.5544914"><ele>187.6</ele><time>2026-05-02T15:15:58.677Z</time></trkpt><trkpt lat="43.2429277" lon="11.5545252"><ele>190.79999999999998</ele><time>2026-05-02T15:15:59.695Z</time></trkpt><trkpt lat="43.2430374" lon="11.5545359"><ele>194.0</ele><time>2026-05-02T15:16:00.678Z</time></trkpt><trkpt lat="43.2431531" lon="11.5545315"><ele>195.2</ele><time>2026-05-02T15:16:01.688Z</time></trkpt><trkpt lat="43.2432732" lon="11.5545275"><ele>196.39999999999998</ele><time>2026-05-02T15:16:02.681Z</time></trkpt><trkpt lat="43.243395" lon="11.554515"><ele>197.6</ele><time>2026-05-02T15:16:03.682Z</time></trkpt><trkpt lat="43.243506" lon="11.5545003"><ele>198.8</ele><time>2026-05-02T15:16:04.688Z</time></trkpt><trkpt lat="43.2436009" lon="11.5544921"><ele>200.0</ele><time>2026-05-02T15:16:05.685Z</time></trkpt><trkpt lat="43.2436989" lon="11.5544818"><ele>200.0</ele><time>2026-05-02T15:16:06.68Z</time></trkpt><trkpt lat="43.2438063" lon="11.5544671"><ele>200.0</ele><time>2026-05-02T15:16:07.686Z</time></trkpt><trkpt lat="43.2439131" lon="11.5544543"><ele>200.0</ele><time>2026-05-02T15:16:08.683Z</time></trkpt><trkpt lat="43.2440333" lon="11.5544404"><ele>200.0</ele><time>2026-05-02T15:16:09.69Z</time></trkpt><trkpt lat="43.244155" lon="11.5544224"><ele>197.5</ele><time>2026-05-02T15:16:10.689Z</time></trkpt><trkpt lat="43.2442795" lon="11.5544066"><ele>195.0</ele><time>2026-05-02T15:16:11.686Z</time></trkpt><trkpt lat="43.2444086" lon="11.5543954"><ele>192.5</ele><time>2026-05-02T15:16:12.693Z</time></trkpt><trkpt lat="43.2445367" lon="11.5543876"><ele>190.0</ele><time>2026-05-02T15:16:13.674Z</time></trkpt><trkpt lat="43.2446592" lon="11.5543762"><ele>190.0</ele><time>2026-05-02T15:16:14.676Z</time></trkpt><trkpt lat="43.2447702" lon="11.5543629"><ele>190.0</ele><time>2026-05-02T15:16:15.693Z</time></trkpt><trkpt lat="43.2448827" lon="11.5543399"><ele>190.0</ele><time>2026-05-02T15:16:16.692Z</time></trkpt><trkpt lat="43.2449948" lon="11.5543177"><ele>190.0</ele><time>2026-05-02T15:16:17.689Z</time></trkpt><trkpt lat="43.2451091" lon="11.5543048"><ele>189.0</ele><time>2026-05-02T15:16:18.689Z</time></trkpt><trkpt lat="43.2452283" lon="11.5542903"><ele>188.0</ele><time>2026-05-02T15:16:19.685Z</time></trkpt><trkpt lat="43.2453468" lon="11.5542737"><ele>187.0</ele><time>2026-05-02T15:16:20.684Z</time></trkpt><trkpt lat="43.245471" lon="11.5542576"><ele>186.0</ele><time>2026-05-02T15:16:21.676Z</time></trkpt><trkpt lat="43.2455999" lon="11.5542358"><ele>183.75</ele><time>2026-05-02T15:16:22.679Z</time></trkpt><trkpt lat="43.2457333" lon="11.5542192"><ele>181.5</ele><time>2026-05-02T15:16:23.679Z</time></trkpt><trkpt lat="43.2458707" lon="11.554194"><ele>179.25</ele><time>2026-05-02T15:16:24.684Z</time></trkpt><trkpt lat="43.2460033" lon="11.554172"><ele>177.0</ele><time>2026-05-02T15:16:25.679Z</time></trkpt><trkpt lat="43.2461354" lon="11.5541539"><ele>177.0</ele><time>2026-05-02T15:16:26.691Z</time></trkpt><trkpt lat="43.2462666" lon="11.5541396"><ele>177.0</ele><time>2026-05-02T15:16:27.679Z</time></trkpt><trkpt lat="43.2464002" lon="11.5541284"><ele>177.0</ele><time>2026-05-02T15:16:28.681Z</time></trkpt><trkpt lat="43.2465291" lon="11.5541338"><ele>177.0</ele><time>2026-05-02T15:16:29.684Z</time></trkpt><trkpt lat="43.2466522" lon="11.554149"><ele>175.75</ele><time>2026-05-02T15:16:30.68Z</time></trkpt><trkpt lat="43.246759" lon="11.5541824"><ele>174.5</ele><time>2026-05-02T15:16:31.683Z</time></trkpt><trkpt lat="43.2468712" lon="11.5542436"><ele>173.25</ele><time>2026-05-02T15:16:32.683Z</time></trkpt><trkpt lat="43.2469937" lon="11.5543249"><ele>172.0</ele><time>2026-05-02T15:16:33.699Z</time></trkpt><trkpt lat="43.2471148" lon="11.5544099"><ele>172.0</ele><time>2026-05-02T15:16:34.681Z</time></trkpt><trkpt lat="43.2472384" lon="11.5545115"><ele>172.0</ele><time>2026-05-02T15:16:35.685Z</time></trkpt><trkpt lat="43.2473659" lon="11.5546078"><ele>172.0</ele><time>2026-05-02T15:16:36.684Z</time></trkpt><trkpt lat="43.2474934" lon="11.5547073"><ele>172.0</ele><time>2026-05-02T15:16:37.692Z</time></trkpt><trkpt lat="43.2476163" lon="11.5548066"><ele>173.75</ele><time>2026-05-02T15:16:38.693Z</time></trkpt><trkpt lat="43.2477275" lon="11.5548883"><ele>175.5</ele><time>2026-05-02T15:16:39.697Z</time></trkpt><trkpt lat="43.2478156" lon="11.5549896"><ele>177.25</ele><time>2026-05-02T15:16:40.698Z</time></trkpt><trkpt lat="43.2478859" lon="11.5551051"><ele>179.0</ele><time>2026-05-02T15:16:41.681Z</time></trkpt><trkpt lat="43.2479571" lon="11.5552368"><ele>178.0</ele><time>2026-05-02T15:16:42.692Z</time></trkpt><trkpt lat="43.2480408" lon="11.5553743"><ele>177.0</ele><time>2026-05-02T15:16:43.686Z</time></trkpt><trkpt lat="43.2481334" lon="11.5555008"><ele>176.0</ele><time>2026-05-02T15:16:44.686Z</time></trkpt><trkpt lat="43.2482389" lon="11.5556132"><ele>175.0</ele><time>2026-05-02T15:16:45.684Z</time></trkpt><trkpt lat="43.2483584" lon="11.5557112"><ele>178.0</ele><time>2026-05-02T15:16:46.678Z</time></trkpt><trkpt lat="43.2484783" lon="11.5558164"><ele>181.0</ele><time>2026-05-02T15:16:47.674Z</time></trkpt><trkpt lat="43.2485906" lon="11.5559056"><ele>184.0</ele><time>2026-05-02T15:16:48.687Z</time></trkpt><trkpt lat="43.2486929" lon="11.5559776"><ele>187.0</ele><time>2026-05-02T15:16:49.684Z</time></trkpt><trkpt lat="43.2488014" lon="11.5560354"><ele>187.0</ele><time>2026-05-02T15:16:50.685Z</time></trkpt><trkpt lat="43.2489153" lon="11.556075"><ele>187.0</ele><time>2026-05-02T15:16:51.68Z</time></trkpt><trkpt lat="43.2490365" lon="11.5560861"><ele>187.0</ele><time>2026-05-02T15:16:52.676Z</time></trkpt><trkpt lat="43.249176" lon="11.5560644"><ele>187.0</ele><time>2026-05-02T15:16:53.683Z</time></trkpt><trkpt lat="43.2493402" lon="11.5560202"><ele>190.0</ele><time>2026-05-02T15:16:54.679Z</time></trkpt><trkpt lat="43.2495037" lon="11.5559906"><ele>193.0</ele><time>2026-05-02T15:16:55.686Z</time></trkpt><trkpt lat="43.2496562" lon="11.5559759"><ele>196.0</ele><time>2026-05-02T15:16:56.684Z</time></trkpt><trkpt lat="43.2497989" lon="11.5559579"><ele>196.75</ele><time>2026-05-02T15:16:57.689Z</time></trkpt><trkpt lat="43.2499359" lon="11.5559303"><ele>197.5</ele><time>2026-05-02T15:16:58.675Z</time></trkpt><trkpt lat="43.2500643" lon="11.5558797"><ele>198.25</ele><time>2026-05-02T15:16:59.691Z</time></trkpt><trkpt lat="43.2501846" lon="11.5558028"><ele>199.0</ele><time>2026-05-02T15:17:00.699Z</time></trkpt><trkpt lat="43.2503007" lon="11.5556973"><ele>199.0</ele><time>2026-05-02T15:17:01.684Z</time></trkpt><trkpt lat="43.2504213" lon="11.555576"><ele>199.0</ele><time>2026-05-02T15:17:02.681Z</time></trkpt><trkpt lat="43.2505422" lon="11.5554414"><ele>199.0</ele><time>2026-05-02T15:17:03.693Z</time></trkpt><trkpt lat="43.2506689" lon="11.5552931"><ele>204.33333333333331</ele><time>2026-05-02T15:17:04.692Z</time></trkpt><trkpt lat="43.2508004" lon="11.5551498"><ele>209.66666666666669</ele><time>2026-05-02T15:17:05.693Z</time></trkpt><trkpt lat="43.2509268" lon="11.5550274"><ele>215.0</ele><time>2026-05-02T15:17:06.682Z</time></trkpt><trkpt lat="43.2510507" lon="11.5549359"><ele>215.0</ele><time>2026-05-02T15:17:07.677Z</time></trkpt><trkpt lat="43.2511877" lon="11.554863"><ele>215.0</ele><time>2026-05-02T15:17:08.692Z</time></trkpt><trkpt lat="43.2513469" lon="11.5547998"><ele>215.0</ele><time>2026-05-02T15:17:09.682Z</time></trkpt><trkpt lat="43.2515173" lon="11.5547458"><ele>214.6</ele><time>2026-05-02T15:17:10.696Z</time></trkpt><trkpt lat="43.2516695" lon="11.5547155"><ele>214.2</ele><time>2026-05-02T15:17:11.678Z</time></trkpt><trkpt lat="43.2517769" lon="11.5546798"><ele>213.8</ele><time>2026-05-02T15:17:12.681Z</time></trkpt><trkpt lat="43.2518684" lon="11.554643"><ele>213.4</ele><time>2026-05-02T15:17:13.69Z</time></trkpt><trkpt lat="43.2519494" lon="11.5546183"><ele>213.0</ele><time>2026-05-02T15:17:14.683Z</time></trkpt><trkpt lat="43.2520327" lon="11.554602"><ele>213.0</ele><time>2026-05-02T15:17:15.678Z</time></trkpt><trkpt lat="43.2521085" lon="11.5546024"><ele>213.0</ele><time>2026-05-02T15:17:16.685Z</time></trkpt><trkpt lat="43.2521936" lon="11.5546051"><ele>213.0</ele><time>2026-05-02T15:17:17.689Z</time></trkpt><trkpt lat="43.2522874" lon="11.5546326"><ele>213.0</ele><time>2026-05-02T15:17:18.682Z</time></trkpt><trkpt lat="43.2523848" lon="11.5546684"><ele>213.0</ele><time>2026-05-02T15:17:19.688Z</time></trkpt><trkpt lat="43.252488" lon="11.5547037"><ele>213.2</ele><time>2026-05-02T15:17:20.685Z</time></trkpt><trkpt lat="43.2525857" lon="11.5547273"><ele>213.4</ele><time>2026-05-02T15:17:21.688Z</time></trkpt><trkpt lat="43.2526892" lon="11.5547264"><ele>213.59999999999997</ele><time>2026-05-02T15:17:22.684Z</time></trkpt><trkpt lat="43.2527965" lon="11.5547157"><ele>213.79999999999998</ele><time>2026-05-02T15:17:23.696Z</time></trkpt><trkpt lat="43.2529022" lon="11.554699"><ele>214.0</ele><time>2026-05-02T15:17:24.713Z</time></trkpt><trkpt lat="43.2530121" lon="11.5546715"><ele>216.0</ele><time>2026-05-02T15:17:25.68Z</time></trkpt><trkpt lat="43.2531261" lon="11.5546324"><ele>218.0</ele><time>2026-05-02T15:17:26.697Z</time></trkpt><trkpt lat="43.2532344" lon="11.5545913"><ele>220.0</ele><time>2026-05-02T15:17:27.685Z</time></trkpt><trkpt lat="43.2533416" lon="11.5545338"><ele>222.0</ele><time>2026-05-02T15:17:28.677Z</time></trkpt><trkpt lat="43.2534387" lon="11.5544738"><ele>224.0</ele><time>2026-05-02T15:17:29.682Z</time></trkpt><trkpt lat="43.2535298" lon="11.5544123"><ele>226.0</ele><time>2026-05-02T15:17:30.681Z</time></trkpt><trkpt lat="43.253628" lon="11.5543402"><ele>228.0</ele><time>2026-05-02T15:17:31.687Z</time></trkpt><trkpt lat="43.2537321" lon="11.5542597"><ele>230.0</ele><time>2026-05-02T15:17:32.7Z</time></trkpt><trkpt lat="43.253825" lon="11.5541693"><ele>232.0</ele><time>2026-05-02T15:17:33.688Z</time></trkpt><trkpt lat="43.2539007" lon="11.5540689"><ele>232.75</ele><time>2026-05-02T15:17:34.682Z</time></trkpt><trkpt lat="43.253967" lon="11.5539515"><ele>233.5</ele><time>2026-05-02T15:17:35.675Z</time></trkpt><trkpt lat="43.2540111" lon="11.5537958"><ele>234.25</ele><time>2026-05-02T15:17:36.678Z</time></trkpt><trkpt lat="43.2540407" lon="11.5536415"><ele>235.0</ele><time>2026-05-02T15:17:37.688Z</time></trkpt><trkpt lat="43.254058" lon="11.5534869"><ele>237.0</ele><time>2026-05-02T15:17:38.678Z</time></trkpt><trkpt lat="43.2540825" lon="11.5533324"><ele>239.0</ele><time>2026-05-02T15:17:39.681Z</time></trkpt><trkpt lat="43.2541279" lon="11.5531927"><ele>241.0</ele><time>2026-05-02T15:17:40.684Z</time></trkpt><trkpt lat="43.2541874" lon="11.5530729"><ele>243.0</ele><time>2026-05-02T15:17:41.689Z</time></trkpt><trkpt lat="43.254262" lon="11.5529874"><ele>245.0</ele><time>2026-05-02T15:17:42.681Z</time></trkpt><trkpt lat="43.2543445" lon="11.5529488"><ele>245.0</ele><time>2026-05-02T15:17:43.672Z</time></trkpt><trkpt lat="43.2544299" lon="11.5529387"><ele>245.0</ele><time>2026-05-02T15:17:44.685Z</time></trkpt><trkpt lat="43.2545315" lon="11.552932"><ele>245.0</ele><time>2026-05-02T15:17:45.693Z</time></trkpt><trkpt lat="43.2546329" lon="11.5529294"><ele>245.0</ele><time>2026-05-02T15:17:46.689Z</time></trkpt><trkpt lat="43.2547402" lon="11.5529244"><ele>245.0</ele><time>2026-05-02T15:17:47.687Z</time></trkpt><trkpt lat="43.2548452" lon="11.5529169"><ele>245.6</ele><time>2026-05-02T15:17:48.697Z</time></trkpt><trkpt lat="43.254945" lon="11.5529091"><ele>246.2</ele><time>2026-05-02T15:17:49.695Z</time></trkpt><trkpt lat="43.2550461" lon="11.5529025"><ele>246.8</ele><time>2026-05-02T15:17:50.686Z</time></trkpt><trkpt lat="43.2551517" lon="11.5528984"><ele>247.4</ele><time>2026-05-02T15:17:51.686Z</time></trkpt><trkpt lat="43.2552543" lon="11.5529008"><ele>248.0</ele><time>2026-05-02T15:17:52.686Z</time></trkpt><trkpt lat="43.2553537" lon="11.5529126"><ele>248.0</ele><time>2026-05-02T15:17:53.68Z</time></trkpt><trkpt lat="43.2554587" lon="11.5529208"><ele>248.0</ele><time>2026-05-02T15:17:54.689Z</time></trkpt><trkpt lat="43.2555635" lon="11.5529414"><ele>248.0</ele><time>2026-05-02T15:17:55.69Z</time></trkpt><trkpt lat="43.2556679" lon="11.5529758"><ele>248.0</ele><time>2026-05-02T15:17:56.688Z</time></trkpt><trkpt lat="43.2557682" lon="11.5530328"><ele>248.0</ele><time>2026-05-02T15:17:57.686Z</time></trkpt><trkpt lat="43.2558689" lon="11.553094"><ele>249.0</ele><time>2026-05-02T15:17:58.695Z</time></trkpt><trkpt lat="43.2559673" lon="11.5531568"><ele>250.0</ele><time>2026-05-02T15:17:59.684Z</time></trkpt><trkpt lat="43.2560682" lon="11.5532206"><ele>251.0</ele><time>2026-05-02T15:18:00.684Z</time></trkpt><trkpt lat="43.2561741" lon="11.5532864"><ele>252.0</ele><time>2026-05-02T15:18:01.689Z</time></trkpt><trkpt lat="43.2562894" lon="11.5533615"><ele>252.0</ele><time>2026-05-02T15:18:02.677Z</time></trkpt><trkpt lat="43.2564142" lon="11.5534442"><ele>252.0</ele><time>2026-05-02T15:18:03.684Z</time></trkpt><trkpt lat="43.2565412" lon="11.5535289"><ele>252.0</ele><time>2026-05-02T15:18:04.682Z</time></trkpt><trkpt lat="43.2566614" lon="11.5536005"><ele>252.0</ele><time>2026-05-02T15:18:05.685Z</time></trkpt><trkpt lat="43.2567762" lon="11.5536558"><ele>251.75</ele><time>2026-05-02T15:18:06.692Z</time></trkpt><trkpt lat="43.2568954" lon="11.5536905"><ele>251.5</ele><time>2026-05-02T15:18:07.689Z</time></trkpt><trkpt lat="43.257024" lon="11.553696"><ele>251.25</ele><time>2026-05-02T15:18:08.682Z</time></trkpt><trkpt lat="43.2571588" lon="11.5536814"><ele>251.0</ele><time>2026-05-02T15:18:09.696Z</time></trkpt><trkpt lat="43.2572854" lon="11.5536505"><ele>251.25</ele><time>2026-05-02T15:18:10.69Z</time></trkpt><trkpt lat="43.2574125" lon="11.5536147"><ele>251.5</ele><time>2026-05-02T15:18:11.687Z</time></trkpt><trkpt lat="43.257545" lon="11.553566"><ele>251.75</ele><time>2026-05-02T15:18:12.676Z</time></trkpt><trkpt lat="43.2576818" lon="11.5535111"><ele>252.0</ele><time>2026-05-02T15:18:13.685Z</time></trkpt><trkpt lat="43.2578143" lon="11.5534458"><ele>252.0</ele><time>2026-05-02T15:18:14.688Z</time></trkpt><trkpt lat="43.2579332" lon="11.5533889"><ele>252.0</ele><time>2026-05-02T15:18:15.681Z</time></trkpt><trkpt lat="43.2580422" lon="11.5533388"><ele>252.0</ele><time>2026-05-02T15:18:16.682Z</time></trkpt><trkpt lat="43.2581579" lon="11.5532965"><ele>252.0</ele><time>2026-05-02T15:18:17.679Z</time></trkpt><trkpt lat="43.2582823" lon="11.5532671"><ele>252.0</ele><time>2026-05-02T15:18:18.693Z</time></trkpt><trkpt lat="43.2584117" lon="11.5532403"><ele>252.0</ele><time>2026-05-02T15:18:19.687Z</time></trkpt><trkpt lat="43.2585493" lon="11.5532083"><ele>252.0</ele><time>2026-05-02T15:18:20.681Z</time></trkpt><trkpt lat="43.2586847" lon="11.5531737"><ele>252.0</ele><time>2026-05-02T15:18:21.696Z</time></trkpt><trkpt lat="43.2588076" lon="11.5531278"><ele>252.0</ele><time>2026-05-02T15:18:22.682Z</time></trkpt><trkpt lat="43.2589293" lon="11.5530585"><ele>252.0</ele><time>2026-05-02T15:18:23.682Z</time></trkpt><trkpt lat="43.2590527" lon="11.5529711"><ele>252.0</ele><time>2026-05-02T15:18:24.681Z</time></trkpt><trkpt lat="43.2591752" lon="11.5528423"><ele>252.0</ele><time>2026-05-02T15:18:25.682Z</time></trkpt><trkpt lat="43.2592896" lon="11.5526924"><ele>250.0</ele><time>2026-05-02T15:18:26.685Z</time></trkpt><trkpt lat="43.2593935" lon="11.5525297"><ele>248.0</ele><time>2026-05-02T15:18:27.675Z</time></trkpt><trkpt lat="43.2594826" lon="11.5523337"><ele>246.0</ele><time>2026-05-02T15:18:28.683Z</time></trkpt><trkpt lat="43.2595543" lon="11.5521199"><ele>246.0</ele><time>2026-05-02T15:18:29.684Z</time></trkpt><trkpt lat="43.2596098" lon="11.5519276"><ele>246.0</ele><time>2026-05-02T15:18:30.691Z</time></trkpt><trkpt lat="43.259654" lon="11.5517603"><ele>246.0</ele><time>2026-05-02T15:18:31.674Z</time></trkpt><trkpt lat="43.2596931" lon="11.5515941"><ele>246.0</ele><time>2026-05-02T15:18:32.69Z</time></trkpt><trkpt lat="43.2597343" lon="11.5514263"><ele>246.0</ele><time>2026-05-02T15:18:33.683Z</time></trkpt><trkpt lat="43.2597708" lon="11.551273"><ele>246.0</ele><time>2026-05-02T15:18:34.684Z</time></trkpt><trkpt lat="43.2598173" lon="11.551137"><ele>246.0</ele><time>2026-05-02T15:18:35.689Z</time></trkpt><trkpt lat="43.2598707" lon="11.5510045"><ele>246.0</ele><time>2026-05-02T15:18:36.683Z</time></trkpt><trkpt lat="43.2599352" lon="11.5508755"><ele>246.5</ele><time>2026-05-02T15:18:37.685Z</time></trkpt><trkpt lat="43.2600032" lon="11.55075"><ele>247.0</ele><time>2026-05-02T15:18:38.694Z</time></trkpt><trkpt lat="43.26007" lon="11.550625"><ele>247.5</ele><time>2026-05-02T15:18:39.679Z</time></trkpt><trkpt lat="43.2601443" lon="11.5504994"><ele>248.0</ele><time>2026-05-02T15:18:40.689Z</time></trkpt><trkpt lat="43.2602218" lon="11.5503811"><ele>246.25</ele><time>2026-05-02T15:18:41.68Z</time></trkpt><trkpt lat="43.2603056" lon="11.5502711"><ele>244.5</ele><time>2026-05-02T15:18:42.686Z</time></trkpt><trkpt lat="43.2604067" lon="11.5501637"><ele>242.75</ele><time>2026-05-02T15:18:43.679Z</time></trkpt><trkpt lat="43.260532" lon="11.5500808"><ele>241.0</ele><time>2026-05-02T15:18:44.683Z</time></trkpt><trkpt lat="43.2606933" lon="11.5500011"><ele>238.33333333333331</ele><time>2026-05-02T15:18:45.69Z</time></trkpt><trkpt lat="43.2608669" lon="11.5499578"><ele>235.66666666666669</ele><time>2026-05-02T15:18:46.685Z</time></trkpt><trkpt lat="43.2610467" lon="11.5499443"><ele>233.0</ele><time>2026-05-02T15:18:47.697Z</time></trkpt><trkpt lat="43.2612214" lon="11.5499608"><ele>233.0</ele><time>2026-05-02T15:18:48.689Z</time></trkpt><trkpt lat="43.2613977" lon="11.5499716"><ele>233.0</ele><time>2026-05-02T15:18:49.676Z</time></trkpt><trkpt lat="43.2615662" lon="11.54993"><ele>233.0</ele><time>2026-05-02T15:18:50.676Z</time></trkpt><trkpt lat="43.261738" lon="11.5498569"><ele>233.66666666666669</ele><time>2026-05-02T15:18:51.693Z</time></trkpt><trkpt lat="43.2618887" lon="11.5497519"><ele>234.33333333333331</ele><time>2026-05-02T15:18:52.701Z</time></trkpt><trkpt lat="43.262033" lon="11.5496256"><ele>235.0</ele><time>2026-05-02T15:18:53.683Z</time></trkpt><trkpt lat="43.2621772" lon="11.5494881"><ele>238.66666666666666</ele><time>2026-05-02T15:18:54.682Z</time></trkpt><trkpt lat="43.2623167" lon="11.5493284"><ele>242.33333333333331</ele><time>2026-05-02T15:18:55.678Z</time></trkpt><trkpt lat="43.2624507" lon="11.5491489"><ele>246.0</ele><time>2026-05-02T15:18:56.689Z</time></trkpt><trkpt lat="43.2625685" lon="11.5489704"><ele>246.0</ele><time>2026-05-02T15:18:57.676Z</time></trkpt><trkpt lat="43.2626779" lon="11.5487755"><ele>246.0</ele><time>2026-05-02T15:18:58.699Z</time></trkpt><trkpt lat="43.2627774" lon="11.5485771"><ele>246.0</ele><time>2026-05-02T15:18:59.686Z</time></trkpt><trkpt lat="43.2628802" lon="11.5483831"><ele>248.66666666666669</ele><time>2026-05-02T15:19:00.684Z</time></trkpt><trkpt lat="43.2629797" lon="11.5482004"><ele>251.33333333333334</ele><time>2026-05-02T15:19:01.693Z</time></trkpt><trkpt lat="43.263062" lon="11.5480043"><ele>254.0</ele><time>2026-05-02T15:19:02.688Z</time></trkpt><trkpt lat="43.2631354" lon="11.5478045"><ele>256.5</ele><time>2026-05-02T15:19:03.707Z</time></trkpt><trkpt lat="43.2632153" lon="11.5476221"><ele>259.0</ele><time>2026-05-02T15:19:04.693Z</time></trkpt><trkpt lat="43.2632993" lon="11.547466"><ele>261.5</ele><time>2026-05-02T15:19:05.688Z</time></trkpt><trkpt lat="43.2633914" lon="11.5473433"><ele>264.0</ele><time>2026-05-02T15:19:06.684Z</time></trkpt><trkpt lat="43.263486" lon="11.5472418"><ele>264.0</ele><time>2026-05-02T15:19:07.683Z</time></trkpt><trkpt lat="43.263574" lon="11.5471401"><ele>264.0</ele><time>2026-05-02T15:19:08.689Z</time></trkpt><trkpt lat="43.2636713" lon="11.5470515"><ele>264.0</ele><time>2026-05-02T15:19:09.682Z</time></trkpt><trkpt lat="43.2637797" lon="11.5469567"><ele>264.0</ele><time>2026-05-02T15:19:10.698Z</time></trkpt><trkpt lat="43.2638889" lon="11.5468495"><ele>264.0</ele><time>2026-05-02T15:19:11.695Z</time></trkpt><trkpt lat="43.2639976" lon="11.5467424"><ele>264.0</ele><time>2026-05-02T15:19:12.689Z</time></trkpt><trkpt lat="43.2641065" lon="11.5466309"><ele>264.0</ele><time>2026-05-02T15:19:13.683Z</time></trkpt><trkpt lat="43.2642117" lon="11.5465159"><ele>264.0</ele><time>2026-05-02T15:19:14.684Z</time></trkpt><trkpt lat="43.2643065" lon="11.5463915"><ele>264.0</ele><time>2026-05-02T15:19:15.694Z</time></trkpt><trkpt lat="43.2643842" lon="11.5462456"><ele>264.0</ele><time>2026-05-02T15:19:16.694Z</time></trkpt><trkpt lat="43.264443" lon="11.546085"><ele>264.0</ele><time>2026-05-02T15:19:17.698Z</time></trkpt><trkpt lat="43.2644909" lon="11.5459232"><ele>264.0</ele><time>2026-05-02T15:19:18.686Z</time></trkpt><trkpt lat="43.2645272" lon="11.5457781"><ele>266.0</ele><time>2026-05-02T15:19:19.688Z</time></trkpt><trkpt lat="43.2645484" lon="11.5456556"><ele>268.0</ele><time>2026-05-02T15:19:20.683Z</time></trkpt><trkpt lat="43.2645648" lon="11.545544"><ele>270.0</ele><time>2026-05-02T15:19:21.687Z</time></trkpt><trkpt lat="43.2645818" lon="11.5454418"><ele>272.0</ele><time>2026-05-02T15:19:22.688Z</time></trkpt><trkpt lat="43.2646005" lon="11.5453371"><ele>274.0</ele><time>2026-05-02T15:19:23.682Z</time></trkpt><trkpt lat="43.2646173" lon="11.5452315"><ele>276.0</ele><time>2026-05-02T15:19:24.683Z</time></trkpt><trkpt lat="43.2646362" lon="11.5451209"><ele>276.1666666666667</ele><time>2026-05-02T15:19:25.69Z</time></trkpt><trkpt lat="43.2646505" lon="11.5450034"><ele>276.3333333333333</ele><time>2026-05-02T15:19:26.678Z</time></trkpt><trkpt lat="43.2646625" lon="11.5449002"><ele>276.5</ele><time>2026-05-02T15:19:27.699Z</time></trkpt><trkpt lat="43.2646774" lon="11.5448106"><ele>276.66666666666663</ele><time>2026-05-02T15:19:28.682Z</time></trkpt><trkpt lat="43.2647" lon="11.5447178"><ele>276.8333333333333</ele><time>2026-05-02T15:19:29.678Z</time></trkpt><trkpt lat="43.2647295" lon="11.5446207"><ele>277.0</ele><time>2026-05-02T15:19:30.679Z</time></trkpt><trkpt lat="43.2647701" lon="11.5445254"><ele>273.0</ele><time>2026-05-02T15:19:31.685Z</time></trkpt><trkpt lat="43.2648182" lon="11.544425"><ele>269.0</ele><time>2026-05-02T15:19:32.684Z</time></trkpt><trkpt lat="43.2648699" lon="11.5443325"><ele>265.0</ele><time>2026-05-02T15:19:33.689Z</time></trkpt><trkpt lat="43.2649214" lon="11.5442367"><ele>261.0</ele><time>2026-05-02T15:19:34.692Z</time></trkpt><trkpt lat="43.2649725" lon="11.5441427"><ele>257.0</ele><time>2026-05-02T15:19:35.693Z</time></trkpt><trkpt lat="43.2650217" lon="11.5440333"><ele>253.0</ele><time>2026-05-02T15:19:36.685Z</time></trkpt><trkpt lat="43.2650697" lon="11.5439235"><ele>252.99999999999997</ele><time>2026-05-02T15:19:37.681Z</time></trkpt><trkpt lat="43.265112" lon="11.5438068"><ele>253.0</ele><time>2026-05-02T15:19:38.688Z</time></trkpt><trkpt lat="43.2651501" lon="11.54369"><ele>253.0</ele><time>2026-05-02T15:19:39.694Z</time></trkpt><trkpt lat="43.2651867" lon="11.543579"><ele>253.0</ele><time>2026-05-02T15:19:40.682Z</time></trkpt><trkpt lat="43.2652181" lon="11.5434756"><ele>252.99999999999997</ele><time>2026-05-02T15:19:41.677Z</time></trkpt><trkpt lat="43.2652413" lon="11.5433631"><ele>253.0</ele><time>2026-05-02T15:19:42.673Z</time></trkpt><trkpt lat="43.2652512" lon="11.5432485"><ele>251.2</ele><time>2026-05-02T15:19:43.683Z</time></trkpt><trkpt lat="43.2652423" lon="11.5431233"><ele>249.4</ele><time>2026-05-02T15:19:44.687Z</time></trkpt><trkpt lat="43.2652296" lon="11.5429952"><ele>247.59999999999997</ele><time>2026-05-02T15:19:45.685Z</time></trkpt><trkpt lat="43.2652172" lon="11.5428515"><ele>245.79999999999998</ele><time>2026-05-02T15:19:46.679Z</time></trkpt><trkpt lat="43.2652175" lon="11.5426947"><ele>244.0</ele><time>2026-05-02T15:19:47.691Z</time></trkpt><trkpt lat="43.265232" lon="11.5425272"><ele>242.25</ele><time>2026-05-02T15:19:48.688Z</time></trkpt><trkpt lat="43.2652698" lon="11.5423505"><ele>240.5</ele><time>2026-05-02T15:19:49.69Z</time></trkpt><trkpt lat="43.2653222" lon="11.5421755"><ele>238.75</ele><time>2026-05-02T15:19:50.679Z</time></trkpt><trkpt lat="43.2653875" lon="11.5419818"><ele>237.0</ele><time>2026-05-02T15:19:51.693Z</time></trkpt><trkpt lat="43.265445" lon="11.541783"><ele>237.25</ele><time>2026-05-02T15:19:52.695Z</time></trkpt><trkpt lat="43.265486" lon="11.5416031"><ele>237.5</ele><time>2026-05-02T15:19:53.674Z</time></trkpt><trkpt lat="43.2655121" lon="11.541438"><ele>237.75</ele><time>2026-05-02T15:19:54.684Z</time></trkpt><trkpt lat="43.2655231" lon="11.5412839"><ele>238.0</ele><time>2026-05-02T15:19:55.697Z</time></trkpt><trkpt lat="43.2655313" lon="11.5411535"><ele>237.99999999999997</ele><time>2026-05-02T15:19:56.68Z</time></trkpt><trkpt lat="43.2655373" lon="11.5410464"><ele>238.0</ele><time>2026-05-02T15:19:57.69Z</time></trkpt><trkpt lat="43.2655448" lon="11.5409385"><ele>238.0</ele><time>2026-05-02T15:19:58.69Z</time></trkpt><trkpt lat="43.265561" lon="11.5408254"><ele>238.0</ele><time>2026-05-02T15:19:59.687Z</time></trkpt><trkpt lat="43.2655826" lon="11.5407048"><ele>237.99999999999997</ele><time>2026-05-02T15:20:00.682Z</time></trkpt><trkpt lat="43.2656248" lon="11.5405799"><ele>238.0</ele><time>2026-05-02T15:20:01.676Z</time></trkpt><trkpt lat="43.2656875" lon="11.5404736"><ele>239.8</ele><time>2026-05-02T15:20:02.7Z</time></trkpt><trkpt lat="43.2657576" lon="11.5403631"><ele>241.60000000000002</ele><time>2026-05-02T15:20:03.685Z</time></trkpt><trkpt lat="43.2658308" lon="11.5402577"><ele>243.39999999999998</ele><time>2026-05-02T15:20:04.693Z</time></trkpt><trkpt lat="43.2659034" lon="11.5401506"><ele>245.2</ele><time>2026-05-02T15:20:05.694Z</time></trkpt><trkpt lat="43.2659748" lon="11.5400432"><ele>247.0</ele><time>2026-05-02T15:20:06.676Z</time></trkpt><trkpt lat="43.266044" lon="11.5399377"><ele>247.0</ele><time>2026-05-02T15:20:07.685Z</time></trkpt><trkpt lat="43.266111" lon="11.5398372"><ele>247.0</ele><time>2026-05-02T15:20:08.685Z</time></trkpt><trkpt lat="43.2661755" lon="11.5397376"><ele>247.0</ele><time>2026-05-02T15:20:09.691Z</time></trkpt><trkpt lat="43.2662351" lon="11.5396417"><ele>247.0</ele><time>2026-05-02T15:20:10.687Z</time></trkpt><trkpt lat="43.2662956" lon="11.5395324"><ele>247.0</ele><time>2026-05-02T15:20:11.682Z</time></trkpt><trkpt lat="43.2663581" lon="11.5394177"><ele>248.0</ele><time>2026-05-02T15:20:12.676Z</time></trkpt><trkpt lat="43.2664247" lon="11.5392936"><ele>249.0</ele><time>2026-05-02T15:20:13.691Z</time></trkpt><trkpt lat="43.2664943" lon="11.5391825"><ele>250.0</ele><time>2026-05-02T15:20:14.682Z</time></trkpt><trkpt lat="43.2665687" lon="11.5391085"><ele>251.0</ele><time>2026-05-02T15:20:15.681Z</time></trkpt><trkpt lat="43.2666483" lon="11.5390459"><ele>252.0</ele><time>2026-05-02T15:20:16.683Z</time></trkpt><trkpt lat="43.266735" lon="11.5390034"><ele>250.5</ele><time>2026-05-02T15:20:17.681Z</time></trkpt><trkpt lat="43.2668387" lon="11.5389446"><ele>249.0</ele><time>2026-05-02T15:20:18.689Z</time></trkpt><trkpt lat="43.2669587" lon="11.5388773"><ele>247.5</ele><time>2026-05-02T15:20:19.696Z</time></trkpt><trkpt lat="43.2670831" lon="11.5387916"><ele>246.0</ele><time>2026-05-02T15:20:20.69Z</time></trkpt><trkpt lat="43.2672064" lon="11.5387105"><ele>243.4</ele><time>2026-05-02T15:20:21.686Z</time></trkpt><trkpt lat="43.2673169" lon="11.5386342"><ele>240.8</ele><time>2026-05-02T15:20:22.678Z</time></trkpt><trkpt lat="43.2674168" lon="11.5385595"><ele>238.20000000000002</ele><time>2026-05-02T15:20:23.681Z</time></trkpt><trkpt lat="43.2675094" lon="11.5384878"><ele>235.60000000000002</ele><time>2026-05-02T15:20:24.69Z</time></trkpt><trkpt lat="43.267601" lon="11.5384231"><ele>233.0</ele><time>2026-05-02T15:20:25.679Z</time></trkpt><trkpt lat="43.2676864" lon="11.5383632"><ele>233.0</ele><time>2026-05-02T15:20:26.683Z</time></trkpt><trkpt lat="43.2677743" lon="11.5383104"><ele>233.0</ele><time>2026-05-02T15:20:27.695Z</time></trkpt><trkpt lat="43.26787" lon="11.5382467"><ele>233.0</ele><time>2026-05-02T15:20:28.674Z</time></trkpt><trkpt lat="43.2679689" lon="11.5381782"><ele>233.0</ele><time>2026-05-02T15:20:29.676Z</time></trkpt><trkpt lat="43.2680704" lon="11.5381127"><ele>233.0</ele><time>2026-05-02T15:20:30.681Z</time></trkpt><trkpt lat="43.2681677" lon="11.5380479"><ele>230.4</ele><time>2026-05-02T15:20:31.688Z</time></trkpt><trkpt lat="43.2682647" lon="11.5379838"><ele>227.8</ele><time>2026-05-02T15:20:32.673Z</time></trkpt><trkpt lat="43.2683626" lon="11.5379128"><ele>225.2</ele><time>2026-05-02T15:20:33.699Z</time></trkpt><trkpt lat="43.2684534" lon="11.5378483"><ele>222.6</ele><time>2026-05-02T15:20:34.682Z</time></trkpt><trkpt lat="43.268544" lon="11.5377843"><ele>220.0</ele><time>2026-05-02T15:20:35.687Z</time></trkpt><trkpt lat="43.268645" lon="11.5377305"><ele>219.4</ele><time>2026-05-02T15:20:36.682Z</time></trkpt><trkpt lat="43.2687458" lon="11.5377133"><ele>218.8</ele><time>2026-05-02T15:20:37.693Z</time></trkpt><trkpt lat="43.2688434" lon="11.5377222"><ele>218.2</ele><time>2026-05-02T15:20:38.69Z</time></trkpt><trkpt lat="43.2689433" lon="11.5377558"><ele>217.6</ele><time>2026-05-02T15:20:39.688Z</time></trkpt><trkpt lat="43.2690409" lon="11.5377926"><ele>217.0</ele><time>2026-05-02T15:20:40.687Z</time></trkpt><trkpt lat="43.269133" lon="11.537814"><ele>214.2</ele><time>2026-05-02T15:20:41.685Z</time></trkpt><trkpt lat="43.2692276" lon="11.5378212"><ele>211.39999999999998</ele><time>2026-05-02T15:20:42.694Z</time></trkpt><trkpt lat="43.2693279" lon="11.5378236"><ele>208.60000000000002</ele><time>2026-05-02T15:20:43.685Z</time></trkpt><trkpt lat="43.2694369" lon="11.5378056"><ele>205.8</ele><time>2026-05-02T15:20:44.68Z</time></trkpt><trkpt lat="43.2695439" lon="11.5377682"><ele>203.0</ele><time>2026-05-02T15:20:45.682Z</time></trkpt><trkpt lat="43.2696473" lon="11.5377229"><ele>203.0</ele><time>2026-05-02T15:20:46.685Z</time></trkpt><trkpt lat="43.2697536" lon="11.5376756"><ele>203.0</ele><time>2026-05-02T15:20:47.691Z</time></trkpt><trkpt lat="43.2698514" lon="11.5376286"><ele>203.0</ele><time>2026-05-02T15:20:48.701Z</time></trkpt><trkpt lat="43.2699466" lon="11.5375912"><ele>203.0</ele><time>2026-05-02T15:20:49.701Z</time></trkpt><trkpt lat="43.2700404" lon="11.5375713"><ele>203.0</ele><time>2026-05-02T15:20:50.683Z</time></trkpt><trkpt lat="43.270133" lon="11.5375767"><ele>200.83333333333334</ele><time>2026-05-02T15:20:51.684Z</time></trkpt><trkpt lat="43.2702113" lon="11.5376002"><ele>198.66666666666669</ele><time>2026-05-02T15:20:52.685Z</time></trkpt><trkpt lat="43.2702833" lon="11.5376269"><ele>196.5</ele><time>2026-05-02T15:20:53.687Z</time></trkpt><trkpt lat="43.2703854" lon="11.5376661"><ele>194.33333333333334</ele><time>2026-05-02T15:20:55.685Z</time></trkpt><trkpt lat="43.2704675" lon="11.5376872"><ele>192.16666666666669</ele><time>2026-05-02T15:20:57.689Z</time></trkpt><trkpt lat="43.2705587" lon="11.537705"><ele>190.0</ele><time>2026-05-02T15:20:59.69Z</time></trkpt><trkpt lat="43.2706793" lon="11.5377478"><ele>189.0</ele><time>2026-05-02T15:21:01.684Z</time></trkpt><trkpt lat="43.2707505" lon="11.5377722"><ele>188.0</ele><time>2026-05-02T15:21:02.689Z</time></trkpt><trkpt lat="43.2708271" lon="11.5378212"><ele>187.0</ele><time>2026-05-02T15:21:03.672Z</time></trkpt><trkpt lat="43.2709092" lon="11.5378891"><ele>186.0</ele><time>2026-05-02T15:21:04.686Z</time></trkpt><trkpt lat="43.2709951" lon="11.5379575"><ele>185.0</ele><time>2026-05-02T15:21:05.684Z</time></trkpt><trkpt lat="43.2710768" lon="11.5380519"><ele>184.5</ele><time>2026-05-02T15:21:06.682Z</time></trkpt><trkpt lat="43.2711492" lon="11.5381678"><ele>184.0</ele><time>2026-05-02T15:21:07.68Z</time></trkpt><trkpt lat="43.2712148" lon="11.5382868"><ele>183.5</ele><time>2026-05-02T15:21:08.685Z</time></trkpt><trkpt lat="43.2712818" lon="11.5384281"><ele>183.0</ele><time>2026-05-02T15:21:09.69Z</time></trkpt><trkpt lat="43.2713463" lon="11.5385665"><ele>182.75</ele><time>2026-05-02T15:21:10.696Z</time></trkpt><trkpt lat="43.2714118" lon="11.5387207"><ele>182.5</ele><time>2026-05-02T15:21:11.675Z</time></trkpt><trkpt lat="43.2714776" lon="11.5388835"><ele>182.25</ele><time>2026-05-02T15:21:12.681Z</time></trkpt><trkpt lat="43.2715563" lon="11.5390826"><ele>182.0</ele><time>2026-05-02T15:21:13.674Z</time></trkpt><trkpt lat="43.2716418" lon="11.5393099"><ele>183.66666666666666</ele><time>2026-05-02T15:21:14.687Z</time></trkpt><trkpt lat="43.2717359" lon="11.539546"><ele>185.33333333333334</ele><time>2026-05-02T15:21:15.677Z</time></trkpt><trkpt lat="43.2718297" lon="11.5397574"><ele>187.0</ele><time>2026-05-02T15:21:16.692Z</time></trkpt><trkpt lat="43.2719192" lon="11.5399621"><ele>187.66666666666669</ele><time>2026-05-02T15:21:17.682Z</time></trkpt><trkpt lat="43.2720009" lon="11.5401647"><ele>188.33333333333334</ele><time>2026-05-02T15:21:18.692Z</time></trkpt><trkpt lat="43.2720876" lon="11.5403734"><ele>189.0</ele><time>2026-05-02T15:21:19.689Z</time></trkpt><trkpt lat="43.2721753" lon="11.5405873"><ele>189.66666666666666</ele><time>2026-05-02T15:21:20.681Z</time></trkpt><trkpt lat="43.2722582" lon="11.5408094"><ele>190.33333333333331</ele><time>2026-05-02T15:21:21.684Z</time></trkpt><trkpt lat="43.2723339" lon="11.5410287"><ele>191.0</ele><time>2026-05-02T15:21:22.686Z</time></trkpt><trkpt lat="43.2723973" lon="11.5412492"><ele>195.0</ele><time>2026-05-02T15:21:23.68Z</time></trkpt><trkpt lat="43.2724468" lon="11.5414719"><ele>199.0</ele><time>2026-05-02T15:21:24.697Z</time></trkpt><trkpt lat="43.2724794" lon="11.5417074"><ele>203.0</ele><time>2026-05-02T15:21:25.676Z</time></trkpt><trkpt lat="43.272505" lon="11.5419574"><ele>205.0</ele><time>2026-05-02T15:21:26.686Z</time></trkpt><trkpt lat="43.2725314" lon="11.5421742"><ele>207.0</ele><time>2026-05-02T15:21:27.681Z</time></trkpt><trkpt lat="43.2725549" lon="11.5423618"><ele>209.0</ele><time>2026-05-02T15:21:28.692Z</time></trkpt><trkpt lat="43.2725815" lon="11.5425272"><ele>211.0</ele><time>2026-05-02T15:21:29.692Z</time></trkpt><trkpt lat="43.2726085" lon="11.5426586"><ele>210.99999999999997</ele><time>2026-05-02T15:21:30.692Z</time></trkpt><trkpt lat="43.2726499" lon="11.5427724"><ele>211.0</ele><time>2026-05-02T15:21:31.68Z</time></trkpt><trkpt lat="43.2727038" lon="11.5428627"><ele>211.0</ele><time>2026-05-02T15:21:32.679Z</time></trkpt><trkpt lat="43.2727813" lon="11.542917"><ele>211.0</ele><time>2026-05-02T15:21:33.68Z</time></trkpt><trkpt lat="43.2728635" lon="11.5429366"><ele>210.99999999999997</ele><time>2026-05-02T15:21:34.683Z</time></trkpt><trkpt lat="43.2729459" lon="11.5429199"><ele>211.0</ele><time>2026-05-02T15:21:35.681Z</time></trkpt><trkpt lat="43.273037" lon="11.5428962"><ele>215.20000000000002</ele><time>2026-05-02T15:21:36.681Z</time></trkpt><trkpt lat="43.2731383" lon="11.5429119"><ele>219.4</ele><time>2026-05-02T15:21:37.701Z</time></trkpt><trkpt lat="43.2732425" lon="11.5429511"><ele>223.6</ele><time>2026-05-02T15:21:38.694Z</time></trkpt><trkpt lat="43.2733393" lon="11.5430249"><ele>227.8</ele><time>2026-05-02T15:21:39.685Z</time></trkpt><trkpt lat="43.2734314" lon="11.5431088"><ele>232.0</ele><time>2026-05-02T15:21:40.68Z</time></trkpt><trkpt lat="43.2735083" lon="11.5431765"><ele>231.99999999999997</ele><time>2026-05-02T15:21:41.687Z</time></trkpt><trkpt lat="43.2735689" lon="11.5432526"><ele>232.0</ele><time>2026-05-02T15:21:42.677Z</time></trkpt><trkpt lat="43.2736165" lon="11.5433421"><ele>232.0</ele><time>2026-05-02T15:21:43.691Z</time></trkpt><trkpt lat="43.2736506" lon="11.5434401"><ele>232.0</ele><time>2026-05-02T15:21:44.675Z</time></trkpt><trkpt lat="43.273658" lon="11.5435516"><ele>231.99999999999997</ele><time>2026-05-02T15:21:45.68Z</time></trkpt><trkpt lat="43.2736346" lon="11.543658"><ele>232.0</ele><time>2026-05-02T15:21:46.677Z</time></trkpt><trkpt lat="43.2735951" lon="11.543769"><ele>233.6</ele><time>2026-05-02T15:21:47.682Z</time></trkpt><trkpt lat="43.2735425" lon="11.5438712"><ele>235.2</ele><time>2026-05-02T15:21:48.68Z</time></trkpt><trkpt lat="43.2734796" lon="11.5439697"><ele>236.8</ele><time>2026-05-02T15:21:49.688Z</time></trkpt><trkpt lat="43.2734156" lon="11.5440717"><ele>238.4</ele><time>2026-05-02T15:21:50.685Z</time></trkpt><trkpt lat="43.2733518" lon="11.5441784"><ele>240.0</ele><time>2026-05-02T15:21:51.683Z</time></trkpt><trkpt lat="43.2732885" lon="11.5442867"><ele>240.0</ele><time>2026-05-02T15:21:52.684Z</time></trkpt><trkpt lat="43.2732368" lon="11.5443954"><ele>240.0</ele><time>2026-05-02T15:21:53.688Z</time></trkpt><trkpt lat="43.2732049" lon="11.5445207"><ele>240.0</ele><time>2026-05-02T15:21:54.689Z</time></trkpt><trkpt lat="43.273187" lon="11.5446762"><ele>240.0</ele><time>2026-05-02T15:21:55.678Z</time></trkpt><trkpt lat="43.2731776" lon="11.5448469"><ele>240.0</ele><time>2026-05-02T15:21:56.695Z</time></trkpt><trkpt lat="43.2731681" lon="11.54505"><ele>241.66666666666669</ele><time>2026-05-02T15:21:57.681Z</time></trkpt><trkpt lat="43.27316" lon="11.5452694"><ele>243.33333333333334</ele><time>2026-05-02T15:21:58.688Z</time></trkpt><trkpt lat="43.2731584" lon="11.5454838"><ele>245.0</ele><time>2026-05-02T15:21:59.682Z</time></trkpt><trkpt lat="43.2731713" lon="11.5457101"><ele>247.33333333333334</ele><time>2026-05-02T15:22:00.692Z</time></trkpt><trkpt lat="43.2731914" lon="11.5459409"><ele>249.66666666666669</ele><time>2026-05-02T15:22:01.678Z</time></trkpt><trkpt lat="43.2732377" lon="11.5461538"><ele>252.0</ele><time>2026-05-02T15:22:02.687Z</time></trkpt><trkpt lat="43.2732979" lon="11.5463675"><ele>254.25</ele><time>2026-05-02T15:22:03.686Z</time></trkpt><trkpt lat="43.2733757" lon="11.5465647"><ele>256.5</ele><time>2026-05-02T15:22:04.692Z</time></trkpt><trkpt lat="43.2734471" lon="11.5467256"><ele>258.75</ele><time>2026-05-02T15:22:05.686Z</time></trkpt><trkpt lat="43.2735235" lon="11.5468534"><ele>261.0</ele><time>2026-05-02T15:22:06.677Z</time></trkpt><trkpt lat="43.2736061" lon="11.5469745"><ele>261.0</ele><time>2026-05-02T15:22:07.694Z</time></trkpt><trkpt lat="43.2737018" lon="11.5470397"><ele>261.0</ele><time>2026-05-02T15:22:08.68Z</time></trkpt><trkpt lat="43.2738094" lon="11.5470792"><ele>261.0</ele><time>2026-05-02T15:22:09.688Z</time></trkpt><trkpt lat="43.2739206" lon="11.5471026"><ele>261.0</ele><time>2026-05-02T15:22:10.692Z</time></trkpt><trkpt lat="43.2740338" lon="11.5471067"><ele>261.0</ele><time>2026-05-02T15:22:11.684Z</time></trkpt><trkpt lat="43.274152" lon="11.5471001"><ele>265.5</ele><time>2026-05-02T15:22:12.676Z</time></trkpt><trkpt lat="43.2742686" lon="11.5470939"><ele>270.0</ele><time>2026-05-02T15:22:13.683Z</time></trkpt><trkpt lat="43.27439" lon="11.5470869"><ele>274.5</ele><time>2026-05-02T15:22:14.688Z</time></trkpt><trkpt lat="43.2745119" lon="11.5470865"><ele>279.0</ele><time>2026-05-02T15:22:15.681Z</time></trkpt><trkpt lat="43.2746302" lon="11.5471122"><ele>279.0</ele><time>2026-05-02T15:22:16.689Z</time></trkpt><trkpt lat="43.2747336" lon="11.5471731"><ele>279.0</ele><time>2026-05-02T15:22:17.689Z</time></trkpt><trkpt lat="43.2748235" lon="11.5472469"><ele>279.0</ele><time>2026-05-02T15:22:18.679Z</time></trkpt><trkpt lat="43.2749193" lon="11.547323"><ele>279.0</ele><time>2026-05-02T15:22:19.681Z</time></trkpt><trkpt lat="43.2750223" lon="11.5473937"><ele>279.0</ele><time>2026-05-02T15:22:20.691Z</time></trkpt><trkpt lat="43.2751193" lon="11.5474613"><ele>280.4</ele><time>2026-05-02T15:22:21.691Z</time></trkpt><trkpt lat="43.2752093" lon="11.5475375"><ele>281.79999999999995</ele><time>2026-05-02T15:22:22.679Z</time></trkpt><trkpt lat="43.2752968" lon="11.5476208"><ele>283.20000000000005</ele><time>2026-05-02T15:22:23.679Z</time></trkpt><trkpt lat="43.27539" lon="11.5477109"><ele>284.6</ele><time>2026-05-02T15:22:24.693Z</time></trkpt><trkpt lat="43.2754861" lon="11.5477998"><ele>286.0</ele><time>2026-05-02T15:22:25.68Z</time></trkpt><trkpt lat="43.2755837" lon="11.5478874"><ele>289.75</ele><time>2026-05-02T15:22:26.682Z</time></trkpt><trkpt lat="43.2756875" lon="11.54796"><ele>293.5</ele><time>2026-05-02T15:22:27.684Z</time></trkpt><trkpt lat="43.2758013" lon="11.5480215"><ele>297.25</ele><time>2026-05-02T15:22:28.68Z</time></trkpt><trkpt lat="43.2759198" lon="11.5480741"><ele>301.0</ele><time>2026-05-02T15:22:29.679Z</time></trkpt><trkpt lat="43.2760375" lon="11.5481208"><ele>301.0</ele><time>2026-05-02T15:22:30.684Z</time></trkpt><trkpt lat="43.2761639" lon="11.548162"><ele>301.0</ele><time>2026-05-02T15:22:31.68Z</time></trkpt><trkpt lat="43.2762928" lon="11.548212"><ele>301.0</ele><time>2026-05-02T15:22:32.7Z</time></trkpt><trkpt lat="43.2764078" lon="11.5482568"><ele>301.0</ele><time>2026-05-02T15:22:33.682Z</time></trkpt><trkpt lat="43.2765025" lon="11.5483008"><ele>299.6</ele><time>2026-05-02T15:22:34.682Z</time></trkpt><trkpt lat="43.2765962" lon="11.5483533"><ele>298.20000000000005</ele><time>2026-05-02T15:22:35.688Z</time></trkpt><trkpt lat="43.2766851" lon="11.5484112"><ele>296.79999999999995</ele><time>2026-05-02T15:22:36.694Z</time></trkpt><trkpt lat="43.2767807" lon="11.5484824"><ele>295.4</ele><time>2026-05-02T15:22:37.697Z</time></trkpt><trkpt lat="43.2768762" lon="11.5485727"><ele>294.0</ele><time>2026-05-02T15:22:38.676Z</time></trkpt><trkpt lat="43.2769633" lon="11.5486621"><ele>293.0</ele><time>2026-05-02T15:22:39.689Z</time></trkpt><trkpt lat="43.2770449" lon="11.5487428"><ele>292.0</ele><time>2026-05-02T15:22:40.692Z</time></trkpt><trkpt lat="43.2771279" lon="11.5488241"><ele>291.0</ele><time>2026-05-02T15:22:41.685Z</time></trkpt><trkpt lat="43.2772186" lon="11.548903"><ele>290.0</ele><time>2026-05-02T15:22:42.686Z</time></trkpt><trkpt lat="43.2773113" lon="11.548983"><ele>289.0</ele><time>2026-05-02T15:22:43.682Z</time></trkpt><trkpt lat="43.2774065" lon="11.5490626"><ele>289.0</ele><time>2026-05-02T15:22:44.688Z</time></trkpt><trkpt lat="43.2774966" lon="11.5491448"><ele>289.0</ele><time>2026-05-02T15:22:45.68Z</time></trkpt><trkpt lat="43.2775799" lon="11.5492184"><ele>289.0</ele><time>2026-05-02T15:22:46.682Z</time></trkpt><trkpt lat="43.2776644" lon="11.5492878"><ele>289.0</ele><time>2026-05-02T15:22:47.687Z</time></trkpt><trkpt lat="43.277748" lon="11.549352"><ele>289.0</ele><time>2026-05-02T15:22:48.679Z</time></trkpt><trkpt lat="43.277838" lon="11.5493986"><ele>289.0</ele><time>2026-05-02T15:22:49.682Z</time></trkpt><trkpt lat="43.2779412" lon="11.5494308"><ele>289.0</ele><time>2026-05-02T15:22:50.688Z</time></trkpt><trkpt lat="43.2780541" lon="11.549438"><ele>289.0</ele><time>2026-05-02T15:22:51.684Z</time></trkpt><trkpt lat="43.2781808" lon="11.5494382"><ele>289.0</ele><time>2026-05-02T15:22:52.679Z</time></trkpt><trkpt lat="43.2783173" lon="11.5494424"><ele>285.25</ele><time>2026-05-02T15:22:53.682Z</time></trkpt><trkpt lat="43.2784551" lon="11.5494453"><ele>281.5</ele><time>2026-05-02T15:22:54.685Z</time></trkpt><trkpt lat="43.27858" lon="11.5494457"><ele>277.75</ele><time>2026-05-02T15:22:55.689Z</time></trkpt><trkpt lat="43.2786973" lon="11.5494579"><ele>274.0</ele><time>2026-05-02T15:22:56.679Z</time></trkpt><trkpt lat="43.2788161" lon="11.5494796"><ele>274.0</ele><time>2026-05-02T15:22:57.683Z</time></trkpt><trkpt lat="43.2789274" lon="11.5495235"><ele>274.0</ele><time>2026-05-02T15:22:58.687Z</time></trkpt><trkpt lat="43.2790471" lon="11.549595"><ele>274.0</ele><time>2026-05-02T15:22:59.689Z</time></trkpt><trkpt lat="43.2791778" lon="11.5496927"><ele>274.0</ele><time>2026-05-02T15:23:00.69Z</time></trkpt><trkpt lat="43.2793117" lon="11.5497784"><ele>273.5</ele><time>2026-05-02T15:23:01.679Z</time></trkpt><trkpt lat="43.2794367" lon="11.5498401"><ele>273.0</ele><time>2026-05-02T15:23:02.683Z</time></trkpt><trkpt lat="43.2795526" lon="11.5498828"><ele>272.5</ele><time>2026-05-02T15:23:03.678Z</time></trkpt><trkpt lat="43.2796766" lon="11.5499014"><ele>272.0</ele><time>2026-05-02T15:23:04.689Z</time></trkpt><trkpt lat="43.2797898" lon="11.5499108"><ele>271.25</ele><time>2026-05-02T15:23:05.693Z</time></trkpt><trkpt lat="43.2799095" lon="11.5499003"><ele>270.5</ele><time>2026-05-02T15:23:06.689Z</time></trkpt><trkpt lat="43.28004" lon="11.5498797"><ele>269.75</ele><time>2026-05-02T15:23:07.689Z</time></trkpt><trkpt lat="43.2801623" lon="11.5498298"><ele>269.0</ele><time>2026-05-02T15:23:08.69Z</time></trkpt><trkpt lat="43.2802942" lon="11.5497584"><ele>269.0</ele><time>2026-05-02T15:23:09.685Z</time></trkpt><trkpt lat="43.2804247" lon="11.5496626"><ele>269.0</ele><time>2026-05-02T15:23:10.685Z</time></trkpt><trkpt lat="43.2805372" lon="11.549582"><ele>269.0</ele><time>2026-05-02T15:23:11.69Z</time></trkpt><trkpt lat="43.2806375" lon="11.5494931"><ele>269.0</ele><time>2026-05-02T15:23:12.686Z</time></trkpt><trkpt lat="43.2807326" lon="11.5493856"><ele>272.0</ele><time>2026-05-02T15:23:13.693Z</time></trkpt><trkpt lat="43.2808259" lon="11.5492272"><ele>275.0</ele><time>2026-05-02T15:23:14.686Z</time></trkpt><trkpt lat="43.2809152" lon="11.5490599"><ele>278.0</ele><time>2026-05-02T15:23:15.679Z</time></trkpt><trkpt lat="43.2809988" lon="11.5489168"><ele>281.0</ele><time>2026-05-02T15:23:16.696Z</time></trkpt><trkpt lat="43.2810856" lon="11.5487909"><ele>280.75</ele><time>2026-05-02T15:23:17.68Z</time></trkpt><trkpt lat="43.2811709" lon="11.5486871"><ele>280.5</ele><time>2026-05-02T15:23:18.685Z</time></trkpt><trkpt lat="43.2812589" lon="11.5485916"><ele>280.25</ele><time>2026-05-02T15:23:19.69Z</time></trkpt><trkpt lat="43.2813491" lon="11.548496"><ele>280.0</ele><time>2026-05-02T15:23:20.669Z</time></trkpt><trkpt lat="43.2814427" lon="11.5483968"><ele>285.25</ele><time>2026-05-02T15:23:21.687Z</time></trkpt><trkpt lat="43.2815449" lon="11.5483041"><ele>290.5</ele><time>2026-05-02T15:23:22.681Z</time></trkpt><trkpt lat="43.2816597" lon="11.5482129"><ele>295.75</ele><time>2026-05-02T15:23:23.685Z</time></trkpt><trkpt lat="43.2817781" lon="11.5481432"><ele>301.0</ele><time>2026-05-02T15:23:24.678Z</time></trkpt><trkpt lat="43.2818953" lon="11.5481119"><ele>301.0</ele><time>2026-05-02T15:23:25.684Z</time></trkpt><trkpt lat="43.2819932" lon="11.5481062"><ele>301.0</ele><time>2026-05-02T15:23:26.682Z</time></trkpt><trkpt lat="43.2820787" lon="11.5481075"><ele>301.0</ele><time>2026-05-02T15:23:27.683Z</time></trkpt><trkpt lat="43.2821575" lon="11.5481185"><ele>301.0</ele><time>2026-05-02T15:23:28.681Z</time></trkpt><trkpt lat="43.2822533" lon="11.5481331"><ele>301.0</ele><time>2026-05-02T15:23:29.667Z</time></trkpt><trkpt lat="43.2823717" lon="11.5481503"><ele>302.40000000000003</ele><time>2026-05-02T15:23:30.68Z</time></trkpt><trkpt lat="43.2824904" lon="11.5481707"><ele>303.8</ele><time>2026-05-02T15:23:31.679Z</time></trkpt><trkpt lat="43.2826013" lon="11.5481851"><ele>305.20000000000005</ele><time>2026-05-02T15:23:32.686Z</time></trkpt><trkpt lat="43.2827087" lon="11.5482044"><ele>306.6</ele><time>2026-05-02T15:23:33.683Z</time></trkpt><trkpt lat="43.2828105" lon="11.5482389"><ele>308.0</ele><time>2026-05-02T15:23:34.686Z</time></trkpt><trkpt lat="43.2829125" lon="11.5482907"><ele>308.0</ele><time>2026-05-02T15:23:35.665Z</time></trkpt><trkpt lat="43.2830153" lon="11.5483523"><ele>308.0</ele><time>2026-05-02T15:23:36.67Z</time></trkpt><trkpt lat="43.2831214" lon="11.5484339"><ele>308.0</ele><time>2026-05-02T15:23:37.678Z</time></trkpt><trkpt lat="43.2832274" lon="11.5485315"><ele>308.0</ele><time>2026-05-02T15:23:38.671Z</time></trkpt><trkpt lat="43.2833354" lon="11.5486221"><ele>310.0</ele><time>2026-05-02T15:23:39.683Z</time></trkpt><trkpt lat="43.2834498" lon="11.5486977"><ele>312.0</ele><time>2026-05-02T15:23:40.68Z</time></trkpt><trkpt lat="43.2835677" lon="11.5487513"><ele>314.0</ele><time>2026-05-02T15:23:41.686Z</time></trkpt><trkpt lat="43.28369" lon="11.5487913"><ele>316.0</ele><time>2026-05-02T15:23:42.675Z</time></trkpt><trkpt lat="43.2837996" lon="11.5488273"><ele>316.0</ele><time>2026-05-02T15:23:43.676Z</time></trkpt><trkpt lat="43.2838956" lon="11.5488423"><ele>316.0</ele><time>2026-05-02T15:23:44.683Z</time></trkpt><trkpt lat="43.2839889" lon="11.5488417"><ele>316.0</ele><time>2026-05-02T15:23:45.673Z</time></trkpt><trkpt lat="43.2840878" lon="11.5488205"><ele>316.0</ele><time>2026-05-02T15:23:46.701Z</time></trkpt><trkpt lat="43.2841844" lon="11.5487675"><ele>316.0</ele><time>2026-05-02T15:23:47.672Z</time></trkpt><trkpt lat="43.2842682" lon="11.5486958"><ele>310.75</ele><time>2026-05-02T15:23:48.694Z</time></trkpt><trkpt lat="43.2843486" lon="11.5485829"><ele>305.5</ele><time>2026-05-02T15:23:49.669Z</time></trkpt><trkpt lat="43.2844172" lon="11.5484601"><ele>300.25</ele><time>2026-05-02T15:23:50.684Z</time></trkpt><trkpt lat="43.2844817" lon="11.548287"><ele>295.0</ele><time>2026-05-02T15:23:51.686Z</time></trkpt><trkpt lat="43.2845556" lon="11.5481041"><ele>295.0</ele><time>2026-05-02T15:23:52.681Z</time></trkpt><trkpt lat="43.2846265" lon="11.5479415"><ele>295.0</ele><time>2026-05-02T15:23:53.69Z</time></trkpt><trkpt lat="43.2846809" lon="11.5477667"><ele>295.0</ele><time>2026-05-02T15:23:54.676Z</time></trkpt><trkpt lat="43.2847258" lon="11.5475761"><ele>295.0</ele><time>2026-05-02T15:23:55.688Z</time></trkpt><trkpt lat="43.2847536" lon="11.5473758"><ele>298.0</ele><time>2026-05-02T15:23:56.689Z</time></trkpt><trkpt lat="43.2847831" lon="11.547212"><ele>301.0</ele><time>2026-05-02T15:23:57.689Z</time></trkpt><trkpt lat="43.2848219" lon="11.5470581"><ele>304.0</ele><time>2026-05-02T15:23:58.684Z</time></trkpt><trkpt lat="43.2848718" lon="11.546922"><ele>307.0</ele><time>2026-05-02T15:23:59.685Z</time></trkpt><trkpt lat="43.2849321" lon="11.5468014"><ele>307.75</ele><time>2026-05-02T15:24:00.688Z</time></trkpt><trkpt lat="43.2850276" lon="11.5466962"><ele>308.5</ele><time>2026-05-02T15:24:01.689Z</time></trkpt><trkpt lat="43.2851431" lon="11.5466016"><ele>309.25</ele><time>2026-05-02T15:24:02.687Z</time></trkpt><trkpt lat="43.2852738" lon="11.5465314"><ele>310.0</ele><time>2026-05-02T15:24:03.678Z</time></trkpt><trkpt lat="43.2854136" lon="11.5464675"><ele>310.0</ele><time>2026-05-02T15:24:04.684Z</time></trkpt><trkpt lat="43.2855502" lon="11.5464093"><ele>310.0</ele><time>2026-05-02T15:24:05.686Z</time></trkpt><trkpt lat="43.2856654" lon="11.5463455"><ele>310.0</ele><time>2026-05-02T15:24:06.676Z</time></trkpt><trkpt lat="43.2857725" lon="11.5462709"><ele>310.0</ele><time>2026-05-02T15:24:07.683Z</time></trkpt><trkpt lat="43.2858871" lon="11.5461766"><ele>310.8</ele><time>2026-05-02T15:24:08.68Z</time></trkpt><trkpt lat="43.2859946" lon="11.5460842"><ele>311.6</ele><time>2026-05-02T15:24:09.685Z</time></trkpt><trkpt lat="43.2860863" lon="11.5459981"><ele>312.4</ele><time>2026-05-02T15:24:10.69Z</time></trkpt><trkpt lat="43.2861704" lon="11.5459383"><ele>313.2</ele><time>2026-05-02T15:24:11.676Z</time></trkpt><trkpt lat="43.2862573" lon="11.5459003"><ele>314.0</ele><time>2026-05-02T15:24:12.689Z</time></trkpt><trkpt lat="43.2863514" lon="11.5458833"><ele>313.59999999999997</ele><time>2026-05-02T15:24:13.681Z</time></trkpt><trkpt lat="43.2864473" lon="11.5459041"><ele>313.2</ele><time>2026-05-02T15:24:14.685Z</time></trkpt><trkpt lat="43.2865472" lon="11.5459639"><ele>312.79999999999995</ele><time>2026-05-02T15:24:15.685Z</time></trkpt><trkpt lat="43.2866408" lon="11.5460396"><ele>312.4</ele><time>2026-05-02T15:24:16.693Z</time></trkpt><trkpt lat="43.2867315" lon="11.546108"><ele>312.0</ele><time>2026-05-02T15:24:17.674Z</time></trkpt><trkpt lat="43.2868268" lon="11.5461507"><ele>312.0</ele><time>2026-05-02T15:24:18.67Z</time></trkpt><trkpt lat="43.2869322" lon="11.5461535"><ele>312.0</ele><time>2026-05-02T15:24:19.683Z</time></trkpt><trkpt lat="43.2870347" lon="11.5461315"><ele>312.0</ele><time>2026-05-02T15:24:20.677Z</time></trkpt><trkpt lat="43.2871279" lon="11.546078"><ele>312.0</ele><time>2026-05-02T15:24:21.684Z</time></trkpt><trkpt lat="43.2872086" lon="11.5460005"><ele>312.0</ele><time>2026-05-02T15:24:22.688Z</time></trkpt><trkpt lat="43.2872434" lon="11.5458947"><ele>309.25</ele><time>2026-05-02T15:24:23.68Z</time></trkpt><trkpt lat="43.2872758" lon="11.5457643"><ele>306.5</ele><time>2026-05-02T15:24:24.686Z</time></trkpt><trkpt lat="43.2873084" lon="11.545606"><ele>303.75</ele><time>2026-05-02T15:24:25.679Z</time></trkpt><trkpt lat="43.2873359" lon="11.5454229"><ele>301.0</ele><time>2026-05-02T15:24:26.675Z</time></trkpt><trkpt lat="43.2873654" lon="11.5452169"><ele>301.0</ele><time>2026-05-02T15:24:27.674Z</time></trkpt><trkpt lat="43.2873831" lon="11.544989"><ele>301.0</ele><time>2026-05-02T15:24:28.683Z</time></trkpt><trkpt lat="43.2874068" lon="11.5447681"><ele>301.0</ele><time>2026-05-02T15:24:29.677Z</time></trkpt><trkpt lat="43.2874493" lon="11.5445733"><ele>300.5</ele><time>2026-05-02T15:24:30.682Z</time></trkpt><trkpt lat="43.2875012" lon="11.5444024"><ele>300.0</ele><time>2026-05-02T15:24:31.677Z</time></trkpt><trkpt lat="43.2875526" lon="11.5442481"><ele>299.5</ele><time>2026-05-02T15:24:32.669Z</time></trkpt><trkpt lat="43.2875921" lon="11.5441104"><ele>299.0</ele><time>2026-05-02T15:24:33.677Z</time></trkpt><trkpt lat="43.2876218" lon="11.5439854"><ele>299.0</ele><time>2026-05-02T15:24:34.689Z</time></trkpt><trkpt lat="43.2876404" lon="11.5438296"><ele>299.0</ele><time>2026-05-02T15:24:35.683Z</time></trkpt><trkpt lat="43.2876437" lon="11.5436533"><ele>299.0</ele><time>2026-05-02T15:24:36.698Z</time></trkpt><trkpt lat="43.2876417" lon="11.543472"><ele>299.0</ele><time>2026-05-02T15:24:37.683Z</time></trkpt><trkpt lat="43.2876575" lon="11.5432848"><ele>297.75</ele><time>2026-05-02T15:24:38.675Z</time></trkpt><trkpt lat="43.2876961" lon="11.5430964"><ele>296.5</ele><time>2026-05-02T15:24:39.694Z</time></trkpt><trkpt lat="43.2877519" lon="11.5428974"><ele>295.25</ele><time>2026-05-02T15:24:40.68Z</time></trkpt><trkpt lat="43.2877853" lon="11.5427362"><ele>294.0</ele><time>2026-05-02T15:24:41.692Z</time></trkpt><trkpt lat="43.2878331" lon="11.5426042"><ele>296.0</ele><time>2026-05-02T15:24:42.684Z</time></trkpt><trkpt lat="43.2879014" lon="11.5424581"><ele>298.0</ele><time>2026-05-02T15:24:43.67Z</time></trkpt><trkpt lat="43.2879791" lon="11.5423206"><ele>300.0</ele><time>2026-05-02T15:24:44.697Z</time></trkpt><trkpt lat="43.2880599" lon="11.5421693"><ele>302.0</ele><time>2026-05-02T15:24:45.673Z</time></trkpt><trkpt lat="43.2881435" lon="11.5420032"><ele>302.0</ele><time>2026-05-02T15:24:46.678Z</time></trkpt><trkpt lat="43.2882189" lon="11.5418362"><ele>302.0</ele><time>2026-05-02T15:24:47.682Z</time></trkpt><trkpt lat="43.2882719" lon="11.5416958"><ele>302.0</ele><time>2026-05-02T15:24:48.681Z</time></trkpt><trkpt lat="43.2883301" lon="11.5415689"><ele>302.0</ele><time>2026-05-02T15:24:49.679Z</time></trkpt><trkpt lat="43.2884028" lon="11.5414691"><ele>302.0</ele><time>2026-05-02T15:24:50.681Z</time></trkpt><trkpt lat="43.2884986" lon="11.5413709"><ele>302.0</ele><time>2026-05-02T15:24:51.699Z</time></trkpt><trkpt lat="43.2886051" lon="11.5413011"><ele>302.0</ele><time>2026-05-02T15:24:52.687Z</time></trkpt><trkpt lat="43.2887323" lon="11.5412406"><ele>302.0</ele><time>2026-05-02T15:24:53.678Z</time></trkpt><trkpt lat="43.2888659" lon="11.5411996"><ele>302.0</ele><time>2026-05-02T15:24:54.681Z</time></trkpt><trkpt lat="43.2890032" lon="11.5411664"><ele>302.0</ele><time>2026-05-02T15:24:55.689Z</time></trkpt><trkpt lat="43.2891257" lon="11.5411322"><ele>302.0</ele><time>2026-05-02T15:24:56.681Z</time></trkpt><trkpt lat="43.2892323" lon="11.5411078"><ele>302.0</ele><time>2026-05-02T15:24:57.694Z</time></trkpt><trkpt lat="43.2893344" lon="11.5411031"><ele>302.0</ele><time>2026-05-02T15:24:58.688Z</time></trkpt><trkpt lat="43.2894424" lon="11.5411265"><ele>302.0</ele><time>2026-05-02T15:24:59.675Z</time></trkpt><trkpt lat="43.2895473" lon="11.5411652"><ele>302.0</ele><time>2026-05-02T15:25:00.69Z</time></trkpt><trkpt lat="43.2896651" lon="11.5412026"><ele>302.0</ele><time>2026-05-02T15:25:01.688Z</time></trkpt><trkpt lat="43.2897973" lon="11.5412255"><ele>302.0</ele><time>2026-05-02T15:25:02.69Z</time></trkpt><trkpt lat="43.2899361" lon="11.5412141"><ele>302.0</ele><time>2026-05-02T15:25:03.668Z</time></trkpt><trkpt lat="43.2900548" lon="11.5412033"><ele>302.0</ele><time>2026-05-02T15:25:04.684Z</time></trkpt><trkpt lat="43.2901584" lon="11.5412011"><ele>302.0</ele><time>2026-05-02T15:25:05.679Z</time></trkpt><trkpt lat="43.2902601" lon="11.541213"><ele>303.6</ele><time>2026-05-02T15:25:06.684Z</time></trkpt><trkpt lat="43.2903707" lon="11.5412369"><ele>305.2</ele><time>2026-05-02T15:25:07.68Z</time></trkpt><trkpt lat="43.2904831" lon="11.5412742"><ele>306.8</ele><time>2026-05-02T15:25:08.682Z</time></trkpt><trkpt lat="43.2905958" lon="11.5413211"><ele>308.4</ele><time>2026-05-02T15:25:09.673Z</time></trkpt><trkpt lat="43.2906934" lon="11.5413648"><ele>310.0</ele><time>2026-05-02T15:25:10.677Z</time></trkpt><trkpt lat="43.2907781" lon="11.5414003"><ele>310.0</ele><time>2026-05-02T15:25:11.68Z</time></trkpt><trkpt lat="43.2908623" lon="11.5414078"><ele>310.0</ele><time>2026-05-02T15:25:12.685Z</time></trkpt><trkpt lat="43.290946" lon="11.5413958"><ele>310.0</ele><time>2026-05-02T15:25:13.687Z</time></trkpt><trkpt lat="43.2910314" lon="11.5413661"><ele>310.0</ele><time>2026-05-02T15:25:14.682Z</time></trkpt><trkpt lat="43.2911108" lon="11.5413143"><ele>310.0</ele><time>2026-05-02T15:25:15.683Z</time></trkpt><trkpt lat="43.291186" lon="11.5412446"><ele>310.0</ele><time>2026-05-02T15:25:16.675Z</time></trkpt><trkpt lat="43.2912483" lon="11.5411599"><ele>308.5</ele><time>2026-05-02T15:25:17.683Z</time></trkpt><trkpt lat="43.2912967" lon="11.5410538"><ele>307.0</ele><time>2026-05-02T15:25:18.691Z</time></trkpt><trkpt lat="43.291337" lon="11.5409274"><ele>305.5</ele><time>2026-05-02T15:25:19.69Z</time></trkpt><trkpt lat="43.2913527" lon="11.5407563"><ele>304.0</ele><time>2026-05-02T15:25:20.678Z</time></trkpt><trkpt lat="43.2913419" lon="11.5405681"><ele>303.5</ele><time>2026-05-02T15:25:21.684Z</time></trkpt><trkpt lat="43.2913277" lon="11.5403647"><ele>303.0</ele><time>2026-05-02T15:25:22.675Z</time></trkpt><trkpt lat="43.2913347" lon="11.5401938"><ele>302.5</ele><time>2026-05-02T15:25:23.679Z</time></trkpt><trkpt lat="43.2913669" lon="11.5400344"><ele>302.0</ele><time>2026-05-02T15:25:24.676Z</time></trkpt><trkpt lat="43.2914163" lon="11.5398583"><ele>303.6666666666667</ele><time>2026-05-02T15:25:25.681Z</time></trkpt><trkpt lat="43.2914803" lon="11.5396827"><ele>305.3333333333333</ele><time>2026-05-02T15:25:26.678Z</time></trkpt><trkpt lat="43.2915541" lon="11.5394716"><ele>307.0</ele><time>2026-05-02T15:25:27.699Z</time></trkpt><trkpt lat="43.2916246" lon="11.5392757"><ele>309.0</ele><time>2026-05-02T15:25:28.691Z</time></trkpt><trkpt lat="43.2916754" lon="11.5391298"><ele>311.0</ele><time>2026-05-02T15:25:29.674Z</time></trkpt><trkpt lat="43.291733" lon="11.5390198"><ele>313.0</ele><time>2026-05-02T15:25:30.677Z</time></trkpt><trkpt lat="43.2918008" lon="11.5389173"><ele>315.0</ele><time>2026-05-02T15:25:31.684Z</time></trkpt><trkpt lat="43.2918972" lon="11.5388328"><ele>317.0</ele><time>2026-05-02T15:25:32.683Z</time></trkpt><trkpt lat="43.2919934" lon="11.5388048"><ele>317.0</ele><time>2026-05-02T15:25:33.685Z</time></trkpt><trkpt lat="43.2921059" lon="11.5388083"><ele>317.0</ele><time>2026-05-02T15:25:34.68Z</time></trkpt><trkpt lat="43.2922334" lon="11.5388375"><ele>317.0</ele><time>2026-05-02T15:25:35.69Z</time></trkpt><trkpt lat="43.2923719" lon="11.5388887"><ele>317.0</ele><time>2026-05-02T15:25:36.68Z</time></trkpt><trkpt lat="43.2924964" lon="11.5389099"><ele>317.0</ele><time>2026-05-02T15:25:37.684Z</time></trkpt><trkpt lat="43.2925987" lon="11.5389177"><ele>317.0</ele><time>2026-05-02T15:25:38.674Z</time></trkpt><trkpt lat="43.2926701" lon="11.5389219"><ele>317.0</ele><time>2026-05-02T15:25:39.684Z</time></trkpt><trkpt lat="43.2927468" lon="11.5389185"><ele>317.0</ele><time>2026-05-02T15:25:41.682Z</time></trkpt><trkpt lat="43.2927989" lon="11.5388307"><ele>317.0</ele><time>2026-05-02T15:27:30.682Z</time></trkpt><trkpt lat="43.2928872" lon="11.5387488"><ele>317.0</ele><time>2026-05-02T15:27:33.688Z</time></trkpt><trkpt lat="43.2929986" lon="11.5386413"><ele>316.0</ele><time>2026-05-02T15:27:35.681Z</time></trkpt><trkpt lat="43.2930652" lon="11.5385783"><ele>315.0</ele><time>2026-05-02T15:27:36.686Z</time></trkpt><trkpt lat="43.2931444" lon="11.538503"><ele>314.0</ele><time>2026-05-02T15:27:37.684Z</time></trkpt><trkpt lat="43.293229" lon="11.5384237"><ele>313.0</ele><time>2026-05-02T15:27:38.676Z</time></trkpt><trkpt lat="43.2933214" lon="11.5383448"><ele>312.0</ele><time>2026-05-02T15:27:39.683Z</time></trkpt><trkpt lat="43.2934156" lon="11.5382604"><ele>312.0</ele><time>2026-05-02T15:27:40.676Z</time></trkpt><trkpt lat="43.293518" lon="11.5381625"><ele>312.0</ele><time>2026-05-02T15:27:41.682Z</time></trkpt><trkpt lat="43.2936327" lon="11.538063"><ele>312.0</ele><time>2026-05-02T15:27:42.683Z</time></trkpt><trkpt lat="43.2937533" lon="11.5379478"><ele>312.0</ele><time>2026-05-02T15:27:43.68Z</time></trkpt><trkpt lat="43.2938677" lon="11.5378297"><ele>312.3333333333333</ele><time>2026-05-02T15:27:44.69Z</time></trkpt><trkpt lat="43.2939859" lon="11.5377091"><ele>312.66666666666663</ele><time>2026-05-02T15:27:45.673Z</time></trkpt><trkpt lat="43.2941112" lon="11.5375749"><ele>313.0</ele><time>2026-05-02T15:27:46.685Z</time></trkpt><trkpt lat="43.2942426" lon="11.5374294"><ele>313.0</ele><time>2026-05-02T15:27:47.684Z</time></trkpt><trkpt lat="43.2943633" lon="11.5372806"><ele>313.0</ele><time>2026-05-02T15:27:48.679Z</time></trkpt><trkpt lat="43.2944687" lon="11.537167"><ele>313.0</ele><time>2026-05-02T15:27:49.683Z</time></trkpt><trkpt lat="43.2945701" lon="11.5370816"><ele>313.0</ele><time>2026-05-02T15:27:50.678Z</time></trkpt><trkpt lat="43.2946683" lon="11.5370098"><ele>311.8</ele><time>2026-05-02T15:27:51.676Z</time></trkpt><trkpt lat="43.2947752" lon="11.536948"><ele>310.6</ele><time>2026-05-02T15:27:52.68Z</time></trkpt><trkpt lat="43.2948758" lon="11.5368907"><ele>309.4</ele><time>2026-05-02T15:27:53.677Z</time></trkpt><trkpt lat="43.2949769" lon="11.5368389"><ele>308.2</ele><time>2026-05-02T15:27:54.674Z</time></trkpt><trkpt lat="43.2950783" lon="11.5368048"><ele>307.0</ele><time>2026-05-02T15:27:55.682Z</time></trkpt><trkpt lat="43.2951856" lon="11.5367832"><ele>307.0</ele><time>2026-05-02T15:27:56.694Z</time></trkpt><trkpt lat="43.295288" lon="11.5367552"><ele>307.0</ele><time>2026-05-02T15:27:57.683Z</time></trkpt><trkpt lat="43.2953794" lon="11.5366858"><ele>307.0</ele><time>2026-05-02T15:27:58.678Z</time></trkpt><trkpt lat="43.2954625" lon="11.5365988"><ele>307.0</ele><time>2026-05-02T15:27:59.67Z</time></trkpt><trkpt lat="43.2955314" lon="11.5364775"><ele>307.0</ele><time>2026-05-02T15:28:00.678Z</time></trkpt><trkpt lat="43.2955996" lon="11.5363338"><ele>311.0</ele><time>2026-05-02T15:28:01.679Z</time></trkpt><trkpt lat="43.295659" lon="11.5361759"><ele>315.0</ele><time>2026-05-02T15:28:02.689Z</time></trkpt><trkpt lat="43.2957159" lon="11.5360099"><ele>319.0</ele><time>2026-05-02T15:28:03.683Z</time></trkpt><trkpt lat="43.2957697" lon="11.5358444"><ele>323.0</ele><time>2026-05-02T15:28:04.678Z</time></trkpt><trkpt lat="43.2958121" lon="11.5356712"><ele>323.0</ele><time>2026-05-02T15:28:05.68Z</time></trkpt><trkpt lat="43.2958327" lon="11.5354916"><ele>323.0</ele><time>2026-05-02T15:28:06.673Z</time></trkpt><trkpt lat="43.2958467" lon="11.5353014"><ele>323.0</ele><time>2026-05-02T15:28:07.679Z</time></trkpt><trkpt lat="43.2958628" lon="11.5351394"><ele>323.0</ele><time>2026-05-02T15:28:08.69Z</time></trkpt><trkpt lat="43.2958686" lon="11.534998"><ele>323.79999999999995</ele><time>2026-05-02T15:28:09.696Z</time></trkpt><trkpt lat="43.2958509" lon="11.5348616"><ele>324.6</ele><time>2026-05-02T15:28:10.68Z</time></trkpt><trkpt lat="43.2958155" lon="11.5347355"><ele>325.4</ele><time>2026-05-02T15:28:11.679Z</time></trkpt><trkpt lat="43.2957373" lon="11.534626"><ele>326.20000000000005</ele><time>2026-05-02T15:28:12.678Z</time></trkpt><trkpt lat="43.2956264" lon="11.5345314"><ele>327.0</ele><time>2026-05-02T15:28:13.686Z</time></trkpt><trkpt lat="43.295497" lon="11.5344245"><ele>327.75</ele><time>2026-05-02T15:28:14.679Z</time></trkpt><trkpt lat="43.2953668" lon="11.534317"><ele>328.5</ele><time>2026-05-02T15:28:15.676Z</time></trkpt><trkpt lat="43.2952668" lon="11.5342149"><ele>329.25</ele><time>2026-05-02T15:28:16.674Z</time></trkpt><trkpt lat="43.2951861" lon="11.5341049"><ele>330.0</ele><time>2026-05-02T15:28:17.679Z</time></trkpt><trkpt lat="43.2951095" lon="11.5339977"><ele>330.0</ele><time>2026-05-02T15:28:18.683Z</time></trkpt><trkpt lat="43.2950243" lon="11.5339289"><ele>330.0</ele><time>2026-05-02T15:28:19.682Z</time></trkpt><trkpt lat="43.2949404" lon="11.5338847"><ele>330.0</ele><time>2026-05-02T15:28:20.673Z</time></trkpt><trkpt lat="43.2948606" lon="11.5338448"><ele>330.0</ele><time>2026-05-02T15:28:21.679Z</time></trkpt><trkpt lat="43.2947818" lon="11.5338045"><ele>330.0</ele><time>2026-05-02T15:28:22.691Z</time></trkpt><trkpt lat="43.2947106" lon="11.5337572"><ele>330.0</ele><time>2026-05-02T15:28:23.681Z</time></trkpt><trkpt lat="43.2946451" lon="11.5337002"><ele>328.8333333333333</ele><time>2026-05-02T15:28:24.684Z</time></trkpt><trkpt lat="43.2945851" lon="11.5336334"><ele>327.6666666666667</ele><time>2026-05-02T15:28:25.682Z</time></trkpt><trkpt lat="43.2945358" lon="11.5335396"><ele>326.5</ele><time>2026-05-02T15:28:26.679Z</time></trkpt><trkpt lat="43.2945063" lon="11.5334399"><ele>325.33333333333337</ele><time>2026-05-02T15:28:27.684Z</time></trkpt><trkpt lat="43.2944984" lon="11.5333323"><ele>324.1666666666667</ele><time>2026-05-02T15:28:28.674Z</time></trkpt><trkpt lat="43.2944998" lon="11.533239"><ele>323.0</ele><time>2026-05-02T15:28:29.683Z</time></trkpt><trkpt lat="43.2945015" lon="11.5331476"><ele>323.0</ele><time>2026-05-02T15:28:30.673Z</time></trkpt><trkpt lat="43.2944961" lon="11.5330462"><ele>323.0</ele><time>2026-05-02T15:28:31.683Z</time></trkpt><trkpt lat="43.2944871" lon="11.5329518"><ele>323.0</ele><time>2026-05-02T15:28:32.676Z</time></trkpt><trkpt lat="43.2944816" lon="11.5328647"><ele>323.0</ele><time>2026-05-02T15:28:33.686Z</time></trkpt><trkpt lat="43.2944756" lon="11.5327746"><ele>323.0</ele><time>2026-05-02T15:28:34.672Z</time></trkpt><trkpt lat="43.2944849" lon="11.5326858"><ele>323.0</ele><time>2026-05-02T15:28:35.677Z</time></trkpt><trkpt lat="43.2945006" lon="11.5325221"><ele>323.4</ele><time>2026-05-02T15:28:37.678Z</time></trkpt><trkpt lat="43.2945154" lon="11.5323627"><ele>323.79999999999995</ele><time>2026-05-02T15:28:39.686Z</time></trkpt><trkpt lat="43.2945216" lon="11.5322454"><ele>324.2</ele><time>2026-05-02T15:28:41.669Z</time></trkpt><trkpt lat="43.2945721" lon="11.5321557"><ele>324.6</ele><time>2026-05-02T15:29:04.68Z</time></trkpt><trkpt lat="43.2946415" lon="11.5320176"><ele>325.0</ele><time>2026-05-02T15:29:06.677Z</time></trkpt><trkpt lat="43.2946768" lon="11.5319123"><ele>325.5</ele><time>2026-05-02T15:29:07.707Z</time></trkpt><trkpt lat="43.2947263" lon="11.5317924"><ele>326.0</ele><time>2026-05-02T15:29:08.69Z</time></trkpt><trkpt lat="43.2947917" lon="11.5316583"><ele>326.5</ele><time>2026-05-02T15:29:09.685Z</time></trkpt><trkpt lat="43.29487" lon="11.5315139"><ele>327.0</ele><time>2026-05-02T15:29:10.681Z</time></trkpt><trkpt lat="43.2949466" lon="11.5313728"><ele>325.25</ele><time>2026-05-02T15:29:11.68Z</time></trkpt><trkpt lat="43.2950276" lon="11.5312305"><ele>323.5</ele><time>2026-05-02T15:29:12.678Z</time></trkpt><trkpt lat="43.2951219" lon="11.531095"><ele>321.75</ele><time>2026-05-02T15:29:13.686Z</time></trkpt><trkpt lat="43.2952227" lon="11.5309727"><ele>320.0</ele><time>2026-05-02T15:29:14.683Z</time></trkpt><trkpt lat="43.2953362" lon="11.5308704"><ele>320.0</ele><time>2026-05-02T15:29:15.671Z</time></trkpt><trkpt lat="43.29545" lon="11.5307834"><ele>320.0</ele><time>2026-05-02T15:29:16.675Z</time></trkpt><trkpt lat="43.295575" lon="11.5307026"><ele>320.0</ele><time>2026-05-02T15:29:17.689Z</time></trkpt><trkpt lat="43.2957037" lon="11.530627"><ele>320.0</ele><time>2026-05-02T15:29:18.685Z</time></trkpt><trkpt lat="43.295831" lon="11.5305602"><ele>317.0</ele><time>2026-05-02T15:29:19.678Z</time></trkpt><trkpt lat="43.2959512" lon="11.5305064"><ele>314.0</ele><time>2026-05-02T15:29:20.677Z</time></trkpt><trkpt lat="43.2960758" lon="11.530457"><ele>311.0</ele><time>2026-05-02T15:29:21.672Z</time></trkpt><trkpt lat="43.2961953" lon="11.5304132"><ele>308.0</ele><time>2026-05-02T15:29:22.681Z</time></trkpt><trkpt lat="43.2963074" lon="11.5303694"><ele>308.0</ele><time>2026-05-02T15:29:23.686Z</time></trkpt><trkpt lat="43.2964077" lon="11.5303255"><ele>308.0</ele><time>2026-05-02T15:29:24.67Z</time></trkpt><trkpt lat="43.296496" lon="11.5302773"><ele>308.0</ele><time>2026-05-02T15:29:25.688Z</time></trkpt><trkpt lat="43.2965629" lon="11.5302225"><ele>308.0</ele><time>2026-05-02T15:29:26.689Z</time></trkpt><trkpt lat="43.2966204" lon="11.5301529"><ele>308.0</ele><time>2026-05-02T15:29:27.681Z</time></trkpt><trkpt lat="43.2966459" lon="11.5300688"><ele>308.0</ele><time>2026-05-02T15:29:28.669Z</time></trkpt><trkpt lat="43.2966388" lon="11.5299712"><ele>308.0</ele><time>2026-05-02T15:29:29.683Z</time></trkpt><trkpt lat="43.2966017" lon="11.5298652"><ele>308.0</ele><time>2026-05-02T15:29:30.685Z</time></trkpt><trkpt lat="43.2965253" lon="11.5297878"><ele>308.0</ele><time>2026-05-02T15:29:31.675Z</time></trkpt><trkpt lat="43.2964232" lon="11.5297319"><ele>308.0</ele><time>2026-05-02T15:29:32.673Z</time></trkpt><trkpt lat="43.2963046" lon="11.5296794"><ele>308.0</ele><time>2026-05-02T15:29:33.675Z</time></trkpt><trkpt lat="43.2961805" lon="11.5296442"><ele>308.0</ele><time>2026-05-02T15:29:34.679Z</time></trkpt><trkpt lat="43.2960704" lon="11.5296179"><ele>308.0</ele><time>2026-05-02T15:29:35.685Z</time></trkpt><trkpt lat="43.2959606" lon="11.5295805"><ele>308.0</ele><time>2026-05-02T15:29:36.685Z</time></trkpt><trkpt lat="43.2958559" lon="11.5295166"><ele>308.0</ele><time>2026-05-02T15:29:37.676Z</time></trkpt><trkpt lat="43.2957551" lon="11.5294367"><ele>305.8</ele><time>2026-05-02T15:29:38.674Z</time></trkpt><trkpt lat="43.2956527" lon="11.5293698"><ele>303.6</ele><time>2026-05-02T15:29:39.673Z</time></trkpt><trkpt lat="43.2955576" lon="11.5293294"><ele>301.4</ele><time>2026-05-02T15:29:40.673Z</time></trkpt><trkpt lat="43.295477" lon="11.5292903"><ele>299.2</ele><time>2026-05-02T15:29:41.686Z</time></trkpt><trkpt lat="43.2954112" lon="11.5292404"><ele>297.0</ele><time>2026-05-02T15:29:42.683Z</time></trkpt><trkpt lat="43.2953602" lon="11.5291614"><ele>297.0</ele><time>2026-05-02T15:29:43.675Z</time></trkpt><trkpt lat="43.2953416" lon="11.5290661"><ele>297.0</ele><time>2026-05-02T15:29:44.678Z</time></trkpt><trkpt lat="43.295362" lon="11.5289699"><ele>297.0</ele><time>2026-05-02T15:29:45.687Z</time></trkpt><trkpt lat="43.2954618" lon="11.5288647"><ele>297.0</ele><time>2026-05-02T15:29:47.674Z</time></trkpt><trkpt lat="43.2955221" lon="11.5288179"><ele>297.0</ele><time>2026-05-02T15:29:48.684Z</time></trkpt><trkpt lat="43.2955961" lon="11.5287679"><ele>297.0</ele><time>2026-05-02T15:29:49.668Z</time></trkpt><trkpt lat="43.2956777" lon="11.5286984"><ele>296.0</ele><time>2026-05-02T15:29:50.681Z</time></trkpt><trkpt lat="43.2957505" lon="11.5286291"><ele>295.0</ele><time>2026-05-02T15:29:51.68Z</time></trkpt><trkpt lat="43.2958127" lon="11.5285484"><ele>294.0</ele><time>2026-05-02T15:29:52.683Z</time></trkpt><trkpt lat="43.2958603" lon="11.5284332"><ele>293.0</ele><time>2026-05-02T15:29:53.674Z</time></trkpt><trkpt lat="43.2959065" lon="11.5283029"><ele>292.0</ele><time>2026-05-02T15:29:54.678Z</time></trkpt><trkpt lat="43.2959318" lon="11.5281344"><ele>292.0</ele><time>2026-05-02T15:29:55.686Z</time></trkpt><trkpt lat="43.2959519" lon="11.527941"><ele>292.0</ele><time>2026-05-02T15:29:56.689Z</time></trkpt><trkpt lat="43.2959681" lon="11.5277464"><ele>292.0</ele><time>2026-05-02T15:29:57.683Z</time></trkpt><trkpt lat="43.2959931" lon="11.5275748"><ele>292.0</ele><time>2026-05-02T15:29:58.694Z</time></trkpt><trkpt lat="43.29602" lon="11.5274324"><ele>292.0</ele><time>2026-05-02T15:29:59.683Z</time></trkpt><trkpt lat="43.2960416" lon="11.5273003"><ele>292.0</ele><time>2026-05-02T15:30:00.677Z</time></trkpt><trkpt lat="43.2960699" lon="11.5271765"><ele>292.0</ele><time>2026-05-02T15:30:01.671Z</time></trkpt><trkpt lat="43.2961165" lon="11.5270568"><ele>292.0</ele><time>2026-05-02T15:30:02.703Z</time></trkpt><trkpt lat="43.2961824" lon="11.5269293"><ele>292.0</ele><time>2026-05-02T15:30:03.68Z</time></trkpt><trkpt lat="43.2962633" lon="11.526787"><ele>291.25</ele><time>2026-05-02T15:30:04.681Z</time></trkpt><trkpt lat="43.2963557" lon="11.5266331"><ele>290.5</ele><time>2026-05-02T15:30:05.682Z</time></trkpt><trkpt lat="43.2964528" lon="11.5264727"><ele>289.75</ele><time>2026-05-02T15:30:06.673Z</time></trkpt><trkpt lat="43.2965435" lon="11.5263436"><ele>289.0</ele><time>2026-05-02T15:30:07.676Z</time></trkpt><trkpt lat="43.2966319" lon="11.5262469"><ele>289.0</ele><time>2026-05-02T15:30:08.683Z</time></trkpt><trkpt lat="43.2967063" lon="11.5261586"><ele>289.0</ele><time>2026-05-02T15:30:09.674Z</time></trkpt><trkpt lat="43.2967565" lon="11.5260599"><ele>289.0</ele><time>2026-05-02T15:30:10.683Z</time></trkpt><trkpt lat="43.2967824" lon="11.5259354"><ele>289.0</ele><time>2026-05-02T15:30:11.674Z</time></trkpt><trkpt lat="43.2967789" lon="11.5258026"><ele>289.0</ele><time>2026-05-02T15:30:12.673Z</time></trkpt><trkpt lat="43.2967661" lon="11.5256699"><ele>289.0</ele><time>2026-05-02T15:30:13.681Z</time></trkpt><trkpt lat="43.2967606" lon="11.5255409"><ele>289.0</ele><time>2026-05-02T15:30:14.682Z</time></trkpt><trkpt lat="43.2967669" lon="11.5253963"><ele>289.0</ele><time>2026-05-02T15:30:15.689Z</time></trkpt><trkpt lat="43.2967858" lon="11.5252266"><ele>289.0</ele><time>2026-05-02T15:30:16.68Z</time></trkpt><trkpt lat="43.2967943" lon="11.5250822"><ele>289.0</ele><time>2026-05-02T15:30:17.68Z</time></trkpt><trkpt lat="43.2967838" lon="11.5249698"><ele>289.59999999999997</ele><time>2026-05-02T15:30:18.675Z</time></trkpt><trkpt lat="43.2967482" lon="11.5248554"><ele>290.2</ele><time>2026-05-02T15:30:19.684Z</time></trkpt><trkpt lat="43.2966989" lon="11.5247429"><ele>290.79999999999995</ele><time>2026-05-02T15:30:20.674Z</time></trkpt><trkpt lat="43.296658" lon="11.5246337"><ele>291.4</ele><time>2026-05-02T15:30:21.678Z</time></trkpt><trkpt lat="43.2966222" lon="11.5245049"><ele>292.0</ele><time>2026-05-02T15:30:22.681Z</time></trkpt><trkpt lat="43.2965929" lon="11.5243749"><ele>294.5</ele><time>2026-05-02T15:30:23.693Z</time></trkpt><trkpt lat="43.2965752" lon="11.5242222"><ele>297.0</ele><time>2026-05-02T15:30:24.682Z</time></trkpt><trkpt lat="43.2965559" lon="11.5240314"><ele>299.5</ele><time>2026-05-02T15:30:25.685Z</time></trkpt><trkpt lat="43.296532" lon="11.5238502"><ele>302.0</ele><time>2026-05-02T15:30:26.687Z</time></trkpt><trkpt lat="43.2965065" lon="11.523701"><ele>303.0</ele><time>2026-05-02T15:30:27.677Z</time></trkpt><trkpt lat="43.2964864" lon="11.5235681"><ele>304.0</ele><time>2026-05-02T15:30:28.674Z</time></trkpt><trkpt lat="43.2964692" lon="11.5234243"><ele>305.0</ele><time>2026-05-02T15:30:29.696Z</time></trkpt><trkpt lat="43.2964572" lon="11.5232681"><ele>306.0</ele><time>2026-05-02T15:30:30.68Z</time></trkpt><trkpt lat="43.2964539" lon="11.5231134"><ele>307.0</ele><time>2026-05-02T15:30:31.685Z</time></trkpt><trkpt lat="43.2964517" lon="11.5229769"><ele>306.8</ele><time>2026-05-02T15:30:32.682Z</time></trkpt><trkpt lat="43.2964553" lon="11.5228541"><ele>306.6</ele><time>2026-05-02T15:30:33.676Z</time></trkpt><trkpt lat="43.2964753" lon="11.5227185"><ele>306.40000000000003</ele><time>2026-05-02T15:30:34.685Z</time></trkpt><trkpt lat="43.2965059" lon="11.522598"><ele>306.2</ele><time>2026-05-02T15:30:35.68Z</time></trkpt><trkpt lat="43.2965542" lon="11.5224827"><ele>306.0</ele><time>2026-05-02T15:30:36.678Z</time></trkpt><trkpt lat="43.2966147" lon="11.522369"><ele>306.0</ele><time>2026-05-02T15:30:37.674Z</time></trkpt><trkpt lat="43.2966602" lon="11.5222398"><ele>306.0</ele><time>2026-05-02T15:30:38.682Z</time></trkpt><trkpt lat="43.2967039" lon="11.5220794"><ele>306.0</ele><time>2026-05-02T15:30:39.682Z</time></trkpt><trkpt lat="43.2967283" lon="11.5219226"><ele>306.0</ele><time>2026-05-02T15:30:40.68Z</time></trkpt><trkpt lat="43.2967569" lon="11.5217893"><ele>306.0</ele><time>2026-05-02T15:30:41.682Z</time></trkpt><trkpt lat="43.2967974" lon="11.5216883"><ele>305.6</ele><time>2026-05-02T15:30:42.681Z</time></trkpt><trkpt lat="43.2968609" lon="11.5216051"><ele>305.20000000000005</ele><time>2026-05-02T15:30:43.685Z</time></trkpt><trkpt lat="43.2969489" lon="11.5215312"><ele>304.79999999999995</ele><time>2026-05-02T15:30:44.685Z</time></trkpt><trkpt lat="43.2970559" lon="11.5214597"><ele>304.4</ele><time>2026-05-02T15:30:45.68Z</time></trkpt><trkpt lat="43.29717" lon="11.5214085"><ele>304.0</ele><time>2026-05-02T15:30:46.682Z</time></trkpt><trkpt lat="43.2972877" lon="11.5213669"><ele>304.0</ele><time>2026-05-02T15:30:47.668Z</time></trkpt><trkpt lat="43.2973966" lon="11.5213617"><ele>304.0</ele><time>2026-05-02T15:30:48.673Z</time></trkpt><trkpt lat="43.2975033" lon="11.5213785"><ele>304.0</ele><time>2026-05-02T15:30:49.672Z</time></trkpt><trkpt lat="43.2976064" lon="11.5214303"><ele>304.0</ele><time>2026-05-02T15:30:50.682Z</time></trkpt><trkpt lat="43.2977095" lon="11.5215109"><ele>304.0</ele><time>2026-05-02T15:30:51.675Z</time></trkpt><trkpt lat="43.2977977" lon="11.5216027"><ele>304.0</ele><time>2026-05-02T15:30:52.676Z</time></trkpt><trkpt lat="43.2978915" lon="11.5217117"><ele>304.0</ele><time>2026-05-02T15:30:53.679Z</time></trkpt><trkpt lat="43.2979741" lon="11.5218242"><ele>304.0</ele><time>2026-05-02T15:30:54.677Z</time></trkpt><trkpt lat="43.2980355" lon="11.5219543"><ele>304.0</ele><time>2026-05-02T15:30:55.682Z</time></trkpt><trkpt lat="43.2980943" lon="11.5220825"><ele>304.2</ele><time>2026-05-02T15:30:56.676Z</time></trkpt><trkpt lat="43.2981575" lon="11.5221861"><ele>304.4</ele><time>2026-05-02T15:30:57.684Z</time></trkpt><trkpt lat="43.2982343" lon="11.5222533"><ele>304.6</ele><time>2026-05-02T15:30:58.68Z</time></trkpt><trkpt lat="43.2983265" lon="11.5222953"><ele>304.8</ele><time>2026-05-02T15:30:59.677Z</time></trkpt><trkpt lat="43.2984277" lon="11.5222944"><ele>305.0</ele><time>2026-05-02T15:31:00.681Z</time></trkpt><trkpt lat="43.2985379" lon="11.5222747"><ele>305.0</ele><time>2026-05-02T15:31:01.682Z</time></trkpt><trkpt lat="43.2986437" lon="11.5222722"><ele>305.0</ele><time>2026-05-02T15:31:02.671Z</time></trkpt><trkpt lat="43.2987409" lon="11.5222946"><ele>305.0</ele><time>2026-05-02T15:31:03.682Z</time></trkpt><trkpt lat="43.2988485" lon="11.5223887"><ele>305.0</ele><time>2026-05-02T15:31:04.682Z</time></trkpt><trkpt lat="43.2989583" lon="11.5224819"><ele>303.6</ele><time>2026-05-02T15:31:05.672Z</time></trkpt><trkpt lat="43.299065" lon="11.5225207"><ele>302.2</ele><time>2026-05-02T15:31:06.669Z</time></trkpt><trkpt lat="43.299176" lon="11.5225207"><ele>300.8</ele><time>2026-05-02T15:31:07.674Z</time></trkpt><trkpt lat="43.2992898" lon="11.5224958"><ele>299.4</ele><time>2026-05-02T15:31:08.681Z</time></trkpt><trkpt lat="43.2993973" lon="11.5224687"><ele>298.0</ele><time>2026-05-02T15:31:09.689Z</time></trkpt><trkpt lat="43.2994978" lon="11.5224216"><ele>298.0</ele><time>2026-05-02T15:31:10.675Z</time></trkpt><trkpt lat="43.2995954" lon="11.5223559"><ele>298.0</ele><time>2026-05-02T15:31:11.669Z</time></trkpt><trkpt lat="43.2996894" lon="11.5222886"><ele>298.0</ele><time>2026-05-02T15:31:12.674Z</time></trkpt><trkpt lat="43.2997933" lon="11.522242"><ele>298.0</ele><time>2026-05-02T15:31:13.688Z</time></trkpt><trkpt lat="43.2999196" lon="11.5222145"><ele>298.25</ele><time>2026-05-02T15:31:14.682Z</time></trkpt><trkpt lat="43.3000747" lon="11.5222169"><ele>298.5</ele><time>2026-05-02T15:31:15.672Z</time></trkpt><trkpt lat="43.3002171" lon="11.5222413"><ele>298.75</ele><time>2026-05-02T15:31:16.679Z</time></trkpt><trkpt lat="43.3003473" lon="11.5222957"><ele>299.0</ele><time>2026-05-02T15:31:17.684Z</time></trkpt><trkpt lat="43.300472" lon="11.5223679"><ele>297.75</ele><time>2026-05-02T15:31:18.68Z</time></trkpt><trkpt lat="43.3006101" lon="11.5224342"><ele>296.5</ele><time>2026-05-02T15:31:19.676Z</time></trkpt><trkpt lat="43.3007546" lon="11.5224839"><ele>295.25</ele><time>2026-05-02T15:31:20.678Z</time></trkpt><trkpt lat="43.3008963" lon="11.5225318"><ele>294.0</ele><time>2026-05-02T15:31:21.686Z</time></trkpt><trkpt lat="43.3010437" lon="11.5225878"><ele>294.0</ele><time>2026-05-02T15:31:22.676Z</time></trkpt><trkpt lat="43.301188" lon="11.5226523"><ele>294.0</ele><time>2026-05-02T15:31:23.674Z</time></trkpt><trkpt lat="43.3013218" lon="11.5227297"><ele>294.0</ele><time>2026-05-02T15:31:24.681Z</time></trkpt><trkpt lat="43.3014484" lon="11.5228047"><ele>294.0</ele><time>2026-05-02T15:31:25.674Z</time></trkpt><trkpt lat="43.3015751" lon="11.5228556"><ele>293.0</ele><time>2026-05-02T15:31:26.687Z</time></trkpt><trkpt lat="43.3017124" lon="11.5228785"><ele>292.0</ele><time>2026-05-02T15:31:27.68Z</time></trkpt><trkpt lat="43.3018587" lon="11.5228988"><ele>291.0</ele><time>2026-05-02T15:31:28.688Z</time></trkpt><trkpt lat="43.3019966" lon="11.5229159"><ele>290.0</ele><time>2026-05-02T15:31:29.676Z</time></trkpt><trkpt lat="43.302136" lon="11.5229108"><ele>290.6666666666667</ele><time>2026-05-02T15:31:30.678Z</time></trkpt><trkpt lat="43.302264" lon="11.522887"><ele>291.3333333333333</ele><time>2026-05-02T15:31:31.688Z</time></trkpt><trkpt lat="43.3024125" lon="11.5228298"><ele>292.0</ele><time>2026-05-02T15:31:32.684Z</time></trkpt><trkpt lat="43.3025744" lon="11.5227659"><ele>292.0</ele><time>2026-05-02T15:31:33.682Z</time></trkpt><trkpt lat="43.3027211" lon="11.5227187"><ele>292.0</ele><time>2026-05-02T15:31:34.687Z</time></trkpt><trkpt lat="43.30285" lon="11.5226931"><ele>292.0</ele><time>2026-05-02T15:31:35.681Z</time></trkpt><trkpt lat="43.302997" lon="11.5226796"><ele>292.0</ele><time>2026-05-02T15:31:36.67Z</time></trkpt><trkpt lat="43.3031228" lon="11.5226879"><ele>291.25</ele><time>2026-05-02T15:31:37.67Z</time></trkpt><trkpt lat="43.3032406" lon="11.522705"><ele>290.5</ele><time>2026-05-02T15:31:38.671Z</time></trkpt><trkpt lat="43.3033466" lon="11.5227605"><ele>289.75</ele><time>2026-05-02T15:31:39.675Z</time></trkpt><trkpt lat="43.3034378" lon="11.522856"><ele>289.0</ele><time>2026-05-02T15:31:40.675Z</time></trkpt><trkpt lat="43.303523" lon="11.5229858"><ele>293.75</ele><time>2026-05-02T15:31:41.675Z</time></trkpt><trkpt lat="43.3036097" lon="11.5231438"><ele>298.5</ele><time>2026-05-02T15:31:42.672Z</time></trkpt><trkpt lat="43.3037039" lon="11.5233143"><ele>303.25</ele><time>2026-05-02T15:31:43.669Z</time></trkpt><trkpt lat="43.3037873" lon="11.5234787"><ele>308.0</ele><time>2026-05-02T15:31:44.675Z</time></trkpt><trkpt lat="43.3038593" lon="11.5236092"><ele>305.2</ele><time>2026-05-02T15:31:45.707Z</time></trkpt><trkpt lat="43.3039367" lon="11.5237098"><ele>302.4</ele><time>2026-05-02T15:31:46.679Z</time></trkpt><trkpt lat="43.3040207" lon="11.5237861"><ele>299.59999999999997</ele><time>2026-05-02T15:31:47.678Z</time></trkpt><trkpt lat="43.3041275" lon="11.5238331"><ele>296.8</ele><time>2026-05-02T15:31:48.68Z</time></trkpt><trkpt lat="43.3042282" lon="11.5238333"><ele>294.0</ele><time>2026-05-02T15:31:49.674Z</time></trkpt><trkpt lat="43.304325" lon="11.5237846"><ele>294.0</ele><time>2026-05-02T15:31:50.672Z</time></trkpt><trkpt lat="43.3044124" lon="11.5237042"><ele>294.0</ele><time>2026-05-02T15:31:51.686Z</time></trkpt><trkpt lat="43.3044985" lon="11.5235872"><ele>294.0</ele><time>2026-05-02T15:31:52.688Z</time></trkpt><trkpt lat="43.3045849" lon="11.5234607"><ele>294.0</ele><time>2026-05-02T15:31:53.678Z</time></trkpt><trkpt lat="43.3046617" lon="11.5233455"><ele>294.0</ele><time>2026-05-02T15:31:54.689Z</time></trkpt><trkpt lat="43.3047362" lon="11.5232678"><ele>294.0</ele><time>2026-05-02T15:31:55.685Z</time></trkpt><trkpt lat="43.3048191" lon="11.5232035"><ele>294.0</ele><time>2026-05-02T15:31:56.684Z</time></trkpt><trkpt lat="43.3049229" lon="11.5231346"><ele>294.0</ele><time>2026-05-02T15:31:57.684Z</time></trkpt><trkpt lat="43.3050443" lon="11.5230586"><ele>294.0</ele><time>2026-05-02T15:31:58.679Z</time></trkpt><trkpt lat="43.3051757" lon="11.5229853"><ele>296.0</ele><time>2026-05-02T15:31:59.681Z</time></trkpt><trkpt lat="43.3053104" lon="11.5229143"><ele>298.0</ele><time>2026-05-02T15:32:00.675Z</time></trkpt><trkpt lat="43.3054505" lon="11.5228493"><ele>300.0</ele><time>2026-05-02T15:32:01.691Z</time></trkpt><trkpt lat="43.3055694" lon="11.5228116"><ele>302.0</ele><time>2026-05-02T15:32:02.678Z</time></trkpt><trkpt lat="43.3056822" lon="11.522793"><ele>305.0</ele><time>2026-05-02T15:32:03.676Z</time></trkpt><trkpt lat="43.3057876" lon="11.5228216"><ele>308.0</ele><time>2026-05-02T15:32:04.68Z</time></trkpt><trkpt lat="43.3059028" lon="11.5228675"><ele>311.0</ele><time>2026-05-02T15:32:05.676Z</time></trkpt><trkpt lat="43.3060138" lon="11.5229242"><ele>314.0</ele><time>2026-05-02T15:32:06.677Z</time></trkpt><trkpt lat="43.3061286" lon="11.5229714"><ele>315.0</ele><time>2026-05-02T15:32:07.682Z</time></trkpt><trkpt lat="43.3062533" lon="11.5229963"><ele>316.0</ele><time>2026-05-02T15:32:08.685Z</time></trkpt><trkpt lat="43.3063692" lon="11.5230195"><ele>317.0</ele><time>2026-05-02T15:32:09.682Z</time></trkpt><trkpt lat="43.3064834" lon="11.5230413"><ele>318.0</ele><time>2026-05-02T15:32:10.677Z</time></trkpt><trkpt lat="43.3065977" lon="11.5230686"><ele>319.75</ele><time>2026-05-02T15:32:11.678Z</time></trkpt><trkpt lat="43.3067121" lon="11.5230713"><ele>321.5</ele><time>2026-05-02T15:32:12.673Z</time></trkpt><trkpt lat="43.3068338" lon="11.5230756"><ele>323.25</ele><time>2026-05-02T15:32:13.684Z</time></trkpt><trkpt lat="43.306958" lon="11.5230693"><ele>325.0</ele><time>2026-05-02T15:32:14.681Z</time></trkpt><trkpt lat="43.3070809" lon="11.5230678"><ele>325.0</ele><time>2026-05-02T15:32:15.673Z</time></trkpt><trkpt lat="43.3072005" lon="11.5230719"><ele>325.0</ele><time>2026-05-02T15:32:16.678Z</time></trkpt><trkpt lat="43.3073217" lon="11.5230951"><ele>325.0</ele><time>2026-05-02T15:32:17.683Z</time></trkpt><trkpt lat="43.3074324" lon="11.5231383"><ele>325.0</ele><time>2026-05-02T15:32:18.674Z</time></trkpt><trkpt lat="43.3075306" lon="11.5232021"><ele>325.25</ele><time>2026-05-02T15:32:19.685Z</time></trkpt><trkpt lat="43.307621" lon="11.5232968"><ele>325.5</ele><time>2026-05-02T15:32:20.678Z</time></trkpt><trkpt lat="43.3077241" lon="11.5234113"><ele>325.75</ele><time>2026-05-02T15:32:21.675Z</time></trkpt><trkpt lat="43.3078491" lon="11.5235078"><ele>326.0</ele><time>2026-05-02T15:32:22.68Z</time></trkpt><trkpt lat="43.3079579" lon="11.5235781"><ele>326.0</ele><time>2026-05-02T15:32:23.671Z</time></trkpt><trkpt lat="43.3080489" lon="11.5236518"><ele>326.0</ele><time>2026-05-02T15:32:24.68Z</time></trkpt><trkpt lat="43.308132" lon="11.5237175"><ele>326.0</ele><time>2026-05-02T15:32:25.665Z</time></trkpt><trkpt lat="43.3082154" lon="11.5237893"><ele>326.0</ele><time>2026-05-02T15:32:26.676Z</time></trkpt><trkpt lat="43.3083027" lon="11.5238595"><ele>326.0</ele><time>2026-05-02T15:32:27.685Z</time></trkpt><trkpt lat="43.3083881" lon="11.5239353"><ele>326.0</ele><time>2026-05-02T15:32:28.677Z</time></trkpt><trkpt lat="43.3084707" lon="11.5240156"><ele>326.0</ele><time>2026-05-02T15:32:29.678Z</time></trkpt><trkpt lat="43.3085482" lon="11.5241119"><ele>326.0</ele><time>2026-05-02T15:32:30.678Z</time></trkpt><trkpt lat="43.3086074" lon="11.5242078"><ele>326.0</ele><time>2026-05-02T15:32:31.674Z</time></trkpt><trkpt lat="43.3086502" lon="11.5242948"><ele>326.0</ele><time>2026-05-02T15:32:32.682Z</time></trkpt><trkpt lat="43.3086963" lon="11.5243578"><ele>326.0</ele><time>2026-05-02T15:32:33.684Z</time></trkpt><trkpt lat="43.3087943" lon="11.5243634"><ele>326.0</ele><time>2026-05-02T15:32:35.672Z</time></trkpt><trkpt lat="43.3088571" lon="11.5242215"><ele>326.0</ele><time>2026-05-02T15:32:37.679Z</time></trkpt><trkpt lat="43.3088767" lon="11.5241298"><ele>326.0</ele><time>2026-05-02T15:32:38.684Z</time></trkpt><trkpt lat="43.3088945" lon="11.5240203"><ele>326.0</ele><time>2026-05-02T15:32:39.68Z</time></trkpt><trkpt lat="43.3089021" lon="11.5239081"><ele>326.0</ele><time>2026-05-02T15:32:40.676Z</time></trkpt><trkpt lat="43.3089083" lon="11.523793"><ele>326.0</ele><time>2026-05-02T15:32:41.683Z</time></trkpt><trkpt lat="43.3088903" lon="11.5236649"><ele>326.1666666666667</ele><time>2026-05-02T15:32:42.682Z</time></trkpt><trkpt lat="43.3088741" lon="11.5235377"><ele>326.33333333333337</ele><time>2026-05-02T15:32:43.674Z</time></trkpt><trkpt lat="43.3088568" lon="11.5234224"><ele>326.5</ele><time>2026-05-02T15:32:44.681Z</time></trkpt><trkpt lat="43.3088621" lon="11.5233192"><ele>326.6666666666667</ele><time>2026-05-02T15:32:45.68Z</time></trkpt><trkpt lat="43.3088904" lon="11.5232383"><ele>326.8333333333333</ele><time>2026-05-02T15:32:46.668Z</time></trkpt><trkpt lat="43.3089387" lon="11.5231388"><ele>327.0</ele><time>2026-05-02T15:32:47.677Z</time></trkpt><trkpt lat="43.3089927" lon="11.5230532"><ele>324.8</ele><time>2026-05-02T15:32:48.667Z</time></trkpt><trkpt lat="43.3090655" lon="11.5229592"><ele>322.6</ele><time>2026-05-02T15:32:49.68Z</time></trkpt><trkpt lat="43.3091464" lon="11.5228767"><ele>320.40000000000003</ele><time>2026-05-02T15:32:50.67Z</time></trkpt><trkpt lat="43.3092419" lon="11.5228061"><ele>318.20000000000005</ele><time>2026-05-02T15:32:51.667Z</time></trkpt><trkpt lat="43.3093488" lon="11.5227418"><ele>316.0</ele><time>2026-05-02T15:32:52.684Z</time></trkpt><trkpt lat="43.3094596" lon="11.5226722"><ele>314.5</ele><time>2026-05-02T15:32:53.683Z</time></trkpt><trkpt lat="43.3095666" lon="11.5225944"><ele>313.0</ele><time>2026-05-02T15:32:54.685Z</time></trkpt><trkpt lat="43.3096717" lon="11.5224932"><ele>311.5</ele><time>2026-05-02T15:32:55.667Z</time></trkpt><trkpt lat="43.3097662" lon="11.5223754"><ele>310.0</ele><time>2026-05-02T15:32:56.676Z</time></trkpt><trkpt lat="43.3098301" lon="11.5222296"><ele>309.25</ele><time>2026-05-02T15:32:57.686Z</time></trkpt><trkpt lat="43.3098663" lon="11.5220679"><ele>308.5</ele><time>2026-05-02T15:32:58.67Z</time></trkpt><trkpt lat="43.3098762" lon="11.5219008"><ele>307.75</ele><time>2026-05-02T15:32:59.687Z</time></trkpt><trkpt lat="43.3098553" lon="11.5217278"><ele>307.0</ele><time>2026-05-02T15:33:00.684Z</time></trkpt><trkpt lat="43.3098107" lon="11.5215657"><ele>306.5</ele><time>2026-05-02T15:33:01.692Z</time></trkpt><trkpt lat="43.3097728" lon="11.5214047"><ele>306.0</ele><time>2026-05-02T15:33:02.68Z</time></trkpt><trkpt lat="43.3097433" lon="11.5212313"><ele>305.5</ele><time>2026-05-02T15:33:03.684Z</time></trkpt><trkpt lat="43.309721" lon="11.52105"><ele>305.0</ele><time>2026-05-02T15:33:04.684Z</time></trkpt><trkpt lat="43.3097053" lon="11.5208628"><ele>302.75</ele><time>2026-05-02T15:33:05.674Z</time></trkpt><trkpt lat="43.3096939" lon="11.5206888"><ele>300.5</ele><time>2026-05-02T15:33:06.673Z</time></trkpt><trkpt lat="43.3096823" lon="11.5205235"><ele>298.25</ele><time>2026-05-02T15:33:07.692Z</time></trkpt><trkpt lat="43.3096714" lon="11.5203622"><ele>296.0</ele><time>2026-05-02T15:33:08.678Z</time></trkpt><trkpt lat="43.3096619" lon="11.520212"><ele>296.0</ele><time>2026-05-02T15:33:09.699Z</time></trkpt><trkpt lat="43.3096547" lon="11.5200647"><ele>296.0</ele><time>2026-05-02T15:33:10.681Z</time></trkpt><trkpt lat="43.309658" lon="11.5199267"><ele>296.0</ele><time>2026-05-02T15:33:11.684Z</time></trkpt><trkpt lat="43.3096799" lon="11.5197829"><ele>296.0</ele><time>2026-05-02T15:33:12.672Z</time></trkpt><trkpt lat="43.3097198" lon="11.519625"><ele>296.0</ele><time>2026-05-02T15:33:13.685Z</time></trkpt><trkpt lat="43.3097726" lon="11.5194677"><ele>296.0</ele><time>2026-05-02T15:33:14.68Z</time></trkpt><trkpt lat="43.3098321" lon="11.5193093"><ele>296.0</ele><time>2026-05-02T15:33:15.689Z</time></trkpt><trkpt lat="43.3098915" lon="11.5191539"><ele>296.0</ele><time>2026-05-02T15:33:16.69Z</time></trkpt><trkpt lat="43.3099399" lon="11.5190003"><ele>296.0</ele><time>2026-05-02T15:33:17.679Z</time></trkpt><trkpt lat="43.3099582" lon="11.5188319"><ele>295.75</ele><time>2026-05-02T15:33:18.672Z</time></trkpt><trkpt lat="43.3099554" lon="11.5186707"><ele>295.5</ele><time>2026-05-02T15:33:19.679Z</time></trkpt><trkpt lat="43.3099349" lon="11.5185002"><ele>295.25</ele><time>2026-05-02T15:33:20.686Z</time></trkpt><trkpt lat="43.3098893" lon="11.5183027"><ele>295.0</ele><time>2026-05-02T15:33:21.682Z</time></trkpt><trkpt lat="43.3098253" lon="11.518096"><ele>293.3333333333333</ele><time>2026-05-02T15:33:22.678Z</time></trkpt><trkpt lat="43.3097417" lon="11.5178973"><ele>291.6666666666667</ele><time>2026-05-02T15:33:23.691Z</time></trkpt><trkpt lat="43.3096252" lon="11.5177115"><ele>290.0</ele><time>2026-05-02T15:33:24.674Z</time></trkpt><trkpt lat="43.3095007" lon="11.5175513"><ele>290.0</ele><time>2026-05-02T15:33:25.676Z</time></trkpt><trkpt lat="43.3093793" lon="11.5173975"><ele>290.0</ele><time>2026-05-02T15:33:26.666Z</time></trkpt><trkpt lat="43.3092846" lon="11.517252"><ele>290.0</ele><time>2026-05-02T15:33:27.677Z</time></trkpt><trkpt lat="43.3092272" lon="11.5171082"><ele>290.0</ele><time>2026-05-02T15:33:28.68Z</time></trkpt><trkpt lat="43.3091899" lon="11.5169501"><ele>291.0</ele><time>2026-05-02T15:33:29.68Z</time></trkpt><trkpt lat="43.3091908" lon="11.516796"><ele>292.0</ele><time>2026-05-02T15:33:30.685Z</time></trkpt><trkpt lat="43.3092255" lon="11.5166614"><ele>293.0</ele><time>2026-05-02T15:33:31.68Z</time></trkpt><trkpt lat="43.3092957" lon="11.5165485"><ele>294.0</ele><time>2026-05-02T15:33:32.673Z</time></trkpt><trkpt lat="43.3093856" lon="11.5164273"><ele>294.0</ele><time>2026-05-02T15:33:33.689Z</time></trkpt><trkpt lat="43.309492" lon="11.5163033"><ele>294.0</ele><time>2026-05-02T15:33:34.683Z</time></trkpt><trkpt lat="43.3096014" lon="11.5161604"><ele>294.0</ele><time>2026-05-02T15:33:35.677Z</time></trkpt><trkpt lat="43.3097169" lon="11.5160109"><ele>294.0</ele><time>2026-05-02T15:33:36.685Z</time></trkpt><trkpt lat="43.3098389" lon="11.5158543"><ele>292.3333333333333</ele><time>2026-05-02T15:33:37.68Z</time></trkpt><trkpt lat="43.3099671" lon="11.5156988"><ele>290.66666666666663</ele><time>2026-05-02T15:33:38.685Z</time></trkpt><trkpt lat="43.3101025" lon="11.5155657"><ele>289.0</ele><time>2026-05-02T15:33:39.676Z</time></trkpt><trkpt lat="43.3102557" lon="11.515445"><ele>287.0</ele><time>2026-05-02T15:33:40.687Z</time></trkpt><trkpt lat="43.3104214" lon="11.5153548"><ele>285.0</ele><time>2026-05-02T15:33:41.683Z</time></trkpt><trkpt lat="43.3106011" lon="11.5152892"><ele>283.0</ele><time>2026-05-02T15:33:42.685Z</time></trkpt><trkpt lat="43.3107873" lon="11.5152288"><ele>283.0</ele><time>2026-05-02T15:33:43.681Z</time></trkpt><trkpt lat="43.3109878" lon="11.5151796"><ele>283.0</ele><time>2026-05-02T15:33:44.69Z</time></trkpt><trkpt lat="43.3111896" lon="11.5151523"><ele>283.0</ele><time>2026-05-02T15:33:45.673Z</time></trkpt><trkpt lat="43.3113749" lon="11.5151524"><ele>285.66666666666663</ele><time>2026-05-02T15:33:46.682Z</time></trkpt><trkpt lat="43.3115438" lon="11.5151509"><ele>288.3333333333333</ele><time>2026-05-02T15:33:47.675Z</time></trkpt><trkpt lat="43.3116967" lon="11.5151528"><ele>291.0</ele><time>2026-05-02T15:33:48.682Z</time></trkpt><trkpt lat="43.3118379" lon="11.5151343"><ele>291.0</ele><time>2026-05-02T15:33:49.684Z</time></trkpt><trkpt lat="43.311959" lon="11.5150649"><ele>291.0</ele><time>2026-05-02T15:33:50.683Z</time></trkpt><trkpt lat="43.312059" lon="11.5149749"><ele>291.0</ele><time>2026-05-02T15:33:51.669Z</time></trkpt><trkpt lat="43.3121395" lon="11.514854"><ele>291.0</ele><time>2026-05-02T15:33:52.678Z</time></trkpt><trkpt lat="43.3122181" lon="11.5146958"><ele>292.5</ele><time>2026-05-02T15:33:53.67Z</time></trkpt><trkpt lat="43.3122963" lon="11.5145231"><ele>294.0</ele><time>2026-05-02T15:33:54.678Z</time></trkpt><trkpt lat="43.3123829" lon="11.5143648"><ele>295.5</ele><time>2026-05-02T15:33:55.693Z</time></trkpt><trkpt lat="43.3124925" lon="11.5142289"><ele>297.0</ele><time>2026-05-02T15:33:56.684Z</time></trkpt><trkpt lat="43.3126221" lon="11.5141061"><ele>297.0</ele><time>2026-05-02T15:33:57.684Z</time></trkpt><trkpt lat="43.3127678" lon="11.5139832"><ele>297.0</ele><time>2026-05-02T15:33:58.671Z</time></trkpt><trkpt lat="43.3129292" lon="11.5138981"><ele>297.0</ele><time>2026-05-02T15:33:59.684Z</time></trkpt><trkpt lat="43.3130915" lon="11.5138408"><ele>297.5</ele><time>2026-05-02T15:34:00.698Z</time></trkpt><trkpt lat="43.3132387" lon="11.5138532"><ele>298.0</ele><time>2026-05-02T15:34:01.672Z</time></trkpt><trkpt lat="43.3133786" lon="11.5139056"><ele>298.5</ele><time>2026-05-02T15:34:02.681Z</time></trkpt><trkpt lat="43.3135154" lon="11.5139798"><ele>299.0</ele><time>2026-05-02T15:34:03.678Z</time></trkpt><trkpt lat="43.3136519" lon="11.5140789"><ele>299.0</ele><time>2026-05-02T15:34:04.675Z</time></trkpt><trkpt lat="43.313785" lon="11.5142016"><ele>299.0</ele><time>2026-05-02T15:34:05.668Z</time></trkpt><trkpt lat="43.3139122" lon="11.5143459"><ele>299.0</ele><time>2026-05-02T15:34:06.678Z</time></trkpt><trkpt lat="43.3140261" lon="11.5144845"><ele>299.0</ele><time>2026-05-02T15:34:07.679Z</time></trkpt><trkpt lat="43.3141281" lon="11.5145879"><ele>299.0</ele><time>2026-05-02T15:34:08.676Z</time></trkpt><trkpt lat="43.3142318" lon="11.514649"><ele>299.0</ele><time>2026-05-02T15:34:09.677Z</time></trkpt><trkpt lat="43.3143512" lon="11.5146402"><ele>299.0</ele><time>2026-05-02T15:34:10.682Z</time></trkpt><trkpt lat="43.3144665" lon="11.5145609"><ele>299.25</ele><time>2026-05-02T15:34:11.67Z</time></trkpt><trkpt lat="43.3145606" lon="11.5144304"><ele>299.5</ele><time>2026-05-02T15:34:12.677Z</time></trkpt><trkpt lat="43.3146446" lon="11.5142901"><ele>299.75</ele><time>2026-05-02T15:34:13.682Z</time></trkpt><trkpt lat="43.3147206" lon="11.5141362"><ele>300.0</ele><time>2026-05-02T15:34:14.668Z</time></trkpt><trkpt lat="43.3148061" lon="11.5140083"><ele>301.0</ele><time>2026-05-02T15:34:15.686Z</time></trkpt><trkpt lat="43.3149118" lon="11.5139239"><ele>302.0</ele><time>2026-05-02T15:34:16.686Z</time></trkpt><trkpt lat="43.3150376" lon="11.5138896"><ele>303.0</ele><time>2026-05-02T15:34:17.683Z</time></trkpt><trkpt lat="43.3151606" lon="11.5138857"><ele>304.0</ele><time>2026-05-02T15:34:18.684Z</time></trkpt><trkpt lat="43.3152666" lon="11.5138854"><ele>304.0</ele><time>2026-05-02T15:34:19.676Z</time></trkpt><trkpt lat="43.3153686" lon="11.5138904"><ele>304.0</ele><time>2026-05-02T15:34:20.681Z</time></trkpt><trkpt lat="43.315462" lon="11.5139309"><ele>304.0</ele><time>2026-05-02T15:34:21.668Z</time></trkpt><trkpt lat="43.3155277" lon="11.5140086"><ele>304.0</ele><time>2026-05-02T15:34:22.674Z</time></trkpt><trkpt lat="43.3155595" lon="11.5141201"><ele>304.0</ele><time>2026-05-02T15:34:23.68Z</time></trkpt><trkpt lat="43.3155735" lon="11.5142537"><ele>302.75</ele><time>2026-05-02T15:34:24.672Z</time></trkpt><trkpt lat="43.3155859" lon="11.5144159"><ele>301.5</ele><time>2026-05-02T15:34:25.673Z</time></trkpt><trkpt lat="43.3156126" lon="11.514597"><ele>300.25</ele><time>2026-05-02T15:34:26.679Z</time></trkpt><trkpt lat="43.3156534" lon="11.5147872"><ele>299.0</ele><time>2026-05-02T15:34:27.683Z</time></trkpt><trkpt lat="43.3157224" lon="11.5149622"><ele>299.0</ele><time>2026-05-02T15:34:28.681Z</time></trkpt><trkpt lat="43.3158194" lon="11.5151235"><ele>299.0</ele><time>2026-05-02T15:34:29.673Z</time></trkpt><trkpt lat="43.3159388" lon="11.5152197"><ele>299.0</ele><time>2026-05-02T15:34:30.684Z</time></trkpt><trkpt lat="43.3160723" lon="11.5152699"><ele>299.0</ele><time>2026-05-02T15:34:31.68Z</time></trkpt><trkpt lat="43.3162303" lon="11.5152606"><ele>299.0</ele><time>2026-05-02T15:34:32.686Z</time></trkpt><trkpt lat="43.3163924" lon="11.5152236"><ele>299.0</ele><time>2026-05-02T15:34:33.671Z</time></trkpt><trkpt lat="43.3165626" lon="11.5151623"><ele>299.0</ele><time>2026-05-02T15:34:34.7Z</time></trkpt><trkpt lat="43.3167419" lon="11.5150898"><ele>299.33333333333337</ele><time>2026-05-02T15:34:35.69Z</time></trkpt><trkpt lat="43.316929" lon="11.5150053"><ele>299.6666666666667</ele><time>2026-05-02T15:34:36.676Z</time></trkpt><trkpt lat="43.3171148" lon="11.5149194"><ele>300.0</ele><time>2026-05-02T15:34:37.682Z</time></trkpt><trkpt lat="43.3172782" lon="11.5148442"><ele>300.25</ele><time>2026-05-02T15:34:38.683Z</time></trkpt><trkpt lat="43.3174106" lon="11.5147586"><ele>300.5</ele><time>2026-05-02T15:34:39.686Z</time></trkpt><trkpt lat="43.3175145" lon="11.5146334"><ele>300.75</ele><time>2026-05-02T15:34:40.686Z</time></trkpt><trkpt lat="43.3175865" lon="11.5144863"><ele>301.0</ele><time>2026-05-02T15:34:41.682Z</time></trkpt><trkpt lat="43.3176487" lon="11.5142962"><ele>301.0</ele><time>2026-05-02T15:34:42.691Z</time></trkpt><trkpt lat="43.3177017" lon="11.5140846"><ele>301.0</ele><time>2026-05-02T15:34:43.684Z</time></trkpt><trkpt lat="43.3177498" lon="11.51388"><ele>301.0</ele><time>2026-05-02T15:34:44.677Z</time></trkpt><trkpt lat="43.3178104" lon="11.5137045"><ele>300.25</ele><time>2026-05-02T15:34:45.676Z</time></trkpt><trkpt lat="43.3178902" lon="11.5135793"><ele>299.5</ele><time>2026-05-02T15:34:46.678Z</time></trkpt><trkpt lat="43.3179902" lon="11.513484"><ele>298.75</ele><time>2026-05-02T15:34:47.67Z</time></trkpt><trkpt lat="43.3181142" lon="11.5134146"><ele>298.0</ele><time>2026-05-02T15:34:48.676Z</time></trkpt><trkpt lat="43.3182524" lon="11.513385"><ele>298.0</ele><time>2026-05-02T15:34:49.678Z</time></trkpt><trkpt lat="43.3183904" lon="11.5134037"><ele>298.0</ele><time>2026-05-02T15:34:50.672Z</time></trkpt><trkpt lat="43.3185192" lon="11.5134516"><ele>298.0</ele><time>2026-05-02T15:34:51.679Z</time></trkpt><trkpt lat="43.3186194" lon="11.5135358"><ele>298.0</ele><time>2026-05-02T15:34:52.678Z</time></trkpt><trkpt lat="43.318696" lon="11.51365"><ele>298.5</ele><time>2026-05-02T15:34:53.686Z</time></trkpt><trkpt lat="43.3187401" lon="11.5138136"><ele>299.0</ele><time>2026-05-02T15:34:54.682Z</time></trkpt><trkpt lat="43.3187531" lon="11.5139902"><ele>299.5</ele><time>2026-05-02T15:34:55.686Z</time></trkpt><trkpt lat="43.3187226" lon="11.5141577"><ele>300.0</ele><time>2026-05-02T15:34:56.678Z</time></trkpt><trkpt lat="43.3186567" lon="11.5143224"><ele>300.0</ele><time>2026-05-02T15:34:57.673Z</time></trkpt><trkpt lat="43.3185575" lon="11.5144531"><ele>300.0</ele><time>2026-05-02T15:34:58.68Z</time></trkpt><trkpt lat="43.3184585" lon="11.5145554"><ele>300.0</ele><time>2026-05-02T15:34:59.672Z</time></trkpt><trkpt lat="43.3183758" lon="11.5146604"><ele>300.0</ele><time>2026-05-02T15:35:00.679Z</time></trkpt><trkpt lat="43.3183418" lon="11.5147762"><ele>299.6666666666667</ele><time>2026-05-02T15:35:01.686Z</time></trkpt><trkpt lat="43.3183352" lon="11.5148901"><ele>299.3333333333333</ele><time>2026-05-02T15:35:02.676Z</time></trkpt><trkpt lat="43.3183708" lon="11.5149816"><ele>299.0</ele><time>2026-05-02T15:35:03.668Z</time></trkpt><trkpt lat="43.3184836" lon="11.5149929"><ele>298.66666666666663</ele><time>2026-05-02T15:35:05.687Z</time></trkpt><trkpt lat="43.3185406" lon="11.5149402"><ele>298.3333333333333</ele><time>2026-05-02T15:35:06.684Z</time></trkpt><trkpt lat="43.3185953" lon="11.5148565"><ele>298.0</ele><time>2026-05-02T15:35:07.671Z</time></trkpt><trkpt lat="43.3186648" lon="11.5147608"><ele>298.0</ele><time>2026-05-02T15:35:08.678Z</time></trkpt><trkpt lat="43.3187431" lon="11.5146422"><ele>298.0</ele><time>2026-05-02T15:35:09.678Z</time></trkpt><trkpt lat="43.318828" lon="11.5145191"><ele>298.0</ele><time>2026-05-02T15:35:10.69Z</time></trkpt><trkpt lat="43.3189036" lon="11.5143921"><ele>298.0</ele><time>2026-05-02T15:35:11.677Z</time></trkpt><trkpt lat="43.3189641" lon="11.5142351"><ele>296.75</ele><time>2026-05-02T15:35:12.676Z</time></trkpt><trkpt lat="43.3189978" lon="11.5140542"><ele>295.5</ele><time>2026-05-02T15:35:13.665Z</time></trkpt><trkpt lat="43.319009" lon="11.5138637"><ele>294.25</ele><time>2026-05-02T15:35:14.677Z</time></trkpt><trkpt lat="43.3190022" lon="11.5136803"><ele>293.0</ele><time>2026-05-02T15:35:15.688Z</time></trkpt><trkpt lat="43.3190037" lon="11.5134948"><ele>292.25</ele><time>2026-05-02T15:35:16.68Z</time></trkpt><trkpt lat="43.3190284" lon="11.5133294"><ele>291.5</ele><time>2026-05-02T15:35:17.676Z</time></trkpt><trkpt lat="43.3190838" lon="11.5131799"><ele>290.75</ele><time>2026-05-02T15:35:18.671Z</time></trkpt><trkpt lat="43.3191478" lon="11.5130313"><ele>290.0</ele><time>2026-05-02T15:35:19.676Z</time></trkpt><trkpt lat="43.3192136" lon="11.5128873"><ele>287.75</ele><time>2026-05-02T15:35:20.677Z</time></trkpt><trkpt lat="43.3192616" lon="11.5127093"><ele>285.5</ele><time>2026-05-02T15:35:21.671Z</time></trkpt><trkpt lat="43.3192754" lon="11.5125063"><ele>283.25</ele><time>2026-05-02T15:35:22.682Z</time></trkpt><trkpt lat="43.3192757" lon="11.5123046"><ele>281.0</ele><time>2026-05-02T15:35:23.688Z</time></trkpt><trkpt lat="43.319268" lon="11.5121165"><ele>279.0</ele><time>2026-05-02T15:35:24.677Z</time></trkpt><trkpt lat="43.3192496" lon="11.5119405"><ele>277.0</ele><time>2026-05-02T15:35:25.672Z</time></trkpt><trkpt lat="43.3192274" lon="11.5117618"><ele>275.0</ele><time>2026-05-02T15:35:26.677Z</time></trkpt><trkpt lat="43.3191985" lon="11.5115689"><ele>273.0</ele><time>2026-05-02T15:35:27.68Z</time></trkpt><trkpt lat="43.3191674" lon="11.5113736"><ele>270.75</ele><time>2026-05-02T15:35:28.67Z</time></trkpt><trkpt lat="43.3191469" lon="11.5111814"><ele>268.5</ele><time>2026-05-02T15:35:29.676Z</time></trkpt><trkpt lat="43.3191462" lon="11.5109787"><ele>266.25</ele><time>2026-05-02T15:35:30.683Z</time></trkpt><trkpt lat="43.3191721" lon="11.5107762"><ele>264.0</ele><time>2026-05-02T15:35:31.68Z</time></trkpt><trkpt lat="43.3192254" lon="11.5105951"><ele>264.0</ele><time>2026-05-02T15:35:32.672Z</time></trkpt><trkpt lat="43.3193003" lon="11.510421"><ele>264.0</ele><time>2026-05-02T15:35:33.681Z</time></trkpt><trkpt lat="43.3194013" lon="11.5102581"><ele>264.0</ele><time>2026-05-02T15:35:34.679Z</time></trkpt><trkpt lat="43.3195051" lon="11.5100996"><ele>261.5</ele><time>2026-05-02T15:35:35.679Z</time></trkpt><trkpt lat="43.3195951" lon="11.5099347"><ele>259.0</ele><time>2026-05-02T15:35:36.674Z</time></trkpt><trkpt lat="43.3196765" lon="11.5097678"><ele>256.5</ele><time>2026-05-02T15:35:37.687Z</time></trkpt><trkpt lat="43.3197425" lon="11.5095947"><ele>254.0</ele><time>2026-05-02T15:35:38.68Z</time></trkpt><trkpt lat="43.3197912" lon="11.509409"><ele>251.66666666666669</ele><time>2026-05-02T15:35:39.678Z</time></trkpt><trkpt lat="43.3198269" lon="11.5092047"><ele>249.33333333333331</ele><time>2026-05-02T15:35:40.675Z</time></trkpt><trkpt lat="43.3198528" lon="11.5089793"><ele>247.0</ele><time>2026-05-02T15:35:41.672Z</time></trkpt><trkpt lat="43.3198648" lon="11.508753"><ele>247.0</ele><time>2026-05-02T15:35:42.672Z</time></trkpt><trkpt lat="43.3198633" lon="11.5085218"><ele>247.0</ele><time>2026-05-02T15:35:43.685Z</time></trkpt><trkpt lat="43.3198492" lon="11.5082661"><ele>247.0</ele><time>2026-05-02T15:35:44.676Z</time></trkpt><trkpt lat="43.3198283" lon="11.508009"><ele>246.33333333333331</ele><time>2026-05-02T15:35:45.671Z</time></trkpt><trkpt lat="43.3198072" lon="11.5077485"><ele>245.66666666666669</ele><time>2026-05-02T15:35:46.689Z</time></trkpt><trkpt lat="43.319778" lon="11.5074869"><ele>245.0</ele><time>2026-05-02T15:35:47.681Z</time></trkpt><trkpt lat="43.3197507" lon="11.5072227"><ele>249.66666666666669</ele><time>2026-05-02T15:35:48.673Z</time></trkpt><trkpt lat="43.3197251" lon="11.5069658"><ele>254.33333333333331</ele><time>2026-05-02T15:35:49.678Z</time></trkpt><trkpt lat="43.3197047" lon="11.5067346"><ele>259.0</ele><time>2026-05-02T15:35:50.688Z</time></trkpt><trkpt lat="43.3196947" lon="11.5065333"><ele>259.0</ele><time>2026-05-02T15:35:51.672Z</time></trkpt><trkpt lat="43.3197126" lon="11.5063689"><ele>259.0</ele><time>2026-05-02T15:35:52.673Z</time></trkpt><trkpt lat="43.3197584" lon="11.5062321"><ele>259.0</ele><time>2026-05-02T15:35:53.671Z</time></trkpt><trkpt lat="43.3198345" lon="11.5061187"><ele>259.0</ele><time>2026-05-02T15:35:54.678Z</time></trkpt><trkpt lat="43.3199301" lon="11.5060353"><ele>254.0</ele><time>2026-05-02T15:35:55.68Z</time></trkpt><trkpt lat="43.3200664" lon="11.5059715"><ele>249.0</ele><time>2026-05-02T15:35:56.702Z</time></trkpt><trkpt lat="43.3202242" lon="11.5059069"><ele>244.0</ele><time>2026-05-02T15:35:57.675Z</time></trkpt><trkpt lat="43.3203857" lon="11.5058459"><ele>244.0</ele><time>2026-05-02T15:35:58.678Z</time></trkpt><trkpt lat="43.3205538" lon="11.5057846"><ele>244.0</ele><time>2026-05-02T15:35:59.675Z</time></trkpt><trkpt lat="43.3207297" lon="11.5057294"><ele>244.0</ele><time>2026-05-02T15:36:00.677Z</time></trkpt><trkpt lat="43.3209012" lon="11.5056988"><ele>245.0</ele><time>2026-05-02T15:36:01.673Z</time></trkpt><trkpt lat="43.3210792" lon="11.5056972"><ele>246.0</ele><time>2026-05-02T15:36:02.683Z</time></trkpt><trkpt lat="43.3212501" lon="11.5057401"><ele>247.0</ele><time>2026-05-02T15:36:03.685Z</time></trkpt><trkpt lat="43.321396" lon="11.5058362"><ele>249.66666666666666</ele><time>2026-05-02T15:36:04.68Z</time></trkpt><trkpt lat="43.3215328" lon="11.5059878"><ele>252.33333333333331</ele><time>2026-05-02T15:36:05.691Z</time></trkpt><trkpt lat="43.3216665" lon="11.5061783"><ele>255.0</ele><time>2026-05-02T15:36:06.674Z</time></trkpt><trkpt lat="43.3218071" lon="11.5063819"><ele>255.0</ele><time>2026-05-02T15:36:07.674Z</time></trkpt><trkpt lat="43.321948" lon="11.5065878"><ele>255.0</ele><time>2026-05-02T15:36:08.684Z</time></trkpt><trkpt lat="43.322077" lon="11.5067699"><ele>255.0</ele><time>2026-05-02T15:36:09.68Z</time></trkpt><trkpt lat="43.3221971" lon="11.5069366"><ele>259.6666666666667</ele><time>2026-05-02T15:36:10.674Z</time></trkpt><trkpt lat="43.3223148" lon="11.5071037"><ele>264.33333333333337</ele><time>2026-05-02T15:36:11.676Z</time></trkpt><trkpt lat="43.3224247" lon="11.5072664"><ele>269.0</ele><time>2026-05-02T15:36:12.674Z</time></trkpt><trkpt lat="43.3225284" lon="11.5074063"><ele>269.0</ele><time>2026-05-02T15:36:13.687Z</time></trkpt><trkpt lat="43.32264" lon="11.5075266"><ele>269.0</ele><time>2026-05-02T15:36:14.68Z</time></trkpt><trkpt lat="43.3227812" lon="11.5075958"><ele>269.0</ele><time>2026-05-02T15:36:15.675Z</time></trkpt><trkpt lat="43.3229384" lon="11.5076283"><ele>271.0</ele><time>2026-05-02T15:36:16.676Z</time></trkpt><trkpt lat="43.3231012" lon="11.5076456"><ele>273.0</ele><time>2026-05-02T15:36:17.681Z</time></trkpt><trkpt lat="43.3232678" lon="11.5076491"><ele>275.0</ele><time>2026-05-02T15:36:18.684Z</time></trkpt><trkpt lat="43.3234328" lon="11.507655"><ele>275.0</ele><time>2026-05-02T15:36:19.674Z</time></trkpt><trkpt lat="43.3235894" lon="11.5076839"><ele>275.0</ele><time>2026-05-02T15:36:20.68Z</time></trkpt><trkpt lat="43.3237468" lon="11.5077377"><ele>275.0</ele><time>2026-05-02T15:36:21.682Z</time></trkpt><trkpt lat="43.3238984" lon="11.5078216"><ele>278.0</ele><time>2026-05-02T15:36:22.682Z</time></trkpt><trkpt lat="43.3240164" lon="11.5079628"><ele>281.0</ele><time>2026-05-02T15:36:23.67Z</time></trkpt><trkpt lat="43.3241095" lon="11.5081422"><ele>284.0</ele><time>2026-05-02T15:36:24.691Z</time></trkpt><trkpt lat="43.3241848" lon="11.5083383"><ele>284.0</ele><time>2026-05-02T15:36:25.668Z</time></trkpt><trkpt lat="43.3242618" lon="11.5085385"><ele>284.0</ele><time>2026-05-02T15:36:26.675Z</time></trkpt><trkpt lat="43.3243443" lon="11.5087381"><ele>284.0</ele><time>2026-05-02T15:36:27.677Z</time></trkpt><trkpt lat="43.3244283" lon="11.5089387"><ele>286.6666666666667</ele><time>2026-05-02T15:36:28.681Z</time></trkpt><trkpt lat="43.3245124" lon="11.5091322"><ele>289.3333333333333</ele><time>2026-05-02T15:36:29.678Z</time></trkpt><trkpt lat="43.3246123" lon="11.5093011"><ele>292.0</ele><time>2026-05-02T15:36:30.676Z</time></trkpt><trkpt lat="43.3247274" lon="11.5094164"><ele>291.25</ele><time>2026-05-02T15:36:31.683Z</time></trkpt><trkpt lat="43.3248552" lon="11.5094803"><ele>290.5</ele><time>2026-05-02T15:36:32.678Z</time></trkpt><trkpt lat="43.3249842" lon="11.5095217"><ele>289.75</ele><time>2026-05-02T15:36:33.688Z</time></trkpt><trkpt lat="43.3251292" lon="11.5095136"><ele>289.0</ele><time>2026-05-02T15:36:34.678Z</time></trkpt><trkpt lat="43.3252717" lon="11.5094694"><ele>289.0</ele><time>2026-05-02T15:36:35.655Z</time></trkpt><trkpt lat="43.325418" lon="11.5094066"><ele>289.0</ele><time>2026-05-02T15:36:36.68Z</time></trkpt><trkpt lat="43.3255791" lon="11.5093335"><ele>289.0</ele><time>2026-05-02T15:36:37.677Z</time></trkpt><trkpt lat="43.3257508" lon="11.5092609"><ele>289.3333333333333</ele><time>2026-05-02T15:36:38.682Z</time></trkpt><trkpt lat="43.3259373" lon="11.5091819"><ele>289.6666666666667</ele><time>2026-05-02T15:36:39.673Z</time></trkpt><trkpt lat="43.3261258" lon="11.5090967"><ele>290.0</ele><time>2026-05-02T15:36:40.689Z</time></trkpt><trkpt lat="43.3263124" lon="11.5090013"><ele>291.0</ele><time>2026-05-02T15:36:41.685Z</time></trkpt><trkpt lat="43.3265011" lon="11.5089059"><ele>292.0</ele><time>2026-05-02T15:36:42.688Z</time></trkpt><trkpt lat="43.3266918" lon="11.508792"><ele>293.0</ele><time>2026-05-02T15:36:43.679Z</time></trkpt><trkpt lat="43.3268789" lon="11.5086845"><ele>293.6666666666667</ele><time>2026-05-02T15:36:44.678Z</time></trkpt><trkpt lat="43.3270673" lon="11.5085701"><ele>294.3333333333333</ele><time>2026-05-02T15:36:45.678Z</time></trkpt><trkpt lat="43.3272603" lon="11.5084486"><ele>295.0</ele><time>2026-05-02T15:36:46.678Z</time></trkpt><trkpt lat="43.3274522" lon="11.5083279"><ele>296.3333333333333</ele><time>2026-05-02T15:36:47.685Z</time></trkpt><trkpt lat="43.3276361" lon="11.5082111"><ele>297.6666666666667</ele><time>2026-05-02T15:36:48.681Z</time></trkpt><trkpt lat="43.3278179" lon="11.5080939"><ele>299.0</ele><time>2026-05-02T15:36:49.694Z</time></trkpt><trkpt lat="43.3279948" lon="11.5079839"><ele>300.33333333333337</ele><time>2026-05-02T15:36:50.676Z</time></trkpt><trkpt lat="43.3281746" lon="11.5078757"><ele>301.6666666666667</ele><time>2026-05-02T15:36:51.682Z</time></trkpt><trkpt lat="43.3283535" lon="11.5077578"><ele>303.0</ele><time>2026-05-02T15:36:52.684Z</time></trkpt><trkpt lat="43.3285319" lon="11.5076408"><ele>303.0</ele><time>2026-05-02T15:36:53.676Z</time></trkpt><trkpt lat="43.3287046" lon="11.5075296"><ele>303.0</ele><time>2026-05-02T15:36:54.677Z</time></trkpt><trkpt lat="43.3288802" lon="11.5074177"><ele>303.0</ele><time>2026-05-02T15:36:55.675Z</time></trkpt><trkpt lat="43.3290596" lon="11.5073196"><ele>304.3333333333333</ele><time>2026-05-02T15:36:56.688Z</time></trkpt><trkpt lat="43.3292476" lon="11.5072391"><ele>305.66666666666663</ele><time>2026-05-02T15:36:57.68Z</time></trkpt><trkpt lat="43.3294414" lon="11.5071827"><ele>307.0</ele><time>2026-05-02T15:36:58.674Z</time></trkpt><trkpt lat="43.3296414" lon="11.5071347"><ele>307.0</ele><time>2026-05-02T15:36:59.679Z</time></trkpt><trkpt lat="43.3298397" lon="11.5070931"><ele>307.0</ele><time>2026-05-02T15:37:00.687Z</time></trkpt><trkpt lat="43.3300352" lon="11.5070524"><ele>307.0</ele><time>2026-05-02T15:37:01.684Z</time></trkpt><trkpt lat="43.3302328" lon="11.5070145"><ele>307.0</ele><time>2026-05-02T15:37:02.681Z</time></trkpt><trkpt lat="43.3304294" lon="11.5069786"><ele>307.0</ele><time>2026-05-02T15:37:03.681Z</time></trkpt><trkpt lat="43.3306279" lon="11.5069437"><ele>307.0</ele><time>2026-05-02T15:37:04.684Z</time></trkpt><trkpt lat="43.3308247" lon="11.5069069"><ele>308.3333333333333</ele><time>2026-05-02T15:37:05.688Z</time></trkpt><trkpt lat="43.331019" lon="11.5068679"><ele>309.6666666666667</ele><time>2026-05-02T15:37:06.686Z</time></trkpt><trkpt lat="43.3312106" lon="11.506812"><ele>311.0</ele><time>2026-05-02T15:37:07.681Z</time></trkpt><trkpt lat="43.3313967" lon="11.5067374"><ele>312.0</ele><time>2026-05-02T15:37:08.68Z</time></trkpt><trkpt lat="43.3315853" lon="11.506633"><ele>313.0</ele><time>2026-05-02T15:37:09.696Z</time></trkpt><trkpt lat="43.3317724" lon="11.506502"><ele>314.0</ele><time>2026-05-02T15:37:10.69Z</time></trkpt><trkpt lat="43.3319545" lon="11.5063763"><ele>314.0</ele><time>2026-05-02T15:37:11.688Z</time></trkpt><trkpt lat="43.3321383" lon="11.5062495"><ele>314.0</ele><time>2026-05-02T15:37:12.68Z</time></trkpt><trkpt lat="43.332322" lon="11.5061312"><ele>314.0</ele><time>2026-05-02T15:37:13.688Z</time></trkpt><trkpt lat="43.3325078" lon="11.5060148"><ele>314.6666666666667</ele><time>2026-05-02T15:37:14.681Z</time></trkpt><trkpt lat="43.3327019" lon="11.5059197"><ele>315.3333333333333</ele><time>2026-05-02T15:37:15.676Z</time></trkpt><trkpt lat="43.3328928" lon="11.5058571"><ele>316.0</ele><time>2026-05-02T15:37:16.679Z</time></trkpt><trkpt lat="43.3330909" lon="11.5058099"><ele>316.0</ele><time>2026-05-02T15:37:17.669Z</time></trkpt><trkpt lat="43.3332895" lon="11.5057709"><ele>316.0</ele><time>2026-05-02T15:37:18.681Z</time></trkpt><trkpt lat="43.3334935" lon="11.5057267"><ele>316.0</ele><time>2026-05-02T15:37:19.682Z</time></trkpt><trkpt lat="43.3336956" lon="11.5056836"><ele>315.66666666666663</ele><time>2026-05-02T15:37:20.682Z</time></trkpt><trkpt lat="43.3339014" lon="11.5056444"><ele>315.3333333333333</ele><time>2026-05-02T15:37:21.692Z</time></trkpt><trkpt lat="43.3341085" lon="11.505605"><ele>315.0</ele><time>2026-05-02T15:37:22.682Z</time></trkpt><trkpt lat="43.3343112" lon="11.5055646"><ele>315.0</ele><time>2026-05-02T15:37:23.678Z</time></trkpt><trkpt lat="43.3345179" lon="11.5055232"><ele>315.0</ele><time>2026-05-02T15:37:24.673Z</time></trkpt><trkpt lat="43.3347228" lon="11.5054863"><ele>315.0</ele><time>2026-05-02T15:37:25.674Z</time></trkpt><trkpt lat="43.3349303" lon="11.5054465"><ele>316.0</ele><time>2026-05-02T15:37:26.683Z</time></trkpt><trkpt lat="43.3351395" lon="11.5054052"><ele>317.0</ele><time>2026-05-02T15:37:27.683Z</time></trkpt><trkpt lat="43.3353476" lon="11.505362"><ele>318.0</ele><time>2026-05-02T15:37:28.689Z</time></trkpt><trkpt lat="43.3355571" lon="11.5053217"><ele>318.0</ele><time>2026-05-02T15:37:29.676Z</time></trkpt><trkpt lat="43.3357679" lon="11.5052709"><ele>318.0</ele><time>2026-05-02T15:37:30.694Z</time></trkpt><trkpt lat="43.3359593" lon="11.5052321"><ele>318.0</ele><time>2026-05-02T15:37:31.674Z</time></trkpt><trkpt lat="43.3361458" lon="11.5051987"><ele>318.0</ele><time>2026-05-02T15:37:32.679Z</time></trkpt><trkpt lat="43.3363322" lon="11.505156"><ele>318.0</ele><time>2026-05-02T15:37:33.674Z</time></trkpt><trkpt lat="43.3365231" lon="11.5051174"><ele>318.0</ele><time>2026-05-02T15:37:34.674Z</time></trkpt><trkpt lat="43.3367166" lon="11.5050893"><ele>320.0</ele><time>2026-05-02T15:37:35.688Z</time></trkpt><trkpt lat="43.3369127" lon="11.5050891"><ele>322.0</ele><time>2026-05-02T15:37:36.678Z</time></trkpt><trkpt lat="43.3371124" lon="11.5051238"><ele>324.0</ele><time>2026-05-02T15:37:37.687Z</time></trkpt><trkpt lat="43.3373107" lon="11.5051894"><ele>324.3333333333333</ele><time>2026-05-02T15:37:38.678Z</time></trkpt><trkpt lat="43.3375039" lon="11.5052932"><ele>324.66666666666663</ele><time>2026-05-02T15:37:39.685Z</time></trkpt><trkpt lat="43.3376936" lon="11.505421"><ele>325.0</ele><time>2026-05-02T15:37:40.678Z</time></trkpt><trkpt lat="43.3378816" lon="11.5055537"><ele>327.3333333333333</ele><time>2026-05-02T15:37:41.671Z</time></trkpt><trkpt lat="43.3380738" lon="11.505679"><ele>329.6666666666667</ele><time>2026-05-02T15:37:42.685Z</time></trkpt><trkpt lat="43.3382646" lon="11.505788"><ele>332.0</ele><time>2026-05-02T15:37:43.678Z</time></trkpt><trkpt lat="43.3384547" lon="11.5058694"><ele>332.0</ele><time>2026-05-02T15:37:44.689Z</time></trkpt><trkpt lat="43.3386525" lon="11.5059051"><ele>332.0</ele><time>2026-05-02T15:37:45.681Z</time></trkpt><trkpt lat="43.3388517" lon="11.5059106"><ele>332.0</ele><time>2026-05-02T15:37:46.677Z</time></trkpt><trkpt lat="43.3390518" lon="11.5058782"><ele>333.6666666666667</ele><time>2026-05-02T15:37:47.678Z</time></trkpt><trkpt lat="43.3392469" lon="11.5058236"><ele>335.3333333333333</ele><time>2026-05-02T15:37:48.679Z</time></trkpt><trkpt lat="43.3394384" lon="11.5057537"><ele>337.0</ele><time>2026-05-02T15:37:49.682Z</time></trkpt><trkpt lat="43.3396295" lon="11.5056787"><ele>336.66666666666663</ele><time>2026-05-02T15:37:50.687Z</time></trkpt><trkpt lat="43.3398175" lon="11.5056101"><ele>336.3333333333333</ele><time>2026-05-02T15:37:51.68Z</time></trkpt><trkpt lat="43.3399814" lon="11.5055424"><ele>336.0</ele><time>2026-05-02T15:37:52.67Z</time></trkpt><trkpt lat="43.3401315" lon="11.5054874"><ele>336.0</ele><time>2026-05-02T15:37:53.676Z</time></trkpt><trkpt lat="43.3402719" lon="11.5054392"><ele>336.0</ele><time>2026-05-02T15:37:54.676Z</time></trkpt><trkpt lat="43.3403847" lon="11.5054031"><ele>336.0</ele><time>2026-05-02T15:37:55.675Z</time></trkpt><trkpt lat="43.3404908" lon="11.5053745"><ele>336.0</ele><time>2026-05-02T15:37:56.67Z</time></trkpt><trkpt lat="43.3405856" lon="11.5053658"><ele>335.8</ele><time>2026-05-02T15:37:57.69Z</time></trkpt><trkpt lat="43.34067" lon="11.5053972"><ele>335.6</ele><time>2026-05-02T15:37:58.675Z</time></trkpt><trkpt lat="43.3407468" lon="11.5054157"><ele>335.4</ele><time>2026-05-02T15:37:59.68Z</time></trkpt><trkpt lat="43.3408353" lon="11.5053714"><ele>335.2</ele><time>2026-05-02T15:38:00.672Z</time></trkpt><trkpt lat="43.3409243" lon="11.5052881"><ele>335.0</ele><time>2026-05-02T15:38:01.675Z</time></trkpt><trkpt lat="43.3410125" lon="11.5052238"><ele>335.0</ele><time>2026-05-02T15:38:02.67Z</time></trkpt><trkpt lat="43.3411178" lon="11.5051735"><ele>335.0</ele><time>2026-05-02T15:38:03.69Z</time></trkpt><trkpt lat="43.3412327" lon="11.5051331"><ele>335.0</ele><time>2026-05-02T15:38:04.668Z</time></trkpt><trkpt lat="43.3413391" lon="11.5050929"><ele>335.0</ele><time>2026-05-02T15:38:05.678Z</time></trkpt><trkpt lat="43.3414333" lon="11.5050628"><ele>335.0</ele><time>2026-05-02T15:38:06.685Z</time></trkpt><trkpt lat="43.3415251" lon="11.5050369"><ele>335.0</ele><time>2026-05-02T15:38:07.687Z</time></trkpt><trkpt lat="43.3416056" lon="11.5050167"><ele>335.0</ele><time>2026-05-02T15:38:08.677Z</time></trkpt><trkpt lat="43.3416834" lon="11.5049917"><ele>335.0</ele><time>2026-05-02T15:38:09.677Z</time></trkpt><trkpt lat="43.3417677" lon="11.5049763"><ele>335.0</ele><time>2026-05-02T15:38:10.679Z</time></trkpt><trkpt lat="43.3418551" lon="11.504957"><ele>335.0</ele><time>2026-05-02T15:38:11.682Z</time></trkpt><trkpt lat="43.3419448" lon="11.5049358"><ele>335.0</ele><time>2026-05-02T15:38:12.674Z</time></trkpt><trkpt lat="43.3420385" lon="11.5048979"><ele>335.0</ele><time>2026-05-02T15:38:13.668Z</time></trkpt><trkpt lat="43.342135" lon="11.5048657"><ele>335.0</ele><time>2026-05-02T15:38:14.676Z</time></trkpt><trkpt lat="43.3422543" lon="11.5048334"><ele>335.0</ele><time>2026-05-02T15:38:15.672Z</time></trkpt><trkpt lat="43.3423962" lon="11.5048219"><ele>335.0</ele><time>2026-05-02T15:38:16.676Z</time></trkpt><trkpt lat="43.3425421" lon="11.5048112"><ele>335.75</ele><time>2026-05-02T15:38:17.691Z</time></trkpt><trkpt lat="43.3426807" lon="11.5047874"><ele>336.5</ele><time>2026-05-02T15:38:18.687Z</time></trkpt><trkpt lat="43.3428235" lon="11.504763"><ele>337.25</ele><time>2026-05-02T15:38:19.705Z</time></trkpt><trkpt lat="43.3429727" lon="11.5047329"><ele>338.0</ele><time>2026-05-02T15:38:20.665Z</time></trkpt><trkpt lat="43.3431261" lon="11.5047062"><ele>338.0</ele><time>2026-05-02T15:38:21.672Z</time></trkpt><trkpt lat="43.3432755" lon="11.5046757"><ele>338.0</ele><time>2026-05-02T15:38:22.672Z</time></trkpt><trkpt lat="43.3434242" lon="11.5046465"><ele>338.0</ele><time>2026-05-02T15:38:23.679Z</time></trkpt><trkpt lat="43.3435738" lon="11.5046219"><ele>338.0</ele><time>2026-05-02T15:38:24.675Z</time></trkpt><trkpt lat="43.3437181" lon="11.504605"><ele>338.0</ele><time>2026-05-02T15:38:25.678Z</time></trkpt><trkpt lat="43.3438549" lon="11.5045841"><ele>338.0</ele><time>2026-05-02T15:38:26.679Z</time></trkpt><trkpt lat="43.3439734" lon="11.5045641"><ele>338.0</ele><time>2026-05-02T15:38:27.676Z</time></trkpt><trkpt lat="43.3440891" lon="11.5045427"><ele>337.59999999999997</ele><time>2026-05-02T15:38:28.69Z</time></trkpt><trkpt lat="43.3442024" lon="11.5045257"><ele>337.2</ele><time>2026-05-02T15:38:29.678Z</time></trkpt><trkpt lat="43.3443031" lon="11.5045157"><ele>336.8</ele><time>2026-05-02T15:38:30.677Z</time></trkpt><trkpt lat="43.3443961" lon="11.5044975"><ele>336.4</ele><time>2026-05-02T15:38:31.677Z</time></trkpt><trkpt lat="43.3444733" lon="11.5044854"><ele>336.0</ele><time>2026-05-02T15:38:32.685Z</time></trkpt><trkpt lat="43.3445656" lon="11.5044715"><ele>336.0</ele><time>2026-05-02T15:38:34.685Z</time></trkpt><trkpt lat="43.3446623" lon="11.5044491"><ele>336.0</ele><time>2026-05-02T15:38:36.681Z</time></trkpt><trkpt lat="43.3447687" lon="11.5043467"><ele>336.0</ele><time>2026-05-02T15:38:38.676Z</time></trkpt><trkpt lat="43.3448074" lon="11.5042633"><ele>336.0</ele><time>2026-05-02T15:38:39.672Z</time></trkpt><trkpt lat="43.3448478" lon="11.5041569"><ele>336.0</ele><time>2026-05-02T15:38:40.676Z</time></trkpt><trkpt lat="43.3448975" lon="11.5040436"><ele>337.1666666666667</ele><time>2026-05-02T15:38:41.69Z</time></trkpt><trkpt lat="43.3449467" lon="11.5039315"><ele>338.3333333333333</ele><time>2026-05-02T15:38:42.674Z</time></trkpt><trkpt lat="43.3449868" lon="11.5038267"><ele>339.5</ele><time>2026-05-02T15:38:43.677Z</time></trkpt><trkpt lat="43.3450218" lon="11.5037126"><ele>340.66666666666663</ele><time>2026-05-02T15:38:44.671Z</time></trkpt><trkpt lat="43.3450308" lon="11.5035901"><ele>341.8333333333333</ele><time>2026-05-02T15:38:45.675Z</time></trkpt><trkpt lat="43.3450111" lon="11.5034763"><ele>343.0</ele><time>2026-05-02T15:38:46.678Z</time></trkpt><trkpt lat="43.3449726" lon="11.5033564"><ele>343.0</ele><time>2026-05-02T15:38:47.675Z</time></trkpt><trkpt lat="43.34494" lon="11.5032427"><ele>343.0</ele><time>2026-05-02T15:38:48.687Z</time></trkpt><trkpt lat="43.3449194" lon="11.5031083"><ele>343.0</ele><time>2026-05-02T15:38:49.671Z</time></trkpt><trkpt lat="43.3449157" lon="11.5029673"><ele>343.0</ele><time>2026-05-02T15:38:50.659Z</time></trkpt><trkpt lat="43.3449294" lon="11.5028305"><ele>343.0</ele><time>2026-05-02T15:38:51.67Z</time></trkpt><trkpt lat="43.3449572" lon="11.5026731"><ele>343.25</ele><time>2026-05-02T15:38:52.677Z</time></trkpt><trkpt lat="43.3450065" lon="11.5025211"><ele>343.5</ele><time>2026-05-02T15:38:53.685Z</time></trkpt><trkpt lat="43.3450661" lon="11.5023692"><ele>343.75</ele><time>2026-05-02T15:38:54.661Z</time></trkpt><trkpt lat="43.3451225" lon="11.502212"><ele>344.0</ele><time>2026-05-02T15:38:55.675Z</time></trkpt><trkpt lat="43.3451754" lon="11.5020634"><ele>342.4</ele><time>2026-05-02T15:38:56.668Z</time></trkpt><trkpt lat="43.345218" lon="11.5019256"><ele>340.79999999999995</ele><time>2026-05-02T15:38:57.67Z</time></trkpt><trkpt lat="43.3452404" lon="11.5017891"><ele>339.20000000000005</ele><time>2026-05-02T15:38:58.675Z</time></trkpt><trkpt lat="43.3452425" lon="11.5016614"><ele>337.6</ele><time>2026-05-02T15:38:59.672Z</time></trkpt><trkpt lat="43.3452279" lon="11.5015449"><ele>336.0</ele><time>2026-05-02T15:39:00.676Z</time></trkpt><trkpt lat="43.3452077" lon="11.5014584"><ele>336.0</ele><time>2026-05-02T15:39:01.688Z</time></trkpt><trkpt lat="43.3451575" lon="11.5012942"><ele>336.0</ele><time>2026-05-02T15:39:03.671Z</time></trkpt><trkpt lat="43.3451228" lon="11.5012027"><ele>336.0</ele><time>2026-05-02T15:39:04.674Z</time></trkpt><trkpt lat="43.3450781" lon="11.5011072"><ele>336.0</ele><time>2026-05-02T15:39:05.682Z</time></trkpt><trkpt lat="43.3450228" lon="11.5010047"><ele>336.0</ele><time>2026-05-02T15:39:06.673Z</time></trkpt><trkpt lat="43.344977" lon="11.5009103"><ele>335.8</ele><time>2026-05-02T15:39:07.674Z</time></trkpt><trkpt lat="43.344952" lon="11.5008259"><ele>335.6</ele><time>2026-05-02T15:39:08.695Z</time></trkpt><trkpt lat="43.3449635" lon="11.5006762"><ele>335.4</ele><time>2026-05-02T15:39:10.681Z</time></trkpt><trkpt lat="43.3450131" lon="11.5005994"><ele>335.2</ele><time>2026-05-02T15:39:12.683Z</time></trkpt><trkpt lat="43.3450509" lon="11.5004981"><ele>335.0</ele><time>2026-05-02T15:39:17.686Z</time></trkpt><trkpt lat="43.3449907" lon="11.5003521"><ele>335.0</ele><time>2026-05-02T15:39:19.68Z</time></trkpt><trkpt lat="43.3449634" lon="11.5002599"><ele>335.0</ele><time>2026-05-02T15:39:20.677Z</time></trkpt><trkpt lat="43.3449288" lon="11.5001398"><ele>335.0</ele><time>2026-05-02T15:39:21.689Z</time></trkpt><trkpt lat="43.3448786" lon="11.5000074"><ele>335.0</ele><time>2026-05-02T15:39:22.678Z</time></trkpt><trkpt lat="43.3448229" lon="11.4998733"><ele>335.0</ele><time>2026-05-02T15:39:23.692Z</time></trkpt><trkpt lat="43.344771" lon="11.4997348"><ele>335.0</ele><time>2026-05-02T15:39:24.677Z</time></trkpt><trkpt lat="43.344712" lon="11.4995872"><ele>335.0</ele><time>2026-05-02T15:39:25.676Z</time></trkpt><trkpt lat="43.3446476" lon="11.4994251"><ele>335.0</ele><time>2026-05-02T15:39:26.671Z</time></trkpt><trkpt lat="43.3445904" lon="11.4992715"><ele>335.0</ele><time>2026-05-02T15:39:27.668Z</time></trkpt><trkpt lat="43.3445439" lon="11.499121"><ele>335.25</ele><time>2026-05-02T15:39:28.677Z</time></trkpt><trkpt lat="43.3444964" lon="11.4989779"><ele>335.5</ele><time>2026-05-02T15:39:29.677Z</time></trkpt><trkpt lat="43.3444471" lon="11.4988294"><ele>335.75</ele><time>2026-05-02T15:39:30.674Z</time></trkpt><trkpt lat="43.3443992" lon="11.498672"><ele>336.0</ele><time>2026-05-02T15:39:31.677Z</time></trkpt><trkpt lat="43.3443519" lon="11.4985124"><ele>335.5</ele><time>2026-05-02T15:39:32.674Z</time></trkpt><trkpt lat="43.3443012" lon="11.4983498"><ele>335.0</ele><time>2026-05-02T15:39:33.682Z</time></trkpt><trkpt lat="43.3442518" lon="11.4982042"><ele>334.5</ele><time>2026-05-02T15:39:34.68Z</time></trkpt><trkpt lat="43.3442042" lon="11.4980752"><ele>334.0</ele><time>2026-05-02T15:39:35.671Z</time></trkpt><trkpt lat="43.3441607" lon="11.4979531"><ele>334.6</ele><time>2026-05-02T15:39:36.677Z</time></trkpt><trkpt lat="43.3441175" lon="11.4978359"><ele>335.2</ele><time>2026-05-02T15:39:37.683Z</time></trkpt><trkpt lat="43.344072" lon="11.4977195"><ele>335.8</ele><time>2026-05-02T15:39:38.679Z</time></trkpt><trkpt lat="43.3440252" lon="11.4975996"><ele>336.40000000000003</ele><time>2026-05-02T15:39:39.675Z</time></trkpt><trkpt lat="43.3439787" lon="11.4974784"><ele>337.0</ele><time>2026-05-02T15:39:40.687Z</time></trkpt><trkpt lat="43.3439343" lon="11.4973703"><ele>337.0</ele><time>2026-05-02T15:39:41.679Z</time></trkpt><trkpt lat="43.3438998" lon="11.4972733"><ele>337.0</ele><time>2026-05-02T15:39:42.685Z</time></trkpt><trkpt lat="43.3438682" lon="11.4971967"><ele>337.0</ele><time>2026-05-02T15:39:43.681Z</time></trkpt><trkpt lat="43.3437963" lon="11.4970599"><ele>337.0</ele><time>2026-05-02T15:39:45.673Z</time></trkpt><trkpt lat="43.343747" lon="11.49698"><ele>337.0</ele><time>2026-05-02T15:39:46.678Z</time></trkpt><trkpt lat="43.3436856" lon="11.496892"><ele>337.0</ele><time>2026-05-02T15:39:47.677Z</time></trkpt><trkpt lat="43.3436212" lon="11.4968068"><ele>336.40000000000003</ele><time>2026-05-02T15:39:48.666Z</time></trkpt><trkpt lat="43.3435526" lon="11.4967185"><ele>335.8</ele><time>2026-05-02T15:39:49.673Z</time></trkpt><trkpt lat="43.3434792" lon="11.4966305"><ele>335.2</ele><time>2026-05-02T15:39:50.684Z</time></trkpt><trkpt lat="43.3433989" lon="11.4965314"><ele>334.6</ele><time>2026-05-02T15:39:51.676Z</time></trkpt><trkpt lat="43.3433263" lon="11.4964476"><ele>334.0</ele><time>2026-05-02T15:39:52.673Z</time></trkpt><trkpt lat="43.343265" lon="11.4963743"><ele>334.0</ele><time>2026-05-02T15:39:53.68Z</time></trkpt><trkpt lat="43.3432114" lon="11.4963015"><ele>334.0</ele><time>2026-05-02T15:39:54.679Z</time></trkpt><trkpt lat="43.343149" lon="11.4962178"><ele>334.0</ele><time>2026-05-02T15:39:55.676Z</time></trkpt><trkpt lat="43.3430702" lon="11.4961143"><ele>334.0</ele><time>2026-05-02T15:39:56.684Z</time></trkpt><trkpt lat="43.3429782" lon="11.4959998"><ele>334.0</ele><time>2026-05-02T15:39:57.69Z</time></trkpt><trkpt lat="43.3428832" lon="11.4958876"><ele>333.25</ele><time>2026-05-02T15:39:58.7Z</time></trkpt><trkpt lat="43.3427868" lon="11.4957715"><ele>332.5</ele><time>2026-05-02T15:39:59.67Z</time></trkpt><trkpt lat="43.3426758" lon="11.495648"><ele>331.75</ele><time>2026-05-02T15:40:00.676Z</time></trkpt><trkpt lat="43.3425574" lon="11.495515"><ele>331.0</ele><time>2026-05-02T15:40:01.675Z</time></trkpt><trkpt lat="43.3424372" lon="11.4953748"><ele>328.3333333333333</ele><time>2026-05-02T15:40:02.727Z</time></trkpt><trkpt lat="43.3423118" lon="11.4952209"><ele>325.6666666666667</ele><time>2026-05-02T15:40:03.682Z</time></trkpt><trkpt lat="43.3421691" lon="11.4950539"><ele>323.0</ele><time>2026-05-02T15:40:04.678Z</time></trkpt><trkpt lat="43.342023" lon="11.494876"><ele>320.6666666666667</ele><time>2026-05-02T15:40:05.676Z</time></trkpt><trkpt lat="43.3418775" lon="11.4947043"><ele>318.3333333333333</ele><time>2026-05-02T15:40:06.673Z</time></trkpt><trkpt lat="43.3417313" lon="11.4945344"><ele>316.0</ele><time>2026-05-02T15:40:07.694Z</time></trkpt><trkpt lat="43.3415789" lon="11.4943559"><ele>315.0</ele><time>2026-05-02T15:40:08.683Z</time></trkpt><trkpt lat="43.3414149" lon="11.4941736"><ele>314.0</ele><time>2026-05-02T15:40:09.679Z</time></trkpt><trkpt lat="43.3412515" lon="11.4939877"><ele>313.0</ele><time>2026-05-02T15:40:10.688Z</time></trkpt><trkpt lat="43.3410886" lon="11.4937853"><ele>312.0</ele><time>2026-05-02T15:40:11.674Z</time></trkpt><trkpt lat="43.3409266" lon="11.4935809"><ele>311.0</ele><time>2026-05-02T15:40:12.69Z</time></trkpt><trkpt lat="43.3407609" lon="11.4933832"><ele>310.0</ele><time>2026-05-02T15:40:13.673Z</time></trkpt><trkpt lat="43.3406039" lon="11.4931928"><ele>310.0</ele><time>2026-05-02T15:40:14.677Z</time></trkpt><trkpt lat="43.3404518" lon="11.4930034"><ele>310.0</ele><time>2026-05-02T15:40:15.677Z</time></trkpt><trkpt lat="43.3402986" lon="11.4928055"><ele>310.0</ele><time>2026-05-02T15:40:16.688Z</time></trkpt><trkpt lat="43.3401483" lon="11.4926034"><ele>310.3333333333333</ele><time>2026-05-02T15:40:17.69Z</time></trkpt><trkpt lat="43.339998" lon="11.4923947"><ele>310.6666666666667</ele><time>2026-05-02T15:40:18.68Z</time></trkpt><trkpt lat="43.3398502" lon="11.4921775"><ele>311.0</ele><time>2026-05-02T15:40:19.683Z</time></trkpt><trkpt lat="43.3396994" lon="11.4919506"><ele>309.6666666666667</ele><time>2026-05-02T15:40:20.675Z</time></trkpt><trkpt lat="43.3395485" lon="11.4917229"><ele>308.3333333333333</ele><time>2026-05-02T15:40:21.677Z</time></trkpt><trkpt lat="43.3394088" lon="11.491503"><ele>307.0</ele><time>2026-05-02T15:40:22.685Z</time></trkpt><trkpt lat="43.3392719" lon="11.4912962"><ele>306.66666666666663</ele><time>2026-05-02T15:40:23.678Z</time></trkpt><trkpt lat="43.3391323" lon="11.4911038"><ele>306.3333333333333</ele><time>2026-05-02T15:40:24.681Z</time></trkpt><trkpt lat="43.3389821" lon="11.490916"><ele>306.0</ele><time>2026-05-02T15:40:25.673Z</time></trkpt><trkpt lat="43.3388202" lon="11.490735"><ele>305.0</ele><time>2026-05-02T15:40:26.678Z</time></trkpt><trkpt lat="43.3386526" lon="11.4905609"><ele>304.0</ele><time>2026-05-02T15:40:27.673Z</time></trkpt><trkpt lat="43.3384847" lon="11.4903885"><ele>303.0</ele><time>2026-05-02T15:40:28.677Z</time></trkpt><trkpt lat="43.3383188" lon="11.4902143"><ele>303.0</ele><time>2026-05-02T15:40:29.686Z</time></trkpt><trkpt lat="43.3381529" lon="11.490041"><ele>303.0</ele><time>2026-05-02T15:40:30.68Z</time></trkpt><trkpt lat="43.3379872" lon="11.4898658"><ele>303.0</ele><time>2026-05-02T15:40:31.676Z</time></trkpt><trkpt lat="43.3378207" lon="11.4896938"><ele>301.0</ele><time>2026-05-02T15:40:32.673Z</time></trkpt><trkpt lat="43.3376528" lon="11.48952"><ele>299.0</ele><time>2026-05-02T15:40:33.672Z</time></trkpt><trkpt lat="43.3374881" lon="11.4893452"><ele>297.0</ele><time>2026-05-02T15:40:34.68Z</time></trkpt><trkpt lat="43.3373227" lon="11.4891781"><ele>297.6666666666667</ele><time>2026-05-02T15:40:35.684Z</time></trkpt><trkpt lat="43.3371585" lon="11.4890261"><ele>298.33333333333337</ele><time>2026-05-02T15:40:36.684Z</time></trkpt><trkpt lat="43.3369934" lon="11.4889099"><ele>299.0</ele><time>2026-05-02T15:40:37.684Z</time></trkpt><trkpt lat="43.3368285" lon="11.4888051"><ele>297.0</ele><time>2026-05-02T15:40:38.682Z</time></trkpt><trkpt lat="43.3366586" lon="11.4887008"><ele>295.0</ele><time>2026-05-02T15:40:39.682Z</time></trkpt><trkpt lat="43.3365087" lon="11.4885646"><ele>293.0</ele><time>2026-05-02T15:40:40.678Z</time></trkpt><trkpt lat="43.3363918" lon="11.4883864"><ele>292.33333333333337</ele><time>2026-05-02T15:40:41.69Z</time></trkpt><trkpt lat="43.3362855" lon="11.4882041"><ele>291.6666666666667</ele><time>2026-05-02T15:40:42.666Z</time></trkpt><trkpt lat="43.3361701" lon="11.4880283"><ele>291.0</ele><time>2026-05-02T15:40:43.684Z</time></trkpt><trkpt lat="43.3360381" lon="11.4878632"><ele>291.0</ele><time>2026-05-02T15:40:44.676Z</time></trkpt><trkpt lat="43.335898" lon="11.4877069"><ele>291.0</ele><time>2026-05-02T15:40:45.682Z</time></trkpt><trkpt lat="43.3357683" lon="11.4875459"><ele>291.0</ele><time>2026-05-02T15:40:46.682Z</time></trkpt><trkpt lat="43.3356474" lon="11.4873592"><ele>292.0</ele><time>2026-05-02T15:40:47.681Z</time></trkpt><trkpt lat="43.3355346" lon="11.4871527"><ele>293.0</ele><time>2026-05-02T15:40:48.674Z</time></trkpt><trkpt lat="43.335427" lon="11.486926"><ele>294.0</ele><time>2026-05-02T15:40:49.676Z</time></trkpt><trkpt lat="43.3353306" lon="11.4866889"><ele>294.0</ele><time>2026-05-02T15:40:50.673Z</time></trkpt><trkpt lat="43.3352397" lon="11.4864591"><ele>294.0</ele><time>2026-05-02T15:40:51.672Z</time></trkpt><trkpt lat="43.3351541" lon="11.4862408"><ele>294.0</ele><time>2026-05-02T15:40:52.678Z</time></trkpt><trkpt lat="43.3350748" lon="11.4860185"><ele>291.0</ele><time>2026-05-02T15:40:53.678Z</time></trkpt><trkpt lat="43.335004" lon="11.4857868"><ele>288.0</ele><time>2026-05-02T15:40:54.667Z</time></trkpt><trkpt lat="43.3349493" lon="11.4855471"><ele>285.0</ele><time>2026-05-02T15:40:55.672Z</time></trkpt><trkpt lat="43.3349109" lon="11.4853133"><ele>283.0</ele><time>2026-05-02T15:40:56.679Z</time></trkpt><trkpt lat="43.3348815" lon="11.4850918"><ele>281.0</ele><time>2026-05-02T15:40:57.676Z</time></trkpt><trkpt lat="43.3348541" lon="11.4848787"><ele>279.0</ele><time>2026-05-02T15:40:58.68Z</time></trkpt><trkpt lat="43.3348287" lon="11.4846682"><ele>277.6666666666667</ele><time>2026-05-02T15:40:59.685Z</time></trkpt><trkpt lat="43.3348051" lon="11.4844541"><ele>276.33333333333337</ele><time>2026-05-02T15:41:00.684Z</time></trkpt><trkpt lat="43.3347825" lon="11.4842397"><ele>275.0</ele><time>2026-05-02T15:41:01.682Z</time></trkpt><trkpt lat="43.334766" lon="11.4840216"><ele>275.0</ele><time>2026-05-02T15:41:02.679Z</time></trkpt><trkpt lat="43.3347521" lon="11.4837978"><ele>275.0</ele><time>2026-05-02T15:41:03.678Z</time></trkpt><trkpt lat="43.3347337" lon="11.4835583"><ele>275.0</ele><time>2026-05-02T15:41:04.668Z</time></trkpt><trkpt lat="43.3347072" lon="11.4833106"><ele>277.0</ele><time>2026-05-02T15:41:05.673Z</time></trkpt><trkpt lat="43.3346783" lon="11.4830655"><ele>279.0</ele><time>2026-05-02T15:41:06.667Z</time></trkpt><trkpt lat="43.3346497" lon="11.4828354"><ele>281.0</ele><time>2026-05-02T15:41:07.69Z</time></trkpt><trkpt lat="43.3346152" lon="11.4826095"><ele>281.0</ele><time>2026-05-02T15:41:08.68Z</time></trkpt><trkpt lat="43.334592" lon="11.4824002"><ele>281.0</ele><time>2026-05-02T15:41:09.668Z</time></trkpt><trkpt lat="43.3345969" lon="11.4822101"><ele>281.0</ele><time>2026-05-02T15:41:10.688Z</time></trkpt><trkpt lat="43.3346408" lon="11.4820241"><ele>281.0</ele><time>2026-05-02T15:41:11.683Z</time></trkpt><trkpt lat="43.334706" lon="11.4818367"><ele>278.0</ele><time>2026-05-02T15:41:12.665Z</time></trkpt><trkpt lat="43.3347977" lon="11.4816603"><ele>275.0</ele><time>2026-05-02T15:41:13.664Z</time></trkpt><trkpt lat="43.3349043" lon="11.4814875"><ele>272.0</ele><time>2026-05-02T15:41:14.671Z</time></trkpt><trkpt lat="43.3350037" lon="11.4813052"><ele>273.75</ele><time>2026-05-02T15:41:15.676Z</time></trkpt><trkpt lat="43.335099" lon="11.4811311"><ele>275.5</ele><time>2026-05-02T15:41:16.675Z</time></trkpt><trkpt lat="43.3351912" lon="11.4809781"><ele>277.25</ele><time>2026-05-02T15:41:17.679Z</time></trkpt><trkpt lat="43.3352746" lon="11.4808411"><ele>279.0</ele><time>2026-05-02T15:41:18.677Z</time></trkpt><trkpt lat="43.3353513" lon="11.4807023"><ele>279.0</ele><time>2026-05-02T15:41:19.678Z</time></trkpt><trkpt lat="43.3354106" lon="11.4805566"><ele>279.0</ele><time>2026-05-02T15:41:20.676Z</time></trkpt><trkpt lat="43.3354529" lon="11.4803976"><ele>279.0</ele><time>2026-05-02T15:41:21.665Z</time></trkpt><trkpt lat="43.3354913" lon="11.4802209"><ele>279.0</ele><time>2026-05-02T15:41:22.684Z</time></trkpt><trkpt lat="43.3355219" lon="11.4800459"><ele>279.25</ele><time>2026-05-02T15:41:23.694Z</time></trkpt><trkpt lat="43.3355563" lon="11.4798766"><ele>279.5</ele><time>2026-05-02T15:41:24.676Z</time></trkpt><trkpt lat="43.3355966" lon="11.4797175"><ele>279.75</ele><time>2026-05-02T15:41:25.689Z</time></trkpt><trkpt lat="43.3356448" lon="11.4795738"><ele>280.0</ele><time>2026-05-02T15:41:26.679Z</time></trkpt><trkpt lat="43.3356912" lon="11.4794437"><ele>279.5</ele><time>2026-05-02T15:41:27.675Z</time></trkpt><trkpt lat="43.3357424" lon="11.4793194"><ele>279.0</ele><time>2026-05-02T15:41:28.677Z</time></trkpt><trkpt lat="43.3357871" lon="11.4791819"><ele>278.5</ele><time>2026-05-02T15:41:29.675Z</time></trkpt><trkpt lat="43.3358311" lon="11.4790339"><ele>278.0</ele><time>2026-05-02T15:41:30.685Z</time></trkpt><trkpt lat="43.3358749" lon="11.4788747"><ele>277.0</ele><time>2026-05-02T15:41:31.682Z</time></trkpt><trkpt lat="43.3359173" lon="11.4787219"><ele>276.0</ele><time>2026-05-02T15:41:32.674Z</time></trkpt><trkpt lat="43.3359608" lon="11.4785638"><ele>275.0</ele><time>2026-05-02T15:41:33.684Z</time></trkpt><trkpt lat="43.3360049" lon="11.4784004"><ele>274.0</ele><time>2026-05-02T15:41:34.667Z</time></trkpt><trkpt lat="43.3360408" lon="11.478251"><ele>274.0</ele><time>2026-05-02T15:41:35.677Z</time></trkpt><trkpt lat="43.3360583" lon="11.4781113"><ele>274.0</ele><time>2026-05-02T15:41:36.69Z</time></trkpt><trkpt lat="43.3360479" lon="11.477977"><ele>274.0</ele><time>2026-05-02T15:41:37.685Z</time></trkpt><trkpt lat="43.3360343" lon="11.4778584"><ele>274.0</ele><time>2026-05-02T15:41:38.687Z</time></trkpt><trkpt lat="43.3360073" lon="11.4777415"><ele>274.0</ele><time>2026-05-02T15:41:39.68Z</time></trkpt><trkpt lat="43.3359738" lon="11.4776164"><ele>274.0</ele><time>2026-05-02T15:41:40.679Z</time></trkpt><trkpt lat="43.3359416" lon="11.4774928"><ele>274.0</ele><time>2026-05-02T15:41:41.684Z</time></trkpt><trkpt lat="43.3359046" lon="11.4773582"><ele>274.0</ele><time>2026-05-02T15:41:42.673Z</time></trkpt><trkpt lat="43.3358649" lon="11.4772223"><ele>274.0</ele><time>2026-05-02T15:41:43.691Z</time></trkpt><trkpt lat="43.3358197" lon="11.4770781"><ele>274.0</ele><time>2026-05-02T15:41:44.677Z</time></trkpt><trkpt lat="43.3357723" lon="11.4769275"><ele>273.59999999999997</ele><time>2026-05-02T15:41:45.678Z</time></trkpt><trkpt lat="43.3357256" lon="11.4767774"><ele>273.2</ele><time>2026-05-02T15:41:46.675Z</time></trkpt><trkpt lat="43.3356771" lon="11.4766338"><ele>272.79999999999995</ele><time>2026-05-02T15:41:47.678Z</time></trkpt><trkpt lat="43.3356288" lon="11.4765083"><ele>272.4</ele><time>2026-05-02T15:41:48.683Z</time></trkpt><trkpt lat="43.3355861" lon="11.4763994"><ele>272.0</ele><time>2026-05-02T15:41:49.681Z</time></trkpt><trkpt lat="43.3355405" lon="11.4762937"><ele>272.6</ele><time>2026-05-02T15:41:50.686Z</time></trkpt><trkpt lat="43.3354832" lon="11.4761802"><ele>273.2</ele><time>2026-05-02T15:41:51.683Z</time></trkpt><trkpt lat="43.3354267" lon="11.4760565"><ele>273.8</ele><time>2026-05-02T15:41:52.675Z</time></trkpt><trkpt lat="43.3353702" lon="11.4759312"><ele>274.4</ele><time>2026-05-02T15:41:53.676Z</time></trkpt><trkpt lat="43.3353208" lon="11.4758095"><ele>275.0</ele><time>2026-05-02T15:41:54.675Z</time></trkpt><trkpt lat="43.3352699" lon="11.4756805"><ele>275.0</ele><time>2026-05-02T15:41:55.68Z</time></trkpt><trkpt lat="43.335213" lon="11.4755337"><ele>275.0</ele><time>2026-05-02T15:41:56.677Z</time></trkpt><trkpt lat="43.3351505" lon="11.4753802"><ele>275.0</ele><time>2026-05-02T15:41:57.683Z</time></trkpt><trkpt lat="43.3350885" lon="11.4752108"><ele>275.0</ele><time>2026-05-02T15:41:58.673Z</time></trkpt><trkpt lat="43.3350378" lon="11.475007"><ele>274.33333333333337</ele><time>2026-05-02T15:41:59.682Z</time></trkpt><trkpt lat="43.3350009" lon="11.4747819"><ele>273.6666666666667</ele><time>2026-05-02T15:42:00.663Z</time></trkpt><trkpt lat="43.3349722" lon="11.4745426"><ele>273.0</ele><time>2026-05-02T15:42:01.679Z</time></trkpt><trkpt lat="43.3349499" lon="11.4742964"><ele>272.6666666666667</ele><time>2026-05-02T15:42:02.692Z</time></trkpt><trkpt lat="43.3349286" lon="11.4740424"><ele>272.33333333333337</ele><time>2026-05-02T15:42:03.673Z</time></trkpt><trkpt lat="43.3349054" lon="11.4737916"><ele>272.0</ele><time>2026-05-02T15:42:04.674Z</time></trkpt><trkpt lat="43.3348811" lon="11.473557"><ele>271.75</ele><time>2026-05-02T15:42:05.684Z</time></trkpt><trkpt lat="43.3348657" lon="11.4733417"><ele>271.5</ele><time>2026-05-02T15:42:06.674Z</time></trkpt><trkpt lat="43.3348668" lon="11.4731321"><ele>271.25</ele><time>2026-05-02T15:42:07.685Z</time></trkpt><trkpt lat="43.334883" lon="11.4729436"><ele>271.0</ele><time>2026-05-02T15:42:08.679Z</time></trkpt><trkpt lat="43.3349107" lon="11.4727943"><ele>271.0</ele><time>2026-05-02T15:42:09.673Z</time></trkpt><trkpt lat="43.3349408" lon="11.4726865"><ele>271.0</ele><time>2026-05-02T15:42:10.679Z</time></trkpt><trkpt lat="43.3349714" lon="11.4725608"><ele>271.0</ele><time>2026-05-02T15:42:12.689Z</time></trkpt><trkpt lat="43.3350154" lon="11.4724879"><ele>271.0</ele><time>2026-05-02T15:42:15.69Z</time></trkpt><trkpt lat="43.3350101" lon="11.472379"><ele>271.0</ele><time>2026-05-02T15:56:13.673Z</time></trkpt><trkpt lat="43.3350217" lon="11.4722655"><ele>271.0</ele><time>2026-05-02T15:56:15.662Z</time></trkpt><trkpt lat="43.3350626" lon="11.4721814"><ele>270.2</ele><time>2026-05-02T15:56:16.674Z</time></trkpt><trkpt lat="43.3350998" lon="11.4720816"><ele>269.40000000000003</ele><time>2026-05-02T15:56:17.682Z</time></trkpt><trkpt lat="43.3351427" lon="11.471959"><ele>268.6</ele><time>2026-05-02T15:56:18.672Z</time></trkpt><trkpt lat="43.335189" lon="11.4718208"><ele>267.8</ele><time>2026-05-02T15:56:19.67Z</time></trkpt><trkpt lat="43.3352372" lon="11.4716748"><ele>267.0</ele><time>2026-05-02T15:56:20.673Z</time></trkpt><trkpt lat="43.335292" lon="11.4715407"><ele>267.0</ele><time>2026-05-02T15:56:21.663Z</time></trkpt><trkpt lat="43.3353569" lon="11.4714093"><ele>267.0</ele><time>2026-05-02T15:56:22.679Z</time></trkpt><trkpt lat="43.33542" lon="11.4712735"><ele>267.0</ele><time>2026-05-02T15:56:23.682Z</time></trkpt><trkpt lat="43.3354886" lon="11.4711268"><ele>267.0</ele><time>2026-05-02T15:56:24.678Z</time></trkpt><trkpt lat="43.3355547" lon="11.4709704"><ele>265.75</ele><time>2026-05-02T15:56:25.674Z</time></trkpt><trkpt lat="43.335623" lon="11.470817"><ele>264.5</ele><time>2026-05-02T15:56:26.676Z</time></trkpt><trkpt lat="43.3356827" lon="11.4706653"><ele>263.25</ele><time>2026-05-02T15:56:27.66Z</time></trkpt><trkpt lat="43.3357286" lon="11.4705165"><ele>262.0</ele><time>2026-05-02T15:56:28.664Z</time></trkpt><trkpt lat="43.335765" lon="11.4703679"><ele>261.0</ele><time>2026-05-02T15:56:29.657Z</time></trkpt><trkpt lat="43.3357841" lon="11.4702206"><ele>260.0</ele><time>2026-05-02T15:56:30.676Z</time></trkpt><trkpt lat="43.3357893" lon="11.4700636"><ele>259.0</ele><time>2026-05-02T15:56:31.673Z</time></trkpt><trkpt lat="43.3357674" lon="11.4698925"><ele>258.0</ele><time>2026-05-02T15:56:32.677Z</time></trkpt><trkpt lat="43.3357301" lon="11.469715"><ele>258.0</ele><time>2026-05-02T15:56:33.672Z</time></trkpt><trkpt lat="43.3356825" lon="11.4695371"><ele>258.0</ele><time>2026-05-02T15:56:34.663Z</time></trkpt><trkpt lat="43.3356211" lon="11.4693459"><ele>258.0</ele><time>2026-05-02T15:56:35.665Z</time></trkpt><trkpt lat="43.3355578" lon="11.4691649"><ele>258.0</ele><time>2026-05-02T15:56:36.673Z</time></trkpt><trkpt lat="43.3354838" lon="11.4690088"><ele>257.5</ele><time>2026-05-02T15:56:37.668Z</time></trkpt><trkpt lat="43.3353993" lon="11.4688595"><ele>257.0</ele><time>2026-05-02T15:56:38.662Z</time></trkpt><trkpt lat="43.335307" lon="11.4687182"><ele>256.5</ele><time>2026-05-02T15:56:39.669Z</time></trkpt><trkpt lat="43.3352115" lon="11.4685823"><ele>256.0</ele><time>2026-05-02T15:56:40.669Z</time></trkpt><trkpt lat="43.3351163" lon="11.4684352"><ele>256.0</ele><time>2026-05-02T15:56:41.676Z</time></trkpt><trkpt lat="43.3350269" lon="11.4682709"><ele>256.0</ele><time>2026-05-02T15:56:42.669Z</time></trkpt><trkpt lat="43.3349497" lon="11.4680965"><ele>256.0</ele><time>2026-05-02T15:56:43.668Z</time></trkpt><trkpt lat="43.3348837" lon="11.4679307"><ele>256.0</ele><time>2026-05-02T15:56:44.666Z</time></trkpt><trkpt lat="43.3348362" lon="11.4677666"><ele>256.25</ele><time>2026-05-02T15:56:45.671Z</time></trkpt><trkpt lat="43.3348022" lon="11.4676087"><ele>256.5</ele><time>2026-05-02T15:56:46.671Z</time></trkpt><trkpt lat="43.3347823" lon="11.4674561"><ele>256.75</ele><time>2026-05-02T15:56:47.665Z</time></trkpt><trkpt lat="43.334764" lon="11.4673044"><ele>257.0</ele><time>2026-05-02T15:56:48.673Z</time></trkpt><trkpt lat="43.3347528" lon="11.4671453"><ele>255.0</ele><time>2026-05-02T15:56:49.667Z</time></trkpt><trkpt lat="43.3347426" lon="11.4669765"><ele>253.0</ele><time>2026-05-02T15:56:50.669Z</time></trkpt><trkpt lat="43.3347303" lon="11.4667901"><ele>251.0</ele><time>2026-05-02T15:56:51.667Z</time></trkpt><trkpt lat="43.3347277" lon="11.4666003"><ele>249.0</ele><time>2026-05-02T15:56:52.681Z</time></trkpt><trkpt lat="43.3347461" lon="11.4664067"><ele>248.25</ele><time>2026-05-02T15:56:53.682Z</time></trkpt><trkpt lat="43.3347807" lon="11.4662206"><ele>247.5</ele><time>2026-05-02T15:56:54.675Z</time></trkpt><trkpt lat="43.3348256" lon="11.4660388"><ele>246.75</ele><time>2026-05-02T15:56:55.684Z</time></trkpt><trkpt lat="43.3348775" lon="11.4658649"><ele>246.0</ele><time>2026-05-02T15:56:56.677Z</time></trkpt><trkpt lat="43.3349278" lon="11.4656994"><ele>246.0</ele><time>2026-05-02T15:56:57.677Z</time></trkpt><trkpt lat="43.3349758" lon="11.4655362"><ele>246.0</ele><time>2026-05-02T15:56:58.675Z</time></trkpt><trkpt lat="43.3350193" lon="11.4653659"><ele>246.0</ele><time>2026-05-02T15:56:59.671Z</time></trkpt><trkpt lat="43.3350675" lon="11.4651905"><ele>246.0</ele><time>2026-05-02T15:57:00.684Z</time></trkpt><trkpt lat="43.3351117" lon="11.4650107"><ele>245.75</ele><time>2026-05-02T15:57:01.67Z</time></trkpt><trkpt lat="43.3351531" lon="11.4648284"><ele>245.5</ele><time>2026-05-02T15:57:02.666Z</time></trkpt><trkpt lat="43.3351985" lon="11.464641"><ele>245.25</ele><time>2026-05-02T15:57:03.666Z</time></trkpt><trkpt lat="43.3352488" lon="11.4644463"><ele>245.0</ele><time>2026-05-02T15:57:04.671Z</time></trkpt><trkpt lat="43.3353028" lon="11.4642307"><ele>243.66666666666669</ele><time>2026-05-02T15:57:05.672Z</time></trkpt><trkpt lat="43.3353634" lon="11.4639921"><ele>242.33333333333331</ele><time>2026-05-02T15:57:06.678Z</time></trkpt><trkpt lat="43.3354307" lon="11.4637459"><ele>241.0</ele><time>2026-05-02T15:57:07.672Z</time></trkpt><trkpt lat="43.335505" lon="11.4635012"><ele>239.33333333333331</ele><time>2026-05-02T15:57:08.672Z</time></trkpt><trkpt lat="43.3355937" lon="11.4632769"><ele>237.66666666666669</ele><time>2026-05-02T15:57:09.673Z</time></trkpt><trkpt lat="43.3356898" lon="11.4630527"><ele>236.0</ele><time>2026-05-02T15:57:10.682Z</time></trkpt><trkpt lat="43.3357704" lon="11.4628269"><ele>239.66666666666669</ele><time>2026-05-02T15:57:11.668Z</time></trkpt><trkpt lat="43.3358374" lon="11.4625931"><ele>243.33333333333331</ele><time>2026-05-02T15:57:12.675Z</time></trkpt><trkpt lat="43.3358836" lon="11.4623706"><ele>247.0</ele><time>2026-05-02T15:57:13.672Z</time></trkpt><trkpt lat="43.3359075" lon="11.4621743"><ele>247.5</ele><time>2026-05-02T15:57:14.678Z</time></trkpt><trkpt lat="43.3359174" lon="11.4619875"><ele>248.0</ele><time>2026-05-02T15:57:15.665Z</time></trkpt><trkpt lat="43.335927" lon="11.4617796"><ele>248.5</ele><time>2026-05-02T15:57:16.666Z</time></trkpt><trkpt lat="43.3359404" lon="11.4615733"><ele>249.0</ele><time>2026-05-02T15:57:17.688Z</time></trkpt><trkpt lat="43.3359515" lon="11.4613565"><ele>247.66666666666669</ele><time>2026-05-02T15:57:18.669Z</time></trkpt><trkpt lat="43.3359608" lon="11.4611496"><ele>246.33333333333334</ele><time>2026-05-02T15:57:19.673Z</time></trkpt><trkpt lat="43.3359733" lon="11.4609412"><ele>245.0</ele><time>2026-05-02T15:57:20.668Z</time></trkpt><trkpt lat="43.3359919" lon="11.4607321"><ele>245.0</ele><time>2026-05-02T15:57:21.667Z</time></trkpt><trkpt lat="43.3360161" lon="11.4605247"><ele>245.0</ele><time>2026-05-02T15:57:22.658Z</time></trkpt><trkpt lat="43.3360415" lon="11.4603482"><ele>245.0</ele><time>2026-05-02T15:57:23.663Z</time></trkpt><trkpt lat="43.3360693" lon="11.4602078"><ele>245.0</ele><time>2026-05-02T15:57:24.675Z</time></trkpt><trkpt lat="43.3360869" lon="11.4600811"><ele>244.57142857142856</ele><time>2026-05-02T15:57:25.684Z</time></trkpt><trkpt lat="43.3360934" lon="11.4599616"><ele>244.14285714285714</ele><time>2026-05-02T15:57:26.672Z</time></trkpt><trkpt lat="43.3360979" lon="11.4598478"><ele>243.71428571428572</ele><time>2026-05-02T15:57:27.682Z</time></trkpt><trkpt lat="43.336095" lon="11.4597397"><ele>243.28571428571428</ele><time>2026-05-02T15:57:28.668Z</time></trkpt><trkpt lat="43.3361015" lon="11.4596501"><ele>242.85714285714283</ele><time>2026-05-02T15:57:29.675Z</time></trkpt><trkpt lat="43.3361012" lon="11.4595606"><ele>242.42857142857142</ele><time>2026-05-02T15:57:30.663Z</time></trkpt><trkpt lat="43.3360938" lon="11.4594746"><ele>242.0</ele><time>2026-05-02T15:57:31.68Z</time></trkpt><trkpt lat="43.3360753" lon="11.4593441"><ele>242.00000000000003</ele><time>2026-05-02T15:57:33.664Z</time></trkpt><trkpt lat="43.3360595" lon="11.4592509"><ele>242.0</ele><time>2026-05-02T15:57:35.67Z</time></trkpt><trkpt lat="43.3360393" lon="11.4591479"><ele>242.0</ele><time>2026-05-02T15:57:38.685Z</time></trkpt><trkpt lat="43.3360293" lon="11.4589932"><ele>242.0</ele><time>2026-05-02T15:57:41.672Z</time></trkpt><trkpt lat="43.3360265" lon="11.4588924"><ele>242.00000000000003</ele><time>2026-05-02T15:57:42.669Z</time></trkpt><trkpt lat="43.3360332" lon="11.4587696"><ele>242.0</ele><time>2026-05-02T15:57:43.679Z</time></trkpt><trkpt lat="43.3360494" lon="11.4586744"><ele>242.0</ele><time>2026-05-02T15:57:44.682Z</time></trkpt><trkpt lat="43.3361076" lon="11.4585785"><ele>242.0</ele><time>2026-05-02T15:57:46.677Z</time></trkpt><trkpt lat="43.3360536" lon="11.4586422"><ele>242.0</ele><time>2026-05-02T15:57:56.665Z</time></trkpt><trkpt lat="43.3360172" lon="11.4587773"><ele>242.0</ele><time>2026-05-02T15:57:58.67Z</time></trkpt><trkpt lat="43.3360055" lon="11.4589221"><ele>242.0</ele><time>2026-05-02T15:58:00.673Z</time></trkpt><trkpt lat="43.3359812" lon="11.4590404"><ele>242.0</ele><time>2026-05-02T15:58:02.672Z</time></trkpt><trkpt lat="43.3359281" lon="11.4590954"><ele>241.99999999999997</ele><time>2026-05-02T15:58:05.668Z</time></trkpt><trkpt lat="43.335867" lon="11.4590616"><ele>242.0</ele><time>2026-05-02T15:58:10.67Z</time></trkpt><trkpt lat="43.3358299" lon="11.4589819"><ele>242.0</ele><time>2026-05-02T15:58:14.682Z</time></trkpt><trkpt lat="43.3357753" lon="11.4590303"><ele>241.99999999999997</ele><time>2026-05-02T15:58:18.661Z</time></trkpt><trkpt lat="43.3358152" lon="11.4591009"><ele>242.0</ele><time>2026-05-02T15:58:21.67Z</time></trkpt><trkpt lat="43.3358686" lon="11.4590297"><ele>242.0</ele><time>2026-05-02T15:58:25.683Z</time></trkpt><trkpt lat="43.3358223" lon="11.4589674"><ele>242.0</ele><time>2026-05-02T15:58:28.668Z</time></trkpt><trkpt lat="43.3357841" lon="11.4590576"><ele>241.99999999999997</ele><time>2026-05-02T15:58:32.667Z</time></trkpt><trkpt lat="43.3358626" lon="11.459071"><ele>242.0</ele><time>2026-05-02T15:58:36.685Z</time></trkpt><trkpt lat="43.3358492" lon="11.4589806"><ele>242.0</ele><time>2026-05-02T15:58:40.679Z</time></trkpt><trkpt lat="43.3357923" lon="11.4590404"><ele>241.99999999999997</ele><time>2026-05-02T15:58:45.668Z</time></trkpt><trkpt lat="43.3358607" lon="11.4590471"><ele>242.0</ele><time>2026-05-02T15:59:21.674Z</time></trkpt><trkpt lat="43.3359382" lon="11.459082"><ele>242.0</ele><time>2026-05-02T15:59:25.668Z</time></trkpt><trkpt lat="43.3360107" lon="11.4590914"><ele>242.0</ele><time>2026-05-02T15:59:29.668Z</time></trkpt><trkpt lat="43.3359959" lon="11.4589803"><ele>242.0</ele><time>2026-05-02T15:59:32.667Z</time></trkpt><trkpt lat="43.3360025" lon="11.4588037"><ele>242.0</ele><time>2026-05-02T15:59:34.67Z</time></trkpt><trkpt lat="43.336027" lon="11.4587137"><ele>242.0</ele><time>2026-05-02T15:59:35.677Z</time></trkpt><trkpt lat="43.3360721" lon="11.4586039"><ele>242.0</ele><time>2026-05-02T15:59:36.677Z</time></trkpt><trkpt lat="43.3361291" lon="11.4584687"><ele>242.0</ele><time>2026-05-02T15:59:37.673Z</time></trkpt><trkpt lat="43.3361747" lon="11.4583344"><ele>242.0</ele><time>2026-05-02T15:59:38.669Z</time></trkpt><trkpt lat="43.3361953" lon="11.4581761"><ele>242.0</ele><time>2026-05-02T15:59:39.678Z</time></trkpt><trkpt lat="43.33622" lon="11.4580138"><ele>242.0</ele><time>2026-05-02T15:59:40.679Z</time></trkpt><trkpt lat="43.3362464" lon="11.4578581"><ele>242.0</ele><time>2026-05-02T15:59:41.668Z</time></trkpt><trkpt lat="43.336277" lon="11.4576842"><ele>242.0</ele><time>2026-05-02T15:59:42.676Z</time></trkpt><trkpt lat="43.3363133" lon="11.4575172"><ele>242.0</ele><time>2026-05-02T15:59:43.671Z</time></trkpt><trkpt lat="43.3363511" lon="11.4573487"><ele>242.0</ele><time>2026-05-02T15:59:44.671Z</time></trkpt><trkpt lat="43.3363659" lon="11.4571764"><ele>240.5</ele><time>2026-05-02T15:59:45.677Z</time></trkpt><trkpt lat="43.336368" lon="11.4570042"><ele>239.0</ele><time>2026-05-02T15:59:46.672Z</time></trkpt><trkpt lat="43.3363485" lon="11.4568293"><ele>237.5</ele><time>2026-05-02T15:59:47.678Z</time></trkpt><trkpt lat="43.3363288" lon="11.4566676"><ele>236.0</ele><time>2026-05-02T15:59:48.673Z</time></trkpt><trkpt lat="43.3363168" lon="11.4565128"><ele>236.0</ele><time>2026-05-02T15:59:49.673Z</time></trkpt><trkpt lat="43.3363166" lon="11.4563651"><ele>236.0</ele><time>2026-05-02T15:59:50.668Z</time></trkpt><trkpt lat="43.3363356" lon="11.4562135"><ele>236.0</ele><time>2026-05-02T15:59:51.67Z</time></trkpt><trkpt lat="43.3363633" lon="11.4560598"><ele>236.0</ele><time>2026-05-02T15:59:52.66Z</time></trkpt><trkpt lat="43.336413" lon="11.455901"><ele>235.25</ele><time>2026-05-02T15:59:53.684Z</time></trkpt><trkpt lat="43.3364684" lon="11.455729"><ele>234.5</ele><time>2026-05-02T15:59:54.671Z</time></trkpt><trkpt lat="43.3365331" lon="11.4555497"><ele>233.75</ele><time>2026-05-02T15:59:55.684Z</time></trkpt><trkpt lat="43.3365995" lon="11.4553674"><ele>233.0</ele><time>2026-05-02T15:59:56.67Z</time></trkpt><trkpt lat="43.3366555" lon="11.4551977"><ele>232.5</ele><time>2026-05-02T15:59:57.674Z</time></trkpt><trkpt lat="43.3367046" lon="11.4550494"><ele>232.0</ele><time>2026-05-02T15:59:58.666Z</time></trkpt><trkpt lat="43.336754" lon="11.454909"><ele>231.5</ele><time>2026-05-02T15:59:59.672Z</time></trkpt><trkpt lat="43.3367927" lon="11.4547619"><ele>231.0</ele><time>2026-05-02T16:00:00.676Z</time></trkpt><trkpt lat="43.3368171" lon="11.4545963"><ele>230.75</ele><time>2026-05-02T16:00:01.681Z</time></trkpt><trkpt lat="43.3368279" lon="11.4544137"><ele>230.5</ele><time>2026-05-02T16:00:02.667Z</time></trkpt><trkpt lat="43.336833" lon="11.4542337"><ele>230.25</ele><time>2026-05-02T16:00:03.669Z</time></trkpt><trkpt lat="43.3368482" lon="11.4540591"><ele>230.0</ele><time>2026-05-02T16:00:04.665Z</time></trkpt><trkpt lat="43.3368588" lon="11.4538951"><ele>230.25</ele><time>2026-05-02T16:00:05.671Z</time></trkpt><trkpt lat="43.3368627" lon="11.4537204"><ele>230.5</ele><time>2026-05-02T16:00:06.666Z</time></trkpt><trkpt lat="43.3368558" lon="11.4535438"><ele>230.75</ele><time>2026-05-02T16:00:07.675Z</time></trkpt><trkpt lat="43.3368269" lon="11.4533846"><ele>231.0</ele><time>2026-05-02T16:00:08.665Z</time></trkpt><trkpt lat="43.3367835" lon="11.4532329"><ele>231.0</ele><time>2026-05-02T16:00:09.664Z</time></trkpt><trkpt lat="43.3367287" lon="11.4530732"><ele>231.0</ele><time>2026-05-02T16:00:10.666Z</time></trkpt><trkpt lat="43.336666" lon="11.4529015"><ele>231.0</ele><time>2026-05-02T16:00:11.659Z</time></trkpt><trkpt lat="43.3365985" lon="11.4527258"><ele>231.0</ele><time>2026-05-02T16:00:12.68Z</time></trkpt><trkpt lat="43.3365297" lon="11.4525417"><ele>230.33333333333331</ele><time>2026-05-02T16:00:13.674Z</time></trkpt><trkpt lat="43.3364521" lon="11.4523467"><ele>229.66666666666666</ele><time>2026-05-02T16:00:14.671Z</time></trkpt><trkpt lat="43.3363757" lon="11.4521406"><ele>229.0</ele><time>2026-05-02T16:00:15.672Z</time></trkpt><trkpt lat="43.3362996" lon="11.4519294"><ele>226.33333333333331</ele><time>2026-05-02T16:00:16.671Z</time></trkpt><trkpt lat="43.3362213" lon="11.4517252"><ele>223.66666666666669</ele><time>2026-05-02T16:00:17.661Z</time></trkpt><trkpt lat="43.3361458" lon="11.4515331"><ele>221.0</ele><time>2026-05-02T16:00:18.666Z</time></trkpt><trkpt lat="43.3360568" lon="11.451367"><ele>220.75</ele><time>2026-05-02T16:00:19.661Z</time></trkpt><trkpt lat="43.3359499" lon="11.4512443"><ele>220.5</ele><time>2026-05-02T16:00:20.664Z</time></trkpt><trkpt lat="43.3358312" lon="11.4511517"><ele>220.25</ele><time>2026-05-02T16:00:21.661Z</time></trkpt><trkpt lat="43.3357097" lon="11.4510757"><ele>220.0</ele><time>2026-05-02T16:00:22.676Z</time></trkpt><trkpt lat="43.335598" lon="11.4509952"><ele>218.2</ele><time>2026-05-02T16:00:23.669Z</time></trkpt><trkpt lat="43.335503" lon="11.4509007"><ele>216.4</ele><time>2026-05-02T16:00:24.672Z</time></trkpt><trkpt lat="43.3354534" lon="11.4507977"><ele>214.60000000000002</ele><time>2026-05-02T16:00:25.663Z</time></trkpt><trkpt lat="43.3354376" lon="11.4506848"><ele>212.8</ele><time>2026-05-02T16:00:26.676Z</time></trkpt><trkpt lat="43.3354723" lon="11.4505735"><ele>211.0</ele><time>2026-05-02T16:00:27.665Z</time></trkpt><trkpt lat="43.3355357" lon="11.4504583"><ele>211.25</ele><time>2026-05-02T16:00:28.666Z</time></trkpt><trkpt lat="43.3356317" lon="11.4503232"><ele>211.5</ele><time>2026-05-02T16:00:29.666Z</time></trkpt><trkpt lat="43.3357265" lon="11.450178"><ele>211.75</ele><time>2026-05-02T16:00:30.674Z</time></trkpt><trkpt lat="43.3358222" lon="11.4500445"><ele>212.0</ele><time>2026-05-02T16:00:31.655Z</time></trkpt><trkpt lat="43.3359235" lon="11.4499539"><ele>212.0</ele><time>2026-05-02T16:00:32.672Z</time></trkpt><trkpt lat="43.3360422" lon="11.4499209"><ele>212.0</ele><time>2026-05-02T16:00:33.666Z</time></trkpt><trkpt lat="43.336148" lon="11.4499263"><ele>212.0</ele><time>2026-05-02T16:00:34.673Z</time></trkpt><trkpt lat="43.3362526" lon="11.4499342"><ele>212.0</ele><time>2026-05-02T16:00:35.676Z</time></trkpt><trkpt lat="43.336328" lon="11.4498807"><ele>212.0</ele><time>2026-05-02T16:00:36.667Z</time></trkpt><trkpt lat="43.3363874" lon="11.4497983"><ele>211.66666666666669</ele><time>2026-05-02T16:00:37.687Z</time></trkpt><trkpt lat="43.3364195" lon="11.4497105"><ele>211.33333333333334</ele><time>2026-05-02T16:00:38.664Z</time></trkpt><trkpt lat="43.3364331" lon="11.4495892"><ele>211.0</ele><time>2026-05-02T16:00:39.676Z</time></trkpt><trkpt lat="43.3364491" lon="11.4494647"><ele>210.66666666666669</ele><time>2026-05-02T16:00:40.671Z</time></trkpt><trkpt lat="43.3364684" lon="11.4493389"><ele>210.33333333333334</ele><time>2026-05-02T16:00:41.668Z</time></trkpt><trkpt lat="43.3364772" lon="11.4492354"><ele>210.0</ele><time>2026-05-02T16:00:42.671Z</time></trkpt><trkpt lat="43.3364804" lon="11.4491368"><ele>210.0</ele><time>2026-05-02T16:00:43.677Z</time></trkpt><trkpt lat="43.3364803" lon="11.4489741"><ele>210.0</ele><time>2026-05-02T16:00:45.673Z</time></trkpt><trkpt lat="43.3364475" lon="11.4488078"><ele>210.0</ele><time>2026-05-02T16:00:47.678Z</time></trkpt><trkpt lat="43.3364176" lon="11.4487214"><ele>210.0</ele><time>2026-05-02T16:00:48.669Z</time></trkpt><trkpt lat="43.3363829" lon="11.4486252"><ele>210.0</ele><time>2026-05-02T16:00:49.665Z</time></trkpt><trkpt lat="43.3363366" lon="11.4485177"><ele>209.5</ele><time>2026-05-02T16:00:50.678Z</time></trkpt><trkpt lat="43.3362852" lon="11.4484087"><ele>209.0</ele><time>2026-05-02T16:00:51.678Z</time></trkpt><trkpt lat="43.3362278" lon="11.448295"><ele>208.5</ele><time>2026-05-02T16:00:52.667Z</time></trkpt><trkpt lat="43.336175" lon="11.4481877"><ele>208.0</ele><time>2026-05-02T16:00:53.67Z</time></trkpt><trkpt lat="43.3361396" lon="11.4480899"><ele>207.5</ele><time>2026-05-02T16:00:54.676Z</time></trkpt><trkpt lat="43.3361345" lon="11.4479842"><ele>207.0</ele><time>2026-05-02T16:00:55.67Z</time></trkpt><trkpt lat="43.3361534" lon="11.4478741"><ele>207.0</ele><time>2026-05-02T16:00:56.673Z</time></trkpt><trkpt lat="43.3361938" lon="11.4477817"><ele>207.0</ele><time>2026-05-02T16:00:57.664Z</time></trkpt><trkpt lat="43.3362377" lon="11.4476914"><ele>207.0</ele><time>2026-05-02T16:00:58.661Z</time></trkpt><trkpt lat="43.3362839" lon="11.4475925"><ele>207.0</ele><time>2026-05-02T16:00:59.663Z</time></trkpt><trkpt lat="43.3363389" lon="11.4474803"><ele>207.0</ele><time>2026-05-02T16:01:00.688Z</time></trkpt><trkpt lat="43.3363948" lon="11.4473657"><ele>207.0</ele><time>2026-05-02T16:01:01.67Z</time></trkpt><trkpt lat="43.3364405" lon="11.4472306"><ele>207.39999999999998</ele><time>2026-05-02T16:01:02.672Z</time></trkpt><trkpt lat="43.3364764" lon="11.4470843"><ele>207.79999999999998</ele><time>2026-05-02T16:01:03.668Z</time></trkpt><trkpt lat="43.3364821" lon="11.4469411"><ele>208.2</ele><time>2026-05-02T16:01:04.667Z</time></trkpt><trkpt lat="43.3364714" lon="11.4467943"><ele>208.6</ele><time>2026-05-02T16:01:05.672Z</time></trkpt><trkpt lat="43.3364451" lon="11.4466409"><ele>209.0</ele><time>2026-05-02T16:01:06.663Z</time></trkpt><trkpt lat="43.3364052" lon="11.4464799"><ele>208.75</ele><time>2026-05-02T16:01:07.674Z</time></trkpt><trkpt lat="43.3363636" lon="11.4463086"><ele>208.5</ele><time>2026-05-02T16:01:08.669Z</time></trkpt><trkpt lat="43.3363174" lon="11.4461256"><ele>208.25</ele><time>2026-05-02T16:01:09.666Z</time></trkpt><trkpt lat="43.3362729" lon="11.4459357"><ele>208.0</ele><time>2026-05-02T16:01:10.658Z</time></trkpt><trkpt lat="43.3362349" lon="11.4457516"><ele>209.5</ele><time>2026-05-02T16:01:11.674Z</time></trkpt><trkpt lat="43.3361872" lon="11.4455753"><ele>211.0</ele><time>2026-05-02T16:01:12.676Z</time></trkpt><trkpt lat="43.3361244" lon="11.4454138"><ele>212.5</ele><time>2026-05-02T16:01:13.7Z</time></trkpt><trkpt lat="43.3360556" lon="11.4452612"><ele>214.0</ele><time>2026-05-02T16:01:14.662Z</time></trkpt><trkpt lat="43.3359824" lon="11.4451157"><ele>215.75</ele><time>2026-05-02T16:01:15.665Z</time></trkpt><trkpt lat="43.3359078" lon="11.4449676"><ele>217.5</ele><time>2026-05-02T16:01:16.675Z</time></trkpt><trkpt lat="43.3358328" lon="11.4448137"><ele>219.25</ele><time>2026-05-02T16:01:17.669Z</time></trkpt><trkpt lat="43.3357631" lon="11.4446541"><ele>221.0</ele><time>2026-05-02T16:01:18.681Z</time></trkpt><trkpt lat="43.335683" lon="11.4444894"><ele>221.25</ele><time>2026-05-02T16:01:19.681Z</time></trkpt><trkpt lat="43.3355971" lon="11.4443254"><ele>221.5</ele><time>2026-05-02T16:01:20.667Z</time></trkpt><trkpt lat="43.3355082" lon="11.4441608"><ele>221.75</ele><time>2026-05-02T16:01:21.68Z</time></trkpt><trkpt lat="43.3354184" lon="11.4439943"><ele>222.0</ele><time>2026-05-02T16:01:22.669Z</time></trkpt><trkpt lat="43.335331" lon="11.4438413"><ele>221.8</ele><time>2026-05-02T16:01:23.669Z</time></trkpt><trkpt lat="43.3352525" lon="11.443698"><ele>221.6</ele><time>2026-05-02T16:01:24.663Z</time></trkpt><trkpt lat="43.3351945" lon="11.4435854"><ele>221.40000000000003</ele><time>2026-05-02T16:01:25.676Z</time></trkpt><trkpt lat="43.3351574" lon="11.4434609"><ele>221.20000000000002</ele><time>2026-05-02T16:01:26.666Z</time></trkpt><trkpt lat="43.3351297" lon="11.4433149"><ele>221.0</ele><time>2026-05-02T16:01:27.685Z</time></trkpt><trkpt lat="43.3351231" lon="11.4431576"><ele>221.0</ele><time>2026-05-02T16:01:28.68Z</time></trkpt><trkpt lat="43.3351389" lon="11.4429844"><ele>221.0</ele><time>2026-05-02T16:01:29.666Z</time></trkpt><trkpt lat="43.3351757" lon="11.4428122"><ele>221.0</ele><time>2026-05-02T16:01:30.664Z</time></trkpt><trkpt lat="43.3352242" lon="11.442629"><ele>221.0</ele><time>2026-05-02T16:01:31.69Z</time></trkpt><trkpt lat="43.3352646" lon="11.4424491"><ele>218.75</ele><time>2026-05-02T16:01:32.686Z</time></trkpt><trkpt lat="43.3352944" lon="11.442281"><ele>216.5</ele><time>2026-05-02T16:01:33.659Z</time></trkpt><trkpt lat="43.3353103" lon="11.4421122"><ele>214.25</ele><time>2026-05-02T16:01:34.677Z</time></trkpt><trkpt lat="43.3353066" lon="11.4419362"><ele>212.0</ele><time>2026-05-02T16:01:35.671Z</time></trkpt><trkpt lat="43.3352754" lon="11.4417772"><ele>212.0</ele><time>2026-05-02T16:01:36.679Z</time></trkpt><trkpt lat="43.3352239" lon="11.4416322"><ele>212.0</ele><time>2026-05-02T16:01:37.663Z</time></trkpt><trkpt lat="43.3351678" lon="11.4414843"><ele>212.0</ele><time>2026-05-02T16:01:38.677Z</time></trkpt><trkpt lat="43.3351278" lon="11.4413101"><ele>212.0</ele><time>2026-05-02T16:01:39.67Z</time></trkpt><trkpt lat="43.3351206" lon="11.4411356"><ele>213.75</ele><time>2026-05-02T16:01:40.676Z</time></trkpt><trkpt lat="43.3351338" lon="11.4409688"><ele>215.5</ele><time>2026-05-02T16:01:41.666Z</time></trkpt><trkpt lat="43.3351426" lon="11.4407886"><ele>217.25</ele><time>2026-05-02T16:01:42.676Z</time></trkpt><trkpt lat="43.3351311" lon="11.4405964"><ele>219.0</ele><time>2026-05-02T16:01:43.673Z</time></trkpt><trkpt lat="43.335104" lon="11.440408"><ele>220.5</ele><time>2026-05-02T16:01:44.68Z</time></trkpt><trkpt lat="43.3350659" lon="11.4402206"><ele>222.0</ele><time>2026-05-02T16:01:45.675Z</time></trkpt><trkpt lat="43.3350153" lon="11.4400337"><ele>223.5</ele><time>2026-05-02T16:01:46.676Z</time></trkpt><trkpt lat="43.3349616" lon="11.439855"><ele>225.0</ele><time>2026-05-02T16:01:47.666Z</time></trkpt><trkpt lat="43.3348889" lon="11.4396769"><ele>224.66666666666669</ele><time>2026-05-02T16:01:48.688Z</time></trkpt><trkpt lat="43.3348048" lon="11.4394951"><ele>224.33333333333334</ele><time>2026-05-02T16:01:49.676Z</time></trkpt><trkpt lat="43.3347168" lon="11.4393158"><ele>224.0</ele><time>2026-05-02T16:01:50.671Z</time></trkpt><trkpt lat="43.3346299" lon="11.4391354"><ele>226.0</ele><time>2026-05-02T16:01:51.673Z</time></trkpt><trkpt lat="43.3345424" lon="11.4389636"><ele>228.0</ele><time>2026-05-02T16:01:52.666Z</time></trkpt><trkpt lat="43.3344462" lon="11.4388218"><ele>230.0</ele><time>2026-05-02T16:01:53.664Z</time></trkpt><trkpt lat="43.3343352" lon="11.4387531"><ele>232.0</ele><time>2026-05-02T16:01:54.673Z</time></trkpt><trkpt lat="43.3342096" lon="11.4387095"><ele>232.0</ele><time>2026-05-02T16:01:55.67Z</time></trkpt><trkpt lat="43.3340751" lon="11.4386522"><ele>232.0</ele><time>2026-05-02T16:01:56.67Z</time></trkpt><trkpt lat="43.3339586" lon="11.4385611"><ele>232.0</ele><time>2026-05-02T16:01:57.667Z</time></trkpt><trkpt lat="43.3338535" lon="11.4384333"><ele>232.0</ele><time>2026-05-02T16:01:58.672Z</time></trkpt><trkpt lat="43.3337693" lon="11.4382892"><ele>233.0</ele><time>2026-05-02T16:01:59.675Z</time></trkpt><trkpt lat="43.3337172" lon="11.438111"><ele>234.0</ele><time>2026-05-02T16:02:00.689Z</time></trkpt><trkpt lat="43.3336901" lon="11.437913"><ele>235.0</ele><time>2026-05-02T16:02:01.67Z</time></trkpt><trkpt lat="43.3336801" lon="11.4377141"><ele>236.0</ele><time>2026-05-02T16:02:02.67Z</time></trkpt><trkpt lat="43.3336732" lon="11.4375305"><ele>237.0</ele><time>2026-05-02T16:02:03.674Z</time></trkpt><trkpt lat="43.3336704" lon="11.4373679"><ele>238.0</ele><time>2026-05-02T16:02:04.668Z</time></trkpt><trkpt lat="43.3336612" lon="11.4372178"><ele>239.0</ele><time>2026-05-02T16:02:05.668Z</time></trkpt><trkpt lat="43.3336469" lon="11.4370687"><ele>240.0</ele><time>2026-05-02T16:02:06.679Z</time></trkpt><trkpt lat="43.333627" lon="11.4369121"><ele>240.33333333333334</ele><time>2026-05-02T16:02:07.671Z</time></trkpt><trkpt lat="43.3336061" lon="11.4367783"><ele>240.66666666666669</ele><time>2026-05-02T16:02:08.668Z</time></trkpt><trkpt lat="43.3335893" lon="11.4366615"><ele>241.0</ele><time>2026-05-02T16:02:09.685Z</time></trkpt><trkpt lat="43.3335727" lon="11.4365495"><ele>241.33333333333334</ele><time>2026-05-02T16:02:10.668Z</time></trkpt><trkpt lat="43.3335602" lon="11.4364326"><ele>241.66666666666669</ele><time>2026-05-02T16:02:11.674Z</time></trkpt><trkpt lat="43.3335497" lon="11.4363109"><ele>242.0</ele><time>2026-05-02T16:02:12.672Z</time></trkpt><trkpt lat="43.3335357" lon="11.4361927"><ele>242.0</ele><time>2026-05-02T16:02:13.669Z</time></trkpt><trkpt lat="43.3335246" lon="11.4360794"><ele>241.99999999999997</ele><time>2026-05-02T16:02:14.675Z</time></trkpt><trkpt lat="43.3335235" lon="11.4359787"><ele>242.0</ele><time>2026-05-02T16:02:15.673Z</time></trkpt><trkpt lat="43.3335308" lon="11.4358856"><ele>242.0</ele><time>2026-05-02T16:02:17.672Z</time></trkpt><trkpt lat="43.3334784" lon="11.435937"><ele>241.99999999999997</ele><time>2026-05-02T16:02:39.673Z</time></trkpt><trkpt lat="43.3334805" lon="11.4360306"><ele>242.0</ele><time>2026-05-02T16:02:43.664Z</time></trkpt><trkpt lat="43.3334685" lon="11.436116"><ele>242.0</ele><time>2026-05-02T16:02:52.671Z</time></trkpt><trkpt lat="43.3334815" lon="11.4362244"><ele>242.00000000000003</ele><time>2026-05-02T16:02:57.668Z</time></trkpt><trkpt lat="43.3335018" lon="11.4360807"><ele>242.0</ele><time>2026-05-02T16:05:47.671Z</time></trkpt><trkpt lat="43.3334947" lon="11.4359848"><ele>242.0</ele><time>2026-05-02T16:05:48.663Z</time></trkpt><trkpt lat="43.3334922" lon="11.4358807"><ele>242.0</ele><time>2026-05-02T16:05:49.668Z</time></trkpt><trkpt lat="43.3334958" lon="11.4357652"><ele>242.00000000000003</ele><time>2026-05-02T16:05:50.677Z</time></trkpt><trkpt lat="43.3335127" lon="11.4356326"><ele>242.0</ele><time>2026-05-02T16:05:51.673Z</time></trkpt><trkpt lat="43.3335417" lon="11.4355012"><ele>241.25</ele><time>2026-05-02T16:05:52.677Z</time></trkpt><trkpt lat="43.3335857" lon="11.435355"><ele>240.5</ele><time>2026-05-02T16:05:53.676Z</time></trkpt><trkpt lat="43.3336533" lon="11.4351888"><ele>239.75</ele><time>2026-05-02T16:05:54.673Z</time></trkpt><trkpt lat="43.3337232" lon="11.4350028"><ele>239.0</ele><time>2026-05-02T16:05:55.673Z</time></trkpt><trkpt lat="43.3337733" lon="11.4348429"><ele>239.0</ele><time>2026-05-02T16:05:56.666Z</time></trkpt><trkpt lat="43.3338087" lon="11.4347059"><ele>238.99999999999997</ele><time>2026-05-02T16:05:57.682Z</time></trkpt><trkpt lat="43.3338465" lon="11.4345683"><ele>238.99999999999997</ele><time>2026-05-02T16:05:58.671Z</time></trkpt><trkpt lat="43.3338771" lon="11.4344336"><ele>239.0</ele><time>2026-05-02T16:05:59.67Z</time></trkpt><trkpt lat="43.3338947" lon="11.4342958"><ele>239.0</ele><time>2026-05-02T16:06:00.67Z</time></trkpt><trkpt lat="43.3338789" lon="11.4341633"><ele>239.79999999999998</ele><time>2026-05-02T16:06:01.667Z</time></trkpt><trkpt lat="43.3338526" lon="11.4340366"><ele>240.59999999999997</ele><time>2026-05-02T16:06:02.669Z</time></trkpt><trkpt lat="43.333807" lon="11.4339218"><ele>241.4</ele><time>2026-05-02T16:06:03.673Z</time></trkpt><trkpt lat="43.3337528" lon="11.4337968"><ele>242.2</ele><time>2026-05-02T16:06:04.671Z</time></trkpt><trkpt lat="43.33369" lon="11.4336751"><ele>243.0</ele><time>2026-05-02T16:06:05.671Z</time></trkpt><trkpt lat="43.3336364" lon="11.4335552"><ele>244.16666666666666</ele><time>2026-05-02T16:06:06.674Z</time></trkpt><trkpt lat="43.333597" lon="11.4334597"><ele>245.33333333333331</ele><time>2026-05-02T16:06:07.677Z</time></trkpt><trkpt lat="43.3335702" lon="11.4333808"><ele>246.5</ele><time>2026-05-02T16:06:08.665Z</time></trkpt><trkpt lat="43.3335891" lon="11.4332506"><ele>247.66666666666666</ele><time>2026-05-02T16:06:10.673Z</time></trkpt><trkpt lat="43.3336992" lon="11.4331991"><ele>248.83333333333331</ele><time>2026-05-02T16:06:12.667Z</time></trkpt><trkpt lat="43.3337763" lon="11.4331781"><ele>250.0</ele><time>2026-05-02T16:06:13.668Z</time></trkpt><trkpt lat="43.3338704" lon="11.4331183"><ele>250.0</ele><time>2026-05-02T16:06:14.661Z</time></trkpt><trkpt lat="43.3339749" lon="11.4330546"><ele>250.0</ele><time>2026-05-02T16:06:15.675Z</time></trkpt><trkpt lat="43.334086" lon="11.43299"><ele>250.0</ele><time>2026-05-02T16:06:16.671Z</time></trkpt><trkpt lat="43.3341921" lon="11.432931"><ele>250.0</ele><time>2026-05-02T16:06:17.672Z</time></trkpt><trkpt lat="43.3342939" lon="11.4328736"><ele>250.2</ele><time>2026-05-02T16:06:18.66Z</time></trkpt><trkpt lat="43.3343909" lon="11.4328166"><ele>250.4</ele><time>2026-05-02T16:06:19.655Z</time></trkpt><trkpt lat="43.3344819" lon="11.4327623"><ele>250.60000000000002</ele><time>2026-05-02T16:06:20.673Z</time></trkpt><trkpt lat="43.3345738" lon="11.4327078"><ele>250.8</ele><time>2026-05-02T16:06:21.674Z</time></trkpt><trkpt lat="43.3346655" lon="11.4326559"><ele>251.0</ele><time>2026-05-02T16:06:22.666Z</time></trkpt><trkpt lat="43.3347547" lon="11.4326025"><ele>251.20000000000002</ele><time>2026-05-02T16:06:23.679Z</time></trkpt><trkpt lat="43.3348405" lon="11.4325554"><ele>251.40000000000003</ele><time>2026-05-02T16:06:24.676Z</time></trkpt><trkpt lat="43.3349222" lon="11.4325085"><ele>251.6</ele><time>2026-05-02T16:06:25.674Z</time></trkpt><trkpt lat="43.3350097" lon="11.432461"><ele>251.8</ele><time>2026-05-02T16:06:26.665Z</time></trkpt><trkpt lat="43.3350997" lon="11.4324173"><ele>252.0</ele><time>2026-05-02T16:06:27.676Z</time></trkpt><trkpt lat="43.3351897" lon="11.4323694"><ele>252.0</ele><time>2026-05-02T16:06:28.672Z</time></trkpt><trkpt lat="43.3352808" lon="11.4323211"><ele>252.0</ele><time>2026-05-02T16:06:29.666Z</time></trkpt><trkpt lat="43.3353749" lon="11.4322701"><ele>252.0</ele><time>2026-05-02T16:06:30.666Z</time></trkpt><trkpt lat="43.3354821" lon="11.4322134"><ele>252.0</ele><time>2026-05-02T16:06:31.67Z</time></trkpt><trkpt lat="43.3355915" lon="11.4321521"><ele>252.0</ele><time>2026-05-02T16:06:32.656Z</time></trkpt><trkpt lat="43.3356973" lon="11.4320905"><ele>252.8</ele><time>2026-05-02T16:06:33.671Z</time></trkpt><trkpt lat="43.335797" lon="11.4320286"><ele>253.6</ele><time>2026-05-02T16:06:34.667Z</time></trkpt><trkpt lat="43.3358899" lon="11.4319751"><ele>254.40000000000003</ele><time>2026-05-02T16:06:35.673Z</time></trkpt><trkpt lat="43.3359843" lon="11.4319194"><ele>255.20000000000002</ele><time>2026-05-02T16:06:36.682Z</time></trkpt><trkpt lat="43.336084" lon="11.4318703"><ele>256.0</ele><time>2026-05-02T16:06:37.666Z</time></trkpt><trkpt lat="43.3361871" lon="11.4318126"><ele>256.0</ele><time>2026-05-02T16:06:38.716Z</time></trkpt><trkpt lat="43.3362945" lon="11.4317552"><ele>256.0</ele><time>2026-05-02T16:06:39.665Z</time></trkpt><trkpt lat="43.3364004" lon="11.4316988"><ele>256.0</ele><time>2026-05-02T16:06:40.666Z</time></trkpt><trkpt lat="43.3364986" lon="11.4316413"><ele>256.0</ele><time>2026-05-02T16:06:41.666Z</time></trkpt><trkpt lat="43.336591" lon="11.4315876"><ele>256.0</ele><time>2026-05-02T16:06:42.666Z</time></trkpt><trkpt lat="43.3366756" lon="11.4315356"><ele>255.20000000000002</ele><time>2026-05-02T16:06:43.666Z</time></trkpt><trkpt lat="43.3367664" lon="11.4314877"><ele>254.40000000000003</ele><time>2026-05-02T16:06:44.663Z</time></trkpt><trkpt lat="43.3368613" lon="11.4314508"><ele>253.6</ele><time>2026-05-02T16:06:45.674Z</time></trkpt><trkpt lat="43.3369638" lon="11.4314203"><ele>252.8</ele><time>2026-05-02T16:06:46.666Z</time></trkpt><trkpt lat="43.3370738" lon="11.431399"><ele>252.0</ele><time>2026-05-02T16:06:47.673Z</time></trkpt><trkpt lat="43.337187" lon="11.4313858"><ele>251.0</ele><time>2026-05-02T16:06:48.671Z</time></trkpt><trkpt lat="43.3373084" lon="11.431386"><ele>250.0</ele><time>2026-05-02T16:06:49.659Z</time></trkpt><trkpt lat="43.3374419" lon="11.4313934"><ele>249.0</ele><time>2026-05-02T16:06:50.668Z</time></trkpt><trkpt lat="43.337597" lon="11.4313907"><ele>248.0</ele><time>2026-05-02T16:06:51.676Z</time></trkpt><trkpt lat="43.3377444" lon="11.4313912"><ele>248.0</ele><time>2026-05-02T16:06:52.683Z</time></trkpt><trkpt lat="43.3378849" lon="11.4313983"><ele>248.0</ele><time>2026-05-02T16:06:53.671Z</time></trkpt><trkpt lat="43.3380163" lon="11.431411"><ele>248.0</ele><time>2026-05-02T16:06:54.674Z</time></trkpt><trkpt lat="43.3381419" lon="11.4314282"><ele>248.0</ele><time>2026-05-02T16:06:55.667Z</time></trkpt><trkpt lat="43.3382672" lon="11.43145"><ele>248.5</ele><time>2026-05-02T16:06:56.666Z</time></trkpt><trkpt lat="43.3383835" lon="11.4314975"><ele>249.0</ele><time>2026-05-02T16:06:57.684Z</time></trkpt><trkpt lat="43.3384854" lon="11.4315763"><ele>249.5</ele><time>2026-05-02T16:06:58.669Z</time></trkpt><trkpt lat="43.338579" lon="11.4316658"><ele>250.0</ele><time>2026-05-02T16:06:59.681Z</time></trkpt><trkpt lat="43.3386709" lon="11.4317579"><ele>250.0</ele><time>2026-05-02T16:07:00.678Z</time></trkpt><trkpt lat="43.3387581" lon="11.4318547"><ele>250.0</ele><time>2026-05-02T16:07:01.666Z</time></trkpt><trkpt lat="43.3388486" lon="11.4319609"><ele>250.0</ele><time>2026-05-02T16:07:02.691Z</time></trkpt><trkpt lat="43.3389413" lon="11.4320689"><ele>250.0</ele><time>2026-05-02T16:07:03.673Z</time></trkpt><trkpt lat="43.3390372" lon="11.432179"><ele>250.0</ele><time>2026-05-02T16:07:04.668Z</time></trkpt><trkpt lat="43.3391338" lon="11.4322901"><ele>250.0</ele><time>2026-05-02T16:07:05.676Z</time></trkpt><trkpt lat="43.3392268" lon="11.4324085"><ele>250.0</ele><time>2026-05-02T16:07:06.671Z</time></trkpt><trkpt lat="43.3393184" lon="11.4325398"><ele>250.0</ele><time>2026-05-02T16:07:07.672Z</time></trkpt><trkpt lat="43.3393996" lon="11.4326799"><ele>250.0</ele><time>2026-05-02T16:07:08.663Z</time></trkpt><trkpt lat="43.3394724" lon="11.4328311"><ele>250.0</ele><time>2026-05-02T16:07:09.686Z</time></trkpt><trkpt lat="43.3395393" lon="11.4329855"><ele>250.0</ele><time>2026-05-02T16:07:10.677Z</time></trkpt><trkpt lat="43.3396076" lon="11.4331437"><ele>250.0</ele><time>2026-05-02T16:07:11.667Z</time></trkpt><trkpt lat="43.339675" lon="11.4333077"><ele>249.75</ele><time>2026-05-02T16:07:12.677Z</time></trkpt><trkpt lat="43.3397421" lon="11.4334766"><ele>249.5</ele><time>2026-05-02T16:07:13.669Z</time></trkpt><trkpt lat="43.3398139" lon="11.4336527"><ele>249.25</ele><time>2026-05-02T16:07:14.66Z</time></trkpt><trkpt lat="43.3398834" lon="11.4338252"><ele>249.0</ele><time>2026-05-02T16:07:15.669Z</time></trkpt><trkpt lat="43.339958" lon="11.4339923"><ele>249.0</ele><time>2026-05-02T16:07:16.675Z</time></trkpt><trkpt lat="43.3400341" lon="11.434145"><ele>249.0</ele><time>2026-05-02T16:07:17.667Z</time></trkpt><trkpt lat="43.3401094" lon="11.4342838"><ele>249.0</ele><time>2026-05-02T16:07:18.661Z</time></trkpt><trkpt lat="43.3401867" lon="11.4344087"><ele>249.0</ele><time>2026-05-02T16:07:19.675Z</time></trkpt><trkpt lat="43.3402663" lon="11.4345032"><ele>249.0</ele><time>2026-05-02T16:07:20.67Z</time></trkpt><trkpt lat="43.3403574" lon="11.4345726"><ele>249.0</ele><time>2026-05-02T16:07:21.672Z</time></trkpt><trkpt lat="43.3404626" lon="11.434612"><ele>249.0</ele><time>2026-05-02T16:07:22.676Z</time></trkpt><trkpt lat="43.3405832" lon="11.4346289"><ele>249.0</ele><time>2026-05-02T16:07:23.673Z</time></trkpt><trkpt lat="43.3407117" lon="11.4346133"><ele>248.0</ele><time>2026-05-02T16:07:24.674Z</time></trkpt><trkpt lat="43.3408357" lon="11.4345796"><ele>247.0</ele><time>2026-05-02T16:07:25.676Z</time></trkpt><trkpt lat="43.3409614" lon="11.4345368"><ele>246.0</ele><time>2026-05-02T16:07:26.667Z</time></trkpt><trkpt lat="43.3410953" lon="11.4344861"><ele>245.0</ele><time>2026-05-02T16:07:27.68Z</time></trkpt><trkpt lat="43.3412248" lon="11.4344382"><ele>245.0</ele><time>2026-05-02T16:07:28.674Z</time></trkpt><trkpt lat="43.3413662" lon="11.434394"><ele>245.0</ele><time>2026-05-02T16:07:29.678Z</time></trkpt><trkpt lat="43.3415131" lon="11.4343499"><ele>245.0</ele><time>2026-05-02T16:07:30.677Z</time></trkpt><trkpt lat="43.3416493" lon="11.4343051"><ele>245.0</ele><time>2026-05-02T16:07:31.694Z</time></trkpt><trkpt lat="43.3417705" lon="11.434266"><ele>245.16666666666669</ele><time>2026-05-02T16:07:32.677Z</time></trkpt><trkpt lat="43.3418755" lon="11.4342352"><ele>245.33333333333334</ele><time>2026-05-02T16:07:33.686Z</time></trkpt><trkpt lat="43.3419497" lon="11.4342186"><ele>245.5</ele><time>2026-05-02T16:07:34.668Z</time></trkpt><trkpt lat="43.342031" lon="11.4342145"><ele>245.66666666666669</ele><time>2026-05-02T16:07:36.687Z</time></trkpt><trkpt lat="43.342093" lon="11.4342506"><ele>245.83333333333334</ele><time>2026-05-02T16:07:41.678Z</time></trkpt><trkpt lat="43.3420803" lon="11.4343383"><ele>246.0</ele><time>2026-05-02T16:08:15.671Z</time></trkpt><trkpt lat="43.3421186" lon="11.4342599"><ele>246.0</ele><time>2026-05-02T16:09:46.669Z</time></trkpt><trkpt lat="43.3420581" lon="11.434221"><ele>246.0</ele><time>2026-05-02T16:11:38.669Z</time></trkpt><trkpt lat="43.3421329" lon="11.4341501"><ele>246.0</ele><time>2026-05-02T16:12:03.672Z</time></trkpt><trkpt lat="43.3422082" lon="11.4341272"><ele>246.0</ele><time>2026-05-02T16:12:04.68Z</time></trkpt><trkpt lat="43.342296" lon="11.4341005"><ele>246.0</ele><time>2026-05-02T16:12:05.677Z</time></trkpt><trkpt lat="43.3424173" lon="11.4340629"><ele>246.0</ele><time>2026-05-02T16:12:06.666Z</time></trkpt><trkpt lat="43.3425598" lon="11.4340114"><ele>246.33333333333331</ele><time>2026-05-02T16:12:07.67Z</time></trkpt><trkpt lat="43.3427083" lon="11.4339596"><ele>246.66666666666666</ele><time>2026-05-02T16:12:08.674Z</time></trkpt><trkpt lat="43.3428579" lon="11.4339106"><ele>247.0</ele><time>2026-05-02T16:12:09.665Z</time></trkpt><trkpt lat="43.3430017" lon="11.4338815"><ele>248.25</ele><time>2026-05-02T16:12:10.67Z</time></trkpt><trkpt lat="43.3431412" lon="11.4338796"><ele>249.5</ele><time>2026-05-02T16:12:11.672Z</time></trkpt><trkpt lat="43.3432727" lon="11.4339264"><ele>250.75</ele><time>2026-05-02T16:12:12.661Z</time></trkpt><trkpt lat="43.3433976" lon="11.4340348"><ele>252.0</ele><time>2026-05-02T16:12:13.676Z</time></trkpt><trkpt lat="43.3435031" lon="11.4341678"><ele>252.0</ele><time>2026-05-02T16:12:14.667Z</time></trkpt><trkpt lat="43.3436022" lon="11.4343144"><ele>252.0</ele><time>2026-05-02T16:12:15.669Z</time></trkpt><trkpt lat="43.3437002" lon="11.434458"><ele>252.0</ele><time>2026-05-02T16:12:16.665Z</time></trkpt><trkpt lat="43.3437961" lon="11.4345964"><ele>252.0</ele><time>2026-05-02T16:12:17.668Z</time></trkpt><trkpt lat="43.3438882" lon="11.4347364"><ele>253.5</ele><time>2026-05-02T16:12:18.668Z</time></trkpt><trkpt lat="43.3439838" lon="11.4348724"><ele>255.0</ele><time>2026-05-02T16:12:19.669Z</time></trkpt><trkpt lat="43.3440809" lon="11.4350034"><ele>256.5</ele><time>2026-05-02T16:12:20.671Z</time></trkpt><trkpt lat="43.3441865" lon="11.435126"><ele>258.0</ele><time>2026-05-02T16:12:21.67Z</time></trkpt><trkpt lat="43.3443005" lon="11.4352449"><ele>258.0</ele><time>2026-05-02T16:12:22.663Z</time></trkpt><trkpt lat="43.3444196" lon="11.4353625"><ele>258.0</ele><time>2026-05-02T16:12:23.682Z</time></trkpt><trkpt lat="43.3445497" lon="11.4354746"><ele>258.0</ele><time>2026-05-02T16:12:24.668Z</time></trkpt><trkpt lat="43.3446834" lon="11.4355527"><ele>258.0</ele><time>2026-05-02T16:12:25.667Z</time></trkpt><trkpt lat="43.3448143" lon="11.4355903"><ele>258.75</ele><time>2026-05-02T16:12:26.67Z</time></trkpt><trkpt lat="43.3449543" lon="11.4356112"><ele>259.5</ele><time>2026-05-02T16:12:27.672Z</time></trkpt><trkpt lat="43.3450949" lon="11.4356095"><ele>260.25</ele><time>2026-05-02T16:12:28.661Z</time></trkpt><trkpt lat="43.3452411" lon="11.4356126"><ele>261.0</ele><time>2026-05-02T16:12:29.677Z</time></trkpt><trkpt lat="43.3453844" lon="11.4356139"><ele>261.0</ele><time>2026-05-02T16:12:30.675Z</time></trkpt><trkpt lat="43.3455291" lon="11.4356142"><ele>261.0</ele><time>2026-05-02T16:12:31.674Z</time></trkpt><trkpt lat="43.3456663" lon="11.4356244"><ele>261.0</ele><time>2026-05-02T16:12:32.666Z</time></trkpt><trkpt lat="43.3458002" lon="11.4356613"><ele>261.0</ele><time>2026-05-02T16:12:33.67Z</time></trkpt><trkpt lat="43.3459226" lon="11.4357203"><ele>261.0</ele><time>2026-05-02T16:12:34.659Z</time></trkpt><trkpt lat="43.3460372" lon="11.4358302"><ele>261.0</ele><time>2026-05-02T16:12:35.675Z</time></trkpt><trkpt lat="43.3461615" lon="11.4359477"><ele>261.0</ele><time>2026-05-02T16:12:36.673Z</time></trkpt><trkpt lat="43.3462908" lon="11.4360623"><ele>261.0</ele><time>2026-05-02T16:12:37.667Z</time></trkpt><trkpt lat="43.3464199" lon="11.4361718"><ele>261.0</ele><time>2026-05-02T16:12:38.671Z</time></trkpt><trkpt lat="43.3465335" lon="11.4362824"><ele>261.0</ele><time>2026-05-02T16:12:39.675Z</time></trkpt><trkpt lat="43.3466297" lon="11.436401"><ele>261.0</ele><time>2026-05-02T16:12:40.681Z</time></trkpt><trkpt lat="43.3467192" lon="11.4365254"><ele>261.0</ele><time>2026-05-02T16:12:41.667Z</time></trkpt><trkpt lat="43.3468048" lon="11.4366563"><ele>261.25</ele><time>2026-05-02T16:12:42.669Z</time></trkpt><trkpt lat="43.3468883" lon="11.4367959"><ele>261.5</ele><time>2026-05-02T16:12:43.675Z</time></trkpt><trkpt lat="43.3469603" lon="11.4369274"><ele>261.75</ele><time>2026-05-02T16:12:44.663Z</time></trkpt><trkpt lat="43.3470306" lon="11.4370523"><ele>262.0</ele><time>2026-05-02T16:12:45.662Z</time></trkpt><trkpt lat="43.3471046" lon="11.4371771"><ele>262.0</ele><time>2026-05-02T16:12:46.673Z</time></trkpt><trkpt lat="43.3471818" lon="11.4373012"><ele>262.0</ele><time>2026-05-02T16:12:47.667Z</time></trkpt><trkpt lat="43.3472594" lon="11.437435"><ele>262.0</ele><time>2026-05-02T16:12:48.666Z</time></trkpt><trkpt lat="43.3473386" lon="11.4375708"><ele>262.0</ele><time>2026-05-02T16:12:49.674Z</time></trkpt><trkpt lat="43.3474197" lon="11.4377146"><ele>261.25</ele><time>2026-05-02T16:12:50.662Z</time></trkpt><trkpt lat="43.3474966" lon="11.4378522"><ele>260.5</ele><time>2026-05-02T16:12:51.665Z</time></trkpt><trkpt lat="43.3475706" lon="11.4379866"><ele>259.75</ele><time>2026-05-02T16:12:52.667Z</time></trkpt><trkpt lat="43.3476465" lon="11.4381054"><ele>259.0</ele><time>2026-05-02T16:12:53.654Z</time></trkpt><trkpt lat="43.3477235" lon="11.4382207"><ele>259.0</ele><time>2026-05-02T16:12:54.663Z</time></trkpt><trkpt lat="43.3478078" lon="11.4383065"><ele>259.0</ele><time>2026-05-02T16:12:55.66Z</time></trkpt><trkpt lat="43.347903" lon="11.4383782"><ele>259.0</ele><time>2026-05-02T16:12:56.676Z</time></trkpt><trkpt lat="43.3480092" lon="11.43843"><ele>259.0</ele><time>2026-05-02T16:12:57.673Z</time></trkpt><trkpt lat="43.3481286" lon="11.4384718"><ele>259.0</ele><time>2026-05-02T16:12:58.663Z</time></trkpt><trkpt lat="43.3482504" lon="11.4384895"><ele>258.0</ele><time>2026-05-02T16:12:59.675Z</time></trkpt><trkpt lat="43.3483767" lon="11.4385059"><ele>257.0</ele><time>2026-05-02T16:13:00.673Z</time></trkpt><trkpt lat="43.3485083" lon="11.4385201"><ele>256.0</ele><time>2026-05-02T16:13:01.687Z</time></trkpt><trkpt lat="43.3486385" lon="11.4385378"><ele>255.0</ele><time>2026-05-02T16:13:02.668Z</time></trkpt><trkpt lat="43.3487752" lon="11.4385586"><ele>255.0</ele><time>2026-05-02T16:13:03.678Z</time></trkpt><trkpt lat="43.348912" lon="11.4385777"><ele>255.0</ele><time>2026-05-02T16:13:04.662Z</time></trkpt><trkpt lat="43.3490551" lon="11.4386063"><ele>255.0</ele><time>2026-05-02T16:13:05.672Z</time></trkpt><trkpt lat="43.3491944" lon="11.4386453"><ele>255.0</ele><time>2026-05-02T16:13:06.675Z</time></trkpt><trkpt lat="43.3493242" lon="11.4387121"><ele>254.0</ele><time>2026-05-02T16:13:07.677Z</time></trkpt><trkpt lat="43.3494551" lon="11.4388133"><ele>253.0</ele><time>2026-05-02T16:13:08.666Z</time></trkpt><trkpt lat="43.3495562" lon="11.4389488"><ele>252.0</ele><time>2026-05-02T16:13:09.664Z</time></trkpt><trkpt lat="43.3496539" lon="11.4391076"><ele>251.0</ele><time>2026-05-02T16:13:10.658Z</time></trkpt><trkpt lat="43.3497351" lon="11.4392672"><ele>250.75</ele><time>2026-05-02T16:13:11.664Z</time></trkpt><trkpt lat="43.349808" lon="11.4394318"><ele>250.5</ele><time>2026-05-02T16:13:12.671Z</time></trkpt><trkpt lat="43.3498975" lon="11.4395926"><ele>250.25</ele><time>2026-05-02T16:13:13.688Z</time></trkpt><trkpt lat="43.3499982" lon="11.4397283"><ele>250.0</ele><time>2026-05-02T16:13:14.666Z</time></trkpt><trkpt lat="43.3501118" lon="11.4398499"><ele>249.5</ele><time>2026-05-02T16:13:15.675Z</time></trkpt><trkpt lat="43.3502367" lon="11.4399556"><ele>249.0</ele><time>2026-05-02T16:13:16.737Z</time></trkpt><trkpt lat="43.3503669" lon="11.4400425"><ele>248.5</ele><time>2026-05-02T16:13:17.674Z</time></trkpt><trkpt lat="43.350502" lon="11.4401016"><ele>248.0</ele><time>2026-05-02T16:13:18.665Z</time></trkpt><trkpt lat="43.3506497" lon="11.4401257"><ele>248.0</ele><time>2026-05-02T16:13:19.67Z</time></trkpt><trkpt lat="43.3507987" lon="11.4401079"><ele>248.0</ele><time>2026-05-02T16:13:20.668Z</time></trkpt><trkpt lat="43.3509412" lon="11.4400721"><ele>248.0</ele><time>2026-05-02T16:13:21.673Z</time></trkpt><trkpt lat="43.3510762" lon="11.4400257"><ele>248.0</ele><time>2026-05-02T16:13:22.664Z</time></trkpt><trkpt lat="43.3511953" lon="11.4399563"><ele>248.0</ele><time>2026-05-02T16:13:23.666Z</time></trkpt><trkpt lat="43.3513037" lon="11.4398682"><ele>248.0</ele><time>2026-05-02T16:13:24.673Z</time></trkpt><trkpt lat="43.3514125" lon="11.4397825"><ele>248.0</ele><time>2026-05-02T16:13:25.678Z</time></trkpt><trkpt lat="43.351514" lon="11.4396919"><ele>248.0</ele><time>2026-05-02T16:13:26.674Z</time></trkpt><trkpt lat="43.3516191" lon="11.4396132"><ele>248.75</ele><time>2026-05-02T16:13:27.657Z</time></trkpt><trkpt lat="43.3517258" lon="11.4395406"><ele>249.5</ele><time>2026-05-02T16:13:28.663Z</time></trkpt><trkpt lat="43.35184" lon="11.4394671"><ele>250.25</ele><time>2026-05-02T16:13:29.66Z</time></trkpt><trkpt lat="43.3519613" lon="11.4394079"><ele>251.0</ele><time>2026-05-02T16:13:30.661Z</time></trkpt><trkpt lat="43.3520837" lon="11.4393721"><ele>252.75</ele><time>2026-05-02T16:13:31.69Z</time></trkpt><trkpt lat="43.352211" lon="11.4393431"><ele>254.5</ele><time>2026-05-02T16:13:32.674Z</time></trkpt><trkpt lat="43.3523339" lon="11.4392786"><ele>256.25</ele><time>2026-05-02T16:13:33.683Z</time></trkpt><trkpt lat="43.3524448" lon="11.4391684"><ele>258.0</ele><time>2026-05-02T16:13:34.673Z</time></trkpt><trkpt lat="43.3525429" lon="11.4390475"><ele>258.0</ele><time>2026-05-02T16:13:35.675Z</time></trkpt><trkpt lat="43.3526467" lon="11.4389252"><ele>258.0</ele><time>2026-05-02T16:13:36.662Z</time></trkpt><trkpt lat="43.3527558" lon="11.4388092"><ele>258.0</ele><time>2026-05-02T16:13:37.681Z</time></trkpt><trkpt lat="43.3528689" lon="11.4387049"><ele>258.0</ele><time>2026-05-02T16:13:38.665Z</time></trkpt><trkpt lat="43.3529924" lon="11.4386057"><ele>259.75</ele><time>2026-05-02T16:13:39.675Z</time></trkpt><trkpt lat="43.353115" lon="11.4385159"><ele>261.5</ele><time>2026-05-02T16:13:40.662Z</time></trkpt><trkpt lat="43.3532453" lon="11.4384464"><ele>263.25</ele><time>2026-05-02T16:13:41.662Z</time></trkpt><trkpt lat="43.353375" lon="11.4383904"><ele>265.0</ele><time>2026-05-02T16:13:42.688Z</time></trkpt><trkpt lat="43.3535109" lon="11.4383459"><ele>265.0</ele><time>2026-05-02T16:13:43.657Z</time></trkpt><trkpt lat="43.3536519" lon="11.438316"><ele>265.0</ele><time>2026-05-02T16:13:44.663Z</time></trkpt><trkpt lat="43.3537938" lon="11.4382852"><ele>265.0</ele><time>2026-05-02T16:13:45.674Z</time></trkpt><trkpt lat="43.3539386" lon="11.4382507"><ele>265.0</ele><time>2026-05-02T16:13:46.67Z</time></trkpt><trkpt lat="43.3540795" lon="11.438216"><ele>265.25</ele><time>2026-05-02T16:13:47.675Z</time></trkpt><trkpt lat="43.3542173" lon="11.4381754"><ele>265.5</ele><time>2026-05-02T16:13:48.672Z</time></trkpt><trkpt lat="43.3543564" lon="11.4381414"><ele>265.75</ele><time>2026-05-02T16:13:49.672Z</time></trkpt><trkpt lat="43.3545" lon="11.4381213"><ele>266.0</ele><time>2026-05-02T16:13:50.664Z</time></trkpt><trkpt lat="43.3546468" lon="11.4381249"><ele>266.6666666666667</ele><time>2026-05-02T16:13:51.677Z</time></trkpt><trkpt lat="43.3547969" lon="11.4381334"><ele>267.3333333333333</ele><time>2026-05-02T16:13:52.684Z</time></trkpt><trkpt lat="43.3549457" lon="11.4381486"><ele>268.0</ele><time>2026-05-02T16:13:53.666Z</time></trkpt><trkpt lat="43.3550999" lon="11.4381862"><ele>268.0</ele><time>2026-05-02T16:13:54.673Z</time></trkpt><trkpt lat="43.355256" lon="11.4382216"><ele>268.0</ele><time>2026-05-02T16:13:55.68Z</time></trkpt><trkpt lat="43.3554184" lon="11.4382591"><ele>268.0</ele><time>2026-05-02T16:13:56.665Z</time></trkpt><trkpt lat="43.355576" lon="11.4382922"><ele>267.3333333333333</ele><time>2026-05-02T16:13:57.663Z</time></trkpt><trkpt lat="43.35573" lon="11.4383321"><ele>266.6666666666667</ele><time>2026-05-02T16:13:58.69Z</time></trkpt><trkpt lat="43.3558938" lon="11.4383679"><ele>266.0</ele><time>2026-05-02T16:13:59.686Z</time></trkpt><trkpt lat="43.3560548" lon="11.4384098"><ele>266.0</ele><time>2026-05-02T16:14:00.671Z</time></trkpt><trkpt lat="43.356215" lon="11.4384415"><ele>266.0</ele><time>2026-05-02T16:14:01.66Z</time></trkpt><trkpt lat="43.3563689" lon="11.4384764"><ele>266.0</ele><time>2026-05-02T16:14:02.66Z</time></trkpt><trkpt lat="43.3565216" lon="11.4385127"><ele>265.75</ele><time>2026-05-02T16:14:03.672Z</time></trkpt><trkpt lat="43.3566721" lon="11.4385436"><ele>265.5</ele><time>2026-05-02T16:14:04.663Z</time></trkpt><trkpt lat="43.3568099" lon="11.4385747"><ele>265.25</ele><time>2026-05-02T16:14:05.662Z</time></trkpt><trkpt lat="43.3569402" lon="11.4385941"><ele>265.0</ele><time>2026-05-02T16:14:06.666Z</time></trkpt><trkpt lat="43.3570578" lon="11.4386072"><ele>265.0</ele><time>2026-05-02T16:14:07.674Z</time></trkpt><trkpt lat="43.3571752" lon="11.4385947"><ele>265.0</ele><time>2026-05-02T16:14:08.656Z</time></trkpt><trkpt lat="43.3572947" lon="11.4385713"><ele>265.0</ele><time>2026-05-02T16:14:09.666Z</time></trkpt><trkpt lat="43.3574274" lon="11.4385434"><ele>265.0</ele><time>2026-05-02T16:14:10.671Z</time></trkpt><trkpt lat="43.3575673" lon="11.438502"><ele>265.0</ele><time>2026-05-02T16:14:11.671Z</time></trkpt><trkpt lat="43.3577114" lon="11.4384503"><ele>265.0</ele><time>2026-05-02T16:14:12.667Z</time></trkpt><trkpt lat="43.3578615" lon="11.4383993"><ele>265.0</ele><time>2026-05-02T16:14:13.67Z</time></trkpt><trkpt lat="43.3580069" lon="11.4383372"><ele>265.5</ele><time>2026-05-02T16:14:14.674Z</time></trkpt><trkpt lat="43.3581479" lon="11.438242"><ele>266.0</ele><time>2026-05-02T16:14:15.67Z</time></trkpt><trkpt lat="43.3582647" lon="11.438111"><ele>266.5</ele><time>2026-05-02T16:14:16.671Z</time></trkpt><trkpt lat="43.3583416" lon="11.4379519"><ele>267.0</ele><time>2026-05-02T16:14:17.661Z</time></trkpt><trkpt lat="43.3583891" lon="11.4377815"><ele>267.5</ele><time>2026-05-02T16:14:18.683Z</time></trkpt><trkpt lat="43.3584149" lon="11.4376059"><ele>268.0</ele><time>2026-05-02T16:14:19.678Z</time></trkpt><trkpt lat="43.3584148" lon="11.4374177"><ele>268.5</ele><time>2026-05-02T16:14:20.675Z</time></trkpt><trkpt lat="43.358402" lon="11.4372383"><ele>269.0</ele><time>2026-05-02T16:14:21.674Z</time></trkpt><trkpt lat="43.358379" lon="11.4370661"><ele>269.0</ele><time>2026-05-02T16:14:22.663Z</time></trkpt><trkpt lat="43.3583618" lon="11.4368973"><ele>269.0</ele><time>2026-05-02T16:14:23.68Z</time></trkpt><trkpt lat="43.358356" lon="11.4367222"><ele>269.0</ele><time>2026-05-02T16:14:24.663Z</time></trkpt><trkpt lat="43.358374" lon="11.4365458"><ele>269.0</ele><time>2026-05-02T16:14:25.668Z</time></trkpt><trkpt lat="43.3584031" lon="11.4363651"><ele>269.0</ele><time>2026-05-02T16:14:26.661Z</time></trkpt><trkpt lat="43.3584373" lon="11.4362026"><ele>269.0</ele><time>2026-05-02T16:14:27.664Z</time></trkpt><trkpt lat="43.3584624" lon="11.4361144"><ele>269.0</ele><time>2026-05-02T16:14:28.673Z</time></trkpt><trkpt lat="43.3584762" lon="11.436029"><ele>269.0</ele><time>2026-05-02T16:14:30.676Z</time></trkpt><trkpt lat="43.3584908" lon="11.4359405"><ele>269.0</ele><time>2026-05-02T16:14:32.664Z</time></trkpt><trkpt lat="43.358515" lon="11.4357918"><ele>269.0</ele><time>2026-05-02T16:14:34.664Z</time></trkpt><trkpt lat="43.3585447" lon="11.4356789"><ele>269.0</ele><time>2026-05-02T16:14:35.666Z</time></trkpt><trkpt lat="43.3585808" lon="11.4355435"><ele>269.0</ele><time>2026-05-02T16:14:36.663Z</time></trkpt><trkpt lat="43.3586295" lon="11.4353945"><ele>269.0</ele><time>2026-05-02T16:14:37.671Z</time></trkpt><trkpt lat="43.3586907" lon="11.4352343"><ele>269.0</ele><time>2026-05-02T16:14:38.675Z</time></trkpt><trkpt lat="43.3587555" lon="11.4350589"><ele>269.5</ele><time>2026-05-02T16:14:39.67Z</time></trkpt><trkpt lat="43.3588241" lon="11.434882"><ele>270.0</ele><time>2026-05-02T16:14:40.668Z</time></trkpt><trkpt lat="43.3588842" lon="11.4347151"><ele>270.5</ele><time>2026-05-02T16:14:41.667Z</time></trkpt><trkpt lat="43.358926" lon="11.4345575"><ele>271.0</ele><time>2026-05-02T16:14:42.675Z</time></trkpt><trkpt lat="43.3589474" lon="11.4344182"><ele>269.0</ele><time>2026-05-02T16:14:43.669Z</time></trkpt><trkpt lat="43.3589584" lon="11.4342784"><ele>267.0</ele><time>2026-05-02T16:14:44.675Z</time></trkpt><trkpt lat="43.3589681" lon="11.4341238"><ele>265.0</ele><time>2026-05-02T16:14:45.676Z</time></trkpt><trkpt lat="43.3589655" lon="11.4339581"><ele>263.0</ele><time>2026-05-02T16:14:46.667Z</time></trkpt><trkpt lat="43.3589542" lon="11.4337726"><ele>263.33333333333337</ele><time>2026-05-02T16:14:47.672Z</time></trkpt><trkpt lat="43.3589295" lon="11.4335696"><ele>263.6666666666667</ele><time>2026-05-02T16:14:48.669Z</time></trkpt><trkpt lat="43.3588933" lon="11.4333596"><ele>264.0</ele><time>2026-05-02T16:14:49.688Z</time></trkpt><trkpt lat="43.3588651" lon="11.4331298"><ele>263.6666666666667</ele><time>2026-05-02T16:14:50.681Z</time></trkpt><trkpt lat="43.3588466" lon="11.4328764"><ele>263.33333333333337</ele><time>2026-05-02T16:14:51.671Z</time></trkpt><trkpt lat="43.3588386" lon="11.4326169"><ele>263.0</ele><time>2026-05-02T16:14:52.676Z</time></trkpt><trkpt lat="43.358853" lon="11.4323565"><ele>262.33333333333337</ele><time>2026-05-02T16:14:53.658Z</time></trkpt><trkpt lat="43.3588835" lon="11.4321118"><ele>261.6666666666667</ele><time>2026-05-02T16:14:54.672Z</time></trkpt><trkpt lat="43.3589299" lon="11.4318885"><ele>261.0</ele><time>2026-05-02T16:14:55.679Z</time></trkpt><trkpt lat="43.3589785" lon="11.4316762"><ele>261.0</ele><time>2026-05-02T16:14:56.665Z</time></trkpt><trkpt lat="43.3590286" lon="11.4314517"><ele>261.0</ele><time>2026-05-02T16:14:57.672Z</time></trkpt><trkpt lat="43.3590839" lon="11.4312229"><ele>261.0</ele><time>2026-05-02T16:14:58.677Z</time></trkpt><trkpt lat="43.3591387" lon="11.4309816"><ele>262.0</ele><time>2026-05-02T16:14:59.68Z</time></trkpt><trkpt lat="43.3591883" lon="11.4307391"><ele>263.0</ele><time>2026-05-02T16:15:00.668Z</time></trkpt><trkpt lat="43.3592291" lon="11.4304824"><ele>264.0</ele><time>2026-05-02T16:15:01.673Z</time></trkpt><trkpt lat="43.3592392" lon="11.4302116"><ele>264.3333333333333</ele><time>2026-05-02T16:15:02.669Z</time></trkpt><trkpt lat="43.3592216" lon="11.4299238"><ele>264.66666666666663</ele><time>2026-05-02T16:15:03.665Z</time></trkpt><trkpt lat="43.3591908" lon="11.429631"><ele>265.0</ele><time>2026-05-02T16:15:04.678Z</time></trkpt><trkpt lat="43.3591392" lon="11.4293477"><ele>265.66666666666663</ele><time>2026-05-02T16:15:05.678Z</time></trkpt><trkpt lat="43.3590658" lon="11.4290672"><ele>266.3333333333333</ele><time>2026-05-02T16:15:06.666Z</time></trkpt><trkpt lat="43.3589757" lon="11.4288194"><ele>267.0</ele><time>2026-05-02T16:15:07.676Z</time></trkpt><trkpt lat="43.358841" lon="11.4286153"><ele>267.0</ele><time>2026-05-02T16:15:08.674Z</time></trkpt><trkpt lat="43.3586958" lon="11.4284008"><ele>267.0</ele><time>2026-05-02T16:15:09.666Z</time></trkpt><trkpt lat="43.3585415" lon="11.4281769"><ele>267.0</ele><time>2026-05-02T16:15:10.671Z</time></trkpt><trkpt lat="43.358379" lon="11.4279382"><ele>265.6666666666667</ele><time>2026-05-02T16:15:11.664Z</time></trkpt><trkpt lat="43.3582342" lon="11.4276958"><ele>264.33333333333337</ele><time>2026-05-02T16:15:12.668Z</time></trkpt><trkpt lat="43.3580961" lon="11.4274674"><ele>263.0</ele><time>2026-05-02T16:15:13.674Z</time></trkpt><trkpt lat="43.3579539" lon="11.427277"><ele>259.6666666666667</ele><time>2026-05-02T16:15:14.667Z</time></trkpt><trkpt lat="43.3578045" lon="11.4271284"><ele>256.3333333333333</ele><time>2026-05-02T16:15:15.671Z</time></trkpt><trkpt lat="43.35766" lon="11.4270198"><ele>253.0</ele><time>2026-05-02T16:15:16.672Z</time></trkpt><trkpt lat="43.3574987" lon="11.4269327"><ele>253.0</ele><time>2026-05-02T16:15:17.677Z</time></trkpt><trkpt lat="43.3573359" lon="11.4268347"><ele>253.0</ele><time>2026-05-02T16:15:18.678Z</time></trkpt><trkpt lat="43.3571781" lon="11.4267344"><ele>253.0</ele><time>2026-05-02T16:15:19.668Z</time></trkpt><trkpt lat="43.3570258" lon="11.4266317"><ele>254.0</ele><time>2026-05-02T16:15:20.682Z</time></trkpt><trkpt lat="43.3568776" lon="11.426532"><ele>255.0</ele><time>2026-05-02T16:15:21.676Z</time></trkpt><trkpt lat="43.3567254" lon="11.4264295"><ele>256.0</ele><time>2026-05-02T16:15:22.663Z</time></trkpt><trkpt lat="43.3565781" lon="11.4263153"><ele>252.66666666666666</ele><time>2026-05-02T16:15:23.671Z</time></trkpt><trkpt lat="43.356435" lon="11.4261757"><ele>249.33333333333331</ele><time>2026-05-02T16:15:24.672Z</time></trkpt><trkpt lat="43.356295" lon="11.4260222"><ele>246.0</ele><time>2026-05-02T16:15:25.668Z</time></trkpt><trkpt lat="43.356156" lon="11.4258593"><ele>246.0</ele><time>2026-05-02T16:15:26.664Z</time></trkpt><trkpt lat="43.356017" lon="11.4256724"><ele>246.0</ele><time>2026-05-02T16:15:27.671Z</time></trkpt><trkpt lat="43.355886" lon="11.4254681"><ele>246.0</ele><time>2026-05-02T16:15:28.665Z</time></trkpt><trkpt lat="43.3557506" lon="11.4252662"><ele>244.0</ele><time>2026-05-02T16:15:29.661Z</time></trkpt><trkpt lat="43.355613" lon="11.4250743"><ele>242.0</ele><time>2026-05-02T16:15:30.667Z</time></trkpt><trkpt lat="43.3554814" lon="11.4248867"><ele>240.0</ele><time>2026-05-02T16:15:31.669Z</time></trkpt><trkpt lat="43.3553436" lon="11.4247051"><ele>238.66666666666669</ele><time>2026-05-02T16:15:32.667Z</time></trkpt><trkpt lat="43.3552085" lon="11.4245365"><ele>237.33333333333334</ele><time>2026-05-02T16:15:33.665Z</time></trkpt><trkpt lat="43.3550958" lon="11.4243712"><ele>236.0</ele><time>2026-05-02T16:15:34.669Z</time></trkpt><trkpt lat="43.3550112" lon="11.4242086"><ele>236.0</ele><time>2026-05-02T16:15:35.675Z</time></trkpt><trkpt lat="43.3549738" lon="11.4240371"><ele>236.0</ele><time>2026-05-02T16:15:36.659Z</time></trkpt><trkpt lat="43.3549687" lon="11.4238602"><ele>236.0</ele><time>2026-05-02T16:15:37.662Z</time></trkpt><trkpt lat="43.3550026" lon="11.4236709"><ele>236.0</ele><time>2026-05-02T16:15:38.675Z</time></trkpt><trkpt lat="43.3550501" lon="11.423473"><ele>234.66666666666669</ele><time>2026-05-02T16:15:39.672Z</time></trkpt><trkpt lat="43.3551121" lon="11.4232677"><ele>233.33333333333331</ele><time>2026-05-02T16:15:40.671Z</time></trkpt><trkpt lat="43.3551724" lon="11.4230483"><ele>232.0</ele><time>2026-05-02T16:15:41.669Z</time></trkpt><trkpt lat="43.3552207" lon="11.4228117"><ele>229.66666666666666</ele><time>2026-05-02T16:15:42.678Z</time></trkpt><trkpt lat="43.3552639" lon="11.4225354"><ele>227.33333333333331</ele><time>2026-05-02T16:15:43.67Z</time></trkpt><trkpt lat="43.3553006" lon="11.4222518"><ele>225.0</ele><time>2026-05-02T16:15:44.682Z</time></trkpt><trkpt lat="43.3553299" lon="11.421953"><ele>222.66666666666669</ele><time>2026-05-02T16:15:45.674Z</time></trkpt><trkpt lat="43.3553604" lon="11.4216555"><ele>220.33333333333334</ele><time>2026-05-02T16:15:46.662Z</time></trkpt><trkpt lat="43.3553944" lon="11.4213762"><ele>218.0</ele><time>2026-05-02T16:15:47.683Z</time></trkpt><trkpt lat="43.3554291" lon="11.4211132"><ele>217.66666666666669</ele><time>2026-05-02T16:15:48.666Z</time></trkpt><trkpt lat="43.3554712" lon="11.4208633"><ele>217.33333333333331</ele><time>2026-05-02T16:15:49.679Z</time></trkpt><trkpt lat="43.3555136" lon="11.4206151"><ele>217.0</ele><time>2026-05-02T16:15:50.661Z</time></trkpt><trkpt lat="43.3555558" lon="11.4203697"><ele>217.0</ele><time>2026-05-02T16:15:51.665Z</time></trkpt><trkpt lat="43.355604" lon="11.4201259"><ele>217.0</ele><time>2026-05-02T16:15:52.671Z</time></trkpt><trkpt lat="43.3556563" lon="11.4198849"><ele>217.0</ele><time>2026-05-02T16:15:53.673Z</time></trkpt><trkpt lat="43.3557269" lon="11.4196511"><ele>216.66666666666666</ele><time>2026-05-02T16:15:54.675Z</time></trkpt><trkpt lat="43.3558131" lon="11.4194258"><ele>216.33333333333331</ele><time>2026-05-02T16:15:55.666Z</time></trkpt><trkpt lat="43.3559053" lon="11.4192105"><ele>216.0</ele><time>2026-05-02T16:15:56.671Z</time></trkpt><trkpt lat="43.3560091" lon="11.4190015"><ele>216.66666666666669</ele><time>2026-05-02T16:15:57.665Z</time></trkpt><trkpt lat="43.3561107" lon="11.418798"><ele>217.33333333333334</ele><time>2026-05-02T16:15:58.671Z</time></trkpt><trkpt lat="43.3562042" lon="11.4185939"><ele>218.0</ele><time>2026-05-02T16:15:59.664Z</time></trkpt><trkpt lat="43.3562996" lon="11.4183861"><ele>217.66666666666669</ele><time>2026-05-02T16:16:00.669Z</time></trkpt><trkpt lat="43.3563937" lon="11.4181751"><ele>217.33333333333331</ele><time>2026-05-02T16:16:01.67Z</time></trkpt><trkpt lat="43.3564896" lon="11.4179688"><ele>217.0</ele><time>2026-05-02T16:16:02.671Z</time></trkpt><trkpt lat="43.3565887" lon="11.4177674"><ele>217.5</ele><time>2026-05-02T16:16:03.679Z</time></trkpt><trkpt lat="43.356678" lon="11.4175831"><ele>218.0</ele><time>2026-05-02T16:16:04.664Z</time></trkpt><trkpt lat="43.3567551" lon="11.4174086"><ele>218.5</ele><time>2026-05-02T16:16:05.668Z</time></trkpt><trkpt lat="43.3568119" lon="11.4172416"><ele>219.0</ele><time>2026-05-02T16:16:06.665Z</time></trkpt><trkpt lat="43.3568433" lon="11.4170921"><ele>219.0</ele><time>2026-05-02T16:16:07.664Z</time></trkpt><trkpt lat="43.3568623" lon="11.4169765"><ele>219.0</ele><time>2026-05-02T16:16:08.677Z</time></trkpt><trkpt lat="43.3568861" lon="11.416849"><ele>219.0</ele><time>2026-05-02T16:16:10.672Z</time></trkpt><trkpt lat="43.3568972" lon="11.4167627"><ele>219.0</ele><time>2026-05-02T16:16:14.678Z</time></trkpt><trkpt lat="43.3568778" lon="11.4166601"><ele>219.0</ele><time>2026-05-02T16:16:15.661Z</time></trkpt><trkpt lat="43.3568412" lon="11.4165753"><ele>219.0</ele><time>2026-05-02T16:16:16.663Z</time></trkpt><trkpt lat="43.356795" lon="11.4164936"><ele>219.0</ele><time>2026-05-02T16:16:17.661Z</time></trkpt><trkpt lat="43.3567329" lon="11.4163996"><ele>218.99999999999997</ele><time>2026-05-02T16:16:18.669Z</time></trkpt><trkpt lat="43.3566689" lon="11.4162892"><ele>218.99999999999997</ele><time>2026-05-02T16:16:19.669Z</time></trkpt><trkpt lat="43.3565996" lon="11.4161885"><ele>219.0</ele><time>2026-05-02T16:16:20.67Z</time></trkpt><trkpt lat="43.3565345" lon="11.4160861"><ele>219.0</ele><time>2026-05-02T16:16:21.666Z</time></trkpt><trkpt lat="43.3564726" lon="11.4159852"><ele>219.39999999999998</ele><time>2026-05-02T16:16:22.664Z</time></trkpt><trkpt lat="43.3564183" lon="11.4158817"><ele>219.79999999999998</ele><time>2026-05-02T16:16:23.668Z</time></trkpt><trkpt lat="43.3563739" lon="11.4157802"><ele>220.20000000000002</ele><time>2026-05-02T16:16:24.661Z</time></trkpt><trkpt lat="43.3563513" lon="11.4156658"><ele>220.60000000000002</ele><time>2026-05-02T16:16:25.672Z</time></trkpt><trkpt lat="43.3563573" lon="11.4155386"><ele>221.0</ele><time>2026-05-02T16:16:26.669Z</time></trkpt><trkpt lat="43.3563788" lon="11.4154057"><ele>222.20000000000002</ele><time>2026-05-02T16:16:27.684Z</time></trkpt><trkpt lat="43.3564172" lon="11.4152693"><ele>223.40000000000003</ele><time>2026-05-02T16:16:28.652Z</time></trkpt><trkpt lat="43.3564476" lon="11.4151266"><ele>224.6</ele><time>2026-05-02T16:16:29.665Z</time></trkpt><trkpt lat="43.3564806" lon="11.4149874"><ele>225.8</ele><time>2026-05-02T16:16:30.671Z</time></trkpt><trkpt lat="43.3565153" lon="11.4148462"><ele>227.0</ele><time>2026-05-02T16:16:31.671Z</time></trkpt><trkpt lat="43.3565475" lon="11.4147062"><ele>227.8</ele><time>2026-05-02T16:16:32.685Z</time></trkpt><trkpt lat="43.3565808" lon="11.4145638"><ele>228.6</ele><time>2026-05-02T16:16:33.675Z</time></trkpt><trkpt lat="43.3566137" lon="11.4144161"><ele>229.40000000000003</ele><time>2026-05-02T16:16:34.666Z</time></trkpt><trkpt lat="43.3566448" lon="11.4142773"><ele>230.20000000000002</ele><time>2026-05-02T16:16:35.669Z</time></trkpt><trkpt lat="43.3566752" lon="11.4141433"><ele>231.0</ele><time>2026-05-02T16:16:36.671Z</time></trkpt><trkpt lat="43.3567066" lon="11.4140079"><ele>231.0</ele><time>2026-05-02T16:16:37.678Z</time></trkpt><trkpt lat="43.3567418" lon="11.4138758"><ele>231.00000000000003</ele><time>2026-05-02T16:16:38.661Z</time></trkpt><trkpt lat="43.3567768" lon="11.4137449"><ele>231.00000000000003</ele><time>2026-05-02T16:16:39.669Z</time></trkpt><trkpt lat="43.3568132" lon="11.4136128"><ele>231.0</ele><time>2026-05-02T16:16:40.668Z</time></trkpt><trkpt lat="43.3568465" lon="11.4134802"><ele>231.0</ele><time>2026-05-02T16:16:41.665Z</time></trkpt><trkpt lat="43.3568775" lon="11.4133475"><ele>231.60000000000002</ele><time>2026-05-02T16:16:42.671Z</time></trkpt><trkpt lat="43.3569156" lon="11.4132209"><ele>232.20000000000002</ele><time>2026-05-02T16:16:43.663Z</time></trkpt><trkpt lat="43.3569579" lon="11.4130974"><ele>232.79999999999998</ele><time>2026-05-02T16:16:44.671Z</time></trkpt><trkpt lat="43.3570044" lon="11.412974"><ele>233.39999999999998</ele><time>2026-05-02T16:16:45.668Z</time></trkpt><trkpt lat="43.3570476" lon="11.4128506"><ele>234.0</ele><time>2026-05-02T16:16:46.66Z</time></trkpt><trkpt lat="43.3570995" lon="11.4127326"><ele>234.6</ele><time>2026-05-02T16:16:47.669Z</time></trkpt><trkpt lat="43.3571557" lon="11.4126189"><ele>235.2</ele><time>2026-05-02T16:16:48.664Z</time></trkpt><trkpt lat="43.3572205" lon="11.4125176"><ele>235.79999999999998</ele><time>2026-05-02T16:16:49.661Z</time></trkpt><trkpt lat="43.3572953" lon="11.4124349"><ele>236.39999999999998</ele><time>2026-05-02T16:16:50.686Z</time></trkpt><trkpt lat="43.3573745" lon="11.4123606"><ele>237.0</ele><time>2026-05-02T16:16:51.677Z</time></trkpt><trkpt lat="43.3574728" lon="11.4123011"><ele>238.0</ele><time>2026-05-02T16:16:52.66Z</time></trkpt><trkpt lat="43.3575802" lon="11.4122712"><ele>239.0</ele><time>2026-05-02T16:16:53.665Z</time></trkpt><trkpt lat="43.3576845" lon="11.4122669"><ele>240.0</ele><time>2026-05-02T16:16:54.67Z</time></trkpt><trkpt lat="43.357779" lon="11.4122985"><ele>241.0</ele><time>2026-05-02T16:16:55.667Z</time></trkpt><trkpt lat="43.3578775" lon="11.4123377"><ele>242.0</ele><time>2026-05-02T16:16:56.675Z</time></trkpt><trkpt lat="43.3579797" lon="11.4123876"><ele>243.0</ele><time>2026-05-02T16:16:57.667Z</time></trkpt><trkpt lat="43.3580782" lon="11.4124265"><ele>244.0</ele><time>2026-05-02T16:16:58.675Z</time></trkpt><trkpt lat="43.3581739" lon="11.4124403"><ele>245.0</ele><time>2026-05-02T16:16:59.679Z</time></trkpt><trkpt lat="43.3582612" lon="11.4124478"><ele>246.0</ele><time>2026-05-02T16:17:00.679Z</time></trkpt><trkpt lat="43.3583477" lon="11.412453"><ele>247.0</ele><time>2026-05-02T16:17:01.673Z</time></trkpt><trkpt lat="43.3584367" lon="11.4124484"><ele>247.0</ele><time>2026-05-02T16:17:02.669Z</time></trkpt><trkpt lat="43.3585335" lon="11.4124321"><ele>247.0</ele><time>2026-05-02T16:17:03.669Z</time></trkpt><trkpt lat="43.3586289" lon="11.4124238"><ele>247.0</ele><time>2026-05-02T16:17:04.671Z</time></trkpt><trkpt lat="43.358727" lon="11.4123923"><ele>247.0</ele><time>2026-05-02T16:17:05.67Z</time></trkpt><trkpt lat="43.3588149" lon="11.4123446"><ele>247.0</ele><time>2026-05-02T16:17:06.667Z</time></trkpt><trkpt lat="43.3588914" lon="11.412275"><ele>247.39999999999998</ele><time>2026-05-02T16:17:07.663Z</time></trkpt><trkpt lat="43.3589553" lon="11.4121875"><ele>247.79999999999998</ele><time>2026-05-02T16:17:08.672Z</time></trkpt><trkpt lat="43.3589914" lon="11.4120812"><ele>248.2</ele><time>2026-05-02T16:17:09.669Z</time></trkpt><trkpt lat="43.3590096" lon="11.4119612"><ele>248.6</ele><time>2026-05-02T16:17:10.667Z</time></trkpt><trkpt lat="43.3590158" lon="11.4118344"><ele>249.0</ele><time>2026-05-02T16:17:11.684Z</time></trkpt><trkpt lat="43.3590162" lon="11.4116955"><ele>250.79999999999998</ele><time>2026-05-02T16:17:12.668Z</time></trkpt><trkpt lat="43.3590109" lon="11.4115422"><ele>252.59999999999997</ele><time>2026-05-02T16:17:13.667Z</time></trkpt><trkpt lat="43.3590222" lon="11.4113761"><ele>254.4</ele><time>2026-05-02T16:17:14.664Z</time></trkpt><trkpt lat="43.3590539" lon="11.4112294"><ele>256.2</ele><time>2026-05-02T16:17:15.671Z</time></trkpt><trkpt lat="43.3590933" lon="11.4111088"><ele>258.0</ele><time>2026-05-02T16:17:16.668Z</time></trkpt><trkpt lat="43.3591429" lon="11.411008"><ele>259.0</ele><time>2026-05-02T16:17:17.684Z</time></trkpt><trkpt lat="43.3592059" lon="11.4109442"><ele>260.0</ele><time>2026-05-02T16:17:18.667Z</time></trkpt><trkpt lat="43.3592766" lon="11.4109351"><ele>261.0</ele><time>2026-05-02T16:17:19.667Z</time></trkpt><trkpt lat="43.359342" lon="11.4109765"><ele>262.0</ele><time>2026-05-02T16:17:20.666Z</time></trkpt><trkpt lat="43.3594183" lon="11.4110442"><ele>263.0</ele><time>2026-05-02T16:17:21.67Z</time></trkpt><trkpt lat="43.3594887" lon="11.4111356"><ele>264.0</ele><time>2026-05-02T16:17:22.662Z</time></trkpt><trkpt lat="43.3595344" lon="11.4112679"><ele>262.5</ele><time>2026-05-02T16:17:23.668Z</time></trkpt><trkpt lat="43.3595735" lon="11.4114256"><ele>261.0</ele><time>2026-05-02T16:17:24.67Z</time></trkpt><trkpt lat="43.3596047" lon="11.4115951"><ele>259.5</ele><time>2026-05-02T16:17:25.671Z</time></trkpt><trkpt lat="43.3596328" lon="11.4117564"><ele>258.0</ele><time>2026-05-02T16:17:26.673Z</time></trkpt><trkpt lat="43.3596692" lon="11.4118858"><ele>260.0</ele><time>2026-05-02T16:17:27.665Z</time></trkpt><trkpt lat="43.3597247" lon="11.411986"><ele>262.0</ele><time>2026-05-02T16:17:28.675Z</time></trkpt><trkpt lat="43.3597996" lon="11.4120416"><ele>264.0</ele><time>2026-05-02T16:17:29.671Z</time></trkpt><trkpt lat="43.3598641" lon="11.4120595"><ele>266.0</ele><time>2026-05-02T16:17:30.68Z</time></trkpt><trkpt lat="43.3599257" lon="11.4120146"><ele>268.0</ele><time>2026-05-02T16:17:31.674Z</time></trkpt><trkpt lat="43.3599737" lon="11.4118711"><ele>270.0</ele><time>2026-05-02T16:17:33.669Z</time></trkpt><trkpt lat="43.3599729" lon="11.4117645"><ele>270.0</ele><time>2026-05-02T16:17:34.685Z</time></trkpt><trkpt lat="43.3599581" lon="11.4116578"><ele>270.0</ele><time>2026-05-02T16:17:35.668Z</time></trkpt><trkpt lat="43.3599353" lon="11.4115394"><ele>270.0</ele><time>2026-05-02T16:17:36.682Z</time></trkpt><trkpt lat="43.3599368" lon="11.411406"><ele>270.0</ele><time>2026-05-02T16:17:37.667Z</time></trkpt><trkpt lat="43.3599646" lon="11.4112764"><ele>270.0</ele><time>2026-05-02T16:17:38.656Z</time></trkpt><trkpt lat="43.3600208" lon="11.4111765"><ele>270.0</ele><time>2026-05-02T16:17:39.668Z</time></trkpt><trkpt lat="43.3600959" lon="11.4110843"><ele>270.0</ele><time>2026-05-02T16:17:40.661Z</time></trkpt><trkpt lat="43.3601792" lon="11.4110029"><ele>270.0</ele><time>2026-05-02T16:17:41.671Z</time></trkpt><trkpt lat="43.3602865" lon="11.4109355"><ele>270.0</ele><time>2026-05-02T16:17:42.666Z</time></trkpt><trkpt lat="43.3604226" lon="11.410875"><ele>272.0</ele><time>2026-05-02T16:17:43.664Z</time></trkpt><trkpt lat="43.3605602" lon="11.4108113"><ele>274.0</ele><time>2026-05-02T16:17:44.658Z</time></trkpt><trkpt lat="43.3606739" lon="11.4107507"><ele>276.0</ele><time>2026-05-02T16:17:45.674Z</time></trkpt><trkpt lat="43.3607619" lon="11.4106822"><ele>278.0</ele><time>2026-05-02T16:17:46.665Z</time></trkpt><trkpt lat="43.3608248" lon="11.4105799"><ele>278.75</ele><time>2026-05-02T16:17:47.674Z</time></trkpt><trkpt lat="43.3608739" lon="11.4104518"><ele>279.5</ele><time>2026-05-02T16:17:48.68Z</time></trkpt><trkpt lat="43.3608834" lon="11.410277"><ele>280.25</ele><time>2026-05-02T16:17:49.673Z</time></trkpt><trkpt lat="43.3608627" lon="11.4100984"><ele>281.0</ele><time>2026-05-02T16:17:50.671Z</time></trkpt><trkpt lat="43.3608136" lon="11.409909"><ele>281.0</ele><time>2026-05-02T16:17:51.655Z</time></trkpt><trkpt lat="43.3607428" lon="11.4096995"><ele>281.0</ele><time>2026-05-02T16:17:52.664Z</time></trkpt><trkpt lat="43.3606539" lon="11.4094779"><ele>281.0</ele><time>2026-05-02T16:17:53.67Z</time></trkpt><trkpt lat="43.3605577" lon="11.4092677"><ele>280.75</ele><time>2026-05-02T16:17:54.668Z</time></trkpt><trkpt lat="43.3604639" lon="11.4090977"><ele>280.5</ele><time>2026-05-02T16:17:55.671Z</time></trkpt><trkpt lat="43.3603745" lon="11.4089549"><ele>280.25</ele><time>2026-05-02T16:17:56.654Z</time></trkpt><trkpt lat="43.3602671" lon="11.4088185"><ele>280.0</ele><time>2026-05-02T16:17:57.659Z</time></trkpt><trkpt lat="43.3601239" lon="11.4086983"><ele>282.25</ele><time>2026-05-02T16:17:58.666Z</time></trkpt><trkpt lat="43.359971" lon="11.4085906"><ele>284.5</ele><time>2026-05-02T16:17:59.668Z</time></trkpt><trkpt lat="43.3598427" lon="11.4084975"><ele>286.75</ele><time>2026-05-02T16:18:00.681Z</time></trkpt><trkpt lat="43.3597365" lon="11.4084198"><ele>289.0</ele><time>2026-05-02T16:18:01.675Z</time></trkpt><trkpt lat="43.3596433" lon="11.4083367"><ele>289.0</ele><time>2026-05-02T16:18:02.678Z</time></trkpt><trkpt lat="43.3595636" lon="11.4082421"><ele>289.0</ele><time>2026-05-02T16:18:03.672Z</time></trkpt><trkpt lat="43.3595109" lon="11.4081155"><ele>289.0</ele><time>2026-05-02T16:18:04.67Z</time></trkpt><trkpt lat="43.3594841" lon="11.4079679"><ele>289.0</ele><time>2026-05-02T16:18:05.661Z</time></trkpt><trkpt lat="43.3594884" lon="11.4078411"><ele>289.0</ele><time>2026-05-02T16:18:06.677Z</time></trkpt><trkpt lat="43.3595312" lon="11.4077181"><ele>290.2</ele><time>2026-05-02T16:18:07.67Z</time></trkpt><trkpt lat="43.3595872" lon="11.407608"><ele>291.4</ele><time>2026-05-02T16:18:08.664Z</time></trkpt><trkpt lat="43.359659" lon="11.407512"><ele>292.6</ele><time>2026-05-02T16:18:09.672Z</time></trkpt><trkpt lat="43.3597478" lon="11.4074345"><ele>293.8</ele><time>2026-05-02T16:18:10.668Z</time></trkpt><trkpt lat="43.3598478" lon="11.4074028"><ele>295.0</ele><time>2026-05-02T16:18:11.667Z</time></trkpt><trkpt lat="43.3599599" lon="11.4074065"><ele>295.0</ele><time>2026-05-02T16:18:12.674Z</time></trkpt><trkpt lat="43.3600791" lon="11.4074453"><ele>295.0</ele><time>2026-05-02T16:18:13.687Z</time></trkpt><trkpt lat="43.360207" lon="11.4074963"><ele>295.0</ele><time>2026-05-02T16:18:14.671Z</time></trkpt><trkpt lat="43.3603587" lon="11.4075365"><ele>295.0</ele><time>2026-05-02T16:18:15.673Z</time></trkpt><trkpt lat="43.360523" lon="11.4075673"><ele>296.0</ele><time>2026-05-02T16:18:16.665Z</time></trkpt><trkpt lat="43.3606935" lon="11.4075887"><ele>297.0</ele><time>2026-05-02T16:18:17.672Z</time></trkpt><trkpt lat="43.3608727" lon="11.4075882"><ele>298.0</ele><time>2026-05-02T16:18:18.661Z</time></trkpt><trkpt lat="43.361062" lon="11.4075768"><ele>298.0</ele><time>2026-05-02T16:18:19.667Z</time></trkpt><trkpt lat="43.3612541" lon="11.4075551"><ele>298.0</ele><time>2026-05-02T16:18:20.651Z</time></trkpt><trkpt lat="43.3614501" lon="11.4075148"><ele>298.0</ele><time>2026-05-02T16:18:21.666Z</time></trkpt><trkpt lat="43.3616777" lon="11.4074539"><ele>302.0</ele><time>2026-05-02T16:18:22.67Z</time></trkpt><trkpt lat="43.3619208" lon="11.4073872"><ele>306.0</ele><time>2026-05-02T16:18:23.676Z</time></trkpt><trkpt lat="43.3621363" lon="11.4073319"><ele>307.6666666666667</ele><time>2026-05-02T16:18:24.664Z</time></trkpt><trkpt lat="43.362322" lon="11.4072715"><ele>309.33333333333337</ele><time>2026-05-02T16:18:25.664Z</time></trkpt><trkpt lat="43.3625062" lon="11.4072075"><ele>311.0</ele><time>2026-05-02T16:18:26.66Z</time></trkpt><trkpt lat="43.3626894" lon="11.4071359"><ele>311.0</ele><time>2026-05-02T16:18:27.68Z</time></trkpt><trkpt lat="43.362867" lon="11.4070496"><ele>311.0</ele><time>2026-05-02T16:18:28.665Z</time></trkpt><trkpt lat="43.3630324" lon="11.4069605"><ele>311.0</ele><time>2026-05-02T16:18:29.669Z</time></trkpt><trkpt lat="43.3632069" lon="11.4068585"><ele>313.6666666666667</ele><time>2026-05-02T16:18:30.666Z</time></trkpt><trkpt lat="43.3633768" lon="11.4067497"><ele>316.3333333333333</ele><time>2026-05-02T16:18:31.664Z</time></trkpt><trkpt lat="43.3635593" lon="11.406633"><ele>319.0</ele><time>2026-05-02T16:18:32.671Z</time></trkpt><trkpt lat="43.3637392" lon="11.4065185"><ele>322.0</ele><time>2026-05-02T16:18:33.673Z</time></trkpt><trkpt lat="43.363917" lon="11.4063901"><ele>325.0</ele><time>2026-05-02T16:18:34.667Z</time></trkpt><trkpt lat="43.3640854" lon="11.4062718"><ele>328.0</ele><time>2026-05-02T16:18:35.666Z</time></trkpt><trkpt lat="43.364234" lon="11.4061752"><ele>328.25</ele><time>2026-05-02T16:18:36.673Z</time></trkpt><trkpt lat="43.364366" lon="11.4060932"><ele>328.5</ele><time>2026-05-02T16:18:37.669Z</time></trkpt><trkpt lat="43.3644796" lon="11.406034"><ele>328.75</ele><time>2026-05-02T16:18:38.667Z</time></trkpt><trkpt lat="43.3645817" lon="11.4060202"><ele>329.0</ele><time>2026-05-02T16:18:39.667Z</time></trkpt><trkpt lat="43.3646632" lon="11.4060492"><ele>331.0</ele><time>2026-05-02T16:18:40.665Z</time></trkpt><trkpt lat="43.3647302" lon="11.4061228"><ele>333.0</ele><time>2026-05-02T16:18:41.672Z</time></trkpt><trkpt lat="43.3648002" lon="11.4062224"><ele>335.0</ele><time>2026-05-02T16:18:42.671Z</time></trkpt><trkpt lat="43.3648753" lon="11.4063322"><ele>337.0</ele><time>2026-05-02T16:18:43.673Z</time></trkpt><trkpt lat="43.3649452" lon="11.4064158"><ele>339.0</ele><time>2026-05-02T16:18:44.663Z</time></trkpt><trkpt lat="43.3650261" lon="11.4064709"><ele>339.0</ele><time>2026-05-02T16:18:45.664Z</time></trkpt><trkpt lat="43.3651115" lon="11.4064957"><ele>339.0</ele><time>2026-05-02T16:18:46.66Z</time></trkpt><trkpt lat="43.3652122" lon="11.4064801"><ele>339.0</ele><time>2026-05-02T16:18:47.663Z</time></trkpt><trkpt lat="43.3653177" lon="11.4064507"><ele>339.0</ele><time>2026-05-02T16:18:48.679Z</time></trkpt><trkpt lat="43.3654285" lon="11.4064046"><ele>339.0</ele><time>2026-05-02T16:18:49.668Z</time></trkpt><trkpt lat="43.3655516" lon="11.4063548"><ele>340.0</ele><time>2026-05-02T16:18:50.669Z</time></trkpt><trkpt lat="43.3656783" lon="11.4063049"><ele>341.0</ele><time>2026-05-02T16:18:51.66Z</time></trkpt><trkpt lat="43.3657839" lon="11.4062568"><ele>342.0</ele><time>2026-05-02T16:18:52.672Z</time></trkpt><trkpt lat="43.3658737" lon="11.4062078"><ele>343.0</ele><time>2026-05-02T16:18:53.677Z</time></trkpt><trkpt lat="43.3659534" lon="11.4061315"><ele>344.0</ele><time>2026-05-02T16:18:54.669Z</time></trkpt><trkpt lat="43.3660132" lon="11.406022"><ele>344.0</ele><time>2026-05-02T16:18:55.671Z</time></trkpt><trkpt lat="43.366074" lon="11.4058679"><ele>344.0</ele><time>2026-05-02T16:18:56.662Z</time></trkpt><trkpt lat="43.3661462" lon="11.4056877"><ele>344.0</ele><time>2026-05-02T16:18:57.67Z</time></trkpt><trkpt lat="43.3662139" lon="11.4054934"><ele>344.0</ele><time>2026-05-02T16:18:58.659Z</time></trkpt><trkpt lat="43.3662836" lon="11.405304"><ele>344.0</ele><time>2026-05-02T16:18:59.662Z</time></trkpt><trkpt lat="43.3663428" lon="11.4051432"><ele>344.0</ele><time>2026-05-02T16:19:00.66Z</time></trkpt><trkpt lat="43.3663975" lon="11.4050143"><ele>344.0</ele><time>2026-05-02T16:19:01.663Z</time></trkpt><trkpt lat="43.366449" lon="11.404894"><ele>344.0</ele><time>2026-05-02T16:19:02.688Z</time></trkpt><trkpt lat="43.366506" lon="11.4047896"><ele>344.0</ele><time>2026-05-02T16:19:03.665Z</time></trkpt><trkpt lat="43.366569" lon="11.4046845"><ele>345.25</ele><time>2026-05-02T16:19:04.66Z</time></trkpt><trkpt lat="43.3666435" lon="11.4045859"><ele>346.5</ele><time>2026-05-02T16:19:05.666Z</time></trkpt><trkpt lat="43.3667327" lon="11.4044949"><ele>347.75</ele><time>2026-05-02T16:19:06.662Z</time></trkpt><trkpt lat="43.3668374" lon="11.404414"><ele>349.0</ele><time>2026-05-02T16:19:07.673Z</time></trkpt><trkpt lat="43.3669572" lon="11.404353"><ele>349.0</ele><time>2026-05-02T16:19:08.672Z</time></trkpt><trkpt lat="43.367087" lon="11.4043162"><ele>349.0</ele><time>2026-05-02T16:19:09.68Z</time></trkpt><trkpt lat="43.3672168" lon="11.404296"><ele>349.0</ele><time>2026-05-02T16:19:10.67Z</time></trkpt><trkpt lat="43.3673465" lon="11.4042975"><ele>349.0</ele><time>2026-05-02T16:19:11.672Z</time></trkpt><trkpt lat="43.3674819" lon="11.4043243"><ele>349.0</ele><time>2026-05-02T16:19:12.662Z</time></trkpt><trkpt lat="43.3676231" lon="11.4043466"><ele>349.0</ele><time>2026-05-02T16:19:13.66Z</time></trkpt><trkpt lat="43.367764" lon="11.4043664"><ele>349.0</ele><time>2026-05-02T16:19:14.666Z</time></trkpt><trkpt lat="43.3679103" lon="11.4043962"><ele>349.0</ele><time>2026-05-02T16:19:15.667Z</time></trkpt><trkpt lat="43.3680622" lon="11.4044248"><ele>350.0</ele><time>2026-05-02T16:19:16.675Z</time></trkpt><trkpt lat="43.3682199" lon="11.4044514"><ele>351.0</ele><time>2026-05-02T16:19:17.671Z</time></trkpt><trkpt lat="43.3683822" lon="11.4044808"><ele>352.0</ele><time>2026-05-02T16:19:18.674Z</time></trkpt><trkpt lat="43.3685395" lon="11.4045001"><ele>352.0</ele><time>2026-05-02T16:19:19.67Z</time></trkpt><trkpt lat="43.3686875" lon="11.4045188"><ele>352.0</ele><time>2026-05-02T16:19:20.665Z</time></trkpt><trkpt lat="43.3688365" lon="11.4045224"><ele>352.0</ele><time>2026-05-02T16:19:21.667Z</time></trkpt><trkpt lat="43.3689912" lon="11.4045097"><ele>353.0</ele><time>2026-05-02T16:19:22.669Z</time></trkpt><trkpt lat="43.3691471" lon="11.4044973"><ele>354.0</ele><time>2026-05-02T16:19:23.67Z</time></trkpt><trkpt lat="43.3693139" lon="11.404489"><ele>355.0</ele><time>2026-05-02T16:19:24.686Z</time></trkpt><trkpt lat="43.3694888" lon="11.4044869"><ele>355.0</ele><time>2026-05-02T16:19:25.675Z</time></trkpt><trkpt lat="43.3696688" lon="11.404494"><ele>355.0</ele><time>2026-05-02T16:19:26.666Z</time></trkpt><trkpt lat="43.3698621" lon="11.4045"><ele>355.0</ele><time>2026-05-02T16:19:27.669Z</time></trkpt><trkpt lat="43.370047" lon="11.4045133"><ele>357.0</ele><time>2026-05-02T16:19:28.669Z</time></trkpt><trkpt lat="43.3702124" lon="11.4045226"><ele>359.0</ele><time>2026-05-02T16:19:29.671Z</time></trkpt><trkpt lat="43.3703614" lon="11.4045255"><ele>361.0</ele><time>2026-05-02T16:19:30.669Z</time></trkpt><trkpt lat="43.370505" lon="11.4045213"><ele>362.25</ele><time>2026-05-02T16:19:31.656Z</time></trkpt><trkpt lat="43.3706358" lon="11.4044964"><ele>363.5</ele><time>2026-05-02T16:19:32.669Z</time></trkpt><trkpt lat="43.3707576" lon="11.404454"><ele>364.75</ele><time>2026-05-02T16:19:33.665Z</time></trkpt><trkpt lat="43.3708695" lon="11.4043786"><ele>366.0</ele><time>2026-05-02T16:19:34.668Z</time></trkpt><trkpt lat="43.3709598" lon="11.40429"><ele>366.0</ele><time>2026-05-02T16:19:35.673Z</time></trkpt><trkpt lat="43.371029" lon="11.4042092"><ele>366.0</ele><time>2026-05-02T16:19:36.667Z</time></trkpt><trkpt lat="43.3710861" lon="11.4040985"><ele>366.0</ele><time>2026-05-02T16:19:37.664Z</time></trkpt><trkpt lat="43.3711411" lon="11.4039527"><ele>366.0</ele><time>2026-05-02T16:19:38.662Z</time></trkpt><trkpt lat="43.3712026" lon="11.4037943"><ele>366.0</ele><time>2026-05-02T16:19:39.662Z</time></trkpt><trkpt lat="43.3712769" lon="11.4036268"><ele>366.5</ele><time>2026-05-02T16:19:40.677Z</time></trkpt><trkpt lat="43.3713523" lon="11.4034496"><ele>367.0</ele><time>2026-05-02T16:19:41.674Z</time></trkpt><trkpt lat="43.3714231" lon="11.4032742"><ele>367.5</ele><time>2026-05-02T16:19:42.675Z</time></trkpt><trkpt lat="43.3714906" lon="11.403109"><ele>368.0</ele><time>2026-05-02T16:19:43.672Z</time></trkpt><trkpt lat="43.3715527" lon="11.4029466"><ele>370.75</ele><time>2026-05-02T16:19:44.668Z</time></trkpt><trkpt lat="43.3716184" lon="11.4027872"><ele>373.5</ele><time>2026-05-02T16:19:45.671Z</time></trkpt><trkpt lat="43.3716841" lon="11.402628"><ele>376.25</ele><time>2026-05-02T16:19:46.672Z</time></trkpt><trkpt lat="43.3717579" lon="11.4024629"><ele>379.0</ele><time>2026-05-02T16:19:47.669Z</time></trkpt><trkpt lat="43.3718173" lon="11.4023052"><ele>379.4</ele><time>2026-05-02T16:19:48.664Z</time></trkpt><trkpt lat="43.3718553" lon="11.4021639"><ele>379.79999999999995</ele><time>2026-05-02T16:19:49.665Z</time></trkpt><trkpt lat="43.3718763" lon="11.4020159"><ele>380.20000000000005</ele><time>2026-05-02T16:19:50.669Z</time></trkpt><trkpt lat="43.371888" lon="11.4018682"><ele>380.6</ele><time>2026-05-02T16:19:51.667Z</time></trkpt><trkpt lat="43.3719215" lon="11.4017228"><ele>381.0</ele><time>2026-05-02T16:19:52.667Z</time></trkpt><trkpt lat="43.3719751" lon="11.401591"><ele>381.0</ele><time>2026-05-02T16:19:53.672Z</time></trkpt><trkpt lat="43.3720481" lon="11.4014871"><ele>381.0</ele><time>2026-05-02T16:19:54.662Z</time></trkpt><trkpt lat="43.3721428" lon="11.4013932"><ele>381.0</ele><time>2026-05-02T16:19:55.67Z</time></trkpt><trkpt lat="43.3722394" lon="11.4013007"><ele>381.0</ele><time>2026-05-02T16:19:56.666Z</time></trkpt><trkpt lat="43.3723435" lon="11.4012024"><ele>382.25</ele><time>2026-05-02T16:19:57.664Z</time></trkpt><trkpt lat="43.3724519" lon="11.4010998"><ele>383.5</ele><time>2026-05-02T16:19:58.668Z</time></trkpt><trkpt lat="43.3725569" lon="11.4009867"><ele>384.75</ele><time>2026-05-02T16:19:59.673Z</time></trkpt><trkpt lat="43.3726567" lon="11.4008819"><ele>386.0</ele><time>2026-05-02T16:20:00.669Z</time></trkpt><trkpt lat="43.3727543" lon="11.4007738"><ele>386.0</ele><time>2026-05-02T16:20:01.66Z</time></trkpt><trkpt lat="43.3728592" lon="11.4006563"><ele>386.0</ele><time>2026-05-02T16:20:02.664Z</time></trkpt><trkpt lat="43.3729623" lon="11.4005373"><ele>386.0</ele><time>2026-05-02T16:20:03.681Z</time></trkpt><trkpt lat="43.3730647" lon="11.4004272"><ele>386.0</ele><time>2026-05-02T16:20:04.666Z</time></trkpt><trkpt lat="43.3731664" lon="11.4003332"><ele>385.25</ele><time>2026-05-02T16:20:05.665Z</time></trkpt><trkpt lat="43.3732837" lon="11.400251"><ele>384.5</ele><time>2026-05-02T16:20:06.669Z</time></trkpt><trkpt lat="43.3734006" lon="11.4001884"><ele>383.75</ele><time>2026-05-02T16:20:07.664Z</time></trkpt><trkpt lat="43.3735193" lon="11.4001345"><ele>383.0</ele><time>2026-05-02T16:20:08.668Z</time></trkpt><trkpt lat="43.3736453" lon="11.4000858"><ele>383.0</ele><time>2026-05-02T16:20:09.67Z</time></trkpt><trkpt lat="43.3737683" lon="11.4000375"><ele>383.0</ele><time>2026-05-02T16:20:10.661Z</time></trkpt><trkpt lat="43.3738939" lon="11.3999786"><ele>383.0</ele><time>2026-05-02T16:20:11.666Z</time></trkpt><trkpt lat="43.3740182" lon="11.3999146"><ele>383.0</ele><time>2026-05-02T16:20:12.663Z</time></trkpt><trkpt lat="43.3741315" lon="11.3998378"><ele>383.0</ele><time>2026-05-02T16:20:13.663Z</time></trkpt><trkpt lat="43.3742365" lon="11.3997546"><ele>383.0</ele><time>2026-05-02T16:20:14.673Z</time></trkpt><trkpt lat="43.3743414" lon="11.3996643"><ele>383.0</ele><time>2026-05-02T16:20:15.667Z</time></trkpt><trkpt lat="43.3744462" lon="11.3995609"><ele>383.0</ele><time>2026-05-02T16:20:16.664Z</time></trkpt><trkpt lat="43.3745519" lon="11.399453"><ele>382.75</ele><time>2026-05-02T16:20:17.674Z</time></trkpt><trkpt lat="43.3746535" lon="11.3993493"><ele>382.5</ele><time>2026-05-02T16:20:18.669Z</time></trkpt><trkpt lat="43.3747584" lon="11.3992349"><ele>382.25</ele><time>2026-05-02T16:20:19.667Z</time></trkpt><trkpt lat="43.3748599" lon="11.3991201"><ele>382.0</ele><time>2026-05-02T16:20:20.667Z</time></trkpt><trkpt lat="43.3749581" lon="11.3990039"><ele>382.0</ele><time>2026-05-02T16:20:21.673Z</time></trkpt><trkpt lat="43.3750625" lon="11.3988934"><ele>382.0</ele><time>2026-05-02T16:20:22.671Z</time></trkpt><trkpt lat="43.3751701" lon="11.3987826"><ele>382.0</ele><time>2026-05-02T16:20:23.671Z</time></trkpt><trkpt lat="43.3752806" lon="11.3986804"><ele>382.0</ele><time>2026-05-02T16:20:24.666Z</time></trkpt><trkpt lat="43.3753968" lon="11.3985894"><ele>382.25</ele><time>2026-05-02T16:20:25.672Z</time></trkpt><trkpt lat="43.3755176" lon="11.3985103"><ele>382.5</ele><time>2026-05-02T16:20:26.672Z</time></trkpt><trkpt lat="43.3756417" lon="11.3984412"><ele>382.75</ele><time>2026-05-02T16:20:27.671Z</time></trkpt><trkpt lat="43.3757698" lon="11.3983797"><ele>383.0</ele><time>2026-05-02T16:20:28.665Z</time></trkpt><trkpt lat="43.3758999" lon="11.3983252"><ele>383.0</ele><time>2026-05-02T16:20:29.669Z</time></trkpt><trkpt lat="43.3760293" lon="11.3982764"><ele>383.0</ele><time>2026-05-02T16:20:30.655Z</time></trkpt><trkpt lat="43.3761571" lon="11.3982309"><ele>383.0</ele><time>2026-05-02T16:20:31.683Z</time></trkpt><trkpt lat="43.376281" lon="11.3981876"><ele>383.0</ele><time>2026-05-02T16:20:32.668Z</time></trkpt><trkpt lat="43.3763962" lon="11.3981462"><ele>382.59999999999997</ele><time>2026-05-02T16:20:33.67Z</time></trkpt><trkpt lat="43.3765108" lon="11.3980983"><ele>382.2</ele><time>2026-05-02T16:20:34.67Z</time></trkpt><trkpt lat="43.3766102" lon="11.3980431"><ele>381.8</ele><time>2026-05-02T16:20:35.669Z</time></trkpt><trkpt lat="43.3766964" lon="11.397988"><ele>381.4</ele><time>2026-05-02T16:20:36.674Z</time></trkpt><trkpt lat="43.3767647" lon="11.3979287"><ele>381.0</ele><time>2026-05-02T16:20:37.674Z</time></trkpt><trkpt lat="43.3768192" lon="11.397862"><ele>382.0</ele><time>2026-05-02T16:20:38.663Z</time></trkpt><trkpt lat="43.3768649" lon="11.3977992"><ele>383.0</ele><time>2026-05-02T16:20:39.667Z</time></trkpt><trkpt lat="43.3769638" lon="11.3977016"><ele>384.0</ele><time>2026-05-02T16:20:41.662Z</time></trkpt><trkpt lat="43.3770572" lon="11.39762"><ele>385.0</ele><time>2026-05-02T16:20:43.668Z</time></trkpt><trkpt lat="43.3771421" lon="11.3975454"><ele>386.0</ele><time>2026-05-02T16:20:45.666Z</time></trkpt><trkpt lat="43.3772112" lon="11.3974571"><ele>386.0</ele><time>2026-05-02T16:21:21.668Z</time></trkpt><trkpt lat="43.377289" lon="11.3973675"><ele>386.0</ele><time>2026-05-02T16:21:23.676Z</time></trkpt><trkpt lat="43.377371" lon="11.3972912"><ele>386.0</ele><time>2026-05-02T16:21:25.673Z</time></trkpt><trkpt lat="43.3774767" lon="11.3972244"><ele>386.0</ele><time>2026-05-02T16:21:27.682Z</time></trkpt><trkpt lat="43.3776046" lon="11.3971608"><ele>386.49999999999994</ele><time>2026-05-02T16:21:29.662Z</time></trkpt><trkpt lat="43.3776867" lon="11.3971397"><ele>387.0</ele><time>2026-05-02T16:21:30.663Z</time></trkpt><trkpt lat="43.3777753" lon="11.3971292"><ele>387.5</ele><time>2026-05-02T16:21:31.67Z</time></trkpt><trkpt lat="43.3778605" lon="11.3971218"><ele>388.0</ele><time>2026-05-02T16:21:32.688Z</time></trkpt><trkpt lat="43.3779471" lon="11.3971162"><ele>388.49999999999994</ele><time>2026-05-02T16:21:33.664Z</time></trkpt><trkpt lat="43.3780387" lon="11.3971047"><ele>389.0</ele><time>2026-05-02T16:21:34.664Z</time></trkpt><trkpt lat="43.3781415" lon="11.3970772"><ele>390.25</ele><time>2026-05-02T16:21:35.672Z</time></trkpt><trkpt lat="43.3782572" lon="11.3970384"><ele>391.5</ele><time>2026-05-02T16:21:36.66Z</time></trkpt><trkpt lat="43.3783768" lon="11.3970011"><ele>392.75</ele><time>2026-05-02T16:21:37.684Z</time></trkpt><trkpt lat="43.3784989" lon="11.3969581"><ele>394.0</ele><time>2026-05-02T16:21:38.667Z</time></trkpt><trkpt lat="43.3786223" lon="11.3969124"><ele>394.0</ele><time>2026-05-02T16:21:39.664Z</time></trkpt><trkpt lat="43.3787512" lon="11.3968686"><ele>394.0</ele><time>2026-05-02T16:21:40.667Z</time></trkpt><trkpt lat="43.3788875" lon="11.3968205"><ele>394.0</ele><time>2026-05-02T16:21:41.67Z</time></trkpt><trkpt lat="43.3790312" lon="11.3967705"><ele>394.0</ele><time>2026-05-02T16:21:42.677Z</time></trkpt><trkpt lat="43.3791806" lon="11.3967148"><ele>396.0</ele><time>2026-05-02T16:21:43.667Z</time></trkpt><trkpt lat="43.3793338" lon="11.3966675"><ele>398.0</ele><time>2026-05-02T16:21:44.667Z</time></trkpt><trkpt lat="43.379489" lon="11.3966185"><ele>400.0</ele><time>2026-05-02T16:21:45.669Z</time></trkpt><trkpt lat="43.3796494" lon="11.3965744"><ele>401.33333333333337</ele><time>2026-05-02T16:21:46.669Z</time></trkpt><trkpt lat="43.3798064" lon="11.3965345"><ele>402.66666666666663</ele><time>2026-05-02T16:21:47.682Z</time></trkpt><trkpt lat="43.3799673" lon="11.396493"><ele>404.0</ele><time>2026-05-02T16:21:48.674Z</time></trkpt><trkpt lat="43.3801317" lon="11.3964485"><ele>404.0</ele><time>2026-05-02T16:21:49.675Z</time></trkpt><trkpt lat="43.3802994" lon="11.396404"><ele>404.0</ele><time>2026-05-02T16:21:50.665Z</time></trkpt><trkpt lat="43.3804677" lon="11.3963605"><ele>404.0</ele><time>2026-05-02T16:21:51.667Z</time></trkpt><trkpt lat="43.380624" lon="11.3963278"><ele>405.0</ele><time>2026-05-02T16:21:52.67Z</time></trkpt><trkpt lat="43.3807637" lon="11.3963044"><ele>406.0</ele><time>2026-05-02T16:21:53.673Z</time></trkpt><trkpt lat="43.380894" lon="11.3962899"><ele>407.0</ele><time>2026-05-02T16:21:54.669Z</time></trkpt><trkpt lat="43.3810281" lon="11.396286"><ele>408.0</ele><time>2026-05-02T16:21:55.664Z</time></trkpt><trkpt lat="43.381161" lon="11.3962882"><ele>408.0</ele><time>2026-05-02T16:21:56.661Z</time></trkpt><trkpt lat="43.381298" lon="11.3962835"><ele>408.0</ele><time>2026-05-02T16:21:57.667Z</time></trkpt><trkpt lat="43.3814436" lon="11.3962721"><ele>408.0</ele><time>2026-05-02T16:21:58.669Z</time></trkpt><trkpt lat="43.3815874" lon="11.3962536"><ele>408.0</ele><time>2026-05-02T16:21:59.667Z</time></trkpt><trkpt lat="43.3817333" lon="11.396236"><ele>408.5</ele><time>2026-05-02T16:22:00.682Z</time></trkpt><trkpt lat="43.3818719" lon="11.3962174"><ele>409.0</ele><time>2026-05-02T16:22:01.662Z</time></trkpt><trkpt lat="43.3820078" lon="11.396189"><ele>409.5</ele><time>2026-05-02T16:22:02.662Z</time></trkpt><trkpt lat="43.3821387" lon="11.3961614"><ele>410.0</ele><time>2026-05-02T16:22:03.66Z</time></trkpt><trkpt lat="43.3822601" lon="11.3961336"><ele>410.66666666666663</ele><time>2026-05-02T16:22:04.678Z</time></trkpt><trkpt lat="43.3823637" lon="11.3961071"><ele>411.3333333333333</ele><time>2026-05-02T16:22:05.677Z</time></trkpt><trkpt lat="43.3824624" lon="11.396086"><ele>412.0</ele><time>2026-05-02T16:22:06.672Z</time></trkpt><trkpt lat="43.3825428" lon="11.3960577"><ele>412.66666666666663</ele><time>2026-05-02T16:22:07.661Z</time></trkpt><trkpt lat="43.3826202" lon="11.3960304"><ele>413.3333333333333</ele><time>2026-05-02T16:22:08.67Z</time></trkpt><trkpt lat="43.3826962" lon="11.3960075"><ele>414.0</ele><time>2026-05-02T16:22:09.676Z</time></trkpt><trkpt lat="43.3827748" lon="11.3959858"><ele>414.0</ele><time>2026-05-02T16:22:10.67Z</time></trkpt><trkpt lat="43.3828593" lon="11.3959693"><ele>414.0</ele><time>2026-05-02T16:22:11.668Z</time></trkpt><trkpt lat="43.3829539" lon="11.3959513"><ele>414.0</ele><time>2026-05-02T16:22:12.693Z</time></trkpt><trkpt lat="43.383047" lon="11.3959214"><ele>414.0</ele><time>2026-05-02T16:22:13.665Z</time></trkpt><trkpt lat="43.3831465" lon="11.3958809"><ele>414.0</ele><time>2026-05-02T16:22:14.667Z</time></trkpt><trkpt lat="43.3832563" lon="11.395832"><ele>415.0</ele><time>2026-05-02T16:22:15.666Z</time></trkpt><trkpt lat="43.3833781" lon="11.3957828"><ele>416.0</ele><time>2026-05-02T16:22:16.686Z</time></trkpt><trkpt lat="43.3835069" lon="11.3957346"><ele>417.0</ele><time>2026-05-02T16:22:17.671Z</time></trkpt><trkpt lat="43.3836404" lon="11.3956864"><ele>418.0</ele><time>2026-05-02T16:22:18.665Z</time></trkpt><trkpt lat="43.3837805" lon="11.3956302"><ele>417.5</ele><time>2026-05-02T16:22:19.68Z</time></trkpt><trkpt lat="43.3839226" lon="11.3955742"><ele>417.0</ele><time>2026-05-02T16:22:20.667Z</time></trkpt><trkpt lat="43.384058" lon="11.3955187"><ele>416.5</ele><time>2026-05-02T16:22:21.676Z</time></trkpt><trkpt lat="43.38419" lon="11.3954761"><ele>416.0</ele><time>2026-05-02T16:22:22.663Z</time></trkpt><trkpt lat="43.3843157" lon="11.3954325"><ele>416.0</ele><time>2026-05-02T16:22:23.67Z</time></trkpt><trkpt lat="43.3844374" lon="11.3953803"><ele>416.0</ele><time>2026-05-02T16:22:24.686Z</time></trkpt><trkpt lat="43.3845491" lon="11.3953023"><ele>416.0</ele><time>2026-05-02T16:22:25.663Z</time></trkpt><trkpt lat="43.3846621" lon="11.3951954"><ele>416.0</ele><time>2026-05-02T16:22:26.668Z</time></trkpt><trkpt lat="43.3847722" lon="11.3950607"><ele>417.75</ele><time>2026-05-02T16:22:27.669Z</time></trkpt><trkpt lat="43.3848783" lon="11.3949084"><ele>419.5</ele><time>2026-05-02T16:22:28.675Z</time></trkpt><trkpt lat="43.3849785" lon="11.3947559"><ele>421.25</ele><time>2026-05-02T16:22:29.677Z</time></trkpt><trkpt lat="43.3850759" lon="11.3946074"><ele>423.0</ele><time>2026-05-02T16:22:30.659Z</time></trkpt><trkpt lat="43.3851711" lon="11.3944608"><ele>423.5</ele><time>2026-05-02T16:22:31.671Z</time></trkpt><trkpt lat="43.3852712" lon="11.3943137"><ele>424.0</ele><time>2026-05-02T16:22:32.672Z</time></trkpt><trkpt lat="43.3853677" lon="11.3941738"><ele>424.5</ele><time>2026-05-02T16:22:33.667Z</time></trkpt><trkpt lat="43.385463" lon="11.3940267"><ele>425.0</ele><time>2026-05-02T16:22:34.672Z</time></trkpt><trkpt lat="43.385562" lon="11.3938817"><ele>425.75</ele><time>2026-05-02T16:22:35.67Z</time></trkpt><trkpt lat="43.3856637" lon="11.3937371"><ele>426.5</ele><time>2026-05-02T16:22:36.685Z</time></trkpt><trkpt lat="43.3857628" lon="11.3935826"><ele>427.25</ele><time>2026-05-02T16:22:37.67Z</time></trkpt><trkpt lat="43.3858636" lon="11.3934326"><ele>428.0</ele><time>2026-05-02T16:22:38.664Z</time></trkpt><trkpt lat="43.3859679" lon="11.3932834"><ele>428.0</ele><time>2026-05-02T16:22:39.674Z</time></trkpt><trkpt lat="43.3860654" lon="11.3931321"><ele>428.0</ele><time>2026-05-02T16:22:40.668Z</time></trkpt><trkpt lat="43.3861657" lon="11.3929762"><ele>428.0</ele><time>2026-05-02T16:22:41.676Z</time></trkpt><trkpt lat="43.3862689" lon="11.3928375"><ele>428.0</ele><time>2026-05-02T16:22:42.661Z</time></trkpt><trkpt lat="43.386377" lon="11.3927069"><ele>428.75</ele><time>2026-05-02T16:22:43.668Z</time></trkpt><trkpt lat="43.3864938" lon="11.3925919"><ele>429.5</ele><time>2026-05-02T16:22:44.667Z</time></trkpt><trkpt lat="43.3866159" lon="11.3924778"><ele>430.25</ele><time>2026-05-02T16:22:45.674Z</time></trkpt><trkpt lat="43.3867354" lon="11.3923733"><ele>431.0</ele><time>2026-05-02T16:22:46.67Z</time></trkpt><trkpt lat="43.3868499" lon="11.3922529"><ele>430.66666666666663</ele><time>2026-05-02T16:22:47.678Z</time></trkpt><trkpt lat="43.3869666" lon="11.3921248"><ele>430.33333333333337</ele><time>2026-05-02T16:22:48.661Z</time></trkpt><trkpt lat="43.3870746" lon="11.3919807"><ele>430.0</ele><time>2026-05-02T16:22:49.658Z</time></trkpt><trkpt lat="43.3871762" lon="11.3918222"><ele>431.33333333333337</ele><time>2026-05-02T16:22:50.674Z</time></trkpt><trkpt lat="43.3872821" lon="11.3916605"><ele>432.66666666666663</ele><time>2026-05-02T16:22:51.686Z</time></trkpt><trkpt lat="43.3873914" lon="11.3914969"><ele>434.0</ele><time>2026-05-02T16:22:52.662Z</time></trkpt><trkpt lat="43.3875021" lon="11.3913246"><ele>434.66666666666663</ele><time>2026-05-02T16:22:53.668Z</time></trkpt><trkpt lat="43.3876123" lon="11.3911523"><ele>435.33333333333337</ele><time>2026-05-02T16:22:54.68Z</time></trkpt><trkpt lat="43.3877142" lon="11.3909979"><ele>436.0</ele><time>2026-05-02T16:22:55.681Z</time></trkpt><trkpt lat="43.3878041" lon="11.3908612"><ele>436.0</ele><time>2026-05-02T16:22:56.671Z</time></trkpt><trkpt lat="43.3878819" lon="11.3907391"><ele>436.0</ele><time>2026-05-02T16:22:57.672Z</time></trkpt><trkpt lat="43.3879533" lon="11.3906306"><ele>436.0</ele><time>2026-05-02T16:22:58.664Z</time></trkpt><trkpt lat="43.3880122" lon="11.390526"><ele>436.0</ele><time>2026-05-02T16:22:59.66Z</time></trkpt><trkpt lat="43.3880587" lon="11.3904197"><ele>436.0</ele><time>2026-05-02T16:23:00.668Z</time></trkpt><trkpt lat="43.3880927" lon="11.3902903"><ele>434.0</ele><time>2026-05-02T16:23:01.665Z</time></trkpt><trkpt lat="43.388115" lon="11.3901447"><ele>432.0</ele><time>2026-05-02T16:23:02.663Z</time></trkpt><trkpt lat="43.3881443" lon="11.389975"><ele>430.0</ele><time>2026-05-02T16:23:03.664Z</time></trkpt><trkpt lat="43.3881813" lon="11.3898003"><ele>428.0</ele><time>2026-05-02T16:23:04.669Z</time></trkpt><trkpt lat="43.388234" lon="11.389618"><ele>427.75</ele><time>2026-05-02T16:23:05.681Z</time></trkpt><trkpt lat="43.3882979" lon="11.3894345"><ele>427.5</ele><time>2026-05-02T16:23:06.668Z</time></trkpt><trkpt lat="43.3883676" lon="11.3892673"><ele>427.25</ele><time>2026-05-02T16:23:07.653Z</time></trkpt><trkpt lat="43.388445" lon="11.3891006"><ele>427.0</ele><time>2026-05-02T16:23:08.666Z</time></trkpt><trkpt lat="43.3885186" lon="11.3889141"><ele>427.6666666666667</ele><time>2026-05-02T16:23:09.665Z</time></trkpt><trkpt lat="43.388602" lon="11.388726"><ele>428.33333333333337</ele><time>2026-05-02T16:23:10.681Z</time></trkpt><trkpt lat="43.3886874" lon="11.3885345"><ele>429.0</ele><time>2026-05-02T16:23:11.669Z</time></trkpt><trkpt lat="43.3887748" lon="11.3883357"><ele>426.66666666666663</ele><time>2026-05-02T16:23:12.673Z</time></trkpt><trkpt lat="43.3888584" lon="11.3881359"><ele>424.3333333333333</ele><time>2026-05-02T16:23:13.66Z</time></trkpt><trkpt lat="43.3889419" lon="11.3879303"><ele>422.0</ele><time>2026-05-02T16:23:14.674Z</time></trkpt><trkpt lat="43.3890193" lon="11.3877246"><ele>422.0</ele><time>2026-05-02T16:23:15.674Z</time></trkpt><trkpt lat="43.3891013" lon="11.3875166"><ele>422.0</ele><time>2026-05-02T16:23:16.668Z</time></trkpt><trkpt lat="43.3891912" lon="11.3873034"><ele>422.0</ele><time>2026-05-02T16:23:17.667Z</time></trkpt><trkpt lat="43.3892909" lon="11.3871134"><ele>423.0</ele><time>2026-05-02T16:23:18.676Z</time></trkpt><trkpt lat="43.3893956" lon="11.3869239"><ele>424.0</ele><time>2026-05-02T16:23:19.679Z</time></trkpt><trkpt lat="43.3894869" lon="11.38675"><ele>425.0</ele><time>2026-05-02T16:23:20.68Z</time></trkpt><trkpt lat="43.3895657" lon="11.3865817"><ele>425.0</ele><time>2026-05-02T16:23:21.662Z</time></trkpt><trkpt lat="43.3896337" lon="11.3864305"><ele>425.0</ele><time>2026-05-02T16:23:22.697Z</time></trkpt><trkpt lat="43.3896874" lon="11.3862933"><ele>425.0</ele><time>2026-05-02T16:23:23.671Z</time></trkpt><trkpt lat="43.3897336" lon="11.3861658"><ele>425.0</ele><time>2026-05-02T16:23:24.674Z</time></trkpt><trkpt lat="43.3897704" lon="11.3860518"><ele>425.0</ele><time>2026-05-02T16:23:25.671Z</time></trkpt><trkpt lat="43.3897923" lon="11.3859586"><ele>424.49999999999994</ele><time>2026-05-02T16:23:26.659Z</time></trkpt><trkpt lat="43.3898373" lon="11.3858373"><ele>424.0</ele><time>2026-05-02T16:23:28.677Z</time></trkpt><trkpt lat="43.3898492" lon="11.385746"><ele>423.5</ele><time>2026-05-02T16:23:32.671Z</time></trkpt><trkpt lat="43.3898998" lon="11.3856474"><ele>423.0</ele><time>2026-05-02T16:23:58.67Z</time></trkpt><trkpt lat="43.3899941" lon="11.38559"><ele>422.49999999999994</ele><time>2026-05-02T16:24:00.671Z</time></trkpt><trkpt lat="43.3900543" lon="11.3855642"><ele>422.0</ele><time>2026-05-02T16:24:01.679Z</time></trkpt><trkpt lat="43.3901163" lon="11.3855266"><ele>422.16666666666663</ele><time>2026-05-02T16:24:02.676Z</time></trkpt><trkpt lat="43.3901798" lon="11.385483"><ele>422.3333333333333</ele><time>2026-05-02T16:24:03.675Z</time></trkpt><trkpt lat="43.3902541" lon="11.3854343"><ele>422.5</ele><time>2026-05-02T16:24:04.675Z</time></trkpt><trkpt lat="43.3903427" lon="11.3853749"><ele>422.66666666666663</ele><time>2026-05-02T16:24:05.673Z</time></trkpt><trkpt lat="43.3904208" lon="11.3853272"><ele>422.8333333333333</ele><time>2026-05-02T16:24:06.666Z</time></trkpt><trkpt lat="43.3905005" lon="11.3852775"><ele>423.0</ele><time>2026-05-02T16:24:07.669Z</time></trkpt><trkpt lat="43.3905699" lon="11.3852183"><ele>423.2</ele><time>2026-05-02T16:24:08.668Z</time></trkpt><trkpt lat="43.3906559" lon="11.3851521"><ele>423.4</ele><time>2026-05-02T16:24:09.672Z</time></trkpt><trkpt lat="43.3907503" lon="11.3850707"><ele>423.59999999999997</ele><time>2026-05-02T16:24:10.676Z</time></trkpt><trkpt lat="43.3908486" lon="11.3849874"><ele>423.79999999999995</ele><time>2026-05-02T16:24:11.685Z</time></trkpt><trkpt lat="43.3909413" lon="11.3849007"><ele>424.0</ele><time>2026-05-02T16:24:12.678Z</time></trkpt><trkpt lat="43.3910394" lon="11.3848152"><ele>424.0</ele><time>2026-05-02T16:24:13.676Z</time></trkpt><trkpt lat="43.3911411" lon="11.3847268"><ele>424.0</ele><time>2026-05-02T16:24:14.682Z</time></trkpt><trkpt lat="43.3912532" lon="11.3846364"><ele>424.0</ele><time>2026-05-02T16:24:15.668Z</time></trkpt><trkpt lat="43.391371" lon="11.3845391"><ele>424.0</ele><time>2026-05-02T16:24:16.662Z</time></trkpt><trkpt lat="43.3914884" lon="11.3844373"><ele>424.25</ele><time>2026-05-02T16:24:17.675Z</time></trkpt><trkpt lat="43.3916018" lon="11.3843361"><ele>424.5</ele><time>2026-05-02T16:24:18.668Z</time></trkpt><trkpt lat="43.3917072" lon="11.3842452"><ele>424.75</ele><time>2026-05-02T16:24:19.672Z</time></trkpt><trkpt lat="43.3917948" lon="11.3841446"><ele>425.0</ele><time>2026-05-02T16:24:20.676Z</time></trkpt><trkpt lat="43.3918709" lon="11.3840213"><ele>425.0</ele><time>2026-05-02T16:24:21.666Z</time></trkpt><trkpt lat="43.3919326" lon="11.3838855"><ele>425.0</ele><time>2026-05-02T16:24:22.667Z</time></trkpt><trkpt lat="43.391964" lon="11.3837344"><ele>425.0</ele><time>2026-05-02T16:24:23.67Z</time></trkpt><trkpt lat="43.3919758" lon="11.3835592"><ele>425.0</ele><time>2026-05-02T16:24:24.665Z</time></trkpt><trkpt lat="43.3919845" lon="11.3833841"><ele>425.0</ele><time>2026-05-02T16:24:25.666Z</time></trkpt><trkpt lat="43.3920044" lon="11.3832068"><ele>425.0</ele><time>2026-05-02T16:24:26.686Z</time></trkpt><trkpt lat="43.3920558" lon="11.383023"><ele>425.0</ele><time>2026-05-02T16:24:27.668Z</time></trkpt><trkpt lat="43.392118" lon="11.3828567"><ele>425.0</ele><time>2026-05-02T16:24:28.673Z</time></trkpt><trkpt lat="43.3921976" lon="11.3827083"><ele>425.0</ele><time>2026-05-02T16:24:29.681Z</time></trkpt><trkpt lat="43.3922826" lon="11.3825683"><ele>425.0</ele><time>2026-05-02T16:24:30.685Z</time></trkpt><trkpt lat="43.3923819" lon="11.3824357"><ele>425.0</ele><time>2026-05-02T16:24:31.674Z</time></trkpt><trkpt lat="43.3924973" lon="11.3823144"><ele>425.0</ele><time>2026-05-02T16:24:32.663Z</time></trkpt><trkpt lat="43.392625" lon="11.3822006"><ele>425.3333333333333</ele><time>2026-05-02T16:24:33.676Z</time></trkpt><trkpt lat="43.3927648" lon="11.3820939"><ele>425.66666666666663</ele><time>2026-05-02T16:24:34.674Z</time></trkpt><trkpt lat="43.3929026" lon="11.3819909"><ele>426.0</ele><time>2026-05-02T16:24:35.669Z</time></trkpt><trkpt lat="43.393039" lon="11.3818805"><ele>424.33333333333337</ele><time>2026-05-02T16:24:36.671Z</time></trkpt><trkpt lat="43.3931772" lon="11.3817764"><ele>422.6666666666667</ele><time>2026-05-02T16:24:37.664Z</time></trkpt><trkpt lat="43.3933221" lon="11.3816632"><ele>421.0</ele><time>2026-05-02T16:24:38.667Z</time></trkpt><trkpt lat="43.3934778" lon="11.3815489"><ele>421.0</ele><time>2026-05-02T16:24:39.672Z</time></trkpt><trkpt lat="43.3936368" lon="11.3814391"><ele>421.0</ele><time>2026-05-02T16:24:40.665Z</time></trkpt><trkpt lat="43.3938033" lon="11.3813339"><ele>421.0</ele><time>2026-05-02T16:24:41.673Z</time></trkpt><trkpt lat="43.3939765" lon="11.3812413"><ele>419.0</ele><time>2026-05-02T16:24:42.662Z</time></trkpt><trkpt lat="43.3941462" lon="11.3811697"><ele>417.0</ele><time>2026-05-02T16:24:43.68Z</time></trkpt><trkpt lat="43.3943263" lon="11.3811024"><ele>415.0</ele><time>2026-05-02T16:24:44.669Z</time></trkpt><trkpt lat="43.3945082" lon="11.3810521"><ele>415.33333333333337</ele><time>2026-05-02T16:24:45.69Z</time></trkpt><trkpt lat="43.3946879" lon="11.3810131"><ele>415.66666666666663</ele><time>2026-05-02T16:24:46.67Z</time></trkpt><trkpt lat="43.3948645" lon="11.3809982"><ele>416.0</ele><time>2026-05-02T16:24:47.662Z</time></trkpt><trkpt lat="43.3950449" lon="11.3809869"><ele>416.0</ele><time>2026-05-02T16:24:48.669Z</time></trkpt><trkpt lat="43.3952271" lon="11.3809913"><ele>416.0</ele><time>2026-05-02T16:24:49.671Z</time></trkpt><trkpt lat="43.3954061" lon="11.3810087"><ele>416.0</ele><time>2026-05-02T16:24:50.671Z</time></trkpt><trkpt lat="43.3955735" lon="11.3810394"><ele>414.66666666666663</ele><time>2026-05-02T16:24:51.674Z</time></trkpt><trkpt lat="43.395733" lon="11.3810497"><ele>413.33333333333337</ele><time>2026-05-02T16:24:52.661Z</time></trkpt><trkpt lat="43.3958932" lon="11.3810572"><ele>412.0</ele><time>2026-05-02T16:24:53.676Z</time></trkpt><trkpt lat="43.3960474" lon="11.3810315"><ele>412.0</ele><time>2026-05-02T16:24:54.67Z</time></trkpt><trkpt lat="43.3962026" lon="11.3809584"><ele>412.0</ele><time>2026-05-02T16:24:55.669Z</time></trkpt><trkpt lat="43.3963277" lon="11.3808418"><ele>412.0</ele><time>2026-05-02T16:24:56.676Z</time></trkpt><trkpt lat="43.3964283" lon="11.3807009"><ele>411.0</ele><time>2026-05-02T16:24:57.687Z</time></trkpt><trkpt lat="43.3965112" lon="11.3805358"><ele>410.0</ele><time>2026-05-02T16:24:58.678Z</time></trkpt><trkpt lat="43.3965827" lon="11.3803334"><ele>409.0</ele><time>2026-05-02T16:24:59.666Z</time></trkpt><trkpt lat="43.3966415" lon="11.3801109"><ele>409.0</ele><time>2026-05-02T16:25:00.67Z</time></trkpt><trkpt lat="43.3966822" lon="11.3798825"><ele>409.0</ele><time>2026-05-02T16:25:01.665Z</time></trkpt><trkpt lat="43.3967208" lon="11.3796602"><ele>409.0</ele><time>2026-05-02T16:25:02.671Z</time></trkpt><trkpt lat="43.3967614" lon="11.3794499"><ele>410.25</ele><time>2026-05-02T16:25:03.679Z</time></trkpt><trkpt lat="43.3968018" lon="11.3792709"><ele>411.5</ele><time>2026-05-02T16:25:04.654Z</time></trkpt><trkpt lat="43.3968368" lon="11.3791074"><ele>412.75</ele><time>2026-05-02T16:25:05.673Z</time></trkpt><trkpt lat="43.3968616" lon="11.3789566"><ele>414.0</ele><time>2026-05-02T16:25:06.665Z</time></trkpt><trkpt lat="43.3968926" lon="11.3788205"><ele>414.79999999999995</ele><time>2026-05-02T16:25:07.677Z</time></trkpt><trkpt lat="43.3969294" lon="11.3786968"><ele>415.59999999999997</ele><time>2026-05-02T16:25:08.667Z</time></trkpt><trkpt lat="43.3969776" lon="11.3785727"><ele>416.4</ele><time>2026-05-02T16:25:09.668Z</time></trkpt><trkpt lat="43.3970362" lon="11.3784596"><ele>417.2</ele><time>2026-05-02T16:25:10.667Z</time></trkpt><trkpt lat="43.3970956" lon="11.3783496"><ele>418.0</ele><time>2026-05-02T16:25:11.664Z</time></trkpt><trkpt lat="43.3971557" lon="11.3782327"><ele>418.25</ele><time>2026-05-02T16:25:12.669Z</time></trkpt><trkpt lat="43.3972256" lon="11.3781043"><ele>418.5</ele><time>2026-05-02T16:25:13.666Z</time></trkpt><trkpt lat="43.3972974" lon="11.3779806"><ele>418.75</ele><time>2026-05-02T16:25:14.668Z</time></trkpt><trkpt lat="43.397369" lon="11.3778526"><ele>419.0</ele><time>2026-05-02T16:25:15.677Z</time></trkpt><trkpt lat="43.397449" lon="11.3777216"><ele>419.0</ele><time>2026-05-02T16:25:16.66Z</time></trkpt><trkpt lat="43.3975371" lon="11.3775892"><ele>419.0</ele><time>2026-05-02T16:25:17.672Z</time></trkpt><trkpt lat="43.3976241" lon="11.3774525"><ele>419.0</ele><time>2026-05-02T16:25:18.685Z</time></trkpt><trkpt lat="43.3977166" lon="11.3773184"><ele>419.0</ele><time>2026-05-02T16:25:19.669Z</time></trkpt><trkpt lat="43.397814" lon="11.3771815"><ele>418.5</ele><time>2026-05-02T16:25:20.667Z</time></trkpt><trkpt lat="43.3979145" lon="11.3770417"><ele>418.0</ele><time>2026-05-02T16:25:21.665Z</time></trkpt><trkpt lat="43.3980171" lon="11.3769095"><ele>417.5</ele><time>2026-05-02T16:25:22.665Z</time></trkpt><trkpt lat="43.3981226" lon="11.3767746"><ele>417.0</ele><time>2026-05-02T16:25:23.681Z</time></trkpt><trkpt lat="43.3982316" lon="11.3766398"><ele>418.0</ele><time>2026-05-02T16:25:24.67Z</time></trkpt><trkpt lat="43.398347" lon="11.3765031"><ele>419.0</ele><time>2026-05-02T16:25:25.662Z</time></trkpt><trkpt lat="43.3984652" lon="11.3763844"><ele>420.0</ele><time>2026-05-02T16:25:26.672Z</time></trkpt><trkpt lat="43.3985892" lon="11.3762747"><ele>421.0</ele><time>2026-05-02T16:25:27.669Z</time></trkpt><trkpt lat="43.3987133" lon="11.3761849"><ele>422.75</ele><time>2026-05-02T16:25:28.671Z</time></trkpt><trkpt lat="43.3988358" lon="11.3761155"><ele>424.5</ele><time>2026-05-02T16:25:29.67Z</time></trkpt><trkpt lat="43.3989632" lon="11.3760603"><ele>426.25</ele><time>2026-05-02T16:25:30.666Z</time></trkpt><trkpt lat="43.3990887" lon="11.3760222"><ele>428.0</ele><time>2026-05-02T16:25:31.662Z</time></trkpt><trkpt lat="43.3992163" lon="11.3759887"><ele>428.0</ele><time>2026-05-02T16:25:32.67Z</time></trkpt><trkpt lat="43.3993388" lon="11.3759526"><ele>428.0</ele><time>2026-05-02T16:25:33.674Z</time></trkpt><trkpt lat="43.3994527" lon="11.3759086"><ele>428.0</ele><time>2026-05-02T16:25:34.664Z</time></trkpt><trkpt lat="43.3995573" lon="11.3758502"><ele>428.0</ele><time>2026-05-02T16:25:35.665Z</time></trkpt><trkpt lat="43.3996366" lon="11.3757669"><ele>429.25</ele><time>2026-05-02T16:25:36.667Z</time></trkpt><trkpt lat="43.3997095" lon="11.375684"><ele>430.5</ele><time>2026-05-02T16:25:37.67Z</time></trkpt><trkpt lat="43.3997934" lon="11.3755613"><ele>431.75</ele><time>2026-05-02T16:25:38.672Z</time></trkpt><trkpt lat="43.3998732" lon="11.3754186"><ele>433.0</ele><time>2026-05-02T16:25:39.668Z</time></trkpt><trkpt lat="43.3999497" lon="11.3752738"><ele>433.75</ele><time>2026-05-02T16:25:40.669Z</time></trkpt><trkpt lat="43.4000217" lon="11.3751401"><ele>434.5</ele><time>2026-05-02T16:25:41.666Z</time></trkpt><trkpt lat="43.4000914" lon="11.3750101"><ele>435.25</ele><time>2026-05-02T16:25:42.667Z</time></trkpt><trkpt lat="43.4001668" lon="11.3748889"><ele>436.0</ele><time>2026-05-02T16:25:43.672Z</time></trkpt><trkpt lat="43.4002429" lon="11.3747696"><ele>436.0</ele><time>2026-05-02T16:25:44.67Z</time></trkpt><trkpt lat="43.4003186" lon="11.3746376"><ele>436.0</ele><time>2026-05-02T16:25:45.677Z</time></trkpt><trkpt lat="43.4003996" lon="11.3744849"><ele>436.0</ele><time>2026-05-02T16:25:46.67Z</time></trkpt><trkpt lat="43.4004658" lon="11.3743227"><ele>436.0</ele><time>2026-05-02T16:25:47.671Z</time></trkpt><trkpt lat="43.4005203" lon="11.3741922"><ele>436.0</ele><time>2026-05-02T16:25:48.667Z</time></trkpt><trkpt lat="43.4005625" lon="11.3740645"><ele>436.0</ele><time>2026-05-02T16:25:49.66Z</time></trkpt><trkpt lat="43.4005972" lon="11.3739383"><ele>436.0</ele><time>2026-05-02T16:25:50.669Z</time></trkpt><trkpt lat="43.4006285" lon="11.3738016"><ele>436.0</ele><time>2026-05-02T16:25:51.673Z</time></trkpt><trkpt lat="43.4006582" lon="11.3736645"><ele>436.0</ele><time>2026-05-02T16:25:52.686Z</time></trkpt><trkpt lat="43.4006918" lon="11.3735267"><ele>436.0</ele><time>2026-05-02T16:25:53.674Z</time></trkpt><trkpt lat="43.4007388" lon="11.3733811"><ele>436.0</ele><time>2026-05-02T16:25:54.685Z</time></trkpt><trkpt lat="43.4007893" lon="11.3732405"><ele>436.0</ele><time>2026-05-02T16:25:55.674Z</time></trkpt><trkpt lat="43.4008512" lon="11.3731271"><ele>436.0</ele><time>2026-05-02T16:25:56.675Z</time></trkpt><trkpt lat="43.4009317" lon="11.3730266"><ele>436.0</ele><time>2026-05-02T16:25:57.673Z</time></trkpt><trkpt lat="43.4010162" lon="11.3729364"><ele>436.0</ele><time>2026-05-02T16:25:58.665Z</time></trkpt><trkpt lat="43.4010947" lon="11.37284"><ele>436.0</ele><time>2026-05-02T16:25:59.67Z</time></trkpt><trkpt lat="43.4011543" lon="11.3727453"><ele>436.0</ele><time>2026-05-02T16:26:00.666Z</time></trkpt><trkpt lat="43.4012139" lon="11.372636"><ele>436.0</ele><time>2026-05-02T16:26:01.667Z</time></trkpt><trkpt lat="43.401267" lon="11.3725081"><ele>436.0</ele><time>2026-05-02T16:26:02.673Z</time></trkpt><trkpt lat="43.4013071" lon="11.3723742"><ele>436.0</ele><time>2026-05-02T16:26:03.672Z</time></trkpt><trkpt lat="43.4013245" lon="11.372227"><ele>436.0</ele><time>2026-05-02T16:26:04.675Z</time></trkpt><trkpt lat="43.4013165" lon="11.3720562"><ele>436.0</ele><time>2026-05-02T16:26:05.667Z</time></trkpt><trkpt lat="43.401311" lon="11.3718726"><ele>436.0</ele><time>2026-05-02T16:26:06.663Z</time></trkpt><trkpt lat="43.4013002" lon="11.3716855"><ele>435.5</ele><time>2026-05-02T16:26:07.664Z</time></trkpt><trkpt lat="43.4012928" lon="11.3714922"><ele>435.0</ele><time>2026-05-02T16:26:08.681Z</time></trkpt><trkpt lat="43.4012927" lon="11.3712949"><ele>434.5</ele><time>2026-05-02T16:26:09.677Z</time></trkpt><trkpt lat="43.4012916" lon="11.3711069"><ele>434.0</ele><time>2026-05-02T16:26:10.66Z</time></trkpt><trkpt lat="43.4013009" lon="11.3709222"><ele>433.0</ele><time>2026-05-02T16:26:11.683Z</time></trkpt><trkpt lat="43.4013212" lon="11.3707354"><ele>432.0</ele><time>2026-05-02T16:26:12.675Z</time></trkpt><trkpt lat="43.4013584" lon="11.3705464"><ele>431.0</ele><time>2026-05-02T16:26:13.684Z</time></trkpt><trkpt lat="43.4014096" lon="11.3703607"><ele>430.0</ele><time>2026-05-02T16:26:14.676Z</time></trkpt><trkpt lat="43.4014674" lon="11.3701851"><ele>430.0</ele><time>2026-05-02T16:26:15.667Z</time></trkpt><trkpt lat="43.4015332" lon="11.3700055"><ele>430.0</ele><time>2026-05-02T16:26:16.671Z</time></trkpt><trkpt lat="43.401589" lon="11.3698215"><ele>430.0</ele><time>2026-05-02T16:26:17.669Z</time></trkpt><trkpt lat="43.4016394" lon="11.3696321"><ele>430.0</ele><time>2026-05-02T16:26:18.673Z</time></trkpt><trkpt lat="43.4016726" lon="11.3694317"><ele>430.0</ele><time>2026-05-02T16:26:19.675Z</time></trkpt><trkpt lat="43.4016975" lon="11.369256"><ele>430.0</ele><time>2026-05-02T16:26:20.661Z</time></trkpt><trkpt lat="43.4017188" lon="11.3690961"><ele>430.0</ele><time>2026-05-02T16:26:21.669Z</time></trkpt><trkpt lat="43.4017336" lon="11.3689386"><ele>430.0</ele><time>2026-05-02T16:26:22.672Z</time></trkpt><trkpt lat="43.4017398" lon="11.3687689"><ele>430.5</ele><time>2026-05-02T16:26:23.672Z</time></trkpt><trkpt lat="43.4017414" lon="11.3685972"><ele>431.0</ele><time>2026-05-02T16:26:24.668Z</time></trkpt><trkpt lat="43.401733" lon="11.3684168"><ele>431.5</ele><time>2026-05-02T16:26:25.675Z</time></trkpt><trkpt lat="43.4017231" lon="11.3682406"><ele>432.0</ele><time>2026-05-02T16:26:26.674Z</time></trkpt><trkpt lat="43.4017122" lon="11.3680538"><ele>432.5</ele><time>2026-05-02T16:26:27.666Z</time></trkpt><trkpt lat="43.4016927" lon="11.3678554"><ele>433.0</ele><time>2026-05-02T16:26:28.667Z</time></trkpt><trkpt lat="43.4016783" lon="11.3676644"><ele>433.5</ele><time>2026-05-02T16:26:29.691Z</time></trkpt><trkpt lat="43.4016589" lon="11.3674887"><ele>434.0</ele><time>2026-05-02T16:26:30.675Z</time></trkpt><trkpt lat="43.4016335" lon="11.3673004"><ele>434.3333333333333</ele><time>2026-05-02T16:26:31.679Z</time></trkpt><trkpt lat="43.4015879" lon="11.367107"><ele>434.66666666666663</ele><time>2026-05-02T16:26:32.677Z</time></trkpt><trkpt lat="43.4015276" lon="11.3669168"><ele>435.0</ele><time>2026-05-02T16:26:33.672Z</time></trkpt><trkpt lat="43.4014572" lon="11.3667328"><ele>435.0</ele><time>2026-05-02T16:26:34.668Z</time></trkpt><trkpt lat="43.4013899" lon="11.3665498"><ele>435.0</ele><time>2026-05-02T16:26:35.679Z</time></trkpt><trkpt lat="43.4013391" lon="11.3663727"><ele>435.0</ele><time>2026-05-02T16:26:36.665Z</time></trkpt><trkpt lat="43.4012962" lon="11.366188"><ele>435.0</ele><time>2026-05-02T16:26:37.669Z</time></trkpt><trkpt lat="43.4012577" lon="11.3660028"><ele>436.0</ele><time>2026-05-02T16:26:38.667Z</time></trkpt><trkpt lat="43.4012289" lon="11.3658219"><ele>437.0</ele><time>2026-05-02T16:26:39.666Z</time></trkpt><trkpt lat="43.40121" lon="11.3656613"><ele>438.0</ele><time>2026-05-02T16:26:40.672Z</time></trkpt><trkpt lat="43.4011866" lon="11.3655291"><ele>439.0</ele><time>2026-05-02T16:26:41.666Z</time></trkpt><trkpt lat="43.4011682" lon="11.3654314"><ele>440.0</ele><time>2026-05-02T16:26:42.668Z</time></trkpt><trkpt lat="43.4011514" lon="11.3653362"><ele>440.0</ele><time>2026-05-02T16:26:43.672Z</time></trkpt><trkpt lat="43.4011287" lon="11.3652304"><ele>440.0</ele><time>2026-05-02T16:26:44.663Z</time></trkpt><trkpt lat="43.4011061" lon="11.3651137"><ele>440.0</ele><time>2026-05-02T16:26:45.677Z</time></trkpt><trkpt lat="43.401085" lon="11.3649874"><ele>440.0</ele><time>2026-05-02T16:26:46.675Z</time></trkpt><trkpt lat="43.4010588" lon="11.3648484"><ele>440.0</ele><time>2026-05-02T16:26:47.686Z</time></trkpt><trkpt lat="43.4010249" lon="11.3647"><ele>440.5</ele><time>2026-05-02T16:26:48.682Z</time></trkpt><trkpt lat="43.4009758" lon="11.3645519"><ele>441.0</ele><time>2026-05-02T16:26:49.668Z</time></trkpt><trkpt lat="43.400906" lon="11.3643967"><ele>441.5</ele><time>2026-05-02T16:26:50.671Z</time></trkpt><trkpt lat="43.4008476" lon="11.3642386"><ele>442.0</ele><time>2026-05-02T16:26:51.669Z</time></trkpt><trkpt lat="43.4008095" lon="11.3640893"><ele>442.0</ele><time>2026-05-02T16:26:52.675Z</time></trkpt><trkpt lat="43.4007859" lon="11.3639411"><ele>442.00000000000006</ele><time>2026-05-02T16:26:53.666Z</time></trkpt><trkpt lat="43.4007766" lon="11.363794"><ele>442.00000000000006</ele><time>2026-05-02T16:26:54.668Z</time></trkpt><trkpt lat="43.4007957" lon="11.3636526"><ele>442.0</ele><time>2026-05-02T16:26:55.672Z</time></trkpt><trkpt lat="43.400828" lon="11.3635206"><ele>442.0</ele><time>2026-05-02T16:26:56.673Z</time></trkpt><trkpt lat="43.4008679" lon="11.3634017"><ele>441.6</ele><time>2026-05-02T16:26:57.668Z</time></trkpt><trkpt lat="43.4009301" lon="11.3633164"><ele>441.20000000000005</ele><time>2026-05-02T16:26:58.666Z</time></trkpt><trkpt lat="43.4010122" lon="11.3632496"><ele>440.8</ele><time>2026-05-02T16:26:59.674Z</time></trkpt><trkpt lat="43.4011029" lon="11.3632059"><ele>440.4</ele><time>2026-05-02T16:27:00.667Z</time></trkpt><trkpt lat="43.4011968" lon="11.3631529"><ele>440.0</ele><time>2026-05-02T16:27:01.661Z</time></trkpt><trkpt lat="43.4012889" lon="11.3630798"><ele>441.8</ele><time>2026-05-02T16:27:02.672Z</time></trkpt><trkpt lat="43.4013519" lon="11.362984"><ele>443.6</ele><time>2026-05-02T16:27:03.666Z</time></trkpt><trkpt lat="43.4013967" lon="11.3628637"><ele>445.4</ele><time>2026-05-02T16:27:04.665Z</time></trkpt><trkpt lat="43.4014184" lon="11.3627218"><ele>447.2</ele><time>2026-05-02T16:27:05.673Z</time></trkpt><trkpt lat="43.4014243" lon="11.3625846"><ele>449.0</ele><time>2026-05-02T16:27:06.665Z</time></trkpt><trkpt lat="43.4014097" lon="11.3624314"><ele>448.99999999999994</ele><time>2026-05-02T16:27:07.665Z</time></trkpt><trkpt lat="43.4013858" lon="11.3623053"><ele>449.0</ele><time>2026-05-02T16:27:08.681Z</time></trkpt><trkpt lat="43.4013602" lon="11.3621929"><ele>449.0</ele><time>2026-05-02T16:27:09.666Z</time></trkpt><trkpt lat="43.4013468" lon="11.3620898"><ele>449.0</ele><time>2026-05-02T16:27:10.665Z</time></trkpt><trkpt lat="43.4013499" lon="11.3619999"><ele>448.99999999999994</ele><time>2026-05-02T16:27:11.67Z</time></trkpt><trkpt lat="43.4013854" lon="11.3619253"><ele>449.0</ele><time>2026-05-02T16:27:12.661Z</time></trkpt><trkpt lat="43.4014391" lon="11.3618499"><ele>447.75</ele><time>2026-05-02T16:27:13.685Z</time></trkpt><trkpt lat="43.4015164" lon="11.3617596"><ele>446.5</ele><time>2026-05-02T16:27:14.669Z</time></trkpt><trkpt lat="43.401609" lon="11.361664"><ele>445.25</ele><time>2026-05-02T16:27:15.657Z</time></trkpt><trkpt lat="43.4017045" lon="11.3615667"><ele>444.0</ele><time>2026-05-02T16:27:16.675Z</time></trkpt><trkpt lat="43.4018149" lon="11.3614448"><ele>443.25</ele><time>2026-05-02T16:27:17.671Z</time></trkpt><trkpt lat="43.401934" lon="11.3613066"><ele>442.5</ele><time>2026-05-02T16:27:18.662Z</time></trkpt><trkpt lat="43.4020376" lon="11.361176"><ele>441.75</ele><time>2026-05-02T16:27:19.665Z</time></trkpt><trkpt lat="43.4021465" lon="11.3610691"><ele>441.0</ele><time>2026-05-02T16:27:20.666Z</time></trkpt><trkpt lat="43.4022505" lon="11.3609737"><ele>441.0</ele><time>2026-05-02T16:27:21.674Z</time></trkpt><trkpt lat="43.402366" lon="11.3609103"><ele>441.0</ele><time>2026-05-02T16:27:22.661Z</time></trkpt><trkpt lat="43.4024927" lon="11.3608889"><ele>441.0</ele><time>2026-05-02T16:27:23.662Z</time></trkpt><trkpt lat="43.4026195" lon="11.3609017"><ele>441.0</ele><time>2026-05-02T16:27:24.667Z</time></trkpt><trkpt lat="43.402756" lon="11.3609282"><ele>441.0</ele><time>2026-05-02T16:27:25.675Z</time></trkpt><trkpt lat="43.4028896" lon="11.3609492"><ele>441.0</ele><time>2026-05-02T16:27:26.671Z</time></trkpt><trkpt lat="43.4030162" lon="11.3609456"><ele>441.0</ele><time>2026-05-02T16:27:27.666Z</time></trkpt><trkpt lat="43.4031372" lon="11.3609164"><ele>441.0</ele><time>2026-05-02T16:27:28.658Z</time></trkpt><trkpt lat="43.4032459" lon="11.3608863"><ele>440.6</ele><time>2026-05-02T16:27:29.68Z</time></trkpt><trkpt lat="43.4033308" lon="11.3608498"><ele>440.20000000000005</ele><time>2026-05-02T16:27:30.665Z</time></trkpt><trkpt lat="43.4034057" lon="11.3607953"><ele>439.79999999999995</ele><time>2026-05-02T16:27:31.673Z</time></trkpt><trkpt lat="43.4034803" lon="11.3607094"><ele>439.4</ele><time>2026-05-02T16:27:32.674Z</time></trkpt><trkpt lat="43.4035233" lon="11.3605908"><ele>439.0</ele><time>2026-05-02T16:27:33.668Z</time></trkpt><trkpt lat="43.4035336" lon="11.360454"><ele>439.0</ele><time>2026-05-02T16:27:34.673Z</time></trkpt><trkpt lat="43.4035352" lon="11.360312"><ele>439.0</ele><time>2026-05-02T16:27:35.678Z</time></trkpt><trkpt lat="43.4035335" lon="11.3601613"><ele>439.0</ele><time>2026-05-02T16:27:36.667Z</time></trkpt><trkpt lat="43.4035397" lon="11.3599888"><ele>439.0</ele><time>2026-05-02T16:27:37.666Z</time></trkpt><trkpt lat="43.4035656" lon="11.3598371"><ele>439.0</ele><time>2026-05-02T16:27:38.652Z</time></trkpt><trkpt lat="43.403593" lon="11.3597186"><ele>439.0</ele><time>2026-05-02T16:27:39.66Z</time></trkpt><trkpt lat="43.403613" lon="11.3596037"><ele>439.0</ele><time>2026-05-02T16:27:40.685Z</time></trkpt><trkpt lat="43.4036182" lon="11.3594744"><ele>439.0</ele><time>2026-05-02T16:27:41.666Z</time></trkpt><trkpt lat="43.4036026" lon="11.3593371"><ele>439.0</ele><time>2026-05-02T16:27:42.667Z</time></trkpt><trkpt lat="43.4035461" lon="11.3592031"><ele>440.5</ele><time>2026-05-02T16:27:43.67Z</time></trkpt><trkpt lat="43.4034524" lon="11.3590915"><ele>442.0</ele><time>2026-05-02T16:27:44.663Z</time></trkpt><trkpt lat="43.4033624" lon="11.3590039"><ele>443.5</ele><time>2026-05-02T16:27:45.661Z</time></trkpt><trkpt lat="43.4032624" lon="11.3589403"><ele>445.0</ele><time>2026-05-02T16:27:46.679Z</time></trkpt><trkpt lat="43.4031544" lon="11.3589034"><ele>445.0</ele><time>2026-05-02T16:27:47.666Z</time></trkpt><trkpt lat="43.4030658" lon="11.3588678"><ele>445.0</ele><time>2026-05-02T16:27:48.673Z</time></trkpt><trkpt lat="43.4029929" lon="11.3588038"><ele>445.0</ele><time>2026-05-02T16:27:49.679Z</time></trkpt><trkpt lat="43.4029388" lon="11.3587007"><ele>445.0</ele><time>2026-05-02T16:27:50.664Z</time></trkpt><trkpt lat="43.4029003" lon="11.3585639"><ele>445.0</ele><time>2026-05-02T16:27:51.672Z</time></trkpt><trkpt lat="43.4028737" lon="11.3584256"><ele>444.6</ele><time>2026-05-02T16:27:52.674Z</time></trkpt><trkpt lat="43.4028589" lon="11.3582874"><ele>444.2</ele><time>2026-05-02T16:27:53.66Z</time></trkpt><trkpt lat="43.4028401" lon="11.3581296"><ele>443.79999999999995</ele><time>2026-05-02T16:27:54.662Z</time></trkpt><trkpt lat="43.4028114" lon="11.3579675"><ele>443.4</ele><time>2026-05-02T16:27:55.666Z</time></trkpt><trkpt lat="43.4027778" lon="11.3578268"><ele>443.0</ele><time>2026-05-02T16:27:56.664Z</time></trkpt><trkpt lat="43.4027626" lon="11.3577055"><ele>443.0</ele><time>2026-05-02T16:27:57.665Z</time></trkpt><trkpt lat="43.4027808" lon="11.3575574"><ele>442.99999999999994</ele><time>2026-05-02T16:27:58.678Z</time></trkpt><trkpt lat="43.4028003" lon="11.35741"><ele>442.99999999999994</ele><time>2026-05-02T16:27:59.654Z</time></trkpt><trkpt lat="43.4028579" lon="11.3573075"><ele>443.0</ele><time>2026-05-02T16:28:00.66Z</time></trkpt><trkpt lat="43.4029301" lon="11.3572149"><ele>443.0</ele><time>2026-05-02T16:28:01.686Z</time></trkpt><trkpt lat="43.4030214" lon="11.357136"><ele>443.79999999999995</ele><time>2026-05-02T16:28:02.666Z</time></trkpt><trkpt lat="43.4031176" lon="11.3571022"><ele>444.59999999999997</ele><time>2026-05-02T16:28:03.67Z</time></trkpt><trkpt lat="43.403219" lon="11.3570848"><ele>445.40000000000003</ele><time>2026-05-02T16:28:04.674Z</time></trkpt><trkpt lat="43.4033315" lon="11.3570869"><ele>446.20000000000005</ele><time>2026-05-02T16:28:05.674Z</time></trkpt><trkpt lat="43.4034647" lon="11.357106"><ele>447.0</ele><time>2026-05-02T16:28:06.668Z</time></trkpt><trkpt lat="43.4035814" lon="11.3570952"><ele>447.0</ele><time>2026-05-02T16:28:07.674Z</time></trkpt><trkpt lat="43.4036706" lon="11.3570727"><ele>447.0</ele><time>2026-05-02T16:28:08.667Z</time></trkpt><trkpt lat="43.4037465" lon="11.3570351"><ele>447.0</ele><time>2026-05-02T16:28:09.662Z</time></trkpt><trkpt lat="43.4038084" lon="11.356975"><ele>447.0</ele><time>2026-05-02T16:28:10.681Z</time></trkpt><trkpt lat="43.4038654" lon="11.3568928"><ele>447.0</ele><time>2026-05-02T16:28:11.667Z</time></trkpt><trkpt lat="43.4038629" lon="11.3567651"><ele>447.0</ele><time>2026-05-02T16:28:12.682Z</time></trkpt><trkpt lat="43.4038187" lon="11.3566371"><ele>447.0</ele><time>2026-05-02T16:28:13.663Z</time></trkpt><trkpt lat="43.4037634" lon="11.3565114"><ele>447.00000000000006</ele><time>2026-05-02T16:28:14.673Z</time></trkpt><trkpt lat="43.403692" lon="11.3563881"><ele>447.00000000000006</ele><time>2026-05-02T16:28:15.667Z</time></trkpt><trkpt lat="43.4036242" lon="11.3562794"><ele>447.0</ele><time>2026-05-02T16:28:16.667Z</time></trkpt><trkpt lat="43.4035869" lon="11.3561691"><ele>447.0</ele><time>2026-05-02T16:28:17.67Z</time></trkpt><trkpt lat="43.40361" lon="11.3560607"><ele>446.8</ele><time>2026-05-02T16:28:18.669Z</time></trkpt><trkpt lat="43.4036683" lon="11.3559703"><ele>446.6</ele><time>2026-05-02T16:28:19.665Z</time></trkpt><trkpt lat="43.403745" lon="11.3558613"><ele>446.40000000000003</ele><time>2026-05-02T16:28:20.665Z</time></trkpt><trkpt lat="43.4038364" lon="11.3557684"><ele>446.20000000000005</ele><time>2026-05-02T16:28:21.672Z</time></trkpt><trkpt lat="43.4039505" lon="11.3556752"><ele>446.0</ele><time>2026-05-02T16:28:22.674Z</time></trkpt><trkpt lat="43.404077" lon="11.3556186"><ele>447.5</ele><time>2026-05-02T16:28:23.673Z</time></trkpt><trkpt lat="43.4042009" lon="11.3556018"><ele>449.0</ele><time>2026-05-02T16:28:24.672Z</time></trkpt><trkpt lat="43.4043315" lon="11.3556225"><ele>450.5</ele><time>2026-05-02T16:28:25.666Z</time></trkpt><trkpt lat="43.4044671" lon="11.3556544"><ele>452.0</ele><time>2026-05-02T16:28:26.684Z</time></trkpt><trkpt lat="43.4046053" lon="11.3557063"><ele>453.0</ele><time>2026-05-02T16:28:27.663Z</time></trkpt><trkpt lat="43.4047384" lon="11.3557914"><ele>454.0</ele><time>2026-05-02T16:28:28.659Z</time></trkpt><trkpt lat="43.4048601" lon="11.3558968"><ele>455.0</ele><time>2026-05-02T16:28:29.677Z</time></trkpt><trkpt lat="43.4049639" lon="11.3559835"><ele>456.0</ele><time>2026-05-02T16:28:30.662Z</time></trkpt><trkpt lat="43.4050644" lon="11.3560592"><ele>456.0</ele><time>2026-05-02T16:28:31.676Z</time></trkpt><trkpt lat="43.4051506" lon="11.3561131"><ele>456.0</ele><time>2026-05-02T16:28:32.666Z</time></trkpt><trkpt lat="43.4052153" lon="11.3561353"><ele>456.0</ele><time>2026-05-02T16:28:33.676Z</time></trkpt><trkpt lat="43.4053382" lon="11.3560706"><ele>456.0</ele><time>2026-05-02T16:28:35.655Z</time></trkpt><trkpt lat="43.405377" lon="11.3559588"><ele>456.0</ele><time>2026-05-02T16:28:36.664Z</time></trkpt><trkpt lat="43.4054141" lon="11.3558349"><ele>456.0</ele><time>2026-05-02T16:28:37.655Z</time></trkpt><trkpt lat="43.405449" lon="11.35571"><ele>456.0</ele><time>2026-05-02T16:28:38.655Z</time></trkpt><trkpt lat="43.405484" lon="11.3555954"><ele>456.0</ele><time>2026-05-02T16:28:39.657Z</time></trkpt><trkpt lat="43.4055456" lon="11.3555138"><ele>456.0</ele><time>2026-05-02T16:28:40.675Z</time></trkpt><trkpt lat="43.4056275" lon="11.3554803"><ele>456.0</ele><time>2026-05-02T16:28:41.657Z</time></trkpt><trkpt lat="43.4057108" lon="11.3554765"><ele>456.0</ele><time>2026-05-02T16:28:42.666Z</time></trkpt><trkpt lat="43.4058041" lon="11.3554982"><ele>457.75</ele><time>2026-05-02T16:28:43.658Z</time></trkpt><trkpt lat="43.4058989" lon="11.3555661"><ele>459.5</ele><time>2026-05-02T16:28:44.674Z</time></trkpt><trkpt lat="43.4060067" lon="11.3556714"><ele>461.25</ele><time>2026-05-02T16:28:45.669Z</time></trkpt><trkpt lat="43.4061226" lon="11.3557838"><ele>463.0</ele><time>2026-05-02T16:28:46.674Z</time></trkpt><trkpt lat="43.4062214" lon="11.3558806"><ele>463.00000000000006</ele><time>2026-05-02T16:28:47.674Z</time></trkpt><trkpt lat="43.4063082" lon="11.3559597"><ele>463.0</ele><time>2026-05-02T16:28:48.663Z</time></trkpt><trkpt lat="43.4063825" lon="11.3560184"><ele>463.0</ele><time>2026-05-02T16:28:49.672Z</time></trkpt><trkpt lat="43.4064549" lon="11.3560547"><ele>463.0</ele><time>2026-05-02T16:28:50.672Z</time></trkpt><trkpt lat="43.4065289" lon="11.3560774"><ele>463.00000000000006</ele><time>2026-05-02T16:28:51.683Z</time></trkpt><trkpt lat="43.406604" lon="11.3560634"><ele>463.0</ele><time>2026-05-02T16:28:52.671Z</time></trkpt><trkpt lat="43.4066633" lon="11.3560146"><ele>462.79999999999995</ele><time>2026-05-02T16:28:53.67Z</time></trkpt><trkpt lat="43.4067002" lon="11.3559251"><ele>462.59999999999997</ele><time>2026-05-02T16:28:54.659Z</time></trkpt><trkpt lat="43.406709" lon="11.3558252"><ele>462.40000000000003</ele><time>2026-05-02T16:28:55.666Z</time></trkpt><trkpt lat="43.4067037" lon="11.3557157"><ele>462.20000000000005</ele><time>2026-05-02T16:28:56.659Z</time></trkpt><trkpt lat="43.406683" lon="11.3555773"><ele>462.0</ele><time>2026-05-02T16:28:57.683Z</time></trkpt><trkpt lat="43.406653" lon="11.355407"><ele>462.0</ele><time>2026-05-02T16:28:58.67Z</time></trkpt><trkpt lat="43.4066165" lon="11.3552335"><ele>462.00000000000006</ele><time>2026-05-02T16:28:59.663Z</time></trkpt><trkpt lat="43.4065876" lon="11.3550854"><ele>462.00000000000006</ele><time>2026-05-02T16:29:00.672Z</time></trkpt><trkpt lat="43.4065837" lon="11.3549667"><ele>462.0</ele><time>2026-05-02T16:29:01.68Z</time></trkpt><trkpt lat="43.4066067" lon="11.3548423"><ele>462.0</ele><time>2026-05-02T16:29:02.66Z</time></trkpt><trkpt lat="43.4066552" lon="11.3547263"><ele>460.25</ele><time>2026-05-02T16:29:03.67Z</time></trkpt><trkpt lat="43.4067338" lon="11.3546384"><ele>458.5</ele><time>2026-05-02T16:29:04.668Z</time></trkpt><trkpt lat="43.4068341" lon="11.3545623"><ele>456.75</ele><time>2026-05-02T16:29:05.665Z</time></trkpt><trkpt lat="43.4069439" lon="11.3544836"><ele>455.0</ele><time>2026-05-02T16:29:06.668Z</time></trkpt><trkpt lat="43.407052" lon="11.3544191"><ele>455.0</ele><time>2026-05-02T16:29:07.674Z</time></trkpt><trkpt lat="43.4071503" lon="11.354382"><ele>455.0</ele><time>2026-05-02T16:29:08.667Z</time></trkpt><trkpt lat="43.407254" lon="11.3543716"><ele>455.0</ele><time>2026-05-02T16:29:09.667Z</time></trkpt><trkpt lat="43.4073587" lon="11.3543946"><ele>455.0</ele><time>2026-05-02T16:29:10.671Z</time></trkpt><trkpt lat="43.4074611" lon="11.3544258"><ele>455.0</ele><time>2026-05-02T16:29:11.661Z</time></trkpt><trkpt lat="43.4075429" lon="11.3544094"><ele>454.66666666666663</ele><time>2026-05-02T16:29:12.666Z</time></trkpt><trkpt lat="43.4076008" lon="11.3543447"><ele>454.3333333333333</ele><time>2026-05-02T16:29:13.658Z</time></trkpt><trkpt lat="43.4076394" lon="11.3542417"><ele>454.0</ele><time>2026-05-02T16:29:14.671Z</time></trkpt><trkpt lat="43.4076649" lon="11.3541209"><ele>453.66666666666663</ele><time>2026-05-02T16:29:15.672Z</time></trkpt><trkpt lat="43.407701" lon="11.3540016"><ele>453.3333333333333</ele><time>2026-05-02T16:29:16.663Z</time></trkpt><trkpt lat="43.4077528" lon="11.3538995"><ele>453.0</ele><time>2026-05-02T16:29:17.673Z</time></trkpt><trkpt lat="43.4078217" lon="11.3538096"><ele>453.0</ele><time>2026-05-02T16:29:18.669Z</time></trkpt><trkpt lat="43.4079132" lon="11.3537486"><ele>452.99999999999994</ele><time>2026-05-02T16:29:19.665Z</time></trkpt><trkpt lat="43.4080048" lon="11.3537384"><ele>452.99999999999994</ele><time>2026-05-02T16:29:20.655Z</time></trkpt><trkpt lat="43.408105" lon="11.3537959"><ele>453.0</ele><time>2026-05-02T16:29:21.664Z</time></trkpt><trkpt lat="43.4081961" lon="11.3538703"><ele>453.0</ele><time>2026-05-02T16:29:22.666Z</time></trkpt><trkpt lat="43.4082814" lon="11.3539713"><ele>456.79999999999995</ele><time>2026-05-02T16:29:23.657Z</time></trkpt><trkpt lat="43.4083631" lon="11.3540833"><ele>460.59999999999997</ele><time>2026-05-02T16:29:24.662Z</time></trkpt><trkpt lat="43.4084401" lon="11.3541555"><ele>464.40000000000003</ele><time>2026-05-02T16:29:25.664Z</time></trkpt><trkpt lat="43.4084961" lon="11.3542046"><ele>468.20000000000005</ele><time>2026-05-02T16:29:26.673Z</time></trkpt><trkpt lat="43.4086138" lon="11.3541628"><ele>472.0</ele><time>2026-05-02T16:29:28.668Z</time></trkpt><trkpt lat="43.4086855" lon="11.3540878"><ele>472.0</ele><time>2026-05-02T16:29:29.656Z</time></trkpt><trkpt lat="43.4087393" lon="11.3539725"><ele>472.00000000000006</ele><time>2026-05-02T16:29:30.657Z</time></trkpt><trkpt lat="43.4087756" lon="11.3538496"><ele>472.00000000000006</ele><time>2026-05-02T16:29:31.658Z</time></trkpt><trkpt lat="43.4087924" lon="11.3537081"><ele>472.0</ele><time>2026-05-02T16:29:32.675Z</time></trkpt><trkpt lat="43.4088044" lon="11.3535771"><ele>472.0</ele><time>2026-05-02T16:29:33.668Z</time></trkpt><trkpt lat="43.4088263" lon="11.3534308"><ele>471.20000000000005</ele><time>2026-05-02T16:29:34.661Z</time></trkpt><trkpt lat="43.4088608" lon="11.3533338"><ele>470.40000000000003</ele><time>2026-05-02T16:29:35.673Z</time></trkpt><trkpt lat="43.4089332" lon="11.3532666"><ele>469.59999999999997</ele><time>2026-05-02T16:29:36.658Z</time></trkpt><trkpt lat="43.4090227" lon="11.353222"><ele>468.79999999999995</ele><time>2026-05-02T16:29:37.66Z</time></trkpt><trkpt lat="43.4091338" lon="11.3531889"><ele>468.0</ele><time>2026-05-02T16:29:38.668Z</time></trkpt><trkpt lat="43.4092458" lon="11.3531887"><ele>468.0</ele><time>2026-05-02T16:29:39.671Z</time></trkpt><trkpt lat="43.4093552" lon="11.35322"><ele>468.0</ele><time>2026-05-02T16:29:40.667Z</time></trkpt><trkpt lat="43.4094552" lon="11.3532734"><ele>468.0</ele><time>2026-05-02T16:29:41.667Z</time></trkpt><trkpt lat="43.4095396" lon="11.353316"><ele>468.0</ele><time>2026-05-02T16:29:42.665Z</time></trkpt><trkpt lat="43.4096076" lon="11.3533364"><ele>468.0</ele><time>2026-05-02T16:29:43.669Z</time></trkpt><trkpt lat="43.4096756" lon="11.3533189"><ele>468.0</ele><time>2026-05-02T16:29:44.667Z</time></trkpt><trkpt lat="43.4097335" lon="11.3532737"><ele>468.2</ele><time>2026-05-02T16:29:45.671Z</time></trkpt><trkpt lat="43.4098107" lon="11.3531477"><ele>468.4</ele><time>2026-05-02T16:29:47.668Z</time></trkpt><trkpt lat="43.4098271" lon="11.3530535"><ele>468.59999999999997</ele><time>2026-05-02T16:29:48.669Z</time></trkpt><trkpt lat="43.4098385" lon="11.3529405"><ele>468.79999999999995</ele><time>2026-05-02T16:29:49.673Z</time></trkpt><trkpt lat="43.4098789" lon="11.3528322"><ele>469.0</ele><time>2026-05-02T16:29:50.657Z</time></trkpt><trkpt lat="43.409946" lon="11.3527318"><ele>469.0</ele><time>2026-05-02T16:29:51.666Z</time></trkpt><trkpt lat="43.4100128" lon="11.3526325"><ele>469.0</ele><time>2026-05-02T16:29:52.656Z</time></trkpt><trkpt lat="43.4100789" lon="11.3525463"><ele>469.0</ele><time>2026-05-02T16:29:53.666Z</time></trkpt><trkpt lat="43.4101465" lon="11.3524728"><ele>469.0</ele><time>2026-05-02T16:29:54.676Z</time></trkpt><trkpt lat="43.4101933" lon="11.3524093"><ele>469.0</ele><time>2026-05-02T16:29:55.665Z</time></trkpt><trkpt lat="43.4103038" lon="11.3523334"><ele>469.0</ele><time>2026-05-02T16:29:57.666Z</time></trkpt><trkpt lat="43.4103787" lon="11.3523053"><ele>469.0</ele><time>2026-05-02T16:29:58.666Z</time></trkpt><trkpt lat="43.410461" lon="11.3522957"><ele>469.0</ele><time>2026-05-02T16:29:59.677Z</time></trkpt><trkpt lat="43.4105589" lon="11.352271"><ele>469.0</ele><time>2026-05-02T16:30:00.654Z</time></trkpt><trkpt lat="43.410666" lon="11.3522453"><ele>469.0</ele><time>2026-05-02T16:30:01.678Z</time></trkpt><trkpt lat="43.4107838" lon="11.3522231"><ele>469.5</ele><time>2026-05-02T16:30:02.672Z</time></trkpt><trkpt lat="43.4109102" lon="11.3521984"><ele>470.0</ele><time>2026-05-02T16:30:03.666Z</time></trkpt><trkpt lat="43.4110472" lon="11.3521686"><ele>470.5</ele><time>2026-05-02T16:30:04.663Z</time></trkpt><trkpt lat="43.4111894" lon="11.3521248"><ele>471.0</ele><time>2026-05-02T16:30:05.664Z</time></trkpt><trkpt lat="43.4113362" lon="11.3520848"><ele>469.66666666666663</ele><time>2026-05-02T16:30:06.671Z</time></trkpt><trkpt lat="43.4114875" lon="11.3520463"><ele>468.3333333333333</ele><time>2026-05-02T16:30:07.678Z</time></trkpt><trkpt lat="43.4116377" lon="11.3520172"><ele>467.0</ele><time>2026-05-02T16:30:08.678Z</time></trkpt><trkpt lat="43.4117996" lon="11.35198"><ele>467.0</ele><time>2026-05-02T16:30:09.673Z</time></trkpt><trkpt lat="43.411965" lon="11.3519423"><ele>467.0</ele><time>2026-05-02T16:30:10.669Z</time></trkpt><trkpt lat="43.4121269" lon="11.3519067"><ele>467.0</ele><time>2026-05-02T16:30:11.669Z</time></trkpt><trkpt lat="43.4122817" lon="11.3518678"><ele>468.66666666666663</ele><time>2026-05-02T16:30:12.677Z</time></trkpt><trkpt lat="43.4124397" lon="11.3518281"><ele>470.33333333333337</ele><time>2026-05-02T16:30:13.668Z</time></trkpt><trkpt lat="43.412596" lon="11.3517823"><ele>472.0</ele><time>2026-05-02T16:30:14.678Z</time></trkpt><trkpt lat="43.4127542" lon="11.351722"><ele>472.0</ele><time>2026-05-02T16:30:15.671Z</time></trkpt><trkpt lat="43.4128964" lon="11.3516444"><ele>472.0</ele><time>2026-05-02T16:30:16.66Z</time></trkpt><trkpt lat="43.4130087" lon="11.351527"><ele>472.0</ele><time>2026-05-02T16:30:17.673Z</time></trkpt><trkpt lat="43.4131169" lon="11.3513633"><ele>474.6666666666667</ele><time>2026-05-02T16:30:18.661Z</time></trkpt><trkpt lat="43.4132322" lon="11.351201"><ele>477.33333333333337</ele><time>2026-05-02T16:30:19.664Z</time></trkpt><trkpt lat="43.413353" lon="11.3510309"><ele>480.0</ele><time>2026-05-02T16:30:20.663Z</time></trkpt><trkpt lat="43.4134779" lon="11.3508635"><ele>480.0</ele><time>2026-05-02T16:30:21.68Z</time></trkpt><trkpt lat="43.4136061" lon="11.3506828"><ele>480.0</ele><time>2026-05-02T16:30:22.67Z</time></trkpt><trkpt lat="43.4137281" lon="11.3505205"><ele>480.0</ele><time>2026-05-02T16:30:23.677Z</time></trkpt><trkpt lat="43.4138399" lon="11.3503901"><ele>483.5</ele><time>2026-05-02T16:30:24.662Z</time></trkpt><trkpt lat="43.4139547" lon="11.3503116"><ele>487.0</ele><time>2026-05-02T16:30:25.667Z</time></trkpt><trkpt lat="43.4140765" lon="11.3503046"><ele>490.5</ele><time>2026-05-02T16:30:26.656Z</time></trkpt><trkpt lat="43.4142059" lon="11.3503619"><ele>494.0</ele><time>2026-05-02T16:30:27.664Z</time></trkpt><trkpt lat="43.4143312" lon="11.3504373"><ele>494.0</ele><time>2026-05-02T16:30:28.666Z</time></trkpt><trkpt lat="43.4144369" lon="11.3504643"><ele>494.0</ele><time>2026-05-02T16:30:29.66Z</time></trkpt><trkpt lat="43.4145228" lon="11.350398"><ele>494.0</ele><time>2026-05-02T16:30:30.67Z</time></trkpt><trkpt lat="43.4146002" lon="11.3502808"><ele>494.0</ele><time>2026-05-02T16:30:31.666Z</time></trkpt><trkpt lat="43.4146287" lon="11.3501383"><ele>494.0</ele><time>2026-05-02T16:30:32.689Z</time></trkpt><trkpt lat="43.4146351" lon="11.3499491"><ele>494.0</ele><time>2026-05-02T16:30:33.664Z</time></trkpt><trkpt lat="43.4146384" lon="11.3497649"><ele>494.0</ele><time>2026-05-02T16:30:34.677Z</time></trkpt><trkpt lat="43.4146429" lon="11.3495659"><ele>494.0</ele><time>2026-05-02T16:30:35.669Z</time></trkpt><trkpt lat="43.4146635" lon="11.3493646"><ele>494.0</ele><time>2026-05-02T16:30:36.666Z</time></trkpt><trkpt lat="43.4147225" lon="11.349195"><ele>493.25</ele><time>2026-05-02T16:30:37.665Z</time></trkpt><trkpt lat="43.4148225" lon="11.3490743"><ele>492.5</ele><time>2026-05-02T16:30:38.667Z</time></trkpt><trkpt lat="43.4149557" lon="11.3489647"><ele>491.75</ele><time>2026-05-02T16:30:39.663Z</time></trkpt><trkpt lat="43.4150927" lon="11.3488628"><ele>491.0</ele><time>2026-05-02T16:30:40.673Z</time></trkpt><trkpt lat="43.4152117" lon="11.3488108"><ele>490.75</ele><time>2026-05-02T16:30:41.668Z</time></trkpt><trkpt lat="43.4153299" lon="11.3488086"><ele>490.5</ele><time>2026-05-02T16:30:42.664Z</time></trkpt><trkpt lat="43.4154643" lon="11.3488551"><ele>490.25</ele><time>2026-05-02T16:30:43.666Z</time></trkpt><trkpt lat="43.4156004" lon="11.3489144"><ele>490.0</ele><time>2026-05-02T16:30:44.664Z</time></trkpt><trkpt lat="43.415738" lon="11.3489418"><ele>490.0</ele><time>2026-05-02T16:30:45.686Z</time></trkpt><trkpt lat="43.4158868" lon="11.3489383"><ele>490.0</ele><time>2026-05-02T16:30:46.676Z</time></trkpt><trkpt lat="43.4160472" lon="11.3489062"><ele>490.0</ele><time>2026-05-02T16:30:47.668Z</time></trkpt><trkpt lat="43.4162016" lon="11.3488749"><ele>493.75</ele><time>2026-05-02T16:30:48.669Z</time></trkpt><trkpt lat="43.4163448" lon="11.3488372"><ele>497.5</ele><time>2026-05-02T16:30:49.663Z</time></trkpt><trkpt lat="43.4164927" lon="11.3488103"><ele>501.25</ele><time>2026-05-02T16:30:50.651Z</time></trkpt><trkpt lat="43.4166418" lon="11.3487915"><ele>505.0</ele><time>2026-05-02T16:30:51.676Z</time></trkpt><trkpt lat="43.4167852" lon="11.3487683"><ele>505.0</ele><time>2026-05-02T16:30:52.678Z</time></trkpt><trkpt lat="43.4169173" lon="11.3487335"><ele>505.0</ele><time>2026-05-02T16:30:53.665Z</time></trkpt><trkpt lat="43.4170332" lon="11.3486786"><ele>505.0</ele><time>2026-05-02T16:30:54.689Z</time></trkpt><trkpt lat="43.4171293" lon="11.3485841"><ele>505.0</ele><time>2026-05-02T16:30:55.669Z</time></trkpt><trkpt lat="43.4172" lon="11.348471"><ele>506.5</ele><time>2026-05-02T16:30:56.674Z</time></trkpt><trkpt lat="43.4172189" lon="11.3483232"><ele>508.0</ele><time>2026-05-02T16:30:57.659Z</time></trkpt><trkpt lat="43.4171998" lon="11.3481807"><ele>509.5</ele><time>2026-05-02T16:30:58.683Z</time></trkpt><trkpt lat="43.4171614" lon="11.348024"><ele>511.0</ele><time>2026-05-02T16:30:59.666Z</time></trkpt><trkpt lat="43.4171327" lon="11.3478595"><ele>511.0</ele><time>2026-05-02T16:31:00.671Z</time></trkpt><trkpt lat="43.4171104" lon="11.3476934"><ele>511.0</ele><time>2026-05-02T16:31:01.676Z</time></trkpt><trkpt lat="43.4171123" lon="11.3475389"><ele>511.0</ele><time>2026-05-02T16:31:02.661Z</time></trkpt><trkpt lat="43.4171778" lon="11.3473765"><ele>511.0</ele><time>2026-05-02T16:31:03.672Z</time></trkpt><trkpt lat="43.4172801" lon="11.3472377"><ele>511.0</ele><time>2026-05-02T16:31:04.671Z</time></trkpt><trkpt lat="43.4174091" lon="11.3471076"><ele>511.0</ele><time>2026-05-02T16:31:05.678Z</time></trkpt><trkpt lat="43.4175382" lon="11.3469889"><ele>511.0</ele><time>2026-05-02T16:31:06.663Z</time></trkpt><trkpt lat="43.4176647" lon="11.3468706"><ele>511.0</ele><time>2026-05-02T16:31:07.668Z</time></trkpt><trkpt lat="43.4177837" lon="11.3467607"><ele>511.0</ele><time>2026-05-02T16:31:08.678Z</time></trkpt><trkpt lat="43.417911" lon="11.3466683"><ele>511.0</ele><time>2026-05-02T16:31:09.684Z</time></trkpt><trkpt lat="43.4180426" lon="11.3465941"><ele>511.0</ele><time>2026-05-02T16:31:10.671Z</time></trkpt><trkpt lat="43.418191" lon="11.3465403"><ele>508.0</ele><time>2026-05-02T16:31:11.665Z</time></trkpt><trkpt lat="43.4183403" lon="11.3465015"><ele>505.0</ele><time>2026-05-02T16:31:12.678Z</time></trkpt><trkpt lat="43.4184809" lon="11.3464763"><ele>502.0</ele><time>2026-05-02T16:31:13.669Z</time></trkpt><trkpt lat="43.418619" lon="11.3464656"><ele>499.0</ele><time>2026-05-02T16:31:14.67Z</time></trkpt><trkpt lat="43.4187561" lon="11.3464776"><ele>499.5</ele><time>2026-05-02T16:31:15.672Z</time></trkpt><trkpt lat="43.4188831" lon="11.346535"><ele>500.0</ele><time>2026-05-02T16:31:16.665Z</time></trkpt><trkpt lat="43.4190099" lon="11.3466346"><ele>500.5</ele><time>2026-05-02T16:31:17.674Z</time></trkpt><trkpt lat="43.4191309" lon="11.3467468"><ele>501.0</ele><time>2026-05-02T16:31:18.663Z</time></trkpt><trkpt lat="43.4192518" lon="11.3468474"><ele>501.0</ele><time>2026-05-02T16:31:19.66Z</time></trkpt><trkpt lat="43.4193677" lon="11.3469194"><ele>501.0</ele><time>2026-05-02T16:31:20.671Z</time></trkpt><trkpt lat="43.4194882" lon="11.3469708"><ele>501.0</ele><time>2026-05-02T16:31:21.673Z</time></trkpt><trkpt lat="43.4196149" lon="11.3469951"><ele>501.0</ele><time>2026-05-02T16:31:22.671Z</time></trkpt><trkpt lat="43.4197349" lon="11.3469898"><ele>502.5</ele><time>2026-05-02T16:31:23.681Z</time></trkpt><trkpt lat="43.4198604" lon="11.3469716"><ele>504.0</ele><time>2026-05-02T16:31:24.673Z</time></trkpt><trkpt lat="43.4199884" lon="11.3469702"><ele>505.5</ele><time>2026-05-02T16:31:25.668Z</time></trkpt><trkpt lat="43.4201071" lon="11.3470075"><ele>507.0</ele><time>2026-05-02T16:31:26.678Z</time></trkpt><trkpt lat="43.4202075" lon="11.347064"><ele>507.0</ele><time>2026-05-02T16:31:27.667Z</time></trkpt><trkpt lat="43.4203014" lon="11.3471292"><ele>507.00000000000006</ele><time>2026-05-02T16:31:28.664Z</time></trkpt><trkpt lat="43.4203873" lon="11.3471955"><ele>507.00000000000006</ele><time>2026-05-02T16:31:29.664Z</time></trkpt><trkpt lat="43.4204782" lon="11.3472533"><ele>507.0</ele><time>2026-05-02T16:31:30.659Z</time></trkpt><trkpt lat="43.4205723" lon="11.3472699"><ele>507.0</ele><time>2026-05-02T16:31:31.666Z</time></trkpt><trkpt lat="43.4206686" lon="11.3472569"><ele>506.0</ele><time>2026-05-02T16:31:32.664Z</time></trkpt><trkpt lat="43.4207606" lon="11.3472429"><ele>505.0</ele><time>2026-05-02T16:31:33.675Z</time></trkpt><trkpt lat="43.4208475" lon="11.3472344"><ele>504.0</ele><time>2026-05-02T16:31:34.663Z</time></trkpt><trkpt lat="43.4209338" lon="11.3472515"><ele>503.0</ele><time>2026-05-02T16:31:35.668Z</time></trkpt><trkpt lat="43.4210118" lon="11.3472789"><ele>502.0</ele><time>2026-05-02T16:31:36.671Z</time></trkpt><trkpt lat="43.4210873" lon="11.3473162"><ele>501.0</ele><time>2026-05-02T16:31:37.668Z</time></trkpt><trkpt lat="43.4211576" lon="11.3473459"><ele>501.0</ele><time>2026-05-02T16:31:38.672Z</time></trkpt><trkpt lat="43.4212241" lon="11.3473816"><ele>501.0</ele><time>2026-05-02T16:31:39.669Z</time></trkpt><trkpt lat="43.4212848" lon="11.3474328"><ele>501.0</ele><time>2026-05-02T16:31:40.668Z</time></trkpt><trkpt lat="43.4213714" lon="11.347565"><ele>501.0</ele><time>2026-05-02T16:31:42.67Z</time></trkpt><trkpt lat="43.4213975" lon="11.3477169"><ele>501.0</ele><time>2026-05-02T16:31:44.672Z</time></trkpt><trkpt lat="43.421399" lon="11.3478963"><ele>501.0</ele><time>2026-05-02T16:31:46.677Z</time></trkpt><trkpt lat="43.4213967" lon="11.3480081"><ele>501.0</ele><time>2026-05-02T16:31:47.673Z</time></trkpt><trkpt lat="43.4213928" lon="11.3481207"><ele>501.0</ele><time>2026-05-02T16:31:48.684Z</time></trkpt><trkpt lat="43.4213863" lon="11.3482514"><ele>501.0</ele><time>2026-05-02T16:31:49.672Z</time></trkpt><trkpt lat="43.4213697" lon="11.3483963"><ele>501.0</ele><time>2026-05-02T16:31:50.68Z</time></trkpt><trkpt lat="43.4213421" lon="11.3485579"><ele>501.75</ele><time>2026-05-02T16:31:51.68Z</time></trkpt><trkpt lat="43.4213212" lon="11.3487257"><ele>502.5</ele><time>2026-05-02T16:31:52.677Z</time></trkpt><trkpt lat="43.4213073" lon="11.3488917"><ele>503.25</ele><time>2026-05-02T16:31:53.664Z</time></trkpt><trkpt lat="43.421312" lon="11.3490347"><ele>504.0</ele><time>2026-05-02T16:31:54.664Z</time></trkpt><trkpt lat="43.4213182" lon="11.3491764"><ele>502.79999999999995</ele><time>2026-05-02T16:31:55.667Z</time></trkpt><trkpt lat="43.4213198" lon="11.3493091"><ele>501.59999999999997</ele><time>2026-05-02T16:31:56.676Z</time></trkpt><trkpt lat="43.4213396" lon="11.3494289"><ele>500.4</ele><time>2026-05-02T16:31:57.668Z</time></trkpt><trkpt lat="43.4213806" lon="11.3495308"><ele>499.2</ele><time>2026-05-02T16:31:58.678Z</time></trkpt><trkpt lat="43.421462" lon="11.3495877"><ele>498.0</ele><time>2026-05-02T16:31:59.669Z</time></trkpt><trkpt lat="43.4215538" lon="11.3495893"><ele>498.0</ele><time>2026-05-02T16:32:00.674Z</time></trkpt><trkpt lat="43.4216626" lon="11.3495657"><ele>498.0</ele><time>2026-05-02T16:32:01.666Z</time></trkpt><trkpt lat="43.4217824" lon="11.349557"><ele>498.0</ele><time>2026-05-02T16:32:02.657Z</time></trkpt><trkpt lat="43.4218986" lon="11.3495736"><ele>498.0</ele><time>2026-05-02T16:32:03.665Z</time></trkpt><trkpt lat="43.4220095" lon="11.3496264"><ele>495.2</ele><time>2026-05-02T16:32:04.669Z</time></trkpt><trkpt lat="43.4221064" lon="11.3497232"><ele>492.4</ele><time>2026-05-02T16:32:05.671Z</time></trkpt><trkpt lat="43.4221882" lon="11.3498202"><ele>489.59999999999997</ele><time>2026-05-02T16:32:06.663Z</time></trkpt><trkpt lat="43.4222638" lon="11.3499192"><ele>486.79999999999995</ele><time>2026-05-02T16:32:07.671Z</time></trkpt><trkpt lat="43.4223519" lon="11.3499991"><ele>484.0</ele><time>2026-05-02T16:32:08.673Z</time></trkpt><trkpt lat="43.4224537" lon="11.3500668"><ele>484.0</ele><time>2026-05-02T16:32:09.665Z</time></trkpt><trkpt lat="43.4225634" lon="11.3501313"><ele>484.0</ele><time>2026-05-02T16:32:10.67Z</time></trkpt><trkpt lat="43.4226593" lon="11.3502042"><ele>484.0</ele><time>2026-05-02T16:32:11.676Z</time></trkpt><trkpt lat="43.4227376" lon="11.3502872"><ele>484.0</ele><time>2026-05-02T16:32:12.679Z</time></trkpt><trkpt lat="43.4227962" lon="11.3503839"><ele>484.0</ele><time>2026-05-02T16:32:13.668Z</time></trkpt><trkpt lat="43.4228307" lon="11.3504802"><ele>482.4</ele><time>2026-05-02T16:32:14.665Z</time></trkpt><trkpt lat="43.4228853" lon="11.3506278"><ele>480.79999999999995</ele><time>2026-05-02T16:32:16.664Z</time></trkpt><trkpt lat="43.422988" lon="11.3506686"><ele>479.20000000000005</ele><time>2026-05-02T16:32:18.667Z</time></trkpt><trkpt lat="43.423099" lon="11.3506003"><ele>477.6</ele><time>2026-05-02T16:32:20.671Z</time></trkpt><trkpt lat="43.423166" lon="11.3505274"><ele>476.0</ele><time>2026-05-02T16:32:21.668Z</time></trkpt><trkpt lat="43.4232432" lon="11.3504319"><ele>476.0</ele><time>2026-05-02T16:32:22.66Z</time></trkpt><trkpt lat="43.4233355" lon="11.3503532"><ele>476.0</ele><time>2026-05-02T16:32:23.665Z</time></trkpt><trkpt lat="43.4234418" lon="11.3502907"><ele>476.0</ele><time>2026-05-02T16:32:24.678Z</time></trkpt><trkpt lat="43.4235412" lon="11.3502477"><ele>476.0</ele><time>2026-05-02T16:32:25.658Z</time></trkpt><trkpt lat="43.423633" lon="11.3502007"><ele>476.0</ele><time>2026-05-02T16:32:26.67Z</time></trkpt><trkpt lat="43.4237208" lon="11.3501797"><ele>475.99999999999994</ele><time>2026-05-02T16:32:27.657Z</time></trkpt><trkpt lat="43.4238081" lon="11.3501893"><ele>476.0</ele><time>2026-05-02T16:32:28.664Z</time></trkpt><trkpt lat="43.4238945" lon="11.3502217"><ele>476.0</ele><time>2026-05-02T16:32:29.659Z</time></trkpt><trkpt lat="43.4239522" lon="11.3502887"><ele>476.0</ele><time>2026-05-02T16:32:30.657Z</time></trkpt><trkpt lat="43.4239857" lon="11.3503952"><ele>475.99999999999994</ele><time>2026-05-02T16:32:31.671Z</time></trkpt><trkpt lat="43.4239979" lon="11.3505315"><ele>476.0</ele><time>2026-05-02T16:32:32.668Z</time></trkpt><trkpt lat="43.4239937" lon="11.3507057"><ele>470.25</ele><time>2026-05-02T16:32:33.665Z</time></trkpt><trkpt lat="43.4239913" lon="11.3508825"><ele>464.5</ele><time>2026-05-02T16:32:34.678Z</time></trkpt><trkpt lat="43.423975" lon="11.3510608"><ele>458.75</ele><time>2026-05-02T16:32:35.662Z</time></trkpt><trkpt lat="43.4239418" lon="11.351211"><ele>453.0</ele><time>2026-05-02T16:32:36.671Z</time></trkpt><trkpt lat="43.4239106" lon="11.3513564"><ele>452.79999999999995</ele><time>2026-05-02T16:32:37.674Z</time></trkpt><trkpt lat="43.4238732" lon="11.3515016"><ele>452.59999999999997</ele><time>2026-05-02T16:32:38.668Z</time></trkpt><trkpt lat="43.4238316" lon="11.3516474"><ele>452.40000000000003</ele><time>2026-05-02T16:32:39.678Z</time></trkpt><trkpt lat="43.4237822" lon="11.3517789"><ele>452.20000000000005</ele><time>2026-05-02T16:32:40.662Z</time></trkpt><trkpt lat="43.4237364" lon="11.3519051"><ele>452.0</ele><time>2026-05-02T16:32:41.682Z</time></trkpt><trkpt lat="43.4237032" lon="11.3520348"><ele>451.3333333333333</ele><time>2026-05-02T16:32:42.666Z</time></trkpt><trkpt lat="43.4236821" lon="11.3521583"><ele>450.66666666666663</ele><time>2026-05-02T16:32:43.673Z</time></trkpt><trkpt lat="43.4236813" lon="11.3522808"><ele>450.0</ele><time>2026-05-02T16:32:44.666Z</time></trkpt><trkpt lat="43.423678" lon="11.3524015"><ele>449.33333333333337</ele><time>2026-05-02T16:32:45.672Z</time></trkpt><trkpt lat="43.4236811" lon="11.3525195"><ele>448.6666666666667</ele><time>2026-05-02T16:32:46.666Z</time></trkpt><trkpt lat="43.4236881" lon="11.3526421"><ele>448.0</ele><time>2026-05-02T16:32:47.66Z</time></trkpt><trkpt lat="43.4236979" lon="11.3527764"><ele>446.75</ele><time>2026-05-02T16:32:48.664Z</time></trkpt><trkpt lat="43.4237157" lon="11.3529238"><ele>445.5</ele><time>2026-05-02T16:32:49.672Z</time></trkpt><trkpt lat="43.4237428" lon="11.3530964"><ele>444.25</ele><time>2026-05-02T16:32:50.659Z</time></trkpt><trkpt lat="43.423767" lon="11.3532638"><ele>443.0</ele><time>2026-05-02T16:32:51.672Z</time></trkpt><trkpt lat="43.423785" lon="11.3534214"><ele>443.66666666666663</ele><time>2026-05-02T16:32:52.67Z</time></trkpt><trkpt lat="43.4237992" lon="11.3535639"><ele>444.3333333333333</ele><time>2026-05-02T16:32:53.669Z</time></trkpt><trkpt lat="43.4238171" lon="11.3536801"><ele>445.0</ele><time>2026-05-02T16:32:54.665Z</time></trkpt><trkpt lat="43.4238265" lon="11.3537805"><ele>445.66666666666663</ele><time>2026-05-02T16:32:55.673Z</time></trkpt><trkpt lat="43.4238366" lon="11.353881"><ele>446.3333333333333</ele><time>2026-05-02T16:32:56.667Z</time></trkpt><trkpt lat="43.4238457" lon="11.3539678"><ele>447.0</ele><time>2026-05-02T16:32:57.658Z</time></trkpt><trkpt lat="43.4238715" lon="11.3541394"><ele>445.2857142857143</ele><time>2026-05-02T16:32:59.675Z</time></trkpt><trkpt lat="43.4238893" lon="11.3542257"><ele>443.57142857142856</ele><time>2026-05-02T16:33:00.666Z</time></trkpt><trkpt lat="43.4239179" lon="11.3543163"><ele>441.8571428571429</ele><time>2026-05-02T16:33:01.68Z</time></trkpt><trkpt lat="43.4239561" lon="11.3543993"><ele>440.1428571428571</ele><time>2026-05-02T16:33:02.674Z</time></trkpt><trkpt lat="43.4239987" lon="11.3544799"><ele>438.42857142857144</ele><time>2026-05-02T16:33:03.671Z</time></trkpt><trkpt lat="43.4240478" lon="11.3545642"><ele>436.7142857142857</ele><time>2026-05-02T16:33:04.663Z</time></trkpt><trkpt lat="43.4240989" lon="11.3546527"><ele>435.0</ele><time>2026-05-02T16:33:05.671Z</time></trkpt><trkpt lat="43.424156" lon="11.3547318"><ele>432.8</ele><time>2026-05-02T16:33:06.676Z</time></trkpt><trkpt lat="43.4242369" lon="11.3547745"><ele>430.6</ele><time>2026-05-02T16:33:07.672Z</time></trkpt><trkpt lat="43.4243307" lon="11.3548072"><ele>428.4</ele><time>2026-05-02T16:33:08.677Z</time></trkpt><trkpt lat="43.4244329" lon="11.3548313"><ele>426.2</ele><time>2026-05-02T16:33:09.664Z</time></trkpt><trkpt lat="43.4245356" lon="11.354851"><ele>424.0</ele><time>2026-05-02T16:33:10.669Z</time></trkpt><trkpt lat="43.4246489" lon="11.3548702"><ele>424.0</ele><time>2026-05-02T16:33:11.667Z</time></trkpt><trkpt lat="43.4247574" lon="11.3548826"><ele>424.0</ele><time>2026-05-02T16:33:12.67Z</time></trkpt><trkpt lat="43.4248532" lon="11.3548855"><ele>424.0</ele><time>2026-05-02T16:33:13.673Z</time></trkpt><trkpt lat="43.4249278" lon="11.3548564"><ele>424.0</ele><time>2026-05-02T16:33:14.674Z</time></trkpt><trkpt lat="43.4250032" lon="11.3547245"><ele>424.0</ele><time>2026-05-02T16:33:16.657Z</time></trkpt><trkpt lat="43.4250099" lon="11.3546324"><ele>424.2</ele><time>2026-05-02T16:33:17.659Z</time></trkpt><trkpt lat="43.4250328" lon="11.3545367"><ele>424.4</ele><time>2026-05-02T16:33:18.664Z</time></trkpt><trkpt lat="43.4250969" lon="11.3544551"><ele>424.6</ele><time>2026-05-02T16:33:19.667Z</time></trkpt><trkpt lat="43.425196" lon="11.3544257"><ele>424.8</ele><time>2026-05-02T16:33:20.665Z</time></trkpt><trkpt lat="43.4252976" lon="11.3544182"><ele>425.0</ele><time>2026-05-02T16:33:21.661Z</time></trkpt><trkpt lat="43.4253951" lon="11.3544166"><ele>421.4</ele><time>2026-05-02T16:33:22.649Z</time></trkpt><trkpt lat="43.4254919" lon="11.3543979"><ele>417.8</ele><time>2026-05-02T16:33:23.655Z</time></trkpt><trkpt lat="43.4255861" lon="11.3543596"><ele>414.20000000000005</ele><time>2026-05-02T16:33:24.666Z</time></trkpt><trkpt lat="43.4256719" lon="11.3542743"><ele>410.6</ele><time>2026-05-02T16:33:25.666Z</time></trkpt><trkpt lat="43.4257321" lon="11.3541597"><ele>407.0</ele><time>2026-05-02T16:33:26.664Z</time></trkpt><trkpt lat="43.425782" lon="11.3539944"><ele>405.0</ele><time>2026-05-02T16:33:27.668Z</time></trkpt><trkpt lat="43.425814" lon="11.3538092"><ele>403.0</ele><time>2026-05-02T16:33:28.661Z</time></trkpt><trkpt lat="43.4258121" lon="11.3536344"><ele>401.0</ele><time>2026-05-02T16:33:29.659Z</time></trkpt><trkpt lat="43.4258026" lon="11.3534632"><ele>399.0</ele><time>2026-05-02T16:33:30.666Z</time></trkpt><trkpt lat="43.4257834" lon="11.3533096"><ele>399.0</ele><time>2026-05-02T16:33:31.661Z</time></trkpt><trkpt lat="43.4257744" lon="11.3531528"><ele>399.0</ele><time>2026-05-02T16:33:32.676Z</time></trkpt><trkpt lat="43.4257716" lon="11.3529927"><ele>399.0</ele><time>2026-05-02T16:33:33.667Z</time></trkpt><trkpt lat="43.4257773" lon="11.3528304"><ele>399.0</ele><time>2026-05-02T16:33:34.656Z</time></trkpt><trkpt lat="43.4257952" lon="11.3526393"><ele>399.5</ele><time>2026-05-02T16:33:35.661Z</time></trkpt><trkpt lat="43.4258335" lon="11.3524588"><ele>400.0</ele><time>2026-05-02T16:33:36.663Z</time></trkpt><trkpt lat="43.4258834" lon="11.3523039"><ele>400.5</ele><time>2026-05-02T16:33:37.66Z</time></trkpt><trkpt lat="43.4259645" lon="11.3521754"><ele>401.0</ele><time>2026-05-02T16:33:38.666Z</time></trkpt><trkpt lat="43.4260583" lon="11.3520599"><ele>402.25</ele><time>2026-05-02T16:33:39.661Z</time></trkpt><trkpt lat="43.4261649" lon="11.3519674"><ele>403.5</ele><time>2026-05-02T16:33:40.668Z</time></trkpt><trkpt lat="43.4262709" lon="11.3518666"><ele>404.75</ele><time>2026-05-02T16:33:41.673Z</time></trkpt><trkpt lat="43.4263704" lon="11.3517588"><ele>406.0</ele><time>2026-05-02T16:33:42.671Z</time></trkpt><trkpt lat="43.4264683" lon="11.3516648"><ele>403.0</ele><time>2026-05-02T16:33:43.673Z</time></trkpt><trkpt lat="43.426555" lon="11.3515516"><ele>400.0</ele><time>2026-05-02T16:33:44.673Z</time></trkpt><trkpt lat="43.4266276" lon="11.351424"><ele>397.0</ele><time>2026-05-02T16:33:45.666Z</time></trkpt><trkpt lat="43.4266867" lon="11.351289"><ele>394.0</ele><time>2026-05-02T16:33:46.662Z</time></trkpt><trkpt lat="43.4267417" lon="11.3511411"><ele>394.0</ele><time>2026-05-02T16:33:47.67Z</time></trkpt><trkpt lat="43.426794" lon="11.3510013"><ele>394.0</ele><time>2026-05-02T16:33:48.668Z</time></trkpt><trkpt lat="43.4268436" lon="11.3508715"><ele>394.0</ele><time>2026-05-02T16:33:49.669Z</time></trkpt><trkpt lat="43.4268874" lon="11.350757"><ele>394.0</ele><time>2026-05-02T16:33:50.66Z</time></trkpt><trkpt lat="43.4269309" lon="11.3506615"><ele>394.0</ele><time>2026-05-02T16:33:51.664Z</time></trkpt><trkpt lat="43.4269814" lon="11.3505719"><ele>394.4</ele><time>2026-05-02T16:33:52.674Z</time></trkpt><trkpt lat="43.4270355" lon="11.350502"><ele>394.79999999999995</ele><time>2026-05-02T16:33:53.665Z</time></trkpt><trkpt lat="43.4271056" lon="11.3504374"><ele>395.20000000000005</ele><time>2026-05-02T16:33:54.67Z</time></trkpt><trkpt lat="43.4272012" lon="11.3503895"><ele>395.6</ele><time>2026-05-02T16:33:55.669Z</time></trkpt><trkpt lat="43.4273267" lon="11.3503495"><ele>396.0</ele><time>2026-05-02T16:33:56.664Z</time></trkpt><trkpt lat="43.4274597" lon="11.3503132"><ele>391.5</ele><time>2026-05-02T16:33:57.679Z</time></trkpt><trkpt lat="43.42759" lon="11.3502646"><ele>387.0</ele><time>2026-05-02T16:33:58.669Z</time></trkpt><trkpt lat="43.4277248" lon="11.3502029"><ele>382.5</ele><time>2026-05-02T16:33:59.666Z</time></trkpt><trkpt lat="43.4278521" lon="11.3501331"><ele>378.0</ele><time>2026-05-02T16:34:00.658Z</time></trkpt><trkpt lat="43.4279796" lon="11.3500666"><ele>377.75</ele><time>2026-05-02T16:34:01.661Z</time></trkpt><trkpt lat="43.4281184" lon="11.3500211"><ele>377.5</ele><time>2026-05-02T16:34:02.67Z</time></trkpt><trkpt lat="43.4282598" lon="11.3500135"><ele>377.25</ele><time>2026-05-02T16:34:03.677Z</time></trkpt><trkpt lat="43.428398" lon="11.350017"><ele>377.0</ele><time>2026-05-02T16:34:04.66Z</time></trkpt><trkpt lat="43.4285125" lon="11.3500461"><ele>377.0</ele><time>2026-05-02T16:34:05.672Z</time></trkpt><trkpt lat="43.4286174" lon="11.3501131"><ele>377.0</ele><time>2026-05-02T16:34:06.661Z</time></trkpt><trkpt lat="43.4287098" lon="11.3502054"><ele>377.0</ele><time>2026-05-02T16:34:07.669Z</time></trkpt><trkpt lat="43.428808" lon="11.3502979"><ele>377.0</ele><time>2026-05-02T16:34:08.661Z</time></trkpt><trkpt lat="43.4289346" lon="11.3503901"><ele>377.0</ele><time>2026-05-02T16:34:09.671Z</time></trkpt><trkpt lat="43.4290594" lon="11.3504964"><ele>377.0</ele><time>2026-05-02T16:34:10.674Z</time></trkpt><trkpt lat="43.4291948" lon="11.3505965"><ele>377.0</ele><time>2026-05-02T16:34:11.667Z</time></trkpt><trkpt lat="43.4293335" lon="11.3506939"><ele>377.5</ele><time>2026-05-02T16:34:12.67Z</time></trkpt><trkpt lat="43.429475" lon="11.3507864"><ele>378.0</ele><time>2026-05-02T16:34:13.674Z</time></trkpt><trkpt lat="43.4296127" lon="11.3508586"><ele>378.5</ele><time>2026-05-02T16:34:14.671Z</time></trkpt><trkpt lat="43.4297432" lon="11.3508856"><ele>379.0</ele><time>2026-05-02T16:34:15.666Z</time></trkpt><trkpt lat="43.4298726" lon="11.3508811"><ele>379.0</ele><time>2026-05-02T16:34:16.669Z</time></trkpt><trkpt lat="43.4300117" lon="11.3508638"><ele>379.0</ele><time>2026-05-02T16:34:17.659Z</time></trkpt><trkpt lat="43.4301601" lon="11.3508545"><ele>379.0</ele><time>2026-05-02T16:34:18.662Z</time></trkpt><trkpt lat="43.4303088" lon="11.3508564"><ele>379.0</ele><time>2026-05-02T16:34:19.657Z</time></trkpt><trkpt lat="43.430454" lon="11.3508698"><ele>379.75</ele><time>2026-05-02T16:34:20.669Z</time></trkpt><trkpt lat="43.4305861" lon="11.3508919"><ele>380.5</ele><time>2026-05-02T16:34:21.678Z</time></trkpt><trkpt lat="43.430712" lon="11.3509117"><ele>381.25</ele><time>2026-05-02T16:34:22.664Z</time></trkpt><trkpt lat="43.43084" lon="11.3509066"><ele>382.0</ele><time>2026-05-02T16:34:23.677Z</time></trkpt><trkpt lat="43.4309584" lon="11.350868"><ele>382.0</ele><time>2026-05-02T16:34:24.664Z</time></trkpt><trkpt lat="43.4310715" lon="11.3508014"><ele>382.0</ele><time>2026-05-02T16:34:25.672Z</time></trkpt><trkpt lat="43.4311852" lon="11.3507293"><ele>382.0</ele><time>2026-05-02T16:34:26.66Z</time></trkpt><trkpt lat="43.431283" lon="11.3506705"><ele>382.0</ele><time>2026-05-02T16:34:27.66Z</time></trkpt><trkpt lat="43.4313746" lon="11.3506708"><ele>382.0</ele><time>2026-05-02T16:34:28.675Z</time></trkpt><trkpt lat="43.4314421" lon="11.3507137"><ele>384.8</ele><time>2026-05-02T16:34:29.655Z</time></trkpt><trkpt lat="43.4315047" lon="11.3507856"><ele>387.6</ele><time>2026-05-02T16:34:30.663Z</time></trkpt><trkpt lat="43.4315579" lon="11.3508758"><ele>390.40000000000003</ele><time>2026-05-02T16:34:31.659Z</time></trkpt><trkpt lat="43.4316173" lon="11.350974"><ele>393.20000000000005</ele><time>2026-05-02T16:34:32.672Z</time></trkpt><trkpt lat="43.4316886" lon="11.3510684"><ele>396.0</ele><time>2026-05-02T16:34:33.672Z</time></trkpt><trkpt lat="43.4317595" lon="11.351151"><ele>396.0</ele><time>2026-05-02T16:34:34.667Z</time></trkpt><trkpt lat="43.4318358" lon="11.3512208"><ele>396.0</ele><time>2026-05-02T16:34:35.664Z</time></trkpt><trkpt lat="43.4319122" lon="11.3512828"><ele>396.0</ele><time>2026-05-02T16:34:36.661Z</time></trkpt><trkpt lat="43.43199" lon="11.3513235"><ele>396.0</ele><time>2026-05-02T16:34:37.67Z</time></trkpt><trkpt lat="43.4320738" lon="11.3513557"><ele>396.0</ele><time>2026-05-02T16:34:38.662Z</time></trkpt><trkpt lat="43.4321816" lon="11.3513733"><ele>394.8</ele><time>2026-05-02T16:34:39.671Z</time></trkpt><trkpt lat="43.4322944" lon="11.3513904"><ele>393.6</ele><time>2026-05-02T16:34:40.676Z</time></trkpt><trkpt lat="43.4324119" lon="11.3514043"><ele>392.4</ele><time>2026-05-02T16:34:41.668Z</time></trkpt><trkpt lat="43.432517" lon="11.3514141"><ele>391.2</ele><time>2026-05-02T16:34:42.668Z</time></trkpt><trkpt lat="43.4326103" lon="11.3514193"><ele>390.0</ele><time>2026-05-02T16:34:43.667Z</time></trkpt><trkpt lat="43.4327035" lon="11.3513992"><ele>391.75</ele><time>2026-05-02T16:34:44.658Z</time></trkpt><trkpt lat="43.4328071" lon="11.351352"><ele>393.5</ele><time>2026-05-02T16:34:45.662Z</time></trkpt><trkpt lat="43.432917" lon="11.3512796"><ele>395.25</ele><time>2026-05-02T16:34:46.669Z</time></trkpt><trkpt lat="43.4330287" lon="11.3512027"><ele>397.0</ele><time>2026-05-02T16:34:47.68Z</time></trkpt><trkpt lat="43.4331568" lon="11.3511108"><ele>391.6666666666667</ele><time>2026-05-02T16:34:48.665Z</time></trkpt><trkpt lat="43.4332898" lon="11.3510029"><ele>386.33333333333337</ele><time>2026-05-02T16:34:49.669Z</time></trkpt><trkpt lat="43.4334298" lon="11.3508749"><ele>381.0</ele><time>2026-05-02T16:34:50.665Z</time></trkpt><trkpt lat="43.4335681" lon="11.3507391"><ele>381.0</ele><time>2026-05-02T16:34:51.655Z</time></trkpt><trkpt lat="43.4336976" lon="11.35059"><ele>381.0</ele><time>2026-05-02T16:34:52.668Z</time></trkpt><trkpt lat="43.4338362" lon="11.3504288"><ele>381.0</ele><time>2026-05-02T16:34:53.662Z</time></trkpt><trkpt lat="43.4339639" lon="11.3502657"><ele>381.25</ele><time>2026-05-02T16:34:54.658Z</time></trkpt><trkpt lat="43.4340857" lon="11.3501108"><ele>381.5</ele><time>2026-05-02T16:34:55.67Z</time></trkpt><trkpt lat="43.4341978" lon="11.3499775"><ele>381.75</ele><time>2026-05-02T16:34:56.673Z</time></trkpt><trkpt lat="43.4342857" lon="11.3498498"><ele>382.0</ele><time>2026-05-02T16:34:57.665Z</time></trkpt><trkpt lat="43.4343547" lon="11.349704"><ele>384.5</ele><time>2026-05-02T16:34:58.658Z</time></trkpt><trkpt lat="43.4344321" lon="11.3495281"><ele>387.0</ele><time>2026-05-02T16:34:59.661Z</time></trkpt><trkpt lat="43.4345005" lon="11.349341"><ele>389.5</ele><time>2026-05-02T16:35:00.668Z</time></trkpt><trkpt lat="43.4345569" lon="11.3491615"><ele>392.0</ele><time>2026-05-02T16:35:01.673Z</time></trkpt><trkpt lat="43.434601" lon="11.3490146"><ele>390.40000000000003</ele><time>2026-05-02T16:35:02.661Z</time></trkpt><trkpt lat="43.434651" lon="11.3488959"><ele>388.8</ele><time>2026-05-02T16:35:03.663Z</time></trkpt><trkpt lat="43.4347155" lon="11.3487915"><ele>387.2</ele><time>2026-05-02T16:35:04.66Z</time></trkpt><trkpt lat="43.4347914" lon="11.3487164"><ele>385.6</ele><time>2026-05-02T16:35:05.669Z</time></trkpt><trkpt lat="43.434873" lon="11.3487029"><ele>384.0</ele><time>2026-05-02T16:35:06.659Z</time></trkpt><trkpt lat="43.4349724" lon="11.3487398"><ele>384.0</ele><time>2026-05-02T16:35:07.673Z</time></trkpt><trkpt lat="43.4350736" lon="11.3487743"><ele>384.0</ele><time>2026-05-02T16:35:08.663Z</time></trkpt><trkpt lat="43.4351649" lon="11.3487933"><ele>384.0</ele><time>2026-05-02T16:35:09.666Z</time></trkpt><trkpt lat="43.4352529" lon="11.348795"><ele>384.0</ele><time>2026-05-02T16:35:10.664Z</time></trkpt><trkpt lat="43.4353291" lon="11.3487806"><ele>384.0</ele><time>2026-05-02T16:35:11.67Z</time></trkpt><trkpt lat="43.4354096" lon="11.3487651"><ele>384.0</ele><time>2026-05-02T16:35:12.661Z</time></trkpt><trkpt lat="43.4354968" lon="11.3487411"><ele>383.79999999999995</ele><time>2026-05-02T16:35:13.666Z</time></trkpt><trkpt lat="43.4355824" lon="11.3487202"><ele>383.59999999999997</ele><time>2026-05-02T16:35:14.677Z</time></trkpt><trkpt lat="43.4356682" lon="11.3486884"><ele>383.4</ele><time>2026-05-02T16:35:15.668Z</time></trkpt><trkpt lat="43.4357592" lon="11.3486724"><ele>383.2</ele><time>2026-05-02T16:35:16.665Z</time></trkpt><trkpt lat="43.4358612" lon="11.3486826"><ele>383.0</ele><time>2026-05-02T16:35:17.674Z</time></trkpt><trkpt lat="43.4359652" lon="11.3487189"><ele>383.0</ele><time>2026-05-02T16:35:18.66Z</time></trkpt><trkpt lat="43.4360602" lon="11.3487637"><ele>383.0</ele><time>2026-05-02T16:35:19.674Z</time></trkpt><trkpt lat="43.4361538" lon="11.3488155"><ele>383.0</ele><time>2026-05-02T16:35:20.663Z</time></trkpt><trkpt lat="43.4362451" lon="11.3488837"><ele>383.0</ele><time>2026-05-02T16:35:21.673Z</time></trkpt><trkpt lat="43.4363373" lon="11.3489487"><ele>383.0</ele><time>2026-05-02T16:35:22.65Z</time></trkpt><trkpt lat="43.4364246" lon="11.3490347"><ele>381.0</ele><time>2026-05-02T16:35:23.67Z</time></trkpt><trkpt lat="43.4365092" lon="11.3491366"><ele>379.0</ele><time>2026-05-02T16:35:24.668Z</time></trkpt><trkpt lat="43.4365898" lon="11.3492293"><ele>377.0</ele><time>2026-05-02T16:35:25.673Z</time></trkpt><trkpt lat="43.4366666" lon="11.3492967"><ele>375.0</ele><time>2026-05-02T16:35:26.669Z</time></trkpt><trkpt lat="43.436746" lon="11.3493478"><ele>373.0</ele><time>2026-05-02T16:35:27.664Z</time></trkpt><trkpt lat="43.4368225" lon="11.3493814"><ele>373.0</ele><time>2026-05-02T16:35:28.665Z</time></trkpt><trkpt lat="43.4369059" lon="11.3493907"><ele>373.0</ele><time>2026-05-02T16:35:29.669Z</time></trkpt><trkpt lat="43.4370002" lon="11.3493669"><ele>373.0</ele><time>2026-05-02T16:35:30.664Z</time></trkpt><trkpt lat="43.4370775" lon="11.3492988"><ele>373.0</ele><time>2026-05-02T16:35:31.662Z</time></trkpt><trkpt lat="43.4371307" lon="11.3492213"><ele>373.0</ele><time>2026-05-02T16:35:32.674Z</time></trkpt><trkpt lat="43.4371662" lon="11.3491228"><ele>373.0</ele><time>2026-05-02T16:35:33.667Z</time></trkpt><trkpt lat="43.4371995" lon="11.3490168"><ele>372.66666666666663</ele><time>2026-05-02T16:35:34.672Z</time></trkpt><trkpt lat="43.4372311" lon="11.3489059"><ele>372.3333333333333</ele><time>2026-05-02T16:35:35.684Z</time></trkpt><trkpt lat="43.4372575" lon="11.3487902"><ele>372.0</ele><time>2026-05-02T16:35:36.668Z</time></trkpt><trkpt lat="43.4372885" lon="11.3486804"><ele>371.6666666666667</ele><time>2026-05-02T16:35:37.672Z</time></trkpt><trkpt lat="43.4373145" lon="11.3485622"><ele>371.33333333333337</ele><time>2026-05-02T16:35:38.664Z</time></trkpt><trkpt lat="43.437327" lon="11.3484657"><ele>371.0</ele><time>2026-05-02T16:35:39.662Z</time></trkpt><trkpt lat="43.4373334" lon="11.3483676"><ele>372.0</ele><time>2026-05-02T16:35:41.676Z</time></trkpt><trkpt lat="43.437405" lon="11.3483181"><ele>373.0</ele><time>2026-05-02T16:38:28.665Z</time></trkpt><trkpt lat="43.4375256" lon="11.34833"><ele>374.0</ele><time>2026-05-02T16:38:30.669Z</time></trkpt><trkpt lat="43.4375994" lon="11.3483391"><ele>375.0</ele><time>2026-05-02T16:38:31.666Z</time></trkpt><trkpt lat="43.4376814" lon="11.348369"><ele>376.0</ele><time>2026-05-02T16:38:32.674Z</time></trkpt><trkpt lat="43.4377516" lon="11.3484222"><ele>377.0</ele><time>2026-05-02T16:38:33.662Z</time></trkpt><trkpt lat="43.4378101" lon="11.3484921"><ele>377.0</ele><time>2026-05-02T16:38:34.674Z</time></trkpt><trkpt lat="43.437854" lon="11.3485849"><ele>377.0</ele><time>2026-05-02T16:38:35.662Z</time></trkpt><trkpt lat="43.4378862" lon="11.3486923"><ele>377.0</ele><time>2026-05-02T16:38:36.679Z</time></trkpt><trkpt lat="43.4379132" lon="11.348803"><ele>377.0</ele><time>2026-05-02T16:38:37.675Z</time></trkpt><trkpt lat="43.4379341" lon="11.3489205"><ele>377.0</ele><time>2026-05-02T16:38:38.674Z</time></trkpt><trkpt lat="43.4379566" lon="11.3490277"><ele>377.0</ele><time>2026-05-02T16:38:39.67Z</time></trkpt><trkpt lat="43.4379835" lon="11.349125"><ele>378.1666666666667</ele><time>2026-05-02T16:38:40.673Z</time></trkpt><trkpt lat="43.4380131" lon="11.349227"><ele>379.33333333333337</ele><time>2026-05-02T16:38:41.66Z</time></trkpt><trkpt lat="43.4380471" lon="11.3493285"><ele>380.5</ele><time>2026-05-02T16:38:42.661Z</time></trkpt><trkpt lat="43.4380888" lon="11.3494261"><ele>381.6666666666667</ele><time>2026-05-02T16:38:43.665Z</time></trkpt><trkpt lat="43.4381377" lon="11.3495119"><ele>382.8333333333333</ele><time>2026-05-02T16:38:44.669Z</time></trkpt><trkpt lat="43.4381955" lon="11.349597"><ele>384.0</ele><time>2026-05-02T16:38:45.667Z</time></trkpt><trkpt lat="43.4382542" lon="11.3496803"><ele>382.2</ele><time>2026-05-02T16:38:46.67Z</time></trkpt><trkpt lat="43.4383213" lon="11.349755"><ele>380.4</ele><time>2026-05-02T16:38:47.658Z</time></trkpt><trkpt lat="43.4384014" lon="11.349821"><ele>378.6</ele><time>2026-05-02T16:38:48.671Z</time></trkpt><trkpt lat="43.4384933" lon="11.3498772"><ele>376.8</ele><time>2026-05-02T16:38:49.673Z</time></trkpt><trkpt lat="43.4385946" lon="11.3499249"><ele>375.0</ele><time>2026-05-02T16:38:50.667Z</time></trkpt><trkpt lat="43.4387027" lon="11.349973"><ele>375.5</ele><time>2026-05-02T16:38:51.665Z</time></trkpt><trkpt lat="43.4388115" lon="11.3500209"><ele>376.0</ele><time>2026-05-02T16:38:52.663Z</time></trkpt><trkpt lat="43.4389224" lon="11.3500696"><ele>376.5</ele><time>2026-05-02T16:38:53.672Z</time></trkpt><trkpt lat="43.4390314" lon="11.3501106"><ele>377.0</ele><time>2026-05-02T16:38:54.677Z</time></trkpt><trkpt lat="43.4391339" lon="11.3501541"><ele>377.0</ele><time>2026-05-02T16:38:55.654Z</time></trkpt><trkpt lat="43.4392362" lon="11.3501924"><ele>377.0</ele><time>2026-05-02T16:38:56.665Z</time></trkpt><trkpt lat="43.4393448" lon="11.3502389"><ele>377.0</ele><time>2026-05-02T16:38:57.664Z</time></trkpt><trkpt lat="43.4394595" lon="11.3502833"><ele>377.0</ele><time>2026-05-02T16:38:58.655Z</time></trkpt><trkpt lat="43.4395819" lon="11.350335"><ele>376.75</ele><time>2026-05-02T16:38:59.67Z</time></trkpt><trkpt lat="43.4397061" lon="11.3503994"><ele>376.5</ele><time>2026-05-02T16:39:00.667Z</time></trkpt><trkpt lat="43.4398376" lon="11.3504723"><ele>376.25</ele><time>2026-05-02T16:39:01.674Z</time></trkpt><trkpt lat="43.4399711" lon="11.3505495"><ele>376.0</ele><time>2026-05-02T16:39:02.66Z</time></trkpt><trkpt lat="43.4400919" lon="11.3506418"><ele>375.25</ele><time>2026-05-02T16:39:03.67Z</time></trkpt><trkpt lat="43.440189" lon="11.3507565"><ele>374.5</ele><time>2026-05-02T16:39:04.673Z</time></trkpt><trkpt lat="43.4402618" lon="11.3508721"><ele>373.75</ele><time>2026-05-02T16:39:05.671Z</time></trkpt><trkpt lat="43.4403139" lon="11.3510094"><ele>373.0</ele><time>2026-05-02T16:39:06.668Z</time></trkpt><trkpt lat="43.4403591" lon="11.3511684"><ele>373.0</ele><time>2026-05-02T16:39:07.672Z</time></trkpt><trkpt lat="43.4404152" lon="11.3513153"><ele>373.0</ele><time>2026-05-02T16:39:08.666Z</time></trkpt><trkpt lat="43.4404834" lon="11.3514639"><ele>373.0</ele><time>2026-05-02T16:39:09.676Z</time></trkpt><trkpt lat="43.4405481" lon="11.3516008"><ele>373.0</ele><time>2026-05-02T16:39:10.67Z</time></trkpt><trkpt lat="43.4405914" lon="11.3517283"><ele>373.0</ele><time>2026-05-02T16:39:11.673Z</time></trkpt><trkpt lat="43.4406079" lon="11.3518965"><ele>373.0</ele><time>2026-05-02T16:39:12.665Z</time></trkpt><trkpt lat="43.4406156" lon="11.3520862"><ele>373.0</ele><time>2026-05-02T16:39:13.662Z</time></trkpt><trkpt lat="43.4406313" lon="11.3522744"><ele>373.0</ele><time>2026-05-02T16:39:14.666Z</time></trkpt><trkpt lat="43.440646" lon="11.3524378"><ele>371.5</ele><time>2026-05-02T16:39:15.669Z</time></trkpt><trkpt lat="43.4406702" lon="11.3525999"><ele>370.0</ele><time>2026-05-02T16:39:16.654Z</time></trkpt><trkpt lat="43.4406889" lon="11.3527483"><ele>368.5</ele><time>2026-05-02T16:39:17.669Z</time></trkpt><trkpt lat="43.4407062" lon="11.3528983"><ele>367.0</ele><time>2026-05-02T16:39:18.659Z</time></trkpt><trkpt lat="43.4407262" lon="11.3530612"><ele>365.0</ele><time>2026-05-02T16:39:19.663Z</time></trkpt><trkpt lat="43.440737" lon="11.3532633"><ele>363.0</ele><time>2026-05-02T16:39:20.665Z</time></trkpt><trkpt lat="43.4407551" lon="11.3534852"><ele>361.0</ele><time>2026-05-02T16:39:21.654Z</time></trkpt><trkpt lat="43.4407838" lon="11.3537238"><ele>359.0</ele><time>2026-05-02T16:39:22.665Z</time></trkpt><trkpt lat="43.4408146" lon="11.3539614"><ele>357.0</ele><time>2026-05-02T16:39:23.663Z</time></trkpt><trkpt lat="43.4408516" lon="11.3542183"><ele>355.0</ele><time>2026-05-02T16:39:24.669Z</time></trkpt><trkpt lat="43.4408982" lon="11.3544694"><ele>355.0</ele><time>2026-05-02T16:39:25.672Z</time></trkpt><trkpt lat="43.4409448" lon="11.3546742"><ele>355.0</ele><time>2026-05-02T16:39:26.666Z</time></trkpt><trkpt lat="43.4409768" lon="11.3548417"><ele>355.0</ele><time>2026-05-02T16:39:27.674Z</time></trkpt><trkpt lat="43.4410009" lon="11.3549734"><ele>355.0</ele><time>2026-05-02T16:39:28.666Z</time></trkpt><trkpt lat="43.4410224" lon="11.3550927"><ele>354.6</ele><time>2026-05-02T16:39:29.666Z</time></trkpt><trkpt lat="43.4410345" lon="11.3551977"><ele>354.2</ele><time>2026-05-02T16:39:30.658Z</time></trkpt><trkpt lat="43.4410383" lon="11.3552891"><ele>353.79999999999995</ele><time>2026-05-02T16:39:31.67Z</time></trkpt><trkpt lat="43.4410334" lon="11.355458"><ele>353.4</ele><time>2026-05-02T16:39:33.661Z</time></trkpt><trkpt lat="43.4409809" lon="11.3556116"><ele>353.0</ele><time>2026-05-02T16:39:35.681Z</time></trkpt><trkpt lat="43.4409622" lon="11.3557299"><ele>352.79999999999995</ele><time>2026-05-02T16:39:37.662Z</time></trkpt><trkpt lat="43.4409868" lon="11.3558147"><ele>352.6</ele><time>2026-05-02T16:39:39.658Z</time></trkpt><trkpt lat="43.4410862" lon="11.3558488"><ele>352.4</ele><time>2026-05-02T16:39:41.666Z</time></trkpt><trkpt lat="43.4411905" lon="11.3558189"><ele>352.20000000000005</ele><time>2026-05-02T16:39:43.666Z</time></trkpt><trkpt lat="43.441294" lon="11.3557464"><ele>352.0</ele><time>2026-05-02T16:39:45.672Z</time></trkpt><trkpt lat="43.441389" lon="11.3556221"><ele>352.5</ele><time>2026-05-02T16:39:47.673Z</time></trkpt><trkpt lat="43.4414322" lon="11.3555375"><ele>353.0</ele><time>2026-05-02T16:39:48.674Z</time></trkpt><trkpt lat="43.4414739" lon="11.3554537"><ele>353.5</ele><time>2026-05-02T16:39:49.675Z</time></trkpt><trkpt lat="43.4415295" lon="11.355377"><ele>354.0</ele><time>2026-05-02T16:39:50.664Z</time></trkpt><trkpt lat="43.4415915" lon="11.3553193"><ele>354.5</ele><time>2026-05-02T16:39:51.661Z</time></trkpt><trkpt lat="43.4416799" lon="11.3552912"><ele>355.0</ele><time>2026-05-02T16:39:52.671Z</time></trkpt><trkpt lat="43.4417606" lon="11.3552787"><ele>355.0</ele><time>2026-05-02T16:39:53.662Z</time></trkpt><trkpt lat="43.4418405" lon="11.355277"><ele>355.0</ele><time>2026-05-02T16:39:54.673Z</time></trkpt><trkpt lat="43.4419333" lon="11.3552822"><ele>355.0</ele><time>2026-05-02T16:39:55.664Z</time></trkpt><trkpt lat="43.442041" lon="11.3552793"><ele>355.0</ele><time>2026-05-02T16:39:56.674Z</time></trkpt><trkpt lat="43.4421418" lon="11.35526"><ele>355.0</ele><time>2026-05-02T16:39:57.665Z</time></trkpt><trkpt lat="43.4422383" lon="11.355226"><ele>350.25</ele><time>2026-05-02T16:39:58.669Z</time></trkpt><trkpt lat="43.442339" lon="11.3551735"><ele>345.5</ele><time>2026-05-02T16:39:59.672Z</time></trkpt><trkpt lat="43.4424413" lon="11.3551012"><ele>340.75</ele><time>2026-05-02T16:40:00.678Z</time></trkpt><trkpt lat="43.4425431" lon="11.3550119"><ele>336.0</ele><time>2026-05-02T16:40:01.667Z</time></trkpt><trkpt lat="43.4426415" lon="11.3549191"><ele>336.0</ele><time>2026-05-02T16:40:02.674Z</time></trkpt><trkpt lat="43.4427391" lon="11.354833"><ele>336.0</ele><time>2026-05-02T16:40:03.659Z</time></trkpt><trkpt lat="43.4428335" lon="11.3547726"><ele>336.0</ele><time>2026-05-02T16:40:04.666Z</time></trkpt><trkpt lat="43.4429321" lon="11.3547107"><ele>336.0</ele><time>2026-05-02T16:40:05.677Z</time></trkpt><trkpt lat="43.4430365" lon="11.3546599"><ele>336.0</ele><time>2026-05-02T16:40:06.671Z</time></trkpt><trkpt lat="43.443169" lon="11.354588"><ele>335.3333333333333</ele><time>2026-05-02T16:40:07.663Z</time></trkpt><trkpt lat="43.4433334" lon="11.3544938"><ele>334.66666666666663</ele><time>2026-05-02T16:40:08.681Z</time></trkpt><trkpt lat="43.4434945" lon="11.354382"><ele>334.0</ele><time>2026-05-02T16:40:09.665Z</time></trkpt><trkpt lat="43.4436356" lon="11.3542781"><ele>334.0</ele><time>2026-05-02T16:40:10.667Z</time></trkpt><trkpt lat="43.4437529" lon="11.3541977"><ele>334.0</ele><time>2026-05-02T16:40:11.66Z</time></trkpt><trkpt lat="43.4438608" lon="11.3541246"><ele>334.0</ele><time>2026-05-02T16:40:12.67Z</time></trkpt><trkpt lat="43.4439603" lon="11.3540561"><ele>334.0</ele><time>2026-05-02T16:40:13.667Z</time></trkpt><trkpt lat="43.4440693" lon="11.3539866"><ele>335.75</ele><time>2026-05-02T16:40:14.662Z</time></trkpt><trkpt lat="43.4441895" lon="11.3539219"><ele>337.5</ele><time>2026-05-02T16:40:15.672Z</time></trkpt><trkpt lat="43.4443122" lon="11.3538708"><ele>339.25</ele><time>2026-05-02T16:40:16.666Z</time></trkpt><trkpt lat="43.4444294" lon="11.353828"><ele>341.0</ele><time>2026-05-02T16:40:17.659Z</time></trkpt><trkpt lat="43.44453" lon="11.3537925"><ele>341.0</ele><time>2026-05-02T16:40:18.663Z</time></trkpt><trkpt lat="43.4446153" lon="11.3537636"><ele>341.0</ele><time>2026-05-02T16:40:19.673Z</time></trkpt><trkpt lat="43.4446982" lon="11.3537466"><ele>341.0</ele><time>2026-05-02T16:40:20.666Z</time></trkpt><trkpt lat="43.4447844" lon="11.3537375"><ele>341.0</ele><time>2026-05-02T16:40:21.671Z</time></trkpt><trkpt lat="43.4448539" lon="11.3537653"><ele>341.0</ele><time>2026-05-02T16:40:22.661Z</time></trkpt><trkpt lat="43.4449095" lon="11.3538405"><ele>341.0</ele><time>2026-05-02T16:40:23.661Z</time></trkpt><trkpt lat="43.4449387" lon="11.3539437"><ele>338.4</ele><time>2026-05-02T16:40:24.668Z</time></trkpt><trkpt lat="43.4449539" lon="11.3540562"><ele>335.8</ele><time>2026-05-02T16:40:25.674Z</time></trkpt><trkpt lat="43.4449606" lon="11.3541854"><ele>333.2</ele><time>2026-05-02T16:40:26.674Z</time></trkpt><trkpt lat="43.4449807" lon="11.3543228"><ele>330.59999999999997</ele><time>2026-05-02T16:40:27.666Z</time></trkpt><trkpt lat="43.4450182" lon="11.3544573"><ele>328.0</ele><time>2026-05-02T16:40:28.662Z</time></trkpt><trkpt lat="43.4450741" lon="11.3545839"><ele>327.5</ele><time>2026-05-02T16:40:29.668Z</time></trkpt><trkpt lat="43.445152" lon="11.3547075"><ele>327.0</ele><time>2026-05-02T16:40:30.673Z</time></trkpt><trkpt lat="43.4452373" lon="11.3548369"><ele>326.5</ele><time>2026-05-02T16:40:31.671Z</time></trkpt><trkpt lat="43.4453501" lon="11.3549518"><ele>326.0</ele><time>2026-05-02T16:40:32.668Z</time></trkpt><trkpt lat="43.4454654" lon="11.35505"><ele>327.5</ele><time>2026-05-02T16:40:33.661Z</time></trkpt><trkpt lat="43.4455909" lon="11.3551188"><ele>329.0</ele><time>2026-05-02T16:40:34.674Z</time></trkpt><trkpt lat="43.4457288" lon="11.3551635"><ele>330.5</ele><time>2026-05-02T16:40:35.666Z</time></trkpt><trkpt lat="43.445866" lon="11.3551887"><ele>332.0</ele><time>2026-05-02T16:40:36.667Z</time></trkpt><trkpt lat="43.4460187" lon="11.3552073"><ele>332.0</ele><time>2026-05-02T16:40:37.657Z</time></trkpt><trkpt lat="43.4462023" lon="11.3552177"><ele>332.0</ele><time>2026-05-02T16:40:38.667Z</time></trkpt><trkpt lat="43.4464059" lon="11.3552289"><ele>332.0</ele><time>2026-05-02T16:40:39.662Z</time></trkpt><trkpt lat="43.4466031" lon="11.3552551"><ele>333.6666666666667</ele><time>2026-05-02T16:40:40.668Z</time></trkpt><trkpt lat="43.4467809" lon="11.3552791"><ele>335.3333333333333</ele><time>2026-05-02T16:40:41.676Z</time></trkpt><trkpt lat="43.4469732" lon="11.3553029"><ele>337.0</ele><time>2026-05-02T16:40:42.666Z</time></trkpt><trkpt lat="43.4471681" lon="11.3553268"><ele>341.0</ele><time>2026-05-02T16:40:43.666Z</time></trkpt><trkpt lat="43.4473512" lon="11.3553717"><ele>345.0</ele><time>2026-05-02T16:40:44.665Z</time></trkpt><trkpt lat="43.4475213" lon="11.3554417"><ele>349.0</ele><time>2026-05-02T16:40:45.67Z</time></trkpt><trkpt lat="43.4476914" lon="11.3555244"><ele>344.66666666666663</ele><time>2026-05-02T16:40:46.659Z</time></trkpt><trkpt lat="43.4478755" lon="11.3556377"><ele>340.3333333333333</ele><time>2026-05-02T16:40:47.653Z</time></trkpt><trkpt lat="43.4480904" lon="11.3557681"><ele>336.0</ele><time>2026-05-02T16:40:48.672Z</time></trkpt><trkpt lat="43.4483063" lon="11.3559048"><ele>336.0</ele><time>2026-05-02T16:40:49.664Z</time></trkpt><trkpt lat="43.4485132" lon="11.3560361"><ele>336.0</ele><time>2026-05-02T16:40:50.662Z</time></trkpt><trkpt lat="43.4486913" lon="11.356154"><ele>336.0</ele><time>2026-05-02T16:40:51.671Z</time></trkpt><trkpt lat="43.4488518" lon="11.3562638"><ele>335.0</ele><time>2026-05-02T16:40:52.667Z</time></trkpt><trkpt lat="43.4489937" lon="11.3563679"><ele>334.0</ele><time>2026-05-02T16:40:53.674Z</time></trkpt><trkpt lat="43.4491131" lon="11.3564746"><ele>333.0</ele><time>2026-05-02T16:40:54.663Z</time></trkpt><trkpt lat="43.4492239" lon="11.3565751"><ele>332.0</ele><time>2026-05-02T16:40:55.661Z</time></trkpt><trkpt lat="43.4493262" lon="11.3566521"><ele>332.0</ele><time>2026-05-02T16:40:56.676Z</time></trkpt><trkpt lat="43.4494413" lon="11.3567088"><ele>332.0</ele><time>2026-05-02T16:40:57.655Z</time></trkpt><trkpt lat="43.4495795" lon="11.3567542"><ele>332.0</ele><time>2026-05-02T16:40:58.678Z</time></trkpt><trkpt lat="43.4497334" lon="11.3567743"><ele>332.0</ele><time>2026-05-02T16:40:59.66Z</time></trkpt><trkpt lat="43.449865" lon="11.3567717"><ele>334.0</ele><time>2026-05-02T16:41:00.663Z</time></trkpt><trkpt lat="43.4499757" lon="11.3567441"><ele>336.0</ele><time>2026-05-02T16:41:01.664Z</time></trkpt><trkpt lat="43.4500828" lon="11.3567075"><ele>338.0</ele><time>2026-05-02T16:41:02.659Z</time></trkpt><trkpt lat="43.4501868" lon="11.356644"><ele>340.0</ele><time>2026-05-02T16:41:03.666Z</time></trkpt><trkpt lat="43.4502989" lon="11.3565487"><ele>340.0</ele><time>2026-05-02T16:41:04.668Z</time></trkpt><trkpt lat="43.4504333" lon="11.356432"><ele>340.0</ele><time>2026-05-02T16:41:05.678Z</time></trkpt><trkpt lat="43.4505681" lon="11.3562963"><ele>340.0</ele><time>2026-05-02T16:41:06.668Z</time></trkpt><trkpt lat="43.450671" lon="11.356183"><ele>341.75</ele><time>2026-05-02T16:41:07.667Z</time></trkpt><trkpt lat="43.4507719" lon="11.3560707"><ele>343.5</ele><time>2026-05-02T16:41:08.665Z</time></trkpt><trkpt lat="43.4508811" lon="11.355946"><ele>345.25</ele><time>2026-05-02T16:41:09.679Z</time></trkpt><trkpt lat="43.4509813" lon="11.3558089"><ele>347.0</ele><time>2026-05-02T16:41:10.658Z</time></trkpt><trkpt lat="43.4510749" lon="11.3556961"><ele>347.0</ele><time>2026-05-02T16:41:11.664Z</time></trkpt><trkpt lat="43.4511758" lon="11.3555947"><ele>347.0</ele><time>2026-05-02T16:41:12.674Z</time></trkpt><trkpt lat="43.4512747" lon="11.355521"><ele>347.0</ele><time>2026-05-02T16:41:13.668Z</time></trkpt><trkpt lat="43.451391" lon="11.3554381"><ele>347.0</ele><time>2026-05-02T16:41:14.664Z</time></trkpt><trkpt lat="43.4515052" lon="11.3553593"><ele>347.5</ele><time>2026-05-02T16:41:15.666Z</time></trkpt><trkpt lat="43.4516076" lon="11.3552811"><ele>348.0</ele><time>2026-05-02T16:41:16.676Z</time></trkpt><trkpt lat="43.4517296" lon="11.3552382"><ele>348.5</ele><time>2026-05-02T16:41:17.664Z</time></trkpt><trkpt lat="43.4518701" lon="11.3552267"><ele>349.0</ele><time>2026-05-02T16:41:18.664Z</time></trkpt><trkpt lat="43.4520106" lon="11.3552032"><ele>347.25</ele><time>2026-05-02T16:41:19.669Z</time></trkpt><trkpt lat="43.4521364" lon="11.3551594"><ele>345.5</ele><time>2026-05-02T16:41:20.661Z</time></trkpt><trkpt lat="43.4522493" lon="11.3551172"><ele>343.75</ele><time>2026-05-02T16:41:21.678Z</time></trkpt><trkpt lat="43.4523746" lon="11.3550568"><ele>342.0</ele><time>2026-05-02T16:41:22.679Z</time></trkpt><trkpt lat="43.4525157" lon="11.3549862"><ele>342.0</ele><time>2026-05-02T16:41:23.666Z</time></trkpt><trkpt lat="43.4526666" lon="11.3549112"><ele>342.0</ele><time>2026-05-02T16:41:24.661Z</time></trkpt><trkpt lat="43.4528263" lon="11.3548279"><ele>342.0</ele><time>2026-05-02T16:41:25.668Z</time></trkpt><trkpt lat="43.4530062" lon="11.3547046"><ele>342.6666666666667</ele><time>2026-05-02T16:41:26.661Z</time></trkpt><trkpt lat="43.4531802" lon="11.3545901"><ele>343.33333333333337</ele><time>2026-05-02T16:41:27.681Z</time></trkpt><trkpt lat="43.4533415" lon="11.3544997"><ele>344.0</ele><time>2026-05-02T16:41:28.669Z</time></trkpt><trkpt lat="43.4535021" lon="11.3544207"><ele>344.0</ele><time>2026-05-02T16:41:29.659Z</time></trkpt><trkpt lat="43.4536419" lon="11.3543566"><ele>344.0</ele><time>2026-05-02T16:41:30.669Z</time></trkpt><trkpt lat="43.4537637" lon="11.354301"><ele>344.0</ele><time>2026-05-02T16:41:31.669Z</time></trkpt><trkpt lat="43.4538577" lon="11.3542406"><ele>344.0</ele><time>2026-05-02T16:41:32.656Z</time></trkpt><trkpt lat="43.4539416" lon="11.3541985"><ele>342.4</ele><time>2026-05-02T16:41:33.668Z</time></trkpt><trkpt lat="43.454016" lon="11.3541883"><ele>340.79999999999995</ele><time>2026-05-02T16:41:34.671Z</time></trkpt><trkpt lat="43.4540897" lon="11.3542314"><ele>339.20000000000005</ele><time>2026-05-02T16:41:35.662Z</time></trkpt><trkpt lat="43.4541659" lon="11.3543016"><ele>337.6</ele><time>2026-05-02T16:41:36.66Z</time></trkpt><trkpt lat="43.4542623" lon="11.3543446"><ele>336.0</ele><time>2026-05-02T16:41:37.666Z</time></trkpt><trkpt lat="43.4543666" lon="11.3543451"><ele>336.0</ele><time>2026-05-02T16:41:38.659Z</time></trkpt><trkpt lat="43.4544775" lon="11.354311"><ele>336.0</ele><time>2026-05-02T16:41:39.673Z</time></trkpt><trkpt lat="43.4546006" lon="11.3542374"><ele>336.0</ele><time>2026-05-02T16:41:40.657Z</time></trkpt><trkpt lat="43.4547181" lon="11.3541479"><ele>336.0</ele><time>2026-05-02T16:41:41.669Z</time></trkpt><trkpt lat="43.4548422" lon="11.3540685"><ele>337.75</ele><time>2026-05-02T16:41:42.66Z</time></trkpt><trkpt lat="43.4549694" lon="11.3540133"><ele>339.5</ele><time>2026-05-02T16:41:43.671Z</time></trkpt><trkpt lat="43.4551103" lon="11.3539634"><ele>341.25</ele><time>2026-05-02T16:41:44.664Z</time></trkpt><trkpt lat="43.4552285" lon="11.3539312"><ele>343.0</ele><time>2026-05-02T16:41:45.667Z</time></trkpt><trkpt lat="43.4553271" lon="11.3539023"><ele>343.0</ele><time>2026-05-02T16:41:46.672Z</time></trkpt><trkpt lat="43.4554115" lon="11.353903"><ele>343.0</ele><time>2026-05-02T16:41:47.665Z</time></trkpt><trkpt lat="43.4555098" lon="11.3539207"><ele>343.0</ele><time>2026-05-02T16:41:48.656Z</time></trkpt><trkpt lat="43.4556248" lon="11.3539621"><ele>343.0</ele><time>2026-05-02T16:41:49.668Z</time></trkpt><trkpt lat="43.4557644" lon="11.3540195"><ele>343.0</ele><time>2026-05-02T16:41:50.672Z</time></trkpt><trkpt lat="43.4559142" lon="11.354071"><ele>343.66666666666663</ele><time>2026-05-02T16:41:51.672Z</time></trkpt><trkpt lat="43.4560705" lon="11.3541095"><ele>344.3333333333333</ele><time>2026-05-02T16:41:52.666Z</time></trkpt><trkpt lat="43.4562229" lon="11.354149"><ele>345.0</ele><time>2026-05-02T16:41:53.674Z</time></trkpt><trkpt lat="43.4563889" lon="11.3541788"><ele>345.3333333333333</ele><time>2026-05-02T16:41:54.669Z</time></trkpt><trkpt lat="43.4565568" lon="11.3542085"><ele>345.66666666666663</ele><time>2026-05-02T16:41:55.669Z</time></trkpt><trkpt lat="43.4567159" lon="11.3542342"><ele>346.0</ele><time>2026-05-02T16:41:56.673Z</time></trkpt><trkpt lat="43.4568628" lon="11.3542639"><ele>346.0</ele><time>2026-05-02T16:41:57.672Z</time></trkpt><trkpt lat="43.4570053" lon="11.354303"><ele>346.0</ele><time>2026-05-02T16:41:58.667Z</time></trkpt><trkpt lat="43.457155" lon="11.3543587"><ele>346.0</ele><time>2026-05-02T16:41:59.666Z</time></trkpt><trkpt lat="43.4573205" lon="11.3544562"><ele>349.0</ele><time>2026-05-02T16:42:00.662Z</time></trkpt><trkpt lat="43.4575094" lon="11.3545625"><ele>352.0</ele><time>2026-05-02T16:42:01.67Z</time></trkpt><trkpt lat="43.4577031" lon="11.3546472"><ele>355.0</ele><time>2026-05-02T16:42:02.668Z</time></trkpt><trkpt lat="43.4578666" lon="11.3546964"><ele>353.75</ele><time>2026-05-02T16:42:03.668Z</time></trkpt><trkpt lat="43.4580023" lon="11.3547251"><ele>352.5</ele><time>2026-05-02T16:42:04.676Z</time></trkpt><trkpt lat="43.4581131" lon="11.3547684"><ele>351.25</ele><time>2026-05-02T16:42:05.672Z</time></trkpt><trkpt lat="43.4582293" lon="11.3548362"><ele>350.0</ele><time>2026-05-02T16:42:06.665Z</time></trkpt><trkpt lat="43.4583458" lon="11.3549609"><ele>350.0</ele><time>2026-05-02T16:42:07.658Z</time></trkpt><trkpt lat="43.4584657" lon="11.3550882"><ele>350.0</ele><time>2026-05-02T16:42:08.664Z</time></trkpt><trkpt lat="43.4585897" lon="11.355205"><ele>350.0</ele><time>2026-05-02T16:42:09.668Z</time></trkpt><trkpt lat="43.4587171" lon="11.355307"><ele>350.0</ele><time>2026-05-02T16:42:10.666Z</time></trkpt><trkpt lat="43.4588419" lon="11.3553896"><ele>349.6666666666667</ele><time>2026-05-02T16:42:11.668Z</time></trkpt><trkpt lat="43.4589778" lon="11.3554539"><ele>349.3333333333333</ele><time>2026-05-02T16:42:12.667Z</time></trkpt><trkpt lat="43.4591348" lon="11.3555075"><ele>349.0</ele><time>2026-05-02T16:42:13.676Z</time></trkpt><trkpt lat="43.4592959" lon="11.3555516"><ele>349.0</ele><time>2026-05-02T16:42:14.659Z</time></trkpt><trkpt lat="43.4594585" lon="11.355593"><ele>349.0</ele><time>2026-05-02T16:42:15.663Z</time></trkpt><trkpt lat="43.4596063" lon="11.3556141"><ele>349.0</ele><time>2026-05-02T16:42:16.668Z</time></trkpt><trkpt lat="43.4597349" lon="11.3556194"><ele>349.0</ele><time>2026-05-02T16:42:17.664Z</time></trkpt><trkpt lat="43.4598523" lon="11.3555868"><ele>349.5</ele><time>2026-05-02T16:42:18.671Z</time></trkpt><trkpt lat="43.4599809" lon="11.3555434"><ele>350.0</ele><time>2026-05-02T16:42:19.662Z</time></trkpt><trkpt lat="43.4601155" lon="11.3555156"><ele>350.5</ele><time>2026-05-02T16:42:20.68Z</time></trkpt><trkpt lat="43.4602802" lon="11.3555262"><ele>351.0</ele><time>2026-05-02T16:42:21.665Z</time></trkpt><trkpt lat="43.4604546" lon="11.355549"><ele>351.75</ele><time>2026-05-02T16:42:22.697Z</time></trkpt><trkpt lat="43.4605902" lon="11.3555881"><ele>352.5</ele><time>2026-05-02T16:42:23.653Z</time></trkpt><trkpt lat="43.4607327" lon="11.3556125"><ele>353.25</ele><time>2026-05-02T16:42:24.669Z</time></trkpt><trkpt lat="43.4608696" lon="11.355623"><ele>354.0</ele><time>2026-05-02T16:42:25.669Z</time></trkpt><trkpt lat="43.4610193" lon="11.3555925"><ele>354.0</ele><time>2026-05-02T16:42:26.669Z</time></trkpt><trkpt lat="43.4611771" lon="11.3555515"><ele>354.0</ele><time>2026-05-02T16:42:27.665Z</time></trkpt><trkpt lat="43.461315" lon="11.355522"><ele>354.0</ele><time>2026-05-02T16:42:28.677Z</time></trkpt><trkpt lat="43.4614289" lon="11.3555137"><ele>354.0</ele><time>2026-05-02T16:42:29.666Z</time></trkpt><trkpt lat="43.4615304" lon="11.3555386"><ele>354.6666666666667</ele><time>2026-05-02T16:42:30.666Z</time></trkpt><trkpt lat="43.4616482" lon="11.3555974"><ele>355.33333333333337</ele><time>2026-05-02T16:42:31.661Z</time></trkpt><trkpt lat="43.461798" lon="11.35572"><ele>356.0</ele><time>2026-05-02T16:42:32.671Z</time></trkpt><trkpt lat="43.4619706" lon="11.3558803"><ele>355.6666666666667</ele><time>2026-05-02T16:42:33.676Z</time></trkpt><trkpt lat="43.4621489" lon="11.3560513"><ele>355.3333333333333</ele><time>2026-05-02T16:42:34.664Z</time></trkpt><trkpt lat="43.4623338" lon="11.356227"><ele>355.0</ele><time>2026-05-02T16:42:35.666Z</time></trkpt><trkpt lat="43.4625135" lon="11.3564166"><ele>355.0</ele><time>2026-05-02T16:42:36.661Z</time></trkpt><trkpt lat="43.4626627" lon="11.3565728"><ele>355.0</ele><time>2026-05-02T16:42:37.661Z</time></trkpt><trkpt lat="43.4628069" lon="11.3567056"><ele>355.0</ele><time>2026-05-02T16:42:38.672Z</time></trkpt><trkpt lat="43.4629224" lon="11.3568258"><ele>357.6</ele><time>2026-05-02T16:42:39.689Z</time></trkpt><trkpt lat="43.4630138" lon="11.356901"><ele>360.2</ele><time>2026-05-02T16:42:40.668Z</time></trkpt><trkpt lat="43.4631078" lon="11.356954"><ele>362.79999999999995</ele><time>2026-05-02T16:42:41.67Z</time></trkpt><trkpt lat="43.4632112" lon="11.3569859"><ele>365.4</ele><time>2026-05-02T16:42:42.663Z</time></trkpt><trkpt lat="43.4633322" lon="11.3570082"><ele>368.0</ele><time>2026-05-02T16:42:43.682Z</time></trkpt><trkpt lat="43.4634809" lon="11.3570361"><ele>368.0</ele><time>2026-05-02T16:42:44.675Z</time></trkpt><trkpt lat="43.4636398" lon="11.357078"><ele>368.0</ele><time>2026-05-02T16:42:45.657Z</time></trkpt><trkpt lat="43.4637934" lon="11.3571026"><ele>368.0</ele><time>2026-05-02T16:42:46.675Z</time></trkpt><trkpt lat="43.4639273" lon="11.3571274"><ele>367.0</ele><time>2026-05-02T16:42:47.664Z</time></trkpt><trkpt lat="43.4640513" lon="11.357167"><ele>366.0</ele><time>2026-05-02T16:42:48.675Z</time></trkpt><trkpt lat="43.4641714" lon="11.3572466"><ele>365.0</ele><time>2026-05-02T16:42:49.666Z</time></trkpt><trkpt lat="43.4642883" lon="11.3573369"><ele>364.0</ele><time>2026-05-02T16:42:50.664Z</time></trkpt><trkpt lat="43.4643983" lon="11.3574254"><ele>364.0</ele><time>2026-05-02T16:42:51.666Z</time></trkpt><trkpt lat="43.4645005" lon="11.3575256"><ele>364.0</ele><time>2026-05-02T16:42:52.664Z</time></trkpt><trkpt lat="43.4645946" lon="11.3576489"><ele>364.0</ele><time>2026-05-02T16:42:53.667Z</time></trkpt><trkpt lat="43.4646797" lon="11.3578136"><ele>364.0</ele><time>2026-05-02T16:42:54.672Z</time></trkpt><trkpt lat="43.4647565" lon="11.3579964"><ele>365.66666666666663</ele><time>2026-05-02T16:42:55.665Z</time></trkpt><trkpt lat="43.4648308" lon="11.3581836"><ele>367.3333333333333</ele><time>2026-05-02T16:42:56.666Z</time></trkpt><trkpt lat="43.4649014" lon="11.3583912"><ele>369.0</ele><time>2026-05-02T16:42:57.669Z</time></trkpt><trkpt lat="43.4649558" lon="11.3586267"><ele>369.0</ele><time>2026-05-02T16:42:58.663Z</time></trkpt><trkpt lat="43.4649754" lon="11.3588636"><ele>369.0</ele><time>2026-05-02T16:42:59.664Z</time></trkpt><trkpt lat="43.4649872" lon="11.3590611"><ele>369.0</ele><time>2026-05-02T16:43:00.665Z</time></trkpt><trkpt lat="43.465002" lon="11.3592486"><ele>368.0</ele><time>2026-05-02T16:43:01.666Z</time></trkpt><trkpt lat="43.4650229" lon="11.3594284"><ele>367.0</ele><time>2026-05-02T16:43:02.667Z</time></trkpt><trkpt lat="43.4650703" lon="11.359621"><ele>366.0</ele><time>2026-05-02T16:43:03.672Z</time></trkpt><trkpt lat="43.4651268" lon="11.3597874"><ele>365.0</ele><time>2026-05-02T16:43:04.672Z</time></trkpt><trkpt lat="43.4651853" lon="11.3599163"><ele>364.5</ele><time>2026-05-02T16:43:05.665Z</time></trkpt><trkpt lat="43.4652652" lon="11.3600328"><ele>364.0</ele><time>2026-05-02T16:43:06.65Z</time></trkpt><trkpt lat="43.465356" lon="11.3601603"><ele>363.5</ele><time>2026-05-02T16:43:07.673Z</time></trkpt><trkpt lat="43.4654501" lon="11.3603118"><ele>363.0</ele><time>2026-05-02T16:43:08.658Z</time></trkpt><trkpt lat="43.4655479" lon="11.3604804"><ele>364.75</ele><time>2026-05-02T16:43:09.66Z</time></trkpt><trkpt lat="43.465634" lon="11.3606354"><ele>366.5</ele><time>2026-05-02T16:43:10.664Z</time></trkpt><trkpt lat="43.4657086" lon="11.3607774"><ele>368.25</ele><time>2026-05-02T16:43:11.654Z</time></trkpt><trkpt lat="43.4657939" lon="11.3608994"><ele>370.0</ele><time>2026-05-02T16:43:12.66Z</time></trkpt><trkpt lat="43.4658945" lon="11.3609949"><ele>370.0</ele><time>2026-05-02T16:43:13.674Z</time></trkpt><trkpt lat="43.4659981" lon="11.3610653"><ele>370.0</ele><time>2026-05-02T16:43:14.652Z</time></trkpt><trkpt lat="43.4660829" lon="11.3611548"><ele>370.0</ele><time>2026-05-02T16:43:15.675Z</time></trkpt><trkpt lat="43.4661553" lon="11.3612629"><ele>370.0</ele><time>2026-05-02T16:43:16.66Z</time></trkpt><trkpt lat="43.4662123" lon="11.3614054"><ele>370.0</ele><time>2026-05-02T16:43:17.664Z</time></trkpt><trkpt lat="43.4662647" lon="11.3615972"><ele>374.0</ele><time>2026-05-02T16:43:18.658Z</time></trkpt><trkpt lat="43.4663224" lon="11.3618025"><ele>378.0</ele><time>2026-05-02T16:43:19.665Z</time></trkpt><trkpt lat="43.4663825" lon="11.3620057"><ele>382.0</ele><time>2026-05-02T16:43:20.665Z</time></trkpt><trkpt lat="43.4664366" lon="11.3621841"><ele>378.75</ele><time>2026-05-02T16:43:21.658Z</time></trkpt><trkpt lat="43.4665059" lon="11.3623405"><ele>375.5</ele><time>2026-05-02T16:43:22.663Z</time></trkpt><trkpt lat="43.466585" lon="11.3624895"><ele>372.25</ele><time>2026-05-02T16:43:23.665Z</time></trkpt><trkpt lat="43.466664" lon="11.3626256"><ele>369.0</ele><time>2026-05-02T16:43:24.674Z</time></trkpt><trkpt lat="43.4667435" lon="11.3627474"><ele>369.0</ele><time>2026-05-02T16:43:25.667Z</time></trkpt><trkpt lat="43.4668168" lon="11.3628686"><ele>369.0</ele><time>2026-05-02T16:43:26.677Z</time></trkpt><trkpt lat="43.4668657" lon="11.3630036"><ele>369.0</ele><time>2026-05-02T16:43:27.669Z</time></trkpt><trkpt lat="43.4668657" lon="11.3631736"><ele>369.0</ele><time>2026-05-02T16:43:28.657Z</time></trkpt><trkpt lat="43.4668357" lon="11.3633543"><ele>369.0</ele><time>2026-05-02T16:43:29.676Z</time></trkpt><trkpt lat="43.4667778" lon="11.3635608"><ele>369.0</ele><time>2026-05-02T16:43:30.662Z</time></trkpt><trkpt lat="43.4667197" lon="11.3637993"><ele>369.0</ele><time>2026-05-02T16:43:31.668Z</time></trkpt><trkpt lat="43.4666566" lon="11.364069"><ele>369.0</ele><time>2026-05-02T16:43:32.672Z</time></trkpt><trkpt lat="43.4665897" lon="11.3643667"><ele>369.0</ele><time>2026-05-02T16:43:33.661Z</time></trkpt><trkpt lat="43.4665146" lon="11.3646999"><ele>369.5</ele><time>2026-05-02T16:43:34.662Z</time></trkpt><trkpt lat="43.4664379" lon="11.3650666"><ele>370.0</ele><time>2026-05-02T16:43:35.663Z</time></trkpt><trkpt lat="43.4663562" lon="11.3654388"><ele>369.0</ele><time>2026-05-02T16:43:36.697Z</time></trkpt><trkpt lat="43.4662797" lon="11.3657828"><ele>368.0</ele><time>2026-05-02T16:43:37.67Z</time></trkpt><trkpt lat="43.4662141" lon="11.3660856"><ele>368.33333333333337</ele><time>2026-05-02T16:43:38.67Z</time></trkpt><trkpt lat="43.4661558" lon="11.366368"><ele>368.6666666666667</ele><time>2026-05-02T16:43:39.666Z</time></trkpt><trkpt lat="43.4660952" lon="11.3666315"><ele>369.0</ele><time>2026-05-02T16:43:40.672Z</time></trkpt><trkpt lat="43.466036" lon="11.3668845"><ele>369.0</ele><time>2026-05-02T16:43:41.662Z</time></trkpt><trkpt lat="43.4659788" lon="11.3671417"><ele>369.0</ele><time>2026-05-02T16:43:42.667Z</time></trkpt><trkpt lat="43.4659194" lon="11.3673886"><ele>369.0</ele><time>2026-05-02T16:43:43.659Z</time></trkpt><trkpt lat="43.465869" lon="11.3676257"><ele>369.6666666666667</ele><time>2026-05-02T16:43:44.674Z</time></trkpt><trkpt lat="43.465826" lon="11.3678516"><ele>370.33333333333337</ele><time>2026-05-02T16:43:45.658Z</time></trkpt><trkpt lat="43.4657856" lon="11.3680617"><ele>371.0</ele><time>2026-05-02T16:43:46.656Z</time></trkpt><trkpt lat="43.4657602" lon="11.3682556"><ele>372.0</ele><time>2026-05-02T16:43:47.663Z</time></trkpt><trkpt lat="43.4657466" lon="11.3684419"><ele>373.0</ele><time>2026-05-02T16:43:48.664Z</time></trkpt><trkpt lat="43.4657567" lon="11.3686454"><ele>374.0</ele><time>2026-05-02T16:43:49.665Z</time></trkpt><trkpt lat="43.4657973" lon="11.3688749"><ele>374.0</ele><time>2026-05-02T16:43:50.671Z</time></trkpt><trkpt lat="43.4658617" lon="11.3691462"><ele>374.0</ele><time>2026-05-02T16:43:51.666Z</time></trkpt><trkpt lat="43.4659293" lon="11.369415"><ele>374.0</ele><time>2026-05-02T16:43:52.662Z</time></trkpt><trkpt lat="43.4660013" lon="11.369675"><ele>374.6666666666667</ele><time>2026-05-02T16:43:53.666Z</time></trkpt><trkpt lat="43.4660794" lon="11.3699149"><ele>375.3333333333333</ele><time>2026-05-02T16:43:54.672Z</time></trkpt><trkpt lat="43.4661669" lon="11.3701474"><ele>376.0</ele><time>2026-05-02T16:43:55.666Z</time></trkpt><trkpt lat="43.4662776" lon="11.3703717"><ele>377.0</ele><time>2026-05-02T16:43:56.66Z</time></trkpt><trkpt lat="43.4663913" lon="11.3705773"><ele>378.0</ele><time>2026-05-02T16:43:57.678Z</time></trkpt><trkpt lat="43.4664964" lon="11.370765"><ele>379.0</ele><time>2026-05-02T16:43:58.675Z</time></trkpt><trkpt lat="43.4665982" lon="11.3709384"><ele>379.0</ele><time>2026-05-02T16:43:59.666Z</time></trkpt><trkpt lat="43.4666965" lon="11.3710861"><ele>379.0</ele><time>2026-05-02T16:44:00.666Z</time></trkpt><trkpt lat="43.4667956" lon="11.3712037"><ele>379.0</ele><time>2026-05-02T16:44:01.663Z</time></trkpt><trkpt lat="43.4669239" lon="11.3713088"><ele>379.0</ele><time>2026-05-02T16:44:02.675Z</time></trkpt><trkpt lat="43.467082" lon="11.3714106"><ele>379.3333333333333</ele><time>2026-05-02T16:44:03.66Z</time></trkpt><trkpt lat="43.4672415" lon="11.3715196"><ele>379.6666666666667</ele><time>2026-05-02T16:44:04.654Z</time></trkpt><trkpt lat="43.4673659" lon="11.3716287"><ele>380.0</ele><time>2026-05-02T16:44:05.661Z</time></trkpt><trkpt lat="43.4674611" lon="11.3717448"><ele>380.0</ele><time>2026-05-02T16:44:06.673Z</time></trkpt><trkpt lat="43.4675434" lon="11.3718916"><ele>380.0</ele><time>2026-05-02T16:44:07.685Z</time></trkpt><trkpt lat="43.4676155" lon="11.3720548"><ele>380.0</ele><time>2026-05-02T16:44:08.657Z</time></trkpt><trkpt lat="43.4676822" lon="11.372237"><ele>380.0</ele><time>2026-05-02T16:44:09.664Z</time></trkpt><trkpt lat="43.4677445" lon="11.3724458"><ele>379.25</ele><time>2026-05-02T16:44:10.653Z</time></trkpt><trkpt lat="43.4678021" lon="11.3726455"><ele>378.5</ele><time>2026-05-02T16:44:11.664Z</time></trkpt><trkpt lat="43.4678409" lon="11.3728178"><ele>377.75</ele><time>2026-05-02T16:44:12.65Z</time></trkpt><trkpt lat="43.4678543" lon="11.3729553"><ele>377.0</ele><time>2026-05-02T16:44:13.66Z</time></trkpt><trkpt lat="43.4678673" lon="11.3730618"><ele>377.0</ele><time>2026-05-02T16:44:14.668Z</time></trkpt><trkpt lat="43.4678793" lon="11.3731845"><ele>377.0</ele><time>2026-05-02T16:44:16.661Z</time></trkpt><trkpt lat="43.4679265" lon="11.3732597"><ele>377.0</ele><time>2026-05-02T16:44:20.67Z</time></trkpt><trkpt lat="43.468031" lon="11.3732864"><ele>377.0</ele><time>2026-05-02T16:45:14.656Z</time></trkpt><trkpt lat="43.4681154" lon="11.3733269"><ele>377.0</ele><time>2026-05-02T16:45:15.668Z</time></trkpt><trkpt lat="43.4682206" lon="11.3733866"><ele>378.5</ele><time>2026-05-02T16:45:16.671Z</time></trkpt><trkpt lat="43.4683434" lon="11.3734538"><ele>380.0</ele><time>2026-05-02T16:45:17.664Z</time></trkpt><trkpt lat="43.4684649" lon="11.3735477"><ele>381.5</ele><time>2026-05-02T16:45:18.664Z</time></trkpt><trkpt lat="43.4685707" lon="11.3736693"><ele>383.0</ele><time>2026-05-02T16:45:19.664Z</time></trkpt><trkpt lat="43.4686655" lon="11.373819"><ele>383.6666666666667</ele><time>2026-05-02T16:45:20.658Z</time></trkpt><trkpt lat="43.4687788" lon="11.3739811"><ele>384.33333333333337</ele><time>2026-05-02T16:45:21.681Z</time></trkpt><trkpt lat="43.4688987" lon="11.3741198"><ele>385.0</ele><time>2026-05-02T16:45:22.66Z</time></trkpt><trkpt lat="43.4690265" lon="11.3742218"><ele>385.0</ele><time>2026-05-02T16:45:23.673Z</time></trkpt><trkpt lat="43.4691579" lon="11.3742862"><ele>385.0</ele><time>2026-05-02T16:45:24.665Z</time></trkpt><trkpt lat="43.469309" lon="11.3742947"><ele>385.0</ele><time>2026-05-02T16:45:25.662Z</time></trkpt><trkpt lat="43.4694713" lon="11.3742864"><ele>387.33333333333337</ele><time>2026-05-02T16:45:26.67Z</time></trkpt><trkpt lat="43.4696383" lon="11.3742794"><ele>389.66666666666663</ele><time>2026-05-02T16:45:27.661Z</time></trkpt><trkpt lat="43.4698109" lon="11.3742843"><ele>392.0</ele><time>2026-05-02T16:45:28.665Z</time></trkpt><trkpt lat="43.4699973" lon="11.374297"><ele>392.0</ele><time>2026-05-02T16:45:29.666Z</time></trkpt><trkpt lat="43.4701943" lon="11.3743009"><ele>392.0</ele><time>2026-05-02T16:45:30.666Z</time></trkpt><trkpt lat="43.4703896" lon="11.3743084"><ele>392.0</ele><time>2026-05-02T16:45:31.665Z</time></trkpt><trkpt lat="43.4705816" lon="11.3743082"><ele>393.0</ele><time>2026-05-02T16:45:32.669Z</time></trkpt><trkpt lat="43.4707561" lon="11.3742983"><ele>394.0</ele><time>2026-05-02T16:45:33.664Z</time></trkpt><trkpt lat="43.4709093" lon="11.3742871"><ele>395.0</ele><time>2026-05-02T16:45:34.684Z</time></trkpt><trkpt lat="43.4710589" lon="11.3742532"><ele>395.0</ele><time>2026-05-02T16:45:35.661Z</time></trkpt><trkpt lat="43.4712228" lon="11.3742107"><ele>395.0</ele><time>2026-05-02T16:45:36.654Z</time></trkpt><trkpt lat="43.4714104" lon="11.3741453"><ele>395.0</ele><time>2026-05-02T16:45:37.657Z</time></trkpt><trkpt lat="43.4716104" lon="11.3740751"><ele>395.66666666666663</ele><time>2026-05-02T16:45:38.659Z</time></trkpt><trkpt lat="43.4718251" lon="11.3740125"><ele>396.33333333333337</ele><time>2026-05-02T16:45:39.664Z</time></trkpt><trkpt lat="43.4720254" lon="11.3739648"><ele>397.0</ele><time>2026-05-02T16:45:40.665Z</time></trkpt><trkpt lat="43.472204" lon="11.373931"><ele>399.0</ele><time>2026-05-02T16:45:41.67Z</time></trkpt><trkpt lat="43.4723545" lon="11.3739224"><ele>401.0</ele><time>2026-05-02T16:45:42.662Z</time></trkpt><trkpt lat="43.4724978" lon="11.3739512"><ele>403.0</ele><time>2026-05-02T16:45:43.658Z</time></trkpt><trkpt lat="43.4726549" lon="11.3740362"><ele>403.0</ele><time>2026-05-02T16:45:44.669Z</time></trkpt><trkpt lat="43.4728001" lon="11.3741422"><ele>403.0</ele><time>2026-05-02T16:45:45.665Z</time></trkpt><trkpt lat="43.4729546" lon="11.3742543"><ele>403.0</ele><time>2026-05-02T16:45:46.668Z</time></trkpt><trkpt lat="43.4731111" lon="11.3743322"><ele>405.75</ele><time>2026-05-02T16:45:47.669Z</time></trkpt><trkpt lat="43.4732516" lon="11.374386"><ele>408.5</ele><time>2026-05-02T16:45:48.664Z</time></trkpt><trkpt lat="43.4733778" lon="11.3744105"><ele>411.25</ele><time>2026-05-02T16:45:49.673Z</time></trkpt><trkpt lat="43.4735101" lon="11.374403"><ele>414.0</ele><time>2026-05-02T16:45:50.654Z</time></trkpt><trkpt lat="43.4736381" lon="11.3743446"><ele>414.0</ele><time>2026-05-02T16:45:51.675Z</time></trkpt><trkpt lat="43.4737512" lon="11.3742353"><ele>414.0</ele><time>2026-05-02T16:45:52.673Z</time></trkpt><trkpt lat="43.4738484" lon="11.3740848"><ele>414.0</ele><time>2026-05-02T16:45:53.662Z</time></trkpt><trkpt lat="43.4739409" lon="11.3738967"><ele>414.0</ele><time>2026-05-02T16:45:54.67Z</time></trkpt><trkpt lat="43.4740468" lon="11.3737319"><ele>417.0</ele><time>2026-05-02T16:45:55.665Z</time></trkpt><trkpt lat="43.4741665" lon="11.3736275"><ele>420.0</ele><time>2026-05-02T16:45:56.67Z</time></trkpt><trkpt lat="43.4742669" lon="11.3735793"><ele>423.0</ele><time>2026-05-02T16:45:57.665Z</time></trkpt><trkpt lat="43.4743579" lon="11.37354"><ele>426.0</ele><time>2026-05-02T16:45:58.672Z</time></trkpt><trkpt lat="43.4744582" lon="11.3735598"><ele>429.0</ele><time>2026-05-02T16:45:59.66Z</time></trkpt><trkpt lat="43.4745719" lon="11.3736389"><ele>430.25</ele><time>2026-05-02T16:46:00.663Z</time></trkpt><trkpt lat="43.4746678" lon="11.3737686"><ele>431.5</ele><time>2026-05-02T16:46:01.661Z</time></trkpt><trkpt lat="43.4747678" lon="11.3738967"><ele>432.75</ele><time>2026-05-02T16:46:02.658Z</time></trkpt><trkpt lat="43.4748847" lon="11.3739316"><ele>434.0</ele><time>2026-05-02T16:46:03.666Z</time></trkpt><trkpt lat="43.4750524" lon="11.3739375"><ele>436.0</ele><time>2026-05-02T16:46:04.665Z</time></trkpt><trkpt lat="43.475235" lon="11.3739133"><ele>438.0</ele><time>2026-05-02T16:46:05.667Z</time></trkpt><trkpt lat="43.4754223" lon="11.3738822"><ele>440.0</ele><time>2026-05-02T16:46:06.661Z</time></trkpt><trkpt lat="43.4756236" lon="11.3738533"><ele>440.0</ele><time>2026-05-02T16:46:07.673Z</time></trkpt><trkpt lat="43.4758294" lon="11.3738287"><ele>440.0</ele><time>2026-05-02T16:46:08.675Z</time></trkpt><trkpt lat="43.476018" lon="11.373811"><ele>440.0</ele><time>2026-05-02T16:46:09.663Z</time></trkpt><trkpt lat="43.4761612" lon="11.3738026"><ele>438.8</ele><time>2026-05-02T16:46:10.658Z</time></trkpt><trkpt lat="43.4762796" lon="11.3737836"><ele>437.6</ele><time>2026-05-02T16:46:11.67Z</time></trkpt><trkpt lat="43.4763774" lon="11.3737467"><ele>436.4</ele><time>2026-05-02T16:46:12.671Z</time></trkpt><trkpt lat="43.4764623" lon="11.37368"><ele>435.2</ele><time>2026-05-02T16:46:13.678Z</time></trkpt><trkpt lat="43.4765251" lon="11.3735722"><ele>434.0</ele><time>2026-05-02T16:46:14.685Z</time></trkpt><trkpt lat="43.4765669" lon="11.3734037"><ele>434.0</ele><time>2026-05-02T16:46:15.663Z</time></trkpt><trkpt lat="43.4765942" lon="11.373225"><ele>434.0</ele><time>2026-05-02T16:46:16.667Z</time></trkpt><trkpt lat="43.4766217" lon="11.3730176"><ele>434.0</ele><time>2026-05-02T16:46:17.67Z</time></trkpt><trkpt lat="43.4766457" lon="11.3728165"><ele>434.0</ele><time>2026-05-02T16:46:18.653Z</time></trkpt><trkpt lat="43.4766693" lon="11.3726251"><ele>436.4</ele><time>2026-05-02T16:46:19.681Z</time></trkpt><trkpt lat="43.476695" lon="11.3724671"><ele>438.79999999999995</ele><time>2026-05-02T16:46:20.662Z</time></trkpt><trkpt lat="43.4767142" lon="11.3723511"><ele>441.20000000000005</ele><time>2026-05-02T16:46:21.658Z</time></trkpt><trkpt lat="43.4767284" lon="11.3722293"><ele>443.6</ele><time>2026-05-02T16:46:22.663Z</time></trkpt><trkpt lat="43.4767495" lon="11.3720952"><ele>446.0</ele><time>2026-05-02T16:46:23.67Z</time></trkpt><trkpt lat="43.4767969" lon="11.3719629"><ele>448.25</ele><time>2026-05-02T16:46:24.666Z</time></trkpt><trkpt lat="43.4768698" lon="11.3718662"><ele>450.5</ele><time>2026-05-02T16:46:25.672Z</time></trkpt><trkpt lat="43.4769742" lon="11.3718275"><ele>452.75</ele><time>2026-05-02T16:46:26.659Z</time></trkpt><trkpt lat="43.477112" lon="11.371814"><ele>455.0</ele><time>2026-05-02T16:46:27.676Z</time></trkpt><trkpt lat="43.4772787" lon="11.3718837"><ele>455.66666666666663</ele><time>2026-05-02T16:46:28.669Z</time></trkpt><trkpt lat="43.4774458" lon="11.3719693"><ele>456.33333333333337</ele><time>2026-05-02T16:46:29.676Z</time></trkpt><trkpt lat="43.477598" lon="11.3720073"><ele>457.0</ele><time>2026-05-02T16:46:30.672Z</time></trkpt><trkpt lat="43.477737" lon="11.3720015"><ele>457.0</ele><time>2026-05-02T16:46:31.667Z</time></trkpt><trkpt lat="43.4778699" lon="11.3719787"><ele>457.0</ele><time>2026-05-02T16:46:32.67Z</time></trkpt><trkpt lat="43.4779984" lon="11.3719269"><ele>457.0</ele><time>2026-05-02T16:46:33.658Z</time></trkpt><trkpt lat="43.47811" lon="11.3718376"><ele>457.0</ele><time>2026-05-02T16:46:34.675Z</time></trkpt><trkpt lat="43.4781897" lon="11.3717005"><ele>456.25</ele><time>2026-05-02T16:46:35.681Z</time></trkpt><trkpt lat="43.4782456" lon="11.3715352"><ele>455.5</ele><time>2026-05-02T16:46:36.671Z</time></trkpt><trkpt lat="43.4782611" lon="11.3713648"><ele>454.75</ele><time>2026-05-02T16:46:37.673Z</time></trkpt><trkpt lat="43.4782394" lon="11.3711763"><ele>454.0</ele><time>2026-05-02T16:46:38.668Z</time></trkpt><trkpt lat="43.4781792" lon="11.3709702"><ele>457.0</ele><time>2026-05-02T16:46:39.679Z</time></trkpt><trkpt lat="43.4781099" lon="11.3707268"><ele>460.0</ele><time>2026-05-02T16:46:40.67Z</time></trkpt><trkpt lat="43.4780458" lon="11.3704928"><ele>463.0</ele><time>2026-05-02T16:46:41.67Z</time></trkpt><trkpt lat="43.4779982" lon="11.3702946"><ele>464.59999999999997</ele><time>2026-05-02T16:46:42.664Z</time></trkpt><trkpt lat="43.4779645" lon="11.3701318"><ele>466.19999999999993</ele><time>2026-05-02T16:46:43.678Z</time></trkpt><trkpt lat="43.4779583" lon="11.3699999"><ele>467.8</ele><time>2026-05-02T16:46:44.668Z</time></trkpt><trkpt lat="43.4779987" lon="11.369875"><ele>469.4</ele><time>2026-05-02T16:46:45.694Z</time></trkpt><trkpt lat="43.4780852" lon="11.369808"><ele>471.0</ele><time>2026-05-02T16:46:46.67Z</time></trkpt><trkpt lat="43.4782084" lon="11.3697731"><ele>471.0</ele><time>2026-05-02T16:46:47.666Z</time></trkpt><trkpt lat="43.4783689" lon="11.3697928"><ele>471.0</ele><time>2026-05-02T16:46:48.667Z</time></trkpt><trkpt lat="43.478509" lon="11.3698211"><ele>471.0</ele><time>2026-05-02T16:46:49.679Z</time></trkpt><trkpt lat="43.4786244" lon="11.3698012"><ele>471.0</ele><time>2026-05-02T16:46:50.668Z</time></trkpt><trkpt lat="43.4787344" lon="11.3697083"><ele>474.33333333333337</ele><time>2026-05-02T16:46:51.67Z</time></trkpt><trkpt lat="43.4788518" lon="11.3695662"><ele>477.6666666666667</ele><time>2026-05-02T16:46:52.661Z</time></trkpt><trkpt lat="43.4789963" lon="11.3693657"><ele>481.0</ele><time>2026-05-02T16:46:53.662Z</time></trkpt><trkpt lat="43.4791441" lon="11.3691503"><ele>481.0</ele><time>2026-05-02T16:46:54.67Z</time></trkpt><trkpt lat="43.4793024" lon="11.3689192"><ele>481.0</ele><time>2026-05-02T16:46:55.666Z</time></trkpt><trkpt lat="43.4794686" lon="11.3686888"><ele>481.33333333333337</ele><time>2026-05-02T16:46:56.672Z</time></trkpt><trkpt lat="43.4796275" lon="11.3684702"><ele>481.66666666666663</ele><time>2026-05-02T16:46:57.658Z</time></trkpt><trkpt lat="43.4797767" lon="11.3682605"><ele>482.0</ele><time>2026-05-02T16:46:58.659Z</time></trkpt><trkpt lat="43.4799105" lon="11.3680608"><ele>486.66666666666663</ele><time>2026-05-02T16:46:59.677Z</time></trkpt><trkpt lat="43.480034" lon="11.3678838"><ele>491.33333333333337</ele><time>2026-05-02T16:47:00.672Z</time></trkpt><trkpt lat="43.480139" lon="11.3677443"><ele>496.0</ele><time>2026-05-02T16:47:01.662Z</time></trkpt><trkpt lat="43.4802429" lon="11.3676472"><ele>496.0</ele><time>2026-05-02T16:47:02.672Z</time></trkpt><trkpt lat="43.4803509" lon="11.3676415"><ele>496.0</ele><time>2026-05-02T16:47:03.676Z</time></trkpt><trkpt lat="43.480462" lon="11.3677002"><ele>496.0</ele><time>2026-05-02T16:47:04.67Z</time></trkpt><trkpt lat="43.4805707" lon="11.3677514"><ele>496.0</ele><time>2026-05-02T16:47:05.667Z</time></trkpt><trkpt lat="43.4806978" lon="11.3677271"><ele>494.5</ele><time>2026-05-02T16:47:06.663Z</time></trkpt><trkpt lat="43.4807976" lon="11.3676447"><ele>493.0</ele><time>2026-05-02T16:47:07.664Z</time></trkpt><trkpt lat="43.4808792" lon="11.3675031"><ele>491.5</ele><time>2026-05-02T16:47:08.68Z</time></trkpt><trkpt lat="43.4809684" lon="11.3673489"><ele>490.0</ele><time>2026-05-02T16:47:09.658Z</time></trkpt><trkpt lat="43.4810821" lon="11.3672044"><ele>491.5</ele><time>2026-05-02T16:47:10.659Z</time></trkpt><trkpt lat="43.4812114" lon="11.3671148"><ele>493.0</ele><time>2026-05-02T16:47:11.661Z</time></trkpt><trkpt lat="43.4813442" lon="11.367103"><ele>494.5</ele><time>2026-05-02T16:47:12.661Z</time></trkpt><trkpt lat="43.4814878" lon="11.3671077"><ele>496.0</ele><time>2026-05-02T16:47:13.665Z</time></trkpt><trkpt lat="43.4816389" lon="11.3670871"><ele>496.0</ele><time>2026-05-02T16:47:14.668Z</time></trkpt><trkpt lat="43.4817862" lon="11.3670182"><ele>496.0</ele><time>2026-05-02T16:47:15.665Z</time></trkpt><trkpt lat="43.4819211" lon="11.3668936"><ele>496.0</ele><time>2026-05-02T16:47:16.677Z</time></trkpt><trkpt lat="43.4820309" lon="11.3667301"><ele>494.6666666666667</ele><time>2026-05-02T16:47:17.673Z</time></trkpt><trkpt lat="43.4821385" lon="11.3665477"><ele>493.33333333333337</ele><time>2026-05-02T16:47:18.671Z</time></trkpt><trkpt lat="43.4822625" lon="11.3664381"><ele>492.0</ele><time>2026-05-02T16:47:19.662Z</time></trkpt><trkpt lat="43.4824008" lon="11.3663748"><ele>492.0</ele><time>2026-05-02T16:47:20.663Z</time></trkpt><trkpt lat="43.4825398" lon="11.366388"><ele>492.0</ele><time>2026-05-02T16:47:21.667Z</time></trkpt><trkpt lat="43.4826873" lon="11.3664398"><ele>492.0</ele><time>2026-05-02T16:47:22.668Z</time></trkpt><trkpt lat="43.482839" lon="11.3664896"><ele>492.0</ele><time>2026-05-02T16:47:23.673Z</time></trkpt><trkpt lat="43.4829913" lon="11.3665122"><ele>492.25</ele><time>2026-05-02T16:47:24.671Z</time></trkpt><trkpt lat="43.4831358" lon="11.3664787"><ele>492.5</ele><time>2026-05-02T16:47:25.661Z</time></trkpt><trkpt lat="43.48326" lon="11.3664004"><ele>492.75</ele><time>2026-05-02T16:47:26.668Z</time></trkpt><trkpt lat="43.48338" lon="11.3662895"><ele>493.0</ele><time>2026-05-02T16:47:27.663Z</time></trkpt><trkpt lat="43.4834901" lon="11.3661614"><ele>495.0</ele><time>2026-05-02T16:47:28.669Z</time></trkpt><trkpt lat="43.4835869" lon="11.3660177"><ele>497.0</ele><time>2026-05-02T16:47:29.667Z</time></trkpt><trkpt lat="43.4836814" lon="11.3658615"><ele>499.0</ele><time>2026-05-02T16:47:30.664Z</time></trkpt><trkpt lat="43.4837721" lon="11.3657249"><ele>501.0</ele><time>2026-05-02T16:47:31.666Z</time></trkpt><trkpt lat="43.4838585" lon="11.3656322"><ele>501.0</ele><time>2026-05-02T16:47:32.665Z</time></trkpt><trkpt lat="43.4839192" lon="11.3655733"><ele>501.0</ele><time>2026-05-02T16:47:33.67Z</time></trkpt><trkpt lat="43.4839773" lon="11.3655283"><ele>501.0</ele><time>2026-05-02T16:47:35.669Z</time></trkpt><trkpt lat="43.4840523" lon="11.3655454"><ele>501.0</ele><time>2026-05-02T16:49:01.672Z</time></trkpt><trkpt lat="43.4841213" lon="11.3655718"><ele>501.0</ele><time>2026-05-02T16:49:02.66Z</time></trkpt><trkpt lat="43.4842009" lon="11.365605"><ele>501.0</ele><time>2026-05-02T16:49:03.68Z</time></trkpt><trkpt lat="43.4842696" lon="11.3656566"><ele>501.0</ele><time>2026-05-02T16:49:04.677Z</time></trkpt><trkpt lat="43.4843373" lon="11.3657307"><ele>501.0</ele><time>2026-05-02T16:49:05.678Z</time></trkpt><trkpt lat="43.4843909" lon="11.3658453"><ele>501.0</ele><time>2026-05-02T16:49:06.673Z</time></trkpt><trkpt lat="43.484411" lon="11.3659956"><ele>501.0</ele><time>2026-05-02T16:49:07.67Z</time></trkpt><trkpt lat="43.4843894" lon="11.3661906"><ele>501.0</ele><time>2026-05-02T16:49:08.663Z</time></trkpt><trkpt lat="43.4843595" lon="11.3664153"><ele>499.5</ele><time>2026-05-02T16:49:09.659Z</time></trkpt><trkpt lat="43.4843473" lon="11.366619"><ele>498.0</ele><time>2026-05-02T16:49:10.667Z</time></trkpt><trkpt lat="43.484363" lon="11.3667986"><ele>496.5</ele><time>2026-05-02T16:49:11.66Z</time></trkpt><trkpt lat="43.4844052" lon="11.3669591"><ele>495.0</ele><time>2026-05-02T16:49:12.664Z</time></trkpt><trkpt lat="43.484457" lon="11.3671156"><ele>494.75</ele><time>2026-05-02T16:49:13.678Z</time></trkpt><trkpt lat="43.4845048" lon="11.3672867"><ele>494.5</ele><time>2026-05-02T16:49:14.664Z</time></trkpt><trkpt lat="43.484554" lon="11.3674781"><ele>494.25</ele><time>2026-05-02T16:49:15.659Z</time></trkpt><trkpt lat="43.4845929" lon="11.3676658"><ele>494.0</ele><time>2026-05-02T16:49:16.676Z</time></trkpt><trkpt lat="43.4846217" lon="11.3678665"><ele>496.66666666666663</ele><time>2026-05-02T16:49:17.678Z</time></trkpt><trkpt lat="43.4846407" lon="11.3680659"><ele>499.33333333333337</ele><time>2026-05-02T16:49:18.67Z</time></trkpt><trkpt lat="43.4846618" lon="11.3682721"><ele>502.0</ele><time>2026-05-02T16:49:19.665Z</time></trkpt><trkpt lat="43.4846841" lon="11.368483"><ele>502.0</ele><time>2026-05-02T16:49:20.674Z</time></trkpt><trkpt lat="43.4847108" lon="11.3686903"><ele>502.0</ele><time>2026-05-02T16:49:21.665Z</time></trkpt><trkpt lat="43.4847384" lon="11.368891"><ele>502.0</ele><time>2026-05-02T16:49:22.679Z</time></trkpt><trkpt lat="43.4847701" lon="11.369085"><ele>502.0</ele><time>2026-05-02T16:49:23.682Z</time></trkpt><trkpt lat="43.4848235" lon="11.3692666"><ele>503.25</ele><time>2026-05-02T16:49:24.681Z</time></trkpt><trkpt lat="43.4849047" lon="11.3694269"><ele>504.5</ele><time>2026-05-02T16:49:25.668Z</time></trkpt><trkpt lat="43.4850018" lon="11.3695699"><ele>505.75</ele><time>2026-05-02T16:49:26.648Z</time></trkpt><trkpt lat="43.4851108" lon="11.3696958"><ele>507.0</ele><time>2026-05-02T16:49:27.652Z</time></trkpt><trkpt lat="43.4852318" lon="11.3697975"><ele>508.25</ele><time>2026-05-02T16:49:28.654Z</time></trkpt><trkpt lat="43.4853683" lon="11.3698586"><ele>509.5</ele><time>2026-05-02T16:49:29.656Z</time></trkpt><trkpt lat="43.4855084" lon="11.3699047"><ele>510.75</ele><time>2026-05-02T16:49:30.66Z</time></trkpt><trkpt lat="43.4856401" lon="11.3699682"><ele>512.0</ele><time>2026-05-02T16:49:31.661Z</time></trkpt><trkpt lat="43.4857538" lon="11.3700363"><ele>512.0</ele><time>2026-05-02T16:49:32.652Z</time></trkpt><trkpt lat="43.4858481" lon="11.3701432"><ele>512.0</ele><time>2026-05-02T16:49:33.658Z</time></trkpt><trkpt lat="43.4859387" lon="11.3702687"><ele>512.0</ele><time>2026-05-02T16:49:34.65Z</time></trkpt><trkpt lat="43.4860068" lon="11.3704288"><ele>512.0</ele><time>2026-05-02T16:49:35.654Z</time></trkpt><trkpt lat="43.486071" lon="11.3706078"><ele>513.75</ele><time>2026-05-02T16:49:36.652Z</time></trkpt><trkpt lat="43.4861252" lon="11.3707888"><ele>515.5</ele><time>2026-05-02T16:49:37.66Z</time></trkpt><trkpt lat="43.4861799" lon="11.3709733"><ele>517.25</ele><time>2026-05-02T16:49:38.664Z</time></trkpt><trkpt lat="43.4862225" lon="11.3711488"><ele>519.0</ele><time>2026-05-02T16:49:39.648Z</time></trkpt><trkpt lat="43.4862577" lon="11.3713389"><ele>515.25</ele><time>2026-05-02T16:49:40.65Z</time></trkpt><trkpt lat="43.4862747" lon="11.3715334"><ele>511.5</ele><time>2026-05-02T16:49:41.651Z</time></trkpt><trkpt lat="43.4862931" lon="11.371714"><ele>507.75</ele><time>2026-05-02T16:49:42.65Z</time></trkpt><trkpt lat="43.486307" lon="11.3719042"><ele>504.0</ele><time>2026-05-02T16:49:43.649Z</time></trkpt><trkpt lat="43.4863268" lon="11.3720725"><ele>506.75</ele><time>2026-05-02T16:49:44.647Z</time></trkpt><trkpt lat="43.4863427" lon="11.3722345"><ele>509.5</ele><time>2026-05-02T16:49:45.661Z</time></trkpt><trkpt lat="43.4863607" lon="11.3723931"><ele>512.25</ele><time>2026-05-02T16:49:46.654Z</time></trkpt><trkpt lat="43.4863862" lon="11.3726499"><ele>515.0</ele><time>2026-05-02T16:49:48.644Z</time></trkpt><trkpt lat="43.4864037" lon="11.3727557"><ele>515.0</ele><time>2026-05-02T16:49:49.666Z</time></trkpt><trkpt lat="43.4864142" lon="11.3728645"><ele>515.0</ele><time>2026-05-02T16:49:50.671Z</time></trkpt><trkpt lat="43.486417" lon="11.3729847"><ele>515.0</ele><time>2026-05-02T16:49:51.672Z</time></trkpt><trkpt lat="43.4864069" lon="11.3731118"><ele>515.0</ele><time>2026-05-02T16:49:52.659Z</time></trkpt><trkpt lat="43.4863932" lon="11.3732326"><ele>515.0</ele><time>2026-05-02T16:49:53.656Z</time></trkpt><trkpt lat="43.4863712" lon="11.373339"><ele>515.0</ele><time>2026-05-02T16:49:54.673Z</time></trkpt><trkpt lat="43.4863277" lon="11.3734921"><ele>515.6666666666666</ele><time>2026-05-02T16:49:56.671Z</time></trkpt><trkpt lat="43.4863039" lon="11.373579"><ele>516.3333333333333</ele><time>2026-05-02T16:49:57.662Z</time></trkpt><trkpt lat="43.4862709" lon="11.3736867"><ele>517.0</ele><time>2026-05-02T16:49:58.661Z</time></trkpt><trkpt lat="43.4862413" lon="11.3738021"><ele>517.6666666666666</ele><time>2026-05-02T16:49:59.657Z</time></trkpt><trkpt lat="43.4862025" lon="11.3739279"><ele>518.3333333333334</ele><time>2026-05-02T16:50:00.664Z</time></trkpt><trkpt lat="43.4861667" lon="11.374058"><ele>519.0</ele><time>2026-05-02T16:50:01.665Z</time></trkpt><trkpt lat="43.4861443" lon="11.3741863"><ele>518.8333333333334</ele><time>2026-05-02T16:50:02.651Z</time></trkpt><trkpt lat="43.4861315" lon="11.3742989"><ele>518.6666666666666</ele><time>2026-05-02T16:50:03.667Z</time></trkpt><trkpt lat="43.4861352" lon="11.3744063"><ele>518.5</ele><time>2026-05-02T16:50:04.67Z</time></trkpt><trkpt lat="43.4861432" lon="11.3745055"><ele>518.3333333333333</ele><time>2026-05-02T16:50:05.659Z</time></trkpt><trkpt lat="43.4861609" lon="11.3745916"><ele>518.1666666666666</ele><time>2026-05-02T16:50:06.658Z</time></trkpt><trkpt lat="43.4862303" lon="11.3747139"><ele>518.0</ele><time>2026-05-02T16:50:08.66Z</time></trkpt><trkpt lat="43.4863145" lon="11.3748265"><ele>520.8</ele><time>2026-05-02T16:50:10.664Z</time></trkpt><trkpt lat="43.4863849" lon="11.3749412"><ele>523.5999999999999</ele><time>2026-05-02T16:50:12.665Z</time></trkpt><trkpt lat="43.4864611" lon="11.3750646"><ele>526.4000000000001</ele><time>2026-05-02T16:50:14.653Z</time></trkpt><trkpt lat="43.4865112" lon="11.3751356"><ele>529.2</ele><time>2026-05-02T16:50:15.661Z</time></trkpt><trkpt lat="43.4865645" lon="11.3752167"><ele>532.0</ele><time>2026-05-02T16:50:16.664Z</time></trkpt><trkpt lat="43.4866248" lon="11.3753046"><ele>532.0</ele><time>2026-05-02T16:50:17.672Z</time></trkpt><trkpt lat="43.4866712" lon="11.3753901"><ele>532.0</ele><time>2026-05-02T16:50:18.668Z</time></trkpt><trkpt lat="43.4867093" lon="11.3754645"><ele>532.0</ele><time>2026-05-02T16:50:19.658Z</time></trkpt><trkpt lat="43.4867503" lon="11.3755311"><ele>532.0</ele><time>2026-05-02T16:50:20.666Z</time></trkpt><trkpt lat="43.4868277" lon="11.3756645"><ele>532.0</ele><time>2026-05-02T16:50:22.672Z</time></trkpt><trkpt lat="43.4868962" lon="11.3757829"><ele>532.0</ele><time>2026-05-02T16:50:24.658Z</time></trkpt><trkpt lat="43.4869219" lon="11.375942"><ele>530.3333333333334</ele><time>2026-05-02T16:50:26.67Z</time></trkpt><trkpt lat="43.4869307" lon="11.3760326"><ele>528.6666666666667</ele><time>2026-05-02T16:50:27.662Z</time></trkpt><trkpt lat="43.4869225" lon="11.3762116"><ele>527.0</ele><time>2026-05-02T16:50:29.669Z</time></trkpt><trkpt lat="43.4869182" lon="11.3763103"><ele>525.3333333333334</ele><time>2026-05-02T16:50:30.666Z</time></trkpt><trkpt lat="43.4869128" lon="11.3764277"><ele>523.6666666666666</ele><time>2026-05-02T16:50:31.663Z</time></trkpt><trkpt lat="43.4868998" lon="11.3765551"><ele>522.0</ele><time>2026-05-02T16:50:32.66Z</time></trkpt><trkpt lat="43.4868871" lon="11.3766903"><ele>520.25</ele><time>2026-05-02T16:50:33.669Z</time></trkpt><trkpt lat="43.486875" lon="11.3768351"><ele>518.5</ele><time>2026-05-02T16:50:34.663Z</time></trkpt><trkpt lat="43.4868601" lon="11.376995"><ele>516.75</ele><time>2026-05-02T16:50:35.662Z</time></trkpt><trkpt lat="43.486849" lon="11.3771587"><ele>515.0</ele><time>2026-05-02T16:50:36.663Z</time></trkpt><trkpt lat="43.4868353" lon="11.3773344"><ele>515.0</ele><time>2026-05-02T16:50:37.666Z</time></trkpt><trkpt lat="43.4868236" lon="11.3775063"><ele>515.0</ele><time>2026-05-02T16:50:38.662Z</time></trkpt><trkpt lat="43.4868161" lon="11.3776809"><ele>515.0</ele><time>2026-05-02T16:50:39.671Z</time></trkpt><trkpt lat="43.4868198" lon="11.3778547"><ele>515.0</ele><time>2026-05-02T16:50:40.663Z</time></trkpt><trkpt lat="43.4868394" lon="11.3780292"><ele>513.75</ele><time>2026-05-02T16:50:41.668Z</time></trkpt><trkpt lat="43.4868785" lon="11.3782018"><ele>512.5</ele><time>2026-05-02T16:50:42.668Z</time></trkpt><trkpt lat="43.4869313" lon="11.3783693"><ele>511.25</ele><time>2026-05-02T16:50:43.659Z</time></trkpt><trkpt lat="43.4870023" lon="11.3785269"><ele>510.0</ele><time>2026-05-02T16:50:44.666Z</time></trkpt><trkpt lat="43.4870825" lon="11.3786878"><ele>509.0</ele><time>2026-05-02T16:50:45.661Z</time></trkpt><trkpt lat="43.4871702" lon="11.3788502"><ele>508.0</ele><time>2026-05-02T16:50:46.666Z</time></trkpt><trkpt lat="43.4872556" lon="11.3790108"><ele>507.0</ele><time>2026-05-02T16:50:47.662Z</time></trkpt><trkpt lat="43.4873334" lon="11.3791646"><ele>506.0</ele><time>2026-05-02T16:50:48.669Z</time></trkpt><trkpt lat="43.4874152" lon="11.379306"><ele>506.0</ele><time>2026-05-02T16:50:49.676Z</time></trkpt><trkpt lat="43.4875083" lon="11.3794289"><ele>506.0</ele><time>2026-05-02T16:50:50.662Z</time></trkpt><trkpt lat="43.487611" lon="11.3795288"><ele>506.0</ele><time>2026-05-02T16:50:51.669Z</time></trkpt><trkpt lat="43.487708" lon="11.379632"><ele>506.0</ele><time>2026-05-02T16:50:52.668Z</time></trkpt><trkpt lat="43.487782" lon="11.379756"><ele>505.25</ele><time>2026-05-02T16:50:53.662Z</time></trkpt><trkpt lat="43.4878282" lon="11.379905"><ele>504.5</ele><time>2026-05-02T16:50:54.67Z</time></trkpt><trkpt lat="43.4878516" lon="11.3800841"><ele>503.75</ele><time>2026-05-02T16:50:55.661Z</time></trkpt><trkpt lat="43.487863" lon="11.380273"><ele>503.0</ele><time>2026-05-02T16:50:56.677Z</time></trkpt><trkpt lat="43.487878" lon="11.3804768"><ele>502.5</ele><time>2026-05-02T16:50:57.662Z</time></trkpt><trkpt lat="43.4878998" lon="11.380676"><ele>502.0</ele><time>2026-05-02T16:50:58.665Z</time></trkpt><trkpt lat="43.4879377" lon="11.38087"><ele>501.5</ele><time>2026-05-02T16:50:59.672Z</time></trkpt><trkpt lat="43.4879877" lon="11.3810694"><ele>501.0</ele><time>2026-05-02T16:51:00.654Z</time></trkpt><trkpt lat="43.4880459" lon="11.3812754"><ele>496.0</ele><time>2026-05-02T16:51:01.668Z</time></trkpt><trkpt lat="43.4881133" lon="11.3814794"><ele>491.0</ele><time>2026-05-02T16:51:02.67Z</time></trkpt><trkpt lat="43.4881832" lon="11.3816791"><ele>486.0</ele><time>2026-05-02T16:51:03.668Z</time></trkpt><trkpt lat="43.4882578" lon="11.3818613"><ele>486.0</ele><time>2026-05-02T16:51:04.669Z</time></trkpt><trkpt lat="43.488338" lon="11.3820375"><ele>486.0</ele><time>2026-05-02T16:51:05.667Z</time></trkpt><trkpt lat="43.4884166" lon="11.3821954"><ele>486.0</ele><time>2026-05-02T16:51:06.672Z</time></trkpt><trkpt lat="43.4884956" lon="11.382339"><ele>486.0</ele><time>2026-05-02T16:51:07.665Z</time></trkpt><trkpt lat="43.4885828" lon="11.382471"><ele>484.5</ele><time>2026-05-02T16:51:08.677Z</time></trkpt><trkpt lat="43.4886787" lon="11.3825823"><ele>483.0</ele><time>2026-05-02T16:51:09.663Z</time></trkpt><trkpt lat="43.4887828" lon="11.3826833"><ele>481.5</ele><time>2026-05-02T16:51:10.672Z</time></trkpt><trkpt lat="43.4888829" lon="11.3827688"><ele>480.0</ele><time>2026-05-02T16:51:11.668Z</time></trkpt><trkpt lat="43.4889841" lon="11.3828548"><ele>479.5</ele><time>2026-05-02T16:51:12.684Z</time></trkpt><trkpt lat="43.4890818" lon="11.3829429"><ele>479.0</ele><time>2026-05-02T16:51:13.663Z</time></trkpt><trkpt lat="43.4891877" lon="11.3830413"><ele>478.5</ele><time>2026-05-02T16:51:14.662Z</time></trkpt><trkpt lat="43.4892953" lon="11.3831563"><ele>478.0</ele><time>2026-05-02T16:51:15.665Z</time></trkpt><trkpt lat="43.4894027" lon="11.3832801"><ele>476.0</ele><time>2026-05-02T16:51:16.665Z</time></trkpt><trkpt lat="43.4895115" lon="11.3834099"><ele>474.0</ele><time>2026-05-02T16:51:17.673Z</time></trkpt><trkpt lat="43.4896169" lon="11.3835313"><ele>472.0</ele><time>2026-05-02T16:51:18.661Z</time></trkpt><trkpt lat="43.4897203" lon="11.3836517"><ele>470.0</ele><time>2026-05-02T16:51:19.661Z</time></trkpt><trkpt lat="43.4898177" lon="11.3837779"><ele>468.25</ele><time>2026-05-02T16:51:20.667Z</time></trkpt><trkpt lat="43.4899043" lon="11.383915"><ele>466.5</ele><time>2026-05-02T16:51:21.668Z</time></trkpt><trkpt lat="43.4899685" lon="11.3840618"><ele>464.75</ele><time>2026-05-02T16:51:22.67Z</time></trkpt><trkpt lat="43.4900092" lon="11.3842136"><ele>463.0</ele><time>2026-05-02T16:51:23.663Z</time></trkpt><trkpt lat="43.4900283" lon="11.3843861"><ele>463.0</ele><time>2026-05-02T16:51:24.664Z</time></trkpt><trkpt lat="43.4900483" lon="11.384564"><ele>463.0</ele><time>2026-05-02T16:51:25.672Z</time></trkpt><trkpt lat="43.490079" lon="11.3847197"><ele>463.0</ele><time>2026-05-02T16:51:26.668Z</time></trkpt><trkpt lat="43.4901294" lon="11.3848607"><ele>463.0</ele><time>2026-05-02T16:51:27.664Z</time></trkpt><trkpt lat="43.4901889" lon="11.3849719"><ele>462.33333333333337</ele><time>2026-05-02T16:51:28.669Z</time></trkpt><trkpt lat="43.4902435" lon="11.3850772"><ele>461.6666666666667</ele><time>2026-05-02T16:51:29.674Z</time></trkpt><trkpt lat="43.4902788" lon="11.385182"><ele>461.0</ele><time>2026-05-02T16:51:30.669Z</time></trkpt><trkpt lat="43.4902903" lon="11.3852914"><ele>460.33333333333337</ele><time>2026-05-02T16:51:31.674Z</time></trkpt><trkpt lat="43.4902907" lon="11.385407"><ele>459.6666666666667</ele><time>2026-05-02T16:51:32.669Z</time></trkpt><trkpt lat="43.4902896" lon="11.3855402"><ele>459.0</ele><time>2026-05-02T16:51:33.673Z</time></trkpt><trkpt lat="43.4902857" lon="11.3856855"><ele>459.0</ele><time>2026-05-02T16:51:34.658Z</time></trkpt><trkpt lat="43.4902778" lon="11.3858328"><ele>459.0</ele><time>2026-05-02T16:51:35.668Z</time></trkpt><trkpt lat="43.4902519" lon="11.3859837"><ele>459.0</ele><time>2026-05-02T16:51:36.666Z</time></trkpt><trkpt lat="43.4901919" lon="11.3861183"><ele>459.0</ele><time>2026-05-02T16:51:37.666Z</time></trkpt><trkpt lat="43.4901227" lon="11.3862067"><ele>459.0</ele><time>2026-05-02T16:51:38.664Z</time></trkpt><trkpt lat="43.4900459" lon="11.3862658"><ele>459.0</ele><time>2026-05-02T16:51:39.664Z</time></trkpt><trkpt lat="43.4899616" lon="11.3862934"><ele>459.0</ele><time>2026-05-02T16:51:40.66Z</time></trkpt><trkpt lat="43.4898903" lon="11.3862716"><ele>459.0</ele><time>2026-05-02T16:51:41.658Z</time></trkpt><trkpt lat="43.4898279" lon="11.3862246"><ele>459.0</ele><time>2026-05-02T16:51:42.665Z</time></trkpt><trkpt lat="43.4897124" lon="11.386218"><ele>459.0</ele><time>2026-05-02T16:51:44.665Z</time></trkpt><trkpt lat="43.4896682" lon="11.3862805"><ele>459.0</ele><time>2026-05-02T16:51:45.667Z</time></trkpt><trkpt lat="43.4896507" lon="11.3863869"><ele>460.0</ele><time>2026-05-02T16:51:46.665Z</time></trkpt><trkpt lat="43.4896372" lon="11.3865177"><ele>461.0</ele><time>2026-05-02T16:51:47.663Z</time></trkpt><trkpt lat="43.4896049" lon="11.3866815"><ele>462.0</ele><time>2026-05-02T16:51:48.663Z</time></trkpt><trkpt lat="43.4895758" lon="11.3868593"><ele>463.0</ele><time>2026-05-02T16:51:49.667Z</time></trkpt><trkpt lat="43.4895474" lon="11.3870637"><ele>459.25</ele><time>2026-05-02T16:51:50.661Z</time></trkpt><trkpt lat="43.4895271" lon="11.3872576"><ele>455.5</ele><time>2026-05-02T16:51:51.665Z</time></trkpt><trkpt lat="43.4895061" lon="11.3874395"><ele>451.75</ele><time>2026-05-02T16:51:52.664Z</time></trkpt><trkpt lat="43.4894917" lon="11.3876338"><ele>448.0</ele><time>2026-05-02T16:51:53.669Z</time></trkpt><trkpt lat="43.4894766" lon="11.3878343"><ele>449.0</ele><time>2026-05-02T16:51:54.67Z</time></trkpt><trkpt lat="43.489454" lon="11.3880358"><ele>450.0</ele><time>2026-05-02T16:51:55.674Z</time></trkpt><trkpt lat="43.4894265" lon="11.3882498"><ele>451.0</ele><time>2026-05-02T16:51:56.662Z</time></trkpt><trkpt lat="43.4893935" lon="11.388467"><ele>451.0</ele><time>2026-05-02T16:51:57.669Z</time></trkpt><trkpt lat="43.4893608" lon="11.3886746"><ele>451.0</ele><time>2026-05-02T16:51:58.671Z</time></trkpt><trkpt lat="43.4893248" lon="11.3888458"><ele>451.0</ele><time>2026-05-02T16:51:59.671Z</time></trkpt><trkpt lat="43.4892828" lon="11.3889915"><ele>451.0</ele><time>2026-05-02T16:52:00.677Z</time></trkpt><trkpt lat="43.489259" lon="11.3891357"><ele>451.5</ele><time>2026-05-02T16:52:01.665Z</time></trkpt><trkpt lat="43.4892744" lon="11.3892741"><ele>452.0</ele><time>2026-05-02T16:52:02.673Z</time></trkpt><trkpt lat="43.4893153" lon="11.3894297"><ele>452.5</ele><time>2026-05-02T16:52:03.665Z</time></trkpt><trkpt lat="43.4893679" lon="11.3895893"><ele>453.0</ele><time>2026-05-02T16:52:04.664Z</time></trkpt><trkpt lat="43.4894236" lon="11.3897495"><ele>453.0</ele><time>2026-05-02T16:52:05.676Z</time></trkpt><trkpt lat="43.4894851" lon="11.3899216"><ele>453.0</ele><time>2026-05-02T16:52:06.664Z</time></trkpt><trkpt lat="43.4895417" lon="11.3900922"><ele>453.0</ele><time>2026-05-02T16:52:07.659Z</time></trkpt><trkpt lat="43.4895993" lon="11.3902701"><ele>453.0</ele><time>2026-05-02T16:52:08.665Z</time></trkpt><trkpt lat="43.4896591" lon="11.3904464"><ele>454.5</ele><time>2026-05-02T16:52:09.667Z</time></trkpt><trkpt lat="43.4897296" lon="11.3906198"><ele>456.0</ele><time>2026-05-02T16:52:10.661Z</time></trkpt><trkpt lat="43.4898116" lon="11.390781"><ele>457.5</ele><time>2026-05-02T16:52:11.671Z</time></trkpt><trkpt lat="43.4899058" lon="11.3909181"><ele>459.0</ele><time>2026-05-02T16:52:12.672Z</time></trkpt><trkpt lat="43.4900058" lon="11.3910358"><ele>459.0</ele><time>2026-05-02T16:52:13.66Z</time></trkpt><trkpt lat="43.4900893" lon="11.3911607"><ele>459.0</ele><time>2026-05-02T16:52:14.66Z</time></trkpt><trkpt lat="43.4901578" lon="11.3913148"><ele>459.0</ele><time>2026-05-02T16:52:15.663Z</time></trkpt><trkpt lat="43.4901895" lon="11.3914963"><ele>459.0</ele><time>2026-05-02T16:52:16.669Z</time></trkpt><trkpt lat="43.4901891" lon="11.3917009"><ele>458.33333333333337</ele><time>2026-05-02T16:52:17.662Z</time></trkpt><trkpt lat="43.4901853" lon="11.391908"><ele>457.6666666666667</ele><time>2026-05-02T16:52:18.669Z</time></trkpt><trkpt lat="43.4901804" lon="11.3921199"><ele>457.0</ele><time>2026-05-02T16:52:19.662Z</time></trkpt><trkpt lat="43.4901903" lon="11.3923266"><ele>457.0</ele><time>2026-05-02T16:52:20.672Z</time></trkpt><trkpt lat="43.4902223" lon="11.3925308"><ele>457.0</ele><time>2026-05-02T16:52:21.649Z</time></trkpt><trkpt lat="43.4902635" lon="11.3927282"><ele>457.0</ele><time>2026-05-02T16:52:22.662Z</time></trkpt><trkpt lat="43.4903178" lon="11.3929102"><ele>457.0</ele><time>2026-05-02T16:52:23.664Z</time></trkpt><trkpt lat="43.4903703" lon="11.3930807"><ele>457.75</ele><time>2026-05-02T16:52:24.666Z</time></trkpt><trkpt lat="43.4904004" lon="11.3932527"><ele>458.5</ele><time>2026-05-02T16:52:25.664Z</time></trkpt><trkpt lat="43.4904091" lon="11.3934333"><ele>459.25</ele><time>2026-05-02T16:52:26.668Z</time></trkpt><trkpt lat="43.4903818" lon="11.3936092"><ele>460.0</ele><time>2026-05-02T16:52:27.659Z</time></trkpt><trkpt lat="43.4903433" lon="11.3937609"><ele>461.0</ele><time>2026-05-02T16:52:28.659Z</time></trkpt><trkpt lat="43.4902895" lon="11.3938838"><ele>462.0</ele><time>2026-05-02T16:52:29.671Z</time></trkpt><trkpt lat="43.4902293" lon="11.3940132"><ele>463.0</ele><time>2026-05-02T16:52:30.662Z</time></trkpt><trkpt lat="43.4901712" lon="11.3941593"><ele>464.0</ele><time>2026-05-02T16:52:31.678Z</time></trkpt><trkpt lat="43.4901261" lon="11.3943127"><ele>464.0</ele><time>2026-05-02T16:52:32.667Z</time></trkpt><trkpt lat="43.4900973" lon="11.394483"><ele>464.0</ele><time>2026-05-02T16:52:33.673Z</time></trkpt><trkpt lat="43.490085" lon="11.3946707"><ele>464.0</ele><time>2026-05-02T16:52:34.662Z</time></trkpt><trkpt lat="43.4900936" lon="11.3948584"><ele>464.0</ele><time>2026-05-02T16:52:35.663Z</time></trkpt><trkpt lat="43.4901086" lon="11.3950498"><ele>465.25</ele><time>2026-05-02T16:52:36.678Z</time></trkpt><trkpt lat="43.4901122" lon="11.3952418"><ele>466.5</ele><time>2026-05-02T16:52:37.667Z</time></trkpt><trkpt lat="43.4901086" lon="11.3954389"><ele>467.75</ele><time>2026-05-02T16:52:38.672Z</time></trkpt><trkpt lat="43.4900965" lon="11.3956402"><ele>469.0</ele><time>2026-05-02T16:52:39.664Z</time></trkpt><trkpt lat="43.490076" lon="11.3958398"><ele>470.0</ele><time>2026-05-02T16:52:40.662Z</time></trkpt><trkpt lat="43.4900586" lon="11.3960249"><ele>471.0</ele><time>2026-05-02T16:52:41.666Z</time></trkpt><trkpt lat="43.4900254" lon="11.3961972"><ele>472.0</ele><time>2026-05-02T16:52:42.676Z</time></trkpt><trkpt lat="43.4899848" lon="11.3963443"><ele>473.0</ele><time>2026-05-02T16:52:43.662Z</time></trkpt><trkpt lat="43.4899208" lon="11.3964702"><ele>473.0</ele><time>2026-05-02T16:52:44.663Z</time></trkpt><trkpt lat="43.4898315" lon="11.396587"><ele>473.0</ele><time>2026-05-02T16:52:45.674Z</time></trkpt><trkpt lat="43.4897303" lon="11.3967018"><ele>473.0</ele><time>2026-05-02T16:52:46.664Z</time></trkpt><trkpt lat="43.4896339" lon="11.3968481"><ele>473.0</ele><time>2026-05-02T16:52:47.662Z</time></trkpt><trkpt lat="43.4895606" lon="11.3970154"><ele>478.66666666666663</ele><time>2026-05-02T16:52:48.663Z</time></trkpt><trkpt lat="43.4894802" lon="11.3972106"><ele>484.33333333333337</ele><time>2026-05-02T16:52:49.666Z</time></trkpt><trkpt lat="43.4893832" lon="11.3974151"><ele>490.0</ele><time>2026-05-02T16:52:50.666Z</time></trkpt><trkpt lat="43.4892814" lon="11.3976306"><ele>490.0</ele><time>2026-05-02T16:52:51.667Z</time></trkpt><trkpt lat="43.489177" lon="11.3978533"><ele>490.0</ele><time>2026-05-02T16:52:52.662Z</time></trkpt><trkpt lat="43.489069" lon="11.3980713"><ele>490.0</ele><time>2026-05-02T16:52:53.657Z</time></trkpt><trkpt lat="43.4889667" lon="11.3982964"><ele>488.0</ele><time>2026-05-02T16:52:54.664Z</time></trkpt><trkpt lat="43.4888627" lon="11.3985236"><ele>486.0</ele><time>2026-05-02T16:52:55.667Z</time></trkpt><trkpt lat="43.4887594" lon="11.3987461"><ele>484.0</ele><time>2026-05-02T16:52:56.664Z</time></trkpt><trkpt lat="43.4886527" lon="11.3989617"><ele>489.33333333333337</ele><time>2026-05-02T16:52:57.663Z</time></trkpt><trkpt lat="43.4885549" lon="11.3991663"><ele>494.66666666666663</ele><time>2026-05-02T16:52:58.668Z</time></trkpt><trkpt lat="43.4884689" lon="11.3993616"><ele>500.0</ele><time>2026-05-02T16:52:59.664Z</time></trkpt><trkpt lat="43.4883916" lon="11.3995187"><ele>500.0</ele><time>2026-05-02T16:53:00.663Z</time></trkpt><trkpt lat="43.4882965" lon="11.3996404"><ele>500.0</ele><time>2026-05-02T16:53:01.661Z</time></trkpt><trkpt lat="43.4881801" lon="11.3997132"><ele>500.0</ele><time>2026-05-02T16:53:02.662Z</time></trkpt><trkpt lat="43.48805" lon="11.3997414"><ele>500.0</ele><time>2026-05-02T16:53:03.674Z</time></trkpt><trkpt lat="43.4879178" lon="11.3997539"><ele>500.16666666666663</ele><time>2026-05-02T16:53:04.656Z</time></trkpt><trkpt lat="43.4878015" lon="11.3997544"><ele>500.3333333333333</ele><time>2026-05-02T16:53:05.661Z</time></trkpt><trkpt lat="43.4877263" lon="11.3997529"><ele>500.5</ele><time>2026-05-02T16:53:06.663Z</time></trkpt><trkpt lat="43.4876651" lon="11.3997801"><ele>500.66666666666663</ele><time>2026-05-02T16:53:07.667Z</time></trkpt><trkpt lat="43.4876151" lon="11.3998571"><ele>500.8333333333333</ele><time>2026-05-02T16:53:08.673Z</time></trkpt><trkpt lat="43.487585" lon="11.3999607"><ele>501.0</ele><time>2026-05-02T16:53:09.677Z</time></trkpt><trkpt lat="43.4875706" lon="11.4000948"><ele>501.0</ele><time>2026-05-02T16:53:10.654Z</time></trkpt><trkpt lat="43.4875672" lon="11.4002426"><ele>501.0</ele><time>2026-05-02T16:53:11.66Z</time></trkpt><trkpt lat="43.4875698" lon="11.4004071"><ele>501.0</ele><time>2026-05-02T16:53:12.659Z</time></trkpt><trkpt lat="43.4875732" lon="11.400577"><ele>501.0</ele><time>2026-05-02T16:53:13.659Z</time></trkpt><trkpt lat="43.4875569" lon="11.4007531"><ele>501.8</ele><time>2026-05-02T16:53:14.666Z</time></trkpt><trkpt lat="43.487516" lon="11.400924"><ele>502.6</ele><time>2026-05-02T16:53:15.666Z</time></trkpt><trkpt lat="43.4874758" lon="11.4010768"><ele>503.4</ele><time>2026-05-02T16:53:16.668Z</time></trkpt><trkpt lat="43.4874753" lon="11.4011949"><ele>504.2</ele><time>2026-05-02T16:53:17.654Z</time></trkpt><trkpt lat="43.4875422" lon="11.4012885"><ele>505.0</ele><time>2026-05-02T16:53:18.675Z</time></trkpt><trkpt lat="43.4876217" lon="11.4012797"><ele>505.0</ele><time>2026-05-02T16:53:19.657Z</time></trkpt><trkpt lat="43.4877019" lon="11.4012075"><ele>505.0</ele><time>2026-05-02T16:53:20.659Z</time></trkpt><trkpt lat="43.4877602" lon="11.4010985"><ele>505.0</ele><time>2026-05-02T16:53:21.67Z</time></trkpt><trkpt lat="43.4878239" lon="11.4009541"><ele>505.0</ele><time>2026-05-02T16:53:22.661Z</time></trkpt><trkpt lat="43.4879109" lon="11.4008232"><ele>505.0</ele><time>2026-05-02T16:53:23.666Z</time></trkpt><trkpt lat="43.4880238" lon="11.4007386"><ele>507.0</ele><time>2026-05-02T16:53:24.661Z</time></trkpt><trkpt lat="43.4881289" lon="11.4007339"><ele>509.0</ele><time>2026-05-02T16:53:25.67Z</time></trkpt><trkpt lat="43.4882498" lon="11.4007909"><ele>511.0</ele><time>2026-05-02T16:53:26.666Z</time></trkpt><trkpt lat="43.4883678" lon="11.400882"><ele>513.0</ele><time>2026-05-02T16:53:27.662Z</time></trkpt><trkpt lat="43.4884834" lon="11.4009862"><ele>513.0</ele><time>2026-05-02T16:53:28.668Z</time></trkpt><trkpt lat="43.4886082" lon="11.4010852"><ele>513.0</ele><time>2026-05-02T16:53:29.664Z</time></trkpt><trkpt lat="43.4887328" lon="11.4011888"><ele>513.0</ele><time>2026-05-02T16:53:30.665Z</time></trkpt><trkpt lat="43.4888388" lon="11.4013129"><ele>513.0</ele><time>2026-05-02T16:53:31.667Z</time></trkpt><trkpt lat="43.4888996" lon="11.4014493"><ele>512.75</ele><time>2026-05-02T16:53:32.662Z</time></trkpt><trkpt lat="43.4889122" lon="11.4015985"><ele>512.5</ele><time>2026-05-02T16:53:33.666Z</time></trkpt><trkpt lat="43.4888902" lon="11.4017681"><ele>512.25</ele><time>2026-05-02T16:53:34.659Z</time></trkpt><trkpt lat="43.4888407" lon="11.4019476"><ele>512.0</ele><time>2026-05-02T16:53:35.673Z</time></trkpt><trkpt lat="43.4887892" lon="11.4021564"><ele>512.3333333333333</ele><time>2026-05-02T16:53:36.663Z</time></trkpt><trkpt lat="43.488768" lon="11.4023916"><ele>512.6666666666666</ele><time>2026-05-02T16:53:37.674Z</time></trkpt><trkpt lat="43.4887608" lon="11.4026226"><ele>513.0</ele><time>2026-05-02T16:53:38.663Z</time></trkpt><trkpt lat="43.4887471" lon="11.4028609"><ele>521.3333333333334</ele><time>2026-05-02T16:53:39.662Z</time></trkpt><trkpt lat="43.4887421" lon="11.4030953"><ele>529.6666666666667</ele><time>2026-05-02T16:53:40.675Z</time></trkpt><trkpt lat="43.4887509" lon="11.4033212"><ele>538.0</ele><time>2026-05-02T16:53:41.66Z</time></trkpt><trkpt lat="43.4887452" lon="11.4035338"><ele>538.0</ele><time>2026-05-02T16:53:42.679Z</time></trkpt><trkpt lat="43.4887236" lon="11.4037515"><ele>538.0</ele><time>2026-05-02T16:53:43.681Z</time></trkpt><trkpt lat="43.4886958" lon="11.4039849"><ele>538.0</ele><time>2026-05-02T16:53:44.667Z</time></trkpt><trkpt lat="43.4886821" lon="11.4042237"><ele>538.6666666666667</ele><time>2026-05-02T16:53:45.678Z</time></trkpt><trkpt lat="43.4886991" lon="11.404452"><ele>539.3333333333334</ele><time>2026-05-02T16:53:46.665Z</time></trkpt><trkpt lat="43.4887498" lon="11.404662"><ele>540.0</ele><time>2026-05-02T16:53:47.688Z</time></trkpt><trkpt lat="43.4888219" lon="11.4048729"><ele>538.0</ele><time>2026-05-02T16:53:48.665Z</time></trkpt><trkpt lat="43.4889016" lon="11.4050733"><ele>536.0</ele><time>2026-05-02T16:53:49.664Z</time></trkpt><trkpt lat="43.4889724" lon="11.4052908"><ele>534.0</ele><time>2026-05-02T16:53:50.665Z</time></trkpt><trkpt lat="43.4890132" lon="11.4055323"><ele>534.0</ele><time>2026-05-02T16:53:51.665Z</time></trkpt><trkpt lat="43.489053" lon="11.4057805"><ele>534.0</ele><time>2026-05-02T16:53:52.678Z</time></trkpt><trkpt lat="43.489098" lon="11.4060162"><ele>534.0</ele><time>2026-05-02T16:53:53.673Z</time></trkpt><trkpt lat="43.4891617" lon="11.4062192"><ele>534.0</ele><time>2026-05-02T16:53:54.659Z</time></trkpt><trkpt lat="43.4892377" lon="11.4064011"><ele>534.0</ele><time>2026-05-02T16:53:55.668Z</time></trkpt><trkpt lat="43.4893329" lon="11.4065781"><ele>534.0</ele><time>2026-05-02T16:53:56.667Z</time></trkpt><trkpt lat="43.4894396" lon="11.4067506"><ele>534.0</ele><time>2026-05-02T16:53:57.668Z</time></trkpt><trkpt lat="43.4895624" lon="11.4069232"><ele>534.0</ele><time>2026-05-02T16:53:58.669Z</time></trkpt><trkpt lat="43.4896756" lon="11.4070995"><ele>534.0</ele><time>2026-05-02T16:53:59.668Z</time></trkpt><trkpt lat="43.4897787" lon="11.4072689"><ele>535.5</ele><time>2026-05-02T16:54:00.665Z</time></trkpt><trkpt lat="43.4898602" lon="11.4074409"><ele>537.0</ele><time>2026-05-02T16:54:01.664Z</time></trkpt><trkpt lat="43.4899223" lon="11.4076063"><ele>538.5</ele><time>2026-05-02T16:54:02.664Z</time></trkpt><trkpt lat="43.4899716" lon="11.4077942"><ele>540.0</ele><time>2026-05-02T16:54:03.667Z</time></trkpt><trkpt lat="43.490004" lon="11.4080191"><ele>540.6666666666666</ele><time>2026-05-02T16:54:04.666Z</time></trkpt><trkpt lat="43.4900126" lon="11.4082645"><ele>541.3333333333333</ele><time>2026-05-02T16:54:05.665Z</time></trkpt><trkpt lat="43.4900214" lon="11.4085186"><ele>542.0</ele><time>2026-05-02T16:54:06.661Z</time></trkpt><trkpt lat="43.4900269" lon="11.4087777"><ele>543.3333333333333</ele><time>2026-05-02T16:54:07.662Z</time></trkpt><trkpt lat="43.4900258" lon="11.4090402"><ele>544.6666666666666</ele><time>2026-05-02T16:54:08.671Z</time></trkpt><trkpt lat="43.4900167" lon="11.4093081"><ele>546.0</ele><time>2026-05-02T16:54:09.668Z</time></trkpt><trkpt lat="43.4899982" lon="11.409566"><ele>546.6666666666666</ele><time>2026-05-02T16:54:10.662Z</time></trkpt><trkpt lat="43.4899773" lon="11.409807"><ele>547.3333333333333</ele><time>2026-05-02T16:54:11.673Z</time></trkpt><trkpt lat="43.4899369" lon="11.4100229"><ele>548.0</ele><time>2026-05-02T16:54:12.657Z</time></trkpt><trkpt lat="43.4898639" lon="11.4102393"><ele>548.0</ele><time>2026-05-02T16:54:13.662Z</time></trkpt><trkpt lat="43.4897703" lon="11.4104378"><ele>548.0</ele><time>2026-05-02T16:54:14.657Z</time></trkpt><trkpt lat="43.4896549" lon="11.4106108"><ele>548.0</ele><time>2026-05-02T16:54:15.662Z</time></trkpt><trkpt lat="43.4895455" lon="11.410777"><ele>548.25</ele><time>2026-05-02T16:54:16.67Z</time></trkpt><trkpt lat="43.4894621" lon="11.4109458"><ele>548.5</ele><time>2026-05-02T16:54:17.671Z</time></trkpt><trkpt lat="43.4894174" lon="11.411129"><ele>548.75</ele><time>2026-05-02T16:54:18.667Z</time></trkpt><trkpt lat="43.4894231" lon="11.4113231"><ele>549.0</ele><time>2026-05-02T16:54:19.669Z</time></trkpt><trkpt lat="43.4894551" lon="11.4115394"><ele>550.0</ele><time>2026-05-02T16:54:20.667Z</time></trkpt><trkpt lat="43.4895025" lon="11.4117535"><ele>551.0</ele><time>2026-05-02T16:54:21.681Z</time></trkpt><trkpt lat="43.4895767" lon="11.4119583"><ele>552.0</ele><time>2026-05-02T16:54:22.669Z</time></trkpt><trkpt lat="43.4896901" lon="11.4121213"><ele>554.0</ele><time>2026-05-02T16:54:23.666Z</time></trkpt><trkpt lat="43.4898322" lon="11.4122637"><ele>556.0</ele><time>2026-05-02T16:54:24.668Z</time></trkpt><trkpt lat="43.4899759" lon="11.4124107"><ele>558.0</ele><time>2026-05-02T16:54:25.66Z</time></trkpt><trkpt lat="43.4901222" lon="11.4125739"><ele>558.0</ele><time>2026-05-02T16:54:26.668Z</time></trkpt><trkpt lat="43.4902594" lon="11.4127429"><ele>558.0</ele><time>2026-05-02T16:54:27.68Z</time></trkpt><trkpt lat="43.490382" lon="11.4129162"><ele>558.0</ele><time>2026-05-02T16:54:28.674Z</time></trkpt><trkpt lat="43.4904846" lon="11.4130864"><ele>556.75</ele><time>2026-05-02T16:54:29.664Z</time></trkpt><trkpt lat="43.490553" lon="11.4132682"><ele>555.5</ele><time>2026-05-02T16:54:30.674Z</time></trkpt><trkpt lat="43.4905894" lon="11.4134632"><ele>554.25</ele><time>2026-05-02T16:54:31.668Z</time></trkpt><trkpt lat="43.4905836" lon="11.413671"><ele>553.0</ele><time>2026-05-02T16:54:32.666Z</time></trkpt><trkpt lat="43.4905583" lon="11.4138874"><ele>553.0</ele><time>2026-05-02T16:54:33.66Z</time></trkpt><trkpt lat="43.4905158" lon="11.4141247"><ele>553.0</ele><time>2026-05-02T16:54:34.661Z</time></trkpt><trkpt lat="43.4904763" lon="11.4143723"><ele>553.0</ele><time>2026-05-02T16:54:35.664Z</time></trkpt><trkpt lat="43.4904405" lon="11.4146142"><ele>553.3333333333334</ele><time>2026-05-02T16:54:36.66Z</time></trkpt><trkpt lat="43.4904005" lon="11.4148629"><ele>553.6666666666666</ele><time>2026-05-02T16:54:37.682Z</time></trkpt><trkpt lat="43.4903581" lon="11.4151218"><ele>554.0</ele><time>2026-05-02T16:54:38.667Z</time></trkpt><trkpt lat="43.4903125" lon="11.4153784"><ele>554.6666666666666</ele><time>2026-05-02T16:54:39.669Z</time></trkpt><trkpt lat="43.4902589" lon="11.4156272"><ele>555.3333333333334</ele><time>2026-05-02T16:54:40.673Z</time></trkpt><trkpt lat="43.4901987" lon="11.4158723"><ele>556.0</ele><time>2026-05-02T16:54:41.666Z</time></trkpt><trkpt lat="43.4901427" lon="11.4161222"><ele>558.0</ele><time>2026-05-02T16:54:42.672Z</time></trkpt><trkpt lat="43.4900947" lon="11.4163688"><ele>560.0</ele><time>2026-05-02T16:54:43.674Z</time></trkpt><trkpt lat="43.4900679" lon="11.4166218"><ele>562.0</ele><time>2026-05-02T16:54:44.685Z</time></trkpt><trkpt lat="43.4900738" lon="11.4168621"><ele>562.0</ele><time>2026-05-02T16:54:45.659Z</time></trkpt><trkpt lat="43.4901119" lon="11.4171067"><ele>562.0</ele><time>2026-05-02T16:54:46.669Z</time></trkpt><trkpt lat="43.49017" lon="11.4173403"><ele>562.0</ele><time>2026-05-02T16:54:47.67Z</time></trkpt><trkpt lat="43.4902306" lon="11.4175393"><ele>561.25</ele><time>2026-05-02T16:54:48.671Z</time></trkpt><trkpt lat="43.4902959" lon="11.4177239"><ele>560.5</ele><time>2026-05-02T16:54:49.666Z</time></trkpt><trkpt lat="43.4903775" lon="11.417862"><ele>559.75</ele><time>2026-05-02T16:54:50.667Z</time></trkpt><trkpt lat="43.4904842" lon="11.4179482"><ele>559.0</ele><time>2026-05-02T16:54:51.668Z</time></trkpt><trkpt lat="43.4905994" lon="11.4180142"><ele>561.25</ele><time>2026-05-02T16:54:52.656Z</time></trkpt><trkpt lat="43.4907217" lon="11.4180737"><ele>563.5</ele><time>2026-05-02T16:54:53.657Z</time></trkpt><trkpt lat="43.4908337" lon="11.4181526"><ele>565.75</ele><time>2026-05-02T16:54:54.661Z</time></trkpt><trkpt lat="43.4909121" lon="11.4182644"><ele>568.0</ele><time>2026-05-02T16:54:55.659Z</time></trkpt><trkpt lat="43.4909573" lon="11.4184249"><ele>568.0</ele><time>2026-05-02T16:54:56.663Z</time></trkpt><trkpt lat="43.4909766" lon="11.4185927"><ele>568.0</ele><time>2026-05-02T16:54:57.662Z</time></trkpt><trkpt lat="43.4909744" lon="11.4187785"><ele>568.0</ele><time>2026-05-02T16:54:58.661Z</time></trkpt><trkpt lat="43.4909782" lon="11.4189805"><ele>568.0</ele><time>2026-05-02T16:54:59.673Z</time></trkpt><trkpt lat="43.4910164" lon="11.419209"><ele>566.3333333333334</ele><time>2026-05-02T16:55:00.66Z</time></trkpt><trkpt lat="43.4910685" lon="11.4194481"><ele>564.6666666666666</ele><time>2026-05-02T16:55:01.652Z</time></trkpt><trkpt lat="43.4911188" lon="11.4196962"><ele>563.0</ele><time>2026-05-02T16:55:02.662Z</time></trkpt><trkpt lat="43.4911688" lon="11.4199611"><ele>562.0</ele><time>2026-05-02T16:55:03.662Z</time></trkpt><trkpt lat="43.4912117" lon="11.4202194"><ele>561.0</ele><time>2026-05-02T16:55:04.656Z</time></trkpt><trkpt lat="43.4912456" lon="11.4204511"><ele>560.0</ele><time>2026-05-02T16:55:05.665Z</time></trkpt><trkpt lat="43.4912736" lon="11.4206514"><ele>560.0</ele><time>2026-05-02T16:55:06.657Z</time></trkpt><trkpt lat="43.4912948" lon="11.4208123"><ele>560.0</ele><time>2026-05-02T16:55:07.66Z</time></trkpt><trkpt lat="43.491301" lon="11.4209477"><ele>560.0</ele><time>2026-05-02T16:55:08.673Z</time></trkpt><trkpt lat="43.4912788" lon="11.4210629"><ele>560.0</ele><time>2026-05-02T16:55:09.664Z</time></trkpt><trkpt lat="43.4912378" lon="11.4211289"><ele>560.0</ele><time>2026-05-02T16:55:10.669Z</time></trkpt><trkpt lat="43.4911183" lon="11.4211857"><ele>560.0</ele><time>2026-05-02T16:55:12.659Z</time></trkpt><trkpt lat="43.491049" lon="11.4211984"><ele>560.0</ele><time>2026-05-02T16:55:13.662Z</time></trkpt><trkpt lat="43.4909618" lon="11.4212205"><ele>560.0</ele><time>2026-05-02T16:55:14.681Z</time></trkpt><trkpt lat="43.490865" lon="11.4212509"><ele>560.0</ele><time>2026-05-02T16:55:15.676Z</time></trkpt><trkpt lat="43.4907564" lon="11.4212877"><ele>560.0</ele><time>2026-05-02T16:55:16.676Z</time></trkpt><trkpt lat="43.4906319" lon="11.4213326"><ele>562.0</ele><time>2026-05-02T16:55:17.661Z</time></trkpt><trkpt lat="43.4905081" lon="11.4213737"><ele>564.0</ele><time>2026-05-02T16:55:18.67Z</time></trkpt><trkpt lat="43.4903877" lon="11.4214108"><ele>566.0</ele><time>2026-05-02T16:55:19.666Z</time></trkpt><trkpt lat="43.4902666" lon="11.4214484"><ele>568.0</ele><time>2026-05-02T16:55:20.671Z</time></trkpt><trkpt lat="43.490142" lon="11.4214863"><ele>568.0</ele><time>2026-05-02T16:55:21.672Z</time></trkpt><trkpt lat="43.4900167" lon="11.4215244"><ele>568.0</ele><time>2026-05-02T16:55:22.662Z</time></trkpt><trkpt lat="43.4898943" lon="11.4215636"><ele>568.0</ele><time>2026-05-02T16:55:23.654Z</time></trkpt><trkpt lat="43.4897778" lon="11.4216032"><ele>568.0</ele><time>2026-05-02T16:55:24.652Z</time></trkpt><trkpt lat="43.4896697" lon="11.4216553"><ele>564.0</ele><time>2026-05-02T16:55:25.666Z</time></trkpt><trkpt lat="43.4895685" lon="11.4217152"><ele>560.0</ele><time>2026-05-02T16:55:26.658Z</time></trkpt><trkpt lat="43.4894561" lon="11.4217799"><ele>556.0</ele><time>2026-05-02T16:55:27.667Z</time></trkpt><trkpt lat="43.4893518" lon="11.4218417"><ele>552.0</ele><time>2026-05-02T16:55:28.657Z</time></trkpt><trkpt lat="43.4892489" lon="11.4218768"><ele>552.0</ele><time>2026-05-02T16:55:29.654Z</time></trkpt><trkpt lat="43.4891384" lon="11.4219023"><ele>552.0</ele><time>2026-05-02T16:55:30.66Z</time></trkpt><trkpt lat="43.4890223" lon="11.4219054"><ele>552.0</ele><time>2026-05-02T16:55:31.657Z</time></trkpt><trkpt lat="43.4889131" lon="11.4219207"><ele>552.0</ele><time>2026-05-02T16:55:32.659Z</time></trkpt><trkpt lat="43.4888034" lon="11.4219444"><ele>552.0</ele><time>2026-05-02T16:55:33.668Z</time></trkpt><trkpt lat="43.4886912" lon="11.4219895"><ele>553.2</ele><time>2026-05-02T16:55:34.665Z</time></trkpt><trkpt lat="43.488594" lon="11.422036"><ele>554.4000000000001</ele><time>2026-05-02T16:55:35.664Z</time></trkpt><trkpt lat="43.488516" lon="11.4220838"><ele>555.5999999999999</ele><time>2026-05-02T16:55:36.662Z</time></trkpt><trkpt lat="43.4884435" lon="11.4221537"><ele>556.8</ele><time>2026-05-02T16:55:37.667Z</time></trkpt><trkpt lat="43.488387" lon="11.422243"><ele>558.0</ele><time>2026-05-02T16:55:38.657Z</time></trkpt><trkpt lat="43.4883405" lon="11.4223492"><ele>558.0</ele><time>2026-05-02T16:55:39.658Z</time></trkpt><trkpt lat="43.4883056" lon="11.4224667"><ele>558.0</ele><time>2026-05-02T16:55:40.663Z</time></trkpt><trkpt lat="43.4882826" lon="11.4225788"><ele>558.0</ele><time>2026-05-02T16:55:41.662Z</time></trkpt><trkpt lat="43.4882602" lon="11.4226844"><ele>558.0</ele><time>2026-05-02T16:55:42.662Z</time></trkpt><trkpt lat="43.4882224" lon="11.4227561"><ele>558.0</ele><time>2026-05-02T16:55:43.664Z</time></trkpt><trkpt lat="43.4881641" lon="11.4227986"><ele>558.0</ele><time>2026-05-02T16:55:44.665Z</time></trkpt><trkpt lat="43.4880363" lon="11.4227815"><ele>558.0</ele><time>2026-05-02T16:55:46.655Z</time></trkpt><trkpt lat="43.4879568" lon="11.4227135"><ele>558.0</ele><time>2026-05-02T16:55:47.649Z</time></trkpt><trkpt lat="43.4878776" lon="11.4226277"><ele>558.0</ele><time>2026-05-02T16:55:48.658Z</time></trkpt><trkpt lat="43.4877892" lon="11.4225329"><ele>558.0</ele><time>2026-05-02T16:55:49.662Z</time></trkpt><trkpt lat="43.4876952" lon="11.4224483"><ele>558.0</ele><time>2026-05-02T16:55:50.664Z</time></trkpt><trkpt lat="43.4875971" lon="11.4223608"><ele>557.0</ele><time>2026-05-02T16:55:51.66Z</time></trkpt><trkpt lat="43.487489" lon="11.4222681"><ele>556.0</ele><time>2026-05-02T16:55:52.66Z</time></trkpt><trkpt lat="43.4873798" lon="11.4221663"><ele>555.0</ele><time>2026-05-02T16:55:53.665Z</time></trkpt><trkpt lat="43.4872769" lon="11.4220583"><ele>554.0</ele><time>2026-05-02T16:55:54.659Z</time></trkpt><trkpt lat="43.4871816" lon="11.4219287"><ele>551.25</ele><time>2026-05-02T16:55:55.668Z</time></trkpt><trkpt lat="43.487089" lon="11.4217964"><ele>548.5</ele><time>2026-05-02T16:55:56.665Z</time></trkpt><trkpt lat="43.487004" lon="11.4216461"><ele>545.75</ele><time>2026-05-02T16:55:57.665Z</time></trkpt><trkpt lat="43.4869223" lon="11.4214743"><ele>543.0</ele><time>2026-05-02T16:55:58.668Z</time></trkpt><trkpt lat="43.4868369" lon="11.4213132"><ele>542.75</ele><time>2026-05-02T16:55:59.664Z</time></trkpt><trkpt lat="43.4867509" lon="11.4211526"><ele>542.5</ele><time>2026-05-02T16:56:00.671Z</time></trkpt><trkpt lat="43.4866585" lon="11.4209915"><ele>542.25</ele><time>2026-05-02T16:56:01.664Z</time></trkpt><trkpt lat="43.4865732" lon="11.4208441"><ele>542.0</ele><time>2026-05-02T16:56:02.668Z</time></trkpt><trkpt lat="43.4864813" lon="11.4206971"><ele>542.0</ele><time>2026-05-02T16:56:03.657Z</time></trkpt><trkpt lat="43.4863721" lon="11.420557"><ele>542.0</ele><time>2026-05-02T16:56:04.664Z</time></trkpt><trkpt lat="43.4862473" lon="11.4204422"><ele>542.0</ele><time>2026-05-02T16:56:05.659Z</time></trkpt><trkpt lat="43.4861192" lon="11.4203415"><ele>542.0</ele><time>2026-05-02T16:56:06.66Z</time></trkpt><trkpt lat="43.4859803" lon="11.4202571"><ele>543.25</ele><time>2026-05-02T16:56:07.668Z</time></trkpt><trkpt lat="43.4858487" lon="11.4201759"><ele>544.5</ele><time>2026-05-02T16:56:08.655Z</time></trkpt><trkpt lat="43.4857184" lon="11.4201111"><ele>545.75</ele><time>2026-05-02T16:56:09.659Z</time></trkpt><trkpt lat="43.485587" lon="11.4200423"><ele>547.0</ele><time>2026-05-02T16:56:10.657Z</time></trkpt><trkpt lat="43.4854603" lon="11.4199697"><ele>548.75</ele><time>2026-05-02T16:56:11.659Z</time></trkpt><trkpt lat="43.4853301" lon="11.4198982"><ele>550.5</ele><time>2026-05-02T16:56:12.668Z</time></trkpt><trkpt lat="43.4852001" lon="11.4198245"><ele>552.25</ele><time>2026-05-02T16:56:13.664Z</time></trkpt><trkpt lat="43.4850762" lon="11.4197481"><ele>554.0</ele><time>2026-05-02T16:56:14.664Z</time></trkpt><trkpt lat="43.4849489" lon="11.4196774"><ele>552.8</ele><time>2026-05-02T16:56:15.673Z</time></trkpt><trkpt lat="43.4848309" lon="11.4196092"><ele>551.5999999999999</ele><time>2026-05-02T16:56:16.668Z</time></trkpt><trkpt lat="43.4847295" lon="11.4195461"><ele>550.4</ele><time>2026-05-02T16:56:17.661Z</time></trkpt><trkpt lat="43.4846452" lon="11.4194993"><ele>549.1999999999999</ele><time>2026-05-02T16:56:18.661Z</time></trkpt><trkpt lat="43.4845657" lon="11.4194585"><ele>548.0</ele><time>2026-05-02T16:56:19.659Z</time></trkpt><trkpt lat="43.4844878" lon="11.4194393"><ele>548.0</ele><time>2026-05-02T16:56:20.665Z</time></trkpt><trkpt lat="43.484414" lon="11.4194348"><ele>548.0</ele><time>2026-05-02T16:56:21.664Z</time></trkpt><trkpt lat="43.4843486" lon="11.4194416"><ele>548.0</ele><time>2026-05-02T16:56:22.662Z</time></trkpt><trkpt lat="43.484281" lon="11.4194498"><ele>548.0</ele><time>2026-05-02T16:56:23.668Z</time></trkpt><trkpt lat="43.4842131" lon="11.4194626"><ele>548.0</ele><time>2026-05-02T16:56:24.659Z</time></trkpt><trkpt lat="43.4841319" lon="11.4194904"><ele>548.0</ele><time>2026-05-02T16:56:25.659Z</time></trkpt><trkpt lat="43.4840388" lon="11.4195343"><ele>548.0</ele><time>2026-05-02T16:56:26.668Z</time></trkpt><trkpt lat="43.4839423" lon="11.4195902"><ele>548.0</ele><time>2026-05-02T16:56:27.661Z</time></trkpt><trkpt lat="43.4838333" lon="11.4196606"><ele>548.0</ele><time>2026-05-02T16:56:28.672Z</time></trkpt><trkpt lat="43.4837138" lon="11.4197387"><ele>548.0</ele><time>2026-05-02T16:56:29.667Z</time></trkpt><trkpt lat="43.4835843" lon="11.4198157"><ele>547.0</ele><time>2026-05-02T16:56:30.659Z</time></trkpt><trkpt lat="43.4834484" lon="11.419903"><ele>546.0</ele><time>2026-05-02T16:56:31.657Z</time></trkpt><trkpt lat="43.4833068" lon="11.4199927"><ele>545.0</ele><time>2026-05-02T16:56:32.679Z</time></trkpt><trkpt lat="43.4831642" lon="11.4200851"><ele>545.0</ele><time>2026-05-02T16:56:33.666Z</time></trkpt><trkpt lat="43.4830151" lon="11.4201806"><ele>545.0</ele><time>2026-05-02T16:56:34.669Z</time></trkpt><trkpt lat="43.4828678" lon="11.4202722"><ele>545.0</ele><time>2026-05-02T16:56:35.663Z</time></trkpt><trkpt lat="43.4827418" lon="11.4203561"><ele>544.8</ele><time>2026-05-02T16:56:36.673Z</time></trkpt><trkpt lat="43.4826254" lon="11.4204322"><ele>544.6</ele><time>2026-05-02T16:56:37.675Z</time></trkpt><trkpt lat="43.4825238" lon="11.4205048"><ele>544.4</ele><time>2026-05-02T16:56:38.675Z</time></trkpt><trkpt lat="43.4824334" lon="11.4205687"><ele>544.2</ele><time>2026-05-02T16:56:39.66Z</time></trkpt><trkpt lat="43.4823505" lon="11.4206281"><ele>544.0</ele><time>2026-05-02T16:56:40.67Z</time></trkpt><trkpt lat="43.4822863" lon="11.4206754"><ele>544.0</ele><time>2026-05-02T16:56:41.665Z</time></trkpt><trkpt lat="43.4822318" lon="11.4207205"><ele>544.0</ele><time>2026-05-02T16:56:42.672Z</time></trkpt><trkpt lat="43.482159" lon="11.4207754"><ele>544.0</ele><time>2026-05-02T16:56:44.653Z</time></trkpt><trkpt lat="43.482084" lon="11.4208383"><ele>544.0</ele><time>2026-05-02T16:56:46.663Z</time></trkpt><trkpt lat="43.4820247" lon="11.4208834"><ele>544.0</ele><time>2026-05-02T16:56:47.67Z</time></trkpt><trkpt lat="43.481955" lon="11.4209395"><ele>544.0</ele><time>2026-05-02T16:56:48.665Z</time></trkpt><trkpt lat="43.4818711" lon="11.421009"><ele>542.6</ele><time>2026-05-02T16:56:49.657Z</time></trkpt><trkpt lat="43.4817876" lon="11.4210772"><ele>541.2</ele><time>2026-05-02T16:56:50.666Z</time></trkpt><trkpt lat="43.4817044" lon="11.4211433"><ele>539.8000000000001</ele><time>2026-05-02T16:56:51.665Z</time></trkpt><trkpt lat="43.4816248" lon="11.4212059"><ele>538.4</ele><time>2026-05-02T16:56:52.677Z</time></trkpt><trkpt lat="43.4815427" lon="11.4212639"><ele>537.0</ele><time>2026-05-02T16:56:53.668Z</time></trkpt><trkpt lat="43.4814715" lon="11.4213149"><ele>537.1428571428571</ele><time>2026-05-02T16:56:54.673Z</time></trkpt><trkpt lat="43.4814062" lon="11.4213542"><ele>537.2857142857142</ele><time>2026-05-02T16:56:55.67Z</time></trkpt><trkpt lat="43.4813484" lon="11.4213897"><ele>537.4285714285714</ele><time>2026-05-02T16:56:56.669Z</time></trkpt><trkpt lat="43.4812694" lon="11.4214465"><ele>537.5714285714286</ele><time>2026-05-02T16:56:58.667Z</time></trkpt><trkpt lat="43.4812172" lon="11.4214957"><ele>537.7142857142858</ele><time>2026-05-02T16:57:18.65Z</time></trkpt><trkpt lat="43.4811586" lon="11.4215474"><ele>537.8571428571429</ele><time>2026-05-02T16:57:25.671Z</time></trkpt><trkpt lat="43.4811054" lon="11.4215988"><ele>538.0</ele><time>2026-05-02T16:57:32.649Z</time></trkpt><trkpt lat="43.4811657" lon="11.421571"><ele>538.0</ele><time>2026-05-02T16:58:11.666Z</time></trkpt><trkpt lat="43.4812163" lon="11.4215159"><ele>538.0</ele><time>2026-05-02T16:58:18.649Z</time></trkpt><trkpt lat="43.4811499" lon="11.4215845"><ele>538.0</ele><time>2026-05-02T16:58:48.669Z</time></trkpt><trkpt lat="43.481046" lon="11.4216795"><ele>538.0</ele><time>2026-05-02T16:58:50.677Z</time></trkpt><trkpt lat="43.4809797" lon="11.4217297"><ele>538.0</ele><time>2026-05-02T16:58:51.662Z</time></trkpt><trkpt lat="43.4808955" lon="11.4217817"><ele>538.0</ele><time>2026-05-02T16:58:52.658Z</time></trkpt><trkpt lat="43.4808052" lon="11.4218508"><ele>538.0</ele><time>2026-05-02T16:58:53.659Z</time></trkpt><trkpt lat="43.4807088" lon="11.4219231"><ele>538.0</ele><time>2026-05-02T16:58:54.661Z</time></trkpt><trkpt lat="43.4806151" lon="11.4219947"><ele>538.0</ele><time>2026-05-02T16:58:55.66Z</time></trkpt><trkpt lat="43.4805094" lon="11.422072"><ele>538.0</ele><time>2026-05-02T16:58:56.682Z</time></trkpt><trkpt lat="43.480397" lon="11.4221624"><ele>536.75</ele><time>2026-05-02T16:58:57.673Z</time></trkpt><trkpt lat="43.4802844" lon="11.4222603"><ele>535.5</ele><time>2026-05-02T16:58:58.674Z</time></trkpt><trkpt lat="43.4801792" lon="11.4223634"><ele>534.25</ele><time>2026-05-02T16:58:59.666Z</time></trkpt><trkpt lat="43.4800779" lon="11.4224659"><ele>533.0</ele><time>2026-05-02T16:59:00.674Z</time></trkpt><trkpt lat="43.4799758" lon="11.4225798"><ele>533.0</ele><time>2026-05-02T16:59:01.662Z</time></trkpt><trkpt lat="43.4798682" lon="11.4227002"><ele>533.0</ele><time>2026-05-02T16:59:02.671Z</time></trkpt><trkpt lat="43.4797607" lon="11.4228255"><ele>533.0</ele><time>2026-05-02T16:59:03.67Z</time></trkpt><trkpt lat="43.479647" lon="11.4229515"><ele>533.0</ele><time>2026-05-02T16:59:04.662Z</time></trkpt><trkpt lat="43.4795433" lon="11.4230909"><ele>533.25</ele><time>2026-05-02T16:59:05.666Z</time></trkpt><trkpt lat="43.4794598" lon="11.4232249"><ele>533.5</ele><time>2026-05-02T16:59:06.654Z</time></trkpt><trkpt lat="43.4793928" lon="11.4233456"><ele>533.75</ele><time>2026-05-02T16:59:07.666Z</time></trkpt><trkpt lat="43.4793171" lon="11.4234722"><ele>534.0</ele><time>2026-05-02T16:59:08.663Z</time></trkpt><trkpt lat="43.4792428" lon="11.4236074"><ele>534.0</ele><time>2026-05-02T16:59:09.662Z</time></trkpt><trkpt lat="43.4791681" lon="11.423747"><ele>534.0</ele><time>2026-05-02T16:59:10.661Z</time></trkpt><trkpt lat="43.479093" lon="11.4238687"><ele>534.0</ele><time>2026-05-02T16:59:11.665Z</time></trkpt><trkpt lat="43.4790097" lon="11.4239863"><ele>534.0</ele><time>2026-05-02T16:59:12.66Z</time></trkpt><trkpt lat="43.478927" lon="11.4240942"><ele>532.8</ele><time>2026-05-02T16:59:13.66Z</time></trkpt><trkpt lat="43.478837" lon="11.4241884"><ele>531.5999999999999</ele><time>2026-05-02T16:59:14.669Z</time></trkpt><trkpt lat="43.4787421" lon="11.4242634"><ele>530.4</ele><time>2026-05-02T16:59:15.669Z</time></trkpt><trkpt lat="43.4786487" lon="11.4243293"><ele>529.1999999999999</ele><time>2026-05-02T16:59:16.66Z</time></trkpt><trkpt lat="43.478553" lon="11.4243942"><ele>528.0</ele><time>2026-05-02T16:59:17.661Z</time></trkpt><trkpt lat="43.4784599" lon="11.4244655"><ele>527.0</ele><time>2026-05-02T16:59:18.668Z</time></trkpt><trkpt lat="43.4783773" lon="11.4245209"><ele>526.0</ele><time>2026-05-02T16:59:19.662Z</time></trkpt><trkpt lat="43.4783034" lon="11.4245766"><ele>525.0</ele><time>2026-05-02T16:59:20.655Z</time></trkpt><trkpt lat="43.4782361" lon="11.4246299"><ele>524.0</ele><time>2026-05-02T16:59:21.673Z</time></trkpt><trkpt lat="43.4781654" lon="11.4246779"><ele>523.0</ele><time>2026-05-02T16:59:22.658Z</time></trkpt><trkpt lat="43.4781016" lon="11.4246976"><ele>522.0</ele><time>2026-05-02T16:59:23.669Z</time></trkpt><trkpt lat="43.4780276" lon="11.424689"><ele>522.0</ele><time>2026-05-02T16:59:24.66Z</time></trkpt><trkpt lat="43.477964" lon="11.4246385"><ele>522.0</ele><time>2026-05-02T16:59:25.665Z</time></trkpt><trkpt lat="43.4778886" lon="11.4245532"><ele>522.0</ele><time>2026-05-02T16:59:26.67Z</time></trkpt><trkpt lat="43.4778076" lon="11.4244263"><ele>522.0</ele><time>2026-05-02T16:59:27.651Z</time></trkpt><trkpt lat="43.4777142" lon="11.4242744"><ele>522.0</ele><time>2026-05-02T16:59:28.666Z</time></trkpt><trkpt lat="43.4776168" lon="11.424116"><ele>518.5</ele><time>2026-05-02T16:59:29.662Z</time></trkpt><trkpt lat="43.4775314" lon="11.4239752"><ele>515.0</ele><time>2026-05-02T16:59:30.663Z</time></trkpt><trkpt lat="43.4774416" lon="11.4238466"><ele>511.5</ele><time>2026-05-02T16:59:31.67Z</time></trkpt><trkpt lat="43.4773487" lon="11.423712"><ele>508.0</ele><time>2026-05-02T16:59:32.66Z</time></trkpt><trkpt lat="43.4772534" lon="11.4235714"><ele>508.0</ele><time>2026-05-02T16:59:33.668Z</time></trkpt><trkpt lat="43.4771446" lon="11.4234337"><ele>508.0</ele><time>2026-05-02T16:59:34.676Z</time></trkpt><trkpt lat="43.477027" lon="11.4232901"><ele>508.0</ele><time>2026-05-02T16:59:35.683Z</time></trkpt><trkpt lat="43.4769043" lon="11.4231394"><ele>507.5</ele><time>2026-05-02T16:59:36.661Z</time></trkpt><trkpt lat="43.4767925" lon="11.4230026"><ele>507.0</ele><time>2026-05-02T16:59:37.668Z</time></trkpt><trkpt lat="43.4766794" lon="11.4228985"><ele>506.5</ele><time>2026-05-02T16:59:38.672Z</time></trkpt><trkpt lat="43.47656" lon="11.4228034"><ele>506.0</ele><time>2026-05-02T16:59:39.677Z</time></trkpt><trkpt lat="43.4764296" lon="11.4227178"><ele>506.0</ele><time>2026-05-02T16:59:40.663Z</time></trkpt><trkpt lat="43.4762638" lon="11.4226217"><ele>506.0</ele><time>2026-05-02T16:59:41.669Z</time></trkpt><trkpt lat="43.4760967" lon="11.4225252"><ele>506.0</ele><time>2026-05-02T16:59:42.669Z</time></trkpt><trkpt lat="43.4759505" lon="11.4224536"><ele>506.0</ele><time>2026-05-02T16:59:43.666Z</time></trkpt><trkpt lat="43.4758229" lon="11.4223969"><ele>506.0</ele><time>2026-05-02T16:59:44.663Z</time></trkpt><trkpt lat="43.4757053" lon="11.4223682"><ele>506.0</ele><time>2026-05-02T16:59:45.662Z</time></trkpt><trkpt lat="43.4755792" lon="11.4223613"><ele>506.0</ele><time>2026-05-02T16:59:46.656Z</time></trkpt><trkpt lat="43.4754525" lon="11.4223811"><ele>508.75</ele><time>2026-05-02T16:59:47.655Z</time></trkpt><trkpt lat="43.4753288" lon="11.4224404"><ele>511.5</ele><time>2026-05-02T16:59:48.672Z</time></trkpt><trkpt lat="43.4751997" lon="11.4225106"><ele>514.25</ele><time>2026-05-02T16:59:49.668Z</time></trkpt><trkpt lat="43.47508" lon="11.4225837"><ele>517.0</ele><time>2026-05-02T16:59:50.658Z</time></trkpt><trkpt lat="43.4749568" lon="11.4226314"><ele>517.0</ele><time>2026-05-02T16:59:51.669Z</time></trkpt><trkpt lat="43.4748398" lon="11.4226372"><ele>517.0</ele><time>2026-05-02T16:59:52.665Z</time></trkpt><trkpt lat="43.474719" lon="11.4226188"><ele>517.0</ele><time>2026-05-02T16:59:53.667Z</time></trkpt><trkpt lat="43.4745877" lon="11.4225772"><ele>517.0</ele><time>2026-05-02T16:59:54.678Z</time></trkpt><trkpt lat="43.4744438" lon="11.4225277"><ele>518.0</ele><time>2026-05-02T16:59:55.675Z</time></trkpt><trkpt lat="43.4742936" lon="11.422467"><ele>519.0</ele><time>2026-05-02T16:59:56.666Z</time></trkpt><trkpt lat="43.4741398" lon="11.4224226"><ele>520.0</ele><time>2026-05-02T16:59:57.669Z</time></trkpt><trkpt lat="43.473989" lon="11.4223954"><ele>520.0</ele><time>2026-05-02T16:59:58.667Z</time></trkpt><trkpt lat="43.4738382" lon="11.4223644"><ele>520.0</ele><time>2026-05-02T16:59:59.663Z</time></trkpt><trkpt lat="43.4736975" lon="11.4223316"><ele>520.0</ele><time>2026-05-02T17:00:00.677Z</time></trkpt><trkpt lat="43.4735784" lon="11.4222819"><ele>520.0</ele><time>2026-05-02T17:00:01.657Z</time></trkpt><trkpt lat="43.4734695" lon="11.4222343"><ele>519.6</ele><time>2026-05-02T17:00:02.667Z</time></trkpt><trkpt lat="43.473368" lon="11.4221894"><ele>519.2</ele><time>2026-05-02T17:00:03.66Z</time></trkpt><trkpt lat="43.4732692" lon="11.4221449"><ele>518.8</ele><time>2026-05-02T17:00:04.672Z</time></trkpt><trkpt lat="43.4731748" lon="11.4220969"><ele>518.4</ele><time>2026-05-02T17:00:05.662Z</time></trkpt><trkpt lat="43.4730801" lon="11.4220352"><ele>518.0</ele><time>2026-05-02T17:00:06.67Z</time></trkpt><trkpt lat="43.4729854" lon="11.4219388"><ele>517.75</ele><time>2026-05-02T17:00:07.666Z</time></trkpt><trkpt lat="43.4728799" lon="11.4218204"><ele>517.5</ele><time>2026-05-02T17:00:08.668Z</time></trkpt><trkpt lat="43.4727657" lon="11.4216988"><ele>517.25</ele><time>2026-05-02T17:00:09.663Z</time></trkpt><trkpt lat="43.4726501" lon="11.4215676"><ele>517.0</ele><time>2026-05-02T17:00:10.664Z</time></trkpt><trkpt lat="43.4725321" lon="11.4214518"><ele>517.0</ele><time>2026-05-02T17:00:11.661Z</time></trkpt><trkpt lat="43.4724009" lon="11.4213575"><ele>517.0</ele><time>2026-05-02T17:00:12.665Z</time></trkpt><trkpt lat="43.4722617" lon="11.4212772"><ele>517.0</ele><time>2026-05-02T17:00:13.663Z</time></trkpt><trkpt lat="43.4721413" lon="11.4212178"><ele>517.0</ele><time>2026-05-02T17:00:14.668Z</time></trkpt><trkpt lat="43.4720367" lon="11.4211715"><ele>518.25</ele><time>2026-05-02T17:00:15.658Z</time></trkpt><trkpt lat="43.4719283" lon="11.4210987"><ele>519.5</ele><time>2026-05-02T17:00:16.657Z</time></trkpt><trkpt lat="43.4718228" lon="11.420999"><ele>520.75</ele><time>2026-05-02T17:00:17.686Z</time></trkpt><trkpt lat="43.4717103" lon="11.4208759"><ele>522.0</ele><time>2026-05-02T17:00:18.665Z</time></trkpt><trkpt lat="43.471613" lon="11.4207543"><ele>522.0</ele><time>2026-05-02T17:00:19.67Z</time></trkpt><trkpt lat="43.4715207" lon="11.4206247"><ele>522.0</ele><time>2026-05-02T17:00:20.658Z</time></trkpt><trkpt lat="43.471433" lon="11.4204939"><ele>522.0</ele><time>2026-05-02T17:00:21.678Z</time></trkpt><trkpt lat="43.4713435" lon="11.4203562"><ele>522.0</ele><time>2026-05-02T17:00:22.662Z</time></trkpt><trkpt lat="43.4712588" lon="11.4202028"><ele>519.75</ele><time>2026-05-02T17:00:23.663Z</time></trkpt><trkpt lat="43.471169" lon="11.4200389"><ele>517.5</ele><time>2026-05-02T17:00:24.658Z</time></trkpt><trkpt lat="43.4710756" lon="11.4198792"><ele>515.25</ele><time>2026-05-02T17:00:25.664Z</time></trkpt><trkpt lat="43.4709754" lon="11.4197382"><ele>513.0</ele><time>2026-05-02T17:00:26.659Z</time></trkpt><trkpt lat="43.4708803" lon="11.4196078"><ele>511.25</ele><time>2026-05-02T17:00:27.669Z</time></trkpt><trkpt lat="43.470796" lon="11.4194751"><ele>509.5</ele><time>2026-05-02T17:00:28.664Z</time></trkpt><trkpt lat="43.4707177" lon="11.4193357"><ele>507.75</ele><time>2026-05-02T17:00:29.657Z</time></trkpt><trkpt lat="43.4706456" lon="11.4191971"><ele>506.0</ele><time>2026-05-02T17:00:30.664Z</time></trkpt><trkpt lat="43.4705751" lon="11.419059"><ele>506.0</ele><time>2026-05-02T17:00:31.656Z</time></trkpt><trkpt lat="43.4705109" lon="11.4189315"><ele>506.0</ele><time>2026-05-02T17:00:32.674Z</time></trkpt><trkpt lat="43.4704486" lon="11.4188145"><ele>506.0</ele><time>2026-05-02T17:00:33.668Z</time></trkpt><trkpt lat="43.4703882" lon="11.418714"><ele>506.0</ele><time>2026-05-02T17:00:34.662Z</time></trkpt><trkpt lat="43.4703356" lon="11.4186161"><ele>506.0</ele><time>2026-05-02T17:00:35.666Z</time></trkpt><trkpt lat="43.470291" lon="11.4185494"><ele>505.20000000000005</ele><time>2026-05-02T17:00:36.666Z</time></trkpt><trkpt lat="43.4702209" lon="11.4184573"><ele>504.40000000000003</ele><time>2026-05-02T17:00:38.657Z</time></trkpt><trkpt lat="43.4701587" lon="11.4184312"><ele>503.6</ele><time>2026-05-02T17:00:41.663Z</time></trkpt><trkpt lat="43.4701704" lon="11.4185526"><ele>502.8</ele><time>2026-05-02T17:01:40.661Z</time></trkpt><trkpt lat="43.4701105" lon="11.4187031"><ele>502.0</ele><time>2026-05-02T17:01:42.669Z</time></trkpt><trkpt lat="43.4700536" lon="11.4187955"><ele>502.40000000000003</ele><time>2026-05-02T17:01:43.67Z</time></trkpt><trkpt lat="43.4699879" lon="11.4188892"><ele>502.80000000000007</ele><time>2026-05-02T17:01:44.665Z</time></trkpt><trkpt lat="43.4699231" lon="11.4189979"><ele>503.2</ele><time>2026-05-02T17:01:45.65Z</time></trkpt><trkpt lat="43.4698524" lon="11.4191072"><ele>503.6</ele><time>2026-05-02T17:01:46.668Z</time></trkpt><trkpt lat="43.4697774" lon="11.4192208"><ele>504.0</ele><time>2026-05-02T17:01:47.661Z</time></trkpt><trkpt lat="43.4697198" lon="11.4193279"><ele>504.0</ele><time>2026-05-02T17:01:48.659Z</time></trkpt><trkpt lat="43.4696874" lon="11.4194194"><ele>504.0</ele><time>2026-05-02T17:01:49.658Z</time></trkpt><trkpt lat="43.4696954" lon="11.4195334"><ele>504.0</ele><time>2026-05-02T17:01:50.667Z</time></trkpt><trkpt lat="43.469722" lon="11.4196695"><ele>504.0</ele><time>2026-05-02T17:01:51.669Z</time></trkpt><trkpt lat="43.469765" lon="11.4198138"><ele>504.0</ele><time>2026-05-02T17:01:52.673Z</time></trkpt><trkpt lat="43.4698335" lon="11.4199716"><ele>503.25</ele><time>2026-05-02T17:01:53.67Z</time></trkpt><trkpt lat="43.4699246" lon="11.4201275"><ele>502.5</ele><time>2026-05-02T17:01:54.654Z</time></trkpt><trkpt lat="43.4700093" lon="11.4202924"><ele>501.75</ele><time>2026-05-02T17:01:55.661Z</time></trkpt><trkpt lat="43.4700836" lon="11.4204563"><ele>501.0</ele><time>2026-05-02T17:01:56.662Z</time></trkpt><trkpt lat="43.4701537" lon="11.4206005"><ele>498.25</ele><time>2026-05-02T17:01:57.662Z</time></trkpt><trkpt lat="43.4702234" lon="11.4207351"><ele>495.5</ele><time>2026-05-02T17:01:58.667Z</time></trkpt><trkpt lat="43.4702887" lon="11.4208678"><ele>492.75</ele><time>2026-05-02T17:01:59.655Z</time></trkpt><trkpt lat="43.4703344" lon="11.4210008"><ele>490.0</ele><time>2026-05-02T17:02:00.658Z</time></trkpt><trkpt lat="43.4703582" lon="11.4211444"><ele>490.0</ele><time>2026-05-02T17:02:01.661Z</time></trkpt><trkpt lat="43.4703417" lon="11.4212757"><ele>490.0</ele><time>2026-05-02T17:02:02.65Z</time></trkpt><trkpt lat="43.470294" lon="11.4213981"><ele>490.0</ele><time>2026-05-02T17:02:03.66Z</time></trkpt><trkpt lat="43.4702205" lon="11.4214958"><ele>490.0</ele><time>2026-05-02T17:02:04.658Z</time></trkpt><trkpt lat="43.4701176" lon="11.4215715"><ele>490.0</ele><time>2026-05-02T17:02:05.654Z</time></trkpt><trkpt lat="43.4700208" lon="11.4216476"><ele>490.75</ele><time>2026-05-02T17:02:06.665Z</time></trkpt><trkpt lat="43.4699046" lon="11.4217325"><ele>491.5</ele><time>2026-05-02T17:02:07.66Z</time></trkpt><trkpt lat="43.4697953" lon="11.4218148"><ele>492.25</ele><time>2026-05-02T17:02:08.663Z</time></trkpt><trkpt lat="43.4696742" lon="11.4219003"><ele>493.0</ele><time>2026-05-02T17:02:09.665Z</time></trkpt><trkpt lat="43.4695597" lon="11.4219905"><ele>492.25</ele><time>2026-05-02T17:02:10.666Z</time></trkpt><trkpt lat="43.4694545" lon="11.4220659"><ele>491.5</ele><time>2026-05-02T17:02:11.669Z</time></trkpt><trkpt lat="43.4693492" lon="11.4221488"><ele>490.75</ele><time>2026-05-02T17:02:12.67Z</time></trkpt><trkpt lat="43.4692349" lon="11.4222366"><ele>490.0</ele><time>2026-05-02T17:02:13.665Z</time></trkpt><trkpt lat="43.469115" lon="11.422331"><ele>490.0</ele><time>2026-05-02T17:02:14.665Z</time></trkpt><trkpt lat="43.468992" lon="11.4224234"><ele>490.0</ele><time>2026-05-02T17:02:15.657Z</time></trkpt><trkpt lat="43.4688815" lon="11.422505"><ele>490.0</ele><time>2026-05-02T17:02:16.685Z</time></trkpt><trkpt lat="43.4687858" lon="11.4225787"><ele>490.0</ele><time>2026-05-02T17:02:17.659Z</time></trkpt><trkpt lat="43.4686986" lon="11.4226405"><ele>487.2</ele><time>2026-05-02T17:02:18.664Z</time></trkpt><trkpt lat="43.4686156" lon="11.4227027"><ele>484.4</ele><time>2026-05-02T17:02:19.657Z</time></trkpt><trkpt lat="43.4685375" lon="11.4227568"><ele>481.6</ele><time>2026-05-02T17:02:20.662Z</time></trkpt><trkpt lat="43.4684558" lon="11.4228212"><ele>478.8</ele><time>2026-05-02T17:02:21.667Z</time></trkpt><trkpt lat="43.4683718" lon="11.4228826"><ele>476.0</ele><time>2026-05-02T17:02:22.658Z</time></trkpt><trkpt lat="43.4682893" lon="11.4229369"><ele>476.0</ele><time>2026-05-02T17:02:23.665Z</time></trkpt><trkpt lat="43.4682176" lon="11.4229731"><ele>476.0</ele><time>2026-05-02T17:02:24.669Z</time></trkpt><trkpt lat="43.4681535" lon="11.4230073"><ele>476.0</ele><time>2026-05-02T17:02:25.662Z</time></trkpt><trkpt lat="43.4680901" lon="11.4230398"><ele>476.0</ele><time>2026-05-02T17:02:26.672Z</time></trkpt><trkpt lat="43.4680285" lon="11.4230679"><ele>476.0</ele><time>2026-05-02T17:02:27.668Z</time></trkpt><trkpt lat="43.4679625" lon="11.4230902"><ele>476.0</ele><time>2026-05-02T17:02:28.675Z</time></trkpt><trkpt lat="43.4678994" lon="11.4231027"><ele>476.0</ele><time>2026-05-02T17:02:29.668Z</time></trkpt><trkpt lat="43.4677911" lon="11.4231312"><ele>476.6</ele><time>2026-05-02T17:02:31.663Z</time></trkpt><trkpt lat="43.4677071" lon="11.4231956"><ele>477.20000000000005</ele><time>2026-05-02T17:02:33.661Z</time></trkpt><trkpt lat="43.4676743" lon="11.4233073"><ele>477.79999999999995</ele><time>2026-05-02T17:02:35.674Z</time></trkpt><trkpt lat="43.4676978" lon="11.4234383"><ele>478.4</ele><time>2026-05-02T17:02:39.668Z</time></trkpt><trkpt lat="43.4677684" lon="11.423602"><ele>479.0</ele><time>2026-05-02T17:02:41.664Z</time></trkpt><trkpt lat="43.4678397" lon="11.4236752"><ele>479.0</ele><time>2026-05-02T17:02:42.666Z</time></trkpt><trkpt lat="43.4679228" lon="11.4237363"><ele>479.0</ele><time>2026-05-02T17:02:43.662Z</time></trkpt><trkpt lat="43.4680037" lon="11.4237993"><ele>479.0</ele><time>2026-05-02T17:02:44.66Z</time></trkpt><trkpt lat="43.4680972" lon="11.4238779"><ele>479.0</ele><time>2026-05-02T17:02:45.66Z</time></trkpt><trkpt lat="43.468195" lon="11.4239672"><ele>479.0</ele><time>2026-05-02T17:02:46.691Z</time></trkpt><trkpt lat="43.4682854" lon="11.4240564"><ele>476.5</ele><time>2026-05-02T17:02:47.66Z</time></trkpt><trkpt lat="43.4683752" lon="11.4241365"><ele>474.0</ele><time>2026-05-02T17:02:48.659Z</time></trkpt><trkpt lat="43.4684708" lon="11.4242114"><ele>471.5</ele><time>2026-05-02T17:02:49.663Z</time></trkpt><trkpt lat="43.4685757" lon="11.4242723"><ele>469.0</ele><time>2026-05-02T17:02:50.667Z</time></trkpt><trkpt lat="43.4686949" lon="11.42431"><ele>468.33333333333337</ele><time>2026-05-02T17:02:51.678Z</time></trkpt><trkpt lat="43.4688389" lon="11.4243376"><ele>467.66666666666663</ele><time>2026-05-02T17:02:52.67Z</time></trkpt><trkpt lat="43.4690074" lon="11.4243605"><ele>467.0</ele><time>2026-05-02T17:02:53.666Z</time></trkpt><trkpt lat="43.4691675" lon="11.4243786"><ele>467.0</ele><time>2026-05-02T17:02:54.661Z</time></trkpt><trkpt lat="43.4693156" lon="11.424414"><ele>467.0</ele><time>2026-05-02T17:02:55.661Z</time></trkpt><trkpt lat="43.4694494" lon="11.4244527"><ele>467.0</ele><time>2026-05-02T17:02:56.659Z</time></trkpt><trkpt lat="43.4695746" lon="11.4245149"><ele>467.0</ele><time>2026-05-02T17:02:57.665Z</time></trkpt><trkpt lat="43.4696722" lon="11.4246001"><ele>465.6</ele><time>2026-05-02T17:02:58.666Z</time></trkpt><trkpt lat="43.4697529" lon="11.4247044"><ele>464.20000000000005</ele><time>2026-05-02T17:02:59.658Z</time></trkpt><trkpt lat="43.469802" lon="11.424822"><ele>462.8</ele><time>2026-05-02T17:03:00.659Z</time></trkpt><trkpt lat="43.4698361" lon="11.4249592"><ele>461.4</ele><time>2026-05-02T17:03:01.664Z</time></trkpt><trkpt lat="43.4698661" lon="11.4250949"><ele>460.0</ele><time>2026-05-02T17:03:02.666Z</time></trkpt><trkpt lat="43.4698858" lon="11.4252436"><ele>460.0</ele><time>2026-05-02T17:03:03.669Z</time></trkpt><trkpt lat="43.4699038" lon="11.4254032"><ele>460.0</ele><time>2026-05-02T17:03:04.651Z</time></trkpt><trkpt lat="43.4699171" lon="11.4255574"><ele>460.0</ele><time>2026-05-02T17:03:05.674Z</time></trkpt><trkpt lat="43.4699227" lon="11.4257072"><ele>460.0</ele><time>2026-05-02T17:03:06.67Z</time></trkpt><trkpt lat="43.469922" lon="11.4258567"><ele>460.0</ele><time>2026-05-02T17:03:07.666Z</time></trkpt><trkpt lat="43.4699242" lon="11.4260019"><ele>457.6</ele><time>2026-05-02T17:03:08.658Z</time></trkpt><trkpt lat="43.4699282" lon="11.4261494"><ele>455.2</ele><time>2026-05-02T17:03:09.669Z</time></trkpt><trkpt lat="43.4699298" lon="11.4262884"><ele>452.79999999999995</ele><time>2026-05-02T17:03:10.662Z</time></trkpt><trkpt lat="43.469917" lon="11.4264439"><ele>450.4</ele><time>2026-05-02T17:03:11.667Z</time></trkpt><trkpt lat="43.4698909" lon="11.4266002"><ele>448.0</ele><time>2026-05-02T17:03:12.665Z</time></trkpt><trkpt lat="43.4698662" lon="11.4267485"><ele>446.4</ele><time>2026-05-02T17:03:13.667Z</time></trkpt><trkpt lat="43.4698456" lon="11.426881"><ele>444.79999999999995</ele><time>2026-05-02T17:03:14.675Z</time></trkpt><trkpt lat="43.4698271" lon="11.4270056"><ele>443.2</ele><time>2026-05-02T17:03:15.661Z</time></trkpt><trkpt lat="43.4698008" lon="11.4271273"><ele>441.6</ele><time>2026-05-02T17:03:16.653Z</time></trkpt><trkpt lat="43.4697661" lon="11.4272518"><ele>440.0</ele><time>2026-05-02T17:03:17.666Z</time></trkpt><trkpt lat="43.4697248" lon="11.4273845"><ele>438.0</ele><time>2026-05-02T17:03:18.665Z</time></trkpt><trkpt lat="43.4696584" lon="11.4275355"><ele>436.0</ele><time>2026-05-02T17:03:19.677Z</time></trkpt><trkpt lat="43.4695785" lon="11.4276774"><ele>434.0</ele><time>2026-05-02T17:03:20.652Z</time></trkpt><trkpt lat="43.4694758" lon="11.4278315"><ele>432.0</ele><time>2026-05-02T17:03:21.654Z</time></trkpt><trkpt lat="43.4693627" lon="11.4279866"><ele>428.33333333333337</ele><time>2026-05-02T17:03:22.675Z</time></trkpt><trkpt lat="43.4692499" lon="11.4281547"><ele>424.6666666666667</ele><time>2026-05-02T17:03:23.66Z</time></trkpt><trkpt lat="43.4691399" lon="11.4283326"><ele>421.0</ele><time>2026-05-02T17:03:24.666Z</time></trkpt><trkpt lat="43.4690335" lon="11.4285094"><ele>421.0</ele><time>2026-05-02T17:03:25.655Z</time></trkpt><trkpt lat="43.4689302" lon="11.4286803"><ele>421.0</ele><time>2026-05-02T17:03:26.659Z</time></trkpt><trkpt lat="43.468829" lon="11.4288426"><ele>421.0</ele><time>2026-05-02T17:03:27.661Z</time></trkpt><trkpt lat="43.468732" lon="11.4289936"><ele>417.75</ele><time>2026-05-02T17:03:28.681Z</time></trkpt><trkpt lat="43.4686426" lon="11.4291431"><ele>414.5</ele><time>2026-05-02T17:03:29.656Z</time></trkpt><trkpt lat="43.4685587" lon="11.4292875"><ele>411.25</ele><time>2026-05-02T17:03:30.665Z</time></trkpt><trkpt lat="43.4684793" lon="11.4294148"><ele>408.0</ele><time>2026-05-02T17:03:31.672Z</time></trkpt><trkpt lat="43.4683956" lon="11.4295331"><ele>408.0</ele><time>2026-05-02T17:03:32.661Z</time></trkpt><trkpt lat="43.4683048" lon="11.4296259"><ele>408.0</ele><time>2026-05-02T17:03:33.665Z</time></trkpt><trkpt lat="43.4682071" lon="11.429705"><ele>408.0</ele><time>2026-05-02T17:03:34.662Z</time></trkpt><trkpt lat="43.468111" lon="11.4297751"><ele>408.0</ele><time>2026-05-02T17:03:35.661Z</time></trkpt><trkpt lat="43.468007" lon="11.4298326"><ele>408.0</ele><time>2026-05-02T17:03:36.668Z</time></trkpt><trkpt lat="43.4679003" lon="11.4298988"><ele>405.5</ele><time>2026-05-02T17:03:37.667Z</time></trkpt><trkpt lat="43.4677964" lon="11.4299806"><ele>403.0</ele><time>2026-05-02T17:03:38.651Z</time></trkpt><trkpt lat="43.4676936" lon="11.4300595"><ele>400.5</ele><time>2026-05-02T17:03:39.667Z</time></trkpt><trkpt lat="43.4675868" lon="11.4301331"><ele>398.0</ele><time>2026-05-02T17:03:40.671Z</time></trkpt><trkpt lat="43.4674696" lon="11.4302141"><ele>398.0</ele><time>2026-05-02T17:03:41.664Z</time></trkpt><trkpt lat="43.4673533" lon="11.4302884"><ele>398.0</ele><time>2026-05-02T17:03:42.665Z</time></trkpt><trkpt lat="43.4672426" lon="11.4303623"><ele>398.0</ele><time>2026-05-02T17:03:43.656Z</time></trkpt><trkpt lat="43.467127" lon="11.4304327"><ele>398.0</ele><time>2026-05-02T17:03:44.658Z</time></trkpt><trkpt lat="43.4670159" lon="11.430505"><ele>396.0</ele><time>2026-05-02T17:03:45.652Z</time></trkpt><trkpt lat="43.4669085" lon="11.4305752"><ele>394.0</ele><time>2026-05-02T17:03:46.664Z</time></trkpt><trkpt lat="43.4668075" lon="11.4306419"><ele>392.0</ele><time>2026-05-02T17:03:47.648Z</time></trkpt><trkpt lat="43.4667261" lon="11.4306982"><ele>390.0</ele><time>2026-05-02T17:03:48.662Z</time></trkpt><trkpt lat="43.4666583" lon="11.4307593"><ele>388.0</ele><time>2026-05-02T17:03:49.656Z</time></trkpt><trkpt lat="43.4666202" lon="11.4309155"><ele>388.0</ele><time>2026-05-02T17:03:51.66Z</time></trkpt><trkpt lat="43.4666621" lon="11.4309993"><ele>388.0</ele><time>2026-05-02T17:03:52.656Z</time></trkpt><trkpt lat="43.4667159" lon="11.4311008"><ele>388.0</ele><time>2026-05-02T17:03:53.655Z</time></trkpt><trkpt lat="43.4667923" lon="11.4311913"><ele>388.0</ele><time>2026-05-02T17:03:54.656Z</time></trkpt><trkpt lat="43.466891" lon="11.4312644"><ele>388.0</ele><time>2026-05-02T17:03:55.662Z</time></trkpt><trkpt lat="43.4670018" lon="11.4313104"><ele>385.0</ele><time>2026-05-02T17:03:56.658Z</time></trkpt><trkpt lat="43.4671095" lon="11.4313468"><ele>382.0</ele><time>2026-05-02T17:03:57.654Z</time></trkpt><trkpt lat="43.467215" lon="11.4313798"><ele>379.0</ele><time>2026-05-02T17:03:58.66Z</time></trkpt><trkpt lat="43.4673312" lon="11.4314161"><ele>376.0</ele><time>2026-05-02T17:03:59.66Z</time></trkpt><trkpt lat="43.4674503" lon="11.4314731"><ele>376.0</ele><time>2026-05-02T17:04:00.655Z</time></trkpt><trkpt lat="43.4675619" lon="11.431549"><ele>376.0</ele><time>2026-05-02T17:04:01.656Z</time></trkpt><trkpt lat="43.4676648" lon="11.4316341"><ele>376.0</ele><time>2026-05-02T17:04:02.665Z</time></trkpt><trkpt lat="43.4677637" lon="11.4317345"><ele>376.0</ele><time>2026-05-02T17:04:03.66Z</time></trkpt><trkpt lat="43.4678562" lon="11.4318278"><ele>376.0</ele><time>2026-05-02T17:04:04.662Z</time></trkpt><trkpt lat="43.4679399" lon="11.4319205"><ele>376.0</ele><time>2026-05-02T17:04:05.66Z</time></trkpt><trkpt lat="43.4680157" lon="11.432003"><ele>376.0</ele><time>2026-05-02T17:04:06.663Z</time></trkpt><trkpt lat="43.4680681" lon="11.4320731"><ele>376.0</ele><time>2026-05-02T17:04:07.657Z</time></trkpt><trkpt lat="43.4681105" lon="11.4321905"><ele>376.0</ele><time>2026-05-02T17:04:09.659Z</time></trkpt><trkpt lat="43.468039" lon="11.4323009"><ele>373.6</ele><time>2026-05-02T17:04:11.66Z</time></trkpt><trkpt lat="43.4679786" lon="11.4323394"><ele>371.20000000000005</ele><time>2026-05-02T17:04:12.653Z</time></trkpt><trkpt lat="43.4679114" lon="11.4323804"><ele>368.79999999999995</ele><time>2026-05-02T17:04:13.654Z</time></trkpt><trkpt lat="43.4677981" lon="11.4324563"><ele>366.4</ele><time>2026-05-02T17:04:15.653Z</time></trkpt><trkpt lat="43.4676923" lon="11.432531"><ele>364.0</ele><time>2026-05-02T17:04:17.662Z</time></trkpt><trkpt lat="43.4675798" lon="11.4325945"><ele>363.66666666666663</ele><time>2026-05-02T17:04:19.659Z</time></trkpt><trkpt lat="43.4674639" lon="11.4326584"><ele>363.3333333333333</ele><time>2026-05-02T17:04:21.662Z</time></trkpt><trkpt lat="43.4674052" lon="11.4326936"><ele>363.0</ele><time>2026-05-02T17:04:22.648Z</time></trkpt><trkpt lat="43.4672912" lon="11.4327683"><ele>362.6666666666667</ele><time>2026-05-02T17:04:24.658Z</time></trkpt><trkpt lat="43.4672321" lon="11.4328117"><ele>362.33333333333337</ele><time>2026-05-02T17:04:25.669Z</time></trkpt><trkpt lat="43.4671732" lon="11.4328532"><ele>362.0</ele><time>2026-05-02T17:04:26.664Z</time></trkpt><trkpt lat="43.4671092" lon="11.4328923"><ele>361.7142857142857</ele><time>2026-05-02T17:04:27.658Z</time></trkpt><trkpt lat="43.4670447" lon="11.4329356"><ele>361.42857142857144</ele><time>2026-05-02T17:04:28.653Z</time></trkpt><trkpt lat="43.4669841" lon="11.4329756"><ele>361.1428571428571</ele><time>2026-05-02T17:04:29.653Z</time></trkpt><trkpt lat="43.4669242" lon="11.4330127"><ele>360.8571428571429</ele><time>2026-05-02T17:04:30.661Z</time></trkpt><trkpt lat="43.4668601" lon="11.4330529"><ele>360.5714285714286</ele><time>2026-05-02T17:04:31.658Z</time></trkpt><trkpt lat="43.4668014" lon="11.4330856"><ele>360.2857142857143</ele><time>2026-05-02T17:04:32.672Z</time></trkpt><trkpt lat="43.4667406" lon="11.4331217"><ele>360.0</ele><time>2026-05-02T17:04:33.667Z</time></trkpt><trkpt lat="43.4666311" lon="11.4332062"><ele>358.85714285714283</ele><time>2026-05-02T17:04:35.661Z</time></trkpt><trkpt lat="43.4665707" lon="11.4332448"><ele>357.7142857142857</ele><time>2026-05-02T17:04:36.659Z</time></trkpt><trkpt lat="43.4665044" lon="11.4332838"><ele>356.57142857142856</ele><time>2026-05-02T17:04:37.665Z</time></trkpt><trkpt lat="43.4664442" lon="11.4333263"><ele>355.42857142857144</ele><time>2026-05-02T17:04:38.667Z</time></trkpt><trkpt lat="43.4663845" lon="11.4333683"><ele>354.2857142857143</ele><time>2026-05-02T17:04:39.659Z</time></trkpt><trkpt lat="43.4663221" lon="11.4334033"><ele>353.14285714285717</ele><time>2026-05-02T17:04:40.661Z</time></trkpt><trkpt lat="43.4662539" lon="11.4334312"><ele>352.0</ele><time>2026-05-02T17:04:41.663Z</time></trkpt><trkpt lat="43.4661893" lon="11.43344"><ele>351.42857142857144</ele><time>2026-05-02T17:04:42.665Z</time></trkpt><trkpt lat="43.4661194" lon="11.4334338"><ele>350.85714285714283</ele><time>2026-05-02T17:04:43.653Z</time></trkpt><trkpt lat="43.4660494" lon="11.4334333"><ele>350.2857142857143</ele><time>2026-05-02T17:04:44.668Z</time></trkpt><trkpt lat="43.4659805" lon="11.43343"><ele>349.7142857142857</ele><time>2026-05-02T17:04:45.663Z</time></trkpt><trkpt lat="43.465909" lon="11.4334143"><ele>349.14285714285717</ele><time>2026-05-02T17:04:46.667Z</time></trkpt><trkpt lat="43.4658334" lon="11.4333951"><ele>348.57142857142856</ele><time>2026-05-02T17:04:47.657Z</time></trkpt><trkpt lat="43.465754" lon="11.433372"><ele>348.0</ele><time>2026-05-02T17:04:48.668Z</time></trkpt><trkpt lat="43.4656623" lon="11.4333452"><ele>348.0</ele><time>2026-05-02T17:04:49.661Z</time></trkpt><trkpt lat="43.4655702" lon="11.4333173"><ele>348.0</ele><time>2026-05-02T17:04:50.666Z</time></trkpt><trkpt lat="43.465477" lon="11.4332763"><ele>348.0</ele><time>2026-05-02T17:04:51.658Z</time></trkpt><trkpt lat="43.4653888" lon="11.4332115"><ele>348.0</ele><time>2026-05-02T17:04:52.663Z</time></trkpt><trkpt lat="43.4653073" lon="11.433141"><ele>348.0</ele><time>2026-05-02T17:04:53.66Z</time></trkpt><trkpt lat="43.4652247" lon="11.4330893"><ele>348.0</ele><time>2026-05-02T17:04:54.666Z</time></trkpt><trkpt lat="43.4651345" lon="11.4330676"><ele>348.0</ele><time>2026-05-02T17:04:55.663Z</time></trkpt><trkpt lat="43.4650543" lon="11.4330684"><ele>348.0</ele><time>2026-05-02T17:04:56.663Z</time></trkpt><trkpt lat="43.4649439" lon="11.4331095"><ele>348.0</ele><time>2026-05-02T17:04:58.663Z</time></trkpt><trkpt lat="43.4648782" lon="11.433137"><ele>348.0</ele><time>2026-05-02T17:05:00.656Z</time></trkpt><trkpt lat="43.464812" lon="11.4331519"><ele>348.0</ele><time>2026-05-02T17:06:24.661Z</time></trkpt><trkpt lat="43.4647495" lon="11.4331254"><ele>348.0</ele><time>2026-05-02T17:06:25.662Z</time></trkpt><trkpt lat="43.4646839" lon="11.4330689"><ele>348.0</ele><time>2026-05-02T17:06:26.659Z</time></trkpt><trkpt lat="43.4646051" lon="11.4330049"><ele>348.0</ele><time>2026-05-02T17:06:27.661Z</time></trkpt><trkpt lat="43.4645231" lon="11.4329375"><ele>348.0</ele><time>2026-05-02T17:06:28.669Z</time></trkpt><trkpt lat="43.4644449" lon="11.4328637"><ele>348.0</ele><time>2026-05-02T17:06:29.667Z</time></trkpt><trkpt lat="43.4643671" lon="11.4327782"><ele>348.25</ele><time>2026-05-02T17:06:30.676Z</time></trkpt><trkpt lat="43.4642841" lon="11.4326683"><ele>348.5</ele><time>2026-05-02T17:06:31.678Z</time></trkpt><trkpt lat="43.4642061" lon="11.4325294"><ele>348.75</ele><time>2026-05-02T17:06:32.668Z</time></trkpt><trkpt lat="43.4641366" lon="11.432382"><ele>349.0</ele><time>2026-05-02T17:06:33.653Z</time></trkpt><trkpt lat="43.4640771" lon="11.4322382"><ele>350.5</ele><time>2026-05-02T17:06:34.681Z</time></trkpt><trkpt lat="43.4640227" lon="11.4320999"><ele>352.0</ele><time>2026-05-02T17:06:35.663Z</time></trkpt><trkpt lat="43.463968" lon="11.4319611"><ele>353.5</ele><time>2026-05-02T17:06:36.658Z</time></trkpt><trkpt lat="43.4639136" lon="11.4318137"><ele>355.0</ele><time>2026-05-02T17:06:37.667Z</time></trkpt><trkpt lat="43.4638548" lon="11.431661"><ele>355.0</ele><time>2026-05-02T17:06:38.668Z</time></trkpt><trkpt lat="43.4637944" lon="11.4315047"><ele>355.0</ele><time>2026-05-02T17:06:39.682Z</time></trkpt><trkpt lat="43.4637294" lon="11.4313462"><ele>355.0</ele><time>2026-05-02T17:06:40.671Z</time></trkpt><trkpt lat="43.4636648" lon="11.4311912"><ele>355.0</ele><time>2026-05-02T17:06:41.677Z</time></trkpt><trkpt lat="43.4635872" lon="11.4310274"><ele>354.5</ele><time>2026-05-02T17:06:42.658Z</time></trkpt><trkpt lat="43.4634987" lon="11.4308702"><ele>354.0</ele><time>2026-05-02T17:06:43.669Z</time></trkpt><trkpt lat="43.4634095" lon="11.4307248"><ele>353.5</ele><time>2026-05-02T17:06:44.663Z</time></trkpt><trkpt lat="43.4633112" lon="11.4305728"><ele>353.0</ele><time>2026-05-02T17:06:45.654Z</time></trkpt><trkpt lat="43.4632163" lon="11.4304252"><ele>353.0</ele><time>2026-05-02T17:06:46.674Z</time></trkpt><trkpt lat="43.4631231" lon="11.4302781"><ele>353.0</ele><time>2026-05-02T17:06:47.657Z</time></trkpt><trkpt lat="43.4630411" lon="11.4301173"><ele>353.0</ele><time>2026-05-02T17:06:48.66Z</time></trkpt><trkpt lat="43.4629708" lon="11.4299668"><ele>353.0</ele><time>2026-05-02T17:06:49.667Z</time></trkpt><trkpt lat="43.4628921" lon="11.4298335"><ele>351.25</ele><time>2026-05-02T17:06:50.667Z</time></trkpt><trkpt lat="43.4628027" lon="11.4297028"><ele>349.5</ele><time>2026-05-02T17:06:51.678Z</time></trkpt><trkpt lat="43.4627002" lon="11.4295788"><ele>347.75</ele><time>2026-05-02T17:06:52.661Z</time></trkpt><trkpt lat="43.4625985" lon="11.4294573"><ele>346.0</ele><time>2026-05-02T17:06:53.655Z</time></trkpt><trkpt lat="43.462498" lon="11.4293256"><ele>346.0</ele><time>2026-05-02T17:06:54.662Z</time></trkpt><trkpt lat="43.4623899" lon="11.4291843"><ele>346.0</ele><time>2026-05-02T17:06:55.667Z</time></trkpt><trkpt lat="43.4622762" lon="11.4290302"><ele>346.0</ele><time>2026-05-02T17:06:56.669Z</time></trkpt><trkpt lat="43.4621552" lon="11.4288858"><ele>344.66666666666663</ele><time>2026-05-02T17:06:57.663Z</time></trkpt><trkpt lat="43.4620299" lon="11.4287297"><ele>343.3333333333333</ele><time>2026-05-02T17:06:58.673Z</time></trkpt><trkpt lat="43.4618926" lon="11.428569"><ele>342.0</ele><time>2026-05-02T17:06:59.66Z</time></trkpt><trkpt lat="43.4617572" lon="11.4284142"><ele>342.0</ele><time>2026-05-02T17:07:00.655Z</time></trkpt><trkpt lat="43.4616209" lon="11.4282736"><ele>342.0</ele><time>2026-05-02T17:07:01.656Z</time></trkpt><trkpt lat="43.4614875" lon="11.4281432"><ele>342.0</ele><time>2026-05-02T17:07:02.673Z</time></trkpt><trkpt lat="43.4613601" lon="11.4280093"><ele>341.3333333333333</ele><time>2026-05-02T17:07:03.655Z</time></trkpt><trkpt lat="43.4612347" lon="11.4278753"><ele>340.66666666666663</ele><time>2026-05-02T17:07:04.662Z</time></trkpt><trkpt lat="43.4611172" lon="11.4277462"><ele>340.0</ele><time>2026-05-02T17:07:05.667Z</time></trkpt><trkpt lat="43.4609997" lon="11.42762"><ele>340.0</ele><time>2026-05-02T17:07:06.682Z</time></trkpt><trkpt lat="43.4608897" lon="11.4274999"><ele>340.0</ele><time>2026-05-02T17:07:07.665Z</time></trkpt><trkpt lat="43.460779" lon="11.4273838"><ele>340.0</ele><time>2026-05-02T17:07:08.665Z</time></trkpt><trkpt lat="43.4606666" lon="11.4272648"><ele>340.0</ele><time>2026-05-02T17:07:09.666Z</time></trkpt><trkpt lat="43.4605379" lon="11.4271654"><ele>341.0</ele><time>2026-05-02T17:07:10.658Z</time></trkpt><trkpt lat="43.4603908" lon="11.4270791"><ele>342.0</ele><time>2026-05-02T17:07:11.664Z</time></trkpt><trkpt lat="43.460224" lon="11.4270062"><ele>343.0</ele><time>2026-05-02T17:07:12.668Z</time></trkpt><trkpt lat="43.4600475" lon="11.4269302"><ele>343.0</ele><time>2026-05-02T17:07:13.671Z</time></trkpt><trkpt lat="43.4598656" lon="11.4268496"><ele>343.0</ele><time>2026-05-02T17:07:14.662Z</time></trkpt><trkpt lat="43.4596792" lon="11.4267639"><ele>343.0</ele><time>2026-05-02T17:07:15.663Z</time></trkpt><trkpt lat="43.4594887" lon="11.4266751"><ele>341.66666666666663</ele><time>2026-05-02T17:07:16.656Z</time></trkpt><trkpt lat="43.4592967" lon="11.4265857"><ele>340.3333333333333</ele><time>2026-05-02T17:07:17.662Z</time></trkpt><trkpt lat="43.4590973" lon="11.4264964"><ele>339.0</ele><time>2026-05-02T17:07:18.668Z</time></trkpt><trkpt lat="43.4589008" lon="11.4264073"><ele>338.3333333333333</ele><time>2026-05-02T17:07:19.669Z</time></trkpt><trkpt lat="43.4587031" lon="11.4263209"><ele>337.66666666666663</ele><time>2026-05-02T17:07:20.662Z</time></trkpt><trkpt lat="43.4585085" lon="11.4262306"><ele>337.0</ele><time>2026-05-02T17:07:21.664Z</time></trkpt><trkpt lat="43.4583149" lon="11.4261445"><ele>336.66666666666663</ele><time>2026-05-02T17:07:22.662Z</time></trkpt><trkpt lat="43.4581207" lon="11.4260597"><ele>336.3333333333333</ele><time>2026-05-02T17:07:23.66Z</time></trkpt><trkpt lat="43.4579395" lon="11.4259813"><ele>336.0</ele><time>2026-05-02T17:07:24.667Z</time></trkpt><trkpt lat="43.4577581" lon="11.4259007"><ele>336.0</ele><time>2026-05-02T17:07:25.668Z</time></trkpt><trkpt lat="43.4575835" lon="11.4258286"><ele>336.0</ele><time>2026-05-02T17:07:26.666Z</time></trkpt><trkpt lat="43.4574187" lon="11.4257527"><ele>336.0</ele><time>2026-05-02T17:07:27.66Z</time></trkpt><trkpt lat="43.4572497" lon="11.4256841"><ele>338.0</ele><time>2026-05-02T17:07:28.672Z</time></trkpt><trkpt lat="43.4570697" lon="11.4256201"><ele>340.0</ele><time>2026-05-02T17:07:29.66Z</time></trkpt><trkpt lat="43.4568818" lon="11.4255635"><ele>342.0</ele><time>2026-05-02T17:07:30.674Z</time></trkpt><trkpt lat="43.4567042" lon="11.4255264"><ele>342.0</ele><time>2026-05-02T17:07:31.667Z</time></trkpt><trkpt lat="43.4565299" lon="11.4255038"><ele>342.0</ele><time>2026-05-02T17:07:32.674Z</time></trkpt><trkpt lat="43.4563862" lon="11.4254945"><ele>342.0</ele><time>2026-05-02T17:07:33.665Z</time></trkpt><trkpt lat="43.456252" lon="11.4254607"><ele>340.3333333333333</ele><time>2026-05-02T17:07:34.666Z</time></trkpt><trkpt lat="43.4561213" lon="11.4253795"><ele>338.66666666666663</ele><time>2026-05-02T17:07:35.673Z</time></trkpt><trkpt lat="43.4559949" lon="11.4252617"><ele>337.0</ele><time>2026-05-02T17:07:36.67Z</time></trkpt><trkpt lat="43.4558594" lon="11.4251292"><ele>337.0</ele><time>2026-05-02T17:07:37.666Z</time></trkpt><trkpt lat="43.4557298" lon="11.4249881"><ele>337.0</ele><time>2026-05-02T17:07:38.679Z</time></trkpt><trkpt lat="43.4555963" lon="11.4248405"><ele>337.0</ele><time>2026-05-02T17:07:39.669Z</time></trkpt><trkpt lat="43.4554599" lon="11.424696"><ele>335.66666666666663</ele><time>2026-05-02T17:07:40.678Z</time></trkpt><trkpt lat="43.4553175" lon="11.4245545"><ele>334.3333333333333</ele><time>2026-05-02T17:07:41.663Z</time></trkpt><trkpt lat="43.4551802" lon="11.4244182"><ele>333.0</ele><time>2026-05-02T17:07:42.675Z</time></trkpt><trkpt lat="43.4550531" lon="11.4242882"><ele>333.0</ele><time>2026-05-02T17:07:43.671Z</time></trkpt><trkpt lat="43.4549346" lon="11.424174"><ele>333.0</ele><time>2026-05-02T17:07:44.668Z</time></trkpt><trkpt lat="43.4548243" lon="11.4240548"><ele>333.0</ele><time>2026-05-02T17:07:45.66Z</time></trkpt><trkpt lat="43.4547158" lon="11.423938"><ele>333.0</ele><time>2026-05-02T17:07:46.658Z</time></trkpt><trkpt lat="43.4546089" lon="11.4238277"><ele>332.5</ele><time>2026-05-02T17:07:47.673Z</time></trkpt><trkpt lat="43.454511" lon="11.4237266"><ele>332.0</ele><time>2026-05-02T17:07:48.665Z</time></trkpt><trkpt lat="43.4544209" lon="11.4236252"><ele>331.5</ele><time>2026-05-02T17:07:49.667Z</time></trkpt><trkpt lat="43.4543183" lon="11.4235077"><ele>331.0</ele><time>2026-05-02T17:07:50.664Z</time></trkpt><trkpt lat="43.4542068" lon="11.4233449"><ele>331.0</ele><time>2026-05-02T17:07:51.676Z</time></trkpt><trkpt lat="43.4540857" lon="11.4231524"><ele>331.0</ele><time>2026-05-02T17:07:52.664Z</time></trkpt><trkpt lat="43.4539683" lon="11.4229545"><ele>331.0</ele><time>2026-05-02T17:07:53.656Z</time></trkpt><trkpt lat="43.4538344" lon="11.4227454"><ele>329.0</ele><time>2026-05-02T17:07:54.656Z</time></trkpt><trkpt lat="43.4537003" lon="11.4225383"><ele>327.0</ele><time>2026-05-02T17:07:55.66Z</time></trkpt><trkpt lat="43.4535674" lon="11.422345"><ele>325.0</ele><time>2026-05-02T17:07:56.667Z</time></trkpt><trkpt lat="43.4534435" lon="11.4221583"><ele>327.3333333333333</ele><time>2026-05-02T17:07:57.66Z</time></trkpt><trkpt lat="43.4533355" lon="11.421981"><ele>329.6666666666667</ele><time>2026-05-02T17:07:58.663Z</time></trkpt><trkpt lat="43.4532289" lon="11.4218123"><ele>332.0</ele><time>2026-05-02T17:07:59.657Z</time></trkpt><trkpt lat="43.4531251" lon="11.4216682"><ele>332.0</ele><time>2026-05-02T17:08:00.661Z</time></trkpt><trkpt lat="43.4530088" lon="11.421535"><ele>332.0</ele><time>2026-05-02T17:08:01.673Z</time></trkpt><trkpt lat="43.4528764" lon="11.421421"><ele>332.0</ele><time>2026-05-02T17:08:02.665Z</time></trkpt><trkpt lat="43.4527312" lon="11.4213177"><ele>332.75</ele><time>2026-05-02T17:08:03.666Z</time></trkpt><trkpt lat="43.4526067" lon="11.4212071"><ele>333.5</ele><time>2026-05-02T17:08:04.662Z</time></trkpt><trkpt lat="43.4524955" lon="11.4210844"><ele>334.25</ele><time>2026-05-02T17:08:05.666Z</time></trkpt><trkpt lat="43.4523921" lon="11.4209557"><ele>335.0</ele><time>2026-05-02T17:08:06.677Z</time></trkpt><trkpt lat="43.4522903" lon="11.4208119"><ele>335.0</ele><time>2026-05-02T17:08:07.672Z</time></trkpt><trkpt lat="43.4521934" lon="11.4206674"><ele>335.0</ele><time>2026-05-02T17:08:08.657Z</time></trkpt><trkpt lat="43.4520982" lon="11.4205183"><ele>335.0</ele><time>2026-05-02T17:08:09.662Z</time></trkpt><trkpt lat="43.4519976" lon="11.4203687"><ele>335.0</ele><time>2026-05-02T17:08:10.66Z</time></trkpt><trkpt lat="43.4518954" lon="11.4202141"><ele>334.75</ele><time>2026-05-02T17:08:11.667Z</time></trkpt><trkpt lat="43.451801" lon="11.4200585"><ele>334.5</ele><time>2026-05-02T17:08:12.676Z</time></trkpt><trkpt lat="43.4517044" lon="11.4199039"><ele>334.25</ele><time>2026-05-02T17:08:13.667Z</time></trkpt><trkpt lat="43.4516001" lon="11.4197576"><ele>334.0</ele><time>2026-05-02T17:08:14.668Z</time></trkpt><trkpt lat="43.4514874" lon="11.4196155"><ele>334.0</ele><time>2026-05-02T17:08:15.664Z</time></trkpt><trkpt lat="43.4513625" lon="11.419491"><ele>334.0</ele><time>2026-05-02T17:08:16.661Z</time></trkpt><trkpt lat="43.4512459" lon="11.4193822"><ele>334.0</ele><time>2026-05-02T17:08:17.66Z</time></trkpt><trkpt lat="43.4511289" lon="11.419285"><ele>334.0</ele><time>2026-05-02T17:08:18.657Z</time></trkpt><trkpt lat="43.4510018" lon="11.4192016"><ele>332.4</ele><time>2026-05-02T17:08:19.664Z</time></trkpt><trkpt lat="43.4508782" lon="11.41914"><ele>330.79999999999995</ele><time>2026-05-02T17:08:20.652Z</time></trkpt><trkpt lat="43.4507621" lon="11.4190895"><ele>329.20000000000005</ele><time>2026-05-02T17:08:21.669Z</time></trkpt><trkpt lat="43.4506644" lon="11.4190542"><ele>327.6</ele><time>2026-05-02T17:08:22.658Z</time></trkpt><trkpt lat="43.4505754" lon="11.4190254"><ele>326.0</ele><time>2026-05-02T17:08:23.659Z</time></trkpt><trkpt lat="43.4505115" lon="11.4190076"><ele>325.6666666666667</ele><time>2026-05-02T17:08:24.666Z</time></trkpt><trkpt lat="43.450449" lon="11.4189915"><ele>325.33333333333337</ele><time>2026-05-02T17:08:25.663Z</time></trkpt><trkpt lat="43.4503776" lon="11.4189934"><ele>325.0</ele><time>2026-05-02T17:08:26.68Z</time></trkpt><trkpt lat="43.4502949" lon="11.4189939"><ele>324.6666666666667</ele><time>2026-05-02T17:08:27.671Z</time></trkpt><trkpt lat="43.4501954" lon="11.4189866"><ele>324.3333333333333</ele><time>2026-05-02T17:08:28.668Z</time></trkpt><trkpt lat="43.4501074" lon="11.4189711"><ele>324.0</ele><time>2026-05-02T17:08:29.666Z</time></trkpt><trkpt lat="43.4500153" lon="11.4189332"><ele>324.0</ele><time>2026-05-02T17:08:30.668Z</time></trkpt><trkpt lat="43.4499123" lon="11.4188844"><ele>324.0</ele><time>2026-05-02T17:08:31.661Z</time></trkpt><trkpt lat="43.449808" lon="11.418829"><ele>324.0</ele><time>2026-05-02T17:08:32.662Z</time></trkpt><trkpt lat="43.4496943" lon="11.4187685"><ele>324.0</ele><time>2026-05-02T17:08:33.677Z</time></trkpt><trkpt lat="43.4495718" lon="11.4187083"><ele>325.75</ele><time>2026-05-02T17:08:34.671Z</time></trkpt><trkpt lat="43.4494435" lon="11.4186519"><ele>327.5</ele><time>2026-05-02T17:08:35.656Z</time></trkpt><trkpt lat="43.4493089" lon="11.4186086"><ele>329.25</ele><time>2026-05-02T17:08:36.658Z</time></trkpt><trkpt lat="43.4491638" lon="11.4185756"><ele>331.0</ele><time>2026-05-02T17:08:37.663Z</time></trkpt><trkpt lat="43.4490163" lon="11.4185493"><ele>331.0</ele><time>2026-05-02T17:08:38.657Z</time></trkpt><trkpt lat="43.448867" lon="11.4185369"><ele>331.0</ele><time>2026-05-02T17:08:39.675Z</time></trkpt><trkpt lat="43.4487128" lon="11.4185274"><ele>331.0</ele><time>2026-05-02T17:08:40.67Z</time></trkpt><trkpt lat="43.4485606" lon="11.4185115"><ele>331.0</ele><time>2026-05-02T17:08:41.661Z</time></trkpt><trkpt lat="43.4484031" lon="11.4184685"><ele>331.0</ele><time>2026-05-02T17:08:42.659Z</time></trkpt><trkpt lat="43.4482628" lon="11.4183832"><ele>331.0</ele><time>2026-05-02T17:08:43.661Z</time></trkpt><trkpt lat="43.4481184" lon="11.4182739"><ele>331.0</ele><time>2026-05-02T17:08:44.663Z</time></trkpt><trkpt lat="43.4479761" lon="11.4181402"><ele>331.0</ele><time>2026-05-02T17:08:45.658Z</time></trkpt><trkpt lat="43.4478358" lon="11.4179998"><ele>331.0</ele><time>2026-05-02T17:08:46.681Z</time></trkpt><trkpt lat="43.4476846" lon="11.4178808"><ele>333.3333333333333</ele><time>2026-05-02T17:08:47.662Z</time></trkpt><trkpt lat="43.447521" lon="11.4177929"><ele>335.6666666666667</ele><time>2026-05-02T17:08:48.66Z</time></trkpt><trkpt lat="43.4473465" lon="11.4177292"><ele>338.0</ele><time>2026-05-02T17:08:49.66Z</time></trkpt><trkpt lat="43.4471771" lon="11.4176726"><ele>338.6666666666667</ele><time>2026-05-02T17:08:50.665Z</time></trkpt><trkpt lat="43.447006" lon="11.4176289"><ele>339.3333333333333</ele><time>2026-05-02T17:08:51.662Z</time></trkpt><trkpt lat="43.4468362" lon="11.417585"><ele>340.0</ele><time>2026-05-02T17:08:52.653Z</time></trkpt><trkpt lat="43.4466708" lon="11.4175532"><ele>340.0</ele><time>2026-05-02T17:08:53.651Z</time></trkpt><trkpt lat="43.446516" lon="11.4175208"><ele>340.0</ele><time>2026-05-02T17:08:54.659Z</time></trkpt><trkpt lat="43.446375" lon="11.4174949"><ele>340.0</ele><time>2026-05-02T17:08:55.655Z</time></trkpt><trkpt lat="43.4462481" lon="11.417489"><ele>340.0</ele><time>2026-05-02T17:08:56.661Z</time></trkpt><trkpt lat="43.4461295" lon="11.4175128"><ele>343.0</ele><time>2026-05-02T17:08:57.661Z</time></trkpt><trkpt lat="43.4460268" lon="11.4175748"><ele>346.0</ele><time>2026-05-02T17:08:58.66Z</time></trkpt><trkpt lat="43.4459382" lon="11.4176788"><ele>349.0</ele><time>2026-05-02T17:08:59.662Z</time></trkpt><trkpt lat="43.4458654" lon="11.417818"><ele>352.0</ele><time>2026-05-02T17:09:00.648Z</time></trkpt><trkpt lat="43.4458033" lon="11.4179774"><ele>348.66666666666663</ele><time>2026-05-02T17:09:01.667Z</time></trkpt><trkpt lat="43.4457507" lon="11.4181638"><ele>345.3333333333333</ele><time>2026-05-02T17:09:02.646Z</time></trkpt><trkpt lat="43.4457076" lon="11.4183702"><ele>342.0</ele><time>2026-05-02T17:09:03.672Z</time></trkpt><trkpt lat="43.445676" lon="11.4185943"><ele>339.3333333333333</ele><time>2026-05-02T17:09:04.661Z</time></trkpt><trkpt lat="43.4456597" lon="11.4188777"><ele>336.66666666666663</ele><time>2026-05-02T17:09:05.66Z</time></trkpt><trkpt lat="43.4456518" lon="11.4191481"><ele>334.0</ele><time>2026-05-02T17:09:06.67Z</time></trkpt><trkpt lat="43.4456315" lon="11.4193524"><ele>334.0</ele><time>2026-05-02T17:09:07.662Z</time></trkpt><trkpt lat="43.4455989" lon="11.4195393"><ele>334.0</ele><time>2026-05-02T17:09:08.665Z</time></trkpt><trkpt lat="43.4455318" lon="11.4196846"><ele>334.0</ele><time>2026-05-02T17:09:09.666Z</time></trkpt><trkpt lat="43.4454355" lon="11.4197628"><ele>334.0</ele><time>2026-05-02T17:09:10.669Z</time></trkpt><trkpt lat="43.445294" lon="11.4198208"><ele>335.66666666666663</ele><time>2026-05-02T17:09:11.664Z</time></trkpt><trkpt lat="43.4451351" lon="11.4199153"><ele>337.3333333333333</ele><time>2026-05-02T17:09:12.661Z</time></trkpt><trkpt lat="43.4449596" lon="11.4200188"><ele>339.0</ele><time>2026-05-02T17:09:13.666Z</time></trkpt><trkpt lat="43.4447773" lon="11.4201402"><ele>338.3333333333333</ele><time>2026-05-02T17:09:14.671Z</time></trkpt><trkpt lat="43.4446219" lon="11.4202829"><ele>337.66666666666663</ele><time>2026-05-02T17:09:15.671Z</time></trkpt><trkpt lat="43.4445025" lon="11.4204497"><ele>337.0</ele><time>2026-05-02T17:09:16.665Z</time></trkpt><trkpt lat="43.4443958" lon="11.4206167"><ele>337.0</ele><time>2026-05-02T17:09:17.656Z</time></trkpt><trkpt lat="43.4442942" lon="11.4207695"><ele>337.0</ele><time>2026-05-02T17:09:18.684Z</time></trkpt><trkpt lat="43.444199" lon="11.4208923"><ele>337.0</ele><time>2026-05-02T17:09:19.667Z</time></trkpt><trkpt lat="43.4440833" lon="11.4209824"><ele>337.0</ele><time>2026-05-02T17:09:20.664Z</time></trkpt><trkpt lat="43.4439674" lon="11.421053"><ele>337.0</ele><time>2026-05-02T17:09:21.658Z</time></trkpt><trkpt lat="43.4438667" lon="11.4211187"><ele>337.0</ele><time>2026-05-02T17:09:22.665Z</time></trkpt><trkpt lat="43.4437835" lon="11.4211679"><ele>337.0</ele><time>2026-05-02T17:09:23.67Z</time></trkpt><trkpt lat="43.4436879" lon="11.4212079"><ele>337.0</ele><time>2026-05-02T17:09:25.657Z</time></trkpt><trkpt lat="43.4437124" lon="11.421248"><ele>337.0</ele><time>2026-05-02T17:09:47.67Z</time></trkpt><trkpt lat="43.4438017" lon="11.4211813"><ele>337.0</ele><time>2026-05-02T17:09:48.687Z</time></trkpt><trkpt lat="43.4439185" lon="11.4210808"><ele>337.0</ele><time>2026-05-02T17:09:49.662Z</time></trkpt><trkpt lat="43.4440542" lon="11.4209752"><ele>337.0</ele><time>2026-05-02T17:09:50.667Z</time></trkpt><trkpt lat="43.4442144" lon="11.420826"><ele>337.0</ele><time>2026-05-02T17:09:51.661Z</time></trkpt><trkpt lat="43.4443731" lon="11.420618"><ele>337.66666666666663</ele><time>2026-05-02T17:09:52.67Z</time></trkpt><trkpt lat="43.444503" lon="11.4204226"><ele>338.3333333333333</ele><time>2026-05-02T17:09:53.665Z</time></trkpt><trkpt lat="43.4446278" lon="11.4202515"><ele>339.0</ele><time>2026-05-02T17:09:54.665Z</time></trkpt><trkpt lat="43.4447566" lon="11.4201347"><ele>339.0</ele><time>2026-05-02T17:09:55.656Z</time></trkpt><trkpt lat="43.4449099" lon="11.4200412"><ele>339.0</ele><time>2026-05-02T17:09:56.668Z</time></trkpt><trkpt lat="43.4450688" lon="11.419962"><ele>339.0</ele><time>2026-05-02T17:09:57.669Z</time></trkpt><trkpt lat="43.4452297" lon="11.419873"><ele>339.0</ele><time>2026-05-02T17:09:58.677Z</time></trkpt><trkpt lat="43.4453711" lon="11.4197971"><ele>339.0</ele><time>2026-05-02T17:09:59.668Z</time></trkpt><trkpt lat="43.4454951" lon="11.4197317"><ele>339.0</ele><time>2026-05-02T17:10:00.665Z</time></trkpt><trkpt lat="43.4455881" lon="11.4196411"><ele>339.0</ele><time>2026-05-02T17:10:01.672Z</time></trkpt><trkpt lat="43.4456411" lon="11.4195097"><ele>339.75</ele><time>2026-05-02T17:10:02.649Z</time></trkpt><trkpt lat="43.4456569" lon="11.4193496"><ele>340.5</ele><time>2026-05-02T17:10:03.659Z</time></trkpt><trkpt lat="43.445658" lon="11.4191552"><ele>341.25</ele><time>2026-05-02T17:10:04.652Z</time></trkpt><trkpt lat="43.4456564" lon="11.4189478"><ele>342.0</ele><time>2026-05-02T17:10:05.661Z</time></trkpt><trkpt lat="43.445667" lon="11.4187235"><ele>342.0</ele><time>2026-05-02T17:10:06.667Z</time></trkpt><trkpt lat="43.4456879" lon="11.4184892"><ele>342.0</ele><time>2026-05-02T17:10:07.67Z</time></trkpt><trkpt lat="43.4457289" lon="11.4182515"><ele>342.0</ele><time>2026-05-02T17:10:08.674Z</time></trkpt><trkpt lat="43.4457924" lon="11.418036"><ele>344.5</ele><time>2026-05-02T17:10:09.665Z</time></trkpt><trkpt lat="43.4458585" lon="11.4178581"><ele>347.0</ele><time>2026-05-02T17:10:10.658Z</time></trkpt><trkpt lat="43.4459292" lon="11.4177059"><ele>349.5</ele><time>2026-05-02T17:10:11.688Z</time></trkpt><trkpt lat="43.4460112" lon="11.4175646"><ele>352.0</ele><time>2026-05-02T17:10:12.669Z</time></trkpt><trkpt lat="43.4461333" lon="11.4174775"><ele>352.0</ele><time>2026-05-02T17:10:13.664Z</time></trkpt><trkpt lat="43.446274" lon="11.4174752"><ele>352.0</ele><time>2026-05-02T17:10:14.667Z</time></trkpt><trkpt lat="43.4464246" lon="11.4174838"><ele>352.0</ele><time>2026-05-02T17:10:15.675Z</time></trkpt><trkpt lat="43.4465971" lon="11.4175268"><ele>348.0</ele><time>2026-05-02T17:10:16.663Z</time></trkpt><trkpt lat="43.446782" lon="11.4175787"><ele>344.0</ele><time>2026-05-02T17:10:17.66Z</time></trkpt><trkpt lat="43.4469685" lon="11.4176379"><ele>340.0</ele><time>2026-05-02T17:10:18.668Z</time></trkpt><trkpt lat="43.4471588" lon="11.4176976"><ele>339.3333333333333</ele><time>2026-05-02T17:10:19.678Z</time></trkpt><trkpt lat="43.4473455" lon="11.4177485"><ele>338.6666666666667</ele><time>2026-05-02T17:10:20.659Z</time></trkpt><trkpt lat="43.4475184" lon="11.4178058"><ele>338.0</ele><time>2026-05-02T17:10:21.665Z</time></trkpt><trkpt lat="43.447679" lon="11.4178842"><ele>335.6666666666667</ele><time>2026-05-02T17:10:22.671Z</time></trkpt><trkpt lat="43.4478312" lon="11.4179996"><ele>333.3333333333333</ele><time>2026-05-02T17:10:23.68Z</time></trkpt><trkpt lat="43.4479687" lon="11.4181437"><ele>331.0</ele><time>2026-05-02T17:10:24.667Z</time></trkpt><trkpt lat="43.4481122" lon="11.418292"><ele>331.0</ele><time>2026-05-02T17:10:25.667Z</time></trkpt><trkpt lat="43.4482559" lon="11.4184205"><ele>331.0</ele><time>2026-05-02T17:10:26.664Z</time></trkpt><trkpt lat="43.4483973" lon="11.418505"><ele>331.0</ele><time>2026-05-02T17:10:27.667Z</time></trkpt><trkpt lat="43.4485461" lon="11.4185409"><ele>331.0</ele><time>2026-05-02T17:10:28.686Z</time></trkpt><trkpt lat="43.4487054" lon="11.4185636"><ele>331.0</ele><time>2026-05-02T17:10:29.668Z</time></trkpt><trkpt lat="43.4488596" lon="11.4185772"><ele>331.0</ele><time>2026-05-02T17:10:30.666Z</time></trkpt><trkpt lat="43.4490172" lon="11.4185941"><ele>331.0</ele><time>2026-05-02T17:10:31.667Z</time></trkpt><trkpt lat="43.4491808" lon="11.4186213"><ele>331.0</ele><time>2026-05-02T17:10:32.665Z</time></trkpt><trkpt lat="43.4493472" lon="11.418668"><ele>331.0</ele><time>2026-05-02T17:10:33.67Z</time></trkpt><trkpt lat="43.4495095" lon="11.4187185"><ele>330.0</ele><time>2026-05-02T17:10:34.673Z</time></trkpt><trkpt lat="43.4496754" lon="11.4187917"><ele>329.0</ele><time>2026-05-02T17:10:35.658Z</time></trkpt><trkpt lat="43.4498453" lon="11.4188657"><ele>328.0</ele><time>2026-05-02T17:10:36.663Z</time></trkpt><trkpt lat="43.4499969" lon="11.4189363"><ele>326.66666666666663</ele><time>2026-05-02T17:10:37.662Z</time></trkpt><trkpt lat="43.4501586" lon="11.4189887"><ele>325.3333333333333</ele><time>2026-05-02T17:10:38.662Z</time></trkpt><trkpt lat="43.4503077" lon="11.4190149"><ele>324.0</ele><time>2026-05-02T17:10:39.667Z</time></trkpt><trkpt lat="43.4504475" lon="11.4190075"><ele>324.6666666666667</ele><time>2026-05-02T17:10:40.668Z</time></trkpt><trkpt lat="43.4505935" lon="11.4189813"><ele>325.33333333333337</ele><time>2026-05-02T17:10:41.676Z</time></trkpt><trkpt lat="43.4507441" lon="11.4189287"><ele>326.0</ele><time>2026-05-02T17:10:42.669Z</time></trkpt><trkpt lat="43.4509085" lon="11.4188896"><ele>326.0</ele><time>2026-05-02T17:10:43.666Z</time></trkpt><trkpt lat="43.4510887" lon="11.4188502"><ele>326.0</ele><time>2026-05-02T17:10:44.675Z</time></trkpt><trkpt lat="43.4512871" lon="11.418817"><ele>326.0</ele><time>2026-05-02T17:10:45.67Z</time></trkpt><trkpt lat="43.4514954" lon="11.4187799"><ele>327.0</ele><time>2026-05-02T17:10:46.659Z</time></trkpt><trkpt lat="43.4516952" lon="11.418738"><ele>328.0</ele><time>2026-05-02T17:10:47.662Z</time></trkpt><trkpt lat="43.4518886" lon="11.4187161"><ele>329.0</ele><time>2026-05-02T17:10:48.669Z</time></trkpt><trkpt lat="43.4520745" lon="11.4186946"><ele>329.6666666666667</ele><time>2026-05-02T17:10:49.661Z</time></trkpt><trkpt lat="43.4522641" lon="11.4186797"><ele>330.3333333333333</ele><time>2026-05-02T17:10:50.663Z</time></trkpt><trkpt lat="43.4524579" lon="11.4186712"><ele>331.0</ele><time>2026-05-02T17:10:51.667Z</time></trkpt><trkpt lat="43.4526556" lon="11.4186643"><ele>331.0</ele><time>2026-05-02T17:10:52.652Z</time></trkpt><trkpt lat="43.4528617" lon="11.4186655"><ele>331.0</ele><time>2026-05-02T17:10:53.666Z</time></trkpt><trkpt lat="43.4530637" lon="11.4186613"><ele>331.0</ele><time>2026-05-02T17:10:54.663Z</time></trkpt><trkpt lat="43.4532635" lon="11.4186551"><ele>331.3333333333333</ele><time>2026-05-02T17:10:55.665Z</time></trkpt><trkpt lat="43.4534493" lon="11.4186743"><ele>331.6666666666667</ele><time>2026-05-02T17:10:56.656Z</time></trkpt><trkpt lat="43.4536225" lon="11.4187156"><ele>332.0</ele><time>2026-05-02T17:10:57.663Z</time></trkpt><trkpt lat="43.4537806" lon="11.41879"><ele>335.0</ele><time>2026-05-02T17:10:58.669Z</time></trkpt><trkpt lat="43.4539235" lon="11.4189023"><ele>338.0</ele><time>2026-05-02T17:10:59.655Z</time></trkpt><trkpt lat="43.4540672" lon="11.4190364"><ele>341.0</ele><time>2026-05-02T17:11:00.659Z</time></trkpt><trkpt lat="43.4542183" lon="11.4191787"><ele>341.0</ele><time>2026-05-02T17:11:01.672Z</time></trkpt><trkpt lat="43.4543695" lon="11.4193221"><ele>341.0</ele><time>2026-05-02T17:11:02.664Z</time></trkpt><trkpt lat="43.4545098" lon="11.4194462"><ele>341.0</ele><time>2026-05-02T17:11:03.66Z</time></trkpt><trkpt lat="43.4546382" lon="11.4195509"><ele>339.0</ele><time>2026-05-02T17:11:04.664Z</time></trkpt><trkpt lat="43.454778" lon="11.4196444"><ele>337.0</ele><time>2026-05-02T17:11:05.667Z</time></trkpt><trkpt lat="43.4549381" lon="11.4197085"><ele>335.0</ele><time>2026-05-02T17:11:06.665Z</time></trkpt><trkpt lat="43.455107" lon="11.4197562"><ele>338.0</ele><time>2026-05-02T17:11:07.66Z</time></trkpt><trkpt lat="43.4552781" lon="11.4197991"><ele>341.0</ele><time>2026-05-02T17:11:08.66Z</time></trkpt><trkpt lat="43.4554424" lon="11.4198068"><ele>344.0</ele><time>2026-05-02T17:11:09.654Z</time></trkpt><trkpt lat="43.4556004" lon="11.4197913"><ele>344.0</ele><time>2026-05-02T17:11:10.657Z</time></trkpt><trkpt lat="43.455767" lon="11.4197475"><ele>344.0</ele><time>2026-05-02T17:11:11.663Z</time></trkpt><trkpt lat="43.4559341" lon="11.419682"><ele>344.0</ele><time>2026-05-02T17:11:12.665Z</time></trkpt><trkpt lat="43.4560986" lon="11.4196058"><ele>342.6666666666667</ele><time>2026-05-02T17:11:13.66Z</time></trkpt><trkpt lat="43.4562524" lon="11.4195255"><ele>341.3333333333333</ele><time>2026-05-02T17:11:14.656Z</time></trkpt><trkpt lat="43.4563997" lon="11.4194456"><ele>340.0</ele><time>2026-05-02T17:11:15.666Z</time></trkpt><trkpt lat="43.4565368" lon="11.4193271"><ele>340.0</ele><time>2026-05-02T17:11:16.662Z</time></trkpt><trkpt lat="43.4566692" lon="11.419166"><ele>340.0</ele><time>2026-05-02T17:11:17.67Z</time></trkpt><trkpt lat="43.4567985" lon="11.4190056"><ele>340.0</ele><time>2026-05-02T17:11:18.657Z</time></trkpt><trkpt lat="43.4569384" lon="11.4188486"><ele>338.66666666666663</ele><time>2026-05-02T17:11:19.655Z</time></trkpt><trkpt lat="43.4570744" lon="11.4186812"><ele>337.3333333333333</ele><time>2026-05-02T17:11:20.66Z</time></trkpt><trkpt lat="43.4571839" lon="11.4185161"><ele>336.0</ele><time>2026-05-02T17:11:21.669Z</time></trkpt><trkpt lat="43.4572539" lon="11.4183368"><ele>337.75</ele><time>2026-05-02T17:11:22.68Z</time></trkpt><trkpt lat="43.4572935" lon="11.4181492"><ele>339.5</ele><time>2026-05-02T17:11:23.658Z</time></trkpt><trkpt lat="43.4573151" lon="11.4179512"><ele>341.25</ele><time>2026-05-02T17:11:24.666Z</time></trkpt><trkpt lat="43.4573248" lon="11.4177672"><ele>343.0</ele><time>2026-05-02T17:11:25.674Z</time></trkpt><trkpt lat="43.457333" lon="11.4175756"><ele>343.0</ele><time>2026-05-02T17:11:26.662Z</time></trkpt><trkpt lat="43.4573824" lon="11.4173652"><ele>343.0</ele><time>2026-05-02T17:11:27.672Z</time></trkpt><trkpt lat="43.4574546" lon="11.4171512"><ele>343.0</ele><time>2026-05-02T17:11:28.678Z</time></trkpt><trkpt lat="43.4575383" lon="11.416959"><ele>342.0</ele><time>2026-05-02T17:11:29.667Z</time></trkpt><trkpt lat="43.4576398" lon="11.4167887"><ele>341.0</ele><time>2026-05-02T17:11:30.673Z</time></trkpt><trkpt lat="43.4577512" lon="11.4166433"><ele>340.0</ele><time>2026-05-02T17:11:31.678Z</time></trkpt><trkpt lat="43.4578839" lon="11.4165146"><ele>340.3333333333333</ele><time>2026-05-02T17:11:32.656Z</time></trkpt><trkpt lat="43.4580495" lon="11.4164068"><ele>340.6666666666667</ele><time>2026-05-02T17:11:33.66Z</time></trkpt><trkpt lat="43.4582251" lon="11.4163117"><ele>341.0</ele><time>2026-05-02T17:11:34.669Z</time></trkpt><trkpt lat="43.4584076" lon="11.4162382"><ele>341.0</ele><time>2026-05-02T17:11:35.664Z</time></trkpt><trkpt lat="43.4585994" lon="11.4161579"><ele>341.0</ele><time>2026-05-02T17:11:36.67Z</time></trkpt><trkpt lat="43.4587926" lon="11.4160722"><ele>341.0</ele><time>2026-05-02T17:11:37.664Z</time></trkpt><trkpt lat="43.4589945" lon="11.4159513"><ele>344.0</ele><time>2026-05-02T17:11:38.66Z</time></trkpt><trkpt lat="43.4591933" lon="11.4158116"><ele>347.0</ele><time>2026-05-02T17:11:39.655Z</time></trkpt><trkpt lat="43.459395" lon="11.4156656"><ele>347.0</ele><time>2026-05-02T17:11:40.67Z</time></trkpt><trkpt lat="43.4595993" lon="11.4155184"><ele>347.0</ele><time>2026-05-02T17:11:41.667Z</time></trkpt><trkpt lat="43.45979" lon="11.4153816"><ele>347.0</ele><time>2026-05-02T17:11:42.671Z</time></trkpt><trkpt lat="43.4599716" lon="11.4152377"><ele>347.33333333333337</ele><time>2026-05-02T17:11:43.664Z</time></trkpt><trkpt lat="43.4601485" lon="11.4151117"><ele>347.6666666666667</ele><time>2026-05-02T17:11:44.659Z</time></trkpt><trkpt lat="43.4603198" lon="11.4149904"><ele>348.0</ele><time>2026-05-02T17:11:45.661Z</time></trkpt><trkpt lat="43.4604834" lon="11.4148937"><ele>348.0</ele><time>2026-05-02T17:11:46.653Z</time></trkpt><trkpt lat="43.4606384" lon="11.4148086"><ele>348.0</ele><time>2026-05-02T17:11:47.66Z</time></trkpt><trkpt lat="43.460793" lon="11.4147076"><ele>348.0</ele><time>2026-05-02T17:11:48.674Z</time></trkpt><trkpt lat="43.4609289" lon="11.4145764"><ele>348.0</ele><time>2026-05-02T17:11:49.663Z</time></trkpt><trkpt lat="43.4610601" lon="11.4144171"><ele>348.0</ele><time>2026-05-02T17:11:50.66Z</time></trkpt><trkpt lat="43.4611766" lon="11.4142552"><ele>348.0</ele><time>2026-05-02T17:11:51.661Z</time></trkpt><trkpt lat="43.4612974" lon="11.4141118"><ele>348.3333333333333</ele><time>2026-05-02T17:11:52.659Z</time></trkpt><trkpt lat="43.4614227" lon="11.4139759"><ele>348.66666666666663</ele><time>2026-05-02T17:11:53.666Z</time></trkpt><trkpt lat="43.4615531" lon="11.4138565"><ele>349.0</ele><time>2026-05-02T17:11:54.673Z</time></trkpt><trkpt lat="43.4617037" lon="11.4137743"><ele>349.0</ele><time>2026-05-02T17:11:55.658Z</time></trkpt><trkpt lat="43.4618655" lon="11.4137254"><ele>349.0</ele><time>2026-05-02T17:11:56.658Z</time></trkpt><trkpt lat="43.4620241" lon="11.413654"><ele>349.0</ele><time>2026-05-02T17:11:57.661Z</time></trkpt><trkpt lat="43.4621699" lon="11.4135485"><ele>350.3333333333333</ele><time>2026-05-02T17:11:58.66Z</time></trkpt><trkpt lat="43.4622911" lon="11.4134224"><ele>351.6666666666667</ele><time>2026-05-02T17:11:59.667Z</time></trkpt><trkpt lat="43.4623985" lon="11.4132594"><ele>353.0</ele><time>2026-05-02T17:12:00.657Z</time></trkpt><trkpt lat="43.4624965" lon="11.4130817"><ele>352.6666666666667</ele><time>2026-05-02T17:12:01.664Z</time></trkpt><trkpt lat="43.4626069" lon="11.4128906"><ele>352.3333333333333</ele><time>2026-05-02T17:12:02.664Z</time></trkpt><trkpt lat="43.4627283" lon="11.4126828"><ele>352.0</ele><time>2026-05-02T17:12:03.662Z</time></trkpt><trkpt lat="43.4628389" lon="11.4124788"><ele>353.3333333333333</ele><time>2026-05-02T17:12:04.66Z</time></trkpt><trkpt lat="43.4629536" lon="11.4122635"><ele>354.6666666666667</ele><time>2026-05-02T17:12:05.665Z</time></trkpt><trkpt lat="43.4630695" lon="11.4120506"><ele>356.0</ele><time>2026-05-02T17:12:06.668Z</time></trkpt><trkpt lat="43.4631861" lon="11.4118338"><ele>356.0</ele><time>2026-05-02T17:12:07.667Z</time></trkpt><trkpt lat="43.4632983" lon="11.4116239"><ele>356.0</ele><time>2026-05-02T17:12:08.658Z</time></trkpt><trkpt lat="43.4634092" lon="11.4114236"><ele>356.0</ele><time>2026-05-02T17:12:09.666Z</time></trkpt><trkpt lat="43.4635197" lon="11.4112246"><ele>355.6666666666667</ele><time>2026-05-02T17:12:10.68Z</time></trkpt><trkpt lat="43.4636261" lon="11.411028"><ele>355.3333333333333</ele><time>2026-05-02T17:12:11.66Z</time></trkpt><trkpt lat="43.463734" lon="11.4108367"><ele>355.0</ele><time>2026-05-02T17:12:12.664Z</time></trkpt><trkpt lat="43.4638365" lon="11.4106455"><ele>356.66666666666663</ele><time>2026-05-02T17:12:13.668Z</time></trkpt><trkpt lat="43.4639269" lon="11.4104547"><ele>358.3333333333333</ele><time>2026-05-02T17:12:14.656Z</time></trkpt><trkpt lat="43.4640001" lon="11.4102654"><ele>360.0</ele><time>2026-05-02T17:12:15.666Z</time></trkpt><trkpt lat="43.4640469" lon="11.410087"><ele>360.0</ele><time>2026-05-02T17:12:16.662Z</time></trkpt><trkpt lat="43.4640833" lon="11.4099083"><ele>360.0</ele><time>2026-05-02T17:12:17.669Z</time></trkpt><trkpt lat="43.4641108" lon="11.4097262"><ele>360.0</ele><time>2026-05-02T17:12:18.681Z</time></trkpt><trkpt lat="43.4641394" lon="11.4095428"><ele>360.0</ele><time>2026-05-02T17:12:19.664Z</time></trkpt><trkpt lat="43.4641593" lon="11.4093583"><ele>359.0</ele><time>2026-05-02T17:12:20.659Z</time></trkpt><trkpt lat="43.4641885" lon="11.4091806"><ele>358.0</ele><time>2026-05-02T17:12:21.673Z</time></trkpt><trkpt lat="43.4642164" lon="11.4090012"><ele>357.0</ele><time>2026-05-02T17:12:22.657Z</time></trkpt><trkpt lat="43.4642533" lon="11.4088259"><ele>356.0</ele><time>2026-05-02T17:12:23.663Z</time></trkpt><trkpt lat="43.4642969" lon="11.4086538"><ele>355.75</ele><time>2026-05-02T17:12:24.669Z</time></trkpt><trkpt lat="43.46437" lon="11.4084976"><ele>355.5</ele><time>2026-05-02T17:12:25.665Z</time></trkpt><trkpt lat="43.4644631" lon="11.4083546"><ele>355.25</ele><time>2026-05-02T17:12:26.666Z</time></trkpt><trkpt lat="43.4645762" lon="11.4082359"><ele>355.0</ele><time>2026-05-02T17:12:27.658Z</time></trkpt><trkpt lat="43.4646935" lon="11.4081539"><ele>355.5</ele><time>2026-05-02T17:12:28.67Z</time></trkpt><trkpt lat="43.464819" lon="11.4080826"><ele>356.0</ele><time>2026-05-02T17:12:29.665Z</time></trkpt><trkpt lat="43.464948" lon="11.4080188"><ele>356.5</ele><time>2026-05-02T17:12:30.662Z</time></trkpt><trkpt lat="43.4650717" lon="11.4079382"><ele>357.0</ele><time>2026-05-02T17:12:31.664Z</time></trkpt><trkpt lat="43.4651809" lon="11.4078263"><ele>357.0</ele><time>2026-05-02T17:12:32.672Z</time></trkpt><trkpt lat="43.4652769" lon="11.4076742"><ele>357.0</ele><time>2026-05-02T17:12:33.664Z</time></trkpt><trkpt lat="43.4653487" lon="11.4075022"><ele>357.0</ele><time>2026-05-02T17:12:34.666Z</time></trkpt><trkpt lat="43.4654255" lon="11.4073261"><ele>357.0</ele><time>2026-05-02T17:12:35.66Z</time></trkpt><trkpt lat="43.4655038" lon="11.4071434"><ele>358.0</ele><time>2026-05-02T17:12:36.665Z</time></trkpt><trkpt lat="43.465586" lon="11.4069478"><ele>359.0</ele><time>2026-05-02T17:12:37.671Z</time></trkpt><trkpt lat="43.465677" lon="11.4067537"><ele>360.0</ele><time>2026-05-02T17:12:38.667Z</time></trkpt><trkpt lat="43.4657718" lon="11.4065552"><ele>360.0</ele><time>2026-05-02T17:12:39.663Z</time></trkpt><trkpt lat="43.4658645" lon="11.4063534"><ele>360.0</ele><time>2026-05-02T17:12:40.659Z</time></trkpt><trkpt lat="43.465965" lon="11.4061433"><ele>360.0</ele><time>2026-05-02T17:12:41.656Z</time></trkpt><trkpt lat="43.4660851" lon="11.4059493"><ele>360.3333333333333</ele><time>2026-05-02T17:12:42.668Z</time></trkpt><trkpt lat="43.4662242" lon="11.4057672"><ele>360.66666666666663</ele><time>2026-05-02T17:12:43.671Z</time></trkpt><trkpt lat="43.4663666" lon="11.4055757"><ele>361.0</ele><time>2026-05-02T17:12:44.661Z</time></trkpt><trkpt lat="43.4665052" lon="11.405376"><ele>363.0</ele><time>2026-05-02T17:12:45.658Z</time></trkpt><trkpt lat="43.4666433" lon="11.4051714"><ele>365.0</ele><time>2026-05-02T17:12:46.66Z</time></trkpt><trkpt lat="43.4667818" lon="11.4049629"><ele>367.0</ele><time>2026-05-02T17:12:47.663Z</time></trkpt><trkpt lat="43.4669267" lon="11.4047618"><ele>366.66666666666663</ele><time>2026-05-02T17:12:48.669Z</time></trkpt><trkpt lat="43.4670736" lon="11.4045581"><ele>366.3333333333333</ele><time>2026-05-02T17:12:49.67Z</time></trkpt><trkpt lat="43.467222" lon="11.4043459"><ele>366.0</ele><time>2026-05-02T17:12:50.664Z</time></trkpt><trkpt lat="43.4673701" lon="11.4041264"><ele>367.0</ele><time>2026-05-02T17:12:51.672Z</time></trkpt><trkpt lat="43.4675133" lon="11.4039078"><ele>368.0</ele><time>2026-05-02T17:12:52.666Z</time></trkpt><trkpt lat="43.4676651" lon="11.4036873"><ele>369.0</ele><time>2026-05-02T17:12:53.663Z</time></trkpt><trkpt lat="43.4678174" lon="11.4034687"><ele>370.6666666666667</ele><time>2026-05-02T17:12:54.666Z</time></trkpt><trkpt lat="43.4679677" lon="11.4032525"><ele>372.33333333333337</ele><time>2026-05-02T17:12:55.66Z</time></trkpt><trkpt lat="43.4681242" lon="11.4030309"><ele>374.0</ele><time>2026-05-02T17:12:56.666Z</time></trkpt><trkpt lat="43.4682714" lon="11.4028207"><ele>374.0</ele><time>2026-05-02T17:12:57.658Z</time></trkpt><trkpt lat="43.4684138" lon="11.4026239"><ele>374.0</ele><time>2026-05-02T17:12:58.674Z</time></trkpt><trkpt lat="43.4685515" lon="11.4024635"><ele>374.0</ele><time>2026-05-02T17:12:59.664Z</time></trkpt><trkpt lat="43.4687009" lon="11.402335"><ele>374.6666666666667</ele><time>2026-05-02T17:13:00.655Z</time></trkpt><trkpt lat="43.4688664" lon="11.402247"><ele>375.3333333333333</ele><time>2026-05-02T17:13:01.672Z</time></trkpt><trkpt lat="43.4690492" lon="11.4021953"><ele>376.0</ele><time>2026-05-02T17:13:02.664Z</time></trkpt><trkpt lat="43.4692359" lon="11.4021517"><ele>376.0</ele><time>2026-05-02T17:13:03.663Z</time></trkpt><trkpt lat="43.4694273" lon="11.4020853"><ele>376.0</ele><time>2026-05-02T17:13:04.669Z</time></trkpt><trkpt lat="43.4696114" lon="11.4019704"><ele>376.0</ele><time>2026-05-02T17:13:05.655Z</time></trkpt><trkpt lat="43.4697785" lon="11.4018225"><ele>378.66666666666663</ele><time>2026-05-02T17:13:06.654Z</time></trkpt><trkpt lat="43.4699489" lon="11.4016775"><ele>381.3333333333333</ele><time>2026-05-02T17:13:07.663Z</time></trkpt><trkpt lat="43.4701157" lon="11.4015311"><ele>384.0</ele><time>2026-05-02T17:13:08.662Z</time></trkpt><trkpt lat="43.470286" lon="11.4013926"><ele>384.0</ele><time>2026-05-02T17:13:09.651Z</time></trkpt><trkpt lat="43.4704603" lon="11.4012787"><ele>384.0</ele><time>2026-05-02T17:13:10.66Z</time></trkpt><trkpt lat="43.4706214" lon="11.401177"><ele>384.0</ele><time>2026-05-02T17:13:11.646Z</time></trkpt><trkpt lat="43.4707665" lon="11.4010666"><ele>384.0</ele><time>2026-05-02T17:13:12.663Z</time></trkpt><trkpt lat="43.4708984" lon="11.4009395"><ele>384.0</ele><time>2026-05-02T17:13:13.655Z</time></trkpt><trkpt lat="43.4710158" lon="11.400795"><ele>384.0</ele><time>2026-05-02T17:13:14.654Z</time></trkpt><trkpt lat="43.4711233" lon="11.4006269"><ele>382.0</ele><time>2026-05-02T17:13:15.663Z</time></trkpt><trkpt lat="43.4712147" lon="11.400435"><ele>380.0</ele><time>2026-05-02T17:13:16.666Z</time></trkpt><trkpt lat="43.471295" lon="11.4002374"><ele>378.0</ele><time>2026-05-02T17:13:17.665Z</time></trkpt><trkpt lat="43.4713727" lon="11.4000325"><ele>381.0</ele><time>2026-05-02T17:13:18.657Z</time></trkpt><trkpt lat="43.4714594" lon="11.3998166"><ele>384.0</ele><time>2026-05-02T17:13:19.662Z</time></trkpt><trkpt lat="43.4715468" lon="11.3996026"><ele>387.0</ele><time>2026-05-02T17:13:20.658Z</time></trkpt><trkpt lat="43.4716392" lon="11.3993723"><ele>387.0</ele><time>2026-05-02T17:13:21.652Z</time></trkpt><trkpt lat="43.4717303" lon="11.3991413"><ele>387.0</ele><time>2026-05-02T17:13:22.664Z</time></trkpt><trkpt lat="43.4718234" lon="11.3989131"><ele>387.0</ele><time>2026-05-02T17:13:23.709Z</time></trkpt><trkpt lat="43.4719096" lon="11.3987021"><ele>386.0</ele><time>2026-05-02T17:13:24.665Z</time></trkpt><trkpt lat="43.4719982" lon="11.3985244"><ele>385.0</ele><time>2026-05-02T17:13:25.668Z</time></trkpt><trkpt lat="43.4720915" lon="11.3983718"><ele>384.0</ele><time>2026-05-02T17:13:26.66Z</time></trkpt><trkpt lat="43.4722124" lon="11.3982447"><ele>384.66666666666663</ele><time>2026-05-02T17:13:27.659Z</time></trkpt><trkpt lat="43.4723464" lon="11.3981198"><ele>385.3333333333333</ele><time>2026-05-02T17:13:28.664Z</time></trkpt><trkpt lat="43.4724936" lon="11.3980213"><ele>386.0</ele><time>2026-05-02T17:13:29.657Z</time></trkpt><trkpt lat="43.4726428" lon="11.3979351"><ele>386.0</ele><time>2026-05-02T17:13:30.658Z</time></trkpt><trkpt lat="43.4727952" lon="11.3978272"><ele>386.0</ele><time>2026-05-02T17:13:31.672Z</time></trkpt><trkpt lat="43.4729398" lon="11.3976849"><ele>386.0</ele><time>2026-05-02T17:13:32.663Z</time></trkpt><trkpt lat="43.47307" lon="11.3975091"><ele>387.0</ele><time>2026-05-02T17:13:33.668Z</time></trkpt><trkpt lat="43.4731953" lon="11.3973314"><ele>388.0</ele><time>2026-05-02T17:13:34.668Z</time></trkpt><trkpt lat="43.4733352" lon="11.3971544"><ele>389.0</ele><time>2026-05-02T17:13:35.671Z</time></trkpt><trkpt lat="43.4734702" lon="11.3969884"><ele>389.0</ele><time>2026-05-02T17:13:36.667Z</time></trkpt><trkpt lat="43.4736139" lon="11.3968118"><ele>389.0</ele><time>2026-05-02T17:13:37.662Z</time></trkpt><trkpt lat="43.4737658" lon="11.396637"><ele>389.0</ele><time>2026-05-02T17:13:38.664Z</time></trkpt><trkpt lat="43.4739193" lon="11.3964655"><ele>390.3333333333333</ele><time>2026-05-02T17:13:39.658Z</time></trkpt><trkpt lat="43.4740796" lon="11.3962935"><ele>391.66666666666663</ele><time>2026-05-02T17:13:40.655Z</time></trkpt><trkpt lat="43.4742277" lon="11.3961232"><ele>393.0</ele><time>2026-05-02T17:13:41.662Z</time></trkpt><trkpt lat="43.4743777" lon="11.3959506"><ele>393.0</ele><time>2026-05-02T17:13:42.661Z</time></trkpt><trkpt lat="43.4745293" lon="11.3957763"><ele>393.0</ele><time>2026-05-02T17:13:43.657Z</time></trkpt><trkpt lat="43.4746709" lon="11.3956086"><ele>393.0</ele><time>2026-05-02T17:13:44.662Z</time></trkpt><trkpt lat="43.4748052" lon="11.3954588"><ele>393.66666666666663</ele><time>2026-05-02T17:13:45.661Z</time></trkpt><trkpt lat="43.4749362" lon="11.3953168"><ele>394.3333333333333</ele><time>2026-05-02T17:13:46.655Z</time></trkpt><trkpt lat="43.4750737" lon="11.3951902"><ele>395.0</ele><time>2026-05-02T17:13:47.655Z</time></trkpt><trkpt lat="43.4752195" lon="11.3950859"><ele>395.0</ele><time>2026-05-02T17:13:48.643Z</time></trkpt><trkpt lat="43.4753796" lon="11.394998"><ele>395.0</ele><time>2026-05-02T17:13:49.656Z</time></trkpt><trkpt lat="43.4755533" lon="11.3949249"><ele>395.0</ele><time>2026-05-02T17:13:50.671Z</time></trkpt><trkpt lat="43.4757292" lon="11.3948585"><ele>396.0</ele><time>2026-05-02T17:13:51.657Z</time></trkpt><trkpt lat="43.4758967" lon="11.3948008"><ele>397.0</ele><time>2026-05-02T17:13:52.666Z</time></trkpt><trkpt lat="43.4760438" lon="11.3947409"><ele>398.0</ele><time>2026-05-02T17:13:53.667Z</time></trkpt><trkpt lat="43.4761526" lon="11.39465"><ele>398.0</ele><time>2026-05-02T17:13:54.663Z</time></trkpt><trkpt lat="43.476233" lon="11.3945316"><ele>398.0</ele><time>2026-05-02T17:13:55.656Z</time></trkpt><trkpt lat="43.4762925" lon="11.3943845"><ele>398.0</ele><time>2026-05-02T17:13:56.654Z</time></trkpt><trkpt lat="43.4763227" lon="11.3942063"><ele>398.0</ele><time>2026-05-02T17:13:57.665Z</time></trkpt><trkpt lat="43.4763604" lon="11.3940649"><ele>398.25</ele><time>2026-05-02T17:13:58.655Z</time></trkpt><trkpt lat="43.4764454" lon="11.3939682"><ele>398.5</ele><time>2026-05-02T17:13:59.663Z</time></trkpt><trkpt lat="43.4765711" lon="11.3939331"><ele>398.75</ele><time>2026-05-02T17:14:00.667Z</time></trkpt><trkpt lat="43.4767131" lon="11.3939525"><ele>399.0</ele><time>2026-05-02T17:14:01.661Z</time></trkpt><trkpt lat="43.4768432" lon="11.3940366"><ele>399.0</ele><time>2026-05-02T17:14:02.658Z</time></trkpt><trkpt lat="43.4769855" lon="11.3941598"><ele>399.0</ele><time>2026-05-02T17:14:03.652Z</time></trkpt><trkpt lat="43.4771227" lon="11.3942888"><ele>399.0</ele><time>2026-05-02T17:14:04.648Z</time></trkpt><trkpt lat="43.4772634" lon="11.3944293"><ele>400.0</ele><time>2026-05-02T17:14:05.66Z</time></trkpt><trkpt lat="43.4773933" lon="11.3945871"><ele>401.0</ele><time>2026-05-02T17:14:06.663Z</time></trkpt><trkpt lat="43.4775359" lon="11.394738"><ele>402.0</ele><time>2026-05-02T17:14:07.657Z</time></trkpt><trkpt lat="43.4776966" lon="11.3948622"><ele>402.0</ele><time>2026-05-02T17:14:08.663Z</time></trkpt><trkpt lat="43.4778593" lon="11.3949499"><ele>402.0</ele><time>2026-05-02T17:14:09.661Z</time></trkpt><trkpt lat="43.4780209" lon="11.3950336"><ele>402.0</ele><time>2026-05-02T17:14:10.656Z</time></trkpt><trkpt lat="43.478182" lon="11.3951174"><ele>404.25</ele><time>2026-05-02T17:14:11.659Z</time></trkpt><trkpt lat="43.478326" lon="11.3951998"><ele>406.5</ele><time>2026-05-02T17:14:12.653Z</time></trkpt><trkpt lat="43.4784511" lon="11.3952725"><ele>408.75</ele><time>2026-05-02T17:14:13.665Z</time></trkpt><trkpt lat="43.4785733" lon="11.3953173"><ele>411.0</ele><time>2026-05-02T17:14:14.666Z</time></trkpt><trkpt lat="43.4786745" lon="11.3952906"><ele>411.0</ele><time>2026-05-02T17:14:15.651Z</time></trkpt><trkpt lat="43.4787702" lon="11.3952456"><ele>411.0</ele><time>2026-05-02T17:14:16.655Z</time></trkpt><trkpt lat="43.4788246" lon="11.3951235"><ele>411.0</ele><time>2026-05-02T17:14:17.66Z</time></trkpt><trkpt lat="43.4788321" lon="11.3949883"><ele>411.0</ele><time>2026-05-02T17:14:18.665Z</time></trkpt><trkpt lat="43.4788073" lon="11.3948632"><ele>411.0</ele><time>2026-05-02T17:14:19.664Z</time></trkpt><trkpt lat="43.478734" lon="11.3947364"><ele>413.5</ele><time>2026-05-02T17:14:20.654Z</time></trkpt><trkpt lat="43.478607" lon="11.3946623"><ele>416.0</ele><time>2026-05-02T17:14:21.657Z</time></trkpt><trkpt lat="43.4784796" lon="11.3946011"><ele>418.5</ele><time>2026-05-02T17:14:22.654Z</time></trkpt><trkpt lat="43.4783447" lon="11.3945344"><ele>421.0</ele><time>2026-05-02T17:14:23.654Z</time></trkpt><trkpt lat="43.4782208" lon="11.394436"><ele>421.0</ele><time>2026-05-02T17:14:24.669Z</time></trkpt><trkpt lat="43.4781257" lon="11.3943109"><ele>421.0</ele><time>2026-05-02T17:14:25.655Z</time></trkpt><trkpt lat="43.4780662" lon="11.3941643"><ele>421.0</ele><time>2026-05-02T17:14:26.656Z</time></trkpt><trkpt lat="43.4780334" lon="11.3940146"><ele>421.0</ele><time>2026-05-02T17:14:27.659Z</time></trkpt><trkpt lat="43.4780312" lon="11.3938558"><ele>423.0</ele><time>2026-05-02T17:14:28.676Z</time></trkpt><trkpt lat="43.4780639" lon="11.3936794"><ele>425.0</ele><time>2026-05-02T17:14:29.656Z</time></trkpt><trkpt lat="43.4780915" lon="11.3934886"><ele>427.0</ele><time>2026-05-02T17:14:30.662Z</time></trkpt><trkpt lat="43.4780926" lon="11.3933012"><ele>429.0</ele><time>2026-05-02T17:14:31.661Z</time></trkpt><trkpt lat="43.4780548" lon="11.393157"><ele>429.0</ele><time>2026-05-02T17:14:32.646Z</time></trkpt><trkpt lat="43.4779865" lon="11.3930266"><ele>429.0</ele><time>2026-05-02T17:14:33.664Z</time></trkpt><trkpt lat="43.4779187" lon="11.3928992"><ele>429.0</ele><time>2026-05-02T17:14:34.664Z</time></trkpt><trkpt lat="43.4778526" lon="11.3927809"><ele>429.0</ele><time>2026-05-02T17:14:35.676Z</time></trkpt><trkpt lat="43.4778215" lon="11.3926638"><ele>429.0</ele><time>2026-05-02T17:14:36.66Z</time></trkpt><trkpt lat="43.4778269" lon="11.3925427"><ele>430.4</ele><time>2026-05-02T17:14:37.663Z</time></trkpt><trkpt lat="43.4778574" lon="11.3924589"><ele>431.79999999999995</ele><time>2026-05-02T17:14:38.656Z</time></trkpt><trkpt lat="43.4779434" lon="11.3924084"><ele>433.20000000000005</ele><time>2026-05-02T17:14:39.668Z</time></trkpt><trkpt lat="43.4780466" lon="11.3924191"><ele>434.6</ele><time>2026-05-02T17:14:40.658Z</time></trkpt><trkpt lat="43.4781188" lon="11.3925105"><ele>436.0</ele><time>2026-05-02T17:14:41.661Z</time></trkpt><trkpt lat="43.4781961" lon="11.3926561"><ele>436.0</ele><time>2026-05-02T17:14:42.663Z</time></trkpt><trkpt lat="43.4782773" lon="11.3928012"><ele>436.0</ele><time>2026-05-02T17:14:43.657Z</time></trkpt><trkpt lat="43.4783685" lon="11.3929448"><ele>436.0</ele><time>2026-05-02T17:14:44.659Z</time></trkpt><trkpt lat="43.4784625" lon="11.3930627"><ele>436.0</ele><time>2026-05-02T17:14:45.669Z</time></trkpt><trkpt lat="43.4785477" lon="11.3931658"><ele>436.4</ele><time>2026-05-02T17:14:46.667Z</time></trkpt><trkpt lat="43.4786294" lon="11.3932616"><ele>436.8</ele><time>2026-05-02T17:14:47.669Z</time></trkpt><trkpt lat="43.4787075" lon="11.3933429"><ele>437.19999999999993</ele><time>2026-05-02T17:14:48.66Z</time></trkpt><trkpt lat="43.4787816" lon="11.3934173"><ele>437.59999999999997</ele><time>2026-05-02T17:14:49.666Z</time></trkpt><trkpt lat="43.4788686" lon="11.3934677"><ele>438.0</ele><time>2026-05-02T17:14:50.661Z</time></trkpt><trkpt lat="43.4789508" lon="11.3934845"><ele>438.0</ele><time>2026-05-02T17:14:51.68Z</time></trkpt><trkpt lat="43.4790365" lon="11.3934585"><ele>437.99999999999994</ele><time>2026-05-02T17:14:52.666Z</time></trkpt><trkpt lat="43.4791287" lon="11.3933947"><ele>437.99999999999994</ele><time>2026-05-02T17:14:53.659Z</time></trkpt><trkpt lat="43.479205" lon="11.3932786"><ele>438.0</ele><time>2026-05-02T17:14:54.674Z</time></trkpt><trkpt lat="43.4792716" lon="11.3931518"><ele>438.0</ele><time>2026-05-02T17:14:55.658Z</time></trkpt><trkpt lat="43.4793496" lon="11.3930614"><ele>438.0</ele><time>2026-05-02T17:14:56.665Z</time></trkpt><trkpt lat="43.4794464" lon="11.3930072"><ele>437.99999999999994</ele><time>2026-05-02T17:14:57.655Z</time></trkpt><trkpt lat="43.4795483" lon="11.392976"><ele>437.99999999999994</ele><time>2026-05-02T17:14:58.658Z</time></trkpt><trkpt lat="43.4796587" lon="11.39302"><ele>438.0</ele><time>2026-05-02T17:14:59.662Z</time></trkpt><trkpt lat="43.4797604" lon="11.3930931"><ele>438.0</ele><time>2026-05-02T17:15:00.666Z</time></trkpt><trkpt lat="43.4798391" lon="11.39323"><ele>439.4</ele><time>2026-05-02T17:15:01.656Z</time></trkpt><trkpt lat="43.479907" lon="11.3933884"><ele>440.79999999999995</ele><time>2026-05-02T17:15:02.661Z</time></trkpt><trkpt lat="43.4799736" lon="11.3934903"><ele>442.2</ele><time>2026-05-02T17:15:03.661Z</time></trkpt><trkpt lat="43.4800621" lon="11.3935584"><ele>443.6</ele><time>2026-05-02T17:15:04.66Z</time></trkpt><trkpt lat="43.4801565" lon="11.3936066"><ele>445.0</ele><time>2026-05-02T17:15:05.668Z</time></trkpt><trkpt lat="43.4802675" lon="11.3936168"><ele>445.0</ele><time>2026-05-02T17:15:06.665Z</time></trkpt><trkpt lat="43.4803952" lon="11.3935828"><ele>445.0</ele><time>2026-05-02T17:15:07.654Z</time></trkpt><trkpt lat="43.4805047" lon="11.3935525"><ele>445.0</ele><time>2026-05-02T17:15:08.673Z</time></trkpt><trkpt lat="43.4806184" lon="11.3935439"><ele>445.0</ele><time>2026-05-02T17:15:09.657Z</time></trkpt><trkpt lat="43.4807214" lon="11.3935882"><ele>446.0</ele><time>2026-05-02T17:15:10.668Z</time></trkpt><trkpt lat="43.4808127" lon="11.3936824"><ele>447.0</ele><time>2026-05-02T17:15:11.665Z</time></trkpt><trkpt lat="43.4808808" lon="11.3938003"><ele>448.0</ele><time>2026-05-02T17:15:12.658Z</time></trkpt><trkpt lat="43.4809285" lon="11.3939371"><ele>449.0</ele><time>2026-05-02T17:15:13.659Z</time></trkpt><trkpt lat="43.4809496" lon="11.3940836"><ele>450.0</ele><time>2026-05-02T17:15:14.66Z</time></trkpt><trkpt lat="43.4809367" lon="11.3942495"><ele>450.0</ele><time>2026-05-02T17:15:15.667Z</time></trkpt><trkpt lat="43.4808968" lon="11.3944137"><ele>450.0</ele><time>2026-05-02T17:15:16.664Z</time></trkpt><trkpt lat="43.4808421" lon="11.3945621"><ele>450.0</ele><time>2026-05-02T17:15:17.668Z</time></trkpt><trkpt lat="43.4807842" lon="11.3946928"><ele>450.0</ele><time>2026-05-02T17:15:18.668Z</time></trkpt><trkpt lat="43.4807363" lon="11.394811"><ele>450.6</ele><time>2026-05-02T17:15:19.664Z</time></trkpt><trkpt lat="43.4806972" lon="11.3949419"><ele>451.2</ele><time>2026-05-02T17:15:20.663Z</time></trkpt><trkpt lat="43.4806732" lon="11.395099"><ele>451.79999999999995</ele><time>2026-05-02T17:15:21.657Z</time></trkpt><trkpt lat="43.4806776" lon="11.3952575"><ele>452.4</ele><time>2026-05-02T17:15:22.658Z</time></trkpt><trkpt lat="43.4807058" lon="11.3954014"><ele>453.0</ele><time>2026-05-02T17:15:23.659Z</time></trkpt><trkpt lat="43.4807591" lon="11.395516"><ele>451.5</ele><time>2026-05-02T17:15:24.659Z</time></trkpt><trkpt lat="43.4808368" lon="11.3956059"><ele>450.0</ele><time>2026-05-02T17:15:25.662Z</time></trkpt><trkpt lat="43.4809333" lon="11.3956823"><ele>448.5</ele><time>2026-05-02T17:15:26.659Z</time></trkpt><trkpt lat="43.481054" lon="11.3957378"><ele>447.0</ele><time>2026-05-02T17:15:27.663Z</time></trkpt><trkpt lat="43.4811937" lon="11.3957728"><ele>449.5</ele><time>2026-05-02T17:15:28.66Z</time></trkpt><trkpt lat="43.481333" lon="11.3957992"><ele>452.0</ele><time>2026-05-02T17:15:29.662Z</time></trkpt><trkpt lat="43.481469" lon="11.3957896"><ele>454.5</ele><time>2026-05-02T17:15:30.664Z</time></trkpt><trkpt lat="43.4816097" lon="11.3957431"><ele>457.0</ele><time>2026-05-02T17:15:31.667Z</time></trkpt><trkpt lat="43.4817459" lon="11.3956802"><ele>457.0</ele><time>2026-05-02T17:15:32.661Z</time></trkpt><trkpt lat="43.4818782" lon="11.3956281"><ele>457.0</ele><time>2026-05-02T17:15:33.663Z</time></trkpt><trkpt lat="43.4820062" lon="11.3956169"><ele>457.0</ele><time>2026-05-02T17:15:34.657Z</time></trkpt><trkpt lat="43.4821242" lon="11.3956404"><ele>457.0</ele><time>2026-05-02T17:15:35.659Z</time></trkpt><trkpt lat="43.4822247" lon="11.3956832"><ele>459.0</ele><time>2026-05-02T17:15:36.655Z</time></trkpt><trkpt lat="43.4823276" lon="11.395766"><ele>461.0</ele><time>2026-05-02T17:15:37.661Z</time></trkpt><trkpt lat="43.48242" lon="11.3958936"><ele>463.0</ele><time>2026-05-02T17:15:38.66Z</time></trkpt><trkpt lat="43.4824868" lon="11.3960226"><ele>465.0</ele><time>2026-05-02T17:15:39.66Z</time></trkpt><trkpt lat="43.4825523" lon="11.3961606"><ele>465.0</ele><time>2026-05-02T17:15:40.653Z</time></trkpt><trkpt lat="43.4826292" lon="11.3962573"><ele>465.0</ele><time>2026-05-02T17:15:41.674Z</time></trkpt><trkpt lat="43.4827119" lon="11.3963117"><ele>465.0</ele><time>2026-05-02T17:15:42.661Z</time></trkpt><trkpt lat="43.4828084" lon="11.3963123"><ele>465.0</ele><time>2026-05-02T17:15:43.656Z</time></trkpt><trkpt lat="43.4829339" lon="11.3962711"><ele>465.0</ele><time>2026-05-02T17:15:44.663Z</time></trkpt><trkpt lat="43.4830573" lon="11.3962101"><ele>466.66666666666663</ele><time>2026-05-02T17:15:45.664Z</time></trkpt><trkpt lat="43.4831968" lon="11.3961273"><ele>468.3333333333333</ele><time>2026-05-02T17:15:46.664Z</time></trkpt><trkpt lat="43.483347" lon="11.3960537"><ele>470.0</ele><time>2026-05-02T17:15:47.652Z</time></trkpt><trkpt lat="43.4834959" lon="11.3959906"><ele>470.0</ele><time>2026-05-02T17:15:48.665Z</time></trkpt><trkpt lat="43.4836313" lon="11.3959467"><ele>470.0</ele><time>2026-05-02T17:15:49.655Z</time></trkpt><trkpt lat="43.4837473" lon="11.3959234"><ele>470.0</ele><time>2026-05-02T17:15:50.657Z</time></trkpt><trkpt lat="43.4838664" lon="11.3959026"><ele>470.0</ele><time>2026-05-02T17:15:51.661Z</time></trkpt><trkpt lat="43.4839898" lon="11.3959071"><ele>471.75</ele><time>2026-05-02T17:15:52.661Z</time></trkpt><trkpt lat="43.4841135" lon="11.3959487"><ele>473.5</ele><time>2026-05-02T17:15:53.673Z</time></trkpt><trkpt lat="43.4842293" lon="11.3960043"><ele>475.25</ele><time>2026-05-02T17:15:54.657Z</time></trkpt><trkpt lat="43.4843274" lon="11.3960829"><ele>477.0</ele><time>2026-05-02T17:15:55.663Z</time></trkpt><trkpt lat="43.4844142" lon="11.3961773"><ele>477.0</ele><time>2026-05-02T17:15:56.652Z</time></trkpt><trkpt lat="43.4844781" lon="11.396313"><ele>477.0</ele><time>2026-05-02T17:15:57.665Z</time></trkpt><trkpt lat="43.4845058" lon="11.3964647"><ele>477.0</ele><time>2026-05-02T17:15:58.66Z</time></trkpt><trkpt lat="43.4844979" lon="11.396626"><ele>477.0</ele><time>2026-05-02T17:15:59.66Z</time></trkpt><trkpt lat="43.4844695" lon="11.396763"><ele>475.8</ele><time>2026-05-02T17:16:00.658Z</time></trkpt><trkpt lat="43.4844407" lon="11.3968833"><ele>474.6</ele><time>2026-05-02T17:16:01.666Z</time></trkpt><trkpt lat="43.4844294" lon="11.3969933"><ele>473.40000000000003</ele><time>2026-05-02T17:16:02.666Z</time></trkpt><trkpt lat="43.484435" lon="11.3971001"><ele>472.20000000000005</ele><time>2026-05-02T17:16:03.661Z</time></trkpt><trkpt lat="43.4844827" lon="11.3972162"><ele>471.0</ele><time>2026-05-02T17:16:04.655Z</time></trkpt><trkpt lat="43.4845415" lon="11.3973342"><ele>474.0</ele><time>2026-05-02T17:16:05.66Z</time></trkpt><trkpt lat="43.4846116" lon="11.3974436"><ele>477.0</ele><time>2026-05-02T17:16:06.682Z</time></trkpt><trkpt lat="43.4846848" lon="11.3975468"><ele>480.0</ele><time>2026-05-02T17:16:07.658Z</time></trkpt><trkpt lat="43.4847582" lon="11.3976521"><ele>483.0</ele><time>2026-05-02T17:16:08.666Z</time></trkpt><trkpt lat="43.4848269" lon="11.3977654"><ele>486.0</ele><time>2026-05-02T17:16:09.658Z</time></trkpt><trkpt lat="43.484907" lon="11.3978641"><ele>486.0</ele><time>2026-05-02T17:16:10.669Z</time></trkpt><trkpt lat="43.4850002" lon="11.3979308"><ele>486.0</ele><time>2026-05-02T17:16:11.661Z</time></trkpt><trkpt lat="43.4851056" lon="11.3979677"><ele>486.0</ele><time>2026-05-02T17:16:12.661Z</time></trkpt><trkpt lat="43.4852172" lon="11.3979825"><ele>486.0</ele><time>2026-05-02T17:16:13.67Z</time></trkpt><trkpt lat="43.4853366" lon="11.3979805"><ele>486.0</ele><time>2026-05-02T17:16:14.663Z</time></trkpt><trkpt lat="43.4854556" lon="11.397965"><ele>486.20000000000005</ele><time>2026-05-02T17:16:15.668Z</time></trkpt><trkpt lat="43.4855746" lon="11.3979659"><ele>486.40000000000003</ele><time>2026-05-02T17:16:16.667Z</time></trkpt><trkpt lat="43.4856847" lon="11.3979871"><ele>486.6</ele><time>2026-05-02T17:16:17.661Z</time></trkpt><trkpt lat="43.485781" lon="11.3980357"><ele>486.8</ele><time>2026-05-02T17:16:18.657Z</time></trkpt><trkpt lat="43.4858752" lon="11.3981195"><ele>487.0</ele><time>2026-05-02T17:16:19.653Z</time></trkpt><trkpt lat="43.485942" lon="11.3982474"><ele>487.0</ele><time>2026-05-02T17:16:20.673Z</time></trkpt><trkpt lat="43.4859803" lon="11.3983809"><ele>487.00000000000006</ele><time>2026-05-02T17:16:21.66Z</time></trkpt><trkpt lat="43.4859887" lon="11.3985267"><ele>487.00000000000006</ele><time>2026-05-02T17:16:22.66Z</time></trkpt><trkpt lat="43.4859752" lon="11.3986702"><ele>487.0</ele><time>2026-05-02T17:16:23.656Z</time></trkpt><trkpt lat="43.4859683" lon="11.3988061"><ele>487.0</ele><time>2026-05-02T17:16:24.664Z</time></trkpt><trkpt lat="43.4859559" lon="11.3989298"><ele>486.0</ele><time>2026-05-02T17:16:25.657Z</time></trkpt><trkpt lat="43.4859621" lon="11.3990462"><ele>485.00000000000006</ele><time>2026-05-02T17:16:26.661Z</time></trkpt><trkpt lat="43.4859869" lon="11.3991509"><ele>484.00000000000006</ele><time>2026-05-02T17:16:27.662Z</time></trkpt><trkpt lat="43.486039" lon="11.3992529"><ele>483.0</ele><time>2026-05-02T17:16:28.665Z</time></trkpt><trkpt lat="43.486123" lon="11.3993496"><ele>482.0</ele><time>2026-05-02T17:16:29.667Z</time></trkpt><trkpt lat="43.4862236" lon="11.3994252"><ele>488.3333333333333</ele><time>2026-05-02T17:16:30.664Z</time></trkpt><trkpt lat="43.4863616" lon="11.3994759"><ele>494.66666666666663</ele><time>2026-05-02T17:16:31.657Z</time></trkpt><trkpt lat="43.4865326" lon="11.3995073"><ele>501.0</ele><time>2026-05-02T17:16:32.659Z</time></trkpt><trkpt lat="43.4867231" lon="11.3995431"><ele>501.0</ele><time>2026-05-02T17:16:33.664Z</time></trkpt><trkpt lat="43.486917" lon="11.399591"><ele>501.0</ele><time>2026-05-02T17:16:34.67Z</time></trkpt><trkpt lat="43.4870937" lon="11.3996326"><ele>501.0</ele><time>2026-05-02T17:16:35.663Z</time></trkpt><trkpt lat="43.4872454" lon="11.399665"><ele>501.0</ele><time>2026-05-02T17:16:36.669Z</time></trkpt><trkpt lat="43.4873742" lon="11.3996912"><ele>501.0</ele><time>2026-05-02T17:16:37.661Z</time></trkpt><trkpt lat="43.4874681" lon="11.3997084"><ele>501.0</ele><time>2026-05-02T17:16:38.665Z</time></trkpt><trkpt lat="43.4875574" lon="11.3997145"><ele>501.0</ele><time>2026-05-02T17:16:40.664Z</time></trkpt><trkpt lat="43.4876198" lon="11.3997453"><ele>501.0</ele><time>2026-05-02T17:16:43.66Z</time></trkpt><trkpt lat="43.4877255" lon="11.3997714"><ele>501.0</ele><time>2026-05-02T17:16:45.652Z</time></trkpt><trkpt lat="43.487806" lon="11.3997689"><ele>501.0</ele><time>2026-05-02T17:16:46.679Z</time></trkpt><trkpt lat="43.4878905" lon="11.3997544"><ele>501.0</ele><time>2026-05-02T17:16:47.66Z</time></trkpt><trkpt lat="43.4879791" lon="11.3997481"><ele>501.0</ele><time>2026-05-02T17:16:48.667Z</time></trkpt><trkpt lat="43.4880705" lon="11.3997332"><ele>501.0</ele><time>2026-05-02T17:16:49.668Z</time></trkpt><trkpt lat="43.4881517" lon="11.3997047"><ele>501.0</ele><time>2026-05-02T17:16:50.658Z</time></trkpt><trkpt lat="43.4882315" lon="11.3996598"><ele>500.75</ele><time>2026-05-02T17:16:51.665Z</time></trkpt><trkpt lat="43.4883165" lon="11.3995911"><ele>500.5</ele><time>2026-05-02T17:16:52.658Z</time></trkpt><trkpt lat="43.4883937" lon="11.3994941"><ele>500.25</ele><time>2026-05-02T17:16:53.668Z</time></trkpt><trkpt lat="43.4884738" lon="11.3993755"><ele>500.0</ele><time>2026-05-02T17:16:54.662Z</time></trkpt><trkpt lat="43.4885572" lon="11.3992123"><ele>500.0</ele><time>2026-05-02T17:16:55.663Z</time></trkpt><trkpt lat="43.488638" lon="11.3990104"><ele>500.0</ele><time>2026-05-02T17:16:56.659Z</time></trkpt><trkpt lat="43.4887267" lon="11.3987924"><ele>500.0</ele><time>2026-05-02T17:16:57.648Z</time></trkpt><trkpt lat="43.4888281" lon="11.3985909"><ele>496.66666666666663</ele><time>2026-05-02T17:16:58.681Z</time></trkpt><trkpt lat="43.4889355" lon="11.398392"><ele>493.33333333333337</ele><time>2026-05-02T17:16:59.653Z</time></trkpt><trkpt lat="43.4890458" lon="11.3981723"><ele>490.0</ele><time>2026-05-02T17:17:00.658Z</time></trkpt><trkpt lat="43.4891507" lon="11.397957"><ele>490.0</ele><time>2026-05-02T17:17:01.654Z</time></trkpt><trkpt lat="43.4892508" lon="11.397742"><ele>490.0</ele><time>2026-05-02T17:17:02.658Z</time></trkpt><trkpt lat="43.4893493" lon="11.3975326"><ele>490.0</ele><time>2026-05-02T17:17:03.665Z</time></trkpt><trkpt lat="43.4894423" lon="11.3973316"><ele>489.33333333333337</ele><time>2026-05-02T17:17:04.66Z</time></trkpt><trkpt lat="43.489529" lon="11.3971431"><ele>488.66666666666663</ele><time>2026-05-02T17:17:05.671Z</time></trkpt><trkpt lat="43.4896072" lon="11.3969571"><ele>488.0</ele><time>2026-05-02T17:17:06.673Z</time></trkpt><trkpt lat="43.4896965" lon="11.3967938"><ele>484.25</ele><time>2026-05-02T17:17:07.656Z</time></trkpt><trkpt lat="43.4897938" lon="11.3966693"><ele>480.5</ele><time>2026-05-02T17:17:08.659Z</time></trkpt><trkpt lat="43.4898861" lon="11.3965539"><ele>476.75</ele><time>2026-05-02T17:17:09.654Z</time></trkpt><trkpt lat="43.4899715" lon="11.3964369"><ele>473.0</ele><time>2026-05-02T17:17:10.669Z</time></trkpt><trkpt lat="43.4900361" lon="11.3962915"><ele>473.0</ele><time>2026-05-02T17:17:11.665Z</time></trkpt><trkpt lat="43.4900702" lon="11.3961127"><ele>473.0</ele><time>2026-05-02T17:17:12.674Z</time></trkpt><trkpt lat="43.4900908" lon="11.3959288"><ele>473.0</ele><time>2026-05-02T17:17:13.668Z</time></trkpt><trkpt lat="43.4901125" lon="11.3957371"><ele>473.0</ele><time>2026-05-02T17:17:14.664Z</time></trkpt><trkpt lat="43.4901217" lon="11.3955319"><ele>472.0</ele><time>2026-05-02T17:17:15.699Z</time></trkpt><trkpt lat="43.4901228" lon="11.3953311"><ele>471.0</ele><time>2026-05-02T17:17:16.658Z</time></trkpt><trkpt lat="43.4901221" lon="11.3951316"><ele>470.0</ele><time>2026-05-02T17:17:17.663Z</time></trkpt><trkpt lat="43.4901135" lon="11.39495"><ele>469.0</ele><time>2026-05-02T17:17:18.693Z</time></trkpt><trkpt lat="43.4901026" lon="11.3947792"><ele>468.0</ele><time>2026-05-02T17:17:19.659Z</time></trkpt><trkpt lat="43.4901041" lon="11.3946223"><ele>467.0</ele><time>2026-05-02T17:17:20.657Z</time></trkpt><trkpt lat="43.490115" lon="11.3944696"><ele>466.0</ele><time>2026-05-02T17:17:21.665Z</time></trkpt><trkpt lat="43.4901395" lon="11.3943183"><ele>465.0</ele><time>2026-05-02T17:17:22.669Z</time></trkpt><trkpt lat="43.4901848" lon="11.3941803"><ele>464.0</ele><time>2026-05-02T17:17:23.678Z</time></trkpt><trkpt lat="43.4902459" lon="11.3940466"><ele>464.0</ele><time>2026-05-02T17:17:24.664Z</time></trkpt><trkpt lat="43.4903115" lon="11.3939125"><ele>464.0</ele><time>2026-05-02T17:17:25.671Z</time></trkpt><trkpt lat="43.4903647" lon="11.3937746"><ele>464.0</ele><time>2026-05-02T17:17:26.669Z</time></trkpt><trkpt lat="43.490405" lon="11.3936249"><ele>464.0</ele><time>2026-05-02T17:17:27.655Z</time></trkpt><trkpt lat="43.4904287" lon="11.3934775"><ele>465.0</ele><time>2026-05-02T17:17:28.664Z</time></trkpt><trkpt lat="43.490433" lon="11.393315"><ele>466.0</ele><time>2026-05-02T17:17:29.653Z</time></trkpt><trkpt lat="43.4904205" lon="11.3931519"><ele>467.0</ele><time>2026-05-02T17:17:30.658Z</time></trkpt><trkpt lat="43.49038" lon="11.3929755"><ele>468.0</ele><time>2026-05-02T17:17:31.66Z</time></trkpt><trkpt lat="43.4903292" lon="11.3927939"><ele>465.25</ele><time>2026-05-02T17:17:32.683Z</time></trkpt><trkpt lat="43.490277" lon="11.3926054"><ele>462.5</ele><time>2026-05-02T17:17:33.666Z</time></trkpt><trkpt lat="43.4902361" lon="11.3924067"><ele>459.75</ele><time>2026-05-02T17:17:34.667Z</time></trkpt><trkpt lat="43.4902097" lon="11.3922007"><ele>457.0</ele><time>2026-05-02T17:17:35.659Z</time></trkpt><trkpt lat="43.4901991" lon="11.3919828"><ele>456.75</ele><time>2026-05-02T17:17:36.679Z</time></trkpt><trkpt lat="43.490212" lon="11.391761"><ele>456.5</ele><time>2026-05-02T17:17:37.659Z</time></trkpt><trkpt lat="43.4902128" lon="11.3915519"><ele>456.25</ele><time>2026-05-02T17:17:38.676Z</time></trkpt><trkpt lat="43.4901969" lon="11.3913726"><ele>456.0</ele><time>2026-05-02T17:17:39.663Z</time></trkpt><trkpt lat="43.490143" lon="11.3912044"><ele>456.75</ele><time>2026-05-02T17:17:40.682Z</time></trkpt><trkpt lat="43.4900533" lon="11.3910658"><ele>457.5</ele><time>2026-05-02T17:17:41.662Z</time></trkpt><trkpt lat="43.489953" lon="11.3909218"><ele>458.25</ele><time>2026-05-02T17:17:42.674Z</time></trkpt><trkpt lat="43.489842" lon="11.3907671"><ele>459.0</ele><time>2026-05-02T17:17:43.662Z</time></trkpt><trkpt lat="43.4897449" lon="11.3905854"><ele>461.0</ele><time>2026-05-02T17:17:44.643Z</time></trkpt><trkpt lat="43.4896645" lon="11.3903836"><ele>463.0</ele><time>2026-05-02T17:17:45.655Z</time></trkpt><trkpt lat="43.489592" lon="11.3901641"><ele>465.0</ele><time>2026-05-02T17:17:46.663Z</time></trkpt><trkpt lat="43.4895205" lon="11.3899509"><ele>461.66666666666663</ele><time>2026-05-02T17:17:47.662Z</time></trkpt><trkpt lat="43.4894401" lon="11.3897416"><ele>458.3333333333333</ele><time>2026-05-02T17:17:48.661Z</time></trkpt><trkpt lat="43.489379" lon="11.3895459"><ele>455.0</ele><time>2026-05-02T17:17:49.664Z</time></trkpt><trkpt lat="43.4893258" lon="11.3893673"><ele>455.0</ele><time>2026-05-02T17:17:50.664Z</time></trkpt><trkpt lat="43.4892947" lon="11.3891997"><ele>455.0</ele><time>2026-05-02T17:17:51.66Z</time></trkpt><trkpt lat="43.4893061" lon="11.3890398"><ele>455.0</ele><time>2026-05-02T17:17:52.673Z</time></trkpt><trkpt lat="43.4893468" lon="11.3888836"><ele>455.0</ele><time>2026-05-02T17:17:53.66Z</time></trkpt><trkpt lat="43.4893961" lon="11.3887187"><ele>453.66666666666663</ele><time>2026-05-02T17:17:54.666Z</time></trkpt><trkpt lat="43.4894234" lon="11.3885249"><ele>452.33333333333337</ele><time>2026-05-02T17:17:55.661Z</time></trkpt><trkpt lat="43.4894543" lon="11.3883053"><ele>451.0</ele><time>2026-05-02T17:17:56.665Z</time></trkpt><trkpt lat="43.4894752" lon="11.388079"><ele>450.0</ele><time>2026-05-02T17:17:57.665Z</time></trkpt><trkpt lat="43.4894963" lon="11.3878394"><ele>449.0</ele><time>2026-05-02T17:17:58.669Z</time></trkpt><trkpt lat="43.4895186" lon="11.3875899"><ele>448.0</ele><time>2026-05-02T17:17:59.657Z</time></trkpt><trkpt lat="43.4895409" lon="11.3873272"><ele>447.6666666666667</ele><time>2026-05-02T17:18:00.658Z</time></trkpt><trkpt lat="43.4895558" lon="11.3870818"><ele>447.33333333333337</ele><time>2026-05-02T17:18:01.658Z</time></trkpt><trkpt lat="43.4895878" lon="11.3868739"><ele>447.0</ele><time>2026-05-02T17:18:02.656Z</time></trkpt><trkpt lat="43.4896281" lon="11.3867027"><ele>451.0</ele><time>2026-05-02T17:18:03.667Z</time></trkpt><trkpt lat="43.4896871" lon="11.3865551"><ele>455.0</ele><time>2026-05-02T17:18:04.667Z</time></trkpt><trkpt lat="43.4897725" lon="11.386468"><ele>459.0</ele><time>2026-05-02T17:18:05.656Z</time></trkpt><trkpt lat="43.4898841" lon="11.3864242"><ele>463.0</ele><time>2026-05-02T17:18:06.666Z</time></trkpt><trkpt lat="43.4899995" lon="11.3863812"><ele>462.0</ele><time>2026-05-02T17:18:07.653Z</time></trkpt><trkpt lat="43.4901135" lon="11.3862986"><ele>461.0</ele><time>2026-05-02T17:18:08.653Z</time></trkpt><trkpt lat="43.4902172" lon="11.3861701"><ele>460.0</ele><time>2026-05-02T17:18:09.656Z</time></trkpt><trkpt lat="43.4902928" lon="11.3860149"><ele>459.0</ele><time>2026-05-02T17:18:10.654Z</time></trkpt><trkpt lat="43.4903518" lon="11.3858166"><ele>459.0</ele><time>2026-05-02T17:18:11.656Z</time></trkpt><trkpt lat="43.4903951" lon="11.3856313"><ele>459.0</ele><time>2026-05-02T17:18:12.654Z</time></trkpt><trkpt lat="43.4903845" lon="11.3854719"><ele>459.0</ele><time>2026-05-02T17:18:13.667Z</time></trkpt><trkpt lat="43.4903651" lon="11.3853274"><ele>459.0</ele><time>2026-05-02T17:18:14.669Z</time></trkpt><trkpt lat="43.4903348" lon="11.3851801"><ele>458.79999999999995</ele><time>2026-05-02T17:18:15.655Z</time></trkpt><trkpt lat="43.4902819" lon="11.3850548"><ele>458.59999999999997</ele><time>2026-05-02T17:18:16.659Z</time></trkpt><trkpt lat="43.4902124" lon="11.3849365"><ele>458.4</ele><time>2026-05-02T17:18:17.659Z</time></trkpt><trkpt lat="43.4901415" lon="11.3848137"><ele>458.2</ele><time>2026-05-02T17:18:18.658Z</time></trkpt><trkpt lat="43.4900947" lon="11.3846693"><ele>458.0</ele><time>2026-05-02T17:18:19.664Z</time></trkpt><trkpt lat="43.4900584" lon="11.3844958"><ele>459.25</ele><time>2026-05-02T17:18:20.665Z</time></trkpt><trkpt lat="43.4900385" lon="11.3843111"><ele>460.5</ele><time>2026-05-02T17:18:21.656Z</time></trkpt><trkpt lat="43.4900015" lon="11.3841189"><ele>461.75</ele><time>2026-05-02T17:18:22.659Z</time></trkpt><trkpt lat="43.4899368" lon="11.3839347"><ele>463.0</ele><time>2026-05-02T17:18:23.662Z</time></trkpt><trkpt lat="43.4898468" lon="11.3837653"><ele>463.0</ele><time>2026-05-02T17:18:24.663Z</time></trkpt><trkpt lat="43.4897267" lon="11.3836124"><ele>463.0</ele><time>2026-05-02T17:18:25.658Z</time></trkpt><trkpt lat="43.4895965" lon="11.3834662"><ele>463.0</ele><time>2026-05-02T17:18:26.668Z</time></trkpt><trkpt lat="43.4894549" lon="11.3833199"><ele>465.33333333333337</ele><time>2026-05-02T17:18:27.66Z</time></trkpt><trkpt lat="43.4893055" lon="11.3831659"><ele>467.66666666666663</ele><time>2026-05-02T17:18:28.673Z</time></trkpt><trkpt lat="43.489159" lon="11.3830129"><ele>470.0</ele><time>2026-05-02T17:18:29.664Z</time></trkpt><trkpt lat="43.4890127" lon="11.3828683"><ele>472.66666666666663</ele><time>2026-05-02T17:18:30.671Z</time></trkpt><trkpt lat="43.4888653" lon="11.3827431"><ele>475.33333333333337</ele><time>2026-05-02T17:18:31.666Z</time></trkpt><trkpt lat="43.4887313" lon="11.382617"><ele>478.0</ele><time>2026-05-02T17:18:32.655Z</time></trkpt><trkpt lat="43.4886176" lon="11.3824702"><ele>478.6666666666667</ele><time>2026-05-02T17:18:33.67Z</time></trkpt><trkpt lat="43.488509" lon="11.3823224"><ele>479.33333333333337</ele><time>2026-05-02T17:18:34.67Z</time></trkpt><trkpt lat="43.4884148" lon="11.3821653"><ele>480.0</ele><time>2026-05-02T17:18:35.671Z</time></trkpt><trkpt lat="43.4883299" lon="11.3819951"><ele>482.0</ele><time>2026-05-02T17:18:36.668Z</time></trkpt><trkpt lat="43.4882539" lon="11.3818093"><ele>484.0</ele><time>2026-05-02T17:18:37.661Z</time></trkpt><trkpt lat="43.4881778" lon="11.3816137"><ele>486.0</ele><time>2026-05-02T17:18:38.664Z</time></trkpt><trkpt lat="43.4881029" lon="11.3814136"><ele>485.0</ele><time>2026-05-02T17:18:39.666Z</time></trkpt><trkpt lat="43.4880309" lon="11.3811992"><ele>484.0</ele><time>2026-05-02T17:18:40.683Z</time></trkpt><trkpt lat="43.4879688" lon="11.3809788"><ele>483.0</ele><time>2026-05-02T17:18:41.66Z</time></trkpt><trkpt lat="43.4879235" lon="11.3807481"><ele>489.0</ele><time>2026-05-02T17:18:42.663Z</time></trkpt><trkpt lat="43.487896" lon="11.3805229"><ele>495.0</ele><time>2026-05-02T17:18:43.658Z</time></trkpt><trkpt lat="43.4878748" lon="11.3803067"><ele>501.0</ele><time>2026-05-02T17:18:44.656Z</time></trkpt><trkpt lat="43.4878584" lon="11.3801141"><ele>501.5</ele><time>2026-05-02T17:18:45.669Z</time></trkpt><trkpt lat="43.4878414" lon="11.3799338"><ele>502.0</ele><time>2026-05-02T17:18:46.665Z</time></trkpt><trkpt lat="43.4878012" lon="11.379784"><ele>502.5</ele><time>2026-05-02T17:18:47.661Z</time></trkpt><trkpt lat="43.4877331" lon="11.3796548"><ele>503.0</ele><time>2026-05-02T17:18:48.666Z</time></trkpt><trkpt lat="43.4876354" lon="11.3795499"><ele>503.75</ele><time>2026-05-02T17:18:49.662Z</time></trkpt><trkpt lat="43.4875311" lon="11.3794407"><ele>504.5</ele><time>2026-05-02T17:18:50.681Z</time></trkpt><trkpt lat="43.4874306" lon="11.3793077"><ele>505.25</ele><time>2026-05-02T17:18:51.666Z</time></trkpt><trkpt lat="43.4873385" lon="11.3791401"><ele>506.0</ele><time>2026-05-02T17:18:52.665Z</time></trkpt><trkpt lat="43.4872426" lon="11.3789704"><ele>507.3333333333333</ele><time>2026-05-02T17:18:53.664Z</time></trkpt><trkpt lat="43.4871441" lon="11.3787947"><ele>508.66666666666663</ele><time>2026-05-02T17:18:54.667Z</time></trkpt><trkpt lat="43.4870497" lon="11.3786175"><ele>510.0</ele><time>2026-05-02T17:18:55.66Z</time></trkpt><trkpt lat="43.48697" lon="11.3784419"><ele>510.0</ele><time>2026-05-02T17:18:56.66Z</time></trkpt><trkpt lat="43.486916" lon="11.3782733"><ele>510.0</ele><time>2026-05-02T17:18:57.664Z</time></trkpt><trkpt lat="43.4868807" lon="11.3781213"><ele>510.0</ele><time>2026-05-02T17:18:58.673Z</time></trkpt><trkpt lat="43.4868548" lon="11.377986"><ele>510.0</ele><time>2026-05-02T17:18:59.652Z</time></trkpt><trkpt lat="43.4868398" lon="11.3778701"><ele>510.0</ele><time>2026-05-02T17:19:00.666Z</time></trkpt><trkpt lat="43.4868382" lon="11.3777531"><ele>511.0</ele><time>2026-05-02T17:19:01.659Z</time></trkpt><trkpt lat="43.486841" lon="11.3776407"><ele>512.0</ele><time>2026-05-02T17:19:02.667Z</time></trkpt><trkpt lat="43.4868457" lon="11.3775245"><ele>513.0</ele><time>2026-05-02T17:19:03.68Z</time></trkpt><trkpt lat="43.4868634" lon="11.377389"><ele>514.0</ele><time>2026-05-02T17:19:04.66Z</time></trkpt><trkpt lat="43.4868793" lon="11.3772399"><ele>515.0</ele><time>2026-05-02T17:19:05.663Z</time></trkpt><trkpt lat="43.4868879" lon="11.3770666"><ele>515.0</ele><time>2026-05-02T17:19:06.668Z</time></trkpt><trkpt lat="43.486903" lon="11.3768864"><ele>515.0</ele><time>2026-05-02T17:19:07.672Z</time></trkpt><trkpt lat="43.486914" lon="11.3767048"><ele>515.0</ele><time>2026-05-02T17:19:08.666Z</time></trkpt><trkpt lat="43.4869203" lon="11.3765102"><ele>515.0</ele><time>2026-05-02T17:19:09.656Z</time></trkpt><trkpt lat="43.4869317" lon="11.3763349"><ele>516.4</ele><time>2026-05-02T17:19:10.668Z</time></trkpt><trkpt lat="43.4869388" lon="11.376168"><ele>517.8</ele><time>2026-05-02T17:19:11.662Z</time></trkpt><trkpt lat="43.4869413" lon="11.376023"><ele>519.2</ele><time>2026-05-02T17:19:12.685Z</time></trkpt><trkpt lat="43.4869302" lon="11.3759082"><ele>520.6</ele><time>2026-05-02T17:19:13.67Z</time></trkpt><trkpt lat="43.4869037" lon="11.375805"><ele>522.0</ele><time>2026-05-02T17:19:14.67Z</time></trkpt><trkpt lat="43.4868572" lon="11.3757202"><ele>522.0</ele><time>2026-05-02T17:19:15.664Z</time></trkpt><trkpt lat="43.4868037" lon="11.3756219"><ele>522.0</ele><time>2026-05-02T17:19:16.672Z</time></trkpt><trkpt lat="43.4867446" lon="11.3755316"><ele>522.0</ele><time>2026-05-02T17:19:17.669Z</time></trkpt><trkpt lat="43.4866928" lon="11.3754404"><ele>522.0</ele><time>2026-05-02T17:19:18.668Z</time></trkpt><trkpt lat="43.4866319" lon="11.3753395"><ele>522.0</ele><time>2026-05-02T17:19:19.662Z</time></trkpt><trkpt lat="43.48657" lon="11.3752457"><ele>522.0</ele><time>2026-05-02T17:19:20.659Z</time></trkpt><trkpt lat="43.4865144" lon="11.3751509"><ele>521.8571428571429</ele><time>2026-05-02T17:19:21.657Z</time></trkpt><trkpt lat="43.4864663" lon="11.3750848"><ele>521.7142857142857</ele><time>2026-05-02T17:19:22.643Z</time></trkpt><trkpt lat="43.4864224" lon="11.3750119"><ele>521.5714285714286</ele><time>2026-05-02T17:19:24.658Z</time></trkpt><trkpt lat="43.4863709" lon="11.3749372"><ele>521.4285714285714</ele><time>2026-05-02T17:19:27.661Z</time></trkpt><trkpt lat="43.4863285" lon="11.3748669"><ele>521.2857142857143</ele><time>2026-05-02T17:19:29.662Z</time></trkpt><trkpt lat="43.4862751" lon="11.3748127"><ele>521.1428571428571</ele><time>2026-05-02T17:19:31.675Z</time></trkpt><trkpt lat="43.486221" lon="11.3747191"><ele>521.0</ele><time>2026-05-02T17:19:33.662Z</time></trkpt><trkpt lat="43.4861898" lon="11.3746317"><ele>521.0</ele><time>2026-05-02T17:19:35.674Z</time></trkpt><trkpt lat="43.4861888" lon="11.3745406"><ele>521.0</ele><time>2026-05-02T17:19:41.668Z</time></trkpt></trkseg></trk></gpx>